<?xml version="1.0" encoding="UTF-8"?>
<gpx xmlns="http://www.topografix.com/GPX/1/1"
     creator="GpsDumpMac 0.36"
     version="1.1"
     xmlns:xsi="http://www.w3.org/2001/XMLSchema-instance"
     xsi:schemaLocation="http://www.topografix.com/GPX/1/1 http://www.topografix.com/GPX/1/1/gpx.xsd">
  <metadata>
    <link href="http://www.gethome.no/stein.sorensen/">
      <text>GPS dump for www.flightlog.org</text>
    </link>
    <time>2015-06-08T18:08:38Z</time>
    <bounds minlat="40.015833" minlon="-5.768250" maxlat="40.254250" maxlon="-4.880667"/>
  </metadata>
  <trk>
    <name>Track 001</name>
    <trkseg>
      <trkpt lat="40.252483" lon="-4.887483">
        <ele>1014.0</ele>
        <time>2015-06-07T12:20:20Z</time>
      </trkpt>
      <trkpt lat="40.252433" lon="-4.887283">
        <ele>1015.0</ele>
        <time>2015-06-07T12:20:22Z</time>
      </trkpt>
      <trkpt lat="40.252400" lon="-4.887117">
        <ele>1018.0</ele>
        <time>2015-06-07T12:20:24Z</time>
      </trkpt>
      <trkpt lat="40.252333" lon="-4.887000">
        <ele>1018.0</ele>
        <time>2015-06-07T12:20:26Z</time>
      </trkpt>
      <trkpt lat="40.252267" lon="-4.886850">
        <ele>1016.0</ele>
        <time>2015-06-07T12:20:28Z</time>
      </trkpt>
      <trkpt lat="40.252250" lon="-4.886683">
        <ele>1017.0</ele>
        <time>2015-06-07T12:20:30Z</time>
      </trkpt>
      <trkpt lat="40.252283" lon="-4.886583">
        <ele>1018.0</ele>
        <time>2015-06-07T12:20:32Z</time>
      </trkpt>
      <trkpt lat="40.252333" lon="-4.886500">
        <ele>1017.0</ele>
        <time>2015-06-07T12:20:34Z</time>
      </trkpt>
      <trkpt lat="40.252450" lon="-4.886417">
        <ele>1013.0</ele>
        <time>2015-06-07T12:20:36Z</time>
      </trkpt>
      <trkpt lat="40.252583" lon="-4.886383">
        <ele>1013.0</ele>
        <time>2015-06-07T12:20:38Z</time>
      </trkpt>
      <trkpt lat="40.252700" lon="-4.886367">
        <ele>1012.0</ele>
        <time>2015-06-07T12:20:40Z</time>
      </trkpt>
      <trkpt lat="40.252850" lon="-4.886317">
        <ele>1009.0</ele>
        <time>2015-06-07T12:20:42Z</time>
      </trkpt>
      <trkpt lat="40.252983" lon="-4.886300">
        <ele>1010.0</ele>
        <time>2015-06-07T12:20:44Z</time>
      </trkpt>
      <trkpt lat="40.253117" lon="-4.886300">
        <ele>1011.0</ele>
        <time>2015-06-07T12:20:46Z</time>
      </trkpt>
      <trkpt lat="40.253250" lon="-4.886217">
        <ele>1012.0</ele>
        <time>2015-06-07T12:20:48Z</time>
      </trkpt>
      <trkpt lat="40.253350" lon="-4.886117">
        <ele>1014.0</ele>
        <time>2015-06-07T12:20:50Z</time>
      </trkpt>
      <trkpt lat="40.253433" lon="-4.886017">
        <ele>1013.0</ele>
        <time>2015-06-07T12:20:52Z</time>
      </trkpt>
      <trkpt lat="40.253500" lon="-4.885883">
        <ele>1010.0</ele>
        <time>2015-06-07T12:20:54Z</time>
      </trkpt>
      <trkpt lat="40.253517" lon="-4.885733">
        <ele>1010.0</ele>
        <time>2015-06-07T12:20:56Z</time>
      </trkpt>
      <trkpt lat="40.253467" lon="-4.885583">
        <ele>1010.0</ele>
        <time>2015-06-07T12:20:58Z</time>
      </trkpt>
      <trkpt lat="40.253350" lon="-4.885500">
        <ele>1010.0</ele>
        <time>2015-06-07T12:21:00Z</time>
      </trkpt>
      <trkpt lat="40.253233" lon="-4.885450">
        <ele>1009.0</ele>
        <time>2015-06-07T12:21:02Z</time>
      </trkpt>
      <trkpt lat="40.253067" lon="-4.885450">
        <ele>1006.0</ele>
        <time>2015-06-07T12:21:04Z</time>
      </trkpt>
      <trkpt lat="40.252850" lon="-4.885483">
        <ele>1005.0</ele>
        <time>2015-06-07T12:21:06Z</time>
      </trkpt>
      <trkpt lat="40.252700" lon="-4.885533">
        <ele>1008.0</ele>
        <time>2015-06-07T12:21:08Z</time>
      </trkpt>
      <trkpt lat="40.252533" lon="-4.885567">
        <ele>1007.0</ele>
        <time>2015-06-07T12:21:10Z</time>
      </trkpt>
      <trkpt lat="40.252350" lon="-4.885617">
        <ele>1009.0</ele>
        <time>2015-06-07T12:21:12Z</time>
      </trkpt>
      <trkpt lat="40.252167" lon="-4.885633">
        <ele>1011.0</ele>
        <time>2015-06-07T12:21:14Z</time>
      </trkpt>
      <trkpt lat="40.252033" lon="-4.885600">
        <ele>1010.0</ele>
        <time>2015-06-07T12:21:16Z</time>
      </trkpt>
      <trkpt lat="40.251900" lon="-4.885517">
        <ele>1007.0</ele>
        <time>2015-06-07T12:21:18Z</time>
      </trkpt>
      <trkpt lat="40.251783" lon="-4.885417">
        <ele>1010.0</ele>
        <time>2015-06-07T12:21:20Z</time>
      </trkpt>
      <trkpt lat="40.251733" lon="-4.885317">
        <ele>1012.0</ele>
        <time>2015-06-07T12:21:22Z</time>
      </trkpt>
      <trkpt lat="40.251783" lon="-4.885200">
        <ele>1009.0</ele>
        <time>2015-06-07T12:21:24Z</time>
      </trkpt>
      <trkpt lat="40.251917" lon="-4.885133">
        <ele>1004.0</ele>
        <time>2015-06-07T12:21:26Z</time>
      </trkpt>
      <trkpt lat="40.252083" lon="-4.885183">
        <ele>1002.0</ele>
        <time>2015-06-07T12:21:28Z</time>
      </trkpt>
      <trkpt lat="40.252250" lon="-4.885333">
        <ele>1001.0</ele>
        <time>2015-06-07T12:21:30Z</time>
      </trkpt>
      <trkpt lat="40.252383" lon="-4.885533">
        <ele>1000.0</ele>
        <time>2015-06-07T12:21:32Z</time>
      </trkpt>
      <trkpt lat="40.252517" lon="-4.885717">
        <ele>999.0</ele>
        <time>2015-06-07T12:21:34Z</time>
      </trkpt>
      <trkpt lat="40.252667" lon="-4.885900">
        <ele>997.0</ele>
        <time>2015-06-07T12:21:36Z</time>
      </trkpt>
      <trkpt lat="40.252833" lon="-4.886000">
        <ele>997.0</ele>
        <time>2015-06-07T12:21:38Z</time>
      </trkpt>
      <trkpt lat="40.252983" lon="-4.886083">
        <ele>996.0</ele>
        <time>2015-06-07T12:21:40Z</time>
      </trkpt>
      <trkpt lat="40.253133" lon="-4.886100">
        <ele>994.0</ele>
        <time>2015-06-07T12:21:42Z</time>
      </trkpt>
      <trkpt lat="40.253233" lon="-4.886017">
        <ele>991.0</ele>
        <time>2015-06-07T12:21:44Z</time>
      </trkpt>
      <trkpt lat="40.253250" lon="-4.885883">
        <ele>990.0</ele>
        <time>2015-06-07T12:21:46Z</time>
      </trkpt>
      <trkpt lat="40.253217" lon="-4.885767">
        <ele>988.0</ele>
        <time>2015-06-07T12:21:48Z</time>
      </trkpt>
      <trkpt lat="40.253167" lon="-4.885600">
        <ele>983.0</ele>
        <time>2015-06-07T12:21:50Z</time>
      </trkpt>
      <trkpt lat="40.253050" lon="-4.885450">
        <ele>981.0</ele>
        <time>2015-06-07T12:21:52Z</time>
      </trkpt>
      <trkpt lat="40.252900" lon="-4.885400">
        <ele>981.0</ele>
        <time>2015-06-07T12:21:54Z</time>
      </trkpt>
      <trkpt lat="40.252733" lon="-4.885383">
        <ele>978.0</ele>
        <time>2015-06-07T12:21:56Z</time>
      </trkpt>
      <trkpt lat="40.252567" lon="-4.885300">
        <ele>973.0</ele>
        <time>2015-06-07T12:21:58Z</time>
      </trkpt>
      <trkpt lat="40.252417" lon="-4.885250">
        <ele>973.0</ele>
        <time>2015-06-07T12:22:00Z</time>
      </trkpt>
      <trkpt lat="40.252283" lon="-4.885233">
        <ele>974.0</ele>
        <time>2015-06-07T12:22:02Z</time>
      </trkpt>
      <trkpt lat="40.252167" lon="-4.885200">
        <ele>972.0</ele>
        <time>2015-06-07T12:22:04Z</time>
      </trkpt>
      <trkpt lat="40.252033" lon="-4.885117">
        <ele>969.0</ele>
        <time>2015-06-07T12:22:06Z</time>
      </trkpt>
      <trkpt lat="40.251900" lon="-4.885033">
        <ele>968.0</ele>
        <time>2015-06-07T12:22:08Z</time>
      </trkpt>
      <trkpt lat="40.251783" lon="-4.884900">
        <ele>967.0</ele>
        <time>2015-06-07T12:22:10Z</time>
      </trkpt>
      <trkpt lat="40.251650" lon="-4.884800">
        <ele>967.0</ele>
        <time>2015-06-07T12:22:12Z</time>
      </trkpt>
      <trkpt lat="40.251517" lon="-4.884717">
        <ele>964.0</ele>
        <time>2015-06-07T12:22:14Z</time>
      </trkpt>
      <trkpt lat="40.251367" lon="-4.884650">
        <ele>959.0</ele>
        <time>2015-06-07T12:22:16Z</time>
      </trkpt>
      <trkpt lat="40.251183" lon="-4.884567">
        <ele>954.0</ele>
        <time>2015-06-07T12:22:18Z</time>
      </trkpt>
      <trkpt lat="40.251017" lon="-4.884467">
        <ele>950.0</ele>
        <time>2015-06-07T12:22:20Z</time>
      </trkpt>
      <trkpt lat="40.250867" lon="-4.884383">
        <ele>947.0</ele>
        <time>2015-06-07T12:22:22Z</time>
      </trkpt>
      <trkpt lat="40.250717" lon="-4.884283">
        <ele>940.0</ele>
        <time>2015-06-07T12:22:24Z</time>
      </trkpt>
      <trkpt lat="40.250533" lon="-4.884133">
        <ele>932.0</ele>
        <time>2015-06-07T12:22:26Z</time>
      </trkpt>
      <trkpt lat="40.250333" lon="-4.883983">
        <ele>929.0</ele>
        <time>2015-06-07T12:22:28Z</time>
      </trkpt>
      <trkpt lat="40.250167" lon="-4.883900">
        <ele>931.0</ele>
        <time>2015-06-07T12:22:30Z</time>
      </trkpt>
      <trkpt lat="40.250050" lon="-4.883817">
        <ele>929.0</ele>
        <time>2015-06-07T12:22:32Z</time>
      </trkpt>
      <trkpt lat="40.249917" lon="-4.883683">
        <ele>925.0</ele>
        <time>2015-06-07T12:22:34Z</time>
      </trkpt>
      <trkpt lat="40.249767" lon="-4.883550">
        <ele>926.0</ele>
        <time>2015-06-07T12:22:36Z</time>
      </trkpt>
      <trkpt lat="40.249700" lon="-4.883400">
        <ele>929.0</ele>
        <time>2015-06-07T12:22:38Z</time>
      </trkpt>
      <trkpt lat="40.249667" lon="-4.883200">
        <ele>929.0</ele>
        <time>2015-06-07T12:22:40Z</time>
      </trkpt>
      <trkpt lat="40.249667" lon="-4.883017">
        <ele>930.0</ele>
        <time>2015-06-07T12:22:42Z</time>
      </trkpt>
      <trkpt lat="40.249750" lon="-4.882883">
        <ele>933.0</ele>
        <time>2015-06-07T12:22:44Z</time>
      </trkpt>
      <trkpt lat="40.249833" lon="-4.882800">
        <ele>936.0</ele>
        <time>2015-06-07T12:22:46Z</time>
      </trkpt>
      <trkpt lat="40.249967" lon="-4.882817">
        <ele>936.0</ele>
        <time>2015-06-07T12:22:48Z</time>
      </trkpt>
      <trkpt lat="40.250083" lon="-4.882933">
        <ele>937.0</ele>
        <time>2015-06-07T12:22:50Z</time>
      </trkpt>
      <trkpt lat="40.250183" lon="-4.883083">
        <ele>935.0</ele>
        <time>2015-06-07T12:22:52Z</time>
      </trkpt>
      <trkpt lat="40.250233" lon="-4.883367">
        <ele>934.0</ele>
        <time>2015-06-07T12:22:54Z</time>
      </trkpt>
      <trkpt lat="40.250183" lon="-4.883700">
        <ele>937.0</ele>
        <time>2015-06-07T12:22:56Z</time>
      </trkpt>
      <trkpt lat="40.250083" lon="-4.883967">
        <ele>943.0</ele>
        <time>2015-06-07T12:22:58Z</time>
      </trkpt>
      <trkpt lat="40.249950" lon="-4.884183">
        <ele>946.0</ele>
        <time>2015-06-07T12:23:00Z</time>
      </trkpt>
      <trkpt lat="40.249750" lon="-4.884333">
        <ele>947.0</ele>
        <time>2015-06-07T12:23:02Z</time>
      </trkpt>
      <trkpt lat="40.249600" lon="-4.884400">
        <ele>953.0</ele>
        <time>2015-06-07T12:23:04Z</time>
      </trkpt>
      <trkpt lat="40.249450" lon="-4.884467">
        <ele>953.0</ele>
        <time>2015-06-07T12:23:06Z</time>
      </trkpt>
      <trkpt lat="40.249267" lon="-4.884450">
        <ele>951.0</ele>
        <time>2015-06-07T12:23:08Z</time>
      </trkpt>
      <trkpt lat="40.249100" lon="-4.884317">
        <ele>950.0</ele>
        <time>2015-06-07T12:23:10Z</time>
      </trkpt>
      <trkpt lat="40.248983" lon="-4.884167">
        <ele>952.0</ele>
        <time>2015-06-07T12:23:12Z</time>
      </trkpt>
      <trkpt lat="40.248917" lon="-4.884000">
        <ele>954.0</ele>
        <time>2015-06-07T12:23:14Z</time>
      </trkpt>
      <trkpt lat="40.248867" lon="-4.883783">
        <ele>958.0</ele>
        <time>2015-06-07T12:23:16Z</time>
      </trkpt>
      <trkpt lat="40.248883" lon="-4.883633">
        <ele>961.0</ele>
        <time>2015-06-07T12:23:18Z</time>
      </trkpt>
      <trkpt lat="40.248933" lon="-4.883500">
        <ele>962.0</ele>
        <time>2015-06-07T12:23:20Z</time>
      </trkpt>
      <trkpt lat="40.249000" lon="-4.883417">
        <ele>965.0</ele>
        <time>2015-06-07T12:23:22Z</time>
      </trkpt>
      <trkpt lat="40.249083" lon="-4.883367">
        <ele>964.0</ele>
        <time>2015-06-07T12:23:24Z</time>
      </trkpt>
      <trkpt lat="40.249217" lon="-4.883350">
        <ele>963.0</ele>
        <time>2015-06-07T12:23:26Z</time>
      </trkpt>
      <trkpt lat="40.249367" lon="-4.883367">
        <ele>964.0</ele>
        <time>2015-06-07T12:23:28Z</time>
      </trkpt>
      <trkpt lat="40.249500" lon="-4.883400">
        <ele>964.0</ele>
        <time>2015-06-07T12:23:30Z</time>
      </trkpt>
      <trkpt lat="40.249633" lon="-4.883367">
        <ele>963.0</ele>
        <time>2015-06-07T12:23:32Z</time>
      </trkpt>
      <trkpt lat="40.249750" lon="-4.883333">
        <ele>963.0</ele>
        <time>2015-06-07T12:23:34Z</time>
      </trkpt>
      <trkpt lat="40.249867" lon="-4.883317">
        <ele>963.0</ele>
        <time>2015-06-07T12:23:36Z</time>
      </trkpt>
      <trkpt lat="40.250017" lon="-4.883367">
        <ele>962.0</ele>
        <time>2015-06-07T12:23:38Z</time>
      </trkpt>
      <trkpt lat="40.250167" lon="-4.883483">
        <ele>963.0</ele>
        <time>2015-06-07T12:23:40Z</time>
      </trkpt>
      <trkpt lat="40.250283" lon="-4.883583">
        <ele>965.0</ele>
        <time>2015-06-07T12:23:42Z</time>
      </trkpt>
      <trkpt lat="40.250417" lon="-4.883633">
        <ele>963.0</ele>
        <time>2015-06-07T12:23:44Z</time>
      </trkpt>
      <trkpt lat="40.250550" lon="-4.883783">
        <ele>961.0</ele>
        <time>2015-06-07T12:23:46Z</time>
      </trkpt>
      <trkpt lat="40.250667" lon="-4.883967">
        <ele>960.0</ele>
        <time>2015-06-07T12:23:48Z</time>
      </trkpt>
      <trkpt lat="40.250800" lon="-4.884117">
        <ele>959.0</ele>
        <time>2015-06-07T12:23:50Z</time>
      </trkpt>
      <trkpt lat="40.250933" lon="-4.884183">
        <ele>959.0</ele>
        <time>2015-06-07T12:23:52Z</time>
      </trkpt>
      <trkpt lat="40.251067" lon="-4.884267">
        <ele>960.0</ele>
        <time>2015-06-07T12:23:54Z</time>
      </trkpt>
      <trkpt lat="40.251183" lon="-4.884417">
        <ele>958.0</ele>
        <time>2015-06-07T12:23:56Z</time>
      </trkpt>
      <trkpt lat="40.251333" lon="-4.884533">
        <ele>957.0</ele>
        <time>2015-06-07T12:23:58Z</time>
      </trkpt>
      <trkpt lat="40.251467" lon="-4.884533">
        <ele>959.0</ele>
        <time>2015-06-07T12:24:00Z</time>
      </trkpt>
      <trkpt lat="40.251533" lon="-4.884483">
        <ele>961.0</ele>
        <time>2015-06-07T12:24:02Z</time>
      </trkpt>
      <trkpt lat="40.251600" lon="-4.884383">
        <ele>960.0</ele>
        <time>2015-06-07T12:24:04Z</time>
      </trkpt>
      <trkpt lat="40.251633" lon="-4.884233">
        <ele>961.0</ele>
        <time>2015-06-07T12:24:06Z</time>
      </trkpt>
      <trkpt lat="40.251633" lon="-4.884117">
        <ele>963.0</ele>
        <time>2015-06-07T12:24:08Z</time>
      </trkpt>
      <trkpt lat="40.251567" lon="-4.884000">
        <ele>963.0</ele>
        <time>2015-06-07T12:24:10Z</time>
      </trkpt>
      <trkpt lat="40.251450" lon="-4.883900">
        <ele>964.0</ele>
        <time>2015-06-07T12:24:12Z</time>
      </trkpt>
      <trkpt lat="40.251283" lon="-4.883917">
        <ele>966.0</ele>
        <time>2015-06-07T12:24:14Z</time>
      </trkpt>
      <trkpt lat="40.251083" lon="-4.884033">
        <ele>969.0</ele>
        <time>2015-06-07T12:24:16Z</time>
      </trkpt>
      <trkpt lat="40.250933" lon="-4.884250">
        <ele>974.0</ele>
        <time>2015-06-07T12:24:18Z</time>
      </trkpt>
      <trkpt lat="40.250867" lon="-4.884550">
        <ele>976.0</ele>
        <time>2015-06-07T12:24:20Z</time>
      </trkpt>
      <trkpt lat="40.250933" lon="-4.884817">
        <ele>975.0</ele>
        <time>2015-06-07T12:24:22Z</time>
      </trkpt>
      <trkpt lat="40.251067" lon="-4.884917">
        <ele>974.0</ele>
        <time>2015-06-07T12:24:24Z</time>
      </trkpt>
      <trkpt lat="40.251200" lon="-4.884883">
        <ele>975.0</ele>
        <time>2015-06-07T12:24:26Z</time>
      </trkpt>
      <trkpt lat="40.251283" lon="-4.884817">
        <ele>977.0</ele>
        <time>2015-06-07T12:24:28Z</time>
      </trkpt>
      <trkpt lat="40.251333" lon="-4.884733">
        <ele>977.0</ele>
        <time>2015-06-07T12:24:30Z</time>
      </trkpt>
      <trkpt lat="40.251367" lon="-4.884583">
        <ele>978.0</ele>
        <time>2015-06-07T12:24:32Z</time>
      </trkpt>
      <trkpt lat="40.251367" lon="-4.884450">
        <ele>982.0</ele>
        <time>2015-06-07T12:24:34Z</time>
      </trkpt>
      <trkpt lat="40.251350" lon="-4.884333">
        <ele>986.0</ele>
        <time>2015-06-07T12:24:36Z</time>
      </trkpt>
      <trkpt lat="40.251317" lon="-4.884200">
        <ele>992.0</ele>
        <time>2015-06-07T12:24:38Z</time>
      </trkpt>
      <trkpt lat="40.251267" lon="-4.884117">
        <ele>997.0</ele>
        <time>2015-06-07T12:24:40Z</time>
      </trkpt>
      <trkpt lat="40.251233" lon="-4.884050">
        <ele>995.0</ele>
        <time>2015-06-07T12:24:42Z</time>
      </trkpt>
      <trkpt lat="40.251117" lon="-4.883933">
        <ele>991.0</ele>
        <time>2015-06-07T12:24:44Z</time>
      </trkpt>
      <trkpt lat="40.250950" lon="-4.883967">
        <ele>989.0</ele>
        <time>2015-06-07T12:24:46Z</time>
      </trkpt>
      <trkpt lat="40.250817" lon="-4.884133">
        <ele>988.0</ele>
        <time>2015-06-07T12:24:48Z</time>
      </trkpt>
      <trkpt lat="40.250700" lon="-4.884350">
        <ele>984.0</ele>
        <time>2015-06-07T12:24:50Z</time>
      </trkpt>
      <trkpt lat="40.250550" lon="-4.884633">
        <ele>981.0</ele>
        <time>2015-06-07T12:24:52Z</time>
      </trkpt>
      <trkpt lat="40.250400" lon="-4.884867">
        <ele>986.0</ele>
        <time>2015-06-07T12:24:54Z</time>
      </trkpt>
      <trkpt lat="40.250267" lon="-4.885017">
        <ele>987.0</ele>
        <time>2015-06-07T12:24:56Z</time>
      </trkpt>
      <trkpt lat="40.250117" lon="-4.885150">
        <ele>986.0</ele>
        <time>2015-06-07T12:24:58Z</time>
      </trkpt>
      <trkpt lat="40.249967" lon="-4.885200">
        <ele>985.0</ele>
        <time>2015-06-07T12:25:00Z</time>
      </trkpt>
      <trkpt lat="40.249867" lon="-4.885150">
        <ele>983.0</ele>
        <time>2015-06-07T12:25:02Z</time>
      </trkpt>
      <trkpt lat="40.249817" lon="-4.885083">
        <ele>981.0</ele>
        <time>2015-06-07T12:25:04Z</time>
      </trkpt>
      <trkpt lat="40.249867" lon="-4.885017">
        <ele>978.0</ele>
        <time>2015-06-07T12:25:06Z</time>
      </trkpt>
      <trkpt lat="40.249933" lon="-4.884950">
        <ele>975.0</ele>
        <time>2015-06-07T12:25:08Z</time>
      </trkpt>
      <trkpt lat="40.250050" lon="-4.884883">
        <ele>974.0</ele>
        <time>2015-06-07T12:25:10Z</time>
      </trkpt>
      <trkpt lat="40.250100" lon="-4.884850">
        <ele>976.0</ele>
        <time>2015-06-07T12:25:12Z</time>
      </trkpt>
      <trkpt lat="40.250150" lon="-4.884800">
        <ele>972.0</ele>
        <time>2015-06-07T12:25:14Z</time>
      </trkpt>
      <trkpt lat="40.250200" lon="-4.884733">
        <ele>965.0</ele>
        <time>2015-06-07T12:25:16Z</time>
      </trkpt>
      <trkpt lat="40.250267" lon="-4.884633">
        <ele>958.0</ele>
        <time>2015-06-07T12:25:18Z</time>
      </trkpt>
      <trkpt lat="40.250283" lon="-4.884533">
        <ele>954.0</ele>
        <time>2015-06-07T12:25:20Z</time>
      </trkpt>
      <trkpt lat="40.250250" lon="-4.884433">
        <ele>952.0</ele>
        <time>2015-06-07T12:25:22Z</time>
      </trkpt>
      <trkpt lat="40.250183" lon="-4.884300">
        <ele>948.0</ele>
        <time>2015-06-07T12:25:24Z</time>
      </trkpt>
      <trkpt lat="40.250150" lon="-4.884133">
        <ele>945.0</ele>
        <time>2015-06-07T12:25:26Z</time>
      </trkpt>
      <trkpt lat="40.250200" lon="-4.884017">
        <ele>945.0</ele>
        <time>2015-06-07T12:25:28Z</time>
      </trkpt>
      <trkpt lat="40.250267" lon="-4.883967">
        <ele>942.0</ele>
        <time>2015-06-07T12:25:30Z</time>
      </trkpt>
      <trkpt lat="40.250350" lon="-4.883883">
        <ele>937.0</ele>
        <time>2015-06-07T12:25:32Z</time>
      </trkpt>
      <trkpt lat="40.250433" lon="-4.883767">
        <ele>935.0</ele>
        <time>2015-06-07T12:25:34Z</time>
      </trkpt>
      <trkpt lat="40.250550" lon="-4.883717">
        <ele>935.0</ele>
        <time>2015-06-07T12:25:36Z</time>
      </trkpt>
      <trkpt lat="40.250683" lon="-4.883700">
        <ele>937.0</ele>
        <time>2015-06-07T12:25:38Z</time>
      </trkpt>
      <trkpt lat="40.250800" lon="-4.883717">
        <ele>938.0</ele>
        <time>2015-06-07T12:25:40Z</time>
      </trkpt>
      <trkpt lat="40.250950" lon="-4.883783">
        <ele>937.0</ele>
        <time>2015-06-07T12:25:42Z</time>
      </trkpt>
      <trkpt lat="40.251100" lon="-4.883883">
        <ele>937.0</ele>
        <time>2015-06-07T12:25:44Z</time>
      </trkpt>
      <trkpt lat="40.251250" lon="-4.883950">
        <ele>936.0</ele>
        <time>2015-06-07T12:25:46Z</time>
      </trkpt>
      <trkpt lat="40.251417" lon="-4.884033">
        <ele>934.0</ele>
        <time>2015-06-07T12:25:48Z</time>
      </trkpt>
      <trkpt lat="40.251583" lon="-4.884083">
        <ele>937.0</ele>
        <time>2015-06-07T12:25:50Z</time>
      </trkpt>
      <trkpt lat="40.251733" lon="-4.884117">
        <ele>939.0</ele>
        <time>2015-06-07T12:25:52Z</time>
      </trkpt>
      <trkpt lat="40.251883" lon="-4.884183">
        <ele>941.0</ele>
        <time>2015-06-07T12:25:54Z</time>
      </trkpt>
      <trkpt lat="40.252050" lon="-4.884233">
        <ele>941.0</ele>
        <time>2015-06-07T12:25:56Z</time>
      </trkpt>
      <trkpt lat="40.252183" lon="-4.884233">
        <ele>942.0</ele>
        <time>2015-06-07T12:25:58Z</time>
      </trkpt>
      <trkpt lat="40.252283" lon="-4.884133">
        <ele>940.0</ele>
        <time>2015-06-07T12:26:00Z</time>
      </trkpt>
      <trkpt lat="40.252300" lon="-4.884017">
        <ele>942.0</ele>
        <time>2015-06-07T12:26:02Z</time>
      </trkpt>
      <trkpt lat="40.252250" lon="-4.883983">
        <ele>943.0</ele>
        <time>2015-06-07T12:26:04Z</time>
      </trkpt>
      <trkpt lat="40.252117" lon="-4.883967">
        <ele>940.0</ele>
        <time>2015-06-07T12:26:06Z</time>
      </trkpt>
      <trkpt lat="40.251950" lon="-4.883967">
        <ele>938.0</ele>
        <time>2015-06-07T12:26:08Z</time>
      </trkpt>
      <trkpt lat="40.251833" lon="-4.883950">
        <ele>940.0</ele>
        <time>2015-06-07T12:26:10Z</time>
      </trkpt>
      <trkpt lat="40.251750" lon="-4.883933">
        <ele>939.0</ele>
        <time>2015-06-07T12:26:12Z</time>
      </trkpt>
      <trkpt lat="40.251683" lon="-4.883833">
        <ele>935.0</ele>
        <time>2015-06-07T12:26:14Z</time>
      </trkpt>
      <trkpt lat="40.251650" lon="-4.883717">
        <ele>935.0</ele>
        <time>2015-06-07T12:26:16Z</time>
      </trkpt>
      <trkpt lat="40.251700" lon="-4.883633">
        <ele>934.0</ele>
        <time>2015-06-07T12:26:18Z</time>
      </trkpt>
      <trkpt lat="40.251833" lon="-4.883617">
        <ele>931.0</ele>
        <time>2015-06-07T12:26:20Z</time>
      </trkpt>
      <trkpt lat="40.252000" lon="-4.883717">
        <ele>929.0</ele>
        <time>2015-06-07T12:26:22Z</time>
      </trkpt>
      <trkpt lat="40.252167" lon="-4.883900">
        <ele>928.0</ele>
        <time>2015-06-07T12:26:24Z</time>
      </trkpt>
      <trkpt lat="40.252300" lon="-4.884117">
        <ele>928.0</ele>
        <time>2015-06-07T12:26:26Z</time>
      </trkpt>
      <trkpt lat="40.252467" lon="-4.884317">
        <ele>927.0</ele>
        <time>2015-06-07T12:26:28Z</time>
      </trkpt>
      <trkpt lat="40.252650" lon="-4.884517">
        <ele>928.0</ele>
        <time>2015-06-07T12:26:30Z</time>
      </trkpt>
      <trkpt lat="40.252817" lon="-4.884667">
        <ele>929.0</ele>
        <time>2015-06-07T12:26:32Z</time>
      </trkpt>
      <trkpt lat="40.253000" lon="-4.884767">
        <ele>929.0</ele>
        <time>2015-06-07T12:26:34Z</time>
      </trkpt>
      <trkpt lat="40.253167" lon="-4.884883">
        <ele>932.0</ele>
        <time>2015-06-07T12:26:36Z</time>
      </trkpt>
      <trkpt lat="40.253333" lon="-4.885017">
        <ele>934.0</ele>
        <time>2015-06-07T12:26:38Z</time>
      </trkpt>
      <trkpt lat="40.253517" lon="-4.885183">
        <ele>934.0</ele>
        <time>2015-06-07T12:26:40Z</time>
      </trkpt>
      <trkpt lat="40.253717" lon="-4.885300">
        <ele>935.0</ele>
        <time>2015-06-07T12:26:42Z</time>
      </trkpt>
      <trkpt lat="40.253900" lon="-4.885350">
        <ele>937.0</ele>
        <time>2015-06-07T12:26:44Z</time>
      </trkpt>
      <trkpt lat="40.254050" lon="-4.885333">
        <ele>938.0</ele>
        <time>2015-06-07T12:26:46Z</time>
      </trkpt>
      <trkpt lat="40.254167" lon="-4.885283">
        <ele>938.0</ele>
        <time>2015-06-07T12:26:48Z</time>
      </trkpt>
      <trkpt lat="40.254250" lon="-4.885167">
        <ele>937.0</ele>
        <time>2015-06-07T12:26:50Z</time>
      </trkpt>
      <trkpt lat="40.254217" lon="-4.885050">
        <ele>937.0</ele>
        <time>2015-06-07T12:26:52Z</time>
      </trkpt>
      <trkpt lat="40.254117" lon="-4.884983">
        <ele>936.0</ele>
        <time>2015-06-07T12:26:54Z</time>
      </trkpt>
      <trkpt lat="40.253983" lon="-4.884967">
        <ele>935.0</ele>
        <time>2015-06-07T12:26:56Z</time>
      </trkpt>
      <trkpt lat="40.253817" lon="-4.885033">
        <ele>934.0</ele>
        <time>2015-06-07T12:26:58Z</time>
      </trkpt>
      <trkpt lat="40.253667" lon="-4.885067">
        <ele>933.0</ele>
        <time>2015-06-07T12:27:00Z</time>
      </trkpt>
      <trkpt lat="40.253550" lon="-4.885050">
        <ele>930.0</ele>
        <time>2015-06-07T12:27:02Z</time>
      </trkpt>
      <trkpt lat="40.253450" lon="-4.884950">
        <ele>926.0</ele>
        <time>2015-06-07T12:27:04Z</time>
      </trkpt>
      <trkpt lat="40.253367" lon="-4.884833">
        <ele>923.0</ele>
        <time>2015-06-07T12:27:06Z</time>
      </trkpt>
      <trkpt lat="40.253283" lon="-4.884717">
        <ele>923.0</ele>
        <time>2015-06-07T12:27:08Z</time>
      </trkpt>
      <trkpt lat="40.253233" lon="-4.884600">
        <ele>919.0</ele>
        <time>2015-06-07T12:27:10Z</time>
      </trkpt>
      <trkpt lat="40.253167" lon="-4.884417">
        <ele>915.0</ele>
        <time>2015-06-07T12:27:12Z</time>
      </trkpt>
      <trkpt lat="40.253133" lon="-4.884217">
        <ele>915.0</ele>
        <time>2015-06-07T12:27:14Z</time>
      </trkpt>
      <trkpt lat="40.253133" lon="-4.884067">
        <ele>916.0</ele>
        <time>2015-06-07T12:27:16Z</time>
      </trkpt>
      <trkpt lat="40.253167" lon="-4.883900">
        <ele>916.0</ele>
        <time>2015-06-07T12:27:18Z</time>
      </trkpt>
      <trkpt lat="40.253217" lon="-4.883767">
        <ele>917.0</ele>
        <time>2015-06-07T12:27:20Z</time>
      </trkpt>
      <trkpt lat="40.253217" lon="-4.883617">
        <ele>919.0</ele>
        <time>2015-06-07T12:27:22Z</time>
      </trkpt>
      <trkpt lat="40.253150" lon="-4.883467">
        <ele>919.0</ele>
        <time>2015-06-07T12:27:24Z</time>
      </trkpt>
      <trkpt lat="40.253050" lon="-4.883367">
        <ele>920.0</ele>
        <time>2015-06-07T12:27:26Z</time>
      </trkpt>
      <trkpt lat="40.252900" lon="-4.883317">
        <ele>919.0</ele>
        <time>2015-06-07T12:27:28Z</time>
      </trkpt>
      <trkpt lat="40.252717" lon="-4.883317">
        <ele>918.0</ele>
        <time>2015-06-07T12:27:30Z</time>
      </trkpt>
      <trkpt lat="40.252550" lon="-4.883333">
        <ele>919.0</ele>
        <time>2015-06-07T12:27:32Z</time>
      </trkpt>
      <trkpt lat="40.252367" lon="-4.883383">
        <ele>919.0</ele>
        <time>2015-06-07T12:27:34Z</time>
      </trkpt>
      <trkpt lat="40.252183" lon="-4.883400">
        <ele>919.0</ele>
        <time>2015-06-07T12:27:36Z</time>
      </trkpt>
      <trkpt lat="40.252017" lon="-4.883450">
        <ele>920.0</ele>
        <time>2015-06-07T12:27:38Z</time>
      </trkpt>
      <trkpt lat="40.251833" lon="-4.883517">
        <ele>919.0</ele>
        <time>2015-06-07T12:27:40Z</time>
      </trkpt>
      <trkpt lat="40.251667" lon="-4.883567">
        <ele>919.0</ele>
        <time>2015-06-07T12:27:42Z</time>
      </trkpt>
      <trkpt lat="40.251483" lon="-4.883667">
        <ele>918.0</ele>
        <time>2015-06-07T12:27:44Z</time>
      </trkpt>
      <trkpt lat="40.251300" lon="-4.883817">
        <ele>916.0</ele>
        <time>2015-06-07T12:27:46Z</time>
      </trkpt>
      <trkpt lat="40.251100" lon="-4.883917">
        <ele>916.0</ele>
        <time>2015-06-07T12:27:48Z</time>
      </trkpt>
      <trkpt lat="40.250917" lon="-4.884017">
        <ele>917.0</ele>
        <time>2015-06-07T12:27:50Z</time>
      </trkpt>
      <trkpt lat="40.250733" lon="-4.884117">
        <ele>916.0</ele>
        <time>2015-06-07T12:27:52Z</time>
      </trkpt>
      <trkpt lat="40.250550" lon="-4.884167">
        <ele>914.0</ele>
        <time>2015-06-07T12:27:54Z</time>
      </trkpt>
      <trkpt lat="40.250333" lon="-4.884183">
        <ele>913.0</ele>
        <time>2015-06-07T12:27:56Z</time>
      </trkpt>
      <trkpt lat="40.250150" lon="-4.884200">
        <ele>911.0</ele>
        <time>2015-06-07T12:27:58Z</time>
      </trkpt>
      <trkpt lat="40.250000" lon="-4.884133">
        <ele>906.0</ele>
        <time>2015-06-07T12:28:00Z</time>
      </trkpt>
      <trkpt lat="40.249850" lon="-4.884000">
        <ele>904.0</ele>
        <time>2015-06-07T12:28:02Z</time>
      </trkpt>
      <trkpt lat="40.249767" lon="-4.883867">
        <ele>905.0</ele>
        <time>2015-06-07T12:28:04Z</time>
      </trkpt>
      <trkpt lat="40.249767" lon="-4.883733">
        <ele>905.0</ele>
        <time>2015-06-07T12:28:06Z</time>
      </trkpt>
      <trkpt lat="40.249833" lon="-4.883667">
        <ele>904.0</ele>
        <time>2015-06-07T12:28:08Z</time>
      </trkpt>
      <trkpt lat="40.249950" lon="-4.883667">
        <ele>903.0</ele>
        <time>2015-06-07T12:28:10Z</time>
      </trkpt>
      <trkpt lat="40.250083" lon="-4.883667">
        <ele>902.0</ele>
        <time>2015-06-07T12:28:12Z</time>
      </trkpt>
      <trkpt lat="40.250217" lon="-4.883650">
        <ele>902.0</ele>
        <time>2015-06-07T12:28:14Z</time>
      </trkpt>
      <trkpt lat="40.250350" lon="-4.883650">
        <ele>904.0</ele>
        <time>2015-06-07T12:28:16Z</time>
      </trkpt>
      <trkpt lat="40.250483" lon="-4.883633">
        <ele>904.0</ele>
        <time>2015-06-07T12:28:18Z</time>
      </trkpt>
      <trkpt lat="40.250600" lon="-4.883567">
        <ele>903.0</ele>
        <time>2015-06-07T12:28:20Z</time>
      </trkpt>
      <trkpt lat="40.250717" lon="-4.883533">
        <ele>903.0</ele>
        <time>2015-06-07T12:28:22Z</time>
      </trkpt>
      <trkpt lat="40.250817" lon="-4.883500">
        <ele>904.0</ele>
        <time>2015-06-07T12:28:24Z</time>
      </trkpt>
      <trkpt lat="40.250933" lon="-4.883433">
        <ele>902.0</ele>
        <time>2015-06-07T12:28:26Z</time>
      </trkpt>
      <trkpt lat="40.251033" lon="-4.883367">
        <ele>902.0</ele>
        <time>2015-06-07T12:28:28Z</time>
      </trkpt>
      <trkpt lat="40.251150" lon="-4.883333">
        <ele>902.0</ele>
        <time>2015-06-07T12:28:30Z</time>
      </trkpt>
      <trkpt lat="40.251283" lon="-4.883300">
        <ele>900.0</ele>
        <time>2015-06-07T12:28:32Z</time>
      </trkpt>
      <trkpt lat="40.251417" lon="-4.883283">
        <ele>899.0</ele>
        <time>2015-06-07T12:28:34Z</time>
      </trkpt>
      <trkpt lat="40.251533" lon="-4.883217">
        <ele>898.0</ele>
        <time>2015-06-07T12:28:36Z</time>
      </trkpt>
      <trkpt lat="40.251617" lon="-4.883083">
        <ele>898.0</ele>
        <time>2015-06-07T12:28:38Z</time>
      </trkpt>
      <trkpt lat="40.251633" lon="-4.882933">
        <ele>899.0</ele>
        <time>2015-06-07T12:28:40Z</time>
      </trkpt>
      <trkpt lat="40.251600" lon="-4.882767">
        <ele>903.0</ele>
        <time>2015-06-07T12:28:42Z</time>
      </trkpt>
      <trkpt lat="40.251600" lon="-4.882650">
        <ele>905.0</ele>
        <time>2015-06-07T12:28:44Z</time>
      </trkpt>
      <trkpt lat="40.251517" lon="-4.882517">
        <ele>903.0</ele>
        <time>2015-06-07T12:28:46Z</time>
      </trkpt>
      <trkpt lat="40.251350" lon="-4.882417">
        <ele>902.0</ele>
        <time>2015-06-07T12:28:48Z</time>
      </trkpt>
      <trkpt lat="40.251200" lon="-4.882400">
        <ele>902.0</ele>
        <time>2015-06-07T12:28:50Z</time>
      </trkpt>
      <trkpt lat="40.251017" lon="-4.882433">
        <ele>900.0</ele>
        <time>2015-06-07T12:28:52Z</time>
      </trkpt>
      <trkpt lat="40.250783" lon="-4.882550">
        <ele>897.0</ele>
        <time>2015-06-07T12:28:54Z</time>
      </trkpt>
      <trkpt lat="40.250583" lon="-4.882667">
        <ele>899.0</ele>
        <time>2015-06-07T12:28:56Z</time>
      </trkpt>
      <trkpt lat="40.250417" lon="-4.882733">
        <ele>900.0</ele>
        <time>2015-06-07T12:28:58Z</time>
      </trkpt>
      <trkpt lat="40.250233" lon="-4.882717">
        <ele>899.0</ele>
        <time>2015-06-07T12:29:00Z</time>
      </trkpt>
      <trkpt lat="40.250117" lon="-4.882617">
        <ele>891.0</ele>
        <time>2015-06-07T12:29:02Z</time>
      </trkpt>
      <trkpt lat="40.250050" lon="-4.882433">
        <ele>888.0</ele>
        <time>2015-06-07T12:29:04Z</time>
      </trkpt>
      <trkpt lat="40.250000" lon="-4.882283">
        <ele>887.0</ele>
        <time>2015-06-07T12:29:06Z</time>
      </trkpt>
      <trkpt lat="40.249983" lon="-4.882150">
        <ele>883.0</ele>
        <time>2015-06-07T12:29:08Z</time>
      </trkpt>
      <trkpt lat="40.249900" lon="-4.881967">
        <ele>877.0</ele>
        <time>2015-06-07T12:29:10Z</time>
      </trkpt>
      <trkpt lat="40.249783" lon="-4.881850">
        <ele>876.0</ele>
        <time>2015-06-07T12:29:12Z</time>
      </trkpt>
      <trkpt lat="40.249700" lon="-4.881717">
        <ele>873.0</ele>
        <time>2015-06-07T12:29:14Z</time>
      </trkpt>
      <trkpt lat="40.249650" lon="-4.881567">
        <ele>869.0</ele>
        <time>2015-06-07T12:29:16Z</time>
      </trkpt>
      <trkpt lat="40.249650" lon="-4.881433">
        <ele>866.0</ele>
        <time>2015-06-07T12:29:18Z</time>
      </trkpt>
      <trkpt lat="40.249683" lon="-4.881317">
        <ele>861.0</ele>
        <time>2015-06-07T12:29:20Z</time>
      </trkpt>
      <trkpt lat="40.249700" lon="-4.881133">
        <ele>854.0</ele>
        <time>2015-06-07T12:29:22Z</time>
      </trkpt>
      <trkpt lat="40.249600" lon="-4.880933">
        <ele>850.0</ele>
        <time>2015-06-07T12:29:24Z</time>
      </trkpt>
      <trkpt lat="40.249467" lon="-4.880800">
        <ele>852.0</ele>
        <time>2015-06-07T12:29:26Z</time>
      </trkpt>
      <trkpt lat="40.249350" lon="-4.880733">
        <ele>852.0</ele>
        <time>2015-06-07T12:29:28Z</time>
      </trkpt>
      <trkpt lat="40.249183" lon="-4.880683">
        <ele>846.0</ele>
        <time>2015-06-07T12:29:30Z</time>
      </trkpt>
      <trkpt lat="40.248933" lon="-4.880667">
        <ele>839.0</ele>
        <time>2015-06-07T12:29:32Z</time>
      </trkpt>
      <trkpt lat="40.248700" lon="-4.880667">
        <ele>836.0</ele>
        <time>2015-06-07T12:29:34Z</time>
      </trkpt>
      <trkpt lat="40.248500" lon="-4.880683">
        <ele>832.0</ele>
        <time>2015-06-07T12:29:36Z</time>
      </trkpt>
      <trkpt lat="40.248300" lon="-4.880733">
        <ele>825.0</ele>
        <time>2015-06-07T12:29:38Z</time>
      </trkpt>
      <trkpt lat="40.248067" lon="-4.880833">
        <ele>820.0</ele>
        <time>2015-06-07T12:29:40Z</time>
      </trkpt>
      <trkpt lat="40.247867" lon="-4.880967">
        <ele>816.0</ele>
        <time>2015-06-07T12:29:42Z</time>
      </trkpt>
      <trkpt lat="40.247650" lon="-4.881067">
        <ele>809.0</ele>
        <time>2015-06-07T12:29:44Z</time>
      </trkpt>
      <trkpt lat="40.247417" lon="-4.881133">
        <ele>805.0</ele>
        <time>2015-06-07T12:29:46Z</time>
      </trkpt>
      <trkpt lat="40.247200" lon="-4.881200">
        <ele>802.0</ele>
        <time>2015-06-07T12:29:48Z</time>
      </trkpt>
      <trkpt lat="40.246967" lon="-4.881283">
        <ele>799.0</ele>
        <time>2015-06-07T12:29:50Z</time>
      </trkpt>
      <trkpt lat="40.246733" lon="-4.881400">
        <ele>799.0</ele>
        <time>2015-06-07T12:29:52Z</time>
      </trkpt>
      <trkpt lat="40.246550" lon="-4.881567">
        <ele>800.0</ele>
        <time>2015-06-07T12:29:54Z</time>
      </trkpt>
      <trkpt lat="40.246367" lon="-4.881800">
        <ele>799.0</ele>
        <time>2015-06-07T12:29:56Z</time>
      </trkpt>
      <trkpt lat="40.246183" lon="-4.882000">
        <ele>799.0</ele>
        <time>2015-06-07T12:29:58Z</time>
      </trkpt>
      <trkpt lat="40.246033" lon="-4.882217">
        <ele>798.0</ele>
        <time>2015-06-07T12:30:00Z</time>
      </trkpt>
      <trkpt lat="40.245867" lon="-4.882433">
        <ele>796.0</ele>
        <time>2015-06-07T12:30:02Z</time>
      </trkpt>
      <trkpt lat="40.245650" lon="-4.882617">
        <ele>797.0</ele>
        <time>2015-06-07T12:30:04Z</time>
      </trkpt>
      <trkpt lat="40.245483" lon="-4.882783">
        <ele>797.0</ele>
        <time>2015-06-07T12:30:06Z</time>
      </trkpt>
      <trkpt lat="40.245300" lon="-4.882950">
        <ele>794.0</ele>
        <time>2015-06-07T12:30:08Z</time>
      </trkpt>
      <trkpt lat="40.245017" lon="-4.883050">
        <ele>791.0</ele>
        <time>2015-06-07T12:30:10Z</time>
      </trkpt>
      <trkpt lat="40.244750" lon="-4.883133">
        <ele>794.0</ele>
        <time>2015-06-07T12:30:12Z</time>
      </trkpt>
      <trkpt lat="40.244550" lon="-4.883183">
        <ele>797.0</ele>
        <time>2015-06-07T12:30:14Z</time>
      </trkpt>
      <trkpt lat="40.244367" lon="-4.883167">
        <ele>794.0</ele>
        <time>2015-06-07T12:30:16Z</time>
      </trkpt>
      <trkpt lat="40.244217" lon="-4.883083">
        <ele>791.0</ele>
        <time>2015-06-07T12:30:18Z</time>
      </trkpt>
      <trkpt lat="40.244133" lon="-4.882983">
        <ele>791.0</ele>
        <time>2015-06-07T12:30:20Z</time>
      </trkpt>
      <trkpt lat="40.244083" lon="-4.882867">
        <ele>790.0</ele>
        <time>2015-06-07T12:30:22Z</time>
      </trkpt>
      <trkpt lat="40.244083" lon="-4.882733">
        <ele>788.0</ele>
        <time>2015-06-07T12:30:24Z</time>
      </trkpt>
      <trkpt lat="40.244183" lon="-4.882667">
        <ele>788.0</ele>
        <time>2015-06-07T12:30:26Z</time>
      </trkpt>
      <trkpt lat="40.244333" lon="-4.882733">
        <ele>787.0</ele>
        <time>2015-06-07T12:30:28Z</time>
      </trkpt>
      <trkpt lat="40.244433" lon="-4.882900">
        <ele>786.0</ele>
        <time>2015-06-07T12:30:30Z</time>
      </trkpt>
      <trkpt lat="40.244533" lon="-4.883133">
        <ele>785.0</ele>
        <time>2015-06-07T12:30:32Z</time>
      </trkpt>
      <trkpt lat="40.244617" lon="-4.883367">
        <ele>785.0</ele>
        <time>2015-06-07T12:30:34Z</time>
      </trkpt>
      <trkpt lat="40.244733" lon="-4.883517">
        <ele>784.0</ele>
        <time>2015-06-07T12:30:36Z</time>
      </trkpt>
      <trkpt lat="40.244867" lon="-4.883600">
        <ele>782.0</ele>
        <time>2015-06-07T12:30:38Z</time>
      </trkpt>
      <trkpt lat="40.245000" lon="-4.883617">
        <ele>785.0</ele>
        <time>2015-06-07T12:30:40Z</time>
      </trkpt>
      <trkpt lat="40.245083" lon="-4.883567">
        <ele>786.0</ele>
        <time>2015-06-07T12:30:42Z</time>
      </trkpt>
      <trkpt lat="40.245167" lon="-4.883450">
        <ele>785.0</ele>
        <time>2015-06-07T12:30:44Z</time>
      </trkpt>
      <trkpt lat="40.245200" lon="-4.883300">
        <ele>786.0</ele>
        <time>2015-06-07T12:30:46Z</time>
      </trkpt>
      <trkpt lat="40.245200" lon="-4.883167">
        <ele>788.0</ele>
        <time>2015-06-07T12:30:48Z</time>
      </trkpt>
      <trkpt lat="40.245100" lon="-4.883000">
        <ele>787.0</ele>
        <time>2015-06-07T12:30:50Z</time>
      </trkpt>
      <trkpt lat="40.244917" lon="-4.882917">
        <ele>786.0</ele>
        <time>2015-06-07T12:30:52Z</time>
      </trkpt>
      <trkpt lat="40.244717" lon="-4.882950">
        <ele>786.0</ele>
        <time>2015-06-07T12:30:54Z</time>
      </trkpt>
      <trkpt lat="40.244517" lon="-4.883000">
        <ele>785.0</ele>
        <time>2015-06-07T12:30:56Z</time>
      </trkpt>
      <trkpt lat="40.244300" lon="-4.883067">
        <ele>784.0</ele>
        <time>2015-06-07T12:30:58Z</time>
      </trkpt>
      <trkpt lat="40.244100" lon="-4.883150">
        <ele>785.0</ele>
        <time>2015-06-07T12:31:00Z</time>
      </trkpt>
      <trkpt lat="40.243917" lon="-4.883250">
        <ele>783.0</ele>
        <time>2015-06-07T12:31:02Z</time>
      </trkpt>
      <trkpt lat="40.243667" lon="-4.883350">
        <ele>781.0</ele>
        <time>2015-06-07T12:31:04Z</time>
      </trkpt>
      <trkpt lat="40.243450" lon="-4.883367">
        <ele>781.0</ele>
        <time>2015-06-07T12:31:06Z</time>
      </trkpt>
      <trkpt lat="40.243267" lon="-4.883383">
        <ele>781.0</ele>
        <time>2015-06-07T12:31:08Z</time>
      </trkpt>
      <trkpt lat="40.243067" lon="-4.883433">
        <ele>781.0</ele>
        <time>2015-06-07T12:31:10Z</time>
      </trkpt>
      <trkpt lat="40.242867" lon="-4.883517">
        <ele>779.0</ele>
        <time>2015-06-07T12:31:12Z</time>
      </trkpt>
      <trkpt lat="40.242650" lon="-4.883567">
        <ele>775.0</ele>
        <time>2015-06-07T12:31:14Z</time>
      </trkpt>
      <trkpt lat="40.242433" lon="-4.883583">
        <ele>776.0</ele>
        <time>2015-06-07T12:31:16Z</time>
      </trkpt>
      <trkpt lat="40.242233" lon="-4.883633">
        <ele>776.0</ele>
        <time>2015-06-07T12:31:18Z</time>
      </trkpt>
      <trkpt lat="40.242017" lon="-4.883733">
        <ele>773.0</ele>
        <time>2015-06-07T12:31:20Z</time>
      </trkpt>
      <trkpt lat="40.241767" lon="-4.883867">
        <ele>772.0</ele>
        <time>2015-06-07T12:31:22Z</time>
      </trkpt>
      <trkpt lat="40.241550" lon="-4.884017">
        <ele>772.0</ele>
        <time>2015-06-07T12:31:24Z</time>
      </trkpt>
      <trkpt lat="40.241367" lon="-4.884200">
        <ele>770.0</ele>
        <time>2015-06-07T12:31:26Z</time>
      </trkpt>
      <trkpt lat="40.241183" lon="-4.884417">
        <ele>768.0</ele>
        <time>2015-06-07T12:31:28Z</time>
      </trkpt>
      <trkpt lat="40.241017" lon="-4.884650">
        <ele>765.0</ele>
        <time>2015-06-07T12:31:30Z</time>
      </trkpt>
      <trkpt lat="40.240850" lon="-4.884900">
        <ele>760.0</ele>
        <time>2015-06-07T12:31:32Z</time>
      </trkpt>
      <trkpt lat="40.240650" lon="-4.885117">
        <ele>751.0</ele>
        <time>2015-06-07T12:31:34Z</time>
      </trkpt>
      <trkpt lat="40.240450" lon="-4.885333">
        <ele>744.0</ele>
        <time>2015-06-07T12:31:36Z</time>
      </trkpt>
      <trkpt lat="40.240233" lon="-4.885517">
        <ele>739.0</ele>
        <time>2015-06-07T12:31:38Z</time>
      </trkpt>
      <trkpt lat="40.240000" lon="-4.885700">
        <ele>734.0</ele>
        <time>2015-06-07T12:31:40Z</time>
      </trkpt>
      <trkpt lat="40.239767" lon="-4.885850">
        <ele>732.0</ele>
        <time>2015-06-07T12:31:42Z</time>
      </trkpt>
      <trkpt lat="40.239550" lon="-4.885933">
        <ele>732.0</ele>
        <time>2015-06-07T12:31:44Z</time>
      </trkpt>
      <trkpt lat="40.239350" lon="-4.885967">
        <ele>730.0</ele>
        <time>2015-06-07T12:31:46Z</time>
      </trkpt>
      <trkpt lat="40.239133" lon="-4.885967">
        <ele>726.0</ele>
        <time>2015-06-07T12:31:48Z</time>
      </trkpt>
      <trkpt lat="40.238933" lon="-4.886033">
        <ele>727.0</ele>
        <time>2015-06-07T12:31:50Z</time>
      </trkpt>
      <trkpt lat="40.238750" lon="-4.886150">
        <ele>725.0</ele>
        <time>2015-06-07T12:31:52Z</time>
      </trkpt>
      <trkpt lat="40.238533" lon="-4.886300">
        <ele>719.0</ele>
        <time>2015-06-07T12:31:54Z</time>
      </trkpt>
      <trkpt lat="40.238283" lon="-4.886467">
        <ele>715.0</ele>
        <time>2015-06-07T12:31:56Z</time>
      </trkpt>
      <trkpt lat="40.238067" lon="-4.886600">
        <ele>714.0</ele>
        <time>2015-06-07T12:31:58Z</time>
      </trkpt>
      <trkpt lat="40.237867" lon="-4.886733">
        <ele>714.0</ele>
        <time>2015-06-07T12:32:00Z</time>
      </trkpt>
      <trkpt lat="40.237683" lon="-4.886850">
        <ele>712.0</ele>
        <time>2015-06-07T12:32:02Z</time>
      </trkpt>
      <trkpt lat="40.237483" lon="-4.886950">
        <ele>708.0</ele>
        <time>2015-06-07T12:32:04Z</time>
      </trkpt>
      <trkpt lat="40.237283" lon="-4.887033">
        <ele>703.0</ele>
        <time>2015-06-07T12:32:06Z</time>
      </trkpt>
      <trkpt lat="40.237083" lon="-4.887100">
        <ele>697.0</ele>
        <time>2015-06-07T12:32:08Z</time>
      </trkpt>
      <trkpt lat="40.236867" lon="-4.887167">
        <ele>692.0</ele>
        <time>2015-06-07T12:32:10Z</time>
      </trkpt>
      <trkpt lat="40.236667" lon="-4.887217">
        <ele>691.0</ele>
        <time>2015-06-07T12:32:12Z</time>
      </trkpt>
      <trkpt lat="40.236483" lon="-4.887233">
        <ele>691.0</ele>
        <time>2015-06-07T12:32:14Z</time>
      </trkpt>
      <trkpt lat="40.236267" lon="-4.887233">
        <ele>690.0</ele>
        <time>2015-06-07T12:32:16Z</time>
      </trkpt>
      <trkpt lat="40.236100" lon="-4.887167">
        <ele>691.0</ele>
        <time>2015-06-07T12:32:18Z</time>
      </trkpt>
      <trkpt lat="40.235983" lon="-4.887100">
        <ele>694.0</ele>
        <time>2015-06-07T12:32:20Z</time>
      </trkpt>
      <trkpt lat="40.235867" lon="-4.887033">
        <ele>691.0</ele>
        <time>2015-06-07T12:32:22Z</time>
      </trkpt>
      <trkpt lat="40.235733" lon="-4.886967">
        <ele>691.0</ele>
        <time>2015-06-07T12:32:24Z</time>
      </trkpt>
      <trkpt lat="40.235567" lon="-4.886967">
        <ele>692.0</ele>
        <time>2015-06-07T12:32:26Z</time>
      </trkpt>
      <trkpt lat="40.235383" lon="-4.886983">
        <ele>693.0</ele>
        <time>2015-06-07T12:32:28Z</time>
      </trkpt>
      <trkpt lat="40.235217" lon="-4.887000">
        <ele>698.0</ele>
        <time>2015-06-07T12:32:30Z</time>
      </trkpt>
      <trkpt lat="40.235067" lon="-4.887083">
        <ele>702.0</ele>
        <time>2015-06-07T12:32:32Z</time>
      </trkpt>
      <trkpt lat="40.234967" lon="-4.887250">
        <ele>706.0</ele>
        <time>2015-06-07T12:32:34Z</time>
      </trkpt>
      <trkpt lat="40.234983" lon="-4.887467">
        <ele>707.0</ele>
        <time>2015-06-07T12:32:36Z</time>
      </trkpt>
      <trkpt lat="40.235133" lon="-4.887633">
        <ele>707.0</ele>
        <time>2015-06-07T12:32:38Z</time>
      </trkpt>
      <trkpt lat="40.235283" lon="-4.887617">
        <ele>709.0</ele>
        <time>2015-06-07T12:32:40Z</time>
      </trkpt>
      <trkpt lat="40.235367" lon="-4.887450">
        <ele>710.0</ele>
        <time>2015-06-07T12:32:42Z</time>
      </trkpt>
      <trkpt lat="40.235400" lon="-4.887267">
        <ele>715.0</ele>
        <time>2015-06-07T12:32:44Z</time>
      </trkpt>
      <trkpt lat="40.235383" lon="-4.887100">
        <ele>718.0</ele>
        <time>2015-06-07T12:32:46Z</time>
      </trkpt>
      <trkpt lat="40.235300" lon="-4.886900">
        <ele>721.0</ele>
        <time>2015-06-07T12:32:48Z</time>
      </trkpt>
      <trkpt lat="40.235150" lon="-4.886783">
        <ele>726.0</ele>
        <time>2015-06-07T12:32:50Z</time>
      </trkpt>
      <trkpt lat="40.235017" lon="-4.886733">
        <ele>732.0</ele>
        <time>2015-06-07T12:32:52Z</time>
      </trkpt>
      <trkpt lat="40.234833" lon="-4.886783">
        <ele>735.0</ele>
        <time>2015-06-07T12:32:54Z</time>
      </trkpt>
      <trkpt lat="40.234633" lon="-4.886900">
        <ele>737.0</ele>
        <time>2015-06-07T12:32:56Z</time>
      </trkpt>
      <trkpt lat="40.234500" lon="-4.887117">
        <ele>741.0</ele>
        <time>2015-06-07T12:32:58Z</time>
      </trkpt>
      <trkpt lat="40.234467" lon="-4.887417">
        <ele>743.0</ele>
        <time>2015-06-07T12:33:00Z</time>
      </trkpt>
      <trkpt lat="40.234550" lon="-4.887667">
        <ele>745.0</ele>
        <time>2015-06-07T12:33:02Z</time>
      </trkpt>
      <trkpt lat="40.234683" lon="-4.887833">
        <ele>747.0</ele>
        <time>2015-06-07T12:33:04Z</time>
      </trkpt>
      <trkpt lat="40.234833" lon="-4.887883">
        <ele>750.0</ele>
        <time>2015-06-07T12:33:06Z</time>
      </trkpt>
      <trkpt lat="40.234967" lon="-4.887800">
        <ele>752.0</ele>
        <time>2015-06-07T12:33:08Z</time>
      </trkpt>
      <trkpt lat="40.235067" lon="-4.887650">
        <ele>756.0</ele>
        <time>2015-06-07T12:33:10Z</time>
      </trkpt>
      <trkpt lat="40.235117" lon="-4.887450">
        <ele>761.0</ele>
        <time>2015-06-07T12:33:12Z</time>
      </trkpt>
      <trkpt lat="40.235083" lon="-4.887250">
        <ele>766.0</ele>
        <time>2015-06-07T12:33:14Z</time>
      </trkpt>
      <trkpt lat="40.234967" lon="-4.887083">
        <ele>772.0</ele>
        <time>2015-06-07T12:33:16Z</time>
      </trkpt>
      <trkpt lat="40.234783" lon="-4.887033">
        <ele>778.0</ele>
        <time>2015-06-07T12:33:18Z</time>
      </trkpt>
      <trkpt lat="40.234600" lon="-4.887133">
        <ele>781.0</ele>
        <time>2015-06-07T12:33:20Z</time>
      </trkpt>
      <trkpt lat="40.234467" lon="-4.887350">
        <ele>783.0</ele>
        <time>2015-06-07T12:33:22Z</time>
      </trkpt>
      <trkpt lat="40.234433" lon="-4.887617">
        <ele>783.0</ele>
        <time>2015-06-07T12:33:24Z</time>
      </trkpt>
      <trkpt lat="40.234517" lon="-4.887867">
        <ele>783.0</ele>
        <time>2015-06-07T12:33:26Z</time>
      </trkpt>
      <trkpt lat="40.234683" lon="-4.888033">
        <ele>787.0</ele>
        <time>2015-06-07T12:33:28Z</time>
      </trkpt>
      <trkpt lat="40.234833" lon="-4.888100">
        <ele>792.0</ele>
        <time>2015-06-07T12:33:30Z</time>
      </trkpt>
      <trkpt lat="40.234967" lon="-4.888067">
        <ele>794.0</ele>
        <time>2015-06-07T12:33:32Z</time>
      </trkpt>
      <trkpt lat="40.235100" lon="-4.887933">
        <ele>797.0</ele>
        <time>2015-06-07T12:33:34Z</time>
      </trkpt>
      <trkpt lat="40.235133" lon="-4.887717">
        <ele>802.0</ele>
        <time>2015-06-07T12:33:36Z</time>
      </trkpt>
      <trkpt lat="40.235067" lon="-4.887517">
        <ele>810.0</ele>
        <time>2015-06-07T12:33:38Z</time>
      </trkpt>
      <trkpt lat="40.234967" lon="-4.887350">
        <ele>817.0</ele>
        <time>2015-06-07T12:33:40Z</time>
      </trkpt>
      <trkpt lat="40.234800" lon="-4.887267">
        <ele>822.0</ele>
        <time>2015-06-07T12:33:42Z</time>
      </trkpt>
      <trkpt lat="40.234633" lon="-4.887350">
        <ele>825.0</ele>
        <time>2015-06-07T12:33:44Z</time>
      </trkpt>
      <trkpt lat="40.234500" lon="-4.887500">
        <ele>826.0</ele>
        <time>2015-06-07T12:33:46Z</time>
      </trkpt>
      <trkpt lat="40.234450" lon="-4.887733">
        <ele>826.0</ele>
        <time>2015-06-07T12:33:48Z</time>
      </trkpt>
      <trkpt lat="40.234483" lon="-4.888033">
        <ele>823.0</ele>
        <time>2015-06-07T12:33:50Z</time>
      </trkpt>
      <trkpt lat="40.234600" lon="-4.888300">
        <ele>827.0</ele>
        <time>2015-06-07T12:33:52Z</time>
      </trkpt>
      <trkpt lat="40.234717" lon="-4.888517">
        <ele>833.0</ele>
        <time>2015-06-07T12:33:54Z</time>
      </trkpt>
      <trkpt lat="40.234850" lon="-4.888700">
        <ele>835.0</ele>
        <time>2015-06-07T12:33:56Z</time>
      </trkpt>
      <trkpt lat="40.235017" lon="-4.888700">
        <ele>838.0</ele>
        <time>2015-06-07T12:33:58Z</time>
      </trkpt>
      <trkpt lat="40.235117" lon="-4.888650">
        <ele>843.0</ele>
        <time>2015-06-07T12:34:00Z</time>
      </trkpt>
      <trkpt lat="40.235200" lon="-4.888517">
        <ele>845.0</ele>
        <time>2015-06-07T12:34:02Z</time>
      </trkpt>
      <trkpt lat="40.235183" lon="-4.888283">
        <ele>847.0</ele>
        <time>2015-06-07T12:34:04Z</time>
      </trkpt>
      <trkpt lat="40.235067" lon="-4.888117">
        <ele>854.0</ele>
        <time>2015-06-07T12:34:06Z</time>
      </trkpt>
      <trkpt lat="40.234933" lon="-4.888083">
        <ele>861.0</ele>
        <time>2015-06-07T12:34:08Z</time>
      </trkpt>
      <trkpt lat="40.234800" lon="-4.888117">
        <ele>865.0</ele>
        <time>2015-06-07T12:34:10Z</time>
      </trkpt>
      <trkpt lat="40.234650" lon="-4.888250">
        <ele>867.0</ele>
        <time>2015-06-07T12:34:12Z</time>
      </trkpt>
      <trkpt lat="40.234533" lon="-4.888500">
        <ele>868.0</ele>
        <time>2015-06-07T12:34:14Z</time>
      </trkpt>
      <trkpt lat="40.234533" lon="-4.888750">
        <ele>868.0</ele>
        <time>2015-06-07T12:34:16Z</time>
      </trkpt>
      <trkpt lat="40.234583" lon="-4.889017">
        <ele>867.0</ele>
        <time>2015-06-07T12:34:18Z</time>
      </trkpt>
      <trkpt lat="40.234700" lon="-4.889283">
        <ele>870.0</ele>
        <time>2015-06-07T12:34:20Z</time>
      </trkpt>
      <trkpt lat="40.234800" lon="-4.889517">
        <ele>877.0</ele>
        <time>2015-06-07T12:34:22Z</time>
      </trkpt>
      <trkpt lat="40.234850" lon="-4.889683">
        <ele>883.0</ele>
        <time>2015-06-07T12:34:24Z</time>
      </trkpt>
      <trkpt lat="40.234967" lon="-4.889733">
        <ele>883.0</ele>
        <time>2015-06-07T12:34:26Z</time>
      </trkpt>
      <trkpt lat="40.235067" lon="-4.889700">
        <ele>879.0</ele>
        <time>2015-06-07T12:34:28Z</time>
      </trkpt>
      <trkpt lat="40.235133" lon="-4.889617">
        <ele>876.0</ele>
        <time>2015-06-07T12:34:30Z</time>
      </trkpt>
      <trkpt lat="40.235133" lon="-4.889483">
        <ele>873.0</ele>
        <time>2015-06-07T12:34:32Z</time>
      </trkpt>
      <trkpt lat="40.235067" lon="-4.889283">
        <ele>871.0</ele>
        <time>2015-06-07T12:34:34Z</time>
      </trkpt>
      <trkpt lat="40.234983" lon="-4.889117">
        <ele>875.0</ele>
        <time>2015-06-07T12:34:36Z</time>
      </trkpt>
      <trkpt lat="40.234967" lon="-4.888983">
        <ele>878.0</ele>
        <time>2015-06-07T12:34:38Z</time>
      </trkpt>
      <trkpt lat="40.234917" lon="-4.888833">
        <ele>878.0</ele>
        <time>2015-06-07T12:34:40Z</time>
      </trkpt>
      <trkpt lat="40.234817" lon="-4.888700">
        <ele>880.0</ele>
        <time>2015-06-07T12:34:42Z</time>
      </trkpt>
      <trkpt lat="40.234733" lon="-4.888600">
        <ele>882.0</ele>
        <time>2015-06-07T12:34:44Z</time>
      </trkpt>
      <trkpt lat="40.234600" lon="-4.888583">
        <ele>882.0</ele>
        <time>2015-06-07T12:34:46Z</time>
      </trkpt>
      <trkpt lat="40.234400" lon="-4.888600">
        <ele>883.0</ele>
        <time>2015-06-07T12:34:48Z</time>
      </trkpt>
      <trkpt lat="40.234267" lon="-4.888583">
        <ele>888.0</ele>
        <time>2015-06-07T12:34:50Z</time>
      </trkpt>
      <trkpt lat="40.234167" lon="-4.888550">
        <ele>890.0</ele>
        <time>2015-06-07T12:34:52Z</time>
      </trkpt>
      <trkpt lat="40.234133" lon="-4.888433">
        <ele>888.0</ele>
        <time>2015-06-07T12:34:54Z</time>
      </trkpt>
      <trkpt lat="40.234183" lon="-4.888283">
        <ele>889.0</ele>
        <time>2015-06-07T12:34:56Z</time>
      </trkpt>
      <trkpt lat="40.234300" lon="-4.888217">
        <ele>892.0</ele>
        <time>2015-06-07T12:34:58Z</time>
      </trkpt>
      <trkpt lat="40.234433" lon="-4.888200">
        <ele>894.0</ele>
        <time>2015-06-07T12:35:00Z</time>
      </trkpt>
      <trkpt lat="40.234617" lon="-4.888267">
        <ele>895.0</ele>
        <time>2015-06-07T12:35:02Z</time>
      </trkpt>
      <trkpt lat="40.234750" lon="-4.888417">
        <ele>898.0</ele>
        <time>2015-06-07T12:35:04Z</time>
      </trkpt>
      <trkpt lat="40.234850" lon="-4.888600">
        <ele>901.0</ele>
        <time>2015-06-07T12:35:06Z</time>
      </trkpt>
      <trkpt lat="40.234917" lon="-4.888850">
        <ele>901.0</ele>
        <time>2015-06-07T12:35:08Z</time>
      </trkpt>
      <trkpt lat="40.234950" lon="-4.889150">
        <ele>904.0</ele>
        <time>2015-06-07T12:35:10Z</time>
      </trkpt>
      <trkpt lat="40.234933" lon="-4.889417">
        <ele>908.0</ele>
        <time>2015-06-07T12:35:12Z</time>
      </trkpt>
      <trkpt lat="40.234867" lon="-4.889667">
        <ele>909.0</ele>
        <time>2015-06-07T12:35:14Z</time>
      </trkpt>
      <trkpt lat="40.234783" lon="-4.889900">
        <ele>909.0</ele>
        <time>2015-06-07T12:35:16Z</time>
      </trkpt>
      <trkpt lat="40.234633" lon="-4.890083">
        <ele>910.0</ele>
        <time>2015-06-07T12:35:18Z</time>
      </trkpt>
      <trkpt lat="40.234467" lon="-4.890167">
        <ele>910.0</ele>
        <time>2015-06-07T12:35:20Z</time>
      </trkpt>
      <trkpt lat="40.234300" lon="-4.890200">
        <ele>912.0</ele>
        <time>2015-06-07T12:35:22Z</time>
      </trkpt>
      <trkpt lat="40.234150" lon="-4.890233">
        <ele>915.0</ele>
        <time>2015-06-07T12:35:24Z</time>
      </trkpt>
      <trkpt lat="40.234017" lon="-4.890217">
        <ele>917.0</ele>
        <time>2015-06-07T12:35:26Z</time>
      </trkpt>
      <trkpt lat="40.233900" lon="-4.890167">
        <ele>921.0</ele>
        <time>2015-06-07T12:35:28Z</time>
      </trkpt>
      <trkpt lat="40.233783" lon="-4.890133">
        <ele>925.0</ele>
        <time>2015-06-07T12:35:30Z</time>
      </trkpt>
      <trkpt lat="40.233700" lon="-4.890067">
        <ele>928.0</ele>
        <time>2015-06-07T12:35:32Z</time>
      </trkpt>
      <trkpt lat="40.233683" lon="-4.889917">
        <ele>931.0</ele>
        <time>2015-06-07T12:35:34Z</time>
      </trkpt>
      <trkpt lat="40.233733" lon="-4.889767">
        <ele>935.0</ele>
        <time>2015-06-07T12:35:36Z</time>
      </trkpt>
      <trkpt lat="40.233800" lon="-4.889667">
        <ele>940.0</ele>
        <time>2015-06-07T12:35:38Z</time>
      </trkpt>
      <trkpt lat="40.233933" lon="-4.889600">
        <ele>942.0</ele>
        <time>2015-06-07T12:35:40Z</time>
      </trkpt>
      <trkpt lat="40.234117" lon="-4.889583">
        <ele>946.0</ele>
        <time>2015-06-07T12:35:42Z</time>
      </trkpt>
      <trkpt lat="40.234283" lon="-4.889617">
        <ele>954.0</ele>
        <time>2015-06-07T12:35:44Z</time>
      </trkpt>
      <trkpt lat="40.234433" lon="-4.889750">
        <ele>957.0</ele>
        <time>2015-06-07T12:35:46Z</time>
      </trkpt>
      <trkpt lat="40.234550" lon="-4.889950">
        <ele>961.0</ele>
        <time>2015-06-07T12:35:48Z</time>
      </trkpt>
      <trkpt lat="40.234633" lon="-4.890167">
        <ele>963.0</ele>
        <time>2015-06-07T12:35:50Z</time>
      </trkpt>
      <trkpt lat="40.234667" lon="-4.890433">
        <ele>964.0</ele>
        <time>2015-06-07T12:35:52Z</time>
      </trkpt>
      <trkpt lat="40.234633" lon="-4.890750">
        <ele>967.0</ele>
        <time>2015-06-07T12:35:54Z</time>
      </trkpt>
      <trkpt lat="40.234583" lon="-4.891017">
        <ele>970.0</ele>
        <time>2015-06-07T12:35:56Z</time>
      </trkpt>
      <trkpt lat="40.234483" lon="-4.891267">
        <ele>972.0</ele>
        <time>2015-06-07T12:35:58Z</time>
      </trkpt>
      <trkpt lat="40.234333" lon="-4.891483">
        <ele>974.0</ele>
        <time>2015-06-07T12:36:00Z</time>
      </trkpt>
      <trkpt lat="40.234183" lon="-4.891633">
        <ele>976.0</ele>
        <time>2015-06-07T12:36:02Z</time>
      </trkpt>
      <trkpt lat="40.234033" lon="-4.891717">
        <ele>977.0</ele>
        <time>2015-06-07T12:36:04Z</time>
      </trkpt>
      <trkpt lat="40.233867" lon="-4.891733">
        <ele>978.0</ele>
        <time>2015-06-07T12:36:06Z</time>
      </trkpt>
      <trkpt lat="40.233750" lon="-4.891700">
        <ele>981.0</ele>
        <time>2015-06-07T12:36:08Z</time>
      </trkpt>
      <trkpt lat="40.233667" lon="-4.891617">
        <ele>982.0</ele>
        <time>2015-06-07T12:36:10Z</time>
      </trkpt>
      <trkpt lat="40.233633" lon="-4.891467">
        <ele>985.0</ele>
        <time>2015-06-07T12:36:12Z</time>
      </trkpt>
      <trkpt lat="40.233667" lon="-4.891333">
        <ele>990.0</ele>
        <time>2015-06-07T12:36:14Z</time>
      </trkpt>
      <trkpt lat="40.233733" lon="-4.891233">
        <ele>993.0</ele>
        <time>2015-06-07T12:36:16Z</time>
      </trkpt>
      <trkpt lat="40.233833" lon="-4.891183">
        <ele>994.0</ele>
        <time>2015-06-07T12:36:18Z</time>
      </trkpt>
      <trkpt lat="40.234000" lon="-4.891217">
        <ele>995.0</ele>
        <time>2015-06-07T12:36:20Z</time>
      </trkpt>
      <trkpt lat="40.234167" lon="-4.891333">
        <ele>998.0</ele>
        <time>2015-06-07T12:36:22Z</time>
      </trkpt>
      <trkpt lat="40.234300" lon="-4.891483">
        <ele>1001.0</ele>
        <time>2015-06-07T12:36:24Z</time>
      </trkpt>
      <trkpt lat="40.234417" lon="-4.891733">
        <ele>1003.0</ele>
        <time>2015-06-07T12:36:26Z</time>
      </trkpt>
      <trkpt lat="40.234500" lon="-4.892017">
        <ele>1005.0</ele>
        <time>2015-06-07T12:36:28Z</time>
      </trkpt>
      <trkpt lat="40.234550" lon="-4.892317">
        <ele>1007.0</ele>
        <time>2015-06-07T12:36:30Z</time>
      </trkpt>
      <trkpt lat="40.234517" lon="-4.892633">
        <ele>1009.0</ele>
        <time>2015-06-07T12:36:32Z</time>
      </trkpt>
      <trkpt lat="40.234450" lon="-4.892917">
        <ele>1012.0</ele>
        <time>2015-06-07T12:36:34Z</time>
      </trkpt>
      <trkpt lat="40.234350" lon="-4.893167">
        <ele>1013.0</ele>
        <time>2015-06-07T12:36:36Z</time>
      </trkpt>
      <trkpt lat="40.234233" lon="-4.893367">
        <ele>1012.0</ele>
        <time>2015-06-07T12:36:38Z</time>
      </trkpt>
      <trkpt lat="40.234033" lon="-4.893550">
        <ele>1010.0</ele>
        <time>2015-06-07T12:36:40Z</time>
      </trkpt>
      <trkpt lat="40.233850" lon="-4.893633">
        <ele>1009.0</ele>
        <time>2015-06-07T12:36:42Z</time>
      </trkpt>
      <trkpt lat="40.233700" lon="-4.893650">
        <ele>1010.0</ele>
        <time>2015-06-07T12:36:44Z</time>
      </trkpt>
      <trkpt lat="40.233567" lon="-4.893633">
        <ele>1009.0</ele>
        <time>2015-06-07T12:36:46Z</time>
      </trkpt>
      <trkpt lat="40.233433" lon="-4.893550">
        <ele>1009.0</ele>
        <time>2015-06-07T12:36:48Z</time>
      </trkpt>
      <trkpt lat="40.233350" lon="-4.893433">
        <ele>1016.0</ele>
        <time>2015-06-07T12:36:50Z</time>
      </trkpt>
      <trkpt lat="40.233267" lon="-4.893383">
        <ele>1021.0</ele>
        <time>2015-06-07T12:36:52Z</time>
      </trkpt>
      <trkpt lat="40.233117" lon="-4.893417">
        <ele>1022.0</ele>
        <time>2015-06-07T12:36:54Z</time>
      </trkpt>
      <trkpt lat="40.232967" lon="-4.893567">
        <ele>1023.0</ele>
        <time>2015-06-07T12:36:56Z</time>
      </trkpt>
      <trkpt lat="40.232883" lon="-4.893800">
        <ele>1024.0</ele>
        <time>2015-06-07T12:36:58Z</time>
      </trkpt>
      <trkpt lat="40.232867" lon="-4.894083">
        <ele>1026.0</ele>
        <time>2015-06-07T12:37:00Z</time>
      </trkpt>
      <trkpt lat="40.232967" lon="-4.894300">
        <ele>1029.0</ele>
        <time>2015-06-07T12:37:02Z</time>
      </trkpt>
      <trkpt lat="40.233083" lon="-4.894433">
        <ele>1033.0</ele>
        <time>2015-06-07T12:37:04Z</time>
      </trkpt>
      <trkpt lat="40.233217" lon="-4.894517">
        <ele>1037.0</ele>
        <time>2015-06-07T12:37:06Z</time>
      </trkpt>
      <trkpt lat="40.233317" lon="-4.894550">
        <ele>1041.0</ele>
        <time>2015-06-07T12:37:08Z</time>
      </trkpt>
      <trkpt lat="40.233367" lon="-4.894483">
        <ele>1042.0</ele>
        <time>2015-06-07T12:37:10Z</time>
      </trkpt>
      <trkpt lat="40.233367" lon="-4.894367">
        <ele>1041.0</ele>
        <time>2015-06-07T12:37:12Z</time>
      </trkpt>
      <trkpt lat="40.233283" lon="-4.894250">
        <ele>1043.0</ele>
        <time>2015-06-07T12:37:14Z</time>
      </trkpt>
      <trkpt lat="40.233183" lon="-4.894133">
        <ele>1046.0</ele>
        <time>2015-06-07T12:37:16Z</time>
      </trkpt>
      <trkpt lat="40.233083" lon="-4.894050">
        <ele>1049.0</ele>
        <time>2015-06-07T12:37:18Z</time>
      </trkpt>
      <trkpt lat="40.232950" lon="-4.894000">
        <ele>1050.0</ele>
        <time>2015-06-07T12:37:20Z</time>
      </trkpt>
      <trkpt lat="40.232800" lon="-4.894033">
        <ele>1051.0</ele>
        <time>2015-06-07T12:37:22Z</time>
      </trkpt>
      <trkpt lat="40.232650" lon="-4.894183">
        <ele>1051.0</ele>
        <time>2015-06-07T12:37:24Z</time>
      </trkpt>
      <trkpt lat="40.232550" lon="-4.894433">
        <ele>1050.0</ele>
        <time>2015-06-07T12:37:26Z</time>
      </trkpt>
      <trkpt lat="40.232583" lon="-4.894700">
        <ele>1049.0</ele>
        <time>2015-06-07T12:37:28Z</time>
      </trkpt>
      <trkpt lat="40.232700" lon="-4.894900">
        <ele>1050.0</ele>
        <time>2015-06-07T12:37:30Z</time>
      </trkpt>
      <trkpt lat="40.232833" lon="-4.895067">
        <ele>1051.0</ele>
        <time>2015-06-07T12:37:32Z</time>
      </trkpt>
      <trkpt lat="40.232967" lon="-4.895183">
        <ele>1051.0</ele>
        <time>2015-06-07T12:37:34Z</time>
      </trkpt>
      <trkpt lat="40.233133" lon="-4.895217">
        <ele>1051.0</ele>
        <time>2015-06-07T12:37:36Z</time>
      </trkpt>
      <trkpt lat="40.233250" lon="-4.895200">
        <ele>1054.0</ele>
        <time>2015-06-07T12:37:38Z</time>
      </trkpt>
      <trkpt lat="40.233333" lon="-4.895167">
        <ele>1056.0</ele>
        <time>2015-06-07T12:37:40Z</time>
      </trkpt>
      <trkpt lat="40.233417" lon="-4.895100">
        <ele>1055.0</ele>
        <time>2015-06-07T12:37:42Z</time>
      </trkpt>
      <trkpt lat="40.233483" lon="-4.894983">
        <ele>1055.0</ele>
        <time>2015-06-07T12:37:44Z</time>
      </trkpt>
      <trkpt lat="40.233550" lon="-4.894850">
        <ele>1060.0</ele>
        <time>2015-06-07T12:37:46Z</time>
      </trkpt>
      <trkpt lat="40.233550" lon="-4.894733">
        <ele>1065.0</ele>
        <time>2015-06-07T12:37:48Z</time>
      </trkpt>
      <trkpt lat="40.233483" lon="-4.894667">
        <ele>1069.0</ele>
        <time>2015-06-07T12:37:50Z</time>
      </trkpt>
      <trkpt lat="40.233367" lon="-4.894617">
        <ele>1070.0</ele>
        <time>2015-06-07T12:37:52Z</time>
      </trkpt>
      <trkpt lat="40.233200" lon="-4.894600">
        <ele>1072.0</ele>
        <time>2015-06-07T12:37:54Z</time>
      </trkpt>
      <trkpt lat="40.233033" lon="-4.894683">
        <ele>1075.0</ele>
        <time>2015-06-07T12:37:56Z</time>
      </trkpt>
      <trkpt lat="40.232883" lon="-4.894817">
        <ele>1076.0</ele>
        <time>2015-06-07T12:37:58Z</time>
      </trkpt>
      <trkpt lat="40.232733" lon="-4.895033">
        <ele>1077.0</ele>
        <time>2015-06-07T12:38:00Z</time>
      </trkpt>
      <trkpt lat="40.232617" lon="-4.895300">
        <ele>1077.0</ele>
        <time>2015-06-07T12:38:02Z</time>
      </trkpt>
      <trkpt lat="40.232600" lon="-4.895567">
        <ele>1078.0</ele>
        <time>2015-06-07T12:38:04Z</time>
      </trkpt>
      <trkpt lat="40.232650" lon="-4.895833">
        <ele>1076.0</ele>
        <time>2015-06-07T12:38:06Z</time>
      </trkpt>
      <trkpt lat="40.232767" lon="-4.896050">
        <ele>1075.0</ele>
        <time>2015-06-07T12:38:08Z</time>
      </trkpt>
      <trkpt lat="40.232950" lon="-4.896183">
        <ele>1077.0</ele>
        <time>2015-06-07T12:38:10Z</time>
      </trkpt>
      <trkpt lat="40.233067" lon="-4.896250">
        <ele>1084.0</ele>
        <time>2015-06-07T12:38:12Z</time>
      </trkpt>
      <trkpt lat="40.233167" lon="-4.896250">
        <ele>1087.0</ele>
        <time>2015-06-07T12:38:14Z</time>
      </trkpt>
      <trkpt lat="40.233250" lon="-4.896183">
        <ele>1088.0</ele>
        <time>2015-06-07T12:38:16Z</time>
      </trkpt>
      <trkpt lat="40.233283" lon="-4.896050">
        <ele>1092.0</ele>
        <time>2015-06-07T12:38:18Z</time>
      </trkpt>
      <trkpt lat="40.233267" lon="-4.895900">
        <ele>1097.0</ele>
        <time>2015-06-07T12:38:20Z</time>
      </trkpt>
      <trkpt lat="40.233200" lon="-4.895783">
        <ele>1101.0</ele>
        <time>2015-06-07T12:38:22Z</time>
      </trkpt>
      <trkpt lat="40.233083" lon="-4.895700">
        <ele>1103.0</ele>
        <time>2015-06-07T12:38:24Z</time>
      </trkpt>
      <trkpt lat="40.232917" lon="-4.895733">
        <ele>1104.0</ele>
        <time>2015-06-07T12:38:26Z</time>
      </trkpt>
      <trkpt lat="40.232717" lon="-4.895900">
        <ele>1104.0</ele>
        <time>2015-06-07T12:38:28Z</time>
      </trkpt>
      <trkpt lat="40.232583" lon="-4.896133">
        <ele>1105.0</ele>
        <time>2015-06-07T12:38:30Z</time>
      </trkpt>
      <trkpt lat="40.232517" lon="-4.896417">
        <ele>1104.0</ele>
        <time>2015-06-07T12:38:32Z</time>
      </trkpt>
      <trkpt lat="40.232517" lon="-4.896717">
        <ele>1103.0</ele>
        <time>2015-06-07T12:38:34Z</time>
      </trkpt>
      <trkpt lat="40.232600" lon="-4.896967">
        <ele>1103.0</ele>
        <time>2015-06-07T12:38:36Z</time>
      </trkpt>
      <trkpt lat="40.232717" lon="-4.897183">
        <ele>1105.0</ele>
        <time>2015-06-07T12:38:38Z</time>
      </trkpt>
      <trkpt lat="40.232867" lon="-4.897317">
        <ele>1103.0</ele>
        <time>2015-06-07T12:38:40Z</time>
      </trkpt>
      <trkpt lat="40.233033" lon="-4.897317">
        <ele>1102.0</ele>
        <time>2015-06-07T12:38:42Z</time>
      </trkpt>
      <trkpt lat="40.233200" lon="-4.897283">
        <ele>1108.0</ele>
        <time>2015-06-07T12:38:44Z</time>
      </trkpt>
      <trkpt lat="40.233317" lon="-4.897267">
        <ele>1113.0</ele>
        <time>2015-06-07T12:38:46Z</time>
      </trkpt>
      <trkpt lat="40.233417" lon="-4.897183">
        <ele>1116.0</ele>
        <time>2015-06-07T12:38:48Z</time>
      </trkpt>
      <trkpt lat="40.233450" lon="-4.897050">
        <ele>1121.0</ele>
        <time>2015-06-07T12:38:50Z</time>
      </trkpt>
      <trkpt lat="40.233400" lon="-4.896917">
        <ele>1126.0</ele>
        <time>2015-06-07T12:38:52Z</time>
      </trkpt>
      <trkpt lat="40.233317" lon="-4.896833">
        <ele>1129.0</ele>
        <time>2015-06-07T12:38:54Z</time>
      </trkpt>
      <trkpt lat="40.233183" lon="-4.896767">
        <ele>1130.0</ele>
        <time>2015-06-07T12:38:56Z</time>
      </trkpt>
      <trkpt lat="40.232983" lon="-4.896733">
        <ele>1132.0</ele>
        <time>2015-06-07T12:38:58Z</time>
      </trkpt>
      <trkpt lat="40.232783" lon="-4.896767">
        <ele>1139.0</ele>
        <time>2015-06-07T12:39:00Z</time>
      </trkpt>
      <trkpt lat="40.232667" lon="-4.896850">
        <ele>1142.0</ele>
        <time>2015-06-07T12:39:02Z</time>
      </trkpt>
      <trkpt lat="40.232500" lon="-4.896983">
        <ele>1143.0</ele>
        <time>2015-06-07T12:39:04Z</time>
      </trkpt>
      <trkpt lat="40.232367" lon="-4.897250">
        <ele>1143.0</ele>
        <time>2015-06-07T12:39:06Z</time>
      </trkpt>
      <trkpt lat="40.232350" lon="-4.897550">
        <ele>1144.0</ele>
        <time>2015-06-07T12:39:08Z</time>
      </trkpt>
      <trkpt lat="40.232417" lon="-4.897783">
        <ele>1140.0</ele>
        <time>2015-06-07T12:39:10Z</time>
      </trkpt>
      <trkpt lat="40.232567" lon="-4.897967">
        <ele>1134.0</ele>
        <time>2015-06-07T12:39:12Z</time>
      </trkpt>
      <trkpt lat="40.232733" lon="-4.897983">
        <ele>1132.0</ele>
        <time>2015-06-07T12:39:14Z</time>
      </trkpt>
      <trkpt lat="40.232833" lon="-4.897933">
        <ele>1135.0</ele>
        <time>2015-06-07T12:39:16Z</time>
      </trkpt>
      <trkpt lat="40.232917" lon="-4.897900">
        <ele>1136.0</ele>
        <time>2015-06-07T12:39:18Z</time>
      </trkpt>
      <trkpt lat="40.232983" lon="-4.897750">
        <ele>1136.0</ele>
        <time>2015-06-07T12:39:20Z</time>
      </trkpt>
      <trkpt lat="40.233000" lon="-4.897633">
        <ele>1143.0</ele>
        <time>2015-06-07T12:39:22Z</time>
      </trkpt>
      <trkpt lat="40.233000" lon="-4.897567">
        <ele>1148.0</ele>
        <time>2015-06-07T12:39:24Z</time>
      </trkpt>
      <trkpt lat="40.233000" lon="-4.897450">
        <ele>1149.0</ele>
        <time>2015-06-07T12:39:26Z</time>
      </trkpt>
      <trkpt lat="40.232917" lon="-4.897283">
        <ele>1151.0</ele>
        <time>2015-06-07T12:39:28Z</time>
      </trkpt>
      <trkpt lat="40.232767" lon="-4.897200">
        <ele>1154.0</ele>
        <time>2015-06-07T12:39:30Z</time>
      </trkpt>
      <trkpt lat="40.232583" lon="-4.897183">
        <ele>1157.0</ele>
        <time>2015-06-07T12:39:32Z</time>
      </trkpt>
      <trkpt lat="40.232417" lon="-4.897300">
        <ele>1159.0</ele>
        <time>2015-06-07T12:39:34Z</time>
      </trkpt>
      <trkpt lat="40.232317" lon="-4.897583">
        <ele>1157.0</ele>
        <time>2015-06-07T12:39:36Z</time>
      </trkpt>
      <trkpt lat="40.232333" lon="-4.897883">
        <ele>1161.0</ele>
        <time>2015-06-07T12:39:38Z</time>
      </trkpt>
      <trkpt lat="40.232433" lon="-4.898100">
        <ele>1164.0</ele>
        <time>2015-06-07T12:39:40Z</time>
      </trkpt>
      <trkpt lat="40.232583" lon="-4.898200">
        <ele>1164.0</ele>
        <time>2015-06-07T12:39:42Z</time>
      </trkpt>
      <trkpt lat="40.232733" lon="-4.898167">
        <ele>1166.0</ele>
        <time>2015-06-07T12:39:44Z</time>
      </trkpt>
      <trkpt lat="40.232833" lon="-4.898100">
        <ele>1173.0</ele>
        <time>2015-06-07T12:39:46Z</time>
      </trkpt>
      <trkpt lat="40.232900" lon="-4.898067">
        <ele>1177.0</ele>
        <time>2015-06-07T12:39:48Z</time>
      </trkpt>
      <trkpt lat="40.232933" lon="-4.898000">
        <ele>1180.0</ele>
        <time>2015-06-07T12:39:50Z</time>
      </trkpt>
      <trkpt lat="40.232833" lon="-4.897900">
        <ele>1183.0</ele>
        <time>2015-06-07T12:39:52Z</time>
      </trkpt>
      <trkpt lat="40.232667" lon="-4.897867">
        <ele>1188.0</ele>
        <time>2015-06-07T12:39:54Z</time>
      </trkpt>
      <trkpt lat="40.232500" lon="-4.897933">
        <ele>1192.0</ele>
        <time>2015-06-07T12:39:56Z</time>
      </trkpt>
      <trkpt lat="40.232317" lon="-4.898100">
        <ele>1191.0</ele>
        <time>2015-06-07T12:39:58Z</time>
      </trkpt>
      <trkpt lat="40.232167" lon="-4.898383">
        <ele>1192.0</ele>
        <time>2015-06-07T12:40:00Z</time>
      </trkpt>
      <trkpt lat="40.232117" lon="-4.898633">
        <ele>1198.0</ele>
        <time>2015-06-07T12:40:02Z</time>
      </trkpt>
      <trkpt lat="40.232117" lon="-4.898850">
        <ele>1197.0</ele>
        <time>2015-06-07T12:40:04Z</time>
      </trkpt>
      <trkpt lat="40.232183" lon="-4.899100">
        <ele>1195.0</ele>
        <time>2015-06-07T12:40:06Z</time>
      </trkpt>
      <trkpt lat="40.232317" lon="-4.899267">
        <ele>1195.0</ele>
        <time>2015-06-07T12:40:08Z</time>
      </trkpt>
      <trkpt lat="40.232433" lon="-4.899300">
        <ele>1198.0</ele>
        <time>2015-06-07T12:40:10Z</time>
      </trkpt>
      <trkpt lat="40.232517" lon="-4.899283">
        <ele>1202.0</ele>
        <time>2015-06-07T12:40:12Z</time>
      </trkpt>
      <trkpt lat="40.232567" lon="-4.899233">
        <ele>1205.0</ele>
        <time>2015-06-07T12:40:14Z</time>
      </trkpt>
      <trkpt lat="40.232633" lon="-4.899167">
        <ele>1208.0</ele>
        <time>2015-06-07T12:40:16Z</time>
      </trkpt>
      <trkpt lat="40.232650" lon="-4.899067">
        <ele>1212.0</ele>
        <time>2015-06-07T12:40:18Z</time>
      </trkpt>
      <trkpt lat="40.232583" lon="-4.898950">
        <ele>1215.0</ele>
        <time>2015-06-07T12:40:20Z</time>
      </trkpt>
      <trkpt lat="40.232417" lon="-4.898817">
        <ele>1218.0</ele>
        <time>2015-06-07T12:40:22Z</time>
      </trkpt>
      <trkpt lat="40.232233" lon="-4.898767">
        <ele>1223.0</ele>
        <time>2015-06-07T12:40:24Z</time>
      </trkpt>
      <trkpt lat="40.232033" lon="-4.898817">
        <ele>1227.0</ele>
        <time>2015-06-07T12:40:26Z</time>
      </trkpt>
      <trkpt lat="40.231850" lon="-4.898983">
        <ele>1227.0</ele>
        <time>2015-06-07T12:40:28Z</time>
      </trkpt>
      <trkpt lat="40.231700" lon="-4.899233">
        <ele>1228.0</ele>
        <time>2015-06-07T12:40:30Z</time>
      </trkpt>
      <trkpt lat="40.231617" lon="-4.899517">
        <ele>1229.0</ele>
        <time>2015-06-07T12:40:32Z</time>
      </trkpt>
      <trkpt lat="40.231617" lon="-4.899783">
        <ele>1229.0</ele>
        <time>2015-06-07T12:40:34Z</time>
      </trkpt>
      <trkpt lat="40.231650" lon="-4.900083">
        <ele>1228.0</ele>
        <time>2015-06-07T12:40:36Z</time>
      </trkpt>
      <trkpt lat="40.231767" lon="-4.900300">
        <ele>1229.0</ele>
        <time>2015-06-07T12:40:38Z</time>
      </trkpt>
      <trkpt lat="40.231883" lon="-4.900400">
        <ele>1232.0</ele>
        <time>2015-06-07T12:40:40Z</time>
      </trkpt>
      <trkpt lat="40.231967" lon="-4.900450">
        <ele>1233.0</ele>
        <time>2015-06-07T12:40:42Z</time>
      </trkpt>
      <trkpt lat="40.232067" lon="-4.900450">
        <ele>1233.0</ele>
        <time>2015-06-07T12:40:44Z</time>
      </trkpt>
      <trkpt lat="40.232150" lon="-4.900400">
        <ele>1234.0</ele>
        <time>2015-06-07T12:40:46Z</time>
      </trkpt>
      <trkpt lat="40.232217" lon="-4.900367">
        <ele>1234.0</ele>
        <time>2015-06-07T12:40:48Z</time>
      </trkpt>
      <trkpt lat="40.232267" lon="-4.900283">
        <ele>1234.0</ele>
        <time>2015-06-07T12:40:50Z</time>
      </trkpt>
      <trkpt lat="40.232317" lon="-4.900167">
        <ele>1235.0</ele>
        <time>2015-06-07T12:40:52Z</time>
      </trkpt>
      <trkpt lat="40.232317" lon="-4.900050">
        <ele>1236.0</ele>
        <time>2015-06-07T12:40:54Z</time>
      </trkpt>
      <trkpt lat="40.232300" lon="-4.899867">
        <ele>1238.0</ele>
        <time>2015-06-07T12:40:56Z</time>
      </trkpt>
      <trkpt lat="40.232267" lon="-4.899750">
        <ele>1244.0</ele>
        <time>2015-06-07T12:40:58Z</time>
      </trkpt>
      <trkpt lat="40.232233" lon="-4.899683">
        <ele>1246.0</ele>
        <time>2015-06-07T12:41:00Z</time>
      </trkpt>
      <trkpt lat="40.232167" lon="-4.899567">
        <ele>1244.0</ele>
        <time>2015-06-07T12:41:02Z</time>
      </trkpt>
      <trkpt lat="40.232083" lon="-4.899450">
        <ele>1245.0</ele>
        <time>2015-06-07T12:41:04Z</time>
      </trkpt>
      <trkpt lat="40.231950" lon="-4.899433">
        <ele>1247.0</ele>
        <time>2015-06-07T12:41:06Z</time>
      </trkpt>
      <trkpt lat="40.231783" lon="-4.899433">
        <ele>1246.0</ele>
        <time>2015-06-07T12:41:08Z</time>
      </trkpt>
      <trkpt lat="40.231567" lon="-4.899517">
        <ele>1245.0</ele>
        <time>2015-06-07T12:41:10Z</time>
      </trkpt>
      <trkpt lat="40.231400" lon="-4.899700">
        <ele>1246.0</ele>
        <time>2015-06-07T12:41:12Z</time>
      </trkpt>
      <trkpt lat="40.231250" lon="-4.899933">
        <ele>1246.0</ele>
        <time>2015-06-07T12:41:14Z</time>
      </trkpt>
      <trkpt lat="40.231133" lon="-4.900233">
        <ele>1244.0</ele>
        <time>2015-06-07T12:41:16Z</time>
      </trkpt>
      <trkpt lat="40.231100" lon="-4.900550">
        <ele>1242.0</ele>
        <time>2015-06-07T12:41:18Z</time>
      </trkpt>
      <trkpt lat="40.231100" lon="-4.900867">
        <ele>1242.0</ele>
        <time>2015-06-07T12:41:20Z</time>
      </trkpt>
      <trkpt lat="40.231167" lon="-4.901150">
        <ele>1243.0</ele>
        <time>2015-06-07T12:41:22Z</time>
      </trkpt>
      <trkpt lat="40.231283" lon="-4.901400">
        <ele>1243.0</ele>
        <time>2015-06-07T12:41:24Z</time>
      </trkpt>
      <trkpt lat="40.231433" lon="-4.901600">
        <ele>1243.0</ele>
        <time>2015-06-07T12:41:26Z</time>
      </trkpt>
      <trkpt lat="40.231617" lon="-4.901733">
        <ele>1242.0</ele>
        <time>2015-06-07T12:41:28Z</time>
      </trkpt>
      <trkpt lat="40.231800" lon="-4.901767">
        <ele>1243.0</ele>
        <time>2015-06-07T12:41:30Z</time>
      </trkpt>
      <trkpt lat="40.231950" lon="-4.901733">
        <ele>1245.0</ele>
        <time>2015-06-07T12:41:32Z</time>
      </trkpt>
      <trkpt lat="40.232050" lon="-4.901667">
        <ele>1248.0</ele>
        <time>2015-06-07T12:41:34Z</time>
      </trkpt>
      <trkpt lat="40.232100" lon="-4.901633">
        <ele>1251.0</ele>
        <time>2015-06-07T12:41:36Z</time>
      </trkpt>
      <trkpt lat="40.232133" lon="-4.901567">
        <ele>1251.0</ele>
        <time>2015-06-07T12:41:38Z</time>
      </trkpt>
      <trkpt lat="40.232117" lon="-4.901467">
        <ele>1253.0</ele>
        <time>2015-06-07T12:41:40Z</time>
      </trkpt>
      <trkpt lat="40.232050" lon="-4.901417">
        <ele>1255.0</ele>
        <time>2015-06-07T12:41:42Z</time>
      </trkpt>
      <trkpt lat="40.231983" lon="-4.901367">
        <ele>1256.0</ele>
        <time>2015-06-07T12:41:44Z</time>
      </trkpt>
      <trkpt lat="40.231867" lon="-4.901317">
        <ele>1258.0</ele>
        <time>2015-06-07T12:41:46Z</time>
      </trkpt>
      <trkpt lat="40.231717" lon="-4.901350">
        <ele>1259.0</ele>
        <time>2015-06-07T12:41:48Z</time>
      </trkpt>
      <trkpt lat="40.231533" lon="-4.901433">
        <ele>1260.0</ele>
        <time>2015-06-07T12:41:50Z</time>
      </trkpt>
      <trkpt lat="40.231350" lon="-4.901583">
        <ele>1261.0</ele>
        <time>2015-06-07T12:41:52Z</time>
      </trkpt>
      <trkpt lat="40.231183" lon="-4.901783">
        <ele>1262.0</ele>
        <time>2015-06-07T12:41:54Z</time>
      </trkpt>
      <trkpt lat="40.231067" lon="-4.902017">
        <ele>1264.0</ele>
        <time>2015-06-07T12:41:56Z</time>
      </trkpt>
      <trkpt lat="40.230983" lon="-4.902283">
        <ele>1262.0</ele>
        <time>2015-06-07T12:41:58Z</time>
      </trkpt>
      <trkpt lat="40.230933" lon="-4.902600">
        <ele>1261.0</ele>
        <time>2015-06-07T12:42:00Z</time>
      </trkpt>
      <trkpt lat="40.230983" lon="-4.902933">
        <ele>1262.0</ele>
        <time>2015-06-07T12:42:02Z</time>
      </trkpt>
      <trkpt lat="40.231083" lon="-4.903200">
        <ele>1265.0</ele>
        <time>2015-06-07T12:42:04Z</time>
      </trkpt>
      <trkpt lat="40.231217" lon="-4.903433">
        <ele>1266.0</ele>
        <time>2015-06-07T12:42:06Z</time>
      </trkpt>
      <trkpt lat="40.231383" lon="-4.903633">
        <ele>1267.0</ele>
        <time>2015-06-07T12:42:08Z</time>
      </trkpt>
      <trkpt lat="40.231567" lon="-4.903717">
        <ele>1269.0</ele>
        <time>2015-06-07T12:42:10Z</time>
      </trkpt>
      <trkpt lat="40.231717" lon="-4.903767">
        <ele>1271.0</ele>
        <time>2015-06-07T12:42:12Z</time>
      </trkpt>
      <trkpt lat="40.231867" lon="-4.903750">
        <ele>1270.0</ele>
        <time>2015-06-07T12:42:14Z</time>
      </trkpt>
      <trkpt lat="40.231950" lon="-4.903667">
        <ele>1272.0</ele>
        <time>2015-06-07T12:42:16Z</time>
      </trkpt>
      <trkpt lat="40.231983" lon="-4.903583">
        <ele>1274.0</ele>
        <time>2015-06-07T12:42:18Z</time>
      </trkpt>
      <trkpt lat="40.231967" lon="-4.903500">
        <ele>1276.0</ele>
        <time>2015-06-07T12:42:20Z</time>
      </trkpt>
      <trkpt lat="40.231917" lon="-4.903450">
        <ele>1279.0</ele>
        <time>2015-06-07T12:42:22Z</time>
      </trkpt>
      <trkpt lat="40.231867" lon="-4.903417">
        <ele>1281.0</ele>
        <time>2015-06-07T12:42:24Z</time>
      </trkpt>
      <trkpt lat="40.231800" lon="-4.903367">
        <ele>1283.0</ele>
        <time>2015-06-07T12:42:26Z</time>
      </trkpt>
      <trkpt lat="40.231683" lon="-4.903367">
        <ele>1284.0</ele>
        <time>2015-06-07T12:42:28Z</time>
      </trkpt>
      <trkpt lat="40.231533" lon="-4.903450">
        <ele>1284.0</ele>
        <time>2015-06-07T12:42:30Z</time>
      </trkpt>
      <trkpt lat="40.231383" lon="-4.903550">
        <ele>1285.0</ele>
        <time>2015-06-07T12:42:32Z</time>
      </trkpt>
      <trkpt lat="40.231217" lon="-4.903717">
        <ele>1285.0</ele>
        <time>2015-06-07T12:42:34Z</time>
      </trkpt>
      <trkpt lat="40.231067" lon="-4.903983">
        <ele>1286.0</ele>
        <time>2015-06-07T12:42:36Z</time>
      </trkpt>
      <trkpt lat="40.230967" lon="-4.904300">
        <ele>1288.0</ele>
        <time>2015-06-07T12:42:38Z</time>
      </trkpt>
      <trkpt lat="40.230933" lon="-4.904617">
        <ele>1289.0</ele>
        <time>2015-06-07T12:42:40Z</time>
      </trkpt>
      <trkpt lat="40.230950" lon="-4.904933">
        <ele>1290.0</ele>
        <time>2015-06-07T12:42:42Z</time>
      </trkpt>
      <trkpt lat="40.231033" lon="-4.905250">
        <ele>1291.0</ele>
        <time>2015-06-07T12:42:44Z</time>
      </trkpt>
      <trkpt lat="40.231183" lon="-4.905500">
        <ele>1294.0</ele>
        <time>2015-06-07T12:42:46Z</time>
      </trkpt>
      <trkpt lat="40.231367" lon="-4.905667">
        <ele>1296.0</ele>
        <time>2015-06-07T12:42:48Z</time>
      </trkpt>
      <trkpt lat="40.231550" lon="-4.905733">
        <ele>1297.0</ele>
        <time>2015-06-07T12:42:50Z</time>
      </trkpt>
      <trkpt lat="40.231717" lon="-4.905733">
        <ele>1300.0</ele>
        <time>2015-06-07T12:42:52Z</time>
      </trkpt>
      <trkpt lat="40.231867" lon="-4.905667">
        <ele>1303.0</ele>
        <time>2015-06-07T12:42:54Z</time>
      </trkpt>
      <trkpt lat="40.231950" lon="-4.905550">
        <ele>1305.0</ele>
        <time>2015-06-07T12:42:56Z</time>
      </trkpt>
      <trkpt lat="40.231950" lon="-4.905400">
        <ele>1308.0</ele>
        <time>2015-06-07T12:42:58Z</time>
      </trkpt>
      <trkpt lat="40.231900" lon="-4.905317">
        <ele>1313.0</ele>
        <time>2015-06-07T12:43:00Z</time>
      </trkpt>
      <trkpt lat="40.231817" lon="-4.905317">
        <ele>1316.0</ele>
        <time>2015-06-07T12:43:02Z</time>
      </trkpt>
      <trkpt lat="40.231667" lon="-4.905367">
        <ele>1316.0</ele>
        <time>2015-06-07T12:43:04Z</time>
      </trkpt>
      <trkpt lat="40.231483" lon="-4.905500">
        <ele>1319.0</ele>
        <time>2015-06-07T12:43:06Z</time>
      </trkpt>
      <trkpt lat="40.231333" lon="-4.905717">
        <ele>1322.0</ele>
        <time>2015-06-07T12:43:08Z</time>
      </trkpt>
      <trkpt lat="40.231233" lon="-4.906000">
        <ele>1324.0</ele>
        <time>2015-06-07T12:43:10Z</time>
      </trkpt>
      <trkpt lat="40.231217" lon="-4.906367">
        <ele>1327.0</ele>
        <time>2015-06-07T12:43:12Z</time>
      </trkpt>
      <trkpt lat="40.231283" lon="-4.906667">
        <ele>1333.0</ele>
        <time>2015-06-07T12:43:14Z</time>
      </trkpt>
      <trkpt lat="40.231400" lon="-4.906883">
        <ele>1337.0</ele>
        <time>2015-06-07T12:43:16Z</time>
      </trkpt>
      <trkpt lat="40.231583" lon="-4.907067">
        <ele>1335.0</ele>
        <time>2015-06-07T12:43:18Z</time>
      </trkpt>
      <trkpt lat="40.231800" lon="-4.907133">
        <ele>1335.0</ele>
        <time>2015-06-07T12:43:20Z</time>
      </trkpt>
      <trkpt lat="40.231983" lon="-4.907033">
        <ele>1337.0</ele>
        <time>2015-06-07T12:43:22Z</time>
      </trkpt>
      <trkpt lat="40.232083" lon="-4.906917">
        <ele>1341.0</ele>
        <time>2015-06-07T12:43:24Z</time>
      </trkpt>
      <trkpt lat="40.232150" lon="-4.906783">
        <ele>1344.0</ele>
        <time>2015-06-07T12:43:26Z</time>
      </trkpt>
      <trkpt lat="40.232150" lon="-4.906667">
        <ele>1347.0</ele>
        <time>2015-06-07T12:43:28Z</time>
      </trkpt>
      <trkpt lat="40.232083" lon="-4.906533">
        <ele>1350.0</ele>
        <time>2015-06-07T12:43:30Z</time>
      </trkpt>
      <trkpt lat="40.231967" lon="-4.906483">
        <ele>1353.0</ele>
        <time>2015-06-07T12:43:32Z</time>
      </trkpt>
      <trkpt lat="40.231783" lon="-4.906533">
        <ele>1354.0</ele>
        <time>2015-06-07T12:43:34Z</time>
      </trkpt>
      <trkpt lat="40.231583" lon="-4.906667">
        <ele>1356.0</ele>
        <time>2015-06-07T12:43:36Z</time>
      </trkpt>
      <trkpt lat="40.231400" lon="-4.906917">
        <ele>1360.0</ele>
        <time>2015-06-07T12:43:38Z</time>
      </trkpt>
      <trkpt lat="40.231267" lon="-4.907200">
        <ele>1364.0</ele>
        <time>2015-06-07T12:43:40Z</time>
      </trkpt>
      <trkpt lat="40.231183" lon="-4.907517">
        <ele>1367.0</ele>
        <time>2015-06-07T12:43:42Z</time>
      </trkpt>
      <trkpt lat="40.231217" lon="-4.907833">
        <ele>1369.0</ele>
        <time>2015-06-07T12:43:44Z</time>
      </trkpt>
      <trkpt lat="40.231317" lon="-4.908083">
        <ele>1370.0</ele>
        <time>2015-06-07T12:43:46Z</time>
      </trkpt>
      <trkpt lat="40.231483" lon="-4.908267">
        <ele>1371.0</ele>
        <time>2015-06-07T12:43:48Z</time>
      </trkpt>
      <trkpt lat="40.231667" lon="-4.908300">
        <ele>1371.0</ele>
        <time>2015-06-07T12:43:50Z</time>
      </trkpt>
      <trkpt lat="40.231800" lon="-4.908200">
        <ele>1371.0</ele>
        <time>2015-06-07T12:43:52Z</time>
      </trkpt>
      <trkpt lat="40.231867" lon="-4.908067">
        <ele>1377.0</ele>
        <time>2015-06-07T12:43:54Z</time>
      </trkpt>
      <trkpt lat="40.231883" lon="-4.907967">
        <ele>1384.0</ele>
        <time>2015-06-07T12:43:56Z</time>
      </trkpt>
      <trkpt lat="40.231867" lon="-4.907883">
        <ele>1388.0</ele>
        <time>2015-06-07T12:43:58Z</time>
      </trkpt>
      <trkpt lat="40.231767" lon="-4.907800">
        <ele>1393.0</ele>
        <time>2015-06-07T12:44:00Z</time>
      </trkpt>
      <trkpt lat="40.231600" lon="-4.907833">
        <ele>1397.0</ele>
        <time>2015-06-07T12:44:02Z</time>
      </trkpt>
      <trkpt lat="40.231417" lon="-4.908017">
        <ele>1401.0</ele>
        <time>2015-06-07T12:44:04Z</time>
      </trkpt>
      <trkpt lat="40.231317" lon="-4.908350">
        <ele>1405.0</ele>
        <time>2015-06-07T12:44:06Z</time>
      </trkpt>
      <trkpt lat="40.231333" lon="-4.908633">
        <ele>1412.0</ele>
        <time>2015-06-07T12:44:08Z</time>
      </trkpt>
      <trkpt lat="40.231400" lon="-4.908867">
        <ele>1412.0</ele>
        <time>2015-06-07T12:44:10Z</time>
      </trkpt>
      <trkpt lat="40.231533" lon="-4.909100">
        <ele>1409.0</ele>
        <time>2015-06-07T12:44:12Z</time>
      </trkpt>
      <trkpt lat="40.231750" lon="-4.909217">
        <ele>1407.0</ele>
        <time>2015-06-07T12:44:14Z</time>
      </trkpt>
      <trkpt lat="40.231950" lon="-4.909217">
        <ele>1412.0</ele>
        <time>2015-06-07T12:44:16Z</time>
      </trkpt>
      <trkpt lat="40.232083" lon="-4.909167">
        <ele>1417.0</ele>
        <time>2015-06-07T12:44:18Z</time>
      </trkpt>
      <trkpt lat="40.232217" lon="-4.909083">
        <ele>1420.0</ele>
        <time>2015-06-07T12:44:20Z</time>
      </trkpt>
      <trkpt lat="40.232300" lon="-4.909017">
        <ele>1426.0</ele>
        <time>2015-06-07T12:44:22Z</time>
      </trkpt>
      <trkpt lat="40.232333" lon="-4.908950">
        <ele>1431.0</ele>
        <time>2015-06-07T12:44:24Z</time>
      </trkpt>
      <trkpt lat="40.232283" lon="-4.908850">
        <ele>1433.0</ele>
        <time>2015-06-07T12:44:26Z</time>
      </trkpt>
      <trkpt lat="40.232167" lon="-4.908783">
        <ele>1440.0</ele>
        <time>2015-06-07T12:44:28Z</time>
      </trkpt>
      <trkpt lat="40.232050" lon="-4.908800">
        <ele>1447.0</ele>
        <time>2015-06-07T12:44:30Z</time>
      </trkpt>
      <trkpt lat="40.231900" lon="-4.908850">
        <ele>1450.0</ele>
        <time>2015-06-07T12:44:32Z</time>
      </trkpt>
      <trkpt lat="40.231700" lon="-4.909000">
        <ele>1452.0</ele>
        <time>2015-06-07T12:44:34Z</time>
      </trkpt>
      <trkpt lat="40.231567" lon="-4.909233">
        <ele>1459.0</ele>
        <time>2015-06-07T12:44:36Z</time>
      </trkpt>
      <trkpt lat="40.231500" lon="-4.909467">
        <ele>1462.0</ele>
        <time>2015-06-07T12:44:38Z</time>
      </trkpt>
      <trkpt lat="40.231483" lon="-4.909767">
        <ele>1461.0</ele>
        <time>2015-06-07T12:44:40Z</time>
      </trkpt>
      <trkpt lat="40.231550" lon="-4.910067">
        <ele>1464.0</ele>
        <time>2015-06-07T12:44:42Z</time>
      </trkpt>
      <trkpt lat="40.231683" lon="-4.910233">
        <ele>1466.0</ele>
        <time>2015-06-07T12:44:44Z</time>
      </trkpt>
      <trkpt lat="40.231850" lon="-4.910283">
        <ele>1467.0</ele>
        <time>2015-06-07T12:44:46Z</time>
      </trkpt>
      <trkpt lat="40.231967" lon="-4.910183">
        <ele>1470.0</ele>
        <time>2015-06-07T12:44:48Z</time>
      </trkpt>
      <trkpt lat="40.232000" lon="-4.910100">
        <ele>1478.0</ele>
        <time>2015-06-07T12:44:50Z</time>
      </trkpt>
      <trkpt lat="40.232050" lon="-4.910050">
        <ele>1481.0</ele>
        <time>2015-06-07T12:44:52Z</time>
      </trkpt>
      <trkpt lat="40.232067" lon="-4.909950">
        <ele>1480.0</ele>
        <time>2015-06-07T12:44:54Z</time>
      </trkpt>
      <trkpt lat="40.232017" lon="-4.909817">
        <ele>1483.0</ele>
        <time>2015-06-07T12:44:56Z</time>
      </trkpt>
      <trkpt lat="40.231917" lon="-4.909750">
        <ele>1488.0</ele>
        <time>2015-06-07T12:44:58Z</time>
      </trkpt>
      <trkpt lat="40.231767" lon="-4.909767">
        <ele>1491.0</ele>
        <time>2015-06-07T12:45:00Z</time>
      </trkpt>
      <trkpt lat="40.231583" lon="-4.909867">
        <ele>1493.0</ele>
        <time>2015-06-07T12:45:02Z</time>
      </trkpt>
      <trkpt lat="40.231467" lon="-4.910100">
        <ele>1497.0</ele>
        <time>2015-06-07T12:45:04Z</time>
      </trkpt>
      <trkpt lat="40.231467" lon="-4.910367">
        <ele>1499.0</ele>
        <time>2015-06-07T12:45:06Z</time>
      </trkpt>
      <trkpt lat="40.231567" lon="-4.910583">
        <ele>1500.0</ele>
        <time>2015-06-07T12:45:08Z</time>
      </trkpt>
      <trkpt lat="40.231733" lon="-4.910733">
        <ele>1501.0</ele>
        <time>2015-06-07T12:45:10Z</time>
      </trkpt>
      <trkpt lat="40.231883" lon="-4.910833">
        <ele>1503.0</ele>
        <time>2015-06-07T12:45:12Z</time>
      </trkpt>
      <trkpt lat="40.232017" lon="-4.910850">
        <ele>1504.0</ele>
        <time>2015-06-07T12:45:14Z</time>
      </trkpt>
      <trkpt lat="40.232117" lon="-4.910767">
        <ele>1504.0</ele>
        <time>2015-06-07T12:45:16Z</time>
      </trkpt>
      <trkpt lat="40.232183" lon="-4.910633">
        <ele>1508.0</ele>
        <time>2015-06-07T12:45:18Z</time>
      </trkpt>
      <trkpt lat="40.232200" lon="-4.910517">
        <ele>1514.0</ele>
        <time>2015-06-07T12:45:20Z</time>
      </trkpt>
      <trkpt lat="40.232217" lon="-4.910400">
        <ele>1518.0</ele>
        <time>2015-06-07T12:45:22Z</time>
      </trkpt>
      <trkpt lat="40.232183" lon="-4.910250">
        <ele>1520.0</ele>
        <time>2015-06-07T12:45:24Z</time>
      </trkpt>
      <trkpt lat="40.232083" lon="-4.910150">
        <ele>1525.0</ele>
        <time>2015-06-07T12:45:26Z</time>
      </trkpt>
      <trkpt lat="40.231983" lon="-4.910133">
        <ele>1532.0</ele>
        <time>2015-06-07T12:45:28Z</time>
      </trkpt>
      <trkpt lat="40.231850" lon="-4.910167">
        <ele>1535.0</ele>
        <time>2015-06-07T12:45:30Z</time>
      </trkpt>
      <trkpt lat="40.231667" lon="-4.910300">
        <ele>1538.0</ele>
        <time>2015-06-07T12:45:32Z</time>
      </trkpt>
      <trkpt lat="40.231567" lon="-4.910567">
        <ele>1542.0</ele>
        <time>2015-06-07T12:45:34Z</time>
      </trkpt>
      <trkpt lat="40.231567" lon="-4.910867">
        <ele>1548.0</ele>
        <time>2015-06-07T12:45:36Z</time>
      </trkpt>
      <trkpt lat="40.231650" lon="-4.911117">
        <ele>1551.0</ele>
        <time>2015-06-07T12:45:38Z</time>
      </trkpt>
      <trkpt lat="40.231800" lon="-4.911300">
        <ele>1552.0</ele>
        <time>2015-06-07T12:45:40Z</time>
      </trkpt>
      <trkpt lat="40.232000" lon="-4.911367">
        <ele>1553.0</ele>
        <time>2015-06-07T12:45:42Z</time>
      </trkpt>
      <trkpt lat="40.232183" lon="-4.911333">
        <ele>1558.0</ele>
        <time>2015-06-07T12:45:44Z</time>
      </trkpt>
      <trkpt lat="40.232267" lon="-4.911217">
        <ele>1563.0</ele>
        <time>2015-06-07T12:45:46Z</time>
      </trkpt>
      <trkpt lat="40.232317" lon="-4.911100">
        <ele>1569.0</ele>
        <time>2015-06-07T12:45:48Z</time>
      </trkpt>
      <trkpt lat="40.232300" lon="-4.910983">
        <ele>1573.0</ele>
        <time>2015-06-07T12:45:50Z</time>
      </trkpt>
      <trkpt lat="40.232217" lon="-4.910883">
        <ele>1577.0</ele>
        <time>2015-06-07T12:45:52Z</time>
      </trkpt>
      <trkpt lat="40.232050" lon="-4.910867">
        <ele>1582.0</ele>
        <time>2015-06-07T12:45:54Z</time>
      </trkpt>
      <trkpt lat="40.231900" lon="-4.910933">
        <ele>1590.0</ele>
        <time>2015-06-07T12:45:56Z</time>
      </trkpt>
      <trkpt lat="40.231750" lon="-4.911100">
        <ele>1595.0</ele>
        <time>2015-06-07T12:45:58Z</time>
      </trkpt>
      <trkpt lat="40.231650" lon="-4.911383">
        <ele>1599.0</ele>
        <time>2015-06-07T12:46:00Z</time>
      </trkpt>
      <trkpt lat="40.231667" lon="-4.911700">
        <ele>1603.0</ele>
        <time>2015-06-07T12:46:02Z</time>
      </trkpt>
      <trkpt lat="40.231750" lon="-4.911967">
        <ele>1605.0</ele>
        <time>2015-06-07T12:46:04Z</time>
      </trkpt>
      <trkpt lat="40.231933" lon="-4.912133">
        <ele>1607.0</ele>
        <time>2015-06-07T12:46:06Z</time>
      </trkpt>
      <trkpt lat="40.232117" lon="-4.912167">
        <ele>1610.0</ele>
        <time>2015-06-07T12:46:08Z</time>
      </trkpt>
      <trkpt lat="40.232267" lon="-4.912083">
        <ele>1615.0</ele>
        <time>2015-06-07T12:46:10Z</time>
      </trkpt>
      <trkpt lat="40.232300" lon="-4.911950">
        <ele>1620.0</ele>
        <time>2015-06-07T12:46:12Z</time>
      </trkpt>
      <trkpt lat="40.232267" lon="-4.911850">
        <ele>1625.0</ele>
        <time>2015-06-07T12:46:14Z</time>
      </trkpt>
      <trkpt lat="40.232150" lon="-4.911800">
        <ele>1630.0</ele>
        <time>2015-06-07T12:46:16Z</time>
      </trkpt>
      <trkpt lat="40.231967" lon="-4.911850">
        <ele>1634.0</ele>
        <time>2015-06-07T12:46:18Z</time>
      </trkpt>
      <trkpt lat="40.231783" lon="-4.912033">
        <ele>1640.0</ele>
        <time>2015-06-07T12:46:20Z</time>
      </trkpt>
      <trkpt lat="40.231667" lon="-4.912267">
        <ele>1648.0</ele>
        <time>2015-06-07T12:46:22Z</time>
      </trkpt>
      <trkpt lat="40.231617" lon="-4.912600">
        <ele>1653.0</ele>
        <time>2015-06-07T12:46:24Z</time>
      </trkpt>
      <trkpt lat="40.231667" lon="-4.912917">
        <ele>1659.0</ele>
        <time>2015-06-07T12:46:26Z</time>
      </trkpt>
      <trkpt lat="40.231783" lon="-4.913150">
        <ele>1662.0</ele>
        <time>2015-06-07T12:46:28Z</time>
      </trkpt>
      <trkpt lat="40.231933" lon="-4.913333">
        <ele>1662.0</ele>
        <time>2015-06-07T12:46:30Z</time>
      </trkpt>
      <trkpt lat="40.232133" lon="-4.913367">
        <ele>1662.0</ele>
        <time>2015-06-07T12:46:32Z</time>
      </trkpt>
      <trkpt lat="40.232283" lon="-4.913283">
        <ele>1667.0</ele>
        <time>2015-06-07T12:46:34Z</time>
      </trkpt>
      <trkpt lat="40.232367" lon="-4.913183">
        <ele>1674.0</ele>
        <time>2015-06-07T12:46:36Z</time>
      </trkpt>
      <trkpt lat="40.232400" lon="-4.913083">
        <ele>1677.0</ele>
        <time>2015-06-07T12:46:38Z</time>
      </trkpt>
      <trkpt lat="40.232333" lon="-4.912933">
        <ele>1679.0</ele>
        <time>2015-06-07T12:46:40Z</time>
      </trkpt>
      <trkpt lat="40.232217" lon="-4.912850">
        <ele>1686.0</ele>
        <time>2015-06-07T12:46:42Z</time>
      </trkpt>
      <trkpt lat="40.232100" lon="-4.912900">
        <ele>1687.0</ele>
        <time>2015-06-07T12:46:44Z</time>
      </trkpt>
      <trkpt lat="40.231933" lon="-4.912967">
        <ele>1685.0</ele>
        <time>2015-06-07T12:46:46Z</time>
      </trkpt>
      <trkpt lat="40.231750" lon="-4.913183">
        <ele>1685.0</ele>
        <time>2015-06-07T12:46:48Z</time>
      </trkpt>
      <trkpt lat="40.231667" lon="-4.913533">
        <ele>1692.0</ele>
        <time>2015-06-07T12:46:50Z</time>
      </trkpt>
      <trkpt lat="40.231667" lon="-4.913817">
        <ele>1701.0</ele>
        <time>2015-06-07T12:46:52Z</time>
      </trkpt>
      <trkpt lat="40.231717" lon="-4.914067">
        <ele>1704.0</ele>
        <time>2015-06-07T12:46:54Z</time>
      </trkpt>
      <trkpt lat="40.231833" lon="-4.914317">
        <ele>1705.0</ele>
        <time>2015-06-07T12:46:56Z</time>
      </trkpt>
      <trkpt lat="40.232017" lon="-4.914483">
        <ele>1708.0</ele>
        <time>2015-06-07T12:46:58Z</time>
      </trkpt>
      <trkpt lat="40.232183" lon="-4.914517">
        <ele>1711.0</ele>
        <time>2015-06-07T12:47:00Z</time>
      </trkpt>
      <trkpt lat="40.232333" lon="-4.914450">
        <ele>1713.0</ele>
        <time>2015-06-07T12:47:02Z</time>
      </trkpt>
      <trkpt lat="40.232433" lon="-4.914317">
        <ele>1716.0</ele>
        <time>2015-06-07T12:47:04Z</time>
      </trkpt>
      <trkpt lat="40.232433" lon="-4.914150">
        <ele>1722.0</ele>
        <time>2015-06-07T12:47:06Z</time>
      </trkpt>
      <trkpt lat="40.232367" lon="-4.914067">
        <ele>1726.0</ele>
        <time>2015-06-07T12:47:08Z</time>
      </trkpt>
      <trkpt lat="40.232217" lon="-4.914100">
        <ele>1727.0</ele>
        <time>2015-06-07T12:47:10Z</time>
      </trkpt>
      <trkpt lat="40.232033" lon="-4.914283">
        <ele>1728.0</ele>
        <time>2015-06-07T12:47:12Z</time>
      </trkpt>
      <trkpt lat="40.231917" lon="-4.914567">
        <ele>1734.0</ele>
        <time>2015-06-07T12:47:14Z</time>
      </trkpt>
      <trkpt lat="40.231917" lon="-4.914833">
        <ele>1738.0</ele>
        <time>2015-06-07T12:47:16Z</time>
      </trkpt>
      <trkpt lat="40.231983" lon="-4.915117">
        <ele>1740.0</ele>
        <time>2015-06-07T12:47:18Z</time>
      </trkpt>
      <trkpt lat="40.232067" lon="-4.915367">
        <ele>1742.0</ele>
        <time>2015-06-07T12:47:20Z</time>
      </trkpt>
      <trkpt lat="40.232250" lon="-4.915533">
        <ele>1742.0</ele>
        <time>2015-06-07T12:47:22Z</time>
      </trkpt>
      <trkpt lat="40.232433" lon="-4.915600">
        <ele>1742.0</ele>
        <time>2015-06-07T12:47:24Z</time>
      </trkpt>
      <trkpt lat="40.232600" lon="-4.915567">
        <ele>1744.0</ele>
        <time>2015-06-07T12:47:26Z</time>
      </trkpt>
      <trkpt lat="40.232750" lon="-4.915483">
        <ele>1749.0</ele>
        <time>2015-06-07T12:47:28Z</time>
      </trkpt>
      <trkpt lat="40.232833" lon="-4.915433">
        <ele>1753.0</ele>
        <time>2015-06-07T12:47:30Z</time>
      </trkpt>
      <trkpt lat="40.232883" lon="-4.915350">
        <ele>1753.0</ele>
        <time>2015-06-07T12:47:32Z</time>
      </trkpt>
      <trkpt lat="40.232867" lon="-4.915217">
        <ele>1752.0</ele>
        <time>2015-06-07T12:47:34Z</time>
      </trkpt>
      <trkpt lat="40.232750" lon="-4.915100">
        <ele>1754.0</ele>
        <time>2015-06-07T12:47:36Z</time>
      </trkpt>
      <trkpt lat="40.232600" lon="-4.915033">
        <ele>1756.0</ele>
        <time>2015-06-07T12:47:38Z</time>
      </trkpt>
      <trkpt lat="40.232400" lon="-4.915050">
        <ele>1757.0</ele>
        <time>2015-06-07T12:47:40Z</time>
      </trkpt>
      <trkpt lat="40.232217" lon="-4.915183">
        <ele>1757.0</ele>
        <time>2015-06-07T12:47:42Z</time>
      </trkpt>
      <trkpt lat="40.232100" lon="-4.915450">
        <ele>1759.0</ele>
        <time>2015-06-07T12:47:44Z</time>
      </trkpt>
      <trkpt lat="40.232050" lon="-4.915733">
        <ele>1765.0</ele>
        <time>2015-06-07T12:47:46Z</time>
      </trkpt>
      <trkpt lat="40.232067" lon="-4.916017">
        <ele>1769.0</ele>
        <time>2015-06-07T12:47:48Z</time>
      </trkpt>
      <trkpt lat="40.232133" lon="-4.916283">
        <ele>1770.0</ele>
        <time>2015-06-07T12:47:50Z</time>
      </trkpt>
      <trkpt lat="40.232267" lon="-4.916517">
        <ele>1770.0</ele>
        <time>2015-06-07T12:47:52Z</time>
      </trkpt>
      <trkpt lat="40.232467" lon="-4.916650">
        <ele>1770.0</ele>
        <time>2015-06-07T12:47:54Z</time>
      </trkpt>
      <trkpt lat="40.232667" lon="-4.916650">
        <ele>1771.0</ele>
        <time>2015-06-07T12:47:56Z</time>
      </trkpt>
      <trkpt lat="40.232800" lon="-4.916550">
        <ele>1774.0</ele>
        <time>2015-06-07T12:47:58Z</time>
      </trkpt>
      <trkpt lat="40.232883" lon="-4.916433">
        <ele>1777.0</ele>
        <time>2015-06-07T12:48:00Z</time>
      </trkpt>
      <trkpt lat="40.232900" lon="-4.916317">
        <ele>1778.0</ele>
        <time>2015-06-07T12:48:02Z</time>
      </trkpt>
      <trkpt lat="40.232850" lon="-4.916167">
        <ele>1777.0</ele>
        <time>2015-06-07T12:48:04Z</time>
      </trkpt>
      <trkpt lat="40.232700" lon="-4.916050">
        <ele>1776.0</ele>
        <time>2015-06-07T12:48:06Z</time>
      </trkpt>
      <trkpt lat="40.232517" lon="-4.915983">
        <ele>1776.0</ele>
        <time>2015-06-07T12:48:08Z</time>
      </trkpt>
      <trkpt lat="40.232333" lon="-4.915933">
        <ele>1777.0</ele>
        <time>2015-06-07T12:48:10Z</time>
      </trkpt>
      <trkpt lat="40.232150" lon="-4.915850">
        <ele>1779.0</ele>
        <time>2015-06-07T12:48:12Z</time>
      </trkpt>
      <trkpt lat="40.231967" lon="-4.915783">
        <ele>1786.0</ele>
        <time>2015-06-07T12:48:14Z</time>
      </trkpt>
      <trkpt lat="40.231817" lon="-4.915750">
        <ele>1789.0</ele>
        <time>2015-06-07T12:48:16Z</time>
      </trkpt>
      <trkpt lat="40.231650" lon="-4.915767">
        <ele>1789.0</ele>
        <time>2015-06-07T12:48:18Z</time>
      </trkpt>
      <trkpt lat="40.231450" lon="-4.915900">
        <ele>1788.0</ele>
        <time>2015-06-07T12:48:20Z</time>
      </trkpt>
      <trkpt lat="40.231283" lon="-4.916133">
        <ele>1790.0</ele>
        <time>2015-06-07T12:48:22Z</time>
      </trkpt>
      <trkpt lat="40.231217" lon="-4.916417">
        <ele>1792.0</ele>
        <time>2015-06-07T12:48:24Z</time>
      </trkpt>
      <trkpt lat="40.231217" lon="-4.916700">
        <ele>1793.0</ele>
        <time>2015-06-07T12:48:26Z</time>
      </trkpt>
      <trkpt lat="40.231283" lon="-4.916967">
        <ele>1795.0</ele>
        <time>2015-06-07T12:48:28Z</time>
      </trkpt>
      <trkpt lat="40.231417" lon="-4.917167">
        <ele>1797.0</ele>
        <time>2015-06-07T12:48:30Z</time>
      </trkpt>
      <trkpt lat="40.231583" lon="-4.917267">
        <ele>1797.0</ele>
        <time>2015-06-07T12:48:32Z</time>
      </trkpt>
      <trkpt lat="40.231750" lon="-4.917267">
        <ele>1796.0</ele>
        <time>2015-06-07T12:48:34Z</time>
      </trkpt>
      <trkpt lat="40.231867" lon="-4.917150">
        <ele>1796.0</ele>
        <time>2015-06-07T12:48:36Z</time>
      </trkpt>
      <trkpt lat="40.231900" lon="-4.916983">
        <ele>1799.0</ele>
        <time>2015-06-07T12:48:38Z</time>
      </trkpt>
      <trkpt lat="40.231883" lon="-4.916867">
        <ele>1803.0</ele>
        <time>2015-06-07T12:48:40Z</time>
      </trkpt>
      <trkpt lat="40.231817" lon="-4.916717">
        <ele>1805.0</ele>
        <time>2015-06-07T12:48:42Z</time>
      </trkpt>
      <trkpt lat="40.231717" lon="-4.916567">
        <ele>1807.0</ele>
        <time>2015-06-07T12:48:44Z</time>
      </trkpt>
      <trkpt lat="40.231617" lon="-4.916417">
        <ele>1810.0</ele>
        <time>2015-06-07T12:48:46Z</time>
      </trkpt>
      <trkpt lat="40.231467" lon="-4.916350">
        <ele>1810.0</ele>
        <time>2015-06-07T12:48:48Z</time>
      </trkpt>
      <trkpt lat="40.231250" lon="-4.916367">
        <ele>1808.0</ele>
        <time>2015-06-07T12:48:50Z</time>
      </trkpt>
      <trkpt lat="40.231017" lon="-4.916417">
        <ele>1808.0</ele>
        <time>2015-06-07T12:48:52Z</time>
      </trkpt>
      <trkpt lat="40.230817" lon="-4.916517">
        <ele>1811.0</ele>
        <time>2015-06-07T12:48:54Z</time>
      </trkpt>
      <trkpt lat="40.230633" lon="-4.916617">
        <ele>1810.0</ele>
        <time>2015-06-07T12:48:56Z</time>
      </trkpt>
      <trkpt lat="40.230417" lon="-4.916717">
        <ele>1809.0</ele>
        <time>2015-06-07T12:48:58Z</time>
      </trkpt>
      <trkpt lat="40.230200" lon="-4.916783">
        <ele>1810.0</ele>
        <time>2015-06-07T12:49:00Z</time>
      </trkpt>
      <trkpt lat="40.230000" lon="-4.916867">
        <ele>1810.0</ele>
        <time>2015-06-07T12:49:02Z</time>
      </trkpt>
      <trkpt lat="40.229800" lon="-4.916967">
        <ele>1809.0</ele>
        <time>2015-06-07T12:49:04Z</time>
      </trkpt>
      <trkpt lat="40.229617" lon="-4.917050">
        <ele>1806.0</ele>
        <time>2015-06-07T12:49:06Z</time>
      </trkpt>
      <trkpt lat="40.229417" lon="-4.917067">
        <ele>1803.0</ele>
        <time>2015-06-07T12:49:08Z</time>
      </trkpt>
      <trkpt lat="40.229250" lon="-4.917050">
        <ele>1800.0</ele>
        <time>2015-06-07T12:49:10Z</time>
      </trkpt>
      <trkpt lat="40.229100" lon="-4.917000">
        <ele>1796.0</ele>
        <time>2015-06-07T12:49:12Z</time>
      </trkpt>
      <trkpt lat="40.229000" lon="-4.916883">
        <ele>1791.0</ele>
        <time>2015-06-07T12:49:14Z</time>
      </trkpt>
      <trkpt lat="40.228917" lon="-4.916767">
        <ele>1788.0</ele>
        <time>2015-06-07T12:49:16Z</time>
      </trkpt>
      <trkpt lat="40.228817" lon="-4.916633">
        <ele>1783.0</ele>
        <time>2015-06-07T12:49:18Z</time>
      </trkpt>
      <trkpt lat="40.228733" lon="-4.916483">
        <ele>1778.0</ele>
        <time>2015-06-07T12:49:20Z</time>
      </trkpt>
      <trkpt lat="40.228683" lon="-4.916367">
        <ele>1776.0</ele>
        <time>2015-06-07T12:49:22Z</time>
      </trkpt>
      <trkpt lat="40.228633" lon="-4.916250">
        <ele>1772.0</ele>
        <time>2015-06-07T12:49:24Z</time>
      </trkpt>
      <trkpt lat="40.228600" lon="-4.916067">
        <ele>1770.0</ele>
        <time>2015-06-07T12:49:26Z</time>
      </trkpt>
      <trkpt lat="40.228533" lon="-4.915933">
        <ele>1772.0</ele>
        <time>2015-06-07T12:49:28Z</time>
      </trkpt>
      <trkpt lat="40.228467" lon="-4.915783">
        <ele>1775.0</ele>
        <time>2015-06-07T12:49:30Z</time>
      </trkpt>
      <trkpt lat="40.228417" lon="-4.915683">
        <ele>1778.0</ele>
        <time>2015-06-07T12:49:32Z</time>
      </trkpt>
      <trkpt lat="40.228333" lon="-4.915583">
        <ele>1778.0</ele>
        <time>2015-06-07T12:49:34Z</time>
      </trkpt>
      <trkpt lat="40.228167" lon="-4.915500">
        <ele>1777.0</ele>
        <time>2015-06-07T12:49:36Z</time>
      </trkpt>
      <trkpt lat="40.228000" lon="-4.915467">
        <ele>1779.0</ele>
        <time>2015-06-07T12:49:38Z</time>
      </trkpt>
      <trkpt lat="40.227833" lon="-4.915500">
        <ele>1775.0</ele>
        <time>2015-06-07T12:49:40Z</time>
      </trkpt>
      <trkpt lat="40.227583" lon="-4.915550">
        <ele>1771.0</ele>
        <time>2015-06-07T12:49:42Z</time>
      </trkpt>
      <trkpt lat="40.227350" lon="-4.915633">
        <ele>1774.0</ele>
        <time>2015-06-07T12:49:44Z</time>
      </trkpt>
      <trkpt lat="40.227150" lon="-4.915717">
        <ele>1773.0</ele>
        <time>2015-06-07T12:49:46Z</time>
      </trkpt>
      <trkpt lat="40.226917" lon="-4.915900">
        <ele>1770.0</ele>
        <time>2015-06-07T12:49:48Z</time>
      </trkpt>
      <trkpt lat="40.226717" lon="-4.916133">
        <ele>1771.0</ele>
        <time>2015-06-07T12:49:50Z</time>
      </trkpt>
      <trkpt lat="40.226567" lon="-4.916400">
        <ele>1770.0</ele>
        <time>2015-06-07T12:49:52Z</time>
      </trkpt>
      <trkpt lat="40.226500" lon="-4.916733">
        <ele>1766.0</ele>
        <time>2015-06-07T12:49:54Z</time>
      </trkpt>
      <trkpt lat="40.226500" lon="-4.917067">
        <ele>1766.0</ele>
        <time>2015-06-07T12:49:56Z</time>
      </trkpt>
      <trkpt lat="40.226567" lon="-4.917283">
        <ele>1765.0</ele>
        <time>2015-06-07T12:49:58Z</time>
      </trkpt>
      <trkpt lat="40.226667" lon="-4.917450">
        <ele>1763.0</ele>
        <time>2015-06-07T12:50:00Z</time>
      </trkpt>
      <trkpt lat="40.226800" lon="-4.917533">
        <ele>1763.0</ele>
        <time>2015-06-07T12:50:02Z</time>
      </trkpt>
      <trkpt lat="40.226900" lon="-4.917500">
        <ele>1763.0</ele>
        <time>2015-06-07T12:50:04Z</time>
      </trkpt>
      <trkpt lat="40.226983" lon="-4.917433">
        <ele>1765.0</ele>
        <time>2015-06-07T12:50:06Z</time>
      </trkpt>
      <trkpt lat="40.227017" lon="-4.917333">
        <ele>1765.0</ele>
        <time>2015-06-07T12:50:08Z</time>
      </trkpt>
      <trkpt lat="40.227017" lon="-4.917183">
        <ele>1765.0</ele>
        <time>2015-06-07T12:50:10Z</time>
      </trkpt>
      <trkpt lat="40.227017" lon="-4.917050">
        <ele>1765.0</ele>
        <time>2015-06-07T12:50:12Z</time>
      </trkpt>
      <trkpt lat="40.227000" lon="-4.916950">
        <ele>1765.0</ele>
        <time>2015-06-07T12:50:14Z</time>
      </trkpt>
      <trkpt lat="40.226967" lon="-4.916817">
        <ele>1763.0</ele>
        <time>2015-06-07T12:50:16Z</time>
      </trkpt>
      <trkpt lat="40.226900" lon="-4.916700">
        <ele>1763.0</ele>
        <time>2015-06-07T12:50:18Z</time>
      </trkpt>
      <trkpt lat="40.226850" lon="-4.916583">
        <ele>1761.0</ele>
        <time>2015-06-07T12:50:20Z</time>
      </trkpt>
      <trkpt lat="40.226767" lon="-4.916467">
        <ele>1757.0</ele>
        <time>2015-06-07T12:50:22Z</time>
      </trkpt>
      <trkpt lat="40.226650" lon="-4.916350">
        <ele>1755.0</ele>
        <time>2015-06-07T12:50:24Z</time>
      </trkpt>
      <trkpt lat="40.226517" lon="-4.916217">
        <ele>1752.0</ele>
        <time>2015-06-07T12:50:26Z</time>
      </trkpt>
      <trkpt lat="40.226400" lon="-4.916067">
        <ele>1750.0</ele>
        <time>2015-06-07T12:50:28Z</time>
      </trkpt>
      <trkpt lat="40.226300" lon="-4.915900">
        <ele>1750.0</ele>
        <time>2015-06-07T12:50:30Z</time>
      </trkpt>
      <trkpt lat="40.226217" lon="-4.915733">
        <ele>1747.0</ele>
        <time>2015-06-07T12:50:32Z</time>
      </trkpt>
      <trkpt lat="40.226117" lon="-4.915533">
        <ele>1745.0</ele>
        <time>2015-06-07T12:50:34Z</time>
      </trkpt>
      <trkpt lat="40.226000" lon="-4.915317">
        <ele>1745.0</ele>
        <time>2015-06-07T12:50:36Z</time>
      </trkpt>
      <trkpt lat="40.225833" lon="-4.915150">
        <ele>1750.0</ele>
        <time>2015-06-07T12:50:38Z</time>
      </trkpt>
      <trkpt lat="40.225700" lon="-4.915067">
        <ele>1757.0</ele>
        <time>2015-06-07T12:50:40Z</time>
      </trkpt>
      <trkpt lat="40.225600" lon="-4.914950">
        <ele>1760.0</ele>
        <time>2015-06-07T12:50:42Z</time>
      </trkpt>
      <trkpt lat="40.225550" lon="-4.914733">
        <ele>1761.0</ele>
        <time>2015-06-07T12:50:44Z</time>
      </trkpt>
      <trkpt lat="40.225533" lon="-4.914517">
        <ele>1763.0</ele>
        <time>2015-06-07T12:50:46Z</time>
      </trkpt>
      <trkpt lat="40.225533" lon="-4.914317">
        <ele>1762.0</ele>
        <time>2015-06-07T12:50:48Z</time>
      </trkpt>
      <trkpt lat="40.225483" lon="-4.914083">
        <ele>1762.0</ele>
        <time>2015-06-07T12:50:50Z</time>
      </trkpt>
      <trkpt lat="40.225417" lon="-4.913900">
        <ele>1763.0</ele>
        <time>2015-06-07T12:50:52Z</time>
      </trkpt>
      <trkpt lat="40.225350" lon="-4.913733">
        <ele>1762.0</ele>
        <time>2015-06-07T12:50:54Z</time>
      </trkpt>
      <trkpt lat="40.225217" lon="-4.913617">
        <ele>1761.0</ele>
        <time>2015-06-07T12:50:56Z</time>
      </trkpt>
      <trkpt lat="40.225050" lon="-4.913600">
        <ele>1760.0</ele>
        <time>2015-06-07T12:50:58Z</time>
      </trkpt>
      <trkpt lat="40.224883" lon="-4.913650">
        <ele>1759.0</ele>
        <time>2015-06-07T12:51:00Z</time>
      </trkpt>
      <trkpt lat="40.224717" lon="-4.913767">
        <ele>1759.0</ele>
        <time>2015-06-07T12:51:02Z</time>
      </trkpt>
      <trkpt lat="40.224633" lon="-4.913967">
        <ele>1758.0</ele>
        <time>2015-06-07T12:51:04Z</time>
      </trkpt>
      <trkpt lat="40.224617" lon="-4.914233">
        <ele>1754.0</ele>
        <time>2015-06-07T12:51:06Z</time>
      </trkpt>
      <trkpt lat="40.224667" lon="-4.914517">
        <ele>1752.0</ele>
        <time>2015-06-07T12:51:08Z</time>
      </trkpt>
      <trkpt lat="40.224683" lon="-4.914783">
        <ele>1752.0</ele>
        <time>2015-06-07T12:51:10Z</time>
      </trkpt>
      <trkpt lat="40.224650" lon="-4.915033">
        <ele>1750.0</ele>
        <time>2015-06-07T12:51:12Z</time>
      </trkpt>
      <trkpt lat="40.224583" lon="-4.915267">
        <ele>1747.0</ele>
        <time>2015-06-07T12:51:14Z</time>
      </trkpt>
      <trkpt lat="40.224483" lon="-4.915467">
        <ele>1747.0</ele>
        <time>2015-06-07T12:51:16Z</time>
      </trkpt>
      <trkpt lat="40.224367" lon="-4.915633">
        <ele>1747.0</ele>
        <time>2015-06-07T12:51:18Z</time>
      </trkpt>
      <trkpt lat="40.224200" lon="-4.915750">
        <ele>1745.0</ele>
        <time>2015-06-07T12:51:20Z</time>
      </trkpt>
      <trkpt lat="40.224000" lon="-4.915867">
        <ele>1747.0</ele>
        <time>2015-06-07T12:51:22Z</time>
      </trkpt>
      <trkpt lat="40.223850" lon="-4.916017">
        <ele>1748.0</ele>
        <time>2015-06-07T12:51:24Z</time>
      </trkpt>
      <trkpt lat="40.223733" lon="-4.916233">
        <ele>1749.0</ele>
        <time>2015-06-07T12:51:26Z</time>
      </trkpt>
      <trkpt lat="40.223667" lon="-4.916517">
        <ele>1751.0</ele>
        <time>2015-06-07T12:51:28Z</time>
      </trkpt>
      <trkpt lat="40.223667" lon="-4.916800">
        <ele>1751.0</ele>
        <time>2015-06-07T12:51:30Z</time>
      </trkpt>
      <trkpt lat="40.223750" lon="-4.917050">
        <ele>1751.0</ele>
        <time>2015-06-07T12:51:32Z</time>
      </trkpt>
      <trkpt lat="40.223883" lon="-4.917250">
        <ele>1753.0</ele>
        <time>2015-06-07T12:51:34Z</time>
      </trkpt>
      <trkpt lat="40.224067" lon="-4.917400">
        <ele>1756.0</ele>
        <time>2015-06-07T12:51:36Z</time>
      </trkpt>
      <trkpt lat="40.224233" lon="-4.917483">
        <ele>1760.0</ele>
        <time>2015-06-07T12:51:38Z</time>
      </trkpt>
      <trkpt lat="40.224400" lon="-4.917467">
        <ele>1763.0</ele>
        <time>2015-06-07T12:51:40Z</time>
      </trkpt>
      <trkpt lat="40.224533" lon="-4.917333">
        <ele>1765.0</ele>
        <time>2015-06-07T12:51:42Z</time>
      </trkpt>
      <trkpt lat="40.224583" lon="-4.917150">
        <ele>1767.0</ele>
        <time>2015-06-07T12:51:44Z</time>
      </trkpt>
      <trkpt lat="40.224567" lon="-4.916950">
        <ele>1770.0</ele>
        <time>2015-06-07T12:51:46Z</time>
      </trkpt>
      <trkpt lat="40.224467" lon="-4.916783">
        <ele>1774.0</ele>
        <time>2015-06-07T12:51:48Z</time>
      </trkpt>
      <trkpt lat="40.224333" lon="-4.916733">
        <ele>1779.0</ele>
        <time>2015-06-07T12:51:50Z</time>
      </trkpt>
      <trkpt lat="40.224183" lon="-4.916750">
        <ele>1784.0</ele>
        <time>2015-06-07T12:51:52Z</time>
      </trkpt>
      <trkpt lat="40.224050" lon="-4.916883">
        <ele>1788.0</ele>
        <time>2015-06-07T12:51:54Z</time>
      </trkpt>
      <trkpt lat="40.223967" lon="-4.917117">
        <ele>1791.0</ele>
        <time>2015-06-07T12:51:56Z</time>
      </trkpt>
      <trkpt lat="40.224000" lon="-4.917383">
        <ele>1793.0</ele>
        <time>2015-06-07T12:51:58Z</time>
      </trkpt>
      <trkpt lat="40.224133" lon="-4.917600">
        <ele>1795.0</ele>
        <time>2015-06-07T12:52:00Z</time>
      </trkpt>
      <trkpt lat="40.224300" lon="-4.917717">
        <ele>1798.0</ele>
        <time>2015-06-07T12:52:02Z</time>
      </trkpt>
      <trkpt lat="40.224467" lon="-4.917717">
        <ele>1800.0</ele>
        <time>2015-06-07T12:52:04Z</time>
      </trkpt>
      <trkpt lat="40.224633" lon="-4.917583">
        <ele>1802.0</ele>
        <time>2015-06-07T12:52:06Z</time>
      </trkpt>
      <trkpt lat="40.224717" lon="-4.917383">
        <ele>1807.0</ele>
        <time>2015-06-07T12:52:08Z</time>
      </trkpt>
      <trkpt lat="40.224717" lon="-4.917200">
        <ele>1812.0</ele>
        <time>2015-06-07T12:52:10Z</time>
      </trkpt>
      <trkpt lat="40.224683" lon="-4.917017">
        <ele>1814.0</ele>
        <time>2015-06-07T12:52:12Z</time>
      </trkpt>
      <trkpt lat="40.224567" lon="-4.916900">
        <ele>1815.0</ele>
        <time>2015-06-07T12:52:14Z</time>
      </trkpt>
      <trkpt lat="40.224433" lon="-4.916883">
        <ele>1817.0</ele>
        <time>2015-06-07T12:52:16Z</time>
      </trkpt>
      <trkpt lat="40.224300" lon="-4.916967">
        <ele>1819.0</ele>
        <time>2015-06-07T12:52:18Z</time>
      </trkpt>
      <trkpt lat="40.224233" lon="-4.917167">
        <ele>1822.0</ele>
        <time>2015-06-07T12:52:20Z</time>
      </trkpt>
      <trkpt lat="40.224200" lon="-4.917383">
        <ele>1826.0</ele>
        <time>2015-06-07T12:52:22Z</time>
      </trkpt>
      <trkpt lat="40.224233" lon="-4.917617">
        <ele>1830.0</ele>
        <time>2015-06-07T12:52:24Z</time>
      </trkpt>
      <trkpt lat="40.224350" lon="-4.917817">
        <ele>1832.0</ele>
        <time>2015-06-07T12:52:26Z</time>
      </trkpt>
      <trkpt lat="40.224533" lon="-4.917917">
        <ele>1833.0</ele>
        <time>2015-06-07T12:52:28Z</time>
      </trkpt>
      <trkpt lat="40.224717" lon="-4.917883">
        <ele>1836.0</ele>
        <time>2015-06-07T12:52:30Z</time>
      </trkpt>
      <trkpt lat="40.224867" lon="-4.917783">
        <ele>1840.0</ele>
        <time>2015-06-07T12:52:32Z</time>
      </trkpt>
      <trkpt lat="40.224967" lon="-4.917633">
        <ele>1842.0</ele>
        <time>2015-06-07T12:52:34Z</time>
      </trkpt>
      <trkpt lat="40.224983" lon="-4.917417">
        <ele>1841.0</ele>
        <time>2015-06-07T12:52:36Z</time>
      </trkpt>
      <trkpt lat="40.224917" lon="-4.917200">
        <ele>1843.0</ele>
        <time>2015-06-07T12:52:38Z</time>
      </trkpt>
      <trkpt lat="40.224850" lon="-4.917067">
        <ele>1844.0</ele>
        <time>2015-06-07T12:52:40Z</time>
      </trkpt>
      <trkpt lat="40.224767" lon="-4.916933">
        <ele>1841.0</ele>
        <time>2015-06-07T12:52:42Z</time>
      </trkpt>
      <trkpt lat="40.224583" lon="-4.916850">
        <ele>1837.0</ele>
        <time>2015-06-07T12:52:44Z</time>
      </trkpt>
      <trkpt lat="40.224400" lon="-4.916883">
        <ele>1836.0</ele>
        <time>2015-06-07T12:52:46Z</time>
      </trkpt>
      <trkpt lat="40.224267" lon="-4.916967">
        <ele>1836.0</ele>
        <time>2015-06-07T12:52:48Z</time>
      </trkpt>
      <trkpt lat="40.224150" lon="-4.917117">
        <ele>1832.0</ele>
        <time>2015-06-07T12:52:50Z</time>
      </trkpt>
      <trkpt lat="40.224017" lon="-4.917333">
        <ele>1826.0</ele>
        <time>2015-06-07T12:52:52Z</time>
      </trkpt>
      <trkpt lat="40.223900" lon="-4.917500">
        <ele>1824.0</ele>
        <time>2015-06-07T12:52:54Z</time>
      </trkpt>
      <trkpt lat="40.223767" lon="-4.917667">
        <ele>1821.0</ele>
        <time>2015-06-07T12:52:56Z</time>
      </trkpt>
      <trkpt lat="40.223633" lon="-4.917833">
        <ele>1818.0</ele>
        <time>2015-06-07T12:52:58Z</time>
      </trkpt>
      <trkpt lat="40.223500" lon="-4.918000">
        <ele>1814.0</ele>
        <time>2015-06-07T12:53:00Z</time>
      </trkpt>
      <trkpt lat="40.223350" lon="-4.918167">
        <ele>1813.0</ele>
        <time>2015-06-07T12:53:02Z</time>
      </trkpt>
      <trkpt lat="40.223183" lon="-4.918317">
        <ele>1817.0</ele>
        <time>2015-06-07T12:53:04Z</time>
      </trkpt>
      <trkpt lat="40.223067" lon="-4.918450">
        <ele>1822.0</ele>
        <time>2015-06-07T12:53:06Z</time>
      </trkpt>
      <trkpt lat="40.222983" lon="-4.918650">
        <ele>1823.0</ele>
        <time>2015-06-07T12:53:08Z</time>
      </trkpt>
      <trkpt lat="40.222950" lon="-4.918950">
        <ele>1821.0</ele>
        <time>2015-06-07T12:53:10Z</time>
      </trkpt>
      <trkpt lat="40.223050" lon="-4.919200">
        <ele>1821.0</ele>
        <time>2015-06-07T12:53:12Z</time>
      </trkpt>
      <trkpt lat="40.223217" lon="-4.919350">
        <ele>1820.0</ele>
        <time>2015-06-07T12:53:14Z</time>
      </trkpt>
      <trkpt lat="40.223400" lon="-4.919417">
        <ele>1820.0</ele>
        <time>2015-06-07T12:53:16Z</time>
      </trkpt>
      <trkpt lat="40.223600" lon="-4.919417">
        <ele>1819.0</ele>
        <time>2015-06-07T12:53:18Z</time>
      </trkpt>
      <trkpt lat="40.223800" lon="-4.919333">
        <ele>1818.0</ele>
        <time>2015-06-07T12:53:20Z</time>
      </trkpt>
      <trkpt lat="40.223950" lon="-4.919133">
        <ele>1817.0</ele>
        <time>2015-06-07T12:53:22Z</time>
      </trkpt>
      <trkpt lat="40.224067" lon="-4.918933">
        <ele>1818.0</ele>
        <time>2015-06-07T12:53:24Z</time>
      </trkpt>
      <trkpt lat="40.224150" lon="-4.918750">
        <ele>1822.0</ele>
        <time>2015-06-07T12:53:26Z</time>
      </trkpt>
      <trkpt lat="40.224200" lon="-4.918583">
        <ele>1824.0</ele>
        <time>2015-06-07T12:53:28Z</time>
      </trkpt>
      <trkpt lat="40.224183" lon="-4.918417">
        <ele>1822.0</ele>
        <time>2015-06-07T12:53:30Z</time>
      </trkpt>
      <trkpt lat="40.224100" lon="-4.918267">
        <ele>1818.0</ele>
        <time>2015-06-07T12:53:32Z</time>
      </trkpt>
      <trkpt lat="40.223950" lon="-4.918233">
        <ele>1813.0</ele>
        <time>2015-06-07T12:53:34Z</time>
      </trkpt>
      <trkpt lat="40.223817" lon="-4.918333">
        <ele>1811.0</ele>
        <time>2015-06-07T12:53:36Z</time>
      </trkpt>
      <trkpt lat="40.223700" lon="-4.918483">
        <ele>1807.0</ele>
        <time>2015-06-07T12:53:38Z</time>
      </trkpt>
      <trkpt lat="40.223600" lon="-4.918733">
        <ele>1803.0</ele>
        <time>2015-06-07T12:53:40Z</time>
      </trkpt>
      <trkpt lat="40.223550" lon="-4.919017">
        <ele>1804.0</ele>
        <time>2015-06-07T12:53:42Z</time>
      </trkpt>
      <trkpt lat="40.223583" lon="-4.919267">
        <ele>1809.0</ele>
        <time>2015-06-07T12:53:44Z</time>
      </trkpt>
      <trkpt lat="40.223650" lon="-4.919433">
        <ele>1809.0</ele>
        <time>2015-06-07T12:53:46Z</time>
      </trkpt>
      <trkpt lat="40.223767" lon="-4.919633">
        <ele>1808.0</ele>
        <time>2015-06-07T12:53:48Z</time>
      </trkpt>
      <trkpt lat="40.223967" lon="-4.919783">
        <ele>1809.0</ele>
        <time>2015-06-07T12:53:50Z</time>
      </trkpt>
      <trkpt lat="40.224183" lon="-4.919800">
        <ele>1812.0</ele>
        <time>2015-06-07T12:53:52Z</time>
      </trkpt>
      <trkpt lat="40.224367" lon="-4.919717">
        <ele>1812.0</ele>
        <time>2015-06-07T12:53:54Z</time>
      </trkpt>
      <trkpt lat="40.224533" lon="-4.919533">
        <ele>1811.0</ele>
        <time>2015-06-07T12:53:56Z</time>
      </trkpt>
      <trkpt lat="40.224567" lon="-4.919350">
        <ele>1813.0</ele>
        <time>2015-06-07T12:53:58Z</time>
      </trkpt>
      <trkpt lat="40.224550" lon="-4.919233">
        <ele>1812.0</ele>
        <time>2015-06-07T12:54:00Z</time>
      </trkpt>
      <trkpt lat="40.224583" lon="-4.919067">
        <ele>1806.0</ele>
        <time>2015-06-07T12:54:02Z</time>
      </trkpt>
      <trkpt lat="40.224567" lon="-4.918850">
        <ele>1802.0</ele>
        <time>2015-06-07T12:54:04Z</time>
      </trkpt>
      <trkpt lat="40.224500" lon="-4.918700">
        <ele>1798.0</ele>
        <time>2015-06-07T12:54:06Z</time>
      </trkpt>
      <trkpt lat="40.224350" lon="-4.918617">
        <ele>1792.0</ele>
        <time>2015-06-07T12:54:08Z</time>
      </trkpt>
      <trkpt lat="40.224133" lon="-4.918633">
        <ele>1786.0</ele>
        <time>2015-06-07T12:54:10Z</time>
      </trkpt>
      <trkpt lat="40.223933" lon="-4.918750">
        <ele>1784.0</ele>
        <time>2015-06-07T12:54:12Z</time>
      </trkpt>
      <trkpt lat="40.223800" lon="-4.918900">
        <ele>1783.0</ele>
        <time>2015-06-07T12:54:14Z</time>
      </trkpt>
      <trkpt lat="40.223683" lon="-4.919067">
        <ele>1778.0</ele>
        <time>2015-06-07T12:54:16Z</time>
      </trkpt>
      <trkpt lat="40.223567" lon="-4.919350">
        <ele>1774.0</ele>
        <time>2015-06-07T12:54:18Z</time>
      </trkpt>
      <trkpt lat="40.223483" lon="-4.919617">
        <ele>1774.0</ele>
        <time>2015-06-07T12:54:20Z</time>
      </trkpt>
      <trkpt lat="40.223417" lon="-4.919783">
        <ele>1771.0</ele>
        <time>2015-06-07T12:54:22Z</time>
      </trkpt>
      <trkpt lat="40.223333" lon="-4.919967">
        <ele>1764.0</ele>
        <time>2015-06-07T12:54:24Z</time>
      </trkpt>
      <trkpt lat="40.223183" lon="-4.920133">
        <ele>1761.0</ele>
        <time>2015-06-07T12:54:26Z</time>
      </trkpt>
      <trkpt lat="40.223067" lon="-4.920250">
        <ele>1762.0</ele>
        <time>2015-06-07T12:54:28Z</time>
      </trkpt>
      <trkpt lat="40.222967" lon="-4.920383">
        <ele>1761.0</ele>
        <time>2015-06-07T12:54:30Z</time>
      </trkpt>
      <trkpt lat="40.222867" lon="-4.920567">
        <ele>1759.0</ele>
        <time>2015-06-07T12:54:32Z</time>
      </trkpt>
      <trkpt lat="40.222817" lon="-4.920783">
        <ele>1763.0</ele>
        <time>2015-06-07T12:54:34Z</time>
      </trkpt>
      <trkpt lat="40.222817" lon="-4.920983">
        <ele>1765.0</ele>
        <time>2015-06-07T12:54:36Z</time>
      </trkpt>
      <trkpt lat="40.222833" lon="-4.921183">
        <ele>1764.0</ele>
        <time>2015-06-07T12:54:38Z</time>
      </trkpt>
      <trkpt lat="40.222900" lon="-4.921367">
        <ele>1763.0</ele>
        <time>2015-06-07T12:54:40Z</time>
      </trkpt>
      <trkpt lat="40.223033" lon="-4.921483">
        <ele>1763.0</ele>
        <time>2015-06-07T12:54:42Z</time>
      </trkpt>
      <trkpt lat="40.223167" lon="-4.921567">
        <ele>1764.0</ele>
        <time>2015-06-07T12:54:44Z</time>
      </trkpt>
      <trkpt lat="40.223317" lon="-4.921617">
        <ele>1765.0</ele>
        <time>2015-06-07T12:54:46Z</time>
      </trkpt>
      <trkpt lat="40.223467" lon="-4.921583">
        <ele>1765.0</ele>
        <time>2015-06-07T12:54:48Z</time>
      </trkpt>
      <trkpt lat="40.223600" lon="-4.921517">
        <ele>1765.0</ele>
        <time>2015-06-07T12:54:50Z</time>
      </trkpt>
      <trkpt lat="40.223700" lon="-4.921417">
        <ele>1765.0</ele>
        <time>2015-06-07T12:54:52Z</time>
      </trkpt>
      <trkpt lat="40.223800" lon="-4.921300">
        <ele>1761.0</ele>
        <time>2015-06-07T12:54:54Z</time>
      </trkpt>
      <trkpt lat="40.223850" lon="-4.921150">
        <ele>1755.0</ele>
        <time>2015-06-07T12:54:56Z</time>
      </trkpt>
      <trkpt lat="40.223833" lon="-4.920967">
        <ele>1750.0</ele>
        <time>2015-06-07T12:54:58Z</time>
      </trkpt>
      <trkpt lat="40.223783" lon="-4.920817">
        <ele>1747.0</ele>
        <time>2015-06-07T12:55:00Z</time>
      </trkpt>
      <trkpt lat="40.223767" lon="-4.920700">
        <ele>1744.0</ele>
        <time>2015-06-07T12:55:02Z</time>
      </trkpt>
      <trkpt lat="40.223717" lon="-4.920583">
        <ele>1740.0</ele>
        <time>2015-06-07T12:55:04Z</time>
      </trkpt>
      <trkpt lat="40.223600" lon="-4.920450">
        <ele>1736.0</ele>
        <time>2015-06-07T12:55:06Z</time>
      </trkpt>
      <trkpt lat="40.223483" lon="-4.920400">
        <ele>1736.0</ele>
        <time>2015-06-07T12:55:08Z</time>
      </trkpt>
      <trkpt lat="40.223367" lon="-4.920383">
        <ele>1731.0</ele>
        <time>2015-06-07T12:55:10Z</time>
      </trkpt>
      <trkpt lat="40.223217" lon="-4.920450">
        <ele>1722.0</ele>
        <time>2015-06-07T12:55:12Z</time>
      </trkpt>
      <trkpt lat="40.223017" lon="-4.920517">
        <ele>1716.0</ele>
        <time>2015-06-07T12:55:14Z</time>
      </trkpt>
      <trkpt lat="40.222850" lon="-4.920567">
        <ele>1712.0</ele>
        <time>2015-06-07T12:55:16Z</time>
      </trkpt>
      <trkpt lat="40.222683" lon="-4.920633">
        <ele>1706.0</ele>
        <time>2015-06-07T12:55:18Z</time>
      </trkpt>
      <trkpt lat="40.222517" lon="-4.920733">
        <ele>1699.0</ele>
        <time>2015-06-07T12:55:20Z</time>
      </trkpt>
      <trkpt lat="40.222350" lon="-4.920867">
        <ele>1694.0</ele>
        <time>2015-06-07T12:55:22Z</time>
      </trkpt>
      <trkpt lat="40.222217" lon="-4.921017">
        <ele>1688.0</ele>
        <time>2015-06-07T12:55:24Z</time>
      </trkpt>
      <trkpt lat="40.222067" lon="-4.921217">
        <ele>1680.0</ele>
        <time>2015-06-07T12:55:26Z</time>
      </trkpt>
      <trkpt lat="40.221917" lon="-4.921433">
        <ele>1676.0</ele>
        <time>2015-06-07T12:55:28Z</time>
      </trkpt>
      <trkpt lat="40.221817" lon="-4.921683">
        <ele>1677.0</ele>
        <time>2015-06-07T12:55:30Z</time>
      </trkpt>
      <trkpt lat="40.221683" lon="-4.921917">
        <ele>1675.0</ele>
        <time>2015-06-07T12:55:32Z</time>
      </trkpt>
      <trkpt lat="40.221550" lon="-4.922100">
        <ele>1675.0</ele>
        <time>2015-06-07T12:55:34Z</time>
      </trkpt>
      <trkpt lat="40.221417" lon="-4.922283">
        <ele>1674.0</ele>
        <time>2015-06-07T12:55:36Z</time>
      </trkpt>
      <trkpt lat="40.221250" lon="-4.922483">
        <ele>1671.0</ele>
        <time>2015-06-07T12:55:38Z</time>
      </trkpt>
      <trkpt lat="40.221100" lon="-4.922717">
        <ele>1671.0</ele>
        <time>2015-06-07T12:55:40Z</time>
      </trkpt>
      <trkpt lat="40.220983" lon="-4.922950">
        <ele>1670.0</ele>
        <time>2015-06-07T12:55:42Z</time>
      </trkpt>
      <trkpt lat="40.220850" lon="-4.923183">
        <ele>1669.0</ele>
        <time>2015-06-07T12:55:44Z</time>
      </trkpt>
      <trkpt lat="40.220750" lon="-4.923450">
        <ele>1669.0</ele>
        <time>2015-06-07T12:55:46Z</time>
      </trkpt>
      <trkpt lat="40.220650" lon="-4.923733">
        <ele>1670.0</ele>
        <time>2015-06-07T12:55:48Z</time>
      </trkpt>
      <trkpt lat="40.220533" lon="-4.923983">
        <ele>1671.0</ele>
        <time>2015-06-07T12:55:50Z</time>
      </trkpt>
      <trkpt lat="40.220500" lon="-4.924233">
        <ele>1671.0</ele>
        <time>2015-06-07T12:55:52Z</time>
      </trkpt>
      <trkpt lat="40.220550" lon="-4.924483">
        <ele>1670.0</ele>
        <time>2015-06-07T12:55:54Z</time>
      </trkpt>
      <trkpt lat="40.220617" lon="-4.924717">
        <ele>1669.0</ele>
        <time>2015-06-07T12:55:56Z</time>
      </trkpt>
      <trkpt lat="40.220667" lon="-4.924967">
        <ele>1667.0</ele>
        <time>2015-06-07T12:55:58Z</time>
      </trkpt>
      <trkpt lat="40.220700" lon="-4.925217">
        <ele>1665.0</ele>
        <time>2015-06-07T12:56:00Z</time>
      </trkpt>
      <trkpt lat="40.220700" lon="-4.925483">
        <ele>1662.0</ele>
        <time>2015-06-07T12:56:02Z</time>
      </trkpt>
      <trkpt lat="40.220667" lon="-4.925750">
        <ele>1657.0</ele>
        <time>2015-06-07T12:56:04Z</time>
      </trkpt>
      <trkpt lat="40.220583" lon="-4.926033">
        <ele>1653.0</ele>
        <time>2015-06-07T12:56:06Z</time>
      </trkpt>
      <trkpt lat="40.220500" lon="-4.926300">
        <ele>1650.0</ele>
        <time>2015-06-07T12:56:08Z</time>
      </trkpt>
      <trkpt lat="40.220417" lon="-4.926550">
        <ele>1648.0</ele>
        <time>2015-06-07T12:56:10Z</time>
      </trkpt>
      <trkpt lat="40.220350" lon="-4.926817">
        <ele>1646.0</ele>
        <time>2015-06-07T12:56:12Z</time>
      </trkpt>
      <trkpt lat="40.220250" lon="-4.927083">
        <ele>1647.0</ele>
        <time>2015-06-07T12:56:14Z</time>
      </trkpt>
      <trkpt lat="40.220233" lon="-4.927333">
        <ele>1647.0</ele>
        <time>2015-06-07T12:56:16Z</time>
      </trkpt>
      <trkpt lat="40.220283" lon="-4.927567">
        <ele>1644.0</ele>
        <time>2015-06-07T12:56:18Z</time>
      </trkpt>
      <trkpt lat="40.220333" lon="-4.927817">
        <ele>1641.0</ele>
        <time>2015-06-07T12:56:20Z</time>
      </trkpt>
      <trkpt lat="40.220367" lon="-4.928050">
        <ele>1635.0</ele>
        <time>2015-06-07T12:56:22Z</time>
      </trkpt>
      <trkpt lat="40.220350" lon="-4.928333">
        <ele>1626.0</ele>
        <time>2015-06-07T12:56:24Z</time>
      </trkpt>
      <trkpt lat="40.220250" lon="-4.928633">
        <ele>1620.0</ele>
        <time>2015-06-07T12:56:26Z</time>
      </trkpt>
      <trkpt lat="40.220167" lon="-4.928900">
        <ele>1617.0</ele>
        <time>2015-06-07T12:56:28Z</time>
      </trkpt>
      <trkpt lat="40.220067" lon="-4.929133">
        <ele>1611.0</ele>
        <time>2015-06-07T12:56:30Z</time>
      </trkpt>
      <trkpt lat="40.219917" lon="-4.929400">
        <ele>1604.0</ele>
        <time>2015-06-07T12:56:32Z</time>
      </trkpt>
      <trkpt lat="40.219750" lon="-4.929633">
        <ele>1601.0</ele>
        <time>2015-06-07T12:56:34Z</time>
      </trkpt>
      <trkpt lat="40.219617" lon="-4.929817">
        <ele>1599.0</ele>
        <time>2015-06-07T12:56:36Z</time>
      </trkpt>
      <trkpt lat="40.219483" lon="-4.930050">
        <ele>1594.0</ele>
        <time>2015-06-07T12:56:38Z</time>
      </trkpt>
      <trkpt lat="40.219333" lon="-4.930300">
        <ele>1593.0</ele>
        <time>2015-06-07T12:56:40Z</time>
      </trkpt>
      <trkpt lat="40.219217" lon="-4.930550">
        <ele>1595.0</ele>
        <time>2015-06-07T12:56:42Z</time>
      </trkpt>
      <trkpt lat="40.219100" lon="-4.930867">
        <ele>1599.0</ele>
        <time>2015-06-07T12:56:44Z</time>
      </trkpt>
      <trkpt lat="40.219017" lon="-4.931217">
        <ele>1605.0</ele>
        <time>2015-06-07T12:56:46Z</time>
      </trkpt>
      <trkpt lat="40.218983" lon="-4.931550">
        <ele>1612.0</ele>
        <time>2015-06-07T12:56:48Z</time>
      </trkpt>
      <trkpt lat="40.219067" lon="-4.931833">
        <ele>1616.0</ele>
        <time>2015-06-07T12:56:50Z</time>
      </trkpt>
      <trkpt lat="40.219233" lon="-4.932050">
        <ele>1620.0</ele>
        <time>2015-06-07T12:56:52Z</time>
      </trkpt>
      <trkpt lat="40.219433" lon="-4.932117">
        <ele>1627.0</ele>
        <time>2015-06-07T12:56:54Z</time>
      </trkpt>
      <trkpt lat="40.219583" lon="-4.932050">
        <ele>1632.0</ele>
        <time>2015-06-07T12:56:56Z</time>
      </trkpt>
      <trkpt lat="40.219617" lon="-4.931967">
        <ele>1637.0</ele>
        <time>2015-06-07T12:56:58Z</time>
      </trkpt>
      <trkpt lat="40.219550" lon="-4.931883">
        <ele>1638.0</ele>
        <time>2015-06-07T12:57:00Z</time>
      </trkpt>
      <trkpt lat="40.219450" lon="-4.931850">
        <ele>1639.0</ele>
        <time>2015-06-07T12:57:02Z</time>
      </trkpt>
      <trkpt lat="40.219283" lon="-4.931917">
        <ele>1643.0</ele>
        <time>2015-06-07T12:57:04Z</time>
      </trkpt>
      <trkpt lat="40.219150" lon="-4.931967">
        <ele>1651.0</ele>
        <time>2015-06-07T12:57:06Z</time>
      </trkpt>
      <trkpt lat="40.219017" lon="-4.932033">
        <ele>1655.0</ele>
        <time>2015-06-07T12:57:08Z</time>
      </trkpt>
      <trkpt lat="40.218850" lon="-4.932217">
        <ele>1659.0</ele>
        <time>2015-06-07T12:57:10Z</time>
      </trkpt>
      <trkpt lat="40.218817" lon="-4.932517">
        <ele>1665.0</ele>
        <time>2015-06-07T12:57:12Z</time>
      </trkpt>
      <trkpt lat="40.218883" lon="-4.932783">
        <ele>1673.0</ele>
        <time>2015-06-07T12:57:14Z</time>
      </trkpt>
      <trkpt lat="40.219033" lon="-4.932983">
        <ele>1678.0</ele>
        <time>2015-06-07T12:57:16Z</time>
      </trkpt>
      <trkpt lat="40.219233" lon="-4.933083">
        <ele>1682.0</ele>
        <time>2015-06-07T12:57:18Z</time>
      </trkpt>
      <trkpt lat="40.219400" lon="-4.933033">
        <ele>1687.0</ele>
        <time>2015-06-07T12:57:20Z</time>
      </trkpt>
      <trkpt lat="40.219500" lon="-4.932933">
        <ele>1692.0</ele>
        <time>2015-06-07T12:57:22Z</time>
      </trkpt>
      <trkpt lat="40.219550" lon="-4.932833">
        <ele>1697.0</ele>
        <time>2015-06-07T12:57:24Z</time>
      </trkpt>
      <trkpt lat="40.219583" lon="-4.932717">
        <ele>1700.0</ele>
        <time>2015-06-07T12:57:26Z</time>
      </trkpt>
      <trkpt lat="40.219500" lon="-4.932633">
        <ele>1700.0</ele>
        <time>2015-06-07T12:57:28Z</time>
      </trkpt>
      <trkpt lat="40.219333" lon="-4.932700">
        <ele>1700.0</ele>
        <time>2015-06-07T12:57:30Z</time>
      </trkpt>
      <trkpt lat="40.219167" lon="-4.932900">
        <ele>1702.0</ele>
        <time>2015-06-07T12:57:32Z</time>
      </trkpt>
      <trkpt lat="40.219050" lon="-4.933150">
        <ele>1708.0</ele>
        <time>2015-06-07T12:57:34Z</time>
      </trkpt>
      <trkpt lat="40.218983" lon="-4.933467">
        <ele>1714.0</ele>
        <time>2015-06-07T12:57:36Z</time>
      </trkpt>
      <trkpt lat="40.219000" lon="-4.933783">
        <ele>1722.0</ele>
        <time>2015-06-07T12:57:38Z</time>
      </trkpt>
      <trkpt lat="40.219067" lon="-4.934050">
        <ele>1728.0</ele>
        <time>2015-06-07T12:57:40Z</time>
      </trkpt>
      <trkpt lat="40.219183" lon="-4.934267">
        <ele>1733.0</ele>
        <time>2015-06-07T12:57:42Z</time>
      </trkpt>
      <trkpt lat="40.219367" lon="-4.934317">
        <ele>1736.0</ele>
        <time>2015-06-07T12:57:44Z</time>
      </trkpt>
      <trkpt lat="40.219517" lon="-4.934233">
        <ele>1740.0</ele>
        <time>2015-06-07T12:57:46Z</time>
      </trkpt>
      <trkpt lat="40.219550" lon="-4.934133">
        <ele>1744.0</ele>
        <time>2015-06-07T12:57:48Z</time>
      </trkpt>
      <trkpt lat="40.219550" lon="-4.934033">
        <ele>1748.0</ele>
        <time>2015-06-07T12:57:50Z</time>
      </trkpt>
      <trkpt lat="40.219517" lon="-4.933933">
        <ele>1752.0</ele>
        <time>2015-06-07T12:57:52Z</time>
      </trkpt>
      <trkpt lat="40.219433" lon="-4.933883">
        <ele>1755.0</ele>
        <time>2015-06-07T12:57:54Z</time>
      </trkpt>
      <trkpt lat="40.219283" lon="-4.933867">
        <ele>1758.0</ele>
        <time>2015-06-07T12:57:56Z</time>
      </trkpt>
      <trkpt lat="40.219117" lon="-4.933983">
        <ele>1763.0</ele>
        <time>2015-06-07T12:57:58Z</time>
      </trkpt>
      <trkpt lat="40.218950" lon="-4.934183">
        <ele>1769.0</ele>
        <time>2015-06-07T12:58:00Z</time>
      </trkpt>
      <trkpt lat="40.218850" lon="-4.934433">
        <ele>1774.0</ele>
        <time>2015-06-07T12:58:02Z</time>
      </trkpt>
      <trkpt lat="40.218850" lon="-4.934733">
        <ele>1777.0</ele>
        <time>2015-06-07T12:58:04Z</time>
      </trkpt>
      <trkpt lat="40.218983" lon="-4.934967">
        <ele>1780.0</ele>
        <time>2015-06-07T12:58:06Z</time>
      </trkpt>
      <trkpt lat="40.219133" lon="-4.935050">
        <ele>1788.0</ele>
        <time>2015-06-07T12:58:08Z</time>
      </trkpt>
      <trkpt lat="40.219267" lon="-4.935017">
        <ele>1792.0</ele>
        <time>2015-06-07T12:58:10Z</time>
      </trkpt>
      <trkpt lat="40.219383" lon="-4.934917">
        <ele>1794.0</ele>
        <time>2015-06-07T12:58:12Z</time>
      </trkpt>
      <trkpt lat="40.219433" lon="-4.934767">
        <ele>1796.0</ele>
        <time>2015-06-07T12:58:14Z</time>
      </trkpt>
      <trkpt lat="40.219383" lon="-4.934617">
        <ele>1804.0</ele>
        <time>2015-06-07T12:58:16Z</time>
      </trkpt>
      <trkpt lat="40.219383" lon="-4.934567">
        <ele>1814.0</ele>
        <time>2015-06-07T12:58:18Z</time>
      </trkpt>
      <trkpt lat="40.219350" lon="-4.934517">
        <ele>1818.0</ele>
        <time>2015-06-07T12:58:20Z</time>
      </trkpt>
      <trkpt lat="40.219217" lon="-4.934467">
        <ele>1821.0</ele>
        <time>2015-06-07T12:58:22Z</time>
      </trkpt>
      <trkpt lat="40.219017" lon="-4.934467">
        <ele>1825.0</ele>
        <time>2015-06-07T12:58:24Z</time>
      </trkpt>
      <trkpt lat="40.218817" lon="-4.934533">
        <ele>1835.0</ele>
        <time>2015-06-07T12:58:26Z</time>
      </trkpt>
      <trkpt lat="40.218667" lon="-4.934667">
        <ele>1844.0</ele>
        <time>2015-06-07T12:58:28Z</time>
      </trkpt>
      <trkpt lat="40.218517" lon="-4.934833">
        <ele>1848.0</ele>
        <time>2015-06-07T12:58:30Z</time>
      </trkpt>
      <trkpt lat="40.218367" lon="-4.935067">
        <ele>1852.0</ele>
        <time>2015-06-07T12:58:32Z</time>
      </trkpt>
      <trkpt lat="40.218367" lon="-4.935367">
        <ele>1852.0</ele>
        <time>2015-06-07T12:58:34Z</time>
      </trkpt>
      <trkpt lat="40.218483" lon="-4.935583">
        <ele>1858.0</ele>
        <time>2015-06-07T12:58:36Z</time>
      </trkpt>
      <trkpt lat="40.218600" lon="-4.935683">
        <ele>1865.0</ele>
        <time>2015-06-07T12:58:38Z</time>
      </trkpt>
      <trkpt lat="40.218750" lon="-4.935667">
        <ele>1868.0</ele>
        <time>2015-06-07T12:58:40Z</time>
      </trkpt>
      <trkpt lat="40.218850" lon="-4.935533">
        <ele>1873.0</ele>
        <time>2015-06-07T12:58:42Z</time>
      </trkpt>
      <trkpt lat="40.218850" lon="-4.935367">
        <ele>1879.0</ele>
        <time>2015-06-07T12:58:44Z</time>
      </trkpt>
      <trkpt lat="40.218783" lon="-4.935233">
        <ele>1884.0</ele>
        <time>2015-06-07T12:58:46Z</time>
      </trkpt>
      <trkpt lat="40.218650" lon="-4.935117">
        <ele>1887.0</ele>
        <time>2015-06-07T12:58:48Z</time>
      </trkpt>
      <trkpt lat="40.218450" lon="-4.935167">
        <ele>1890.0</ele>
        <time>2015-06-07T12:58:50Z</time>
      </trkpt>
      <trkpt lat="40.218283" lon="-4.935317">
        <ele>1892.0</ele>
        <time>2015-06-07T12:58:52Z</time>
      </trkpt>
      <trkpt lat="40.218133" lon="-4.935550">
        <ele>1894.0</ele>
        <time>2015-06-07T12:58:54Z</time>
      </trkpt>
      <trkpt lat="40.218067" lon="-4.935867">
        <ele>1896.0</ele>
        <time>2015-06-07T12:58:56Z</time>
      </trkpt>
      <trkpt lat="40.218067" lon="-4.936133">
        <ele>1901.0</ele>
        <time>2015-06-07T12:58:58Z</time>
      </trkpt>
      <trkpt lat="40.218117" lon="-4.936383">
        <ele>1903.0</ele>
        <time>2015-06-07T12:59:00Z</time>
      </trkpt>
      <trkpt lat="40.218250" lon="-4.936650">
        <ele>1906.0</ele>
        <time>2015-06-07T12:59:02Z</time>
      </trkpt>
      <trkpt lat="40.218417" lon="-4.936833">
        <ele>1916.0</ele>
        <time>2015-06-07T12:59:04Z</time>
      </trkpt>
      <trkpt lat="40.218533" lon="-4.936933">
        <ele>1924.0</ele>
        <time>2015-06-07T12:59:06Z</time>
      </trkpt>
      <trkpt lat="40.218683" lon="-4.936967">
        <ele>1928.0</ele>
        <time>2015-06-07T12:59:08Z</time>
      </trkpt>
      <trkpt lat="40.218817" lon="-4.936883">
        <ele>1933.0</ele>
        <time>2015-06-07T12:59:10Z</time>
      </trkpt>
      <trkpt lat="40.218850" lon="-4.936733">
        <ele>1937.0</ele>
        <time>2015-06-07T12:59:12Z</time>
      </trkpt>
      <trkpt lat="40.218800" lon="-4.936600">
        <ele>1945.0</ele>
        <time>2015-06-07T12:59:14Z</time>
      </trkpt>
      <trkpt lat="40.218717" lon="-4.936533">
        <ele>1952.0</ele>
        <time>2015-06-07T12:59:16Z</time>
      </trkpt>
      <trkpt lat="40.218567" lon="-4.936500">
        <ele>1957.0</ele>
        <time>2015-06-07T12:59:18Z</time>
      </trkpt>
      <trkpt lat="40.218383" lon="-4.936550">
        <ele>1961.0</ele>
        <time>2015-06-07T12:59:20Z</time>
      </trkpt>
      <trkpt lat="40.218200" lon="-4.936733">
        <ele>1965.0</ele>
        <time>2015-06-07T12:59:22Z</time>
      </trkpt>
      <trkpt lat="40.218100" lon="-4.937033">
        <ele>1967.0</ele>
        <time>2015-06-07T12:59:24Z</time>
      </trkpt>
      <trkpt lat="40.218050" lon="-4.937367">
        <ele>1972.0</ele>
        <time>2015-06-07T12:59:26Z</time>
      </trkpt>
      <trkpt lat="40.218100" lon="-4.937667">
        <ele>1977.0</ele>
        <time>2015-06-07T12:59:28Z</time>
      </trkpt>
      <trkpt lat="40.218233" lon="-4.937883">
        <ele>1984.0</ele>
        <time>2015-06-07T12:59:30Z</time>
      </trkpt>
      <trkpt lat="40.218383" lon="-4.937983">
        <ele>1990.0</ele>
        <time>2015-06-07T12:59:32Z</time>
      </trkpt>
      <trkpt lat="40.218517" lon="-4.937950">
        <ele>1996.0</ele>
        <time>2015-06-07T12:59:34Z</time>
      </trkpt>
      <trkpt lat="40.218600" lon="-4.937817">
        <ele>2002.0</ele>
        <time>2015-06-07T12:59:36Z</time>
      </trkpt>
      <trkpt lat="40.218583" lon="-4.937633">
        <ele>2008.0</ele>
        <time>2015-06-07T12:59:38Z</time>
      </trkpt>
      <trkpt lat="40.218467" lon="-4.937500">
        <ele>2015.0</ele>
        <time>2015-06-07T12:59:40Z</time>
      </trkpt>
      <trkpt lat="40.218283" lon="-4.937483">
        <ele>2023.0</ele>
        <time>2015-06-07T12:59:42Z</time>
      </trkpt>
      <trkpt lat="40.218100" lon="-4.937583">
        <ele>2030.0</ele>
        <time>2015-06-07T12:59:44Z</time>
      </trkpt>
      <trkpt lat="40.217933" lon="-4.937783">
        <ele>2032.0</ele>
        <time>2015-06-07T12:59:46Z</time>
      </trkpt>
      <trkpt lat="40.217833" lon="-4.938067">
        <ele>2033.0</ele>
        <time>2015-06-07T12:59:48Z</time>
      </trkpt>
      <trkpt lat="40.217833" lon="-4.938433">
        <ele>2036.0</ele>
        <time>2015-06-07T12:59:50Z</time>
      </trkpt>
      <trkpt lat="40.217917" lon="-4.938733">
        <ele>2042.0</ele>
        <time>2015-06-07T12:59:52Z</time>
      </trkpt>
      <trkpt lat="40.218067" lon="-4.938950">
        <ele>2046.0</ele>
        <time>2015-06-07T12:59:54Z</time>
      </trkpt>
      <trkpt lat="40.218250" lon="-4.939033">
        <ele>2050.0</ele>
        <time>2015-06-07T12:59:56Z</time>
      </trkpt>
      <trkpt lat="40.218417" lon="-4.939000">
        <ele>2057.0</ele>
        <time>2015-06-07T12:59:58Z</time>
      </trkpt>
      <trkpt lat="40.218517" lon="-4.938917">
        <ele>2066.0</ele>
        <time>2015-06-07T13:00:00Z</time>
      </trkpt>
      <trkpt lat="40.218517" lon="-4.938750">
        <ele>2073.0</ele>
        <time>2015-06-07T13:00:02Z</time>
      </trkpt>
      <trkpt lat="40.218417" lon="-4.938600">
        <ele>2081.0</ele>
        <time>2015-06-07T13:00:04Z</time>
      </trkpt>
      <trkpt lat="40.218283" lon="-4.938533">
        <ele>2088.0</ele>
        <time>2015-06-07T13:00:06Z</time>
      </trkpt>
      <trkpt lat="40.218083" lon="-4.938517">
        <ele>2094.0</ele>
        <time>2015-06-07T13:00:08Z</time>
      </trkpt>
      <trkpt lat="40.217883" lon="-4.938683">
        <ele>2098.0</ele>
        <time>2015-06-07T13:00:10Z</time>
      </trkpt>
      <trkpt lat="40.217750" lon="-4.938950">
        <ele>2102.0</ele>
        <time>2015-06-07T13:00:12Z</time>
      </trkpt>
      <trkpt lat="40.217700" lon="-4.939250">
        <ele>2105.0</ele>
        <time>2015-06-07T13:00:14Z</time>
      </trkpt>
      <trkpt lat="40.217750" lon="-4.939583">
        <ele>2107.0</ele>
        <time>2015-06-07T13:00:16Z</time>
      </trkpt>
      <trkpt lat="40.217900" lon="-4.939833">
        <ele>2114.0</ele>
        <time>2015-06-07T13:00:18Z</time>
      </trkpt>
      <trkpt lat="40.218067" lon="-4.939950">
        <ele>2124.0</ele>
        <time>2015-06-07T13:00:20Z</time>
      </trkpt>
      <trkpt lat="40.218217" lon="-4.940000">
        <ele>2131.0</ele>
        <time>2015-06-07T13:00:22Z</time>
      </trkpt>
      <trkpt lat="40.218367" lon="-4.939983">
        <ele>2140.0</ele>
        <time>2015-06-07T13:00:24Z</time>
      </trkpt>
      <trkpt lat="40.218450" lon="-4.939850">
        <ele>2149.0</ele>
        <time>2015-06-07T13:00:26Z</time>
      </trkpt>
      <trkpt lat="40.218433" lon="-4.939700">
        <ele>2157.0</ele>
        <time>2015-06-07T13:00:28Z</time>
      </trkpt>
      <trkpt lat="40.218333" lon="-4.939600">
        <ele>2164.0</ele>
        <time>2015-06-07T13:00:30Z</time>
      </trkpt>
      <trkpt lat="40.218167" lon="-4.939567">
        <ele>2170.0</ele>
        <time>2015-06-07T13:00:32Z</time>
      </trkpt>
      <trkpt lat="40.217967" lon="-4.939683">
        <ele>2176.0</ele>
        <time>2015-06-07T13:00:34Z</time>
      </trkpt>
      <trkpt lat="40.217817" lon="-4.939933">
        <ele>2181.0</ele>
        <time>2015-06-07T13:00:36Z</time>
      </trkpt>
      <trkpt lat="40.217750" lon="-4.940250">
        <ele>2188.0</ele>
        <time>2015-06-07T13:00:38Z</time>
      </trkpt>
      <trkpt lat="40.217783" lon="-4.940533">
        <ele>2196.0</ele>
        <time>2015-06-07T13:00:40Z</time>
      </trkpt>
      <trkpt lat="40.217883" lon="-4.940767">
        <ele>2202.0</ele>
        <time>2015-06-07T13:00:42Z</time>
      </trkpt>
      <trkpt lat="40.218017" lon="-4.940933">
        <ele>2208.0</ele>
        <time>2015-06-07T13:00:44Z</time>
      </trkpt>
      <trkpt lat="40.218183" lon="-4.940983">
        <ele>2215.0</ele>
        <time>2015-06-07T13:00:46Z</time>
      </trkpt>
      <trkpt lat="40.218300" lon="-4.940900">
        <ele>2222.0</ele>
        <time>2015-06-07T13:00:48Z</time>
      </trkpt>
      <trkpt lat="40.218350" lon="-4.940733">
        <ele>2229.0</ele>
        <time>2015-06-07T13:00:50Z</time>
      </trkpt>
      <trkpt lat="40.218300" lon="-4.940617">
        <ele>2238.0</ele>
        <time>2015-06-07T13:00:52Z</time>
      </trkpt>
      <trkpt lat="40.218217" lon="-4.940500">
        <ele>2245.0</ele>
        <time>2015-06-07T13:00:54Z</time>
      </trkpt>
      <trkpt lat="40.218033" lon="-4.940450">
        <ele>2252.0</ele>
        <time>2015-06-07T13:00:56Z</time>
      </trkpt>
      <trkpt lat="40.217850" lon="-4.940500">
        <ele>2260.0</ele>
        <time>2015-06-07T13:00:58Z</time>
      </trkpt>
      <trkpt lat="40.217683" lon="-4.940667">
        <ele>2266.0</ele>
        <time>2015-06-07T13:01:00Z</time>
      </trkpt>
      <trkpt lat="40.217517" lon="-4.940933">
        <ele>2271.0</ele>
        <time>2015-06-07T13:01:02Z</time>
      </trkpt>
      <trkpt lat="40.217483" lon="-4.941283">
        <ele>2276.0</ele>
        <time>2015-06-07T13:01:04Z</time>
      </trkpt>
      <trkpt lat="40.217600" lon="-4.941550">
        <ele>2279.0</ele>
        <time>2015-06-07T13:01:06Z</time>
      </trkpt>
      <trkpt lat="40.217733" lon="-4.941717">
        <ele>2284.0</ele>
        <time>2015-06-07T13:01:08Z</time>
      </trkpt>
      <trkpt lat="40.217867" lon="-4.941800">
        <ele>2288.0</ele>
        <time>2015-06-07T13:01:10Z</time>
      </trkpt>
      <trkpt lat="40.218017" lon="-4.941750">
        <ele>2292.0</ele>
        <time>2015-06-07T13:01:12Z</time>
      </trkpt>
      <trkpt lat="40.218117" lon="-4.941617">
        <ele>2303.0</ele>
        <time>2015-06-07T13:01:14Z</time>
      </trkpt>
      <trkpt lat="40.218083" lon="-4.941500">
        <ele>2312.0</ele>
        <time>2015-06-07T13:01:16Z</time>
      </trkpt>
      <trkpt lat="40.218017" lon="-4.941350">
        <ele>2320.0</ele>
        <time>2015-06-07T13:01:18Z</time>
      </trkpt>
      <trkpt lat="40.217883" lon="-4.941283">
        <ele>2327.0</ele>
        <time>2015-06-07T13:01:20Z</time>
      </trkpt>
      <trkpt lat="40.217700" lon="-4.941317">
        <ele>2331.0</ele>
        <time>2015-06-07T13:01:22Z</time>
      </trkpt>
      <trkpt lat="40.217517" lon="-4.941500">
        <ele>2335.0</ele>
        <time>2015-06-07T13:01:24Z</time>
      </trkpt>
      <trkpt lat="40.217400" lon="-4.941800">
        <ele>2340.0</ele>
        <time>2015-06-07T13:01:26Z</time>
      </trkpt>
      <trkpt lat="40.217383" lon="-4.942117">
        <ele>2344.0</ele>
        <time>2015-06-07T13:01:28Z</time>
      </trkpt>
      <trkpt lat="40.217500" lon="-4.942383">
        <ele>2346.0</ele>
        <time>2015-06-07T13:01:30Z</time>
      </trkpt>
      <trkpt lat="40.217667" lon="-4.942533">
        <ele>2350.0</ele>
        <time>2015-06-07T13:01:32Z</time>
      </trkpt>
      <trkpt lat="40.217817" lon="-4.942583">
        <ele>2354.0</ele>
        <time>2015-06-07T13:01:34Z</time>
      </trkpt>
      <trkpt lat="40.217967" lon="-4.942533">
        <ele>2357.0</ele>
        <time>2015-06-07T13:01:36Z</time>
      </trkpt>
      <trkpt lat="40.218067" lon="-4.942383">
        <ele>2363.0</ele>
        <time>2015-06-07T13:01:38Z</time>
      </trkpt>
      <trkpt lat="40.218067" lon="-4.942233">
        <ele>2371.0</ele>
        <time>2015-06-07T13:01:40Z</time>
      </trkpt>
      <trkpt lat="40.218000" lon="-4.942100">
        <ele>2377.0</ele>
        <time>2015-06-07T13:01:42Z</time>
      </trkpt>
      <trkpt lat="40.217833" lon="-4.942033">
        <ele>2383.0</ele>
        <time>2015-06-07T13:01:44Z</time>
      </trkpt>
      <trkpt lat="40.217650" lon="-4.942100">
        <ele>2391.0</ele>
        <time>2015-06-07T13:01:46Z</time>
      </trkpt>
      <trkpt lat="40.217500" lon="-4.942250">
        <ele>2400.0</ele>
        <time>2015-06-07T13:01:48Z</time>
      </trkpt>
      <trkpt lat="40.217417" lon="-4.942483">
        <ele>2404.0</ele>
        <time>2015-06-07T13:01:50Z</time>
      </trkpt>
      <trkpt lat="40.217383" lon="-4.942767">
        <ele>2407.0</ele>
        <time>2015-06-07T13:01:52Z</time>
      </trkpt>
      <trkpt lat="40.217467" lon="-4.943050">
        <ele>2411.0</ele>
        <time>2015-06-07T13:01:54Z</time>
      </trkpt>
      <trkpt lat="40.217617" lon="-4.943217">
        <ele>2413.0</ele>
        <time>2015-06-07T13:01:56Z</time>
      </trkpt>
      <trkpt lat="40.217800" lon="-4.943317">
        <ele>2417.0</ele>
        <time>2015-06-07T13:01:58Z</time>
      </trkpt>
      <trkpt lat="40.217983" lon="-4.943317">
        <ele>2421.0</ele>
        <time>2015-06-07T13:02:00Z</time>
      </trkpt>
      <trkpt lat="40.218133" lon="-4.943183">
        <ele>2426.0</ele>
        <time>2015-06-07T13:02:02Z</time>
      </trkpt>
      <trkpt lat="40.218183" lon="-4.943000">
        <ele>2434.0</ele>
        <time>2015-06-07T13:02:04Z</time>
      </trkpt>
      <trkpt lat="40.218133" lon="-4.942850">
        <ele>2443.0</ele>
        <time>2015-06-07T13:02:06Z</time>
      </trkpt>
      <trkpt lat="40.218033" lon="-4.942767">
        <ele>2451.0</ele>
        <time>2015-06-07T13:02:08Z</time>
      </trkpt>
      <trkpt lat="40.217900" lon="-4.942800">
        <ele>2454.0</ele>
        <time>2015-06-07T13:02:10Z</time>
      </trkpt>
      <trkpt lat="40.217717" lon="-4.942950">
        <ele>2456.0</ele>
        <time>2015-06-07T13:02:12Z</time>
      </trkpt>
      <trkpt lat="40.217583" lon="-4.943183">
        <ele>2465.0</ele>
        <time>2015-06-07T13:02:14Z</time>
      </trkpt>
      <trkpt lat="40.217500" lon="-4.943383">
        <ele>2473.0</ele>
        <time>2015-06-07T13:02:16Z</time>
      </trkpt>
      <trkpt lat="40.217500" lon="-4.943650">
        <ele>2475.0</ele>
        <time>2015-06-07T13:02:18Z</time>
      </trkpt>
      <trkpt lat="40.217600" lon="-4.943917">
        <ele>2475.0</ele>
        <time>2015-06-07T13:02:20Z</time>
      </trkpt>
      <trkpt lat="40.217783" lon="-4.944083">
        <ele>2478.0</ele>
        <time>2015-06-07T13:02:22Z</time>
      </trkpt>
      <trkpt lat="40.217967" lon="-4.944117">
        <ele>2482.0</ele>
        <time>2015-06-07T13:02:24Z</time>
      </trkpt>
      <trkpt lat="40.218133" lon="-4.944017">
        <ele>2487.0</ele>
        <time>2015-06-07T13:02:26Z</time>
      </trkpt>
      <trkpt lat="40.218233" lon="-4.943883">
        <ele>2493.0</ele>
        <time>2015-06-07T13:02:28Z</time>
      </trkpt>
      <trkpt lat="40.218250" lon="-4.943717">
        <ele>2499.0</ele>
        <time>2015-06-07T13:02:30Z</time>
      </trkpt>
      <trkpt lat="40.218167" lon="-4.943567">
        <ele>2503.0</ele>
        <time>2015-06-07T13:02:32Z</time>
      </trkpt>
      <trkpt lat="40.218033" lon="-4.943467">
        <ele>2509.0</ele>
        <time>2015-06-07T13:02:34Z</time>
      </trkpt>
      <trkpt lat="40.217883" lon="-4.943467">
        <ele>2515.0</ele>
        <time>2015-06-07T13:02:36Z</time>
      </trkpt>
      <trkpt lat="40.217717" lon="-4.943567">
        <ele>2517.0</ele>
        <time>2015-06-07T13:02:38Z</time>
      </trkpt>
      <trkpt lat="40.217567" lon="-4.943783">
        <ele>2519.0</ele>
        <time>2015-06-07T13:02:40Z</time>
      </trkpt>
      <trkpt lat="40.217467" lon="-4.944017">
        <ele>2526.0</ele>
        <time>2015-06-07T13:02:42Z</time>
      </trkpt>
      <trkpt lat="40.217433" lon="-4.944250">
        <ele>2529.0</ele>
        <time>2015-06-07T13:02:44Z</time>
      </trkpt>
      <trkpt lat="40.217467" lon="-4.944517">
        <ele>2530.0</ele>
        <time>2015-06-07T13:02:46Z</time>
      </trkpt>
      <trkpt lat="40.217600" lon="-4.944750">
        <ele>2533.0</ele>
        <time>2015-06-07T13:02:48Z</time>
      </trkpt>
      <trkpt lat="40.217767" lon="-4.944883">
        <ele>2538.0</ele>
        <time>2015-06-07T13:02:50Z</time>
      </trkpt>
      <trkpt lat="40.217933" lon="-4.944900">
        <ele>2542.0</ele>
        <time>2015-06-07T13:02:52Z</time>
      </trkpt>
      <trkpt lat="40.218083" lon="-4.944783">
        <ele>2545.0</ele>
        <time>2015-06-07T13:02:54Z</time>
      </trkpt>
      <trkpt lat="40.218150" lon="-4.944583">
        <ele>2550.0</ele>
        <time>2015-06-07T13:02:56Z</time>
      </trkpt>
      <trkpt lat="40.218100" lon="-4.944433">
        <ele>2555.0</ele>
        <time>2015-06-07T13:02:58Z</time>
      </trkpt>
      <trkpt lat="40.218017" lon="-4.944317">
        <ele>2559.0</ele>
        <time>2015-06-07T13:03:00Z</time>
      </trkpt>
      <trkpt lat="40.217867" lon="-4.944250">
        <ele>2561.0</ele>
        <time>2015-06-07T13:03:02Z</time>
      </trkpt>
      <trkpt lat="40.217667" lon="-4.944267">
        <ele>2563.0</ele>
        <time>2015-06-07T13:03:04Z</time>
      </trkpt>
      <trkpt lat="40.217500" lon="-4.944417">
        <ele>2567.0</ele>
        <time>2015-06-07T13:03:06Z</time>
      </trkpt>
      <trkpt lat="40.217367" lon="-4.944583">
        <ele>2570.0</ele>
        <time>2015-06-07T13:03:08Z</time>
      </trkpt>
      <trkpt lat="40.217283" lon="-4.944817">
        <ele>2570.0</ele>
        <time>2015-06-07T13:03:10Z</time>
      </trkpt>
      <trkpt lat="40.217283" lon="-4.945083">
        <ele>2569.0</ele>
        <time>2015-06-07T13:03:12Z</time>
      </trkpt>
      <trkpt lat="40.217383" lon="-4.945350">
        <ele>2571.0</ele>
        <time>2015-06-07T13:03:14Z</time>
      </trkpt>
      <trkpt lat="40.217550" lon="-4.945567">
        <ele>2573.0</ele>
        <time>2015-06-07T13:03:16Z</time>
      </trkpt>
      <trkpt lat="40.217683" lon="-4.945800">
        <ele>2577.0</ele>
        <time>2015-06-07T13:03:18Z</time>
      </trkpt>
      <trkpt lat="40.217733" lon="-4.946067">
        <ele>2582.0</ele>
        <time>2015-06-07T13:03:20Z</time>
      </trkpt>
      <trkpt lat="40.217700" lon="-4.946317">
        <ele>2586.0</ele>
        <time>2015-06-07T13:03:22Z</time>
      </trkpt>
      <trkpt lat="40.217650" lon="-4.946567">
        <ele>2589.0</ele>
        <time>2015-06-07T13:03:24Z</time>
      </trkpt>
      <trkpt lat="40.217550" lon="-4.946800">
        <ele>2592.0</ele>
        <time>2015-06-07T13:03:26Z</time>
      </trkpt>
      <trkpt lat="40.217100" lon="-4.947083">
        <ele>2599.0</ele>
        <time>2015-06-07T13:03:32Z</time>
      </trkpt>
      <trkpt lat="40.216917" lon="-4.947033">
        <ele>2603.0</ele>
        <time>2015-06-07T13:03:34Z</time>
      </trkpt>
      <trkpt lat="40.216783" lon="-4.946950">
        <ele>2605.0</ele>
        <time>2015-06-07T13:03:36Z</time>
      </trkpt>
      <trkpt lat="40.216733" lon="-4.946783">
        <ele>2608.0</ele>
        <time>2015-06-07T13:03:38Z</time>
      </trkpt>
      <trkpt lat="40.216783" lon="-4.946650">
        <ele>2613.0</ele>
        <time>2015-06-07T13:03:40Z</time>
      </trkpt>
      <trkpt lat="40.216883" lon="-4.946533">
        <ele>2614.0</ele>
        <time>2015-06-07T13:03:42Z</time>
      </trkpt>
      <trkpt lat="40.217050" lon="-4.946450">
        <ele>2612.0</ele>
        <time>2015-06-07T13:03:44Z</time>
      </trkpt>
      <trkpt lat="40.217267" lon="-4.946483">
        <ele>2613.0</ele>
        <time>2015-06-07T13:03:46Z</time>
      </trkpt>
      <trkpt lat="40.217433" lon="-4.946667">
        <ele>2616.0</ele>
        <time>2015-06-07T13:03:48Z</time>
      </trkpt>
      <trkpt lat="40.217517" lon="-4.946917">
        <ele>2617.0</ele>
        <time>2015-06-07T13:03:50Z</time>
      </trkpt>
      <trkpt lat="40.217567" lon="-4.947183">
        <ele>2618.0</ele>
        <time>2015-06-07T13:03:52Z</time>
      </trkpt>
      <trkpt lat="40.217517" lon="-4.947467">
        <ele>2619.0</ele>
        <time>2015-06-07T13:03:54Z</time>
      </trkpt>
      <trkpt lat="40.217400" lon="-4.947667">
        <ele>2623.0</ele>
        <time>2015-06-07T13:03:56Z</time>
      </trkpt>
      <trkpt lat="40.217300" lon="-4.947867">
        <ele>2626.0</ele>
        <time>2015-06-07T13:03:58Z</time>
      </trkpt>
      <trkpt lat="40.217167" lon="-4.948067">
        <ele>2626.0</ele>
        <time>2015-06-07T13:04:00Z</time>
      </trkpt>
      <trkpt lat="40.217000" lon="-4.948267">
        <ele>2628.0</ele>
        <time>2015-06-07T13:04:02Z</time>
      </trkpt>
      <trkpt lat="40.216867" lon="-4.948483">
        <ele>2630.0</ele>
        <time>2015-06-07T13:04:04Z</time>
      </trkpt>
      <trkpt lat="40.216700" lon="-4.948717">
        <ele>2634.0</ele>
        <time>2015-06-07T13:04:06Z</time>
      </trkpt>
      <trkpt lat="40.216567" lon="-4.948967">
        <ele>2642.0</ele>
        <time>2015-06-07T13:04:08Z</time>
      </trkpt>
      <trkpt lat="40.216517" lon="-4.949267">
        <ele>2650.0</ele>
        <time>2015-06-07T13:04:10Z</time>
      </trkpt>
      <trkpt lat="40.216567" lon="-4.949517">
        <ele>2657.0</ele>
        <time>2015-06-07T13:04:12Z</time>
      </trkpt>
      <trkpt lat="40.216717" lon="-4.949733">
        <ele>2661.0</ele>
        <time>2015-06-07T13:04:14Z</time>
      </trkpt>
      <trkpt lat="40.216900" lon="-4.949800">
        <ele>2665.0</ele>
        <time>2015-06-07T13:04:16Z</time>
      </trkpt>
      <trkpt lat="40.217067" lon="-4.949733">
        <ele>2669.0</ele>
        <time>2015-06-07T13:04:18Z</time>
      </trkpt>
      <trkpt lat="40.217150" lon="-4.949550">
        <ele>2674.0</ele>
        <time>2015-06-07T13:04:20Z</time>
      </trkpt>
      <trkpt lat="40.217150" lon="-4.949350">
        <ele>2680.0</ele>
        <time>2015-06-07T13:04:22Z</time>
      </trkpt>
      <trkpt lat="40.217050" lon="-4.949217">
        <ele>2686.0</ele>
        <time>2015-06-07T13:04:24Z</time>
      </trkpt>
      <trkpt lat="40.216900" lon="-4.949167">
        <ele>2691.0</ele>
        <time>2015-06-07T13:04:26Z</time>
      </trkpt>
      <trkpt lat="40.216733" lon="-4.949217">
        <ele>2694.0</ele>
        <time>2015-06-07T13:04:28Z</time>
      </trkpt>
      <trkpt lat="40.216567" lon="-4.949367">
        <ele>2696.0</ele>
        <time>2015-06-07T13:04:30Z</time>
      </trkpt>
      <trkpt lat="40.216400" lon="-4.949600">
        <ele>2703.0</ele>
        <time>2015-06-07T13:04:32Z</time>
      </trkpt>
      <trkpt lat="40.216283" lon="-4.949800">
        <ele>2712.0</ele>
        <time>2015-06-07T13:04:34Z</time>
      </trkpt>
      <trkpt lat="40.216200" lon="-4.950017">
        <ele>2718.0</ele>
        <time>2015-06-07T13:04:36Z</time>
      </trkpt>
      <trkpt lat="40.216233" lon="-4.950267">
        <ele>2719.0</ele>
        <time>2015-06-07T13:04:38Z</time>
      </trkpt>
      <trkpt lat="40.216350" lon="-4.950483">
        <ele>2719.0</ele>
        <time>2015-06-07T13:04:40Z</time>
      </trkpt>
      <trkpt lat="40.216517" lon="-4.950600">
        <ele>2722.0</ele>
        <time>2015-06-07T13:04:42Z</time>
      </trkpt>
      <trkpt lat="40.216683" lon="-4.950583">
        <ele>2725.0</ele>
        <time>2015-06-07T13:04:44Z</time>
      </trkpt>
      <trkpt lat="40.216833" lon="-4.950483">
        <ele>2730.0</ele>
        <time>2015-06-07T13:04:46Z</time>
      </trkpt>
      <trkpt lat="40.216917" lon="-4.950350">
        <ele>2737.0</ele>
        <time>2015-06-07T13:04:48Z</time>
      </trkpt>
      <trkpt lat="40.216933" lon="-4.950200">
        <ele>2741.0</ele>
        <time>2015-06-07T13:04:50Z</time>
      </trkpt>
      <trkpt lat="40.216900" lon="-4.950017">
        <ele>2744.0</ele>
        <time>2015-06-07T13:04:52Z</time>
      </trkpt>
      <trkpt lat="40.216783" lon="-4.949867">
        <ele>2749.0</ele>
        <time>2015-06-07T13:04:54Z</time>
      </trkpt>
      <trkpt lat="40.216633" lon="-4.949833">
        <ele>2753.0</ele>
        <time>2015-06-07T13:04:56Z</time>
      </trkpt>
      <trkpt lat="40.216483" lon="-4.949867">
        <ele>2755.0</ele>
        <time>2015-06-07T13:04:58Z</time>
      </trkpt>
      <trkpt lat="40.216317" lon="-4.949950">
        <ele>2757.0</ele>
        <time>2015-06-07T13:05:00Z</time>
      </trkpt>
      <trkpt lat="40.216167" lon="-4.950117">
        <ele>2763.0</ele>
        <time>2015-06-07T13:05:02Z</time>
      </trkpt>
      <trkpt lat="40.216033" lon="-4.950300">
        <ele>2769.0</ele>
        <time>2015-06-07T13:05:04Z</time>
      </trkpt>
      <trkpt lat="40.215933" lon="-4.950517">
        <ele>2773.0</ele>
        <time>2015-06-07T13:05:06Z</time>
      </trkpt>
      <trkpt lat="40.215983" lon="-4.950783">
        <ele>2774.0</ele>
        <time>2015-06-07T13:05:08Z</time>
      </trkpt>
      <trkpt lat="40.216117" lon="-4.950950">
        <ele>2778.0</ele>
        <time>2015-06-07T13:05:10Z</time>
      </trkpt>
      <trkpt lat="40.216267" lon="-4.950967">
        <ele>2780.0</ele>
        <time>2015-06-07T13:05:12Z</time>
      </trkpt>
      <trkpt lat="40.216417" lon="-4.950867">
        <ele>2782.0</ele>
        <time>2015-06-07T13:05:14Z</time>
      </trkpt>
      <trkpt lat="40.216500" lon="-4.950667">
        <ele>2788.0</ele>
        <time>2015-06-07T13:05:16Z</time>
      </trkpt>
      <trkpt lat="40.216467" lon="-4.950500">
        <ele>2793.0</ele>
        <time>2015-06-07T13:05:18Z</time>
      </trkpt>
      <trkpt lat="40.216400" lon="-4.950383">
        <ele>2795.0</ele>
        <time>2015-06-07T13:05:20Z</time>
      </trkpt>
      <trkpt lat="40.216283" lon="-4.950317">
        <ele>2796.0</ele>
        <time>2015-06-07T13:05:22Z</time>
      </trkpt>
      <trkpt lat="40.216067" lon="-4.950350">
        <ele>2796.0</ele>
        <time>2015-06-07T13:05:24Z</time>
      </trkpt>
      <trkpt lat="40.215867" lon="-4.950433">
        <ele>2803.0</ele>
        <time>2015-06-07T13:05:26Z</time>
      </trkpt>
      <trkpt lat="40.215733" lon="-4.950517">
        <ele>2809.0</ele>
        <time>2015-06-07T13:05:28Z</time>
      </trkpt>
      <trkpt lat="40.215617" lon="-4.950667">
        <ele>2810.0</ele>
        <time>2015-06-07T13:05:30Z</time>
      </trkpt>
      <trkpt lat="40.215517" lon="-4.950900">
        <ele>2811.0</ele>
        <time>2015-06-07T13:05:32Z</time>
      </trkpt>
      <trkpt lat="40.215550" lon="-4.951150">
        <ele>2812.0</ele>
        <time>2015-06-07T13:05:34Z</time>
      </trkpt>
      <trkpt lat="40.215650" lon="-4.951317">
        <ele>2814.0</ele>
        <time>2015-06-07T13:05:36Z</time>
      </trkpt>
      <trkpt lat="40.215817" lon="-4.951433">
        <ele>2814.0</ele>
        <time>2015-06-07T13:05:38Z</time>
      </trkpt>
      <trkpt lat="40.216017" lon="-4.951417">
        <ele>2813.0</ele>
        <time>2015-06-07T13:05:40Z</time>
      </trkpt>
      <trkpt lat="40.216183" lon="-4.951300">
        <ele>2815.0</ele>
        <time>2015-06-07T13:05:42Z</time>
      </trkpt>
      <trkpt lat="40.216233" lon="-4.951117">
        <ele>2817.0</ele>
        <time>2015-06-07T13:05:44Z</time>
      </trkpt>
      <trkpt lat="40.216217" lon="-4.950883">
        <ele>2820.0</ele>
        <time>2015-06-07T13:05:46Z</time>
      </trkpt>
      <trkpt lat="40.216117" lon="-4.950683">
        <ele>2825.0</ele>
        <time>2015-06-07T13:05:48Z</time>
      </trkpt>
      <trkpt lat="40.215983" lon="-4.950533">
        <ele>2830.0</ele>
        <time>2015-06-07T13:05:50Z</time>
      </trkpt>
      <trkpt lat="40.215817" lon="-4.950483">
        <ele>2833.0</ele>
        <time>2015-06-07T13:05:52Z</time>
      </trkpt>
      <trkpt lat="40.215650" lon="-4.950533">
        <ele>2834.0</ele>
        <time>2015-06-07T13:05:54Z</time>
      </trkpt>
      <trkpt lat="40.215467" lon="-4.950650">
        <ele>2835.0</ele>
        <time>2015-06-07T13:05:56Z</time>
      </trkpt>
      <trkpt lat="40.215317" lon="-4.950833">
        <ele>2838.0</ele>
        <time>2015-06-07T13:05:58Z</time>
      </trkpt>
      <trkpt lat="40.215200" lon="-4.951017">
        <ele>2841.0</ele>
        <time>2015-06-07T13:06:00Z</time>
      </trkpt>
      <trkpt lat="40.215083" lon="-4.951183">
        <ele>2841.0</ele>
        <time>2015-06-07T13:06:02Z</time>
      </trkpt>
      <trkpt lat="40.214933" lon="-4.951383">
        <ele>2840.0</ele>
        <time>2015-06-07T13:06:04Z</time>
      </trkpt>
      <trkpt lat="40.214783" lon="-4.951533">
        <ele>2841.0</ele>
        <time>2015-06-07T13:06:06Z</time>
      </trkpt>
      <trkpt lat="40.214633" lon="-4.951667">
        <ele>2841.0</ele>
        <time>2015-06-07T13:06:08Z</time>
      </trkpt>
      <trkpt lat="40.214483" lon="-4.951867">
        <ele>2838.0</ele>
        <time>2015-06-07T13:06:10Z</time>
      </trkpt>
      <trkpt lat="40.214317" lon="-4.952067">
        <ele>2839.0</ele>
        <time>2015-06-07T13:06:12Z</time>
      </trkpt>
      <trkpt lat="40.214167" lon="-4.952250">
        <ele>2840.0</ele>
        <time>2015-06-07T13:06:14Z</time>
      </trkpt>
      <trkpt lat="40.214033" lon="-4.952467">
        <ele>2837.0</ele>
        <time>2015-06-07T13:06:16Z</time>
      </trkpt>
      <trkpt lat="40.213850" lon="-4.952667">
        <ele>2835.0</ele>
        <time>2015-06-07T13:06:18Z</time>
      </trkpt>
      <trkpt lat="40.213650" lon="-4.952850">
        <ele>2836.0</ele>
        <time>2015-06-07T13:06:20Z</time>
      </trkpt>
      <trkpt lat="40.213483" lon="-4.953033">
        <ele>2834.0</ele>
        <time>2015-06-07T13:06:22Z</time>
      </trkpt>
      <trkpt lat="40.213317" lon="-4.953233">
        <ele>2830.0</ele>
        <time>2015-06-07T13:06:24Z</time>
      </trkpt>
      <trkpt lat="40.213133" lon="-4.953467">
        <ele>2826.0</ele>
        <time>2015-06-07T13:06:26Z</time>
      </trkpt>
      <trkpt lat="40.212967" lon="-4.953683">
        <ele>2824.0</ele>
        <time>2015-06-07T13:06:28Z</time>
      </trkpt>
      <trkpt lat="40.212783" lon="-4.953883">
        <ele>2822.0</ele>
        <time>2015-06-07T13:06:30Z</time>
      </trkpt>
      <trkpt lat="40.212600" lon="-4.954083">
        <ele>2818.0</ele>
        <time>2015-06-07T13:06:32Z</time>
      </trkpt>
      <trkpt lat="40.212433" lon="-4.954333">
        <ele>2816.0</ele>
        <time>2015-06-07T13:06:34Z</time>
      </trkpt>
      <trkpt lat="40.212300" lon="-4.954617">
        <ele>2814.0</ele>
        <time>2015-06-07T13:06:36Z</time>
      </trkpt>
      <trkpt lat="40.212183" lon="-4.954900">
        <ele>2812.0</ele>
        <time>2015-06-07T13:06:38Z</time>
      </trkpt>
      <trkpt lat="40.212033" lon="-4.955167">
        <ele>2811.0</ele>
        <time>2015-06-07T13:06:40Z</time>
      </trkpt>
      <trkpt lat="40.211883" lon="-4.955433">
        <ele>2809.0</ele>
        <time>2015-06-07T13:06:42Z</time>
      </trkpt>
      <trkpt lat="40.211733" lon="-4.955700">
        <ele>2806.0</ele>
        <time>2015-06-07T13:06:44Z</time>
      </trkpt>
      <trkpt lat="40.211567" lon="-4.955967">
        <ele>2805.0</ele>
        <time>2015-06-07T13:06:46Z</time>
      </trkpt>
      <trkpt lat="40.211400" lon="-4.956200">
        <ele>2804.0</ele>
        <time>2015-06-07T13:06:48Z</time>
      </trkpt>
      <trkpt lat="40.211267" lon="-4.956417">
        <ele>2802.0</ele>
        <time>2015-06-07T13:06:50Z</time>
      </trkpt>
      <trkpt lat="40.211117" lon="-4.956667">
        <ele>2798.0</ele>
        <time>2015-06-07T13:06:52Z</time>
      </trkpt>
      <trkpt lat="40.211000" lon="-4.956950">
        <ele>2796.0</ele>
        <time>2015-06-07T13:06:54Z</time>
      </trkpt>
      <trkpt lat="40.210917" lon="-4.957217">
        <ele>2795.0</ele>
        <time>2015-06-07T13:06:56Z</time>
      </trkpt>
      <trkpt lat="40.210800" lon="-4.957500">
        <ele>2793.0</ele>
        <time>2015-06-07T13:06:58Z</time>
      </trkpt>
      <trkpt lat="40.210683" lon="-4.957767">
        <ele>2793.0</ele>
        <time>2015-06-07T13:07:00Z</time>
      </trkpt>
      <trkpt lat="40.210567" lon="-4.958033">
        <ele>2792.0</ele>
        <time>2015-06-07T13:07:02Z</time>
      </trkpt>
      <trkpt lat="40.210450" lon="-4.958283">
        <ele>2792.0</ele>
        <time>2015-06-07T13:07:04Z</time>
      </trkpt>
      <trkpt lat="40.210350" lon="-4.958517">
        <ele>2790.0</ele>
        <time>2015-06-07T13:07:06Z</time>
      </trkpt>
      <trkpt lat="40.210267" lon="-4.958767">
        <ele>2785.0</ele>
        <time>2015-06-07T13:07:08Z</time>
      </trkpt>
      <trkpt lat="40.210117" lon="-4.959000">
        <ele>2778.0</ele>
        <time>2015-06-07T13:07:10Z</time>
      </trkpt>
      <trkpt lat="40.209933" lon="-4.959250">
        <ele>2772.0</ele>
        <time>2015-06-07T13:07:12Z</time>
      </trkpt>
      <trkpt lat="40.209783" lon="-4.959483">
        <ele>2771.0</ele>
        <time>2015-06-07T13:07:14Z</time>
      </trkpt>
      <trkpt lat="40.209633" lon="-4.959700">
        <ele>2766.0</ele>
        <time>2015-06-07T13:07:16Z</time>
      </trkpt>
      <trkpt lat="40.209483" lon="-4.959917">
        <ele>2759.0</ele>
        <time>2015-06-07T13:07:18Z</time>
      </trkpt>
      <trkpt lat="40.209333" lon="-4.960133">
        <ele>2754.0</ele>
        <time>2015-06-07T13:07:20Z</time>
      </trkpt>
      <trkpt lat="40.209167" lon="-4.960350">
        <ele>2749.0</ele>
        <time>2015-06-07T13:07:22Z</time>
      </trkpt>
      <trkpt lat="40.209000" lon="-4.960550">
        <ele>2744.0</ele>
        <time>2015-06-07T13:07:24Z</time>
      </trkpt>
      <trkpt lat="40.208833" lon="-4.960750">
        <ele>2737.0</ele>
        <time>2015-06-07T13:07:26Z</time>
      </trkpt>
      <trkpt lat="40.208667" lon="-4.960933">
        <ele>2732.0</ele>
        <time>2015-06-07T13:07:28Z</time>
      </trkpt>
      <trkpt lat="40.208500" lon="-4.961133">
        <ele>2727.0</ele>
        <time>2015-06-07T13:07:30Z</time>
      </trkpt>
      <trkpt lat="40.208317" lon="-4.961350">
        <ele>2721.0</ele>
        <time>2015-06-07T13:07:32Z</time>
      </trkpt>
      <trkpt lat="40.208183" lon="-4.961600">
        <ele>2719.0</ele>
        <time>2015-06-07T13:07:34Z</time>
      </trkpt>
      <trkpt lat="40.208067" lon="-4.961817">
        <ele>2714.0</ele>
        <time>2015-06-07T13:07:36Z</time>
      </trkpt>
      <trkpt lat="40.207933" lon="-4.962050">
        <ele>2706.0</ele>
        <time>2015-06-07T13:07:38Z</time>
      </trkpt>
      <trkpt lat="40.207783" lon="-4.962300">
        <ele>2703.0</ele>
        <time>2015-06-07T13:07:40Z</time>
      </trkpt>
      <trkpt lat="40.207650" lon="-4.962517">
        <ele>2699.0</ele>
        <time>2015-06-07T13:07:42Z</time>
      </trkpt>
      <trkpt lat="40.207500" lon="-4.962733">
        <ele>2694.0</ele>
        <time>2015-06-07T13:07:44Z</time>
      </trkpt>
      <trkpt lat="40.207367" lon="-4.962983">
        <ele>2692.0</ele>
        <time>2015-06-07T13:07:46Z</time>
      </trkpt>
      <trkpt lat="40.207217" lon="-4.963183">
        <ele>2692.0</ele>
        <time>2015-06-07T13:07:48Z</time>
      </trkpt>
      <trkpt lat="40.207067" lon="-4.963350">
        <ele>2690.0</ele>
        <time>2015-06-07T13:07:50Z</time>
      </trkpt>
      <trkpt lat="40.206917" lon="-4.963533">
        <ele>2685.0</ele>
        <time>2015-06-07T13:07:52Z</time>
      </trkpt>
      <trkpt lat="40.206733" lon="-4.963717">
        <ele>2683.0</ele>
        <time>2015-06-07T13:07:54Z</time>
      </trkpt>
      <trkpt lat="40.206583" lon="-4.963867">
        <ele>2681.0</ele>
        <time>2015-06-07T13:07:56Z</time>
      </trkpt>
      <trkpt lat="40.206433" lon="-4.964050">
        <ele>2678.0</ele>
        <time>2015-06-07T13:07:58Z</time>
      </trkpt>
      <trkpt lat="40.206283" lon="-4.964267">
        <ele>2674.0</ele>
        <time>2015-06-07T13:08:00Z</time>
      </trkpt>
      <trkpt lat="40.206117" lon="-4.964467">
        <ele>2674.0</ele>
        <time>2015-06-07T13:08:02Z</time>
      </trkpt>
      <trkpt lat="40.205967" lon="-4.964683">
        <ele>2673.0</ele>
        <time>2015-06-07T13:08:04Z</time>
      </trkpt>
      <trkpt lat="40.205817" lon="-4.964883">
        <ele>2673.0</ele>
        <time>2015-06-07T13:08:06Z</time>
      </trkpt>
      <trkpt lat="40.205667" lon="-4.965050">
        <ele>2674.0</ele>
        <time>2015-06-07T13:08:08Z</time>
      </trkpt>
      <trkpt lat="40.205500" lon="-4.965233">
        <ele>2672.0</ele>
        <time>2015-06-07T13:08:10Z</time>
      </trkpt>
      <trkpt lat="40.205350" lon="-4.965450">
        <ele>2671.0</ele>
        <time>2015-06-07T13:08:12Z</time>
      </trkpt>
      <trkpt lat="40.205200" lon="-4.965650">
        <ele>2672.0</ele>
        <time>2015-06-07T13:08:14Z</time>
      </trkpt>
      <trkpt lat="40.205050" lon="-4.965817">
        <ele>2670.0</ele>
        <time>2015-06-07T13:08:16Z</time>
      </trkpt>
      <trkpt lat="40.204900" lon="-4.966017">
        <ele>2666.0</ele>
        <time>2015-06-07T13:08:18Z</time>
      </trkpt>
      <trkpt lat="40.204750" lon="-4.966200">
        <ele>2663.0</ele>
        <time>2015-06-07T13:08:20Z</time>
      </trkpt>
      <trkpt lat="40.204617" lon="-4.966400">
        <ele>2659.0</ele>
        <time>2015-06-07T13:08:22Z</time>
      </trkpt>
      <trkpt lat="40.204450" lon="-4.966567">
        <ele>2654.0</ele>
        <time>2015-06-07T13:08:24Z</time>
      </trkpt>
      <trkpt lat="40.204267" lon="-4.966733">
        <ele>2650.0</ele>
        <time>2015-06-07T13:08:26Z</time>
      </trkpt>
      <trkpt lat="40.204083" lon="-4.966883">
        <ele>2646.0</ele>
        <time>2015-06-07T13:08:28Z</time>
      </trkpt>
      <trkpt lat="40.203933" lon="-4.967017">
        <ele>2643.0</ele>
        <time>2015-06-07T13:08:30Z</time>
      </trkpt>
      <trkpt lat="40.203800" lon="-4.967167">
        <ele>2636.0</ele>
        <time>2015-06-07T13:08:32Z</time>
      </trkpt>
      <trkpt lat="40.203667" lon="-4.967333">
        <ele>2630.0</ele>
        <time>2015-06-07T13:08:34Z</time>
      </trkpt>
      <trkpt lat="40.203517" lon="-4.967500">
        <ele>2624.0</ele>
        <time>2015-06-07T13:08:36Z</time>
      </trkpt>
      <trkpt lat="40.203400" lon="-4.967650">
        <ele>2620.0</ele>
        <time>2015-06-07T13:08:38Z</time>
      </trkpt>
      <trkpt lat="40.203250" lon="-4.967817">
        <ele>2615.0</ele>
        <time>2015-06-07T13:08:40Z</time>
      </trkpt>
      <trkpt lat="40.203083" lon="-4.967967">
        <ele>2616.0</ele>
        <time>2015-06-07T13:08:42Z</time>
      </trkpt>
      <trkpt lat="40.202917" lon="-4.968083">
        <ele>2617.0</ele>
        <time>2015-06-07T13:08:44Z</time>
      </trkpt>
      <trkpt lat="40.202783" lon="-4.968233">
        <ele>2615.0</ele>
        <time>2015-06-07T13:08:46Z</time>
      </trkpt>
      <trkpt lat="40.202633" lon="-4.968450">
        <ele>2613.0</ele>
        <time>2015-06-07T13:08:48Z</time>
      </trkpt>
      <trkpt lat="40.202517" lon="-4.968650">
        <ele>2612.0</ele>
        <time>2015-06-07T13:08:50Z</time>
      </trkpt>
      <trkpt lat="40.202383" lon="-4.968867">
        <ele>2610.0</ele>
        <time>2015-06-07T13:08:52Z</time>
      </trkpt>
      <trkpt lat="40.202267" lon="-4.969083">
        <ele>2606.0</ele>
        <time>2015-06-07T13:08:54Z</time>
      </trkpt>
      <trkpt lat="40.202133" lon="-4.969317">
        <ele>2600.0</ele>
        <time>2015-06-07T13:08:56Z</time>
      </trkpt>
      <trkpt lat="40.202000" lon="-4.969550">
        <ele>2595.0</ele>
        <time>2015-06-07T13:08:58Z</time>
      </trkpt>
      <trkpt lat="40.201867" lon="-4.969783">
        <ele>2591.0</ele>
        <time>2015-06-07T13:09:00Z</time>
      </trkpt>
      <trkpt lat="40.201750" lon="-4.969983">
        <ele>2587.0</ele>
        <time>2015-06-07T13:09:02Z</time>
      </trkpt>
      <trkpt lat="40.201600" lon="-4.970200">
        <ele>2582.0</ele>
        <time>2015-06-07T13:09:04Z</time>
      </trkpt>
      <trkpt lat="40.201450" lon="-4.970433">
        <ele>2577.0</ele>
        <time>2015-06-07T13:09:06Z</time>
      </trkpt>
      <trkpt lat="40.201300" lon="-4.970583">
        <ele>2575.0</ele>
        <time>2015-06-07T13:09:08Z</time>
      </trkpt>
      <trkpt lat="40.201150" lon="-4.970750">
        <ele>2569.0</ele>
        <time>2015-06-07T13:09:10Z</time>
      </trkpt>
      <trkpt lat="40.201000" lon="-4.970950">
        <ele>2563.0</ele>
        <time>2015-06-07T13:09:12Z</time>
      </trkpt>
      <trkpt lat="40.200850" lon="-4.971167">
        <ele>2560.0</ele>
        <time>2015-06-07T13:09:14Z</time>
      </trkpt>
      <trkpt lat="40.200767" lon="-4.971367">
        <ele>2556.0</ele>
        <time>2015-06-07T13:09:16Z</time>
      </trkpt>
      <trkpt lat="40.200667" lon="-4.971567">
        <ele>2550.0</ele>
        <time>2015-06-07T13:09:18Z</time>
      </trkpt>
      <trkpt lat="40.200567" lon="-4.971800">
        <ele>2544.0</ele>
        <time>2015-06-07T13:09:20Z</time>
      </trkpt>
      <trkpt lat="40.200467" lon="-4.972017">
        <ele>2539.0</ele>
        <time>2015-06-07T13:09:22Z</time>
      </trkpt>
      <trkpt lat="40.200333" lon="-4.972233">
        <ele>2533.0</ele>
        <time>2015-06-07T13:09:24Z</time>
      </trkpt>
      <trkpt lat="40.200200" lon="-4.972450">
        <ele>2526.0</ele>
        <time>2015-06-07T13:09:26Z</time>
      </trkpt>
      <trkpt lat="40.200083" lon="-4.972683">
        <ele>2520.0</ele>
        <time>2015-06-07T13:09:28Z</time>
      </trkpt>
      <trkpt lat="40.199950" lon="-4.972900">
        <ele>2514.0</ele>
        <time>2015-06-07T13:09:30Z</time>
      </trkpt>
      <trkpt lat="40.199817" lon="-4.973100">
        <ele>2507.0</ele>
        <time>2015-06-07T13:09:32Z</time>
      </trkpt>
      <trkpt lat="40.199683" lon="-4.973333">
        <ele>2500.0</ele>
        <time>2015-06-07T13:09:34Z</time>
      </trkpt>
      <trkpt lat="40.199533" lon="-4.973550">
        <ele>2494.0</ele>
        <time>2015-06-07T13:09:36Z</time>
      </trkpt>
      <trkpt lat="40.199400" lon="-4.973750">
        <ele>2489.0</ele>
        <time>2015-06-07T13:09:38Z</time>
      </trkpt>
      <trkpt lat="40.199283" lon="-4.973933">
        <ele>2482.0</ele>
        <time>2015-06-07T13:09:40Z</time>
      </trkpt>
      <trkpt lat="40.199167" lon="-4.974150">
        <ele>2473.0</ele>
        <time>2015-06-07T13:09:42Z</time>
      </trkpt>
      <trkpt lat="40.199033" lon="-4.974367">
        <ele>2466.0</ele>
        <time>2015-06-07T13:09:44Z</time>
      </trkpt>
      <trkpt lat="40.198917" lon="-4.974583">
        <ele>2459.0</ele>
        <time>2015-06-07T13:09:46Z</time>
      </trkpt>
      <trkpt lat="40.198783" lon="-4.974800">
        <ele>2451.0</ele>
        <time>2015-06-07T13:09:48Z</time>
      </trkpt>
      <trkpt lat="40.198633" lon="-4.975000">
        <ele>2448.0</ele>
        <time>2015-06-07T13:09:50Z</time>
      </trkpt>
      <trkpt lat="40.198517" lon="-4.975167">
        <ele>2445.0</ele>
        <time>2015-06-07T13:09:52Z</time>
      </trkpt>
      <trkpt lat="40.198400" lon="-4.975367">
        <ele>2440.0</ele>
        <time>2015-06-07T13:09:54Z</time>
      </trkpt>
      <trkpt lat="40.198267" lon="-4.975583">
        <ele>2436.0</ele>
        <time>2015-06-07T13:09:56Z</time>
      </trkpt>
      <trkpt lat="40.198150" lon="-4.975783">
        <ele>2433.0</ele>
        <time>2015-06-07T13:09:58Z</time>
      </trkpt>
      <trkpt lat="40.198050" lon="-4.975967">
        <ele>2429.0</ele>
        <time>2015-06-07T13:10:00Z</time>
      </trkpt>
      <trkpt lat="40.197950" lon="-4.976183">
        <ele>2425.0</ele>
        <time>2015-06-07T13:10:02Z</time>
      </trkpt>
      <trkpt lat="40.197850" lon="-4.976417">
        <ele>2421.0</ele>
        <time>2015-06-07T13:10:04Z</time>
      </trkpt>
      <trkpt lat="40.197767" lon="-4.976633">
        <ele>2418.0</ele>
        <time>2015-06-07T13:10:06Z</time>
      </trkpt>
      <trkpt lat="40.197683" lon="-4.976850">
        <ele>2413.0</ele>
        <time>2015-06-07T13:10:08Z</time>
      </trkpt>
      <trkpt lat="40.197600" lon="-4.977083">
        <ele>2408.0</ele>
        <time>2015-06-07T13:10:10Z</time>
      </trkpt>
      <trkpt lat="40.197483" lon="-4.977300">
        <ele>2404.0</ele>
        <time>2015-06-07T13:10:12Z</time>
      </trkpt>
      <trkpt lat="40.197383" lon="-4.977500">
        <ele>2402.0</ele>
        <time>2015-06-07T13:10:14Z</time>
      </trkpt>
      <trkpt lat="40.197267" lon="-4.977683">
        <ele>2398.0</ele>
        <time>2015-06-07T13:10:16Z</time>
      </trkpt>
      <trkpt lat="40.197167" lon="-4.977883">
        <ele>2395.0</ele>
        <time>2015-06-07T13:10:18Z</time>
      </trkpt>
      <trkpt lat="40.197050" lon="-4.978067">
        <ele>2394.0</ele>
        <time>2015-06-07T13:10:20Z</time>
      </trkpt>
      <trkpt lat="40.196933" lon="-4.978267">
        <ele>2393.0</ele>
        <time>2015-06-07T13:10:22Z</time>
      </trkpt>
      <trkpt lat="40.196817" lon="-4.978433">
        <ele>2392.0</ele>
        <time>2015-06-07T13:10:24Z</time>
      </trkpt>
      <trkpt lat="40.196667" lon="-4.978600">
        <ele>2391.0</ele>
        <time>2015-06-07T13:10:26Z</time>
      </trkpt>
      <trkpt lat="40.196533" lon="-4.978767">
        <ele>2390.0</ele>
        <time>2015-06-07T13:10:28Z</time>
      </trkpt>
      <trkpt lat="40.196400" lon="-4.978950">
        <ele>2390.0</ele>
        <time>2015-06-07T13:10:30Z</time>
      </trkpt>
      <trkpt lat="40.196250" lon="-4.979117">
        <ele>2388.0</ele>
        <time>2015-06-07T13:10:32Z</time>
      </trkpt>
      <trkpt lat="40.196083" lon="-4.979317">
        <ele>2387.0</ele>
        <time>2015-06-07T13:10:34Z</time>
      </trkpt>
      <trkpt lat="40.195950" lon="-4.979533">
        <ele>2387.0</ele>
        <time>2015-06-07T13:10:36Z</time>
      </trkpt>
      <trkpt lat="40.195800" lon="-4.979750">
        <ele>2385.0</ele>
        <time>2015-06-07T13:10:38Z</time>
      </trkpt>
      <trkpt lat="40.195650" lon="-4.979983">
        <ele>2381.0</ele>
        <time>2015-06-07T13:10:40Z</time>
      </trkpt>
      <trkpt lat="40.195517" lon="-4.980233">
        <ele>2379.0</ele>
        <time>2015-06-07T13:10:42Z</time>
      </trkpt>
      <trkpt lat="40.195383" lon="-4.980500">
        <ele>2378.0</ele>
        <time>2015-06-07T13:10:44Z</time>
      </trkpt>
      <trkpt lat="40.195267" lon="-4.980800">
        <ele>2377.0</ele>
        <time>2015-06-07T13:10:46Z</time>
      </trkpt>
      <trkpt lat="40.195167" lon="-4.981150">
        <ele>2378.0</ele>
        <time>2015-06-07T13:10:48Z</time>
      </trkpt>
      <trkpt lat="40.195050" lon="-4.981433">
        <ele>2382.0</ele>
        <time>2015-06-07T13:10:50Z</time>
      </trkpt>
      <trkpt lat="40.194950" lon="-4.981683">
        <ele>2383.0</ele>
        <time>2015-06-07T13:10:52Z</time>
      </trkpt>
      <trkpt lat="40.194867" lon="-4.981967">
        <ele>2382.0</ele>
        <time>2015-06-07T13:10:54Z</time>
      </trkpt>
      <trkpt lat="40.194800" lon="-4.982233">
        <ele>2382.0</ele>
        <time>2015-06-07T13:10:56Z</time>
      </trkpt>
      <trkpt lat="40.194733" lon="-4.982533">
        <ele>2379.0</ele>
        <time>2015-06-07T13:10:58Z</time>
      </trkpt>
      <trkpt lat="40.194650" lon="-4.982833">
        <ele>2375.0</ele>
        <time>2015-06-07T13:11:00Z</time>
      </trkpt>
      <trkpt lat="40.194533" lon="-4.983133">
        <ele>2374.0</ele>
        <time>2015-06-07T13:11:02Z</time>
      </trkpt>
      <trkpt lat="40.194450" lon="-4.983400">
        <ele>2375.0</ele>
        <time>2015-06-07T13:11:04Z</time>
      </trkpt>
      <trkpt lat="40.194350" lon="-4.983633">
        <ele>2375.0</ele>
        <time>2015-06-07T13:11:06Z</time>
      </trkpt>
      <trkpt lat="40.194217" lon="-4.983817">
        <ele>2374.0</ele>
        <time>2015-06-07T13:11:08Z</time>
      </trkpt>
      <trkpt lat="40.194117" lon="-4.984017">
        <ele>2373.0</ele>
        <time>2015-06-07T13:11:10Z</time>
      </trkpt>
      <trkpt lat="40.194050" lon="-4.984233">
        <ele>2372.0</ele>
        <time>2015-06-07T13:11:12Z</time>
      </trkpt>
      <trkpt lat="40.193950" lon="-4.984450">
        <ele>2370.0</ele>
        <time>2015-06-07T13:11:14Z</time>
      </trkpt>
      <trkpt lat="40.193850" lon="-4.984667">
        <ele>2366.0</ele>
        <time>2015-06-07T13:11:16Z</time>
      </trkpt>
      <trkpt lat="40.193700" lon="-4.984883">
        <ele>2362.0</ele>
        <time>2015-06-07T13:11:18Z</time>
      </trkpt>
      <trkpt lat="40.193550" lon="-4.985100">
        <ele>2362.0</ele>
        <time>2015-06-07T13:11:20Z</time>
      </trkpt>
      <trkpt lat="40.193417" lon="-4.985300">
        <ele>2363.0</ele>
        <time>2015-06-07T13:11:22Z</time>
      </trkpt>
      <trkpt lat="40.193267" lon="-4.985483">
        <ele>2362.0</ele>
        <time>2015-06-07T13:11:24Z</time>
      </trkpt>
      <trkpt lat="40.193133" lon="-4.985700">
        <ele>2360.0</ele>
        <time>2015-06-07T13:11:26Z</time>
      </trkpt>
      <trkpt lat="40.193017" lon="-4.985950">
        <ele>2359.0</ele>
        <time>2015-06-07T13:11:28Z</time>
      </trkpt>
      <trkpt lat="40.192867" lon="-4.986200">
        <ele>2359.0</ele>
        <time>2015-06-07T13:11:30Z</time>
      </trkpt>
      <trkpt lat="40.192733" lon="-4.986433">
        <ele>2359.0</ele>
        <time>2015-06-07T13:11:32Z</time>
      </trkpt>
      <trkpt lat="40.192617" lon="-4.986683">
        <ele>2358.0</ele>
        <time>2015-06-07T13:11:34Z</time>
      </trkpt>
      <trkpt lat="40.192500" lon="-4.986983">
        <ele>2357.0</ele>
        <time>2015-06-07T13:11:36Z</time>
      </trkpt>
      <trkpt lat="40.192383" lon="-4.987300">
        <ele>2358.0</ele>
        <time>2015-06-07T13:11:38Z</time>
      </trkpt>
      <trkpt lat="40.192300" lon="-4.987583">
        <ele>2360.0</ele>
        <time>2015-06-07T13:11:40Z</time>
      </trkpt>
      <trkpt lat="40.192217" lon="-4.987833">
        <ele>2361.0</ele>
        <time>2015-06-07T13:11:42Z</time>
      </trkpt>
      <trkpt lat="40.192167" lon="-4.988100">
        <ele>2357.0</ele>
        <time>2015-06-07T13:11:44Z</time>
      </trkpt>
      <trkpt lat="40.192150" lon="-4.988433">
        <ele>2354.0</ele>
        <time>2015-06-07T13:11:46Z</time>
      </trkpt>
      <trkpt lat="40.192067" lon="-4.988750">
        <ele>2353.0</ele>
        <time>2015-06-07T13:11:48Z</time>
      </trkpt>
      <trkpt lat="40.191983" lon="-4.989017">
        <ele>2352.0</ele>
        <time>2015-06-07T13:11:50Z</time>
      </trkpt>
      <trkpt lat="40.191900" lon="-4.989317">
        <ele>2348.0</ele>
        <time>2015-06-07T13:11:52Z</time>
      </trkpt>
      <trkpt lat="40.191800" lon="-4.989633">
        <ele>2345.0</ele>
        <time>2015-06-07T13:11:54Z</time>
      </trkpt>
      <trkpt lat="40.191683" lon="-4.989917">
        <ele>2344.0</ele>
        <time>2015-06-07T13:11:56Z</time>
      </trkpt>
      <trkpt lat="40.191583" lon="-4.990217">
        <ele>2340.0</ele>
        <time>2015-06-07T13:11:58Z</time>
      </trkpt>
      <trkpt lat="40.191467" lon="-4.990533">
        <ele>2334.0</ele>
        <time>2015-06-07T13:12:00Z</time>
      </trkpt>
      <trkpt lat="40.191350" lon="-4.990850">
        <ele>2330.0</ele>
        <time>2015-06-07T13:12:02Z</time>
      </trkpt>
      <trkpt lat="40.191250" lon="-4.991167">
        <ele>2325.0</ele>
        <time>2015-06-07T13:12:04Z</time>
      </trkpt>
      <trkpt lat="40.191200" lon="-4.991467">
        <ele>2318.0</ele>
        <time>2015-06-07T13:12:06Z</time>
      </trkpt>
      <trkpt lat="40.191167" lon="-4.991817">
        <ele>2311.0</ele>
        <time>2015-06-07T13:12:08Z</time>
      </trkpt>
      <trkpt lat="40.191117" lon="-4.992150">
        <ele>2308.0</ele>
        <time>2015-06-07T13:12:10Z</time>
      </trkpt>
      <trkpt lat="40.191100" lon="-4.992467">
        <ele>2308.0</ele>
        <time>2015-06-07T13:12:12Z</time>
      </trkpt>
      <trkpt lat="40.191133" lon="-4.992800">
        <ele>2304.0</ele>
        <time>2015-06-07T13:12:14Z</time>
      </trkpt>
      <trkpt lat="40.191167" lon="-4.993183">
        <ele>2304.0</ele>
        <time>2015-06-07T13:12:16Z</time>
      </trkpt>
      <trkpt lat="40.191200" lon="-4.993500">
        <ele>2307.0</ele>
        <time>2015-06-07T13:12:18Z</time>
      </trkpt>
      <trkpt lat="40.191233" lon="-4.993750">
        <ele>2308.0</ele>
        <time>2015-06-07T13:12:20Z</time>
      </trkpt>
      <trkpt lat="40.191333" lon="-4.993950">
        <ele>2307.0</ele>
        <time>2015-06-07T13:12:22Z</time>
      </trkpt>
      <trkpt lat="40.191450" lon="-4.994050">
        <ele>2309.0</ele>
        <time>2015-06-07T13:12:24Z</time>
      </trkpt>
      <trkpt lat="40.191517" lon="-4.994050">
        <ele>2308.0</ele>
        <time>2015-06-07T13:12:26Z</time>
      </trkpt>
      <trkpt lat="40.191600" lon="-4.993967">
        <ele>2306.0</ele>
        <time>2015-06-07T13:12:28Z</time>
      </trkpt>
      <trkpt lat="40.191650" lon="-4.993833">
        <ele>2304.0</ele>
        <time>2015-06-07T13:12:30Z</time>
      </trkpt>
      <trkpt lat="40.191617" lon="-4.993700">
        <ele>2304.0</ele>
        <time>2015-06-07T13:12:32Z</time>
      </trkpt>
      <trkpt lat="40.191517" lon="-4.993583">
        <ele>2304.0</ele>
        <time>2015-06-07T13:12:34Z</time>
      </trkpt>
      <trkpt lat="40.191367" lon="-4.993483">
        <ele>2302.0</ele>
        <time>2015-06-07T13:12:36Z</time>
      </trkpt>
      <trkpt lat="40.191167" lon="-4.993483">
        <ele>2302.0</ele>
        <time>2015-06-07T13:12:38Z</time>
      </trkpt>
      <trkpt lat="40.190967" lon="-4.993567">
        <ele>2304.0</ele>
        <time>2015-06-07T13:12:40Z</time>
      </trkpt>
      <trkpt lat="40.190800" lon="-4.993683">
        <ele>2305.0</ele>
        <time>2015-06-07T13:12:42Z</time>
      </trkpt>
      <trkpt lat="40.190617" lon="-4.993867">
        <ele>2303.0</ele>
        <time>2015-06-07T13:12:44Z</time>
      </trkpt>
      <trkpt lat="40.190467" lon="-4.994117">
        <ele>2300.0</ele>
        <time>2015-06-07T13:12:46Z</time>
      </trkpt>
      <trkpt lat="40.190333" lon="-4.994433">
        <ele>2298.0</ele>
        <time>2015-06-07T13:12:48Z</time>
      </trkpt>
      <trkpt lat="40.190217" lon="-4.994783">
        <ele>2299.0</ele>
        <time>2015-06-07T13:12:50Z</time>
      </trkpt>
      <trkpt lat="40.190117" lon="-4.995100">
        <ele>2300.0</ele>
        <time>2015-06-07T13:12:52Z</time>
      </trkpt>
      <trkpt lat="40.190000" lon="-4.995417">
        <ele>2300.0</ele>
        <time>2015-06-07T13:12:54Z</time>
      </trkpt>
      <trkpt lat="40.189933" lon="-4.995750">
        <ele>2300.0</ele>
        <time>2015-06-07T13:12:56Z</time>
      </trkpt>
      <trkpt lat="40.189867" lon="-4.996067">
        <ele>2300.0</ele>
        <time>2015-06-07T13:12:58Z</time>
      </trkpt>
      <trkpt lat="40.189800" lon="-4.996367">
        <ele>2301.0</ele>
        <time>2015-06-07T13:13:00Z</time>
      </trkpt>
      <trkpt lat="40.189733" lon="-4.996650">
        <ele>2301.0</ele>
        <time>2015-06-07T13:13:02Z</time>
      </trkpt>
      <trkpt lat="40.189650" lon="-4.996933">
        <ele>2299.0</ele>
        <time>2015-06-07T13:13:04Z</time>
      </trkpt>
      <trkpt lat="40.189550" lon="-4.997217">
        <ele>2296.0</ele>
        <time>2015-06-07T13:13:06Z</time>
      </trkpt>
      <trkpt lat="40.189433" lon="-4.997483">
        <ele>2295.0</ele>
        <time>2015-06-07T13:13:08Z</time>
      </trkpt>
      <trkpt lat="40.189317" lon="-4.997767">
        <ele>2293.0</ele>
        <time>2015-06-07T13:13:10Z</time>
      </trkpt>
      <trkpt lat="40.189217" lon="-4.998050">
        <ele>2291.0</ele>
        <time>2015-06-07T13:13:12Z</time>
      </trkpt>
      <trkpt lat="40.189117" lon="-4.998350">
        <ele>2288.0</ele>
        <time>2015-06-07T13:13:14Z</time>
      </trkpt>
      <trkpt lat="40.188983" lon="-4.998650">
        <ele>2291.0</ele>
        <time>2015-06-07T13:13:16Z</time>
      </trkpt>
      <trkpt lat="40.188867" lon="-4.998867">
        <ele>2295.0</ele>
        <time>2015-06-07T13:13:18Z</time>
      </trkpt>
      <trkpt lat="40.188783" lon="-4.999067">
        <ele>2295.0</ele>
        <time>2015-06-07T13:13:20Z</time>
      </trkpt>
      <trkpt lat="40.188767" lon="-4.999350">
        <ele>2293.0</ele>
        <time>2015-06-07T13:13:22Z</time>
      </trkpt>
      <trkpt lat="40.188800" lon="-4.999617">
        <ele>2293.0</ele>
        <time>2015-06-07T13:13:24Z</time>
      </trkpt>
      <trkpt lat="40.188800" lon="-4.999867">
        <ele>2292.0</ele>
        <time>2015-06-07T13:13:26Z</time>
      </trkpt>
      <trkpt lat="40.188767" lon="-5.000150">
        <ele>2288.0</ele>
        <time>2015-06-07T13:13:28Z</time>
      </trkpt>
      <trkpt lat="40.188700" lon="-5.000417">
        <ele>2287.0</ele>
        <time>2015-06-07T13:13:30Z</time>
      </trkpt>
      <trkpt lat="40.188600" lon="-5.000667">
        <ele>2286.0</ele>
        <time>2015-06-07T13:13:32Z</time>
      </trkpt>
      <trkpt lat="40.188500" lon="-5.000933">
        <ele>2283.0</ele>
        <time>2015-06-07T13:13:34Z</time>
      </trkpt>
      <trkpt lat="40.188400" lon="-5.001217">
        <ele>2280.0</ele>
        <time>2015-06-07T13:13:36Z</time>
      </trkpt>
      <trkpt lat="40.188300" lon="-5.001483">
        <ele>2279.0</ele>
        <time>2015-06-07T13:13:38Z</time>
      </trkpt>
      <trkpt lat="40.188217" lon="-5.001750">
        <ele>2276.0</ele>
        <time>2015-06-07T13:13:40Z</time>
      </trkpt>
      <trkpt lat="40.188117" lon="-5.002033">
        <ele>2274.0</ele>
        <time>2015-06-07T13:13:42Z</time>
      </trkpt>
      <trkpt lat="40.188050" lon="-5.002317">
        <ele>2271.0</ele>
        <time>2015-06-07T13:13:44Z</time>
      </trkpt>
      <trkpt lat="40.187983" lon="-5.002617">
        <ele>2269.0</ele>
        <time>2015-06-07T13:13:46Z</time>
      </trkpt>
      <trkpt lat="40.187917" lon="-5.002900">
        <ele>2266.0</ele>
        <time>2015-06-07T13:13:48Z</time>
      </trkpt>
      <trkpt lat="40.187850" lon="-5.003183">
        <ele>2262.0</ele>
        <time>2015-06-07T13:13:50Z</time>
      </trkpt>
      <trkpt lat="40.187800" lon="-5.003483">
        <ele>2259.0</ele>
        <time>2015-06-07T13:13:52Z</time>
      </trkpt>
      <trkpt lat="40.187733" lon="-5.003767">
        <ele>2255.0</ele>
        <time>2015-06-07T13:13:54Z</time>
      </trkpt>
      <trkpt lat="40.187683" lon="-5.004067">
        <ele>2251.0</ele>
        <time>2015-06-07T13:13:56Z</time>
      </trkpt>
      <trkpt lat="40.187617" lon="-5.004350">
        <ele>2248.0</ele>
        <time>2015-06-07T13:13:58Z</time>
      </trkpt>
      <trkpt lat="40.187567" lon="-5.004617">
        <ele>2244.0</ele>
        <time>2015-06-07T13:14:00Z</time>
      </trkpt>
      <trkpt lat="40.187517" lon="-5.004900">
        <ele>2239.0</ele>
        <time>2015-06-07T13:14:02Z</time>
      </trkpt>
      <trkpt lat="40.187433" lon="-5.005167">
        <ele>2235.0</ele>
        <time>2015-06-07T13:14:04Z</time>
      </trkpt>
      <trkpt lat="40.187383" lon="-5.005450">
        <ele>2230.0</ele>
        <time>2015-06-07T13:14:06Z</time>
      </trkpt>
      <trkpt lat="40.187317" lon="-5.005717">
        <ele>2225.0</ele>
        <time>2015-06-07T13:14:08Z</time>
      </trkpt>
      <trkpt lat="40.187250" lon="-5.005983">
        <ele>2220.0</ele>
        <time>2015-06-07T13:14:10Z</time>
      </trkpt>
      <trkpt lat="40.187167" lon="-5.006233">
        <ele>2215.0</ele>
        <time>2015-06-07T13:14:12Z</time>
      </trkpt>
      <trkpt lat="40.187100" lon="-5.006500">
        <ele>2208.0</ele>
        <time>2015-06-07T13:14:14Z</time>
      </trkpt>
      <trkpt lat="40.187000" lon="-5.006767">
        <ele>2202.0</ele>
        <time>2015-06-07T13:14:16Z</time>
      </trkpt>
      <trkpt lat="40.186917" lon="-5.007033">
        <ele>2197.0</ele>
        <time>2015-06-07T13:14:18Z</time>
      </trkpt>
      <trkpt lat="40.186833" lon="-5.007300">
        <ele>2191.0</ele>
        <time>2015-06-07T13:14:20Z</time>
      </trkpt>
      <trkpt lat="40.186733" lon="-5.007583">
        <ele>2186.0</ele>
        <time>2015-06-07T13:14:22Z</time>
      </trkpt>
      <trkpt lat="40.186633" lon="-5.007850">
        <ele>2182.0</ele>
        <time>2015-06-07T13:14:24Z</time>
      </trkpt>
      <trkpt lat="40.186550" lon="-5.008117">
        <ele>2177.0</ele>
        <time>2015-06-07T13:14:26Z</time>
      </trkpt>
      <trkpt lat="40.186450" lon="-5.008400">
        <ele>2174.0</ele>
        <time>2015-06-07T13:14:28Z</time>
      </trkpt>
      <trkpt lat="40.186367" lon="-5.008650">
        <ele>2170.0</ele>
        <time>2015-06-07T13:14:30Z</time>
      </trkpt>
      <trkpt lat="40.186283" lon="-5.008917">
        <ele>2166.0</ele>
        <time>2015-06-07T13:14:32Z</time>
      </trkpt>
      <trkpt lat="40.186217" lon="-5.009183">
        <ele>2160.0</ele>
        <time>2015-06-07T13:14:34Z</time>
      </trkpt>
      <trkpt lat="40.186150" lon="-5.009483">
        <ele>2157.0</ele>
        <time>2015-06-07T13:14:36Z</time>
      </trkpt>
      <trkpt lat="40.186067" lon="-5.009717">
        <ele>2154.0</ele>
        <time>2015-06-07T13:14:38Z</time>
      </trkpt>
      <trkpt lat="40.185983" lon="-5.009967">
        <ele>2148.0</ele>
        <time>2015-06-07T13:14:40Z</time>
      </trkpt>
      <trkpt lat="40.185883" lon="-5.010233">
        <ele>2144.0</ele>
        <time>2015-06-07T13:14:42Z</time>
      </trkpt>
      <trkpt lat="40.185783" lon="-5.010467">
        <ele>2141.0</ele>
        <time>2015-06-07T13:14:44Z</time>
      </trkpt>
      <trkpt lat="40.185683" lon="-5.010700">
        <ele>2136.0</ele>
        <time>2015-06-07T13:14:46Z</time>
      </trkpt>
      <trkpt lat="40.185617" lon="-5.010983">
        <ele>2131.0</ele>
        <time>2015-06-07T13:14:48Z</time>
      </trkpt>
      <trkpt lat="40.185517" lon="-5.011300">
        <ele>2128.0</ele>
        <time>2015-06-07T13:14:50Z</time>
      </trkpt>
      <trkpt lat="40.185450" lon="-5.011583">
        <ele>2126.0</ele>
        <time>2015-06-07T13:14:52Z</time>
      </trkpt>
      <trkpt lat="40.185383" lon="-5.011917">
        <ele>2123.0</ele>
        <time>2015-06-07T13:14:54Z</time>
      </trkpt>
      <trkpt lat="40.185300" lon="-5.012250">
        <ele>2123.0</ele>
        <time>2015-06-07T13:14:56Z</time>
      </trkpt>
      <trkpt lat="40.185233" lon="-5.012533">
        <ele>2122.0</ele>
        <time>2015-06-07T13:14:58Z</time>
      </trkpt>
      <trkpt lat="40.185167" lon="-5.012833">
        <ele>2119.0</ele>
        <time>2015-06-07T13:15:00Z</time>
      </trkpt>
      <trkpt lat="40.185117" lon="-5.013167">
        <ele>2117.0</ele>
        <time>2015-06-07T13:15:02Z</time>
      </trkpt>
      <trkpt lat="40.185083" lon="-5.013450">
        <ele>2117.0</ele>
        <time>2015-06-07T13:15:04Z</time>
      </trkpt>
      <trkpt lat="40.185050" lon="-5.013733">
        <ele>2113.0</ele>
        <time>2015-06-07T13:15:06Z</time>
      </trkpt>
      <trkpt lat="40.185017" lon="-5.014033">
        <ele>2107.0</ele>
        <time>2015-06-07T13:15:08Z</time>
      </trkpt>
      <trkpt lat="40.184983" lon="-5.014367">
        <ele>2103.0</ele>
        <time>2015-06-07T13:15:10Z</time>
      </trkpt>
      <trkpt lat="40.184933" lon="-5.014650">
        <ele>2101.0</ele>
        <time>2015-06-07T13:15:12Z</time>
      </trkpt>
      <trkpt lat="40.184883" lon="-5.014933">
        <ele>2099.0</ele>
        <time>2015-06-07T13:15:14Z</time>
      </trkpt>
      <trkpt lat="40.184800" lon="-5.015217">
        <ele>2095.0</ele>
        <time>2015-06-07T13:15:16Z</time>
      </trkpt>
      <trkpt lat="40.184733" lon="-5.015533">
        <ele>2091.0</ele>
        <time>2015-06-07T13:15:18Z</time>
      </trkpt>
      <trkpt lat="40.184667" lon="-5.015850">
        <ele>2087.0</ele>
        <time>2015-06-07T13:15:20Z</time>
      </trkpt>
      <trkpt lat="40.184600" lon="-5.016150">
        <ele>2085.0</ele>
        <time>2015-06-07T13:15:22Z</time>
      </trkpt>
      <trkpt lat="40.184550" lon="-5.016433">
        <ele>2081.0</ele>
        <time>2015-06-07T13:15:24Z</time>
      </trkpt>
      <trkpt lat="40.184533" lon="-5.016750">
        <ele>2075.0</ele>
        <time>2015-06-07T13:15:26Z</time>
      </trkpt>
      <trkpt lat="40.184483" lon="-5.017083">
        <ele>2071.0</ele>
        <time>2015-06-07T13:15:28Z</time>
      </trkpt>
      <trkpt lat="40.184417" lon="-5.017400">
        <ele>2070.0</ele>
        <time>2015-06-07T13:15:30Z</time>
      </trkpt>
      <trkpt lat="40.184350" lon="-5.017683">
        <ele>2066.0</ele>
        <time>2015-06-07T13:15:32Z</time>
      </trkpt>
      <trkpt lat="40.184283" lon="-5.018000">
        <ele>2061.0</ele>
        <time>2015-06-07T13:15:34Z</time>
      </trkpt>
      <trkpt lat="40.184200" lon="-5.018300">
        <ele>2056.0</ele>
        <time>2015-06-07T13:15:36Z</time>
      </trkpt>
      <trkpt lat="40.184083" lon="-5.018583">
        <ele>2052.0</ele>
        <time>2015-06-07T13:15:38Z</time>
      </trkpt>
      <trkpt lat="40.184000" lon="-5.018867">
        <ele>2049.0</ele>
        <time>2015-06-07T13:15:40Z</time>
      </trkpt>
      <trkpt lat="40.183917" lon="-5.019133">
        <ele>2047.0</ele>
        <time>2015-06-07T13:15:42Z</time>
      </trkpt>
      <trkpt lat="40.183833" lon="-5.019417">
        <ele>2042.0</ele>
        <time>2015-06-07T13:15:44Z</time>
      </trkpt>
      <trkpt lat="40.183750" lon="-5.019733">
        <ele>2038.0</ele>
        <time>2015-06-07T13:15:46Z</time>
      </trkpt>
      <trkpt lat="40.183683" lon="-5.020050">
        <ele>2036.0</ele>
        <time>2015-06-07T13:15:48Z</time>
      </trkpt>
      <trkpt lat="40.183617" lon="-5.020317">
        <ele>2034.0</ele>
        <time>2015-06-07T13:15:50Z</time>
      </trkpt>
      <trkpt lat="40.183567" lon="-5.020633">
        <ele>2030.0</ele>
        <time>2015-06-07T13:15:52Z</time>
      </trkpt>
      <trkpt lat="40.183517" lon="-5.020933">
        <ele>2027.0</ele>
        <time>2015-06-07T13:15:54Z</time>
      </trkpt>
      <trkpt lat="40.183467" lon="-5.021250">
        <ele>2024.0</ele>
        <time>2015-06-07T13:15:56Z</time>
      </trkpt>
      <trkpt lat="40.183400" lon="-5.021550">
        <ele>2021.0</ele>
        <time>2015-06-07T13:15:58Z</time>
      </trkpt>
      <trkpt lat="40.183367" lon="-5.021850">
        <ele>2016.0</ele>
        <time>2015-06-07T13:16:00Z</time>
      </trkpt>
      <trkpt lat="40.183350" lon="-5.022167">
        <ele>2014.0</ele>
        <time>2015-06-07T13:16:02Z</time>
      </trkpt>
      <trkpt lat="40.183300" lon="-5.022467">
        <ele>2011.0</ele>
        <time>2015-06-07T13:16:04Z</time>
      </trkpt>
      <trkpt lat="40.183217" lon="-5.022750">
        <ele>2007.0</ele>
        <time>2015-06-07T13:16:06Z</time>
      </trkpt>
      <trkpt lat="40.183150" lon="-5.023033">
        <ele>2004.0</ele>
        <time>2015-06-07T13:16:08Z</time>
      </trkpt>
      <trkpt lat="40.183067" lon="-5.023317">
        <ele>2001.0</ele>
        <time>2015-06-07T13:16:10Z</time>
      </trkpt>
      <trkpt lat="40.183000" lon="-5.023583">
        <ele>1998.0</ele>
        <time>2015-06-07T13:16:12Z</time>
      </trkpt>
      <trkpt lat="40.182950" lon="-5.023900">
        <ele>1994.0</ele>
        <time>2015-06-07T13:16:14Z</time>
      </trkpt>
      <trkpt lat="40.182933" lon="-5.024200">
        <ele>1992.0</ele>
        <time>2015-06-07T13:16:16Z</time>
      </trkpt>
      <trkpt lat="40.182917" lon="-5.024483">
        <ele>1989.0</ele>
        <time>2015-06-07T13:16:18Z</time>
      </trkpt>
      <trkpt lat="40.182883" lon="-5.024783">
        <ele>1985.0</ele>
        <time>2015-06-07T13:16:20Z</time>
      </trkpt>
      <trkpt lat="40.182850" lon="-5.025067">
        <ele>1981.0</ele>
        <time>2015-06-07T13:16:22Z</time>
      </trkpt>
      <trkpt lat="40.182817" lon="-5.025367">
        <ele>1979.0</ele>
        <time>2015-06-07T13:16:24Z</time>
      </trkpt>
      <trkpt lat="40.182783" lon="-5.025650">
        <ele>1976.0</ele>
        <time>2015-06-07T13:16:26Z</time>
      </trkpt>
      <trkpt lat="40.182767" lon="-5.025933">
        <ele>1972.0</ele>
        <time>2015-06-07T13:16:28Z</time>
      </trkpt>
      <trkpt lat="40.182733" lon="-5.026217">
        <ele>1967.0</ele>
        <time>2015-06-07T13:16:30Z</time>
      </trkpt>
      <trkpt lat="40.182700" lon="-5.026533">
        <ele>1963.0</ele>
        <time>2015-06-07T13:16:32Z</time>
      </trkpt>
      <trkpt lat="40.182700" lon="-5.026850">
        <ele>1960.0</ele>
        <time>2015-06-07T13:16:34Z</time>
      </trkpt>
      <trkpt lat="40.182717" lon="-5.027150">
        <ele>1957.0</ele>
        <time>2015-06-07T13:16:36Z</time>
      </trkpt>
      <trkpt lat="40.182717" lon="-5.027467">
        <ele>1953.0</ele>
        <time>2015-06-07T13:16:38Z</time>
      </trkpt>
      <trkpt lat="40.182733" lon="-5.027783">
        <ele>1948.0</ele>
        <time>2015-06-07T13:16:40Z</time>
      </trkpt>
      <trkpt lat="40.182733" lon="-5.028100">
        <ele>1944.0</ele>
        <time>2015-06-07T13:16:42Z</time>
      </trkpt>
      <trkpt lat="40.182733" lon="-5.028417">
        <ele>1941.0</ele>
        <time>2015-06-07T13:16:44Z</time>
      </trkpt>
      <trkpt lat="40.182750" lon="-5.028717">
        <ele>1937.0</ele>
        <time>2015-06-07T13:16:46Z</time>
      </trkpt>
      <trkpt lat="40.182767" lon="-5.029033">
        <ele>1933.0</ele>
        <time>2015-06-07T13:16:48Z</time>
      </trkpt>
      <trkpt lat="40.182767" lon="-5.029350">
        <ele>1929.0</ele>
        <time>2015-06-07T13:16:50Z</time>
      </trkpt>
      <trkpt lat="40.182783" lon="-5.029667">
        <ele>1925.0</ele>
        <time>2015-06-07T13:16:52Z</time>
      </trkpt>
      <trkpt lat="40.182783" lon="-5.029983">
        <ele>1921.0</ele>
        <time>2015-06-07T13:16:54Z</time>
      </trkpt>
      <trkpt lat="40.182783" lon="-5.030300">
        <ele>1916.0</ele>
        <time>2015-06-07T13:16:56Z</time>
      </trkpt>
      <trkpt lat="40.182783" lon="-5.030650">
        <ele>1913.0</ele>
        <time>2015-06-07T13:16:58Z</time>
      </trkpt>
      <trkpt lat="40.182800" lon="-5.030967">
        <ele>1910.0</ele>
        <time>2015-06-07T13:17:00Z</time>
      </trkpt>
      <trkpt lat="40.182783" lon="-5.031283">
        <ele>1907.0</ele>
        <time>2015-06-07T13:17:02Z</time>
      </trkpt>
      <trkpt lat="40.182783" lon="-5.031617">
        <ele>1904.0</ele>
        <time>2015-06-07T13:17:04Z</time>
      </trkpt>
      <trkpt lat="40.182783" lon="-5.031933">
        <ele>1903.0</ele>
        <time>2015-06-07T13:17:06Z</time>
      </trkpt>
      <trkpt lat="40.182767" lon="-5.032233">
        <ele>1900.0</ele>
        <time>2015-06-07T13:17:08Z</time>
      </trkpt>
      <trkpt lat="40.182733" lon="-5.032550">
        <ele>1897.0</ele>
        <time>2015-06-07T13:17:10Z</time>
      </trkpt>
      <trkpt lat="40.182717" lon="-5.032867">
        <ele>1895.0</ele>
        <time>2015-06-07T13:17:12Z</time>
      </trkpt>
      <trkpt lat="40.182700" lon="-5.033150">
        <ele>1893.0</ele>
        <time>2015-06-07T13:17:14Z</time>
      </trkpt>
      <trkpt lat="40.182667" lon="-5.033467">
        <ele>1889.0</ele>
        <time>2015-06-07T13:17:16Z</time>
      </trkpt>
      <trkpt lat="40.182650" lon="-5.033783">
        <ele>1886.0</ele>
        <time>2015-06-07T13:17:18Z</time>
      </trkpt>
      <trkpt lat="40.182633" lon="-5.034083">
        <ele>1883.0</ele>
        <time>2015-06-07T13:17:20Z</time>
      </trkpt>
      <trkpt lat="40.182617" lon="-5.034400">
        <ele>1879.0</ele>
        <time>2015-06-07T13:17:22Z</time>
      </trkpt>
      <trkpt lat="40.182633" lon="-5.034717">
        <ele>1877.0</ele>
        <time>2015-06-07T13:17:24Z</time>
      </trkpt>
      <trkpt lat="40.182650" lon="-5.035017">
        <ele>1874.0</ele>
        <time>2015-06-07T13:17:26Z</time>
      </trkpt>
      <trkpt lat="40.182667" lon="-5.035317">
        <ele>1869.0</ele>
        <time>2015-06-07T13:17:28Z</time>
      </trkpt>
      <trkpt lat="40.182700" lon="-5.035617">
        <ele>1864.0</ele>
        <time>2015-06-07T13:17:30Z</time>
      </trkpt>
      <trkpt lat="40.182717" lon="-5.035917">
        <ele>1861.0</ele>
        <time>2015-06-07T13:17:32Z</time>
      </trkpt>
      <trkpt lat="40.182733" lon="-5.036200">
        <ele>1857.0</ele>
        <time>2015-06-07T13:17:34Z</time>
      </trkpt>
      <trkpt lat="40.182750" lon="-5.036500">
        <ele>1853.0</ele>
        <time>2015-06-07T13:17:36Z</time>
      </trkpt>
      <trkpt lat="40.182767" lon="-5.036817">
        <ele>1850.0</ele>
        <time>2015-06-07T13:17:38Z</time>
      </trkpt>
      <trkpt lat="40.182783" lon="-5.037100">
        <ele>1848.0</ele>
        <time>2015-06-07T13:17:40Z</time>
      </trkpt>
      <trkpt lat="40.182767" lon="-5.037383">
        <ele>1845.0</ele>
        <time>2015-06-07T13:17:42Z</time>
      </trkpt>
      <trkpt lat="40.182750" lon="-5.037683">
        <ele>1842.0</ele>
        <time>2015-06-07T13:17:44Z</time>
      </trkpt>
      <trkpt lat="40.182700" lon="-5.038000">
        <ele>1839.0</ele>
        <time>2015-06-07T13:17:46Z</time>
      </trkpt>
      <trkpt lat="40.182633" lon="-5.038283">
        <ele>1837.0</ele>
        <time>2015-06-07T13:17:48Z</time>
      </trkpt>
      <trkpt lat="40.182617" lon="-5.038600">
        <ele>1835.0</ele>
        <time>2015-06-07T13:17:50Z</time>
      </trkpt>
      <trkpt lat="40.182600" lon="-5.038917">
        <ele>1832.0</ele>
        <time>2015-06-07T13:17:52Z</time>
      </trkpt>
      <trkpt lat="40.182550" lon="-5.039250">
        <ele>1828.0</ele>
        <time>2015-06-07T13:17:54Z</time>
      </trkpt>
      <trkpt lat="40.182517" lon="-5.039583">
        <ele>1826.0</ele>
        <time>2015-06-07T13:17:56Z</time>
      </trkpt>
      <trkpt lat="40.182500" lon="-5.039883">
        <ele>1824.0</ele>
        <time>2015-06-07T13:17:58Z</time>
      </trkpt>
      <trkpt lat="40.182450" lon="-5.040183">
        <ele>1820.0</ele>
        <time>2015-06-07T13:18:00Z</time>
      </trkpt>
      <trkpt lat="40.182400" lon="-5.040500">
        <ele>1817.0</ele>
        <time>2015-06-07T13:18:02Z</time>
      </trkpt>
      <trkpt lat="40.182350" lon="-5.040817">
        <ele>1815.0</ele>
        <time>2015-06-07T13:18:04Z</time>
      </trkpt>
      <trkpt lat="40.182333" lon="-5.041117">
        <ele>1812.0</ele>
        <time>2015-06-07T13:18:06Z</time>
      </trkpt>
      <trkpt lat="40.182333" lon="-5.041433">
        <ele>1809.0</ele>
        <time>2015-06-07T13:18:08Z</time>
      </trkpt>
      <trkpt lat="40.182333" lon="-5.041750">
        <ele>1807.0</ele>
        <time>2015-06-07T13:18:10Z</time>
      </trkpt>
      <trkpt lat="40.182283" lon="-5.042067">
        <ele>1804.0</ele>
        <time>2015-06-07T13:18:12Z</time>
      </trkpt>
      <trkpt lat="40.182250" lon="-5.042383">
        <ele>1801.0</ele>
        <time>2015-06-07T13:18:14Z</time>
      </trkpt>
      <trkpt lat="40.182200" lon="-5.042700">
        <ele>1798.0</ele>
        <time>2015-06-07T13:18:16Z</time>
      </trkpt>
      <trkpt lat="40.182183" lon="-5.043000">
        <ele>1797.0</ele>
        <time>2015-06-07T13:18:18Z</time>
      </trkpt>
      <trkpt lat="40.182183" lon="-5.043283">
        <ele>1793.0</ele>
        <time>2015-06-07T13:18:20Z</time>
      </trkpt>
      <trkpt lat="40.182200" lon="-5.043600">
        <ele>1787.0</ele>
        <time>2015-06-07T13:18:22Z</time>
      </trkpt>
      <trkpt lat="40.182217" lon="-5.043917">
        <ele>1784.0</ele>
        <time>2015-06-07T13:18:24Z</time>
      </trkpt>
      <trkpt lat="40.182217" lon="-5.044200">
        <ele>1781.0</ele>
        <time>2015-06-07T13:18:26Z</time>
      </trkpt>
      <trkpt lat="40.182183" lon="-5.044467">
        <ele>1777.0</ele>
        <time>2015-06-07T13:18:28Z</time>
      </trkpt>
      <trkpt lat="40.182117" lon="-5.044750">
        <ele>1773.0</ele>
        <time>2015-06-07T13:18:30Z</time>
      </trkpt>
      <trkpt lat="40.182000" lon="-5.044983">
        <ele>1770.0</ele>
        <time>2015-06-07T13:18:32Z</time>
      </trkpt>
      <trkpt lat="40.181883" lon="-5.045200">
        <ele>1766.0</ele>
        <time>2015-06-07T13:18:34Z</time>
      </trkpt>
      <trkpt lat="40.181733" lon="-5.045400">
        <ele>1763.0</ele>
        <time>2015-06-07T13:18:36Z</time>
      </trkpt>
      <trkpt lat="40.181567" lon="-5.045567">
        <ele>1759.0</ele>
        <time>2015-06-07T13:18:38Z</time>
      </trkpt>
      <trkpt lat="40.181400" lon="-5.045717">
        <ele>1755.0</ele>
        <time>2015-06-07T13:18:40Z</time>
      </trkpt>
      <trkpt lat="40.181250" lon="-5.045900">
        <ele>1753.0</ele>
        <time>2015-06-07T13:18:42Z</time>
      </trkpt>
      <trkpt lat="40.181133" lon="-5.046100">
        <ele>1749.0</ele>
        <time>2015-06-07T13:18:44Z</time>
      </trkpt>
      <trkpt lat="40.181017" lon="-5.046350">
        <ele>1745.0</ele>
        <time>2015-06-07T13:18:46Z</time>
      </trkpt>
      <trkpt lat="40.180933" lon="-5.046650">
        <ele>1741.0</ele>
        <time>2015-06-07T13:18:48Z</time>
      </trkpt>
      <trkpt lat="40.180867" lon="-5.046967">
        <ele>1738.0</ele>
        <time>2015-06-07T13:18:50Z</time>
      </trkpt>
      <trkpt lat="40.180817" lon="-5.047267">
        <ele>1735.0</ele>
        <time>2015-06-07T13:18:52Z</time>
      </trkpt>
      <trkpt lat="40.180800" lon="-5.047600">
        <ele>1731.0</ele>
        <time>2015-06-07T13:18:54Z</time>
      </trkpt>
      <trkpt lat="40.180750" lon="-5.047933">
        <ele>1728.0</ele>
        <time>2015-06-07T13:18:56Z</time>
      </trkpt>
      <trkpt lat="40.180717" lon="-5.048250">
        <ele>1727.0</ele>
        <time>2015-06-07T13:18:58Z</time>
      </trkpt>
      <trkpt lat="40.180683" lon="-5.048583">
        <ele>1724.0</ele>
        <time>2015-06-07T13:19:00Z</time>
      </trkpt>
      <trkpt lat="40.180667" lon="-5.048933">
        <ele>1722.0</ele>
        <time>2015-06-07T13:19:02Z</time>
      </trkpt>
      <trkpt lat="40.180650" lon="-5.049250">
        <ele>1721.0</ele>
        <time>2015-06-07T13:19:04Z</time>
      </trkpt>
      <trkpt lat="40.180633" lon="-5.049533">
        <ele>1718.0</ele>
        <time>2015-06-07T13:19:06Z</time>
      </trkpt>
      <trkpt lat="40.180617" lon="-5.049833">
        <ele>1712.0</ele>
        <time>2015-06-07T13:19:08Z</time>
      </trkpt>
      <trkpt lat="40.180650" lon="-5.050167">
        <ele>1706.0</ele>
        <time>2015-06-07T13:19:10Z</time>
      </trkpt>
      <trkpt lat="40.180667" lon="-5.050483">
        <ele>1702.0</ele>
        <time>2015-06-07T13:19:12Z</time>
      </trkpt>
      <trkpt lat="40.180667" lon="-5.050800">
        <ele>1698.0</ele>
        <time>2015-06-07T13:19:14Z</time>
      </trkpt>
      <trkpt lat="40.180667" lon="-5.051117">
        <ele>1693.0</ele>
        <time>2015-06-07T13:19:16Z</time>
      </trkpt>
      <trkpt lat="40.180667" lon="-5.051417">
        <ele>1688.0</ele>
        <time>2015-06-07T13:19:18Z</time>
      </trkpt>
      <trkpt lat="40.180667" lon="-5.051733">
        <ele>1683.0</ele>
        <time>2015-06-07T13:19:20Z</time>
      </trkpt>
      <trkpt lat="40.180683" lon="-5.052050">
        <ele>1678.0</ele>
        <time>2015-06-07T13:19:22Z</time>
      </trkpt>
      <trkpt lat="40.180700" lon="-5.052350">
        <ele>1676.0</ele>
        <time>2015-06-07T13:19:24Z</time>
      </trkpt>
      <trkpt lat="40.180683" lon="-5.052650">
        <ele>1675.0</ele>
        <time>2015-06-07T13:19:26Z</time>
      </trkpt>
      <trkpt lat="40.180667" lon="-5.052933">
        <ele>1671.0</ele>
        <time>2015-06-07T13:19:28Z</time>
      </trkpt>
      <trkpt lat="40.180667" lon="-5.053233">
        <ele>1668.0</ele>
        <time>2015-06-07T13:19:30Z</time>
      </trkpt>
      <trkpt lat="40.180667" lon="-5.053517">
        <ele>1665.0</ele>
        <time>2015-06-07T13:19:32Z</time>
      </trkpt>
      <trkpt lat="40.180700" lon="-5.053817">
        <ele>1660.0</ele>
        <time>2015-06-07T13:19:34Z</time>
      </trkpt>
      <trkpt lat="40.180733" lon="-5.054133">
        <ele>1656.0</ele>
        <time>2015-06-07T13:19:36Z</time>
      </trkpt>
      <trkpt lat="40.180800" lon="-5.054383">
        <ele>1653.0</ele>
        <time>2015-06-07T13:19:38Z</time>
      </trkpt>
      <trkpt lat="40.180900" lon="-5.054633">
        <ele>1647.0</ele>
        <time>2015-06-07T13:19:40Z</time>
      </trkpt>
      <trkpt lat="40.180983" lon="-5.054917">
        <ele>1641.0</ele>
        <time>2015-06-07T13:19:42Z</time>
      </trkpt>
      <trkpt lat="40.181017" lon="-5.055217">
        <ele>1638.0</ele>
        <time>2015-06-07T13:19:44Z</time>
      </trkpt>
      <trkpt lat="40.181033" lon="-5.055500">
        <ele>1633.0</ele>
        <time>2015-06-07T13:19:46Z</time>
      </trkpt>
      <trkpt lat="40.181067" lon="-5.055800">
        <ele>1626.0</ele>
        <time>2015-06-07T13:19:48Z</time>
      </trkpt>
      <trkpt lat="40.181083" lon="-5.056117">
        <ele>1621.0</ele>
        <time>2015-06-07T13:19:50Z</time>
      </trkpt>
      <trkpt lat="40.181100" lon="-5.056417">
        <ele>1617.0</ele>
        <time>2015-06-07T13:19:52Z</time>
      </trkpt>
      <trkpt lat="40.181117" lon="-5.056700">
        <ele>1612.0</ele>
        <time>2015-06-07T13:19:54Z</time>
      </trkpt>
      <trkpt lat="40.181133" lon="-5.057000">
        <ele>1606.0</ele>
        <time>2015-06-07T13:19:56Z</time>
      </trkpt>
      <trkpt lat="40.181150" lon="-5.057283">
        <ele>1602.0</ele>
        <time>2015-06-07T13:19:58Z</time>
      </trkpt>
      <trkpt lat="40.181150" lon="-5.057550">
        <ele>1597.0</ele>
        <time>2015-06-07T13:20:00Z</time>
      </trkpt>
      <trkpt lat="40.181167" lon="-5.057833">
        <ele>1591.0</ele>
        <time>2015-06-07T13:20:02Z</time>
      </trkpt>
      <trkpt lat="40.181150" lon="-5.058117">
        <ele>1586.0</ele>
        <time>2015-06-07T13:20:04Z</time>
      </trkpt>
      <trkpt lat="40.181150" lon="-5.058400">
        <ele>1581.0</ele>
        <time>2015-06-07T13:20:06Z</time>
      </trkpt>
      <trkpt lat="40.181167" lon="-5.058667">
        <ele>1576.0</ele>
        <time>2015-06-07T13:20:08Z</time>
      </trkpt>
      <trkpt lat="40.181217" lon="-5.058967">
        <ele>1571.0</ele>
        <time>2015-06-07T13:20:10Z</time>
      </trkpt>
      <trkpt lat="40.181233" lon="-5.059267">
        <ele>1567.0</ele>
        <time>2015-06-07T13:20:12Z</time>
      </trkpt>
      <trkpt lat="40.181267" lon="-5.059533">
        <ele>1562.0</ele>
        <time>2015-06-07T13:20:14Z</time>
      </trkpt>
      <trkpt lat="40.181283" lon="-5.059817">
        <ele>1557.0</ele>
        <time>2015-06-07T13:20:16Z</time>
      </trkpt>
      <trkpt lat="40.181283" lon="-5.060117">
        <ele>1551.0</ele>
        <time>2015-06-07T13:20:18Z</time>
      </trkpt>
      <trkpt lat="40.181283" lon="-5.060417">
        <ele>1547.0</ele>
        <time>2015-06-07T13:20:20Z</time>
      </trkpt>
      <trkpt lat="40.181283" lon="-5.060683">
        <ele>1543.0</ele>
        <time>2015-06-07T13:20:22Z</time>
      </trkpt>
      <trkpt lat="40.181267" lon="-5.060983">
        <ele>1537.0</ele>
        <time>2015-06-07T13:20:24Z</time>
      </trkpt>
      <trkpt lat="40.181267" lon="-5.061300">
        <ele>1533.0</ele>
        <time>2015-06-07T13:20:26Z</time>
      </trkpt>
      <trkpt lat="40.181300" lon="-5.061583">
        <ele>1528.0</ele>
        <time>2015-06-07T13:20:28Z</time>
      </trkpt>
      <trkpt lat="40.181300" lon="-5.061883">
        <ele>1521.0</ele>
        <time>2015-06-07T13:20:30Z</time>
      </trkpt>
      <trkpt lat="40.181300" lon="-5.062183">
        <ele>1516.0</ele>
        <time>2015-06-07T13:20:32Z</time>
      </trkpt>
      <trkpt lat="40.181317" lon="-5.062467">
        <ele>1511.0</ele>
        <time>2015-06-07T13:20:34Z</time>
      </trkpt>
      <trkpt lat="40.181333" lon="-5.062767">
        <ele>1506.0</ele>
        <time>2015-06-07T13:20:36Z</time>
      </trkpt>
      <trkpt lat="40.181350" lon="-5.063083">
        <ele>1500.0</ele>
        <time>2015-06-07T13:20:38Z</time>
      </trkpt>
      <trkpt lat="40.181367" lon="-5.063367">
        <ele>1497.0</ele>
        <time>2015-06-07T13:20:40Z</time>
      </trkpt>
      <trkpt lat="40.181367" lon="-5.063633">
        <ele>1492.0</ele>
        <time>2015-06-07T13:20:42Z</time>
      </trkpt>
      <trkpt lat="40.181350" lon="-5.063933">
        <ele>1486.0</ele>
        <time>2015-06-07T13:20:44Z</time>
      </trkpt>
      <trkpt lat="40.181267" lon="-5.064200">
        <ele>1480.0</ele>
        <time>2015-06-07T13:20:46Z</time>
      </trkpt>
      <trkpt lat="40.181183" lon="-5.064450">
        <ele>1475.0</ele>
        <time>2015-06-07T13:20:48Z</time>
      </trkpt>
      <trkpt lat="40.181117" lon="-5.064717">
        <ele>1469.0</ele>
        <time>2015-06-07T13:20:50Z</time>
      </trkpt>
      <trkpt lat="40.181050" lon="-5.064983">
        <ele>1466.0</ele>
        <time>2015-06-07T13:20:52Z</time>
      </trkpt>
      <trkpt lat="40.181033" lon="-5.065217">
        <ele>1463.0</ele>
        <time>2015-06-07T13:20:54Z</time>
      </trkpt>
      <trkpt lat="40.181067" lon="-5.065467">
        <ele>1457.0</ele>
        <time>2015-06-07T13:20:56Z</time>
      </trkpt>
      <trkpt lat="40.181100" lon="-5.065767">
        <ele>1452.0</ele>
        <time>2015-06-07T13:20:58Z</time>
      </trkpt>
      <trkpt lat="40.181117" lon="-5.066033">
        <ele>1448.0</ele>
        <time>2015-06-07T13:21:00Z</time>
      </trkpt>
      <trkpt lat="40.181133" lon="-5.066300">
        <ele>1444.0</ele>
        <time>2015-06-07T13:21:02Z</time>
      </trkpt>
      <trkpt lat="40.181150" lon="-5.066583">
        <ele>1439.0</ele>
        <time>2015-06-07T13:21:04Z</time>
      </trkpt>
      <trkpt lat="40.181150" lon="-5.066867">
        <ele>1435.0</ele>
        <time>2015-06-07T13:21:06Z</time>
      </trkpt>
      <trkpt lat="40.181133" lon="-5.067150">
        <ele>1431.0</ele>
        <time>2015-06-07T13:21:08Z</time>
      </trkpt>
      <trkpt lat="40.181133" lon="-5.067433">
        <ele>1427.0</ele>
        <time>2015-06-07T13:21:10Z</time>
      </trkpt>
      <trkpt lat="40.181100" lon="-5.067717">
        <ele>1423.0</ele>
        <time>2015-06-07T13:21:12Z</time>
      </trkpt>
      <trkpt lat="40.181083" lon="-5.067983">
        <ele>1419.0</ele>
        <time>2015-06-07T13:21:14Z</time>
      </trkpt>
      <trkpt lat="40.181033" lon="-5.068250">
        <ele>1415.0</ele>
        <time>2015-06-07T13:21:16Z</time>
      </trkpt>
      <trkpt lat="40.181000" lon="-5.068517">
        <ele>1410.0</ele>
        <time>2015-06-07T13:21:18Z</time>
      </trkpt>
      <trkpt lat="40.180967" lon="-5.068767">
        <ele>1405.0</ele>
        <time>2015-06-07T13:21:20Z</time>
      </trkpt>
      <trkpt lat="40.180933" lon="-5.069033">
        <ele>1402.0</ele>
        <time>2015-06-07T13:21:22Z</time>
      </trkpt>
      <trkpt lat="40.180917" lon="-5.069250">
        <ele>1399.0</ele>
        <time>2015-06-07T13:21:24Z</time>
      </trkpt>
      <trkpt lat="40.180967" lon="-5.069517">
        <ele>1392.0</ele>
        <time>2015-06-07T13:21:26Z</time>
      </trkpt>
      <trkpt lat="40.181017" lon="-5.069800">
        <ele>1387.0</ele>
        <time>2015-06-07T13:21:28Z</time>
      </trkpt>
      <trkpt lat="40.181033" lon="-5.070083">
        <ele>1382.0</ele>
        <time>2015-06-07T13:21:30Z</time>
      </trkpt>
      <trkpt lat="40.181050" lon="-5.070367">
        <ele>1376.0</ele>
        <time>2015-06-07T13:21:32Z</time>
      </trkpt>
      <trkpt lat="40.181033" lon="-5.070667">
        <ele>1370.0</ele>
        <time>2015-06-07T13:21:34Z</time>
      </trkpt>
      <trkpt lat="40.181017" lon="-5.070950">
        <ele>1365.0</ele>
        <time>2015-06-07T13:21:36Z</time>
      </trkpt>
      <trkpt lat="40.180983" lon="-5.071250">
        <ele>1359.0</ele>
        <time>2015-06-07T13:21:38Z</time>
      </trkpt>
      <trkpt lat="40.180933" lon="-5.071533">
        <ele>1354.0</ele>
        <time>2015-06-07T13:21:40Z</time>
      </trkpt>
      <trkpt lat="40.180900" lon="-5.071850">
        <ele>1349.0</ele>
        <time>2015-06-07T13:21:42Z</time>
      </trkpt>
      <trkpt lat="40.180883" lon="-5.072183">
        <ele>1346.0</ele>
        <time>2015-06-07T13:21:44Z</time>
      </trkpt>
      <trkpt lat="40.180900" lon="-5.072467">
        <ele>1343.0</ele>
        <time>2015-06-07T13:21:46Z</time>
      </trkpt>
      <trkpt lat="40.180950" lon="-5.072750">
        <ele>1337.0</ele>
        <time>2015-06-07T13:21:48Z</time>
      </trkpt>
      <trkpt lat="40.181033" lon="-5.073067">
        <ele>1332.0</ele>
        <time>2015-06-07T13:21:50Z</time>
      </trkpt>
      <trkpt lat="40.181133" lon="-5.073350">
        <ele>1328.0</ele>
        <time>2015-06-07T13:21:52Z</time>
      </trkpt>
      <trkpt lat="40.181250" lon="-5.073600">
        <ele>1323.0</ele>
        <time>2015-06-07T13:21:54Z</time>
      </trkpt>
      <trkpt lat="40.181400" lon="-5.073850">
        <ele>1317.0</ele>
        <time>2015-06-07T13:21:56Z</time>
      </trkpt>
      <trkpt lat="40.181533" lon="-5.074100">
        <ele>1314.0</ele>
        <time>2015-06-07T13:21:58Z</time>
      </trkpt>
      <trkpt lat="40.181667" lon="-5.074350">
        <ele>1308.0</ele>
        <time>2015-06-07T13:22:00Z</time>
      </trkpt>
      <trkpt lat="40.181817" lon="-5.074617">
        <ele>1303.0</ele>
        <time>2015-06-07T13:22:02Z</time>
      </trkpt>
      <trkpt lat="40.181917" lon="-5.074883">
        <ele>1299.0</ele>
        <time>2015-06-07T13:22:04Z</time>
      </trkpt>
      <trkpt lat="40.182000" lon="-5.075150">
        <ele>1293.0</ele>
        <time>2015-06-07T13:22:06Z</time>
      </trkpt>
      <trkpt lat="40.182083" lon="-5.075467">
        <ele>1287.0</ele>
        <time>2015-06-07T13:22:08Z</time>
      </trkpt>
      <trkpt lat="40.182150" lon="-5.075767">
        <ele>1283.0</ele>
        <time>2015-06-07T13:22:10Z</time>
      </trkpt>
      <trkpt lat="40.182200" lon="-5.076050">
        <ele>1278.0</ele>
        <time>2015-06-07T13:22:12Z</time>
      </trkpt>
      <trkpt lat="40.182267" lon="-5.076350">
        <ele>1271.0</ele>
        <time>2015-06-07T13:22:14Z</time>
      </trkpt>
      <trkpt lat="40.182317" lon="-5.076650">
        <ele>1265.0</ele>
        <time>2015-06-07T13:22:16Z</time>
      </trkpt>
      <trkpt lat="40.182350" lon="-5.076967">
        <ele>1259.0</ele>
        <time>2015-06-07T13:22:18Z</time>
      </trkpt>
      <trkpt lat="40.182383" lon="-5.077267">
        <ele>1253.0</ele>
        <time>2015-06-07T13:22:20Z</time>
      </trkpt>
      <trkpt lat="40.182433" lon="-5.077550">
        <ele>1247.0</ele>
        <time>2015-06-07T13:22:22Z</time>
      </trkpt>
      <trkpt lat="40.182450" lon="-5.077867">
        <ele>1241.0</ele>
        <time>2015-06-07T13:22:24Z</time>
      </trkpt>
      <trkpt lat="40.182450" lon="-5.078167">
        <ele>1237.0</ele>
        <time>2015-06-07T13:22:26Z</time>
      </trkpt>
      <trkpt lat="40.182433" lon="-5.078450">
        <ele>1232.0</ele>
        <time>2015-06-07T13:22:28Z</time>
      </trkpt>
      <trkpt lat="40.182417" lon="-5.078750">
        <ele>1225.0</ele>
        <time>2015-06-07T13:22:30Z</time>
      </trkpt>
      <trkpt lat="40.182383" lon="-5.079067">
        <ele>1219.0</ele>
        <time>2015-06-07T13:22:32Z</time>
      </trkpt>
      <trkpt lat="40.182350" lon="-5.079367">
        <ele>1215.0</ele>
        <time>2015-06-07T13:22:34Z</time>
      </trkpt>
      <trkpt lat="40.182317" lon="-5.079650">
        <ele>1210.0</ele>
        <time>2015-06-07T13:22:36Z</time>
      </trkpt>
      <trkpt lat="40.182300" lon="-5.079933">
        <ele>1204.0</ele>
        <time>2015-06-07T13:22:38Z</time>
      </trkpt>
      <trkpt lat="40.182300" lon="-5.080233">
        <ele>1197.0</ele>
        <time>2015-06-07T13:22:40Z</time>
      </trkpt>
      <trkpt lat="40.182283" lon="-5.080517">
        <ele>1192.0</ele>
        <time>2015-06-07T13:22:42Z</time>
      </trkpt>
      <trkpt lat="40.182267" lon="-5.080817">
        <ele>1186.0</ele>
        <time>2015-06-07T13:22:44Z</time>
      </trkpt>
      <trkpt lat="40.182267" lon="-5.081133">
        <ele>1180.0</ele>
        <time>2015-06-07T13:22:46Z</time>
      </trkpt>
      <trkpt lat="40.182250" lon="-5.081433">
        <ele>1177.0</ele>
        <time>2015-06-07T13:22:48Z</time>
      </trkpt>
      <trkpt lat="40.182250" lon="-5.081717">
        <ele>1173.0</ele>
        <time>2015-06-07T13:22:50Z</time>
      </trkpt>
      <trkpt lat="40.182283" lon="-5.081983">
        <ele>1167.0</ele>
        <time>2015-06-07T13:22:52Z</time>
      </trkpt>
      <trkpt lat="40.182333" lon="-5.082300">
        <ele>1162.0</ele>
        <time>2015-06-07T13:22:54Z</time>
      </trkpt>
      <trkpt lat="40.182367" lon="-5.082583">
        <ele>1158.0</ele>
        <time>2015-06-07T13:22:56Z</time>
      </trkpt>
      <trkpt lat="40.182367" lon="-5.082867">
        <ele>1153.0</ele>
        <time>2015-06-07T13:22:58Z</time>
      </trkpt>
      <trkpt lat="40.182383" lon="-5.083167">
        <ele>1147.0</ele>
        <time>2015-06-07T13:23:00Z</time>
      </trkpt>
      <trkpt lat="40.182383" lon="-5.083467">
        <ele>1144.0</ele>
        <time>2015-06-07T13:23:02Z</time>
      </trkpt>
      <trkpt lat="40.182367" lon="-5.083750">
        <ele>1140.0</ele>
        <time>2015-06-07T13:23:04Z</time>
      </trkpt>
      <trkpt lat="40.182333" lon="-5.084033">
        <ele>1136.0</ele>
        <time>2015-06-07T13:23:06Z</time>
      </trkpt>
      <trkpt lat="40.182300" lon="-5.084317">
        <ele>1131.0</ele>
        <time>2015-06-07T13:23:08Z</time>
      </trkpt>
      <trkpt lat="40.182233" lon="-5.084617">
        <ele>1126.0</ele>
        <time>2015-06-07T13:23:10Z</time>
      </trkpt>
      <trkpt lat="40.182183" lon="-5.084900">
        <ele>1122.0</ele>
        <time>2015-06-07T13:23:12Z</time>
      </trkpt>
      <trkpt lat="40.182133" lon="-5.085200">
        <ele>1117.0</ele>
        <time>2015-06-07T13:23:14Z</time>
      </trkpt>
      <trkpt lat="40.182067" lon="-5.085500">
        <ele>1111.0</ele>
        <time>2015-06-07T13:23:16Z</time>
      </trkpt>
      <trkpt lat="40.182017" lon="-5.085800">
        <ele>1106.0</ele>
        <time>2015-06-07T13:23:18Z</time>
      </trkpt>
      <trkpt lat="40.181967" lon="-5.086083">
        <ele>1099.0</ele>
        <time>2015-06-07T13:23:20Z</time>
      </trkpt>
      <trkpt lat="40.181917" lon="-5.086383">
        <ele>1092.0</ele>
        <time>2015-06-07T13:23:22Z</time>
      </trkpt>
      <trkpt lat="40.181867" lon="-5.086683">
        <ele>1086.0</ele>
        <time>2015-06-07T13:23:24Z</time>
      </trkpt>
      <trkpt lat="40.181817" lon="-5.086967">
        <ele>1080.0</ele>
        <time>2015-06-07T13:23:26Z</time>
      </trkpt>
      <trkpt lat="40.181767" lon="-5.087283">
        <ele>1073.0</ele>
        <time>2015-06-07T13:23:28Z</time>
      </trkpt>
      <trkpt lat="40.181717" lon="-5.087600">
        <ele>1067.0</ele>
        <time>2015-06-07T13:23:30Z</time>
      </trkpt>
      <trkpt lat="40.181683" lon="-5.087883">
        <ele>1064.0</ele>
        <time>2015-06-07T13:23:32Z</time>
      </trkpt>
      <trkpt lat="40.181633" lon="-5.088150">
        <ele>1060.0</ele>
        <time>2015-06-07T13:23:34Z</time>
      </trkpt>
      <trkpt lat="40.181633" lon="-5.088433">
        <ele>1056.0</ele>
        <time>2015-06-07T13:23:36Z</time>
      </trkpt>
      <trkpt lat="40.181633" lon="-5.088767">
        <ele>1051.0</ele>
        <time>2015-06-07T13:23:38Z</time>
      </trkpt>
      <trkpt lat="40.181617" lon="-5.089083">
        <ele>1048.0</ele>
        <time>2015-06-07T13:23:40Z</time>
      </trkpt>
      <trkpt lat="40.181600" lon="-5.089400">
        <ele>1045.0</ele>
        <time>2015-06-07T13:23:42Z</time>
      </trkpt>
      <trkpt lat="40.181567" lon="-5.089717">
        <ele>1042.0</ele>
        <time>2015-06-07T13:23:44Z</time>
      </trkpt>
      <trkpt lat="40.181533" lon="-5.090033">
        <ele>1040.0</ele>
        <time>2015-06-07T13:23:46Z</time>
      </trkpt>
      <trkpt lat="40.181483" lon="-5.090350">
        <ele>1038.0</ele>
        <time>2015-06-07T13:23:48Z</time>
      </trkpt>
      <trkpt lat="40.181467" lon="-5.090667">
        <ele>1037.0</ele>
        <time>2015-06-07T13:23:50Z</time>
      </trkpt>
      <trkpt lat="40.181450" lon="-5.090983">
        <ele>1037.0</ele>
        <time>2015-06-07T13:23:52Z</time>
      </trkpt>
      <trkpt lat="40.181450" lon="-5.091300">
        <ele>1038.0</ele>
        <time>2015-06-07T13:23:54Z</time>
      </trkpt>
      <trkpt lat="40.181517" lon="-5.091617">
        <ele>1036.0</ele>
        <time>2015-06-07T13:23:56Z</time>
      </trkpt>
      <trkpt lat="40.181583" lon="-5.091950">
        <ele>1034.0</ele>
        <time>2015-06-07T13:23:58Z</time>
      </trkpt>
      <trkpt lat="40.181583" lon="-5.092283">
        <ele>1031.0</ele>
        <time>2015-06-07T13:24:00Z</time>
      </trkpt>
      <trkpt lat="40.181600" lon="-5.092583">
        <ele>1030.0</ele>
        <time>2015-06-07T13:24:02Z</time>
      </trkpt>
      <trkpt lat="40.181717" lon="-5.092850">
        <ele>1026.0</ele>
        <time>2015-06-07T13:24:04Z</time>
      </trkpt>
      <trkpt lat="40.181867" lon="-5.093100">
        <ele>1023.0</ele>
        <time>2015-06-07T13:24:06Z</time>
      </trkpt>
      <trkpt lat="40.182000" lon="-5.093350">
        <ele>1020.0</ele>
        <time>2015-06-07T13:24:08Z</time>
      </trkpt>
      <trkpt lat="40.182117" lon="-5.093683">
        <ele>1017.0</ele>
        <time>2015-06-07T13:24:10Z</time>
      </trkpt>
      <trkpt lat="40.182167" lon="-5.094017">
        <ele>1018.0</ele>
        <time>2015-06-07T13:24:12Z</time>
      </trkpt>
      <trkpt lat="40.182167" lon="-5.094317">
        <ele>1019.0</ele>
        <time>2015-06-07T13:24:14Z</time>
      </trkpt>
      <trkpt lat="40.182150" lon="-5.094633">
        <ele>1019.0</ele>
        <time>2015-06-07T13:24:16Z</time>
      </trkpt>
      <trkpt lat="40.182100" lon="-5.094883">
        <ele>1021.0</ele>
        <time>2015-06-07T13:24:18Z</time>
      </trkpt>
      <trkpt lat="40.182017" lon="-5.095100">
        <ele>1020.0</ele>
        <time>2015-06-07T13:24:20Z</time>
      </trkpt>
      <trkpt lat="40.181883" lon="-5.095300">
        <ele>1018.0</ele>
        <time>2015-06-07T13:24:22Z</time>
      </trkpt>
      <trkpt lat="40.181733" lon="-5.095500">
        <ele>1018.0</ele>
        <time>2015-06-07T13:24:24Z</time>
      </trkpt>
      <trkpt lat="40.181683" lon="-5.095750">
        <ele>1019.0</ele>
        <time>2015-06-07T13:24:26Z</time>
      </trkpt>
      <trkpt lat="40.181733" lon="-5.096033">
        <ele>1019.0</ele>
        <time>2015-06-07T13:24:28Z</time>
      </trkpt>
      <trkpt lat="40.181867" lon="-5.096283">
        <ele>1019.0</ele>
        <time>2015-06-07T13:24:30Z</time>
      </trkpt>
      <trkpt lat="40.182050" lon="-5.096333">
        <ele>1020.0</ele>
        <time>2015-06-07T13:24:32Z</time>
      </trkpt>
      <trkpt lat="40.182200" lon="-5.096250">
        <ele>1022.0</ele>
        <time>2015-06-07T13:24:34Z</time>
      </trkpt>
      <trkpt lat="40.182267" lon="-5.096133">
        <ele>1023.0</ele>
        <time>2015-06-07T13:24:36Z</time>
      </trkpt>
      <trkpt lat="40.182300" lon="-5.095983">
        <ele>1022.0</ele>
        <time>2015-06-07T13:24:38Z</time>
      </trkpt>
      <trkpt lat="40.182200" lon="-5.095867">
        <ele>1020.0</ele>
        <time>2015-06-07T13:24:40Z</time>
      </trkpt>
      <trkpt lat="40.182050" lon="-5.095900">
        <ele>1020.0</ele>
        <time>2015-06-07T13:24:42Z</time>
      </trkpt>
      <trkpt lat="40.181933" lon="-5.096050">
        <ele>1020.0</ele>
        <time>2015-06-07T13:24:44Z</time>
      </trkpt>
      <trkpt lat="40.181800" lon="-5.096233">
        <ele>1019.0</ele>
        <time>2015-06-07T13:24:46Z</time>
      </trkpt>
      <trkpt lat="40.181700" lon="-5.096483">
        <ele>1017.0</ele>
        <time>2015-06-07T13:24:48Z</time>
      </trkpt>
      <trkpt lat="40.181633" lon="-5.096750">
        <ele>1017.0</ele>
        <time>2015-06-07T13:24:50Z</time>
      </trkpt>
      <trkpt lat="40.181567" lon="-5.097000">
        <ele>1017.0</ele>
        <time>2015-06-07T13:24:52Z</time>
      </trkpt>
      <trkpt lat="40.181550" lon="-5.097283">
        <ele>1015.0</ele>
        <time>2015-06-07T13:24:54Z</time>
      </trkpt>
      <trkpt lat="40.181633" lon="-5.097567">
        <ele>1014.0</ele>
        <time>2015-06-07T13:24:56Z</time>
      </trkpt>
      <trkpt lat="40.181733" lon="-5.097783">
        <ele>1016.0</ele>
        <time>2015-06-07T13:24:58Z</time>
      </trkpt>
      <trkpt lat="40.181850" lon="-5.097950">
        <ele>1015.0</ele>
        <time>2015-06-07T13:25:00Z</time>
      </trkpt>
      <trkpt lat="40.182033" lon="-5.098067">
        <ele>1013.0</ele>
        <time>2015-06-07T13:25:02Z</time>
      </trkpt>
      <trkpt lat="40.182233" lon="-5.098117">
        <ele>1016.0</ele>
        <time>2015-06-07T13:25:04Z</time>
      </trkpt>
      <trkpt lat="40.182367" lon="-5.098117">
        <ele>1019.0</ele>
        <time>2015-06-07T13:25:06Z</time>
      </trkpt>
      <trkpt lat="40.182450" lon="-5.098083">
        <ele>1019.0</ele>
        <time>2015-06-07T13:25:08Z</time>
      </trkpt>
      <trkpt lat="40.182517" lon="-5.097950">
        <ele>1016.0</ele>
        <time>2015-06-07T13:25:10Z</time>
      </trkpt>
      <trkpt lat="40.182467" lon="-5.097817">
        <ele>1015.0</ele>
        <time>2015-06-07T13:25:12Z</time>
      </trkpt>
      <trkpt lat="40.182350" lon="-5.097733">
        <ele>1017.0</ele>
        <time>2015-06-07T13:25:14Z</time>
      </trkpt>
      <trkpt lat="40.182267" lon="-5.097683">
        <ele>1017.0</ele>
        <time>2015-06-07T13:25:16Z</time>
      </trkpt>
      <trkpt lat="40.182167" lon="-5.097683">
        <ele>1014.0</ele>
        <time>2015-06-07T13:25:18Z</time>
      </trkpt>
      <trkpt lat="40.182033" lon="-5.097750">
        <ele>1010.0</ele>
        <time>2015-06-07T13:25:20Z</time>
      </trkpt>
      <trkpt lat="40.181900" lon="-5.097900">
        <ele>1008.0</ele>
        <time>2015-06-07T13:25:22Z</time>
      </trkpt>
      <trkpt lat="40.181800" lon="-5.098100">
        <ele>1006.0</ele>
        <time>2015-06-07T13:25:24Z</time>
      </trkpt>
      <trkpt lat="40.181717" lon="-5.098350">
        <ele>1003.0</ele>
        <time>2015-06-07T13:25:26Z</time>
      </trkpt>
      <trkpt lat="40.181683" lon="-5.098650">
        <ele>1001.0</ele>
        <time>2015-06-07T13:25:28Z</time>
      </trkpt>
      <trkpt lat="40.181750" lon="-5.098933">
        <ele>1000.0</ele>
        <time>2015-06-07T13:25:30Z</time>
      </trkpt>
      <trkpt lat="40.181867" lon="-5.099150">
        <ele>1001.0</ele>
        <time>2015-06-07T13:25:32Z</time>
      </trkpt>
      <trkpt lat="40.182000" lon="-5.099250">
        <ele>1001.0</ele>
        <time>2015-06-07T13:25:34Z</time>
      </trkpt>
      <trkpt lat="40.182150" lon="-5.099267">
        <ele>1000.0</ele>
        <time>2015-06-07T13:25:36Z</time>
      </trkpt>
      <trkpt lat="40.182267" lon="-5.099183">
        <ele>999.0</ele>
        <time>2015-06-07T13:25:38Z</time>
      </trkpt>
      <trkpt lat="40.182333" lon="-5.099100">
        <ele>998.0</ele>
        <time>2015-06-07T13:25:40Z</time>
      </trkpt>
      <trkpt lat="40.182367" lon="-5.098983">
        <ele>996.0</ele>
        <time>2015-06-07T13:25:42Z</time>
      </trkpt>
      <trkpt lat="40.182350" lon="-5.098883">
        <ele>994.0</ele>
        <time>2015-06-07T13:25:44Z</time>
      </trkpt>
      <trkpt lat="40.182267" lon="-5.098850">
        <ele>990.0</ele>
        <time>2015-06-07T13:25:46Z</time>
      </trkpt>
      <trkpt lat="40.182133" lon="-5.098867">
        <ele>987.0</ele>
        <time>2015-06-07T13:25:48Z</time>
      </trkpt>
      <trkpt lat="40.182000" lon="-5.098967">
        <ele>984.0</ele>
        <time>2015-06-07T13:25:50Z</time>
      </trkpt>
      <trkpt lat="40.181883" lon="-5.099133">
        <ele>981.0</ele>
        <time>2015-06-07T13:25:52Z</time>
      </trkpt>
      <trkpt lat="40.181750" lon="-5.099317">
        <ele>977.0</ele>
        <time>2015-06-07T13:25:54Z</time>
      </trkpt>
      <trkpt lat="40.181633" lon="-5.099483">
        <ele>974.0</ele>
        <time>2015-06-07T13:25:56Z</time>
      </trkpt>
      <trkpt lat="40.181483" lon="-5.099683">
        <ele>970.0</ele>
        <time>2015-06-07T13:25:58Z</time>
      </trkpt>
      <trkpt lat="40.181317" lon="-5.099900">
        <ele>967.0</ele>
        <time>2015-06-07T13:26:00Z</time>
      </trkpt>
      <trkpt lat="40.181167" lon="-5.100117">
        <ele>967.0</ele>
        <time>2015-06-07T13:26:02Z</time>
      </trkpt>
      <trkpt lat="40.181017" lon="-5.100300">
        <ele>968.0</ele>
        <time>2015-06-07T13:26:04Z</time>
      </trkpt>
      <trkpt lat="40.180883" lon="-5.100533">
        <ele>968.0</ele>
        <time>2015-06-07T13:26:06Z</time>
      </trkpt>
      <trkpt lat="40.180783" lon="-5.100817">
        <ele>972.0</ele>
        <time>2015-06-07T13:26:08Z</time>
      </trkpt>
      <trkpt lat="40.180750" lon="-5.101133">
        <ele>977.0</ele>
        <time>2015-06-07T13:26:10Z</time>
      </trkpt>
      <trkpt lat="40.180833" lon="-5.101433">
        <ele>980.0</ele>
        <time>2015-06-07T13:26:12Z</time>
      </trkpt>
      <trkpt lat="40.181000" lon="-5.101650">
        <ele>983.0</ele>
        <time>2015-06-07T13:26:14Z</time>
      </trkpt>
      <trkpt lat="40.181167" lon="-5.101733">
        <ele>985.0</ele>
        <time>2015-06-07T13:26:16Z</time>
      </trkpt>
      <trkpt lat="40.181283" lon="-5.101717">
        <ele>985.0</ele>
        <time>2015-06-07T13:26:18Z</time>
      </trkpt>
      <trkpt lat="40.181283" lon="-5.101583">
        <ele>981.0</ele>
        <time>2015-06-07T13:26:20Z</time>
      </trkpt>
      <trkpt lat="40.181133" lon="-5.101483">
        <ele>980.0</ele>
        <time>2015-06-07T13:26:22Z</time>
      </trkpt>
      <trkpt lat="40.180983" lon="-5.101500">
        <ele>984.0</ele>
        <time>2015-06-07T13:26:24Z</time>
      </trkpt>
      <trkpt lat="40.180850" lon="-5.101517">
        <ele>987.0</ele>
        <time>2015-06-07T13:26:26Z</time>
      </trkpt>
      <trkpt lat="40.180683" lon="-5.101567">
        <ele>991.0</ele>
        <time>2015-06-07T13:26:28Z</time>
      </trkpt>
      <trkpt lat="40.180533" lon="-5.101717">
        <ele>997.0</ele>
        <time>2015-06-07T13:26:30Z</time>
      </trkpt>
      <trkpt lat="40.180433" lon="-5.101917">
        <ele>1002.0</ele>
        <time>2015-06-07T13:26:32Z</time>
      </trkpt>
      <trkpt lat="40.180333" lon="-5.102200">
        <ele>1006.0</ele>
        <time>2015-06-07T13:26:34Z</time>
      </trkpt>
      <trkpt lat="40.180283" lon="-5.102500">
        <ele>1014.0</ele>
        <time>2015-06-07T13:26:36Z</time>
      </trkpt>
      <trkpt lat="40.180300" lon="-5.102767">
        <ele>1023.0</ele>
        <time>2015-06-07T13:26:38Z</time>
      </trkpt>
      <trkpt lat="40.180367" lon="-5.103000">
        <ele>1027.0</ele>
        <time>2015-06-07T13:26:40Z</time>
      </trkpt>
      <trkpt lat="40.180550" lon="-5.103183">
        <ele>1029.0</ele>
        <time>2015-06-07T13:26:42Z</time>
      </trkpt>
      <trkpt lat="40.180733" lon="-5.103150">
        <ele>1035.0</ele>
        <time>2015-06-07T13:26:44Z</time>
      </trkpt>
      <trkpt lat="40.180750" lon="-5.102967">
        <ele>1039.0</ele>
        <time>2015-06-07T13:26:46Z</time>
      </trkpt>
      <trkpt lat="40.180700" lon="-5.102833">
        <ele>1047.0</ele>
        <time>2015-06-07T13:26:48Z</time>
      </trkpt>
      <trkpt lat="40.180650" lon="-5.102733">
        <ele>1053.0</ele>
        <time>2015-06-07T13:26:50Z</time>
      </trkpt>
      <trkpt lat="40.180500" lon="-5.102717">
        <ele>1057.0</ele>
        <time>2015-06-07T13:26:52Z</time>
      </trkpt>
      <trkpt lat="40.180350" lon="-5.102833">
        <ele>1064.0</ele>
        <time>2015-06-07T13:26:54Z</time>
      </trkpt>
      <trkpt lat="40.180250" lon="-5.103083">
        <ele>1072.0</ele>
        <time>2015-06-07T13:26:56Z</time>
      </trkpt>
      <trkpt lat="40.180250" lon="-5.103383">
        <ele>1078.0</ele>
        <time>2015-06-07T13:26:58Z</time>
      </trkpt>
      <trkpt lat="40.180333" lon="-5.103683">
        <ele>1085.0</ele>
        <time>2015-06-07T13:27:00Z</time>
      </trkpt>
      <trkpt lat="40.180467" lon="-5.103883">
        <ele>1092.0</ele>
        <time>2015-06-07T13:27:02Z</time>
      </trkpt>
      <trkpt lat="40.180617" lon="-5.103983">
        <ele>1099.0</ele>
        <time>2015-06-07T13:27:04Z</time>
      </trkpt>
      <trkpt lat="40.180733" lon="-5.103933">
        <ele>1103.0</ele>
        <time>2015-06-07T13:27:06Z</time>
      </trkpt>
      <trkpt lat="40.180767" lon="-5.103783">
        <ele>1105.0</ele>
        <time>2015-06-07T13:27:08Z</time>
      </trkpt>
      <trkpt lat="40.180700" lon="-5.103633">
        <ele>1111.0</ele>
        <time>2015-06-07T13:27:10Z</time>
      </trkpt>
      <trkpt lat="40.180600" lon="-5.103567">
        <ele>1120.0</ele>
        <time>2015-06-07T13:27:12Z</time>
      </trkpt>
      <trkpt lat="40.180483" lon="-5.103617">
        <ele>1127.0</ele>
        <time>2015-06-07T13:27:14Z</time>
      </trkpt>
      <trkpt lat="40.180350" lon="-5.103800">
        <ele>1131.0</ele>
        <time>2015-06-07T13:27:16Z</time>
      </trkpt>
      <trkpt lat="40.180250" lon="-5.104033">
        <ele>1137.0</ele>
        <time>2015-06-07T13:27:18Z</time>
      </trkpt>
      <trkpt lat="40.180217" lon="-5.104317">
        <ele>1142.0</ele>
        <time>2015-06-07T13:27:20Z</time>
      </trkpt>
      <trkpt lat="40.180200" lon="-5.104617">
        <ele>1146.0</ele>
        <time>2015-06-07T13:27:22Z</time>
      </trkpt>
      <trkpt lat="40.180267" lon="-5.104950">
        <ele>1153.0</ele>
        <time>2015-06-07T13:27:24Z</time>
      </trkpt>
      <trkpt lat="40.180367" lon="-5.105150">
        <ele>1162.0</ele>
        <time>2015-06-07T13:27:26Z</time>
      </trkpt>
      <trkpt lat="40.180500" lon="-5.105267">
        <ele>1166.0</ele>
        <time>2015-06-07T13:27:28Z</time>
      </trkpt>
      <trkpt lat="40.180650" lon="-5.105300">
        <ele>1169.0</ele>
        <time>2015-06-07T13:27:30Z</time>
      </trkpt>
      <trkpt lat="40.180733" lon="-5.105183">
        <ele>1173.0</ele>
        <time>2015-06-07T13:27:32Z</time>
      </trkpt>
      <trkpt lat="40.180700" lon="-5.105067">
        <ele>1181.0</ele>
        <time>2015-06-07T13:27:34Z</time>
      </trkpt>
      <trkpt lat="40.180667" lon="-5.105033">
        <ele>1188.0</ele>
        <time>2015-06-07T13:27:36Z</time>
      </trkpt>
      <trkpt lat="40.180583" lon="-5.104983">
        <ele>1191.0</ele>
        <time>2015-06-07T13:27:38Z</time>
      </trkpt>
      <trkpt lat="40.180433" lon="-5.105033">
        <ele>1196.0</ele>
        <time>2015-06-07T13:27:40Z</time>
      </trkpt>
      <trkpt lat="40.180300" lon="-5.105183">
        <ele>1202.0</ele>
        <time>2015-06-07T13:27:42Z</time>
      </trkpt>
      <trkpt lat="40.180217" lon="-5.105383">
        <ele>1206.0</ele>
        <time>2015-06-07T13:27:44Z</time>
      </trkpt>
      <trkpt lat="40.180150" lon="-5.105633">
        <ele>1209.0</ele>
        <time>2015-06-07T13:27:46Z</time>
      </trkpt>
      <trkpt lat="40.180200" lon="-5.105917">
        <ele>1215.0</ele>
        <time>2015-06-07T13:27:48Z</time>
      </trkpt>
      <trkpt lat="40.180350" lon="-5.106100">
        <ele>1219.0</ele>
        <time>2015-06-07T13:27:50Z</time>
      </trkpt>
      <trkpt lat="40.180533" lon="-5.106117">
        <ele>1225.0</ele>
        <time>2015-06-07T13:27:52Z</time>
      </trkpt>
      <trkpt lat="40.180650" lon="-5.106033">
        <ele>1234.0</ele>
        <time>2015-06-07T13:27:54Z</time>
      </trkpt>
      <trkpt lat="40.180700" lon="-5.105950">
        <ele>1241.0</ele>
        <time>2015-06-07T13:27:56Z</time>
      </trkpt>
      <trkpt lat="40.180717" lon="-5.105867">
        <ele>1246.0</ele>
        <time>2015-06-07T13:27:58Z</time>
      </trkpt>
      <trkpt lat="40.180667" lon="-5.105783">
        <ele>1250.0</ele>
        <time>2015-06-07T13:28:00Z</time>
      </trkpt>
      <trkpt lat="40.180583" lon="-5.105800">
        <ele>1255.0</ele>
        <time>2015-06-07T13:28:02Z</time>
      </trkpt>
      <trkpt lat="40.180467" lon="-5.105867">
        <ele>1259.0</ele>
        <time>2015-06-07T13:28:04Z</time>
      </trkpt>
      <trkpt lat="40.180350" lon="-5.105967">
        <ele>1262.0</ele>
        <time>2015-06-07T13:28:06Z</time>
      </trkpt>
      <trkpt lat="40.180267" lon="-5.106183">
        <ele>1264.0</ele>
        <time>2015-06-07T13:28:08Z</time>
      </trkpt>
      <trkpt lat="40.180233" lon="-5.106450">
        <ele>1264.0</ele>
        <time>2015-06-07T13:28:10Z</time>
      </trkpt>
      <trkpt lat="40.180233" lon="-5.106733">
        <ele>1264.0</ele>
        <time>2015-06-07T13:28:12Z</time>
      </trkpt>
      <trkpt lat="40.180333" lon="-5.107050">
        <ele>1265.0</ele>
        <time>2015-06-07T13:28:14Z</time>
      </trkpt>
      <trkpt lat="40.180467" lon="-5.107283">
        <ele>1267.0</ele>
        <time>2015-06-07T13:28:16Z</time>
      </trkpt>
      <trkpt lat="40.180650" lon="-5.107417">
        <ele>1271.0</ele>
        <time>2015-06-07T13:28:18Z</time>
      </trkpt>
      <trkpt lat="40.180833" lon="-5.107483">
        <ele>1276.0</ele>
        <time>2015-06-07T13:28:20Z</time>
      </trkpt>
      <trkpt lat="40.180967" lon="-5.107483">
        <ele>1282.0</ele>
        <time>2015-06-07T13:28:22Z</time>
      </trkpt>
      <trkpt lat="40.181067" lon="-5.107433">
        <ele>1285.0</ele>
        <time>2015-06-07T13:28:24Z</time>
      </trkpt>
      <trkpt lat="40.181150" lon="-5.107333">
        <ele>1290.0</ele>
        <time>2015-06-07T13:28:26Z</time>
      </trkpt>
      <trkpt lat="40.181167" lon="-5.107233">
        <ele>1295.0</ele>
        <time>2015-06-07T13:28:28Z</time>
      </trkpt>
      <trkpt lat="40.181100" lon="-5.107133">
        <ele>1298.0</ele>
        <time>2015-06-07T13:28:30Z</time>
      </trkpt>
      <trkpt lat="40.181000" lon="-5.107117">
        <ele>1302.0</ele>
        <time>2015-06-07T13:28:32Z</time>
      </trkpt>
      <trkpt lat="40.180867" lon="-5.107200">
        <ele>1307.0</ele>
        <time>2015-06-07T13:28:34Z</time>
      </trkpt>
      <trkpt lat="40.180783" lon="-5.107333">
        <ele>1312.0</ele>
        <time>2015-06-07T13:28:36Z</time>
      </trkpt>
      <trkpt lat="40.180800" lon="-5.107600">
        <ele>1313.0</ele>
        <time>2015-06-07T13:28:38Z</time>
      </trkpt>
      <trkpt lat="40.180900" lon="-5.107883">
        <ele>1316.0</ele>
        <time>2015-06-07T13:28:40Z</time>
      </trkpt>
      <trkpt lat="40.181017" lon="-5.108083">
        <ele>1324.0</ele>
        <time>2015-06-07T13:28:42Z</time>
      </trkpt>
      <trkpt lat="40.181117" lon="-5.108250">
        <ele>1329.0</ele>
        <time>2015-06-07T13:28:44Z</time>
      </trkpt>
      <trkpt lat="40.181267" lon="-5.108350">
        <ele>1330.0</ele>
        <time>2015-06-07T13:28:46Z</time>
      </trkpt>
      <trkpt lat="40.181433" lon="-5.108317">
        <ele>1332.0</ele>
        <time>2015-06-07T13:28:48Z</time>
      </trkpt>
      <trkpt lat="40.181500" lon="-5.108233">
        <ele>1336.0</ele>
        <time>2015-06-07T13:28:50Z</time>
      </trkpt>
      <trkpt lat="40.181500" lon="-5.108117">
        <ele>1338.0</ele>
        <time>2015-06-07T13:28:52Z</time>
      </trkpt>
      <trkpt lat="40.181450" lon="-5.107983">
        <ele>1341.0</ele>
        <time>2015-06-07T13:28:54Z</time>
      </trkpt>
      <trkpt lat="40.181350" lon="-5.107933">
        <ele>1344.0</ele>
        <time>2015-06-07T13:28:56Z</time>
      </trkpt>
      <trkpt lat="40.181217" lon="-5.107983">
        <ele>1347.0</ele>
        <time>2015-06-07T13:28:58Z</time>
      </trkpt>
      <trkpt lat="40.181100" lon="-5.108133">
        <ele>1348.0</ele>
        <time>2015-06-07T13:29:00Z</time>
      </trkpt>
      <trkpt lat="40.181033" lon="-5.108367">
        <ele>1349.0</ele>
        <time>2015-06-07T13:29:02Z</time>
      </trkpt>
      <trkpt lat="40.181033" lon="-5.108683">
        <ele>1350.0</ele>
        <time>2015-06-07T13:29:04Z</time>
      </trkpt>
      <trkpt lat="40.181117" lon="-5.108983">
        <ele>1351.0</ele>
        <time>2015-06-07T13:29:06Z</time>
      </trkpt>
      <trkpt lat="40.181267" lon="-5.109267">
        <ele>1354.0</ele>
        <time>2015-06-07T13:29:08Z</time>
      </trkpt>
      <trkpt lat="40.181417" lon="-5.109517">
        <ele>1362.0</ele>
        <time>2015-06-07T13:29:10Z</time>
      </trkpt>
      <trkpt lat="40.181567" lon="-5.109650">
        <ele>1366.0</ele>
        <time>2015-06-07T13:29:12Z</time>
      </trkpt>
      <trkpt lat="40.181733" lon="-5.109717">
        <ele>1368.0</ele>
        <time>2015-06-07T13:29:14Z</time>
      </trkpt>
      <trkpt lat="40.181867" lon="-5.109650">
        <ele>1373.0</ele>
        <time>2015-06-07T13:29:16Z</time>
      </trkpt>
      <trkpt lat="40.181867" lon="-5.109483">
        <ele>1378.0</ele>
        <time>2015-06-07T13:29:18Z</time>
      </trkpt>
      <trkpt lat="40.181817" lon="-5.109400">
        <ele>1383.0</ele>
        <time>2015-06-07T13:29:20Z</time>
      </trkpt>
      <trkpt lat="40.181733" lon="-5.109333">
        <ele>1384.0</ele>
        <time>2015-06-07T13:29:22Z</time>
      </trkpt>
      <trkpt lat="40.181600" lon="-5.109283">
        <ele>1386.0</ele>
        <time>2015-06-07T13:29:24Z</time>
      </trkpt>
      <trkpt lat="40.181467" lon="-5.109417">
        <ele>1388.0</ele>
        <time>2015-06-07T13:29:26Z</time>
      </trkpt>
      <trkpt lat="40.181350" lon="-5.109617">
        <ele>1391.0</ele>
        <time>2015-06-07T13:29:28Z</time>
      </trkpt>
      <trkpt lat="40.181283" lon="-5.109850">
        <ele>1393.0</ele>
        <time>2015-06-07T13:29:30Z</time>
      </trkpt>
      <trkpt lat="40.181267" lon="-5.110167">
        <ele>1394.0</ele>
        <time>2015-06-07T13:29:32Z</time>
      </trkpt>
      <trkpt lat="40.181333" lon="-5.110483">
        <ele>1396.0</ele>
        <time>2015-06-07T13:29:34Z</time>
      </trkpt>
      <trkpt lat="40.181500" lon="-5.110750">
        <ele>1398.0</ele>
        <time>2015-06-07T13:29:36Z</time>
      </trkpt>
      <trkpt lat="40.181650" lon="-5.110950">
        <ele>1404.0</ele>
        <time>2015-06-07T13:29:38Z</time>
      </trkpt>
      <trkpt lat="40.181783" lon="-5.111083">
        <ele>1409.0</ele>
        <time>2015-06-07T13:29:40Z</time>
      </trkpt>
      <trkpt lat="40.181950" lon="-5.111117">
        <ele>1410.0</ele>
        <time>2015-06-07T13:29:42Z</time>
      </trkpt>
      <trkpt lat="40.182083" lon="-5.111000">
        <ele>1413.0</ele>
        <time>2015-06-07T13:29:44Z</time>
      </trkpt>
      <trkpt lat="40.182133" lon="-5.110883">
        <ele>1421.0</ele>
        <time>2015-06-07T13:29:46Z</time>
      </trkpt>
      <trkpt lat="40.182150" lon="-5.110817">
        <ele>1425.0</ele>
        <time>2015-06-07T13:29:48Z</time>
      </trkpt>
      <trkpt lat="40.182083" lon="-5.110700">
        <ele>1427.0</ele>
        <time>2015-06-07T13:29:50Z</time>
      </trkpt>
      <trkpt lat="40.181933" lon="-5.110683">
        <ele>1428.0</ele>
        <time>2015-06-07T13:29:52Z</time>
      </trkpt>
      <trkpt lat="40.181800" lon="-5.110783">
        <ele>1432.0</ele>
        <time>2015-06-07T13:29:54Z</time>
      </trkpt>
      <trkpt lat="40.181683" lon="-5.110900">
        <ele>1434.0</ele>
        <time>2015-06-07T13:29:56Z</time>
      </trkpt>
      <trkpt lat="40.181550" lon="-5.111150">
        <ele>1435.0</ele>
        <time>2015-06-07T13:29:58Z</time>
      </trkpt>
      <trkpt lat="40.181483" lon="-5.111450">
        <ele>1439.0</ele>
        <time>2015-06-07T13:30:00Z</time>
      </trkpt>
      <trkpt lat="40.181500" lon="-5.111750">
        <ele>1442.0</ele>
        <time>2015-06-07T13:30:02Z</time>
      </trkpt>
      <trkpt lat="40.181583" lon="-5.112067">
        <ele>1443.0</ele>
        <time>2015-06-07T13:30:04Z</time>
      </trkpt>
      <trkpt lat="40.181750" lon="-5.112300">
        <ele>1446.0</ele>
        <time>2015-06-07T13:30:06Z</time>
      </trkpt>
      <trkpt lat="40.181917" lon="-5.112400">
        <ele>1453.0</ele>
        <time>2015-06-07T13:30:08Z</time>
      </trkpt>
      <trkpt lat="40.182017" lon="-5.112417">
        <ele>1458.0</ele>
        <time>2015-06-07T13:30:10Z</time>
      </trkpt>
      <trkpt lat="40.182117" lon="-5.112383">
        <ele>1459.0</ele>
        <time>2015-06-07T13:30:12Z</time>
      </trkpt>
      <trkpt lat="40.182150" lon="-5.112250">
        <ele>1460.0</ele>
        <time>2015-06-07T13:30:14Z</time>
      </trkpt>
      <trkpt lat="40.182067" lon="-5.112117">
        <ele>1464.0</ele>
        <time>2015-06-07T13:30:16Z</time>
      </trkpt>
      <trkpt lat="40.181983" lon="-5.112050">
        <ele>1469.0</ele>
        <time>2015-06-07T13:30:18Z</time>
      </trkpt>
      <trkpt lat="40.181883" lon="-5.112033">
        <ele>1471.0</ele>
        <time>2015-06-07T13:30:20Z</time>
      </trkpt>
      <trkpt lat="40.181733" lon="-5.112067">
        <ele>1469.0</ele>
        <time>2015-06-07T13:30:22Z</time>
      </trkpt>
      <trkpt lat="40.181567" lon="-5.112250">
        <ele>1471.0</ele>
        <time>2015-06-07T13:30:24Z</time>
      </trkpt>
      <trkpt lat="40.181467" lon="-5.112467">
        <ele>1474.0</ele>
        <time>2015-06-07T13:30:26Z</time>
      </trkpt>
      <trkpt lat="40.181417" lon="-5.112733">
        <ele>1474.0</ele>
        <time>2015-06-07T13:30:28Z</time>
      </trkpt>
      <trkpt lat="40.181417" lon="-5.113067">
        <ele>1475.0</ele>
        <time>2015-06-07T13:30:30Z</time>
      </trkpt>
      <trkpt lat="40.181517" lon="-5.113367">
        <ele>1479.0</ele>
        <time>2015-06-07T13:30:32Z</time>
      </trkpt>
      <trkpt lat="40.181633" lon="-5.113600">
        <ele>1482.0</ele>
        <time>2015-06-07T13:30:34Z</time>
      </trkpt>
      <trkpt lat="40.181800" lon="-5.113800">
        <ele>1482.0</ele>
        <time>2015-06-07T13:30:36Z</time>
      </trkpt>
      <trkpt lat="40.182000" lon="-5.113900">
        <ele>1485.0</ele>
        <time>2015-06-07T13:30:38Z</time>
      </trkpt>
      <trkpt lat="40.182133" lon="-5.113900">
        <ele>1488.0</ele>
        <time>2015-06-07T13:30:40Z</time>
      </trkpt>
      <trkpt lat="40.182250" lon="-5.113883">
        <ele>1488.0</ele>
        <time>2015-06-07T13:30:42Z</time>
      </trkpt>
      <trkpt lat="40.182350" lon="-5.113783">
        <ele>1487.0</ele>
        <time>2015-06-07T13:30:44Z</time>
      </trkpt>
      <trkpt lat="40.182350" lon="-5.113633">
        <ele>1488.0</ele>
        <time>2015-06-07T13:30:46Z</time>
      </trkpt>
      <trkpt lat="40.182283" lon="-5.113567">
        <ele>1491.0</ele>
        <time>2015-06-07T13:30:48Z</time>
      </trkpt>
      <trkpt lat="40.182183" lon="-5.113533">
        <ele>1492.0</ele>
        <time>2015-06-07T13:30:50Z</time>
      </trkpt>
      <trkpt lat="40.182033" lon="-5.113567">
        <ele>1492.0</ele>
        <time>2015-06-07T13:30:52Z</time>
      </trkpt>
      <trkpt lat="40.181883" lon="-5.113683">
        <ele>1495.0</ele>
        <time>2015-06-07T13:30:54Z</time>
      </trkpt>
      <trkpt lat="40.181767" lon="-5.113883">
        <ele>1498.0</ele>
        <time>2015-06-07T13:30:56Z</time>
      </trkpt>
      <trkpt lat="40.181683" lon="-5.114133">
        <ele>1500.0</ele>
        <time>2015-06-07T13:30:58Z</time>
      </trkpt>
      <trkpt lat="40.181633" lon="-5.114450">
        <ele>1501.0</ele>
        <time>2015-06-07T13:31:00Z</time>
      </trkpt>
      <trkpt lat="40.181683" lon="-5.114800">
        <ele>1504.0</ele>
        <time>2015-06-07T13:31:02Z</time>
      </trkpt>
      <trkpt lat="40.181783" lon="-5.115100">
        <ele>1507.0</ele>
        <time>2015-06-07T13:31:04Z</time>
      </trkpt>
      <trkpt lat="40.181917" lon="-5.115350">
        <ele>1509.0</ele>
        <time>2015-06-07T13:31:06Z</time>
      </trkpt>
      <trkpt lat="40.182117" lon="-5.115533">
        <ele>1508.0</ele>
        <time>2015-06-07T13:31:08Z</time>
      </trkpt>
      <trkpt lat="40.182350" lon="-5.115567">
        <ele>1509.0</ele>
        <time>2015-06-07T13:31:10Z</time>
      </trkpt>
      <trkpt lat="40.182500" lon="-5.115483">
        <ele>1511.0</ele>
        <time>2015-06-07T13:31:12Z</time>
      </trkpt>
      <trkpt lat="40.182583" lon="-5.115400">
        <ele>1514.0</ele>
        <time>2015-06-07T13:31:14Z</time>
      </trkpt>
      <trkpt lat="40.182600" lon="-5.115317">
        <ele>1514.0</ele>
        <time>2015-06-07T13:31:16Z</time>
      </trkpt>
      <trkpt lat="40.182533" lon="-5.115233">
        <ele>1514.0</ele>
        <time>2015-06-07T13:31:18Z</time>
      </trkpt>
      <trkpt lat="40.182433" lon="-5.115233">
        <ele>1515.0</ele>
        <time>2015-06-07T13:31:20Z</time>
      </trkpt>
      <trkpt lat="40.182300" lon="-5.115267">
        <ele>1517.0</ele>
        <time>2015-06-07T13:31:22Z</time>
      </trkpt>
      <trkpt lat="40.182167" lon="-5.115400">
        <ele>1519.0</ele>
        <time>2015-06-07T13:31:24Z</time>
      </trkpt>
      <trkpt lat="40.182067" lon="-5.115633">
        <ele>1521.0</ele>
        <time>2015-06-07T13:31:26Z</time>
      </trkpt>
      <trkpt lat="40.182033" lon="-5.115917">
        <ele>1522.0</ele>
        <time>2015-06-07T13:31:28Z</time>
      </trkpt>
      <trkpt lat="40.182050" lon="-5.116200">
        <ele>1523.0</ele>
        <time>2015-06-07T13:31:30Z</time>
      </trkpt>
      <trkpt lat="40.182117" lon="-5.116500">
        <ele>1524.0</ele>
        <time>2015-06-07T13:31:32Z</time>
      </trkpt>
      <trkpt lat="40.182283" lon="-5.116750">
        <ele>1526.0</ele>
        <time>2015-06-07T13:31:34Z</time>
      </trkpt>
      <trkpt lat="40.182467" lon="-5.116933">
        <ele>1530.0</ele>
        <time>2015-06-07T13:31:36Z</time>
      </trkpt>
      <trkpt lat="40.182650" lon="-5.117100">
        <ele>1532.0</ele>
        <time>2015-06-07T13:31:38Z</time>
      </trkpt>
      <trkpt lat="40.182867" lon="-5.117150">
        <ele>1532.0</ele>
        <time>2015-06-07T13:31:40Z</time>
      </trkpt>
      <trkpt lat="40.183050" lon="-5.117100">
        <ele>1534.0</ele>
        <time>2015-06-07T13:31:42Z</time>
      </trkpt>
      <trkpt lat="40.183150" lon="-5.117000">
        <ele>1536.0</ele>
        <time>2015-06-07T13:31:44Z</time>
      </trkpt>
      <trkpt lat="40.183200" lon="-5.116900">
        <ele>1537.0</ele>
        <time>2015-06-07T13:31:46Z</time>
      </trkpt>
      <trkpt lat="40.183183" lon="-5.116767">
        <ele>1538.0</ele>
        <time>2015-06-07T13:31:48Z</time>
      </trkpt>
      <trkpt lat="40.183150" lon="-5.116683">
        <ele>1541.0</ele>
        <time>2015-06-07T13:31:50Z</time>
      </trkpt>
      <trkpt lat="40.183067" lon="-5.116667">
        <ele>1543.0</ele>
        <time>2015-06-07T13:31:52Z</time>
      </trkpt>
      <trkpt lat="40.182967" lon="-5.116700">
        <ele>1542.0</ele>
        <time>2015-06-07T13:31:54Z</time>
      </trkpt>
      <trkpt lat="40.182833" lon="-5.116833">
        <ele>1542.0</ele>
        <time>2015-06-07T13:31:56Z</time>
      </trkpt>
      <trkpt lat="40.182733" lon="-5.117033">
        <ele>1543.0</ele>
        <time>2015-06-07T13:31:58Z</time>
      </trkpt>
      <trkpt lat="40.182667" lon="-5.117317">
        <ele>1544.0</ele>
        <time>2015-06-07T13:32:00Z</time>
      </trkpt>
      <trkpt lat="40.182667" lon="-5.117617">
        <ele>1547.0</ele>
        <time>2015-06-07T13:32:02Z</time>
      </trkpt>
      <trkpt lat="40.182750" lon="-5.117933">
        <ele>1550.0</ele>
        <time>2015-06-07T13:32:04Z</time>
      </trkpt>
      <trkpt lat="40.182867" lon="-5.118200">
        <ele>1553.0</ele>
        <time>2015-06-07T13:32:06Z</time>
      </trkpt>
      <trkpt lat="40.183033" lon="-5.118450">
        <ele>1555.0</ele>
        <time>2015-06-07T13:32:08Z</time>
      </trkpt>
      <trkpt lat="40.183233" lon="-5.118650">
        <ele>1557.0</ele>
        <time>2015-06-07T13:32:10Z</time>
      </trkpt>
      <trkpt lat="40.183450" lon="-5.118733">
        <ele>1561.0</ele>
        <time>2015-06-07T13:32:12Z</time>
      </trkpt>
      <trkpt lat="40.183633" lon="-5.118750">
        <ele>1565.0</ele>
        <time>2015-06-07T13:32:14Z</time>
      </trkpt>
      <trkpt lat="40.183783" lon="-5.118683">
        <ele>1566.0</ele>
        <time>2015-06-07T13:32:16Z</time>
      </trkpt>
      <trkpt lat="40.183867" lon="-5.118567">
        <ele>1567.0</ele>
        <time>2015-06-07T13:32:18Z</time>
      </trkpt>
      <trkpt lat="40.183867" lon="-5.118433">
        <ele>1569.0</ele>
        <time>2015-06-07T13:32:20Z</time>
      </trkpt>
      <trkpt lat="40.183833" lon="-5.118350">
        <ele>1571.0</ele>
        <time>2015-06-07T13:32:22Z</time>
      </trkpt>
      <trkpt lat="40.183733" lon="-5.118317">
        <ele>1572.0</ele>
        <time>2015-06-07T13:32:24Z</time>
      </trkpt>
      <trkpt lat="40.183600" lon="-5.118400">
        <ele>1574.0</ele>
        <time>2015-06-07T13:32:26Z</time>
      </trkpt>
      <trkpt lat="40.183500" lon="-5.118583">
        <ele>1576.0</ele>
        <time>2015-06-07T13:32:28Z</time>
      </trkpt>
      <trkpt lat="40.183433" lon="-5.118817">
        <ele>1578.0</ele>
        <time>2015-06-07T13:32:30Z</time>
      </trkpt>
      <trkpt lat="40.183400" lon="-5.119083">
        <ele>1580.0</ele>
        <time>2015-06-07T13:32:32Z</time>
      </trkpt>
      <trkpt lat="40.183433" lon="-5.119383">
        <ele>1584.0</ele>
        <time>2015-06-07T13:32:34Z</time>
      </trkpt>
      <trkpt lat="40.183533" lon="-5.119683">
        <ele>1589.0</ele>
        <time>2015-06-07T13:32:36Z</time>
      </trkpt>
      <trkpt lat="40.183683" lon="-5.119933">
        <ele>1594.0</ele>
        <time>2015-06-07T13:32:38Z</time>
      </trkpt>
      <trkpt lat="40.183883" lon="-5.120100">
        <ele>1597.0</ele>
        <time>2015-06-07T13:32:40Z</time>
      </trkpt>
      <trkpt lat="40.184100" lon="-5.120150">
        <ele>1601.0</ele>
        <time>2015-06-07T13:32:42Z</time>
      </trkpt>
      <trkpt lat="40.184267" lon="-5.120117">
        <ele>1604.0</ele>
        <time>2015-06-07T13:32:44Z</time>
      </trkpt>
      <trkpt lat="40.184367" lon="-5.120017">
        <ele>1603.0</ele>
        <time>2015-06-07T13:32:46Z</time>
      </trkpt>
      <trkpt lat="40.184417" lon="-5.119867">
        <ele>1603.0</ele>
        <time>2015-06-07T13:32:48Z</time>
      </trkpt>
      <trkpt lat="40.184367" lon="-5.119750">
        <ele>1604.0</ele>
        <time>2015-06-07T13:32:50Z</time>
      </trkpt>
      <trkpt lat="40.184283" lon="-5.119683">
        <ele>1606.0</ele>
        <time>2015-06-07T13:32:52Z</time>
      </trkpt>
      <trkpt lat="40.184183" lon="-5.119667">
        <ele>1608.0</ele>
        <time>2015-06-07T13:32:54Z</time>
      </trkpt>
      <trkpt lat="40.184067" lon="-5.119733">
        <ele>1608.0</ele>
        <time>2015-06-07T13:32:56Z</time>
      </trkpt>
      <trkpt lat="40.183967" lon="-5.119900">
        <ele>1610.0</ele>
        <time>2015-06-07T13:32:58Z</time>
      </trkpt>
      <trkpt lat="40.183883" lon="-5.120083">
        <ele>1615.0</ele>
        <time>2015-06-07T13:33:00Z</time>
      </trkpt>
      <trkpt lat="40.183817" lon="-5.120317">
        <ele>1617.0</ele>
        <time>2015-06-07T13:33:02Z</time>
      </trkpt>
      <trkpt lat="40.183750" lon="-5.120600">
        <ele>1621.0</ele>
        <time>2015-06-07T13:33:04Z</time>
      </trkpt>
      <trkpt lat="40.183767" lon="-5.120900">
        <ele>1631.0</ele>
        <time>2015-06-07T13:33:06Z</time>
      </trkpt>
      <trkpt lat="40.183833" lon="-5.121133">
        <ele>1639.0</ele>
        <time>2015-06-07T13:33:08Z</time>
      </trkpt>
      <trkpt lat="40.183967" lon="-5.121383">
        <ele>1643.0</ele>
        <time>2015-06-07T13:33:10Z</time>
      </trkpt>
      <trkpt lat="40.184183" lon="-5.121517">
        <ele>1649.0</ele>
        <time>2015-06-07T13:33:12Z</time>
      </trkpt>
      <trkpt lat="40.184383" lon="-5.121517">
        <ele>1658.0</ele>
        <time>2015-06-07T13:33:14Z</time>
      </trkpt>
      <trkpt lat="40.184550" lon="-5.121467">
        <ele>1666.0</ele>
        <time>2015-06-07T13:33:16Z</time>
      </trkpt>
      <trkpt lat="40.184650" lon="-5.121333">
        <ele>1672.0</ele>
        <time>2015-06-07T13:33:18Z</time>
      </trkpt>
      <trkpt lat="40.184617" lon="-5.121167">
        <ele>1676.0</ele>
        <time>2015-06-07T13:33:20Z</time>
      </trkpt>
      <trkpt lat="40.184500" lon="-5.121100">
        <ele>1681.0</ele>
        <time>2015-06-07T13:33:22Z</time>
      </trkpt>
      <trkpt lat="40.184367" lon="-5.121167">
        <ele>1685.0</ele>
        <time>2015-06-07T13:33:24Z</time>
      </trkpt>
      <trkpt lat="40.184217" lon="-5.121300">
        <ele>1690.0</ele>
        <time>2015-06-07T13:33:26Z</time>
      </trkpt>
      <trkpt lat="40.184117" lon="-5.121533">
        <ele>1696.0</ele>
        <time>2015-06-07T13:33:28Z</time>
      </trkpt>
      <trkpt lat="40.184083" lon="-5.121850">
        <ele>1702.0</ele>
        <time>2015-06-07T13:33:30Z</time>
      </trkpt>
      <trkpt lat="40.184100" lon="-5.122133">
        <ele>1711.0</ele>
        <time>2015-06-07T13:33:32Z</time>
      </trkpt>
      <trkpt lat="40.184200" lon="-5.122417">
        <ele>1716.0</ele>
        <time>2015-06-07T13:33:34Z</time>
      </trkpt>
      <trkpt lat="40.184367" lon="-5.122700">
        <ele>1723.0</ele>
        <time>2015-06-07T13:33:36Z</time>
      </trkpt>
      <trkpt lat="40.184567" lon="-5.122867">
        <ele>1733.0</ele>
        <time>2015-06-07T13:33:38Z</time>
      </trkpt>
      <trkpt lat="40.184767" lon="-5.122933">
        <ele>1741.0</ele>
        <time>2015-06-07T13:33:40Z</time>
      </trkpt>
      <trkpt lat="40.184950" lon="-5.122917">
        <ele>1747.0</ele>
        <time>2015-06-07T13:33:42Z</time>
      </trkpt>
      <trkpt lat="40.185083" lon="-5.122800">
        <ele>1753.0</ele>
        <time>2015-06-07T13:33:44Z</time>
      </trkpt>
      <trkpt lat="40.185117" lon="-5.122650">
        <ele>1759.0</ele>
        <time>2015-06-07T13:33:46Z</time>
      </trkpt>
      <trkpt lat="40.185083" lon="-5.122567">
        <ele>1764.0</ele>
        <time>2015-06-07T13:33:48Z</time>
      </trkpt>
      <trkpt lat="40.184967" lon="-5.122550">
        <ele>1769.0</ele>
        <time>2015-06-07T13:33:50Z</time>
      </trkpt>
      <trkpt lat="40.184817" lon="-5.122633">
        <ele>1774.0</ele>
        <time>2015-06-07T13:33:52Z</time>
      </trkpt>
      <trkpt lat="40.184717" lon="-5.122833">
        <ele>1782.0</ele>
        <time>2015-06-07T13:33:54Z</time>
      </trkpt>
      <trkpt lat="40.184650" lon="-5.123050">
        <ele>1789.0</ele>
        <time>2015-06-07T13:33:56Z</time>
      </trkpt>
      <trkpt lat="40.184633" lon="-5.123333">
        <ele>1795.0</ele>
        <time>2015-06-07T13:33:58Z</time>
      </trkpt>
      <trkpt lat="40.184683" lon="-5.123633">
        <ele>1802.0</ele>
        <time>2015-06-07T13:34:00Z</time>
      </trkpt>
      <trkpt lat="40.184833" lon="-5.123867">
        <ele>1811.0</ele>
        <time>2015-06-07T13:34:02Z</time>
      </trkpt>
      <trkpt lat="40.185017" lon="-5.124000">
        <ele>1816.0</ele>
        <time>2015-06-07T13:34:04Z</time>
      </trkpt>
      <trkpt lat="40.185217" lon="-5.124017">
        <ele>1821.0</ele>
        <time>2015-06-07T13:34:06Z</time>
      </trkpt>
      <trkpt lat="40.185350" lon="-5.123917">
        <ele>1827.0</ele>
        <time>2015-06-07T13:34:08Z</time>
      </trkpt>
      <trkpt lat="40.185400" lon="-5.123800">
        <ele>1833.0</ele>
        <time>2015-06-07T13:34:10Z</time>
      </trkpt>
      <trkpt lat="40.185367" lon="-5.123717">
        <ele>1837.0</ele>
        <time>2015-06-07T13:34:12Z</time>
      </trkpt>
      <trkpt lat="40.185250" lon="-5.123667">
        <ele>1840.0</ele>
        <time>2015-06-07T13:34:14Z</time>
      </trkpt>
      <trkpt lat="40.185100" lon="-5.123733">
        <ele>1847.0</ele>
        <time>2015-06-07T13:34:16Z</time>
      </trkpt>
      <trkpt lat="40.184967" lon="-5.123883">
        <ele>1855.0</ele>
        <time>2015-06-07T13:34:18Z</time>
      </trkpt>
      <trkpt lat="40.184883" lon="-5.124133">
        <ele>1862.0</ele>
        <time>2015-06-07T13:34:20Z</time>
      </trkpt>
      <trkpt lat="40.184833" lon="-5.124400">
        <ele>1870.0</ele>
        <time>2015-06-07T13:34:22Z</time>
      </trkpt>
      <trkpt lat="40.184883" lon="-5.124700">
        <ele>1878.0</ele>
        <time>2015-06-07T13:34:24Z</time>
      </trkpt>
      <trkpt lat="40.185000" lon="-5.124933">
        <ele>1887.0</ele>
        <time>2015-06-07T13:34:26Z</time>
      </trkpt>
      <trkpt lat="40.185150" lon="-5.125100">
        <ele>1895.0</ele>
        <time>2015-06-07T13:34:28Z</time>
      </trkpt>
      <trkpt lat="40.185350" lon="-5.125183">
        <ele>1900.0</ele>
        <time>2015-06-07T13:34:30Z</time>
      </trkpt>
      <trkpt lat="40.185550" lon="-5.125150">
        <ele>1903.0</ele>
        <time>2015-06-07T13:34:32Z</time>
      </trkpt>
      <trkpt lat="40.185667" lon="-5.125017">
        <ele>1911.0</ele>
        <time>2015-06-07T13:34:34Z</time>
      </trkpt>
      <trkpt lat="40.185733" lon="-5.124917">
        <ele>1919.0</ele>
        <time>2015-06-07T13:34:36Z</time>
      </trkpt>
      <trkpt lat="40.185783" lon="-5.124800">
        <ele>1922.0</ele>
        <time>2015-06-07T13:34:38Z</time>
      </trkpt>
      <trkpt lat="40.185783" lon="-5.124633">
        <ele>1925.0</ele>
        <time>2015-06-07T13:34:40Z</time>
      </trkpt>
      <trkpt lat="40.185683" lon="-5.124517">
        <ele>1929.0</ele>
        <time>2015-06-07T13:34:42Z</time>
      </trkpt>
      <trkpt lat="40.185533" lon="-5.124500">
        <ele>1937.0</ele>
        <time>2015-06-07T13:34:44Z</time>
      </trkpt>
      <trkpt lat="40.185417" lon="-5.124583">
        <ele>1945.0</ele>
        <time>2015-06-07T13:34:46Z</time>
      </trkpt>
      <trkpt lat="40.185333" lon="-5.124783">
        <ele>1951.0</ele>
        <time>2015-06-07T13:34:48Z</time>
      </trkpt>
      <trkpt lat="40.185317" lon="-5.125083">
        <ele>1957.0</ele>
        <time>2015-06-07T13:34:50Z</time>
      </trkpt>
      <trkpt lat="40.185400" lon="-5.125367">
        <ele>1964.0</ele>
        <time>2015-06-07T13:34:52Z</time>
      </trkpt>
      <trkpt lat="40.185533" lon="-5.125583">
        <ele>1971.0</ele>
        <time>2015-06-07T13:34:54Z</time>
      </trkpt>
      <trkpt lat="40.185717" lon="-5.125700">
        <ele>1977.0</ele>
        <time>2015-06-07T13:34:56Z</time>
      </trkpt>
      <trkpt lat="40.185917" lon="-5.125683">
        <ele>1981.0</ele>
        <time>2015-06-07T13:34:58Z</time>
      </trkpt>
      <trkpt lat="40.186050" lon="-5.125617">
        <ele>1989.0</ele>
        <time>2015-06-07T13:35:00Z</time>
      </trkpt>
      <trkpt lat="40.186100" lon="-5.125567">
        <ele>1994.0</ele>
        <time>2015-06-07T13:35:02Z</time>
      </trkpt>
      <trkpt lat="40.186083" lon="-5.125433">
        <ele>1996.0</ele>
        <time>2015-06-07T13:35:04Z</time>
      </trkpt>
      <trkpt lat="40.185983" lon="-5.125300">
        <ele>1999.0</ele>
        <time>2015-06-07T13:35:06Z</time>
      </trkpt>
      <trkpt lat="40.185817" lon="-5.125300">
        <ele>2004.0</ele>
        <time>2015-06-07T13:35:08Z</time>
      </trkpt>
      <trkpt lat="40.185683" lon="-5.125417">
        <ele>2010.0</ele>
        <time>2015-06-07T13:35:10Z</time>
      </trkpt>
      <trkpt lat="40.185550" lon="-5.125550">
        <ele>2013.0</ele>
        <time>2015-06-07T13:35:12Z</time>
      </trkpt>
      <trkpt lat="40.185417" lon="-5.125783">
        <ele>2019.0</ele>
        <time>2015-06-07T13:35:14Z</time>
      </trkpt>
      <trkpt lat="40.185333" lon="-5.126017">
        <ele>2030.0</ele>
        <time>2015-06-07T13:35:16Z</time>
      </trkpt>
      <trkpt lat="40.185283" lon="-5.126267">
        <ele>2038.0</ele>
        <time>2015-06-07T13:35:18Z</time>
      </trkpt>
      <trkpt lat="40.185317" lon="-5.126567">
        <ele>2045.0</ele>
        <time>2015-06-07T13:35:20Z</time>
      </trkpt>
      <trkpt lat="40.185450" lon="-5.126817">
        <ele>2052.0</ele>
        <time>2015-06-07T13:35:22Z</time>
      </trkpt>
      <trkpt lat="40.185617" lon="-5.126983">
        <ele>2061.0</ele>
        <time>2015-06-07T13:35:24Z</time>
      </trkpt>
      <trkpt lat="40.185783" lon="-5.127067">
        <ele>2067.0</ele>
        <time>2015-06-07T13:35:26Z</time>
      </trkpt>
      <trkpt lat="40.185950" lon="-5.127017">
        <ele>2070.0</ele>
        <time>2015-06-07T13:35:28Z</time>
      </trkpt>
      <trkpt lat="40.186000" lon="-5.126850">
        <ele>2074.0</ele>
        <time>2015-06-07T13:35:30Z</time>
      </trkpt>
      <trkpt lat="40.185950" lon="-5.126717">
        <ele>2084.0</ele>
        <time>2015-06-07T13:35:32Z</time>
      </trkpt>
      <trkpt lat="40.185850" lon="-5.126667">
        <ele>2090.0</ele>
        <time>2015-06-07T13:35:34Z</time>
      </trkpt>
      <trkpt lat="40.185700" lon="-5.126650">
        <ele>2092.0</ele>
        <time>2015-06-07T13:35:36Z</time>
      </trkpt>
      <trkpt lat="40.185517" lon="-5.126733">
        <ele>2097.0</ele>
        <time>2015-06-07T13:35:38Z</time>
      </trkpt>
      <trkpt lat="40.185350" lon="-5.126883">
        <ele>2110.0</ele>
        <time>2015-06-07T13:35:40Z</time>
      </trkpt>
      <trkpt lat="40.185250" lon="-5.127050">
        <ele>2121.0</ele>
        <time>2015-06-07T13:35:42Z</time>
      </trkpt>
      <trkpt lat="40.185183" lon="-5.127317">
        <ele>2128.0</ele>
        <time>2015-06-07T13:35:44Z</time>
      </trkpt>
      <trkpt lat="40.185217" lon="-5.127650">
        <ele>2135.0</ele>
        <time>2015-06-07T13:35:46Z</time>
      </trkpt>
      <trkpt lat="40.185367" lon="-5.127917">
        <ele>2145.0</ele>
        <time>2015-06-07T13:35:48Z</time>
      </trkpt>
      <trkpt lat="40.185533" lon="-5.128033">
        <ele>2156.0</ele>
        <time>2015-06-07T13:35:50Z</time>
      </trkpt>
      <trkpt lat="40.185667" lon="-5.128033">
        <ele>2164.0</ele>
        <time>2015-06-07T13:35:52Z</time>
      </trkpt>
      <trkpt lat="40.185767" lon="-5.127933">
        <ele>2172.0</ele>
        <time>2015-06-07T13:35:54Z</time>
      </trkpt>
      <trkpt lat="40.185750" lon="-5.127800">
        <ele>2181.0</ele>
        <time>2015-06-07T13:35:56Z</time>
      </trkpt>
      <trkpt lat="40.185650" lon="-5.127700">
        <ele>2189.0</ele>
        <time>2015-06-07T13:35:58Z</time>
      </trkpt>
      <trkpt lat="40.185467" lon="-5.127683">
        <ele>2199.0</ele>
        <time>2015-06-07T13:36:00Z</time>
      </trkpt>
      <trkpt lat="40.185300" lon="-5.127800">
        <ele>2210.0</ele>
        <time>2015-06-07T13:36:02Z</time>
      </trkpt>
      <trkpt lat="40.185183" lon="-5.128000">
        <ele>2220.0</ele>
        <time>2015-06-07T13:36:04Z</time>
      </trkpt>
      <trkpt lat="40.185083" lon="-5.128250">
        <ele>2226.0</ele>
        <time>2015-06-07T13:36:06Z</time>
      </trkpt>
      <trkpt lat="40.185100" lon="-5.128583">
        <ele>2232.0</ele>
        <time>2015-06-07T13:36:08Z</time>
      </trkpt>
      <trkpt lat="40.185233" lon="-5.128850">
        <ele>2241.0</ele>
        <time>2015-06-07T13:36:10Z</time>
      </trkpt>
      <trkpt lat="40.185400" lon="-5.129033">
        <ele>2251.0</ele>
        <time>2015-06-07T13:36:12Z</time>
      </trkpt>
      <trkpt lat="40.185600" lon="-5.129117">
        <ele>2260.0</ele>
        <time>2015-06-07T13:36:14Z</time>
      </trkpt>
      <trkpt lat="40.185750" lon="-5.129050">
        <ele>2269.0</ele>
        <time>2015-06-07T13:36:16Z</time>
      </trkpt>
      <trkpt lat="40.185800" lon="-5.128933">
        <ele>2279.0</ele>
        <time>2015-06-07T13:36:18Z</time>
      </trkpt>
      <trkpt lat="40.185800" lon="-5.128783">
        <ele>2288.0</ele>
        <time>2015-06-07T13:36:20Z</time>
      </trkpt>
      <trkpt lat="40.185700" lon="-5.128683">
        <ele>2300.0</ele>
        <time>2015-06-07T13:36:22Z</time>
      </trkpt>
      <trkpt lat="40.185550" lon="-5.128700">
        <ele>2311.0</ele>
        <time>2015-06-07T13:36:24Z</time>
      </trkpt>
      <trkpt lat="40.185383" lon="-5.128817">
        <ele>2321.0</ele>
        <time>2015-06-07T13:36:26Z</time>
      </trkpt>
      <trkpt lat="40.185267" lon="-5.129033">
        <ele>2330.0</ele>
        <time>2015-06-07T13:36:28Z</time>
      </trkpt>
      <trkpt lat="40.185250" lon="-5.129350">
        <ele>2336.0</ele>
        <time>2015-06-07T13:36:30Z</time>
      </trkpt>
      <trkpt lat="40.185367" lon="-5.129650">
        <ele>2344.0</ele>
        <time>2015-06-07T13:36:32Z</time>
      </trkpt>
      <trkpt lat="40.185517" lon="-5.129850">
        <ele>2356.0</ele>
        <time>2015-06-07T13:36:34Z</time>
      </trkpt>
      <trkpt lat="40.185683" lon="-5.129950">
        <ele>2364.0</ele>
        <time>2015-06-07T13:36:36Z</time>
      </trkpt>
      <trkpt lat="40.185867" lon="-5.129950">
        <ele>2373.0</ele>
        <time>2015-06-07T13:36:38Z</time>
      </trkpt>
      <trkpt lat="40.185983" lon="-5.129833">
        <ele>2384.0</ele>
        <time>2015-06-07T13:36:40Z</time>
      </trkpt>
      <trkpt lat="40.186000" lon="-5.129700">
        <ele>2395.0</ele>
        <time>2015-06-07T13:36:42Z</time>
      </trkpt>
      <trkpt lat="40.185967" lon="-5.129600">
        <ele>2406.0</ele>
        <time>2015-06-07T13:36:44Z</time>
      </trkpt>
      <trkpt lat="40.185867" lon="-5.129533">
        <ele>2413.0</ele>
        <time>2015-06-07T13:36:46Z</time>
      </trkpt>
      <trkpt lat="40.185700" lon="-5.129583">
        <ele>2421.0</ele>
        <time>2015-06-07T13:36:48Z</time>
      </trkpt>
      <trkpt lat="40.185550" lon="-5.129783">
        <ele>2432.0</ele>
        <time>2015-06-07T13:36:50Z</time>
      </trkpt>
      <trkpt lat="40.185500" lon="-5.130050">
        <ele>2440.0</ele>
        <time>2015-06-07T13:36:52Z</time>
      </trkpt>
      <trkpt lat="40.185517" lon="-5.130333">
        <ele>2447.0</ele>
        <time>2015-06-07T13:36:54Z</time>
      </trkpt>
      <trkpt lat="40.185617" lon="-5.130600">
        <ele>2454.0</ele>
        <time>2015-06-07T13:36:56Z</time>
      </trkpt>
      <trkpt lat="40.185800" lon="-5.130767">
        <ele>2461.0</ele>
        <time>2015-06-07T13:36:58Z</time>
      </trkpt>
      <trkpt lat="40.186000" lon="-5.130783">
        <ele>2468.0</ele>
        <time>2015-06-07T13:37:00Z</time>
      </trkpt>
      <trkpt lat="40.186100" lon="-5.130650">
        <ele>2480.0</ele>
        <time>2015-06-07T13:37:02Z</time>
      </trkpt>
      <trkpt lat="40.186067" lon="-5.130583">
        <ele>2492.0</ele>
        <time>2015-06-07T13:37:04Z</time>
      </trkpt>
      <trkpt lat="40.185983" lon="-5.130517">
        <ele>2498.0</ele>
        <time>2015-06-07T13:37:06Z</time>
      </trkpt>
      <trkpt lat="40.185850" lon="-5.130400">
        <ele>2507.0</ele>
        <time>2015-06-07T13:37:08Z</time>
      </trkpt>
      <trkpt lat="40.185717" lon="-5.130383">
        <ele>2519.0</ele>
        <time>2015-06-07T13:37:10Z</time>
      </trkpt>
      <trkpt lat="40.185617" lon="-5.130500">
        <ele>2525.0</ele>
        <time>2015-06-07T13:37:12Z</time>
      </trkpt>
      <trkpt lat="40.185517" lon="-5.130767">
        <ele>2529.0</ele>
        <time>2015-06-07T13:37:14Z</time>
      </trkpt>
      <trkpt lat="40.185567" lon="-5.131083">
        <ele>2531.0</ele>
        <time>2015-06-07T13:37:16Z</time>
      </trkpt>
      <trkpt lat="40.185733" lon="-5.131300">
        <ele>2537.0</ele>
        <time>2015-06-07T13:37:18Z</time>
      </trkpt>
      <trkpt lat="40.185883" lon="-5.131467">
        <ele>2545.0</ele>
        <time>2015-06-07T13:37:20Z</time>
      </trkpt>
      <trkpt lat="40.186067" lon="-5.131583">
        <ele>2550.0</ele>
        <time>2015-06-07T13:37:22Z</time>
      </trkpt>
      <trkpt lat="40.186300" lon="-5.131600">
        <ele>2558.0</ele>
        <time>2015-06-07T13:37:24Z</time>
      </trkpt>
      <trkpt lat="40.186467" lon="-5.131583">
        <ele>2569.0</ele>
        <time>2015-06-07T13:37:26Z</time>
      </trkpt>
      <trkpt lat="40.186583" lon="-5.131500">
        <ele>2574.0</ele>
        <time>2015-06-07T13:37:28Z</time>
      </trkpt>
      <trkpt lat="40.186633" lon="-5.131367">
        <ele>2578.0</ele>
        <time>2015-06-07T13:37:30Z</time>
      </trkpt>
      <trkpt lat="40.186583" lon="-5.131233">
        <ele>2582.0</ele>
        <time>2015-06-07T13:37:32Z</time>
      </trkpt>
      <trkpt lat="40.186450" lon="-5.131183">
        <ele>2587.0</ele>
        <time>2015-06-07T13:37:34Z</time>
      </trkpt>
      <trkpt lat="40.186300" lon="-5.131267">
        <ele>2595.0</ele>
        <time>2015-06-07T13:37:36Z</time>
      </trkpt>
      <trkpt lat="40.186167" lon="-5.131383">
        <ele>2602.0</ele>
        <time>2015-06-07T13:37:38Z</time>
      </trkpt>
      <trkpt lat="40.186067" lon="-5.131583">
        <ele>2608.0</ele>
        <time>2015-06-07T13:37:40Z</time>
      </trkpt>
      <trkpt lat="40.186033" lon="-5.131867">
        <ele>2614.0</ele>
        <time>2015-06-07T13:37:42Z</time>
      </trkpt>
      <trkpt lat="40.186067" lon="-5.132183">
        <ele>2620.0</ele>
        <time>2015-06-07T13:37:44Z</time>
      </trkpt>
      <trkpt lat="40.186133" lon="-5.132483">
        <ele>2627.0</ele>
        <time>2015-06-07T13:37:46Z</time>
      </trkpt>
      <trkpt lat="40.186317" lon="-5.132683">
        <ele>2633.0</ele>
        <time>2015-06-07T13:37:48Z</time>
      </trkpt>
      <trkpt lat="40.186533" lon="-5.132767">
        <ele>2640.0</ele>
        <time>2015-06-07T13:37:50Z</time>
      </trkpt>
      <trkpt lat="40.186700" lon="-5.132750">
        <ele>2649.0</ele>
        <time>2015-06-07T13:37:52Z</time>
      </trkpt>
      <trkpt lat="40.186800" lon="-5.132667">
        <ele>2652.0</ele>
        <time>2015-06-07T13:37:54Z</time>
      </trkpt>
      <trkpt lat="40.186850" lon="-5.132500">
        <ele>2654.0</ele>
        <time>2015-06-07T13:37:56Z</time>
      </trkpt>
      <trkpt lat="40.186800" lon="-5.132350">
        <ele>2656.0</ele>
        <time>2015-06-07T13:37:58Z</time>
      </trkpt>
      <trkpt lat="40.186667" lon="-5.132233">
        <ele>2660.0</ele>
        <time>2015-06-07T13:38:00Z</time>
      </trkpt>
      <trkpt lat="40.186517" lon="-5.132200">
        <ele>2666.0</ele>
        <time>2015-06-07T13:38:02Z</time>
      </trkpt>
      <trkpt lat="40.186383" lon="-5.132267">
        <ele>2672.0</ele>
        <time>2015-06-07T13:38:04Z</time>
      </trkpt>
      <trkpt lat="40.186267" lon="-5.132383">
        <ele>2676.0</ele>
        <time>2015-06-07T13:38:06Z</time>
      </trkpt>
      <trkpt lat="40.186183" lon="-5.132583">
        <ele>2678.0</ele>
        <time>2015-06-07T13:38:08Z</time>
      </trkpt>
      <trkpt lat="40.186133" lon="-5.132883">
        <ele>2681.0</ele>
        <time>2015-06-07T13:38:10Z</time>
      </trkpt>
      <trkpt lat="40.186150" lon="-5.133200">
        <ele>2687.0</ele>
        <time>2015-06-07T13:38:12Z</time>
      </trkpt>
      <trkpt lat="40.186217" lon="-5.133483">
        <ele>2693.0</ele>
        <time>2015-06-07T13:38:14Z</time>
      </trkpt>
      <trkpt lat="40.186350" lon="-5.133733">
        <ele>2699.0</ele>
        <time>2015-06-07T13:38:16Z</time>
      </trkpt>
      <trkpt lat="40.186550" lon="-5.133867">
        <ele>2705.0</ele>
        <time>2015-06-07T13:38:18Z</time>
      </trkpt>
      <trkpt lat="40.186717" lon="-5.133867">
        <ele>2712.0</ele>
        <time>2015-06-07T13:38:20Z</time>
      </trkpt>
      <trkpt lat="40.186800" lon="-5.133783">
        <ele>2716.0</ele>
        <time>2015-06-07T13:38:22Z</time>
      </trkpt>
      <trkpt lat="40.186800" lon="-5.133583">
        <ele>2717.0</ele>
        <time>2015-06-07T13:38:24Z</time>
      </trkpt>
      <trkpt lat="40.186683" lon="-5.133433">
        <ele>2721.0</ele>
        <time>2015-06-07T13:38:26Z</time>
      </trkpt>
      <trkpt lat="40.186550" lon="-5.133367">
        <ele>2725.0</ele>
        <time>2015-06-07T13:38:28Z</time>
      </trkpt>
      <trkpt lat="40.186433" lon="-5.133317">
        <ele>2728.0</ele>
        <time>2015-06-07T13:38:30Z</time>
      </trkpt>
      <trkpt lat="40.186283" lon="-5.133383">
        <ele>2731.0</ele>
        <time>2015-06-07T13:38:32Z</time>
      </trkpt>
      <trkpt lat="40.186167" lon="-5.133617">
        <ele>2732.0</ele>
        <time>2015-06-07T13:38:34Z</time>
      </trkpt>
      <trkpt lat="40.186083" lon="-5.133900">
        <ele>2733.0</ele>
        <time>2015-06-07T13:38:36Z</time>
      </trkpt>
      <trkpt lat="40.185967" lon="-5.134167">
        <ele>2735.0</ele>
        <time>2015-06-07T13:38:38Z</time>
      </trkpt>
      <trkpt lat="40.185850" lon="-5.134483">
        <ele>2739.0</ele>
        <time>2015-06-07T13:38:40Z</time>
      </trkpt>
      <trkpt lat="40.185733" lon="-5.134800">
        <ele>2745.0</ele>
        <time>2015-06-07T13:38:42Z</time>
      </trkpt>
      <trkpt lat="40.185683" lon="-5.135100">
        <ele>2749.0</ele>
        <time>2015-06-07T13:38:44Z</time>
      </trkpt>
      <trkpt lat="40.185717" lon="-5.135433">
        <ele>2748.0</ele>
        <time>2015-06-07T13:38:46Z</time>
      </trkpt>
      <trkpt lat="40.185750" lon="-5.135733">
        <ele>2752.0</ele>
        <time>2015-06-07T13:38:48Z</time>
      </trkpt>
      <trkpt lat="40.185717" lon="-5.136033">
        <ele>2754.0</ele>
        <time>2015-06-07T13:38:50Z</time>
      </trkpt>
      <trkpt lat="40.185650" lon="-5.136333">
        <ele>2755.0</ele>
        <time>2015-06-07T13:38:52Z</time>
      </trkpt>
      <trkpt lat="40.185567" lon="-5.136617">
        <ele>2756.0</ele>
        <time>2015-06-07T13:38:54Z</time>
      </trkpt>
      <trkpt lat="40.185450" lon="-5.136883">
        <ele>2755.0</ele>
        <time>2015-06-07T13:38:56Z</time>
      </trkpt>
      <trkpt lat="40.185300" lon="-5.137167">
        <ele>2751.0</ele>
        <time>2015-06-07T13:38:58Z</time>
      </trkpt>
      <trkpt lat="40.185150" lon="-5.137433">
        <ele>2750.0</ele>
        <time>2015-06-07T13:39:00Z</time>
      </trkpt>
      <trkpt lat="40.185033" lon="-5.137700">
        <ele>2748.0</ele>
        <time>2015-06-07T13:39:02Z</time>
      </trkpt>
      <trkpt lat="40.184900" lon="-5.137967">
        <ele>2745.0</ele>
        <time>2015-06-07T13:39:04Z</time>
      </trkpt>
      <trkpt lat="40.184767" lon="-5.138217">
        <ele>2741.0</ele>
        <time>2015-06-07T13:39:06Z</time>
      </trkpt>
      <trkpt lat="40.184633" lon="-5.138483">
        <ele>2735.0</ele>
        <time>2015-06-07T13:39:08Z</time>
      </trkpt>
      <trkpt lat="40.184483" lon="-5.138767">
        <ele>2728.0</ele>
        <time>2015-06-07T13:39:10Z</time>
      </trkpt>
      <trkpt lat="40.184283" lon="-5.139017">
        <ele>2725.0</ele>
        <time>2015-06-07T13:39:12Z</time>
      </trkpt>
      <trkpt lat="40.184100" lon="-5.139233">
        <ele>2723.0</ele>
        <time>2015-06-07T13:39:14Z</time>
      </trkpt>
      <trkpt lat="40.183933" lon="-5.139433">
        <ele>2720.0</ele>
        <time>2015-06-07T13:39:16Z</time>
      </trkpt>
      <trkpt lat="40.183750" lon="-5.139667">
        <ele>2716.0</ele>
        <time>2015-06-07T13:39:18Z</time>
      </trkpt>
      <trkpt lat="40.183600" lon="-5.139900">
        <ele>2715.0</ele>
        <time>2015-06-07T13:39:20Z</time>
      </trkpt>
      <trkpt lat="40.183483" lon="-5.140150">
        <ele>2712.0</ele>
        <time>2015-06-07T13:39:22Z</time>
      </trkpt>
      <trkpt lat="40.183367" lon="-5.140433">
        <ele>2706.0</ele>
        <time>2015-06-07T13:39:24Z</time>
      </trkpt>
      <trkpt lat="40.183200" lon="-5.140733">
        <ele>2701.0</ele>
        <time>2015-06-07T13:39:26Z</time>
      </trkpt>
      <trkpt lat="40.183067" lon="-5.141033">
        <ele>2698.0</ele>
        <time>2015-06-07T13:39:28Z</time>
      </trkpt>
      <trkpt lat="40.182933" lon="-5.141317">
        <ele>2693.0</ele>
        <time>2015-06-07T13:39:30Z</time>
      </trkpt>
      <trkpt lat="40.182767" lon="-5.141617">
        <ele>2687.0</ele>
        <time>2015-06-07T13:39:32Z</time>
      </trkpt>
      <trkpt lat="40.182633" lon="-5.141933">
        <ele>2681.0</ele>
        <time>2015-06-07T13:39:34Z</time>
      </trkpt>
      <trkpt lat="40.182500" lon="-5.142250">
        <ele>2675.0</ele>
        <time>2015-06-07T13:39:36Z</time>
      </trkpt>
      <trkpt lat="40.182367" lon="-5.142567">
        <ele>2667.0</ele>
        <time>2015-06-07T13:39:38Z</time>
      </trkpt>
      <trkpt lat="40.182233" lon="-5.142900">
        <ele>2660.0</ele>
        <time>2015-06-07T13:39:40Z</time>
      </trkpt>
      <trkpt lat="40.182117" lon="-5.143217">
        <ele>2656.0</ele>
        <time>2015-06-07T13:39:42Z</time>
      </trkpt>
      <trkpt lat="40.182017" lon="-5.143517">
        <ele>2653.0</ele>
        <time>2015-06-07T13:39:44Z</time>
      </trkpt>
      <trkpt lat="40.181900" lon="-5.143800">
        <ele>2648.0</ele>
        <time>2015-06-07T13:39:46Z</time>
      </trkpt>
      <trkpt lat="40.181767" lon="-5.144067">
        <ele>2641.0</ele>
        <time>2015-06-07T13:39:48Z</time>
      </trkpt>
      <trkpt lat="40.181600" lon="-5.144317">
        <ele>2636.0</ele>
        <time>2015-06-07T13:39:50Z</time>
      </trkpt>
      <trkpt lat="40.181467" lon="-5.144533">
        <ele>2633.0</ele>
        <time>2015-06-07T13:39:52Z</time>
      </trkpt>
      <trkpt lat="40.181333" lon="-5.144750">
        <ele>2629.0</ele>
        <time>2015-06-07T13:39:54Z</time>
      </trkpt>
      <trkpt lat="40.181217" lon="-5.144983">
        <ele>2624.0</ele>
        <time>2015-06-07T13:39:56Z</time>
      </trkpt>
      <trkpt lat="40.181100" lon="-5.145233">
        <ele>2620.0</ele>
        <time>2015-06-07T13:39:58Z</time>
      </trkpt>
      <trkpt lat="40.180983" lon="-5.145483">
        <ele>2615.0</ele>
        <time>2015-06-07T13:40:00Z</time>
      </trkpt>
      <trkpt lat="40.180867" lon="-5.145733">
        <ele>2611.0</ele>
        <time>2015-06-07T13:40:02Z</time>
      </trkpt>
      <trkpt lat="40.180733" lon="-5.145950">
        <ele>2608.0</ele>
        <time>2015-06-07T13:40:04Z</time>
      </trkpt>
      <trkpt lat="40.180600" lon="-5.146183">
        <ele>2604.0</ele>
        <time>2015-06-07T13:40:06Z</time>
      </trkpt>
      <trkpt lat="40.180467" lon="-5.146400">
        <ele>2601.0</ele>
        <time>2015-06-07T13:40:08Z</time>
      </trkpt>
      <trkpt lat="40.180350" lon="-5.146633">
        <ele>2598.0</ele>
        <time>2015-06-07T13:40:10Z</time>
      </trkpt>
      <trkpt lat="40.180217" lon="-5.146850">
        <ele>2596.0</ele>
        <time>2015-06-07T13:40:12Z</time>
      </trkpt>
      <trkpt lat="40.180083" lon="-5.147067">
        <ele>2594.0</ele>
        <time>2015-06-07T13:40:14Z</time>
      </trkpt>
      <trkpt lat="40.179983" lon="-5.147283">
        <ele>2593.0</ele>
        <time>2015-06-07T13:40:16Z</time>
      </trkpt>
      <trkpt lat="40.179917" lon="-5.147517">
        <ele>2591.0</ele>
        <time>2015-06-07T13:40:18Z</time>
      </trkpt>
      <trkpt lat="40.179833" lon="-5.147783">
        <ele>2588.0</ele>
        <time>2015-06-07T13:40:20Z</time>
      </trkpt>
      <trkpt lat="40.179733" lon="-5.148033">
        <ele>2586.0</ele>
        <time>2015-06-07T13:40:22Z</time>
      </trkpt>
      <trkpt lat="40.179650" lon="-5.148283">
        <ele>2585.0</ele>
        <time>2015-06-07T13:40:24Z</time>
      </trkpt>
      <trkpt lat="40.179550" lon="-5.148533">
        <ele>2582.0</ele>
        <time>2015-06-07T13:40:26Z</time>
      </trkpt>
      <trkpt lat="40.179433" lon="-5.148783">
        <ele>2580.0</ele>
        <time>2015-06-07T13:40:28Z</time>
      </trkpt>
      <trkpt lat="40.179350" lon="-5.149033">
        <ele>2579.0</ele>
        <time>2015-06-07T13:40:30Z</time>
      </trkpt>
      <trkpt lat="40.179267" lon="-5.149300">
        <ele>2578.0</ele>
        <time>2015-06-07T13:40:32Z</time>
      </trkpt>
      <trkpt lat="40.179167" lon="-5.149567">
        <ele>2576.0</ele>
        <time>2015-06-07T13:40:34Z</time>
      </trkpt>
      <trkpt lat="40.179083" lon="-5.149817">
        <ele>2574.0</ele>
        <time>2015-06-07T13:40:36Z</time>
      </trkpt>
      <trkpt lat="40.179000" lon="-5.150083">
        <ele>2572.0</ele>
        <time>2015-06-07T13:40:38Z</time>
      </trkpt>
      <trkpt lat="40.178917" lon="-5.150350">
        <ele>2570.0</ele>
        <time>2015-06-07T13:40:40Z</time>
      </trkpt>
      <trkpt lat="40.178833" lon="-5.150617">
        <ele>2568.0</ele>
        <time>2015-06-07T13:40:42Z</time>
      </trkpt>
      <trkpt lat="40.178750" lon="-5.150867">
        <ele>2565.0</ele>
        <time>2015-06-07T13:40:44Z</time>
      </trkpt>
      <trkpt lat="40.178683" lon="-5.151150">
        <ele>2563.0</ele>
        <time>2015-06-07T13:40:46Z</time>
      </trkpt>
      <trkpt lat="40.178617" lon="-5.151417">
        <ele>2561.0</ele>
        <time>2015-06-07T13:40:48Z</time>
      </trkpt>
      <trkpt lat="40.178550" lon="-5.151683">
        <ele>2559.0</ele>
        <time>2015-06-07T13:40:50Z</time>
      </trkpt>
      <trkpt lat="40.178483" lon="-5.151950">
        <ele>2557.0</ele>
        <time>2015-06-07T13:40:52Z</time>
      </trkpt>
      <trkpt lat="40.178417" lon="-5.152217">
        <ele>2555.0</ele>
        <time>2015-06-07T13:40:54Z</time>
      </trkpt>
      <trkpt lat="40.178350" lon="-5.152483">
        <ele>2552.0</ele>
        <time>2015-06-07T13:40:56Z</time>
      </trkpt>
      <trkpt lat="40.178267" lon="-5.152733">
        <ele>2550.0</ele>
        <time>2015-06-07T13:40:58Z</time>
      </trkpt>
      <trkpt lat="40.178200" lon="-5.153000">
        <ele>2547.0</ele>
        <time>2015-06-07T13:41:00Z</time>
      </trkpt>
      <trkpt lat="40.178133" lon="-5.153250">
        <ele>2544.0</ele>
        <time>2015-06-07T13:41:02Z</time>
      </trkpt>
      <trkpt lat="40.178067" lon="-5.153517">
        <ele>2541.0</ele>
        <time>2015-06-07T13:41:04Z</time>
      </trkpt>
      <trkpt lat="40.177983" lon="-5.153767">
        <ele>2538.0</ele>
        <time>2015-06-07T13:41:06Z</time>
      </trkpt>
      <trkpt lat="40.177917" lon="-5.154017">
        <ele>2534.0</ele>
        <time>2015-06-07T13:41:08Z</time>
      </trkpt>
      <trkpt lat="40.177833" lon="-5.154267">
        <ele>2531.0</ele>
        <time>2015-06-07T13:41:10Z</time>
      </trkpt>
      <trkpt lat="40.177767" lon="-5.154533">
        <ele>2528.0</ele>
        <time>2015-06-07T13:41:12Z</time>
      </trkpt>
      <trkpt lat="40.177683" lon="-5.154800">
        <ele>2524.0</ele>
        <time>2015-06-07T13:41:14Z</time>
      </trkpt>
      <trkpt lat="40.177617" lon="-5.155067">
        <ele>2521.0</ele>
        <time>2015-06-07T13:41:16Z</time>
      </trkpt>
      <trkpt lat="40.177533" lon="-5.155333">
        <ele>2518.0</ele>
        <time>2015-06-07T13:41:18Z</time>
      </trkpt>
      <trkpt lat="40.177467" lon="-5.155600">
        <ele>2514.0</ele>
        <time>2015-06-07T13:41:20Z</time>
      </trkpt>
      <trkpt lat="40.177417" lon="-5.155883">
        <ele>2511.0</ele>
        <time>2015-06-07T13:41:22Z</time>
      </trkpt>
      <trkpt lat="40.177350" lon="-5.156150">
        <ele>2507.0</ele>
        <time>2015-06-07T13:41:24Z</time>
      </trkpt>
      <trkpt lat="40.177283" lon="-5.156433">
        <ele>2503.0</ele>
        <time>2015-06-07T13:41:26Z</time>
      </trkpt>
      <trkpt lat="40.177233" lon="-5.156717">
        <ele>2499.0</ele>
        <time>2015-06-07T13:41:28Z</time>
      </trkpt>
      <trkpt lat="40.177167" lon="-5.156983">
        <ele>2496.0</ele>
        <time>2015-06-07T13:41:30Z</time>
      </trkpt>
      <trkpt lat="40.177117" lon="-5.157250">
        <ele>2492.0</ele>
        <time>2015-06-07T13:41:32Z</time>
      </trkpt>
      <trkpt lat="40.177050" lon="-5.157533">
        <ele>2487.0</ele>
        <time>2015-06-07T13:41:34Z</time>
      </trkpt>
      <trkpt lat="40.177000" lon="-5.157800">
        <ele>2482.0</ele>
        <time>2015-06-07T13:41:36Z</time>
      </trkpt>
      <trkpt lat="40.176933" lon="-5.158067">
        <ele>2478.0</ele>
        <time>2015-06-07T13:41:38Z</time>
      </trkpt>
      <trkpt lat="40.176867" lon="-5.158350">
        <ele>2473.0</ele>
        <time>2015-06-07T13:41:40Z</time>
      </trkpt>
      <trkpt lat="40.176800" lon="-5.158633">
        <ele>2469.0</ele>
        <time>2015-06-07T13:41:42Z</time>
      </trkpt>
      <trkpt lat="40.176733" lon="-5.158900">
        <ele>2465.0</ele>
        <time>2015-06-07T13:41:44Z</time>
      </trkpt>
      <trkpt lat="40.176667" lon="-5.159183">
        <ele>2461.0</ele>
        <time>2015-06-07T13:41:46Z</time>
      </trkpt>
      <trkpt lat="40.176567" lon="-5.159450">
        <ele>2457.0</ele>
        <time>2015-06-07T13:41:48Z</time>
      </trkpt>
      <trkpt lat="40.176500" lon="-5.159733">
        <ele>2455.0</ele>
        <time>2015-06-07T13:41:50Z</time>
      </trkpt>
      <trkpt lat="40.176433" lon="-5.160000">
        <ele>2451.0</ele>
        <time>2015-06-07T13:41:52Z</time>
      </trkpt>
      <trkpt lat="40.176367" lon="-5.160267">
        <ele>2444.0</ele>
        <time>2015-06-07T13:41:54Z</time>
      </trkpt>
      <trkpt lat="40.176300" lon="-5.160567">
        <ele>2440.0</ele>
        <time>2015-06-07T13:41:56Z</time>
      </trkpt>
      <trkpt lat="40.176217" lon="-5.160833">
        <ele>2438.0</ele>
        <time>2015-06-07T13:41:58Z</time>
      </trkpt>
      <trkpt lat="40.176167" lon="-5.161083">
        <ele>2434.0</ele>
        <time>2015-06-07T13:42:00Z</time>
      </trkpt>
      <trkpt lat="40.176117" lon="-5.161350">
        <ele>2428.0</ele>
        <time>2015-06-07T13:42:02Z</time>
      </trkpt>
      <trkpt lat="40.176050" lon="-5.161633">
        <ele>2424.0</ele>
        <time>2015-06-07T13:42:04Z</time>
      </trkpt>
      <trkpt lat="40.175983" lon="-5.161917">
        <ele>2420.0</ele>
        <time>2015-06-07T13:42:06Z</time>
      </trkpt>
      <trkpt lat="40.175917" lon="-5.162183">
        <ele>2416.0</ele>
        <time>2015-06-07T13:42:08Z</time>
      </trkpt>
      <trkpt lat="40.175850" lon="-5.162467">
        <ele>2411.0</ele>
        <time>2015-06-07T13:42:10Z</time>
      </trkpt>
      <trkpt lat="40.175800" lon="-5.162733">
        <ele>2408.0</ele>
        <time>2015-06-07T13:42:12Z</time>
      </trkpt>
      <trkpt lat="40.175733" lon="-5.163000">
        <ele>2404.0</ele>
        <time>2015-06-07T13:42:14Z</time>
      </trkpt>
      <trkpt lat="40.175667" lon="-5.163267">
        <ele>2400.0</ele>
        <time>2015-06-07T13:42:16Z</time>
      </trkpt>
      <trkpt lat="40.175600" lon="-5.163533">
        <ele>2396.0</ele>
        <time>2015-06-07T13:42:18Z</time>
      </trkpt>
      <trkpt lat="40.175533" lon="-5.163800">
        <ele>2392.0</ele>
        <time>2015-06-07T13:42:20Z</time>
      </trkpt>
      <trkpt lat="40.175467" lon="-5.164050">
        <ele>2388.0</ele>
        <time>2015-06-07T13:42:22Z</time>
      </trkpt>
      <trkpt lat="40.175400" lon="-5.164317">
        <ele>2384.0</ele>
        <time>2015-06-07T13:42:24Z</time>
      </trkpt>
      <trkpt lat="40.175350" lon="-5.164600">
        <ele>2380.0</ele>
        <time>2015-06-07T13:42:26Z</time>
      </trkpt>
      <trkpt lat="40.175300" lon="-5.164867">
        <ele>2375.0</ele>
        <time>2015-06-07T13:42:28Z</time>
      </trkpt>
      <trkpt lat="40.175233" lon="-5.165133">
        <ele>2372.0</ele>
        <time>2015-06-07T13:42:30Z</time>
      </trkpt>
      <trkpt lat="40.175167" lon="-5.165400">
        <ele>2368.0</ele>
        <time>2015-06-07T13:42:32Z</time>
      </trkpt>
      <trkpt lat="40.175083" lon="-5.165667">
        <ele>2363.0</ele>
        <time>2015-06-07T13:42:34Z</time>
      </trkpt>
      <trkpt lat="40.175017" lon="-5.165917">
        <ele>2359.0</ele>
        <time>2015-06-07T13:42:36Z</time>
      </trkpt>
      <trkpt lat="40.174950" lon="-5.166167">
        <ele>2355.0</ele>
        <time>2015-06-07T13:42:38Z</time>
      </trkpt>
      <trkpt lat="40.174883" lon="-5.166417">
        <ele>2350.0</ele>
        <time>2015-06-07T13:42:40Z</time>
      </trkpt>
      <trkpt lat="40.174800" lon="-5.166683">
        <ele>2346.0</ele>
        <time>2015-06-07T13:42:42Z</time>
      </trkpt>
      <trkpt lat="40.174717" lon="-5.166933">
        <ele>2343.0</ele>
        <time>2015-06-07T13:42:44Z</time>
      </trkpt>
      <trkpt lat="40.174633" lon="-5.167167">
        <ele>2339.0</ele>
        <time>2015-06-07T13:42:46Z</time>
      </trkpt>
      <trkpt lat="40.174533" lon="-5.167417">
        <ele>2335.0</ele>
        <time>2015-06-07T13:42:48Z</time>
      </trkpt>
      <trkpt lat="40.174467" lon="-5.167667">
        <ele>2332.0</ele>
        <time>2015-06-07T13:42:50Z</time>
      </trkpt>
      <trkpt lat="40.174383" lon="-5.167917">
        <ele>2329.0</ele>
        <time>2015-06-07T13:42:52Z</time>
      </trkpt>
      <trkpt lat="40.174300" lon="-5.168150">
        <ele>2326.0</ele>
        <time>2015-06-07T13:42:54Z</time>
      </trkpt>
      <trkpt lat="40.174233" lon="-5.168417">
        <ele>2322.0</ele>
        <time>2015-06-07T13:42:56Z</time>
      </trkpt>
      <trkpt lat="40.174167" lon="-5.168683">
        <ele>2318.0</ele>
        <time>2015-06-07T13:42:58Z</time>
      </trkpt>
      <trkpt lat="40.174117" lon="-5.168950">
        <ele>2314.0</ele>
        <time>2015-06-07T13:43:00Z</time>
      </trkpt>
      <trkpt lat="40.174083" lon="-5.169233">
        <ele>2310.0</ele>
        <time>2015-06-07T13:43:02Z</time>
      </trkpt>
      <trkpt lat="40.174050" lon="-5.169533">
        <ele>2307.0</ele>
        <time>2015-06-07T13:43:04Z</time>
      </trkpt>
      <trkpt lat="40.174017" lon="-5.169800">
        <ele>2304.0</ele>
        <time>2015-06-07T13:43:06Z</time>
      </trkpt>
      <trkpt lat="40.173983" lon="-5.170083">
        <ele>2300.0</ele>
        <time>2015-06-07T13:43:08Z</time>
      </trkpt>
      <trkpt lat="40.173950" lon="-5.170383">
        <ele>2296.0</ele>
        <time>2015-06-07T13:43:10Z</time>
      </trkpt>
      <trkpt lat="40.173900" lon="-5.170667">
        <ele>2294.0</ele>
        <time>2015-06-07T13:43:12Z</time>
      </trkpt>
      <trkpt lat="40.173850" lon="-5.170950">
        <ele>2290.0</ele>
        <time>2015-06-07T13:43:14Z</time>
      </trkpt>
      <trkpt lat="40.173817" lon="-5.171233">
        <ele>2287.0</ele>
        <time>2015-06-07T13:43:16Z</time>
      </trkpt>
      <trkpt lat="40.173783" lon="-5.171517">
        <ele>2285.0</ele>
        <time>2015-06-07T13:43:18Z</time>
      </trkpt>
      <trkpt lat="40.173750" lon="-5.171800">
        <ele>2282.0</ele>
        <time>2015-06-07T13:43:20Z</time>
      </trkpt>
      <trkpt lat="40.173733" lon="-5.172100">
        <ele>2280.0</ele>
        <time>2015-06-07T13:43:22Z</time>
      </trkpt>
      <trkpt lat="40.173700" lon="-5.172367">
        <ele>2278.0</ele>
        <time>2015-06-07T13:43:24Z</time>
      </trkpt>
      <trkpt lat="40.173667" lon="-5.172650">
        <ele>2275.0</ele>
        <time>2015-06-07T13:43:26Z</time>
      </trkpt>
      <trkpt lat="40.173650" lon="-5.172933">
        <ele>2272.0</ele>
        <time>2015-06-07T13:43:28Z</time>
      </trkpt>
      <trkpt lat="40.173600" lon="-5.173217">
        <ele>2270.0</ele>
        <time>2015-06-07T13:43:30Z</time>
      </trkpt>
      <trkpt lat="40.173550" lon="-5.173483">
        <ele>2267.0</ele>
        <time>2015-06-07T13:43:32Z</time>
      </trkpt>
      <trkpt lat="40.173500" lon="-5.173767">
        <ele>2263.0</ele>
        <time>2015-06-07T13:43:34Z</time>
      </trkpt>
      <trkpt lat="40.173450" lon="-5.174050">
        <ele>2260.0</ele>
        <time>2015-06-07T13:43:36Z</time>
      </trkpt>
      <trkpt lat="40.173400" lon="-5.174300">
        <ele>2258.0</ele>
        <time>2015-06-07T13:43:38Z</time>
      </trkpt>
      <trkpt lat="40.173367" lon="-5.174567">
        <ele>2253.0</ele>
        <time>2015-06-07T13:43:40Z</time>
      </trkpt>
      <trkpt lat="40.173317" lon="-5.174850">
        <ele>2249.0</ele>
        <time>2015-06-07T13:43:42Z</time>
      </trkpt>
      <trkpt lat="40.173250" lon="-5.175133">
        <ele>2248.0</ele>
        <time>2015-06-07T13:43:44Z</time>
      </trkpt>
      <trkpt lat="40.173200" lon="-5.175367">
        <ele>2247.0</ele>
        <time>2015-06-07T13:43:46Z</time>
      </trkpt>
      <trkpt lat="40.173150" lon="-5.175650">
        <ele>2243.0</ele>
        <time>2015-06-07T13:43:48Z</time>
      </trkpt>
      <trkpt lat="40.173100" lon="-5.175933">
        <ele>2240.0</ele>
        <time>2015-06-07T13:43:50Z</time>
      </trkpt>
      <trkpt lat="40.173050" lon="-5.176217">
        <ele>2239.0</ele>
        <time>2015-06-07T13:43:52Z</time>
      </trkpt>
      <trkpt lat="40.173017" lon="-5.176483">
        <ele>2235.0</ele>
        <time>2015-06-07T13:43:54Z</time>
      </trkpt>
      <trkpt lat="40.172983" lon="-5.176800">
        <ele>2232.0</ele>
        <time>2015-06-07T13:43:56Z</time>
      </trkpt>
      <trkpt lat="40.172933" lon="-5.177100">
        <ele>2231.0</ele>
        <time>2015-06-07T13:43:58Z</time>
      </trkpt>
      <trkpt lat="40.172900" lon="-5.177367">
        <ele>2230.0</ele>
        <time>2015-06-07T13:44:00Z</time>
      </trkpt>
      <trkpt lat="40.172867" lon="-5.177650">
        <ele>2227.0</ele>
        <time>2015-06-07T13:44:02Z</time>
      </trkpt>
      <trkpt lat="40.172833" lon="-5.177950">
        <ele>2223.0</ele>
        <time>2015-06-07T13:44:04Z</time>
      </trkpt>
      <trkpt lat="40.172783" lon="-5.178250">
        <ele>2221.0</ele>
        <time>2015-06-07T13:44:06Z</time>
      </trkpt>
      <trkpt lat="40.172733" lon="-5.178533">
        <ele>2218.0</ele>
        <time>2015-06-07T13:44:08Z</time>
      </trkpt>
      <trkpt lat="40.172683" lon="-5.178817">
        <ele>2215.0</ele>
        <time>2015-06-07T13:44:10Z</time>
      </trkpt>
      <trkpt lat="40.172633" lon="-5.179100">
        <ele>2212.0</ele>
        <time>2015-06-07T13:44:12Z</time>
      </trkpt>
      <trkpt lat="40.172583" lon="-5.179383">
        <ele>2209.0</ele>
        <time>2015-06-07T13:44:14Z</time>
      </trkpt>
      <trkpt lat="40.172533" lon="-5.179683">
        <ele>2207.0</ele>
        <time>2015-06-07T13:44:16Z</time>
      </trkpt>
      <trkpt lat="40.172500" lon="-5.179967">
        <ele>2206.0</ele>
        <time>2015-06-07T13:44:18Z</time>
      </trkpt>
      <trkpt lat="40.172450" lon="-5.180250">
        <ele>2203.0</ele>
        <time>2015-06-07T13:44:20Z</time>
      </trkpt>
      <trkpt lat="40.172400" lon="-5.180550">
        <ele>2201.0</ele>
        <time>2015-06-07T13:44:22Z</time>
      </trkpt>
      <trkpt lat="40.172333" lon="-5.180833">
        <ele>2199.0</ele>
        <time>2015-06-07T13:44:24Z</time>
      </trkpt>
      <trkpt lat="40.172267" lon="-5.181117">
        <ele>2197.0</ele>
        <time>2015-06-07T13:44:26Z</time>
      </trkpt>
      <trkpt lat="40.172200" lon="-5.181383">
        <ele>2196.0</ele>
        <time>2015-06-07T13:44:28Z</time>
      </trkpt>
      <trkpt lat="40.172133" lon="-5.181650">
        <ele>2194.0</ele>
        <time>2015-06-07T13:44:30Z</time>
      </trkpt>
      <trkpt lat="40.172067" lon="-5.181933">
        <ele>2191.0</ele>
        <time>2015-06-07T13:44:32Z</time>
      </trkpt>
      <trkpt lat="40.172000" lon="-5.182217">
        <ele>2189.0</ele>
        <time>2015-06-07T13:44:34Z</time>
      </trkpt>
      <trkpt lat="40.171933" lon="-5.182467">
        <ele>2188.0</ele>
        <time>2015-06-07T13:44:36Z</time>
      </trkpt>
      <trkpt lat="40.171850" lon="-5.182733">
        <ele>2185.0</ele>
        <time>2015-06-07T13:44:38Z</time>
      </trkpt>
      <trkpt lat="40.171767" lon="-5.183000">
        <ele>2181.0</ele>
        <time>2015-06-07T13:44:40Z</time>
      </trkpt>
      <trkpt lat="40.171667" lon="-5.183250">
        <ele>2179.0</ele>
        <time>2015-06-07T13:44:42Z</time>
      </trkpt>
      <trkpt lat="40.171583" lon="-5.183483">
        <ele>2176.0</ele>
        <time>2015-06-07T13:44:44Z</time>
      </trkpt>
      <trkpt lat="40.171483" lon="-5.183733">
        <ele>2171.0</ele>
        <time>2015-06-07T13:44:46Z</time>
      </trkpt>
      <trkpt lat="40.171367" lon="-5.183983">
        <ele>2167.0</ele>
        <time>2015-06-07T13:44:48Z</time>
      </trkpt>
      <trkpt lat="40.171283" lon="-5.184233">
        <ele>2165.0</ele>
        <time>2015-06-07T13:44:50Z</time>
      </trkpt>
      <trkpt lat="40.171217" lon="-5.184450">
        <ele>2164.0</ele>
        <time>2015-06-07T13:44:52Z</time>
      </trkpt>
      <trkpt lat="40.171183" lon="-5.184700">
        <ele>2161.0</ele>
        <time>2015-06-07T13:44:54Z</time>
      </trkpt>
      <trkpt lat="40.171117" lon="-5.184950">
        <ele>2157.0</ele>
        <time>2015-06-07T13:44:56Z</time>
      </trkpt>
      <trkpt lat="40.171067" lon="-5.185200">
        <ele>2154.0</ele>
        <time>2015-06-07T13:44:58Z</time>
      </trkpt>
      <trkpt lat="40.171050" lon="-5.185467">
        <ele>2151.0</ele>
        <time>2015-06-07T13:45:00Z</time>
      </trkpt>
      <trkpt lat="40.171033" lon="-5.185750">
        <ele>2147.0</ele>
        <time>2015-06-07T13:45:02Z</time>
      </trkpt>
      <trkpt lat="40.171000" lon="-5.186050">
        <ele>2144.0</ele>
        <time>2015-06-07T13:45:04Z</time>
      </trkpt>
      <trkpt lat="40.170967" lon="-5.186317">
        <ele>2142.0</ele>
        <time>2015-06-07T13:45:06Z</time>
      </trkpt>
      <trkpt lat="40.170917" lon="-5.186583">
        <ele>2137.0</ele>
        <time>2015-06-07T13:45:08Z</time>
      </trkpt>
      <trkpt lat="40.170867" lon="-5.186867">
        <ele>2131.0</ele>
        <time>2015-06-07T13:45:10Z</time>
      </trkpt>
      <trkpt lat="40.170817" lon="-5.187167">
        <ele>2128.0</ele>
        <time>2015-06-07T13:45:12Z</time>
      </trkpt>
      <trkpt lat="40.170767" lon="-5.187433">
        <ele>2125.0</ele>
        <time>2015-06-07T13:45:14Z</time>
      </trkpt>
      <trkpt lat="40.170733" lon="-5.187717">
        <ele>2120.0</ele>
        <time>2015-06-07T13:45:16Z</time>
      </trkpt>
      <trkpt lat="40.170700" lon="-5.188017">
        <ele>2117.0</ele>
        <time>2015-06-07T13:45:18Z</time>
      </trkpt>
      <trkpt lat="40.170683" lon="-5.188267">
        <ele>2115.0</ele>
        <time>2015-06-07T13:45:20Z</time>
      </trkpt>
      <trkpt lat="40.170683" lon="-5.188550">
        <ele>2108.0</ele>
        <time>2015-06-07T13:45:22Z</time>
      </trkpt>
      <trkpt lat="40.170667" lon="-5.188867">
        <ele>2101.0</ele>
        <time>2015-06-07T13:45:24Z</time>
      </trkpt>
      <trkpt lat="40.170650" lon="-5.189167">
        <ele>2097.0</ele>
        <time>2015-06-07T13:45:26Z</time>
      </trkpt>
      <trkpt lat="40.170650" lon="-5.189467">
        <ele>2092.0</ele>
        <time>2015-06-07T13:45:28Z</time>
      </trkpt>
      <trkpt lat="40.170617" lon="-5.189767">
        <ele>2086.0</ele>
        <time>2015-06-07T13:45:30Z</time>
      </trkpt>
      <trkpt lat="40.170583" lon="-5.190083">
        <ele>2082.0</ele>
        <time>2015-06-07T13:45:32Z</time>
      </trkpt>
      <trkpt lat="40.170550" lon="-5.190367">
        <ele>2077.0</ele>
        <time>2015-06-07T13:45:34Z</time>
      </trkpt>
      <trkpt lat="40.170517" lon="-5.190650">
        <ele>2071.0</ele>
        <time>2015-06-07T13:45:36Z</time>
      </trkpt>
      <trkpt lat="40.170500" lon="-5.190950">
        <ele>2063.0</ele>
        <time>2015-06-07T13:45:38Z</time>
      </trkpt>
      <trkpt lat="40.170450" lon="-5.191267">
        <ele>2057.0</ele>
        <time>2015-06-07T13:45:40Z</time>
      </trkpt>
      <trkpt lat="40.170383" lon="-5.191550">
        <ele>2052.0</ele>
        <time>2015-06-07T13:45:42Z</time>
      </trkpt>
      <trkpt lat="40.170317" lon="-5.191833">
        <ele>2045.0</ele>
        <time>2015-06-07T13:45:44Z</time>
      </trkpt>
      <trkpt lat="40.170233" lon="-5.192117">
        <ele>2039.0</ele>
        <time>2015-06-07T13:45:46Z</time>
      </trkpt>
      <trkpt lat="40.170200" lon="-5.192417">
        <ele>2033.0</ele>
        <time>2015-06-07T13:45:48Z</time>
      </trkpt>
      <trkpt lat="40.170183" lon="-5.192750">
        <ele>2025.0</ele>
        <time>2015-06-07T13:45:50Z</time>
      </trkpt>
      <trkpt lat="40.170150" lon="-5.193083">
        <ele>2019.0</ele>
        <time>2015-06-07T13:45:52Z</time>
      </trkpt>
      <trkpt lat="40.170133" lon="-5.193400">
        <ele>2017.0</ele>
        <time>2015-06-07T13:45:54Z</time>
      </trkpt>
      <trkpt lat="40.170150" lon="-5.193717">
        <ele>2014.0</ele>
        <time>2015-06-07T13:45:56Z</time>
      </trkpt>
      <trkpt lat="40.170183" lon="-5.194033">
        <ele>2012.0</ele>
        <time>2015-06-07T13:45:58Z</time>
      </trkpt>
      <trkpt lat="40.170217" lon="-5.194333">
        <ele>2011.0</ele>
        <time>2015-06-07T13:46:00Z</time>
      </trkpt>
      <trkpt lat="40.170283" lon="-5.194600">
        <ele>2008.0</ele>
        <time>2015-06-07T13:46:02Z</time>
      </trkpt>
      <trkpt lat="40.170333" lon="-5.194950">
        <ele>2002.0</ele>
        <time>2015-06-07T13:46:04Z</time>
      </trkpt>
      <trkpt lat="40.170417" lon="-5.195283">
        <ele>1998.0</ele>
        <time>2015-06-07T13:46:06Z</time>
      </trkpt>
      <trkpt lat="40.170500" lon="-5.195583">
        <ele>1996.0</ele>
        <time>2015-06-07T13:46:08Z</time>
      </trkpt>
      <trkpt lat="40.170533" lon="-5.195900">
        <ele>1992.0</ele>
        <time>2015-06-07T13:46:10Z</time>
      </trkpt>
      <trkpt lat="40.170567" lon="-5.196233">
        <ele>1987.0</ele>
        <time>2015-06-07T13:46:12Z</time>
      </trkpt>
      <trkpt lat="40.170617" lon="-5.196567">
        <ele>1983.0</ele>
        <time>2015-06-07T13:46:14Z</time>
      </trkpt>
      <trkpt lat="40.170650" lon="-5.196917">
        <ele>1981.0</ele>
        <time>2015-06-07T13:46:16Z</time>
      </trkpt>
      <trkpt lat="40.170717" lon="-5.197217">
        <ele>1982.0</ele>
        <time>2015-06-07T13:46:18Z</time>
      </trkpt>
      <trkpt lat="40.170833" lon="-5.197467">
        <ele>1980.0</ele>
        <time>2015-06-07T13:46:20Z</time>
      </trkpt>
      <trkpt lat="40.170967" lon="-5.197717">
        <ele>1976.0</ele>
        <time>2015-06-07T13:46:22Z</time>
      </trkpt>
      <trkpt lat="40.171067" lon="-5.198033">
        <ele>1976.0</ele>
        <time>2015-06-07T13:46:24Z</time>
      </trkpt>
      <trkpt lat="40.171133" lon="-5.198350">
        <ele>1977.0</ele>
        <time>2015-06-07T13:46:26Z</time>
      </trkpt>
      <trkpt lat="40.171183" lon="-5.198667">
        <ele>1977.0</ele>
        <time>2015-06-07T13:46:28Z</time>
      </trkpt>
      <trkpt lat="40.171217" lon="-5.199000">
        <ele>1982.0</ele>
        <time>2015-06-07T13:46:30Z</time>
      </trkpt>
      <trkpt lat="40.171167" lon="-5.199283">
        <ele>1986.0</ele>
        <time>2015-06-07T13:46:32Z</time>
      </trkpt>
      <trkpt lat="40.171050" lon="-5.199517">
        <ele>1990.0</ele>
        <time>2015-06-07T13:46:34Z</time>
      </trkpt>
      <trkpt lat="40.170883" lon="-5.199667">
        <ele>1992.0</ele>
        <time>2015-06-07T13:46:36Z</time>
      </trkpt>
      <trkpt lat="40.170700" lon="-5.199717">
        <ele>1991.0</ele>
        <time>2015-06-07T13:46:38Z</time>
      </trkpt>
      <trkpt lat="40.170533" lon="-5.199633">
        <ele>1992.0</ele>
        <time>2015-06-07T13:46:40Z</time>
      </trkpt>
      <trkpt lat="40.170450" lon="-5.199517">
        <ele>1996.0</ele>
        <time>2015-06-07T13:46:42Z</time>
      </trkpt>
      <trkpt lat="40.170450" lon="-5.199417">
        <ele>1998.0</ele>
        <time>2015-06-07T13:46:44Z</time>
      </trkpt>
      <trkpt lat="40.170500" lon="-5.199283">
        <ele>1996.0</ele>
        <time>2015-06-07T13:46:46Z</time>
      </trkpt>
      <trkpt lat="40.170633" lon="-5.199183">
        <ele>1996.0</ele>
        <time>2015-06-07T13:46:48Z</time>
      </trkpt>
      <trkpt lat="40.170767" lon="-5.199200">
        <ele>1998.0</ele>
        <time>2015-06-07T13:46:50Z</time>
      </trkpt>
      <trkpt lat="40.170933" lon="-5.199283">
        <ele>1998.0</ele>
        <time>2015-06-07T13:46:52Z</time>
      </trkpt>
      <trkpt lat="40.171117" lon="-5.199400">
        <ele>1998.0</ele>
        <time>2015-06-07T13:46:54Z</time>
      </trkpt>
      <trkpt lat="40.171300" lon="-5.199617">
        <ele>1999.0</ele>
        <time>2015-06-07T13:46:56Z</time>
      </trkpt>
      <trkpt lat="40.171417" lon="-5.199883">
        <ele>2001.0</ele>
        <time>2015-06-07T13:46:58Z</time>
      </trkpt>
      <trkpt lat="40.171450" lon="-5.200183">
        <ele>2004.0</ele>
        <time>2015-06-07T13:47:00Z</time>
      </trkpt>
      <trkpt lat="40.171417" lon="-5.200483">
        <ele>2008.0</ele>
        <time>2015-06-07T13:47:02Z</time>
      </trkpt>
      <trkpt lat="40.171350" lon="-5.200750">
        <ele>2013.0</ele>
        <time>2015-06-07T13:47:04Z</time>
      </trkpt>
      <trkpt lat="40.171267" lon="-5.201000">
        <ele>2015.0</ele>
        <time>2015-06-07T13:47:06Z</time>
      </trkpt>
      <trkpt lat="40.171117" lon="-5.201200">
        <ele>2016.0</ele>
        <time>2015-06-07T13:47:08Z</time>
      </trkpt>
      <trkpt lat="40.170950" lon="-5.201317">
        <ele>2019.0</ele>
        <time>2015-06-07T13:47:10Z</time>
      </trkpt>
      <trkpt lat="40.170783" lon="-5.201333">
        <ele>2020.0</ele>
        <time>2015-06-07T13:47:12Z</time>
      </trkpt>
      <trkpt lat="40.170617" lon="-5.201283">
        <ele>2019.0</ele>
        <time>2015-06-07T13:47:14Z</time>
      </trkpt>
      <trkpt lat="40.170467" lon="-5.201167">
        <ele>2017.0</ele>
        <time>2015-06-07T13:47:16Z</time>
      </trkpt>
      <trkpt lat="40.170383" lon="-5.201000">
        <ele>2015.0</ele>
        <time>2015-06-07T13:47:18Z</time>
      </trkpt>
      <trkpt lat="40.170350" lon="-5.200817">
        <ele>2017.0</ele>
        <time>2015-06-07T13:47:20Z</time>
      </trkpt>
      <trkpt lat="40.170367" lon="-5.200650">
        <ele>2022.0</ele>
        <time>2015-06-07T13:47:22Z</time>
      </trkpt>
      <trkpt lat="40.170383" lon="-5.200533">
        <ele>2027.0</ele>
        <time>2015-06-07T13:47:24Z</time>
      </trkpt>
      <trkpt lat="40.170450" lon="-5.200450">
        <ele>2027.0</ele>
        <time>2015-06-07T13:47:26Z</time>
      </trkpt>
      <trkpt lat="40.170567" lon="-5.200350">
        <ele>2026.0</ele>
        <time>2015-06-07T13:47:28Z</time>
      </trkpt>
      <trkpt lat="40.170700" lon="-5.200300">
        <ele>2025.0</ele>
        <time>2015-06-07T13:47:30Z</time>
      </trkpt>
      <trkpt lat="40.170850" lon="-5.200300">
        <ele>2023.0</ele>
        <time>2015-06-07T13:47:32Z</time>
      </trkpt>
      <trkpt lat="40.171067" lon="-5.200350">
        <ele>2022.0</ele>
        <time>2015-06-07T13:47:34Z</time>
      </trkpt>
      <trkpt lat="40.171250" lon="-5.200500">
        <ele>2022.0</ele>
        <time>2015-06-07T13:47:36Z</time>
      </trkpt>
      <trkpt lat="40.171383" lon="-5.200717">
        <ele>2020.0</ele>
        <time>2015-06-07T13:47:38Z</time>
      </trkpt>
      <trkpt lat="40.171500" lon="-5.201033">
        <ele>2019.0</ele>
        <time>2015-06-07T13:47:40Z</time>
      </trkpt>
      <trkpt lat="40.171583" lon="-5.201317">
        <ele>2024.0</ele>
        <time>2015-06-07T13:47:42Z</time>
      </trkpt>
      <trkpt lat="40.171650" lon="-5.201567">
        <ele>2024.0</ele>
        <time>2015-06-07T13:47:44Z</time>
      </trkpt>
      <trkpt lat="40.171683" lon="-5.201900">
        <ele>2022.0</ele>
        <time>2015-06-07T13:47:46Z</time>
      </trkpt>
      <trkpt lat="40.171683" lon="-5.202250">
        <ele>2023.0</ele>
        <time>2015-06-07T13:47:48Z</time>
      </trkpt>
      <trkpt lat="40.171717" lon="-5.202533">
        <ele>2025.0</ele>
        <time>2015-06-07T13:47:50Z</time>
      </trkpt>
      <trkpt lat="40.171833" lon="-5.202783">
        <ele>2024.0</ele>
        <time>2015-06-07T13:47:52Z</time>
      </trkpt>
      <trkpt lat="40.172017" lon="-5.202950">
        <ele>2023.0</ele>
        <time>2015-06-07T13:47:54Z</time>
      </trkpt>
      <trkpt lat="40.172233" lon="-5.203017">
        <ele>2022.0</ele>
        <time>2015-06-07T13:47:56Z</time>
      </trkpt>
      <trkpt lat="40.172383" lon="-5.202950">
        <ele>2023.0</ele>
        <time>2015-06-07T13:47:58Z</time>
      </trkpt>
      <trkpt lat="40.172417" lon="-5.202850">
        <ele>2019.0</ele>
        <time>2015-06-07T13:48:00Z</time>
      </trkpt>
      <trkpt lat="40.172400" lon="-5.202717">
        <ele>2012.0</ele>
        <time>2015-06-07T13:48:02Z</time>
      </trkpt>
      <trkpt lat="40.172317" lon="-5.202567">
        <ele>2008.0</ele>
        <time>2015-06-07T13:48:04Z</time>
      </trkpt>
      <trkpt lat="40.172167" lon="-5.202483">
        <ele>2008.0</ele>
        <time>2015-06-07T13:48:06Z</time>
      </trkpt>
      <trkpt lat="40.172017" lon="-5.202467">
        <ele>2010.0</ele>
        <time>2015-06-07T13:48:08Z</time>
      </trkpt>
      <trkpt lat="40.171883" lon="-5.202500">
        <ele>2010.0</ele>
        <time>2015-06-07T13:48:10Z</time>
      </trkpt>
      <trkpt lat="40.171717" lon="-5.202600">
        <ele>2009.0</ele>
        <time>2015-06-07T13:48:12Z</time>
      </trkpt>
      <trkpt lat="40.171550" lon="-5.202717">
        <ele>2008.0</ele>
        <time>2015-06-07T13:48:14Z</time>
      </trkpt>
      <trkpt lat="40.171417" lon="-5.202900">
        <ele>2008.0</ele>
        <time>2015-06-07T13:48:16Z</time>
      </trkpt>
      <trkpt lat="40.171317" lon="-5.203167">
        <ele>2010.0</ele>
        <time>2015-06-07T13:48:18Z</time>
      </trkpt>
      <trkpt lat="40.171250" lon="-5.203450">
        <ele>2013.0</ele>
        <time>2015-06-07T13:48:20Z</time>
      </trkpt>
      <trkpt lat="40.171183" lon="-5.203733">
        <ele>2014.0</ele>
        <time>2015-06-07T13:48:22Z</time>
      </trkpt>
      <trkpt lat="40.171167" lon="-5.204050">
        <ele>2013.0</ele>
        <time>2015-06-07T13:48:24Z</time>
      </trkpt>
      <trkpt lat="40.171200" lon="-5.204400">
        <ele>2012.0</ele>
        <time>2015-06-07T13:48:26Z</time>
      </trkpt>
      <trkpt lat="40.171200" lon="-5.204750">
        <ele>2012.0</ele>
        <time>2015-06-07T13:48:28Z</time>
      </trkpt>
      <trkpt lat="40.171200" lon="-5.205050">
        <ele>2013.0</ele>
        <time>2015-06-07T13:48:30Z</time>
      </trkpt>
      <trkpt lat="40.171267" lon="-5.205367">
        <ele>2012.0</ele>
        <time>2015-06-07T13:48:32Z</time>
      </trkpt>
      <trkpt lat="40.171317" lon="-5.205683">
        <ele>2013.0</ele>
        <time>2015-06-07T13:48:34Z</time>
      </trkpt>
      <trkpt lat="40.171317" lon="-5.205983">
        <ele>2016.0</ele>
        <time>2015-06-07T13:48:36Z</time>
      </trkpt>
      <trkpt lat="40.171283" lon="-5.206300">
        <ele>2017.0</ele>
        <time>2015-06-07T13:48:38Z</time>
      </trkpt>
      <trkpt lat="40.171250" lon="-5.206633">
        <ele>2018.0</ele>
        <time>2015-06-07T13:48:40Z</time>
      </trkpt>
      <trkpt lat="40.171217" lon="-5.206950">
        <ele>2023.0</ele>
        <time>2015-06-07T13:48:42Z</time>
      </trkpt>
      <trkpt lat="40.171250" lon="-5.207217">
        <ele>2025.0</ele>
        <time>2015-06-07T13:48:44Z</time>
      </trkpt>
      <trkpt lat="40.171333" lon="-5.207483">
        <ele>2021.0</ele>
        <time>2015-06-07T13:48:46Z</time>
      </trkpt>
      <trkpt lat="40.171383" lon="-5.207800">
        <ele>2018.0</ele>
        <time>2015-06-07T13:48:48Z</time>
      </trkpt>
      <trkpt lat="40.171417" lon="-5.208117">
        <ele>2014.0</ele>
        <time>2015-06-07T13:48:50Z</time>
      </trkpt>
      <trkpt lat="40.171467" lon="-5.208467">
        <ele>2010.0</ele>
        <time>2015-06-07T13:48:52Z</time>
      </trkpt>
      <trkpt lat="40.171500" lon="-5.208800">
        <ele>2010.0</ele>
        <time>2015-06-07T13:48:54Z</time>
      </trkpt>
      <trkpt lat="40.171550" lon="-5.209067">
        <ele>2010.0</ele>
        <time>2015-06-07T13:48:56Z</time>
      </trkpt>
      <trkpt lat="40.171633" lon="-5.209300">
        <ele>2006.0</ele>
        <time>2015-06-07T13:48:58Z</time>
      </trkpt>
      <trkpt lat="40.171733" lon="-5.209583">
        <ele>2000.0</ele>
        <time>2015-06-07T13:49:00Z</time>
      </trkpt>
      <trkpt lat="40.171767" lon="-5.209900">
        <ele>1997.0</ele>
        <time>2015-06-07T13:49:02Z</time>
      </trkpt>
      <trkpt lat="40.171783" lon="-5.210167">
        <ele>1995.0</ele>
        <time>2015-06-07T13:49:04Z</time>
      </trkpt>
      <trkpt lat="40.171783" lon="-5.210467">
        <ele>1990.0</ele>
        <time>2015-06-07T13:49:06Z</time>
      </trkpt>
      <trkpt lat="40.171750" lon="-5.210800">
        <ele>1987.0</ele>
        <time>2015-06-07T13:49:08Z</time>
      </trkpt>
      <trkpt lat="40.171733" lon="-5.211117">
        <ele>1987.0</ele>
        <time>2015-06-07T13:49:10Z</time>
      </trkpt>
      <trkpt lat="40.171717" lon="-5.211383">
        <ele>1987.0</ele>
        <time>2015-06-07T13:49:12Z</time>
      </trkpt>
      <trkpt lat="40.171733" lon="-5.211683">
        <ele>1984.0</ele>
        <time>2015-06-07T13:49:14Z</time>
      </trkpt>
      <trkpt lat="40.171783" lon="-5.212000">
        <ele>1981.0</ele>
        <time>2015-06-07T13:49:16Z</time>
      </trkpt>
      <trkpt lat="40.171833" lon="-5.212300">
        <ele>1981.0</ele>
        <time>2015-06-07T13:49:18Z</time>
      </trkpt>
      <trkpt lat="40.171900" lon="-5.212583">
        <ele>1980.0</ele>
        <time>2015-06-07T13:49:20Z</time>
      </trkpt>
      <trkpt lat="40.171983" lon="-5.212867">
        <ele>1978.0</ele>
        <time>2015-06-07T13:49:22Z</time>
      </trkpt>
      <trkpt lat="40.172067" lon="-5.213183">
        <ele>1977.0</ele>
        <time>2015-06-07T13:49:24Z</time>
      </trkpt>
      <trkpt lat="40.172117" lon="-5.213483">
        <ele>1977.0</ele>
        <time>2015-06-07T13:49:26Z</time>
      </trkpt>
      <trkpt lat="40.172133" lon="-5.213767">
        <ele>1975.0</ele>
        <time>2015-06-07T13:49:28Z</time>
      </trkpt>
      <trkpt lat="40.172150" lon="-5.214083">
        <ele>1971.0</ele>
        <time>2015-06-07T13:49:30Z</time>
      </trkpt>
      <trkpt lat="40.172183" lon="-5.214400">
        <ele>1969.0</ele>
        <time>2015-06-07T13:49:32Z</time>
      </trkpt>
      <trkpt lat="40.172200" lon="-5.214683">
        <ele>1968.0</ele>
        <time>2015-06-07T13:49:34Z</time>
      </trkpt>
      <trkpt lat="40.172217" lon="-5.214983">
        <ele>1965.0</ele>
        <time>2015-06-07T13:49:36Z</time>
      </trkpt>
      <trkpt lat="40.172250" lon="-5.215267">
        <ele>1962.0</ele>
        <time>2015-06-07T13:49:38Z</time>
      </trkpt>
      <trkpt lat="40.172333" lon="-5.215550">
        <ele>1957.0</ele>
        <time>2015-06-07T13:49:40Z</time>
      </trkpt>
      <trkpt lat="40.172400" lon="-5.215850">
        <ele>1951.0</ele>
        <time>2015-06-07T13:49:42Z</time>
      </trkpt>
      <trkpt lat="40.172467" lon="-5.216167">
        <ele>1944.0</ele>
        <time>2015-06-07T13:49:44Z</time>
      </trkpt>
      <trkpt lat="40.172517" lon="-5.216483">
        <ele>1937.0</ele>
        <time>2015-06-07T13:49:46Z</time>
      </trkpt>
      <trkpt lat="40.172567" lon="-5.216800">
        <ele>1929.0</ele>
        <time>2015-06-07T13:49:48Z</time>
      </trkpt>
      <trkpt lat="40.172583" lon="-5.217150">
        <ele>1923.0</ele>
        <time>2015-06-07T13:49:50Z</time>
      </trkpt>
      <trkpt lat="40.172600" lon="-5.217467">
        <ele>1919.0</ele>
        <time>2015-06-07T13:49:52Z</time>
      </trkpt>
      <trkpt lat="40.172633" lon="-5.217783">
        <ele>1914.0</ele>
        <time>2015-06-07T13:49:54Z</time>
      </trkpt>
      <trkpt lat="40.172633" lon="-5.218117">
        <ele>1908.0</ele>
        <time>2015-06-07T13:49:56Z</time>
      </trkpt>
      <trkpt lat="40.172650" lon="-5.218433">
        <ele>1904.0</ele>
        <time>2015-06-07T13:49:58Z</time>
      </trkpt>
      <trkpt lat="40.172667" lon="-5.218750">
        <ele>1899.0</ele>
        <time>2015-06-07T13:50:00Z</time>
      </trkpt>
      <trkpt lat="40.172667" lon="-5.219100">
        <ele>1894.0</ele>
        <time>2015-06-07T13:50:02Z</time>
      </trkpt>
      <trkpt lat="40.172700" lon="-5.219433">
        <ele>1892.0</ele>
        <time>2015-06-07T13:50:04Z</time>
      </trkpt>
      <trkpt lat="40.172717" lon="-5.219733">
        <ele>1889.0</ele>
        <time>2015-06-07T13:50:06Z</time>
      </trkpt>
      <trkpt lat="40.172750" lon="-5.220033">
        <ele>1883.0</ele>
        <time>2015-06-07T13:50:08Z</time>
      </trkpt>
      <trkpt lat="40.172800" lon="-5.220383">
        <ele>1879.0</ele>
        <time>2015-06-07T13:50:10Z</time>
      </trkpt>
      <trkpt lat="40.172867" lon="-5.220700">
        <ele>1877.0</ele>
        <time>2015-06-07T13:50:12Z</time>
      </trkpt>
      <trkpt lat="40.172933" lon="-5.220983">
        <ele>1874.0</ele>
        <time>2015-06-07T13:50:14Z</time>
      </trkpt>
      <trkpt lat="40.173000" lon="-5.221300">
        <ele>1870.0</ele>
        <time>2015-06-07T13:50:16Z</time>
      </trkpt>
      <trkpt lat="40.173033" lon="-5.221617">
        <ele>1867.0</ele>
        <time>2015-06-07T13:50:18Z</time>
      </trkpt>
      <trkpt lat="40.173067" lon="-5.221933">
        <ele>1864.0</ele>
        <time>2015-06-07T13:50:20Z</time>
      </trkpt>
      <trkpt lat="40.173100" lon="-5.222267">
        <ele>1860.0</ele>
        <time>2015-06-07T13:50:22Z</time>
      </trkpt>
      <trkpt lat="40.173117" lon="-5.222583">
        <ele>1857.0</ele>
        <time>2015-06-07T13:50:24Z</time>
      </trkpt>
      <trkpt lat="40.173150" lon="-5.222900">
        <ele>1854.0</ele>
        <time>2015-06-07T13:50:26Z</time>
      </trkpt>
      <trkpt lat="40.173183" lon="-5.223200">
        <ele>1849.0</ele>
        <time>2015-06-07T13:50:28Z</time>
      </trkpt>
      <trkpt lat="40.173217" lon="-5.223500">
        <ele>1845.0</ele>
        <time>2015-06-07T13:50:30Z</time>
      </trkpt>
      <trkpt lat="40.173267" lon="-5.223817">
        <ele>1839.0</ele>
        <time>2015-06-07T13:50:32Z</time>
      </trkpt>
      <trkpt lat="40.173300" lon="-5.224133">
        <ele>1834.0</ele>
        <time>2015-06-07T13:50:34Z</time>
      </trkpt>
      <trkpt lat="40.173317" lon="-5.224417">
        <ele>1830.0</ele>
        <time>2015-06-07T13:50:36Z</time>
      </trkpt>
      <trkpt lat="40.173350" lon="-5.224733">
        <ele>1824.0</ele>
        <time>2015-06-07T13:50:38Z</time>
      </trkpt>
      <trkpt lat="40.173367" lon="-5.225067">
        <ele>1819.0</ele>
        <time>2015-06-07T13:50:40Z</time>
      </trkpt>
      <trkpt lat="40.173383" lon="-5.225367">
        <ele>1815.0</ele>
        <time>2015-06-07T13:50:42Z</time>
      </trkpt>
      <trkpt lat="40.173400" lon="-5.225667">
        <ele>1811.0</ele>
        <time>2015-06-07T13:50:44Z</time>
      </trkpt>
      <trkpt lat="40.173433" lon="-5.225983">
        <ele>1805.0</ele>
        <time>2015-06-07T13:50:46Z</time>
      </trkpt>
      <trkpt lat="40.173450" lon="-5.226300">
        <ele>1799.0</ele>
        <time>2015-06-07T13:50:48Z</time>
      </trkpt>
      <trkpt lat="40.173467" lon="-5.226633">
        <ele>1796.0</ele>
        <time>2015-06-07T13:50:50Z</time>
      </trkpt>
      <trkpt lat="40.173483" lon="-5.226950">
        <ele>1793.0</ele>
        <time>2015-06-07T13:50:52Z</time>
      </trkpt>
      <trkpt lat="40.173483" lon="-5.227250">
        <ele>1788.0</ele>
        <time>2015-06-07T13:50:54Z</time>
      </trkpt>
      <trkpt lat="40.173467" lon="-5.227583">
        <ele>1785.0</ele>
        <time>2015-06-07T13:50:56Z</time>
      </trkpt>
      <trkpt lat="40.173467" lon="-5.227883">
        <ele>1782.0</ele>
        <time>2015-06-07T13:50:58Z</time>
      </trkpt>
      <trkpt lat="40.173450" lon="-5.228183">
        <ele>1779.0</ele>
        <time>2015-06-07T13:51:00Z</time>
      </trkpt>
      <trkpt lat="40.173450" lon="-5.228483">
        <ele>1774.0</ele>
        <time>2015-06-07T13:51:02Z</time>
      </trkpt>
      <trkpt lat="40.173433" lon="-5.228817">
        <ele>1771.0</ele>
        <time>2015-06-07T13:51:04Z</time>
      </trkpt>
      <trkpt lat="40.173433" lon="-5.229133">
        <ele>1768.0</ele>
        <time>2015-06-07T13:51:06Z</time>
      </trkpt>
      <trkpt lat="40.173450" lon="-5.229433">
        <ele>1765.0</ele>
        <time>2015-06-07T13:51:08Z</time>
      </trkpt>
      <trkpt lat="40.173450" lon="-5.229750">
        <ele>1762.0</ele>
        <time>2015-06-07T13:51:10Z</time>
      </trkpt>
      <trkpt lat="40.173450" lon="-5.230050">
        <ele>1759.0</ele>
        <time>2015-06-07T13:51:12Z</time>
      </trkpt>
      <trkpt lat="40.173433" lon="-5.230350">
        <ele>1756.0</ele>
        <time>2015-06-07T13:51:14Z</time>
      </trkpt>
      <trkpt lat="40.173417" lon="-5.230650">
        <ele>1752.0</ele>
        <time>2015-06-07T13:51:16Z</time>
      </trkpt>
      <trkpt lat="40.173417" lon="-5.230950">
        <ele>1747.0</ele>
        <time>2015-06-07T13:51:18Z</time>
      </trkpt>
      <trkpt lat="40.173417" lon="-5.231233">
        <ele>1741.0</ele>
        <time>2015-06-07T13:51:20Z</time>
      </trkpt>
      <trkpt lat="40.173400" lon="-5.231567">
        <ele>1736.0</ele>
        <time>2015-06-07T13:51:22Z</time>
      </trkpt>
      <trkpt lat="40.173383" lon="-5.231867">
        <ele>1732.0</ele>
        <time>2015-06-07T13:51:24Z</time>
      </trkpt>
      <trkpt lat="40.173367" lon="-5.232167">
        <ele>1727.0</ele>
        <time>2015-06-07T13:51:26Z</time>
      </trkpt>
      <trkpt lat="40.173350" lon="-5.232483">
        <ele>1722.0</ele>
        <time>2015-06-07T13:51:28Z</time>
      </trkpt>
      <trkpt lat="40.173350" lon="-5.232800">
        <ele>1718.0</ele>
        <time>2015-06-07T13:51:30Z</time>
      </trkpt>
      <trkpt lat="40.173350" lon="-5.233117">
        <ele>1714.0</ele>
        <time>2015-06-07T13:51:32Z</time>
      </trkpt>
      <trkpt lat="40.173333" lon="-5.233433">
        <ele>1709.0</ele>
        <time>2015-06-07T13:51:34Z</time>
      </trkpt>
      <trkpt lat="40.173333" lon="-5.233733">
        <ele>1705.0</ele>
        <time>2015-06-07T13:51:36Z</time>
      </trkpt>
      <trkpt lat="40.173317" lon="-5.234050">
        <ele>1700.0</ele>
        <time>2015-06-07T13:51:38Z</time>
      </trkpt>
      <trkpt lat="40.173300" lon="-5.234350">
        <ele>1695.0</ele>
        <time>2015-06-07T13:51:40Z</time>
      </trkpt>
      <trkpt lat="40.173317" lon="-5.234667">
        <ele>1690.0</ele>
        <time>2015-06-07T13:51:42Z</time>
      </trkpt>
      <trkpt lat="40.173317" lon="-5.234967">
        <ele>1685.0</ele>
        <time>2015-06-07T13:51:44Z</time>
      </trkpt>
      <trkpt lat="40.173317" lon="-5.235283">
        <ele>1680.0</ele>
        <time>2015-06-07T13:51:46Z</time>
      </trkpt>
      <trkpt lat="40.173317" lon="-5.235583">
        <ele>1676.0</ele>
        <time>2015-06-07T13:51:48Z</time>
      </trkpt>
      <trkpt lat="40.173317" lon="-5.235900">
        <ele>1671.0</ele>
        <time>2015-06-07T13:51:50Z</time>
      </trkpt>
      <trkpt lat="40.173317" lon="-5.236200">
        <ele>1666.0</ele>
        <time>2015-06-07T13:51:52Z</time>
      </trkpt>
      <trkpt lat="40.173333" lon="-5.236500">
        <ele>1661.0</ele>
        <time>2015-06-07T13:51:54Z</time>
      </trkpt>
      <trkpt lat="40.173333" lon="-5.236817">
        <ele>1656.0</ele>
        <time>2015-06-07T13:51:56Z</time>
      </trkpt>
      <trkpt lat="40.173350" lon="-5.237117">
        <ele>1651.0</ele>
        <time>2015-06-07T13:51:58Z</time>
      </trkpt>
      <trkpt lat="40.173367" lon="-5.237417">
        <ele>1647.0</ele>
        <time>2015-06-07T13:52:00Z</time>
      </trkpt>
      <trkpt lat="40.173400" lon="-5.237733">
        <ele>1641.0</ele>
        <time>2015-06-07T13:52:02Z</time>
      </trkpt>
      <trkpt lat="40.173400" lon="-5.238050">
        <ele>1636.0</ele>
        <time>2015-06-07T13:52:04Z</time>
      </trkpt>
      <trkpt lat="40.173400" lon="-5.238367">
        <ele>1632.0</ele>
        <time>2015-06-07T13:52:06Z</time>
      </trkpt>
      <trkpt lat="40.173417" lon="-5.238683">
        <ele>1628.0</ele>
        <time>2015-06-07T13:52:08Z</time>
      </trkpt>
      <trkpt lat="40.173417" lon="-5.239017">
        <ele>1623.0</ele>
        <time>2015-06-07T13:52:10Z</time>
      </trkpt>
      <trkpt lat="40.173417" lon="-5.239333">
        <ele>1619.0</ele>
        <time>2015-06-07T13:52:12Z</time>
      </trkpt>
      <trkpt lat="40.173417" lon="-5.239650">
        <ele>1615.0</ele>
        <time>2015-06-07T13:52:14Z</time>
      </trkpt>
      <trkpt lat="40.173400" lon="-5.239983">
        <ele>1610.0</ele>
        <time>2015-06-07T13:52:16Z</time>
      </trkpt>
      <trkpt lat="40.173367" lon="-5.240300">
        <ele>1606.0</ele>
        <time>2015-06-07T13:52:18Z</time>
      </trkpt>
      <trkpt lat="40.173317" lon="-5.240600">
        <ele>1601.0</ele>
        <time>2015-06-07T13:52:20Z</time>
      </trkpt>
      <trkpt lat="40.173267" lon="-5.240917">
        <ele>1597.0</ele>
        <time>2015-06-07T13:52:22Z</time>
      </trkpt>
      <trkpt lat="40.173217" lon="-5.241233">
        <ele>1592.0</ele>
        <time>2015-06-07T13:52:24Z</time>
      </trkpt>
      <trkpt lat="40.173183" lon="-5.241533">
        <ele>1589.0</ele>
        <time>2015-06-07T13:52:26Z</time>
      </trkpt>
      <trkpt lat="40.173200" lon="-5.241833">
        <ele>1585.0</ele>
        <time>2015-06-07T13:52:28Z</time>
      </trkpt>
      <trkpt lat="40.173233" lon="-5.242133">
        <ele>1580.0</ele>
        <time>2015-06-07T13:52:30Z</time>
      </trkpt>
      <trkpt lat="40.173283" lon="-5.242433">
        <ele>1576.0</ele>
        <time>2015-06-07T13:52:32Z</time>
      </trkpt>
      <trkpt lat="40.173333" lon="-5.242767">
        <ele>1572.0</ele>
        <time>2015-06-07T13:52:34Z</time>
      </trkpt>
      <trkpt lat="40.173367" lon="-5.243083">
        <ele>1569.0</ele>
        <time>2015-06-07T13:52:36Z</time>
      </trkpt>
      <trkpt lat="40.173400" lon="-5.243400">
        <ele>1566.0</ele>
        <time>2015-06-07T13:52:38Z</time>
      </trkpt>
      <trkpt lat="40.173433" lon="-5.243700">
        <ele>1563.0</ele>
        <time>2015-06-07T13:52:40Z</time>
      </trkpt>
      <trkpt lat="40.173450" lon="-5.244000">
        <ele>1558.0</ele>
        <time>2015-06-07T13:52:42Z</time>
      </trkpt>
      <trkpt lat="40.173483" lon="-5.244317">
        <ele>1552.0</ele>
        <time>2015-06-07T13:52:44Z</time>
      </trkpt>
      <trkpt lat="40.173500" lon="-5.244650">
        <ele>1546.0</ele>
        <time>2015-06-07T13:52:46Z</time>
      </trkpt>
      <trkpt lat="40.173517" lon="-5.244950">
        <ele>1542.0</ele>
        <time>2015-06-07T13:52:48Z</time>
      </trkpt>
      <trkpt lat="40.173533" lon="-5.245250">
        <ele>1538.0</ele>
        <time>2015-06-07T13:52:50Z</time>
      </trkpt>
      <trkpt lat="40.173550" lon="-5.245567">
        <ele>1532.0</ele>
        <time>2015-06-07T13:52:52Z</time>
      </trkpt>
      <trkpt lat="40.173567" lon="-5.245883">
        <ele>1528.0</ele>
        <time>2015-06-07T13:52:54Z</time>
      </trkpt>
      <trkpt lat="40.173567" lon="-5.246200">
        <ele>1523.0</ele>
        <time>2015-06-07T13:52:56Z</time>
      </trkpt>
      <trkpt lat="40.173583" lon="-5.246500">
        <ele>1519.0</ele>
        <time>2015-06-07T13:52:58Z</time>
      </trkpt>
      <trkpt lat="40.173617" lon="-5.246783">
        <ele>1514.0</ele>
        <time>2015-06-07T13:53:00Z</time>
      </trkpt>
      <trkpt lat="40.173667" lon="-5.247100">
        <ele>1509.0</ele>
        <time>2015-06-07T13:53:02Z</time>
      </trkpt>
      <trkpt lat="40.173717" lon="-5.247400">
        <ele>1505.0</ele>
        <time>2015-06-07T13:53:04Z</time>
      </trkpt>
      <trkpt lat="40.173750" lon="-5.247717">
        <ele>1501.0</ele>
        <time>2015-06-07T13:53:06Z</time>
      </trkpt>
      <trkpt lat="40.173783" lon="-5.248017">
        <ele>1497.0</ele>
        <time>2015-06-07T13:53:08Z</time>
      </trkpt>
      <trkpt lat="40.173833" lon="-5.248317">
        <ele>1493.0</ele>
        <time>2015-06-07T13:53:10Z</time>
      </trkpt>
      <trkpt lat="40.173867" lon="-5.248600">
        <ele>1490.0</ele>
        <time>2015-06-07T13:53:12Z</time>
      </trkpt>
      <trkpt lat="40.173917" lon="-5.248883">
        <ele>1486.0</ele>
        <time>2015-06-07T13:53:14Z</time>
      </trkpt>
      <trkpt lat="40.173967" lon="-5.249183">
        <ele>1482.0</ele>
        <time>2015-06-07T13:53:16Z</time>
      </trkpt>
      <trkpt lat="40.174000" lon="-5.249500">
        <ele>1478.0</ele>
        <time>2015-06-07T13:53:18Z</time>
      </trkpt>
      <trkpt lat="40.174033" lon="-5.249800">
        <ele>1475.0</ele>
        <time>2015-06-07T13:53:20Z</time>
      </trkpt>
      <trkpt lat="40.174067" lon="-5.250100">
        <ele>1471.0</ele>
        <time>2015-06-07T13:53:22Z</time>
      </trkpt>
      <trkpt lat="40.174083" lon="-5.250417">
        <ele>1466.0</ele>
        <time>2015-06-07T13:53:24Z</time>
      </trkpt>
      <trkpt lat="40.174083" lon="-5.250717">
        <ele>1462.0</ele>
        <time>2015-06-07T13:53:26Z</time>
      </trkpt>
      <trkpt lat="40.174083" lon="-5.251017">
        <ele>1459.0</ele>
        <time>2015-06-07T13:53:28Z</time>
      </trkpt>
      <trkpt lat="40.174067" lon="-5.251317">
        <ele>1454.0</ele>
        <time>2015-06-07T13:53:30Z</time>
      </trkpt>
      <trkpt lat="40.174083" lon="-5.251633">
        <ele>1450.0</ele>
        <time>2015-06-07T13:53:32Z</time>
      </trkpt>
      <trkpt lat="40.174167" lon="-5.251917">
        <ele>1447.0</ele>
        <time>2015-06-07T13:53:34Z</time>
      </trkpt>
      <trkpt lat="40.174267" lon="-5.252217">
        <ele>1442.0</ele>
        <time>2015-06-07T13:53:36Z</time>
      </trkpt>
      <trkpt lat="40.174333" lon="-5.252533">
        <ele>1438.0</ele>
        <time>2015-06-07T13:53:38Z</time>
      </trkpt>
      <trkpt lat="40.174433" lon="-5.252833">
        <ele>1435.0</ele>
        <time>2015-06-07T13:53:40Z</time>
      </trkpt>
      <trkpt lat="40.174533" lon="-5.253100">
        <ele>1432.0</ele>
        <time>2015-06-07T13:53:42Z</time>
      </trkpt>
      <trkpt lat="40.174633" lon="-5.253367">
        <ele>1427.0</ele>
        <time>2015-06-07T13:53:44Z</time>
      </trkpt>
      <trkpt lat="40.174750" lon="-5.253633">
        <ele>1424.0</ele>
        <time>2015-06-07T13:53:46Z</time>
      </trkpt>
      <trkpt lat="40.174850" lon="-5.253900">
        <ele>1422.0</ele>
        <time>2015-06-07T13:53:48Z</time>
      </trkpt>
      <trkpt lat="40.174933" lon="-5.254183">
        <ele>1417.0</ele>
        <time>2015-06-07T13:53:50Z</time>
      </trkpt>
      <trkpt lat="40.175017" lon="-5.254500">
        <ele>1412.0</ele>
        <time>2015-06-07T13:53:52Z</time>
      </trkpt>
      <trkpt lat="40.175100" lon="-5.254817">
        <ele>1409.0</ele>
        <time>2015-06-07T13:53:54Z</time>
      </trkpt>
      <trkpt lat="40.175183" lon="-5.255117">
        <ele>1408.0</ele>
        <time>2015-06-07T13:53:56Z</time>
      </trkpt>
      <trkpt lat="40.175267" lon="-5.255400">
        <ele>1405.0</ele>
        <time>2015-06-07T13:53:58Z</time>
      </trkpt>
      <trkpt lat="40.175367" lon="-5.255667">
        <ele>1403.0</ele>
        <time>2015-06-07T13:54:00Z</time>
      </trkpt>
      <trkpt lat="40.175483" lon="-5.255917">
        <ele>1401.0</ele>
        <time>2015-06-07T13:54:02Z</time>
      </trkpt>
      <trkpt lat="40.175600" lon="-5.256183">
        <ele>1397.0</ele>
        <time>2015-06-07T13:54:04Z</time>
      </trkpt>
      <trkpt lat="40.175700" lon="-5.256483">
        <ele>1395.0</ele>
        <time>2015-06-07T13:54:06Z</time>
      </trkpt>
      <trkpt lat="40.175800" lon="-5.256750">
        <ele>1393.0</ele>
        <time>2015-06-07T13:54:08Z</time>
      </trkpt>
      <trkpt lat="40.175917" lon="-5.257033">
        <ele>1390.0</ele>
        <time>2015-06-07T13:54:10Z</time>
      </trkpt>
      <trkpt lat="40.176000" lon="-5.257333">
        <ele>1387.0</ele>
        <time>2015-06-07T13:54:12Z</time>
      </trkpt>
      <trkpt lat="40.176083" lon="-5.257633">
        <ele>1385.0</ele>
        <time>2015-06-07T13:54:14Z</time>
      </trkpt>
      <trkpt lat="40.176167" lon="-5.257933">
        <ele>1382.0</ele>
        <time>2015-06-07T13:54:16Z</time>
      </trkpt>
      <trkpt lat="40.176233" lon="-5.258233">
        <ele>1379.0</ele>
        <time>2015-06-07T13:54:18Z</time>
      </trkpt>
      <trkpt lat="40.176317" lon="-5.258550">
        <ele>1375.0</ele>
        <time>2015-06-07T13:54:20Z</time>
      </trkpt>
      <trkpt lat="40.176400" lon="-5.258850">
        <ele>1371.0</ele>
        <time>2015-06-07T13:54:22Z</time>
      </trkpt>
      <trkpt lat="40.176483" lon="-5.259150">
        <ele>1368.0</ele>
        <time>2015-06-07T13:54:24Z</time>
      </trkpt>
      <trkpt lat="40.176550" lon="-5.259467">
        <ele>1365.0</ele>
        <time>2015-06-07T13:54:26Z</time>
      </trkpt>
      <trkpt lat="40.176550" lon="-5.259767">
        <ele>1361.0</ele>
        <time>2015-06-07T13:54:28Z</time>
      </trkpt>
      <trkpt lat="40.176550" lon="-5.260083">
        <ele>1358.0</ele>
        <time>2015-06-07T13:54:30Z</time>
      </trkpt>
      <trkpt lat="40.176500" lon="-5.260383">
        <ele>1354.0</ele>
        <time>2015-06-07T13:54:32Z</time>
      </trkpt>
      <trkpt lat="40.176450" lon="-5.260683">
        <ele>1349.0</ele>
        <time>2015-06-07T13:54:34Z</time>
      </trkpt>
      <trkpt lat="40.176400" lon="-5.260967">
        <ele>1344.0</ele>
        <time>2015-06-07T13:54:36Z</time>
      </trkpt>
      <trkpt lat="40.176333" lon="-5.261267">
        <ele>1340.0</ele>
        <time>2015-06-07T13:54:38Z</time>
      </trkpt>
      <trkpt lat="40.176233" lon="-5.261517">
        <ele>1336.0</ele>
        <time>2015-06-07T13:54:40Z</time>
      </trkpt>
      <trkpt lat="40.176117" lon="-5.261767">
        <ele>1331.0</ele>
        <time>2015-06-07T13:54:42Z</time>
      </trkpt>
      <trkpt lat="40.176000" lon="-5.262033">
        <ele>1326.0</ele>
        <time>2015-06-07T13:54:44Z</time>
      </trkpt>
      <trkpt lat="40.175850" lon="-5.262267">
        <ele>1322.0</ele>
        <time>2015-06-07T13:54:46Z</time>
      </trkpt>
      <trkpt lat="40.175683" lon="-5.262450">
        <ele>1317.0</ele>
        <time>2015-06-07T13:54:48Z</time>
      </trkpt>
      <trkpt lat="40.175517" lon="-5.262633">
        <ele>1311.0</ele>
        <time>2015-06-07T13:54:50Z</time>
      </trkpt>
      <trkpt lat="40.175333" lon="-5.262850">
        <ele>1305.0</ele>
        <time>2015-06-07T13:54:52Z</time>
      </trkpt>
      <trkpt lat="40.175183" lon="-5.263117">
        <ele>1303.0</ele>
        <time>2015-06-07T13:54:54Z</time>
      </trkpt>
      <trkpt lat="40.175117" lon="-5.263417">
        <ele>1302.0</ele>
        <time>2015-06-07T13:54:56Z</time>
      </trkpt>
      <trkpt lat="40.175083" lon="-5.263783">
        <ele>1304.0</ele>
        <time>2015-06-07T13:54:58Z</time>
      </trkpt>
      <trkpt lat="40.175100" lon="-5.264083">
        <ele>1310.0</ele>
        <time>2015-06-07T13:55:00Z</time>
      </trkpt>
      <trkpt lat="40.175183" lon="-5.264350">
        <ele>1312.0</ele>
        <time>2015-06-07T13:55:02Z</time>
      </trkpt>
      <trkpt lat="40.175300" lon="-5.264633">
        <ele>1311.0</ele>
        <time>2015-06-07T13:55:04Z</time>
      </trkpt>
      <trkpt lat="40.175450" lon="-5.264867">
        <ele>1313.0</ele>
        <time>2015-06-07T13:55:06Z</time>
      </trkpt>
      <trkpt lat="40.175583" lon="-5.264967">
        <ele>1314.0</ele>
        <time>2015-06-07T13:55:08Z</time>
      </trkpt>
      <trkpt lat="40.175733" lon="-5.264950">
        <ele>1313.0</ele>
        <time>2015-06-07T13:55:10Z</time>
      </trkpt>
      <trkpt lat="40.175783" lon="-5.264850">
        <ele>1311.0</ele>
        <time>2015-06-07T13:55:12Z</time>
      </trkpt>
      <trkpt lat="40.175733" lon="-5.264750">
        <ele>1310.0</ele>
        <time>2015-06-07T13:55:14Z</time>
      </trkpt>
      <trkpt lat="40.175617" lon="-5.264717">
        <ele>1309.0</ele>
        <time>2015-06-07T13:55:16Z</time>
      </trkpt>
      <trkpt lat="40.175500" lon="-5.264650">
        <ele>1312.0</ele>
        <time>2015-06-07T13:55:18Z</time>
      </trkpt>
      <trkpt lat="40.175367" lon="-5.264650">
        <ele>1316.0</ele>
        <time>2015-06-07T13:55:20Z</time>
      </trkpt>
      <trkpt lat="40.175233" lon="-5.264683">
        <ele>1316.0</ele>
        <time>2015-06-07T13:55:22Z</time>
      </trkpt>
      <trkpt lat="40.175050" lon="-5.264817">
        <ele>1314.0</ele>
        <time>2015-06-07T13:55:24Z</time>
      </trkpt>
      <trkpt lat="40.174883" lon="-5.265050">
        <ele>1316.0</ele>
        <time>2015-06-07T13:55:26Z</time>
      </trkpt>
      <trkpt lat="40.174767" lon="-5.265317">
        <ele>1318.0</ele>
        <time>2015-06-07T13:55:28Z</time>
      </trkpt>
      <trkpt lat="40.174717" lon="-5.265633">
        <ele>1319.0</ele>
        <time>2015-06-07T13:55:30Z</time>
      </trkpt>
      <trkpt lat="40.174750" lon="-5.265983">
        <ele>1318.0</ele>
        <time>2015-06-07T13:55:32Z</time>
      </trkpt>
      <trkpt lat="40.174850" lon="-5.266283">
        <ele>1320.0</ele>
        <time>2015-06-07T13:55:34Z</time>
      </trkpt>
      <trkpt lat="40.175000" lon="-5.266533">
        <ele>1324.0</ele>
        <time>2015-06-07T13:55:36Z</time>
      </trkpt>
      <trkpt lat="40.175133" lon="-5.266667">
        <ele>1327.0</ele>
        <time>2015-06-07T13:55:38Z</time>
      </trkpt>
      <trkpt lat="40.175283" lon="-5.266733">
        <ele>1327.0</ele>
        <time>2015-06-07T13:55:40Z</time>
      </trkpt>
      <trkpt lat="40.175450" lon="-5.266717">
        <ele>1326.0</ele>
        <time>2015-06-07T13:55:42Z</time>
      </trkpt>
      <trkpt lat="40.175567" lon="-5.266667">
        <ele>1330.0</ele>
        <time>2015-06-07T13:55:44Z</time>
      </trkpt>
      <trkpt lat="40.175617" lon="-5.266650">
        <ele>1332.0</ele>
        <time>2015-06-07T13:55:46Z</time>
      </trkpt>
      <trkpt lat="40.175633" lon="-5.266567">
        <ele>1329.0</ele>
        <time>2015-06-07T13:55:48Z</time>
      </trkpt>
      <trkpt lat="40.175583" lon="-5.266400">
        <ele>1327.0</ele>
        <time>2015-06-07T13:55:50Z</time>
      </trkpt>
      <trkpt lat="40.175450" lon="-5.266300">
        <ele>1330.0</ele>
        <time>2015-06-07T13:55:52Z</time>
      </trkpt>
      <trkpt lat="40.175300" lon="-5.266333">
        <ele>1332.0</ele>
        <time>2015-06-07T13:55:54Z</time>
      </trkpt>
      <trkpt lat="40.175133" lon="-5.266417">
        <ele>1332.0</ele>
        <time>2015-06-07T13:55:56Z</time>
      </trkpt>
      <trkpt lat="40.174967" lon="-5.266600">
        <ele>1332.0</ele>
        <time>2015-06-07T13:55:58Z</time>
      </trkpt>
      <trkpt lat="40.174850" lon="-5.266883">
        <ele>1335.0</ele>
        <time>2015-06-07T13:56:00Z</time>
      </trkpt>
      <trkpt lat="40.174800" lon="-5.267183">
        <ele>1338.0</ele>
        <time>2015-06-07T13:56:02Z</time>
      </trkpt>
      <trkpt lat="40.174867" lon="-5.267517">
        <ele>1339.0</ele>
        <time>2015-06-07T13:56:04Z</time>
      </trkpt>
      <trkpt lat="40.175000" lon="-5.267783">
        <ele>1342.0</ele>
        <time>2015-06-07T13:56:06Z</time>
      </trkpt>
      <trkpt lat="40.175133" lon="-5.267967">
        <ele>1346.0</ele>
        <time>2015-06-07T13:56:08Z</time>
      </trkpt>
      <trkpt lat="40.175283" lon="-5.268083">
        <ele>1347.0</ele>
        <time>2015-06-07T13:56:10Z</time>
      </trkpt>
      <trkpt lat="40.175467" lon="-5.268100">
        <ele>1345.0</ele>
        <time>2015-06-07T13:56:12Z</time>
      </trkpt>
      <trkpt lat="40.175633" lon="-5.268017">
        <ele>1347.0</ele>
        <time>2015-06-07T13:56:14Z</time>
      </trkpt>
      <trkpt lat="40.175683" lon="-5.267917">
        <ele>1350.0</ele>
        <time>2015-06-07T13:56:16Z</time>
      </trkpt>
      <trkpt lat="40.175683" lon="-5.267833">
        <ele>1350.0</ele>
        <time>2015-06-07T13:56:18Z</time>
      </trkpt>
      <trkpt lat="40.175683" lon="-5.267700">
        <ele>1348.0</ele>
        <time>2015-06-07T13:56:20Z</time>
      </trkpt>
      <trkpt lat="40.175600" lon="-5.267567">
        <ele>1346.0</ele>
        <time>2015-06-07T13:56:22Z</time>
      </trkpt>
      <trkpt lat="40.175417" lon="-5.267567">
        <ele>1344.0</ele>
        <time>2015-06-07T13:56:24Z</time>
      </trkpt>
      <trkpt lat="40.175233" lon="-5.267683">
        <ele>1345.0</ele>
        <time>2015-06-07T13:56:26Z</time>
      </trkpt>
      <trkpt lat="40.175083" lon="-5.267917">
        <ele>1345.0</ele>
        <time>2015-06-07T13:56:28Z</time>
      </trkpt>
      <trkpt lat="40.174983" lon="-5.268217">
        <ele>1344.0</ele>
        <time>2015-06-07T13:56:30Z</time>
      </trkpt>
      <trkpt lat="40.174900" lon="-5.268533">
        <ele>1345.0</ele>
        <time>2015-06-07T13:56:32Z</time>
      </trkpt>
      <trkpt lat="40.174900" lon="-5.268883">
        <ele>1347.0</ele>
        <time>2015-06-07T13:56:34Z</time>
      </trkpt>
      <trkpt lat="40.174950" lon="-5.269233">
        <ele>1347.0</ele>
        <time>2015-06-07T13:56:36Z</time>
      </trkpt>
      <trkpt lat="40.175067" lon="-5.269600">
        <ele>1347.0</ele>
        <time>2015-06-07T13:56:38Z</time>
      </trkpt>
      <trkpt lat="40.175233" lon="-5.269833">
        <ele>1349.0</ele>
        <time>2015-06-07T13:56:40Z</time>
      </trkpt>
      <trkpt lat="40.175417" lon="-5.269983">
        <ele>1350.0</ele>
        <time>2015-06-07T13:56:42Z</time>
      </trkpt>
      <trkpt lat="40.175567" lon="-5.270067">
        <ele>1351.0</ele>
        <time>2015-06-07T13:56:44Z</time>
      </trkpt>
      <trkpt lat="40.175700" lon="-5.270100">
        <ele>1351.0</ele>
        <time>2015-06-07T13:56:46Z</time>
      </trkpt>
      <trkpt lat="40.175833" lon="-5.270100">
        <ele>1348.0</ele>
        <time>2015-06-07T13:56:48Z</time>
      </trkpt>
      <trkpt lat="40.175917" lon="-5.270017">
        <ele>1347.0</ele>
        <time>2015-06-07T13:56:50Z</time>
      </trkpt>
      <trkpt lat="40.175933" lon="-5.269917">
        <ele>1347.0</ele>
        <time>2015-06-07T13:56:52Z</time>
      </trkpt>
      <trkpt lat="40.175867" lon="-5.269817">
        <ele>1346.0</ele>
        <time>2015-06-07T13:56:54Z</time>
      </trkpt>
      <trkpt lat="40.175733" lon="-5.269767">
        <ele>1344.0</ele>
        <time>2015-06-07T13:56:56Z</time>
      </trkpt>
      <trkpt lat="40.175600" lon="-5.269717">
        <ele>1345.0</ele>
        <time>2015-06-07T13:56:58Z</time>
      </trkpt>
      <trkpt lat="40.175450" lon="-5.269717">
        <ele>1345.0</ele>
        <time>2015-06-07T13:57:00Z</time>
      </trkpt>
      <trkpt lat="40.175283" lon="-5.269783">
        <ele>1343.0</ele>
        <time>2015-06-07T13:57:02Z</time>
      </trkpt>
      <trkpt lat="40.175117" lon="-5.269967">
        <ele>1341.0</ele>
        <time>2015-06-07T13:57:04Z</time>
      </trkpt>
      <trkpt lat="40.174967" lon="-5.270250">
        <ele>1336.0</ele>
        <time>2015-06-07T13:57:06Z</time>
      </trkpt>
      <trkpt lat="40.174833" lon="-5.270567">
        <ele>1333.0</ele>
        <time>2015-06-07T13:57:08Z</time>
      </trkpt>
      <trkpt lat="40.174733" lon="-5.270917">
        <ele>1331.0</ele>
        <time>2015-06-07T13:57:10Z</time>
      </trkpt>
      <trkpt lat="40.174600" lon="-5.271183">
        <ele>1331.0</ele>
        <time>2015-06-07T13:57:12Z</time>
      </trkpt>
      <trkpt lat="40.174433" lon="-5.271400">
        <ele>1329.0</ele>
        <time>2015-06-07T13:57:14Z</time>
      </trkpt>
      <trkpt lat="40.174250" lon="-5.271633">
        <ele>1327.0</ele>
        <time>2015-06-07T13:57:16Z</time>
      </trkpt>
      <trkpt lat="40.174083" lon="-5.271883">
        <ele>1327.0</ele>
        <time>2015-06-07T13:57:18Z</time>
      </trkpt>
      <trkpt lat="40.173917" lon="-5.272100">
        <ele>1325.0</ele>
        <time>2015-06-07T13:57:20Z</time>
      </trkpt>
      <trkpt lat="40.173733" lon="-5.272317">
        <ele>1323.0</ele>
        <time>2015-06-07T13:57:22Z</time>
      </trkpt>
      <trkpt lat="40.173567" lon="-5.272550">
        <ele>1322.0</ele>
        <time>2015-06-07T13:57:24Z</time>
      </trkpt>
      <trkpt lat="40.173383" lon="-5.272733">
        <ele>1321.0</ele>
        <time>2015-06-07T13:57:26Z</time>
      </trkpt>
      <trkpt lat="40.173200" lon="-5.272900">
        <ele>1318.0</ele>
        <time>2015-06-07T13:57:28Z</time>
      </trkpt>
      <trkpt lat="40.172983" lon="-5.273083">
        <ele>1316.0</ele>
        <time>2015-06-07T13:57:30Z</time>
      </trkpt>
      <trkpt lat="40.172817" lon="-5.273217">
        <ele>1316.0</ele>
        <time>2015-06-07T13:57:32Z</time>
      </trkpt>
      <trkpt lat="40.172667" lon="-5.273367">
        <ele>1313.0</ele>
        <time>2015-06-07T13:57:34Z</time>
      </trkpt>
      <trkpt lat="40.172467" lon="-5.273550">
        <ele>1313.0</ele>
        <time>2015-06-07T13:57:36Z</time>
      </trkpt>
      <trkpt lat="40.172300" lon="-5.273750">
        <ele>1315.0</ele>
        <time>2015-06-07T13:57:38Z</time>
      </trkpt>
      <trkpt lat="40.172133" lon="-5.273917">
        <ele>1316.0</ele>
        <time>2015-06-07T13:57:40Z</time>
      </trkpt>
      <trkpt lat="40.171983" lon="-5.274117">
        <ele>1317.0</ele>
        <time>2015-06-07T13:57:42Z</time>
      </trkpt>
      <trkpt lat="40.171867" lon="-5.274333">
        <ele>1318.0</ele>
        <time>2015-06-07T13:57:44Z</time>
      </trkpt>
      <trkpt lat="40.171767" lon="-5.274600">
        <ele>1318.0</ele>
        <time>2015-06-07T13:57:46Z</time>
      </trkpt>
      <trkpt lat="40.171700" lon="-5.274867">
        <ele>1318.0</ele>
        <time>2015-06-07T13:57:48Z</time>
      </trkpt>
      <trkpt lat="40.171700" lon="-5.275133">
        <ele>1317.0</ele>
        <time>2015-06-07T13:57:50Z</time>
      </trkpt>
      <trkpt lat="40.171783" lon="-5.275367">
        <ele>1314.0</ele>
        <time>2015-06-07T13:57:52Z</time>
      </trkpt>
      <trkpt lat="40.171833" lon="-5.275600">
        <ele>1311.0</ele>
        <time>2015-06-07T13:57:54Z</time>
      </trkpt>
      <trkpt lat="40.171800" lon="-5.275900">
        <ele>1306.0</ele>
        <time>2015-06-07T13:57:56Z</time>
      </trkpt>
      <trkpt lat="40.171667" lon="-5.276217">
        <ele>1305.0</ele>
        <time>2015-06-07T13:57:58Z</time>
      </trkpt>
      <trkpt lat="40.171533" lon="-5.276483">
        <ele>1308.0</ele>
        <time>2015-06-07T13:58:00Z</time>
      </trkpt>
      <trkpt lat="40.171400" lon="-5.276700">
        <ele>1307.0</ele>
        <time>2015-06-07T13:58:02Z</time>
      </trkpt>
      <trkpt lat="40.171200" lon="-5.276917">
        <ele>1304.0</ele>
        <time>2015-06-07T13:58:04Z</time>
      </trkpt>
      <trkpt lat="40.171000" lon="-5.277083">
        <ele>1302.0</ele>
        <time>2015-06-07T13:58:06Z</time>
      </trkpt>
      <trkpt lat="40.170817" lon="-5.277233">
        <ele>1299.0</ele>
        <time>2015-06-07T13:58:08Z</time>
      </trkpt>
      <trkpt lat="40.170600" lon="-5.277400">
        <ele>1296.0</ele>
        <time>2015-06-07T13:58:10Z</time>
      </trkpt>
      <trkpt lat="40.170400" lon="-5.277533">
        <ele>1295.0</ele>
        <time>2015-06-07T13:58:12Z</time>
      </trkpt>
      <trkpt lat="40.170217" lon="-5.277650">
        <ele>1292.0</ele>
        <time>2015-06-07T13:58:14Z</time>
      </trkpt>
      <trkpt lat="40.170033" lon="-5.277783">
        <ele>1287.0</ele>
        <time>2015-06-07T13:58:16Z</time>
      </trkpt>
      <trkpt lat="40.169850" lon="-5.277900">
        <ele>1282.0</ele>
        <time>2015-06-07T13:58:18Z</time>
      </trkpt>
      <trkpt lat="40.169667" lon="-5.277983">
        <ele>1276.0</ele>
        <time>2015-06-07T13:58:20Z</time>
      </trkpt>
      <trkpt lat="40.169517" lon="-5.278100">
        <ele>1271.0</ele>
        <time>2015-06-07T13:58:22Z</time>
      </trkpt>
      <trkpt lat="40.169367" lon="-5.278250">
        <ele>1266.0</ele>
        <time>2015-06-07T13:58:24Z</time>
      </trkpt>
      <trkpt lat="40.169233" lon="-5.278433">
        <ele>1260.0</ele>
        <time>2015-06-07T13:58:26Z</time>
      </trkpt>
      <trkpt lat="40.169100" lon="-5.278617">
        <ele>1255.0</ele>
        <time>2015-06-07T13:58:28Z</time>
      </trkpt>
      <trkpt lat="40.168950" lon="-5.278800">
        <ele>1253.0</ele>
        <time>2015-06-07T13:58:30Z</time>
      </trkpt>
      <trkpt lat="40.168817" lon="-5.278933">
        <ele>1252.0</ele>
        <time>2015-06-07T13:58:32Z</time>
      </trkpt>
      <trkpt lat="40.168667" lon="-5.279033">
        <ele>1248.0</ele>
        <time>2015-06-07T13:58:34Z</time>
      </trkpt>
      <trkpt lat="40.168500" lon="-5.279100">
        <ele>1244.0</ele>
        <time>2015-06-07T13:58:36Z</time>
      </trkpt>
      <trkpt lat="40.168333" lon="-5.279167">
        <ele>1241.0</ele>
        <time>2015-06-07T13:58:38Z</time>
      </trkpt>
      <trkpt lat="40.168183" lon="-5.279250">
        <ele>1238.0</ele>
        <time>2015-06-07T13:58:40Z</time>
      </trkpt>
      <trkpt lat="40.168050" lon="-5.279367">
        <ele>1234.0</ele>
        <time>2015-06-07T13:58:42Z</time>
      </trkpt>
      <trkpt lat="40.167917" lon="-5.279517">
        <ele>1229.0</ele>
        <time>2015-06-07T13:58:44Z</time>
      </trkpt>
      <trkpt lat="40.167783" lon="-5.279683">
        <ele>1223.0</ele>
        <time>2015-06-07T13:58:46Z</time>
      </trkpt>
      <trkpt lat="40.167633" lon="-5.279833">
        <ele>1218.0</ele>
        <time>2015-06-07T13:58:48Z</time>
      </trkpt>
      <trkpt lat="40.167483" lon="-5.280000">
        <ele>1213.0</ele>
        <time>2015-06-07T13:58:50Z</time>
      </trkpt>
      <trkpt lat="40.167333" lon="-5.280167">
        <ele>1206.0</ele>
        <time>2015-06-07T13:58:52Z</time>
      </trkpt>
      <trkpt lat="40.167183" lon="-5.280317">
        <ele>1203.0</ele>
        <time>2015-06-07T13:58:54Z</time>
      </trkpt>
      <trkpt lat="40.167033" lon="-5.280400">
        <ele>1201.0</ele>
        <time>2015-06-07T13:58:56Z</time>
      </trkpt>
      <trkpt lat="40.166900" lon="-5.280483">
        <ele>1198.0</ele>
        <time>2015-06-07T13:58:58Z</time>
      </trkpt>
      <trkpt lat="40.166733" lon="-5.280567">
        <ele>1195.0</ele>
        <time>2015-06-07T13:59:00Z</time>
      </trkpt>
      <trkpt lat="40.166583" lon="-5.280633">
        <ele>1192.0</ele>
        <time>2015-06-07T13:59:02Z</time>
      </trkpt>
      <trkpt lat="40.166417" lon="-5.280700">
        <ele>1191.0</ele>
        <time>2015-06-07T13:59:04Z</time>
      </trkpt>
      <trkpt lat="40.166233" lon="-5.280767">
        <ele>1190.0</ele>
        <time>2015-06-07T13:59:06Z</time>
      </trkpt>
      <trkpt lat="40.166100" lon="-5.280917">
        <ele>1192.0</ele>
        <time>2015-06-07T13:59:08Z</time>
      </trkpt>
      <trkpt lat="40.166000" lon="-5.281050">
        <ele>1190.0</ele>
        <time>2015-06-07T13:59:10Z</time>
      </trkpt>
      <trkpt lat="40.165850" lon="-5.281217">
        <ele>1188.0</ele>
        <time>2015-06-07T13:59:12Z</time>
      </trkpt>
      <trkpt lat="40.165733" lon="-5.281400">
        <ele>1190.0</ele>
        <time>2015-06-07T13:59:14Z</time>
      </trkpt>
      <trkpt lat="40.165617" lon="-5.281550">
        <ele>1190.0</ele>
        <time>2015-06-07T13:59:16Z</time>
      </trkpt>
      <trkpt lat="40.165450" lon="-5.281667">
        <ele>1189.0</ele>
        <time>2015-06-07T13:59:18Z</time>
      </trkpt>
      <trkpt lat="40.165283" lon="-5.281733">
        <ele>1189.0</ele>
        <time>2015-06-07T13:59:20Z</time>
      </trkpt>
      <trkpt lat="40.165117" lon="-5.281767">
        <ele>1190.0</ele>
        <time>2015-06-07T13:59:22Z</time>
      </trkpt>
      <trkpt lat="40.164983" lon="-5.281767">
        <ele>1190.0</ele>
        <time>2015-06-07T13:59:24Z</time>
      </trkpt>
      <trkpt lat="40.164833" lon="-5.281750">
        <ele>1191.0</ele>
        <time>2015-06-07T13:59:26Z</time>
      </trkpt>
      <trkpt lat="40.164700" lon="-5.281667">
        <ele>1192.0</ele>
        <time>2015-06-07T13:59:28Z</time>
      </trkpt>
      <trkpt lat="40.164617" lon="-5.281583">
        <ele>1194.0</ele>
        <time>2015-06-07T13:59:30Z</time>
      </trkpt>
      <trkpt lat="40.164500" lon="-5.281500">
        <ele>1195.0</ele>
        <time>2015-06-07T13:59:32Z</time>
      </trkpt>
      <trkpt lat="40.164383" lon="-5.281483">
        <ele>1195.0</ele>
        <time>2015-06-07T13:59:34Z</time>
      </trkpt>
      <trkpt lat="40.164233" lon="-5.281583">
        <ele>1197.0</ele>
        <time>2015-06-07T13:59:36Z</time>
      </trkpt>
      <trkpt lat="40.164117" lon="-5.281717">
        <ele>1201.0</ele>
        <time>2015-06-07T13:59:38Z</time>
      </trkpt>
      <trkpt lat="40.164050" lon="-5.281917">
        <ele>1204.0</ele>
        <time>2015-06-07T13:59:40Z</time>
      </trkpt>
      <trkpt lat="40.164067" lon="-5.282150">
        <ele>1207.0</ele>
        <time>2015-06-07T13:59:42Z</time>
      </trkpt>
      <trkpt lat="40.164200" lon="-5.282333">
        <ele>1211.0</ele>
        <time>2015-06-07T13:59:44Z</time>
      </trkpt>
      <trkpt lat="40.164367" lon="-5.282383">
        <ele>1216.0</ele>
        <time>2015-06-07T13:59:46Z</time>
      </trkpt>
      <trkpt lat="40.164533" lon="-5.282317">
        <ele>1217.0</ele>
        <time>2015-06-07T13:59:48Z</time>
      </trkpt>
      <trkpt lat="40.164633" lon="-5.282117">
        <ele>1217.0</ele>
        <time>2015-06-07T13:59:50Z</time>
      </trkpt>
      <trkpt lat="40.164617" lon="-5.281883">
        <ele>1220.0</ele>
        <time>2015-06-07T13:59:52Z</time>
      </trkpt>
      <trkpt lat="40.164517" lon="-5.281717">
        <ele>1222.0</ele>
        <time>2015-06-07T13:59:54Z</time>
      </trkpt>
      <trkpt lat="40.164383" lon="-5.281617">
        <ele>1226.0</ele>
        <time>2015-06-07T13:59:56Z</time>
      </trkpt>
      <trkpt lat="40.164233" lon="-5.281617">
        <ele>1230.0</ele>
        <time>2015-06-07T13:59:58Z</time>
      </trkpt>
      <trkpt lat="40.164083" lon="-5.281717">
        <ele>1230.0</ele>
        <time>2015-06-07T14:00:00Z</time>
      </trkpt>
      <trkpt lat="40.163950" lon="-5.281867">
        <ele>1234.0</ele>
        <time>2015-06-07T14:00:02Z</time>
      </trkpt>
      <trkpt lat="40.163917" lon="-5.282067">
        <ele>1237.0</ele>
        <time>2015-06-07T14:00:04Z</time>
      </trkpt>
      <trkpt lat="40.163967" lon="-5.282300">
        <ele>1240.0</ele>
        <time>2015-06-07T14:00:06Z</time>
      </trkpt>
      <trkpt lat="40.164083" lon="-5.282483">
        <ele>1244.0</ele>
        <time>2015-06-07T14:00:08Z</time>
      </trkpt>
      <trkpt lat="40.164233" lon="-5.282583">
        <ele>1247.0</ele>
        <time>2015-06-07T14:00:10Z</time>
      </trkpt>
      <trkpt lat="40.164400" lon="-5.282550">
        <ele>1252.0</ele>
        <time>2015-06-07T14:00:12Z</time>
      </trkpt>
      <trkpt lat="40.164500" lon="-5.282383">
        <ele>1254.0</ele>
        <time>2015-06-07T14:00:14Z</time>
      </trkpt>
      <trkpt lat="40.164517" lon="-5.282133">
        <ele>1255.0</ele>
        <time>2015-06-07T14:00:16Z</time>
      </trkpt>
      <trkpt lat="40.164467" lon="-5.281900">
        <ele>1259.0</ele>
        <time>2015-06-07T14:00:18Z</time>
      </trkpt>
      <trkpt lat="40.164383" lon="-5.281750">
        <ele>1264.0</ele>
        <time>2015-06-07T14:00:20Z</time>
      </trkpt>
      <trkpt lat="40.164250" lon="-5.281700">
        <ele>1266.0</ele>
        <time>2015-06-07T14:00:22Z</time>
      </trkpt>
      <trkpt lat="40.164100" lon="-5.281750">
        <ele>1268.0</ele>
        <time>2015-06-07T14:00:24Z</time>
      </trkpt>
      <trkpt lat="40.163983" lon="-5.281883">
        <ele>1272.0</ele>
        <time>2015-06-07T14:00:26Z</time>
      </trkpt>
      <trkpt lat="40.163950" lon="-5.282100">
        <ele>1274.0</ele>
        <time>2015-06-07T14:00:28Z</time>
      </trkpt>
      <trkpt lat="40.164033" lon="-5.282333">
        <ele>1276.0</ele>
        <time>2015-06-07T14:00:30Z</time>
      </trkpt>
      <trkpt lat="40.164167" lon="-5.282500">
        <ele>1281.0</ele>
        <time>2015-06-07T14:00:32Z</time>
      </trkpt>
      <trkpt lat="40.164367" lon="-5.282550">
        <ele>1282.0</ele>
        <time>2015-06-07T14:00:34Z</time>
      </trkpt>
      <trkpt lat="40.164567" lon="-5.282483">
        <ele>1284.0</ele>
        <time>2015-06-07T14:00:36Z</time>
      </trkpt>
      <trkpt lat="40.164683" lon="-5.282317">
        <ele>1288.0</ele>
        <time>2015-06-07T14:00:38Z</time>
      </trkpt>
      <trkpt lat="40.164717" lon="-5.282100">
        <ele>1290.0</ele>
        <time>2015-06-07T14:00:40Z</time>
      </trkpt>
      <trkpt lat="40.164683" lon="-5.281867">
        <ele>1291.0</ele>
        <time>2015-06-07T14:00:42Z</time>
      </trkpt>
      <trkpt lat="40.164517" lon="-5.281733">
        <ele>1294.0</ele>
        <time>2015-06-07T14:00:44Z</time>
      </trkpt>
      <trkpt lat="40.164350" lon="-5.281700">
        <ele>1301.0</ele>
        <time>2015-06-07T14:00:46Z</time>
      </trkpt>
      <trkpt lat="40.164217" lon="-5.281717">
        <ele>1305.0</ele>
        <time>2015-06-07T14:00:48Z</time>
      </trkpt>
      <trkpt lat="40.164083" lon="-5.281817">
        <ele>1308.0</ele>
        <time>2015-06-07T14:00:50Z</time>
      </trkpt>
      <trkpt lat="40.164017" lon="-5.282017">
        <ele>1308.0</ele>
        <time>2015-06-07T14:00:52Z</time>
      </trkpt>
      <trkpt lat="40.164050" lon="-5.282267">
        <ele>1308.0</ele>
        <time>2015-06-07T14:00:54Z</time>
      </trkpt>
      <trkpt lat="40.164167" lon="-5.282433">
        <ele>1309.0</ele>
        <time>2015-06-07T14:00:56Z</time>
      </trkpt>
      <trkpt lat="40.164350" lon="-5.282483">
        <ele>1310.0</ele>
        <time>2015-06-07T14:00:58Z</time>
      </trkpt>
      <trkpt lat="40.164517" lon="-5.282433">
        <ele>1314.0</ele>
        <time>2015-06-07T14:01:00Z</time>
      </trkpt>
      <trkpt lat="40.164633" lon="-5.282317">
        <ele>1316.0</ele>
        <time>2015-06-07T14:01:02Z</time>
      </trkpt>
      <trkpt lat="40.164733" lon="-5.282117">
        <ele>1318.0</ele>
        <time>2015-06-07T14:01:04Z</time>
      </trkpt>
      <trkpt lat="40.164717" lon="-5.281883">
        <ele>1319.0</ele>
        <time>2015-06-07T14:01:06Z</time>
      </trkpt>
      <trkpt lat="40.164667" lon="-5.281650">
        <ele>1321.0</ele>
        <time>2015-06-07T14:01:08Z</time>
      </trkpt>
      <trkpt lat="40.164583" lon="-5.281450">
        <ele>1324.0</ele>
        <time>2015-06-07T14:01:10Z</time>
      </trkpt>
      <trkpt lat="40.164417" lon="-5.281350">
        <ele>1327.0</ele>
        <time>2015-06-07T14:01:12Z</time>
      </trkpt>
      <trkpt lat="40.164233" lon="-5.281367">
        <ele>1332.0</ele>
        <time>2015-06-07T14:01:14Z</time>
      </trkpt>
      <trkpt lat="40.164100" lon="-5.281467">
        <ele>1335.0</ele>
        <time>2015-06-07T14:01:16Z</time>
      </trkpt>
      <trkpt lat="40.164017" lon="-5.281633">
        <ele>1336.0</ele>
        <time>2015-06-07T14:01:18Z</time>
      </trkpt>
      <trkpt lat="40.164000" lon="-5.281850">
        <ele>1336.0</ele>
        <time>2015-06-07T14:01:20Z</time>
      </trkpt>
      <trkpt lat="40.164050" lon="-5.282067">
        <ele>1336.0</ele>
        <time>2015-06-07T14:01:22Z</time>
      </trkpt>
      <trkpt lat="40.164167" lon="-5.282233">
        <ele>1336.0</ele>
        <time>2015-06-07T14:01:24Z</time>
      </trkpt>
      <trkpt lat="40.164300" lon="-5.282333">
        <ele>1338.0</ele>
        <time>2015-06-07T14:01:26Z</time>
      </trkpt>
      <trkpt lat="40.164467" lon="-5.282333">
        <ele>1340.0</ele>
        <time>2015-06-07T14:01:28Z</time>
      </trkpt>
      <trkpt lat="40.164617" lon="-5.282217">
        <ele>1341.0</ele>
        <time>2015-06-07T14:01:30Z</time>
      </trkpt>
      <trkpt lat="40.164683" lon="-5.282000">
        <ele>1341.0</ele>
        <time>2015-06-07T14:01:32Z</time>
      </trkpt>
      <trkpt lat="40.164667" lon="-5.281767">
        <ele>1345.0</ele>
        <time>2015-06-07T14:01:34Z</time>
      </trkpt>
      <trkpt lat="40.164650" lon="-5.281550">
        <ele>1348.0</ele>
        <time>2015-06-07T14:01:36Z</time>
      </trkpt>
      <trkpt lat="40.164567" lon="-5.281367">
        <ele>1348.0</ele>
        <time>2015-06-07T14:01:38Z</time>
      </trkpt>
      <trkpt lat="40.164400" lon="-5.281250">
        <ele>1349.0</ele>
        <time>2015-06-07T14:01:40Z</time>
      </trkpt>
      <trkpt lat="40.164267" lon="-5.281217">
        <ele>1352.0</ele>
        <time>2015-06-07T14:01:42Z</time>
      </trkpt>
      <trkpt lat="40.164167" lon="-5.281217">
        <ele>1350.0</ele>
        <time>2015-06-07T14:01:44Z</time>
      </trkpt>
      <trkpt lat="40.164017" lon="-5.281250">
        <ele>1345.0</ele>
        <time>2015-06-07T14:01:46Z</time>
      </trkpt>
      <trkpt lat="40.163867" lon="-5.281467">
        <ele>1339.0</ele>
        <time>2015-06-07T14:01:48Z</time>
      </trkpt>
      <trkpt lat="40.163817" lon="-5.281733">
        <ele>1340.0</ele>
        <time>2015-06-07T14:01:50Z</time>
      </trkpt>
      <trkpt lat="40.163817" lon="-5.281933">
        <ele>1339.0</ele>
        <time>2015-06-07T14:01:52Z</time>
      </trkpt>
      <trkpt lat="40.163833" lon="-5.282167">
        <ele>1334.0</ele>
        <time>2015-06-07T14:01:54Z</time>
      </trkpt>
      <trkpt lat="40.163883" lon="-5.282433">
        <ele>1332.0</ele>
        <time>2015-06-07T14:01:56Z</time>
      </trkpt>
      <trkpt lat="40.163900" lon="-5.282650">
        <ele>1332.0</ele>
        <time>2015-06-07T14:01:58Z</time>
      </trkpt>
      <trkpt lat="40.163833" lon="-5.282883">
        <ele>1329.0</ele>
        <time>2015-06-07T14:02:00Z</time>
      </trkpt>
      <trkpt lat="40.163733" lon="-5.283100">
        <ele>1326.0</ele>
        <time>2015-06-07T14:02:02Z</time>
      </trkpt>
      <trkpt lat="40.163617" lon="-5.283217">
        <ele>1324.0</ele>
        <time>2015-06-07T14:02:04Z</time>
      </trkpt>
      <trkpt lat="40.163483" lon="-5.283300">
        <ele>1319.0</ele>
        <time>2015-06-07T14:02:06Z</time>
      </trkpt>
      <trkpt lat="40.163317" lon="-5.283400">
        <ele>1314.0</ele>
        <time>2015-06-07T14:02:08Z</time>
      </trkpt>
      <trkpt lat="40.163200" lon="-5.283567">
        <ele>1312.0</ele>
        <time>2015-06-07T14:02:10Z</time>
      </trkpt>
      <trkpt lat="40.163133" lon="-5.283783">
        <ele>1307.0</ele>
        <time>2015-06-07T14:02:12Z</time>
      </trkpt>
      <trkpt lat="40.163050" lon="-5.284017">
        <ele>1299.0</ele>
        <time>2015-06-07T14:02:14Z</time>
      </trkpt>
      <trkpt lat="40.162950" lon="-5.284283">
        <ele>1293.0</ele>
        <time>2015-06-07T14:02:16Z</time>
      </trkpt>
      <trkpt lat="40.162883" lon="-5.284517">
        <ele>1289.0</ele>
        <time>2015-06-07T14:02:18Z</time>
      </trkpt>
      <trkpt lat="40.162833" lon="-5.284750">
        <ele>1284.0</ele>
        <time>2015-06-07T14:02:20Z</time>
      </trkpt>
      <trkpt lat="40.162833" lon="-5.285017">
        <ele>1279.0</ele>
        <time>2015-06-07T14:02:22Z</time>
      </trkpt>
      <trkpt lat="40.162800" lon="-5.285283">
        <ele>1274.0</ele>
        <time>2015-06-07T14:02:24Z</time>
      </trkpt>
      <trkpt lat="40.162767" lon="-5.285550">
        <ele>1269.0</ele>
        <time>2015-06-07T14:02:26Z</time>
      </trkpt>
      <trkpt lat="40.162733" lon="-5.285817">
        <ele>1266.0</ele>
        <time>2015-06-07T14:02:28Z</time>
      </trkpt>
      <trkpt lat="40.162700" lon="-5.286067">
        <ele>1262.0</ele>
        <time>2015-06-07T14:02:30Z</time>
      </trkpt>
      <trkpt lat="40.162650" lon="-5.286317">
        <ele>1258.0</ele>
        <time>2015-06-07T14:02:32Z</time>
      </trkpt>
      <trkpt lat="40.162650" lon="-5.286600">
        <ele>1253.0</ele>
        <time>2015-06-07T14:02:34Z</time>
      </trkpt>
      <trkpt lat="40.162667" lon="-5.286867">
        <ele>1252.0</ele>
        <time>2015-06-07T14:02:36Z</time>
      </trkpt>
      <trkpt lat="40.162667" lon="-5.287083">
        <ele>1251.0</ele>
        <time>2015-06-07T14:02:38Z</time>
      </trkpt>
      <trkpt lat="40.162750" lon="-5.287283">
        <ele>1247.0</ele>
        <time>2015-06-07T14:02:40Z</time>
      </trkpt>
      <trkpt lat="40.162867" lon="-5.287467">
        <ele>1242.0</ele>
        <time>2015-06-07T14:02:42Z</time>
      </trkpt>
      <trkpt lat="40.162967" lon="-5.287683">
        <ele>1238.0</ele>
        <time>2015-06-07T14:02:44Z</time>
      </trkpt>
      <trkpt lat="40.163033" lon="-5.287950">
        <ele>1234.0</ele>
        <time>2015-06-07T14:02:46Z</time>
      </trkpt>
      <trkpt lat="40.163050" lon="-5.288217">
        <ele>1230.0</ele>
        <time>2015-06-07T14:02:48Z</time>
      </trkpt>
      <trkpt lat="40.163033" lon="-5.288500">
        <ele>1225.0</ele>
        <time>2015-06-07T14:02:50Z</time>
      </trkpt>
      <trkpt lat="40.163017" lon="-5.288783">
        <ele>1221.0</ele>
        <time>2015-06-07T14:02:52Z</time>
      </trkpt>
      <trkpt lat="40.163017" lon="-5.289100">
        <ele>1216.0</ele>
        <time>2015-06-07T14:02:54Z</time>
      </trkpt>
      <trkpt lat="40.162983" lon="-5.289400">
        <ele>1212.0</ele>
        <time>2015-06-07T14:02:56Z</time>
      </trkpt>
      <trkpt lat="40.162933" lon="-5.289667">
        <ele>1212.0</ele>
        <time>2015-06-07T14:02:58Z</time>
      </trkpt>
      <trkpt lat="40.162867" lon="-5.289883">
        <ele>1212.0</ele>
        <time>2015-06-07T14:03:00Z</time>
      </trkpt>
      <trkpt lat="40.162750" lon="-5.290050">
        <ele>1210.0</ele>
        <time>2015-06-07T14:03:02Z</time>
      </trkpt>
      <trkpt lat="40.162600" lon="-5.290250">
        <ele>1207.0</ele>
        <time>2015-06-07T14:03:04Z</time>
      </trkpt>
      <trkpt lat="40.162500" lon="-5.290450">
        <ele>1207.0</ele>
        <time>2015-06-07T14:03:06Z</time>
      </trkpt>
      <trkpt lat="40.162450" lon="-5.290650">
        <ele>1205.0</ele>
        <time>2015-06-07T14:03:08Z</time>
      </trkpt>
      <trkpt lat="40.162400" lon="-5.290900">
        <ele>1201.0</ele>
        <time>2015-06-07T14:03:10Z</time>
      </trkpt>
      <trkpt lat="40.162367" lon="-5.291150">
        <ele>1199.0</ele>
        <time>2015-06-07T14:03:12Z</time>
      </trkpt>
      <trkpt lat="40.162383" lon="-5.291400">
        <ele>1198.0</ele>
        <time>2015-06-07T14:03:14Z</time>
      </trkpt>
      <trkpt lat="40.162417" lon="-5.291633">
        <ele>1196.0</ele>
        <time>2015-06-07T14:03:16Z</time>
      </trkpt>
      <trkpt lat="40.162500" lon="-5.291850">
        <ele>1194.0</ele>
        <time>2015-06-07T14:03:18Z</time>
      </trkpt>
      <trkpt lat="40.162583" lon="-5.292033">
        <ele>1195.0</ele>
        <time>2015-06-07T14:03:20Z</time>
      </trkpt>
      <trkpt lat="40.162683" lon="-5.292233">
        <ele>1192.0</ele>
        <time>2015-06-07T14:03:22Z</time>
      </trkpt>
      <trkpt lat="40.162833" lon="-5.292450">
        <ele>1187.0</ele>
        <time>2015-06-07T14:03:24Z</time>
      </trkpt>
      <trkpt lat="40.163017" lon="-5.292683">
        <ele>1188.0</ele>
        <time>2015-06-07T14:03:26Z</time>
      </trkpt>
      <trkpt lat="40.163167" lon="-5.292883">
        <ele>1192.0</ele>
        <time>2015-06-07T14:03:28Z</time>
      </trkpt>
      <trkpt lat="40.163300" lon="-5.293050">
        <ele>1194.0</ele>
        <time>2015-06-07T14:03:30Z</time>
      </trkpt>
      <trkpt lat="40.163433" lon="-5.293117">
        <ele>1194.0</ele>
        <time>2015-06-07T14:03:32Z</time>
      </trkpt>
      <trkpt lat="40.163583" lon="-5.293100">
        <ele>1195.0</ele>
        <time>2015-06-07T14:03:34Z</time>
      </trkpt>
      <trkpt lat="40.163717" lon="-5.293033">
        <ele>1199.0</ele>
        <time>2015-06-07T14:03:36Z</time>
      </trkpt>
      <trkpt lat="40.163767" lon="-5.292933">
        <ele>1202.0</ele>
        <time>2015-06-07T14:03:38Z</time>
      </trkpt>
      <trkpt lat="40.163767" lon="-5.292783">
        <ele>1205.0</ele>
        <time>2015-06-07T14:03:40Z</time>
      </trkpt>
      <trkpt lat="40.163683" lon="-5.292683">
        <ele>1209.0</ele>
        <time>2015-06-07T14:03:42Z</time>
      </trkpt>
      <trkpt lat="40.163533" lon="-5.292650">
        <ele>1212.0</ele>
        <time>2015-06-07T14:03:44Z</time>
      </trkpt>
      <trkpt lat="40.163333" lon="-5.292700">
        <ele>1214.0</ele>
        <time>2015-06-07T14:03:46Z</time>
      </trkpt>
      <trkpt lat="40.163183" lon="-5.292883">
        <ele>1215.0</ele>
        <time>2015-06-07T14:03:48Z</time>
      </trkpt>
      <trkpt lat="40.163067" lon="-5.293167">
        <ele>1215.0</ele>
        <time>2015-06-07T14:03:50Z</time>
      </trkpt>
      <trkpt lat="40.163000" lon="-5.293500">
        <ele>1214.0</ele>
        <time>2015-06-07T14:03:52Z</time>
      </trkpt>
      <trkpt lat="40.163000" lon="-5.293850">
        <ele>1217.0</ele>
        <time>2015-06-07T14:03:54Z</time>
      </trkpt>
      <trkpt lat="40.163050" lon="-5.294133">
        <ele>1220.0</ele>
        <time>2015-06-07T14:03:56Z</time>
      </trkpt>
      <trkpt lat="40.163117" lon="-5.294383">
        <ele>1218.0</ele>
        <time>2015-06-07T14:03:58Z</time>
      </trkpt>
      <trkpt lat="40.163267" lon="-5.294650">
        <ele>1217.0</ele>
        <time>2015-06-07T14:04:00Z</time>
      </trkpt>
      <trkpt lat="40.163433" lon="-5.294833">
        <ele>1221.0</ele>
        <time>2015-06-07T14:04:02Z</time>
      </trkpt>
      <trkpt lat="40.163583" lon="-5.294933">
        <ele>1223.0</ele>
        <time>2015-06-07T14:04:04Z</time>
      </trkpt>
      <trkpt lat="40.163750" lon="-5.294967">
        <ele>1221.0</ele>
        <time>2015-06-07T14:04:06Z</time>
      </trkpt>
      <trkpt lat="40.163917" lon="-5.294900">
        <ele>1222.0</ele>
        <time>2015-06-07T14:04:08Z</time>
      </trkpt>
      <trkpt lat="40.164017" lon="-5.294783">
        <ele>1225.0</ele>
        <time>2015-06-07T14:04:10Z</time>
      </trkpt>
      <trkpt lat="40.164083" lon="-5.294650">
        <ele>1228.0</ele>
        <time>2015-06-07T14:04:12Z</time>
      </trkpt>
      <trkpt lat="40.164117" lon="-5.294483">
        <ele>1229.0</ele>
        <time>2015-06-07T14:04:14Z</time>
      </trkpt>
      <trkpt lat="40.164117" lon="-5.294333">
        <ele>1232.0</ele>
        <time>2015-06-07T14:04:16Z</time>
      </trkpt>
      <trkpt lat="40.164067" lon="-5.294217">
        <ele>1236.0</ele>
        <time>2015-06-07T14:04:18Z</time>
      </trkpt>
      <trkpt lat="40.163983" lon="-5.294133">
        <ele>1240.0</ele>
        <time>2015-06-07T14:04:20Z</time>
      </trkpt>
      <trkpt lat="40.163883" lon="-5.294133">
        <ele>1243.0</ele>
        <time>2015-06-07T14:04:22Z</time>
      </trkpt>
      <trkpt lat="40.163767" lon="-5.294283">
        <ele>1243.0</ele>
        <time>2015-06-07T14:04:24Z</time>
      </trkpt>
      <trkpt lat="40.163683" lon="-5.294533">
        <ele>1242.0</ele>
        <time>2015-06-07T14:04:26Z</time>
      </trkpt>
      <trkpt lat="40.163633" lon="-5.294817">
        <ele>1244.0</ele>
        <time>2015-06-07T14:04:28Z</time>
      </trkpt>
      <trkpt lat="40.163633" lon="-5.295133">
        <ele>1249.0</ele>
        <time>2015-06-07T14:04:30Z</time>
      </trkpt>
      <trkpt lat="40.163633" lon="-5.295417">
        <ele>1253.0</ele>
        <time>2015-06-07T14:04:32Z</time>
      </trkpt>
      <trkpt lat="40.163717" lon="-5.295650">
        <ele>1253.0</ele>
        <time>2015-06-07T14:04:34Z</time>
      </trkpt>
      <trkpt lat="40.163900" lon="-5.295800">
        <ele>1254.0</ele>
        <time>2015-06-07T14:04:36Z</time>
      </trkpt>
      <trkpt lat="40.164067" lon="-5.295833">
        <ele>1258.0</ele>
        <time>2015-06-07T14:04:38Z</time>
      </trkpt>
      <trkpt lat="40.164200" lon="-5.295750">
        <ele>1259.0</ele>
        <time>2015-06-07T14:04:40Z</time>
      </trkpt>
      <trkpt lat="40.164300" lon="-5.295617">
        <ele>1259.0</ele>
        <time>2015-06-07T14:04:42Z</time>
      </trkpt>
      <trkpt lat="40.164333" lon="-5.295433">
        <ele>1261.0</ele>
        <time>2015-06-07T14:04:44Z</time>
      </trkpt>
      <trkpt lat="40.164350" lon="-5.295283">
        <ele>1265.0</ele>
        <time>2015-06-07T14:04:46Z</time>
      </trkpt>
      <trkpt lat="40.164350" lon="-5.295167">
        <ele>1267.0</ele>
        <time>2015-06-07T14:04:48Z</time>
      </trkpt>
      <trkpt lat="40.164300" lon="-5.295083">
        <ele>1269.0</ele>
        <time>2015-06-07T14:04:50Z</time>
      </trkpt>
      <trkpt lat="40.164217" lon="-5.295083">
        <ele>1267.0</ele>
        <time>2015-06-07T14:04:52Z</time>
      </trkpt>
      <trkpt lat="40.164117" lon="-5.295167">
        <ele>1263.0</ele>
        <time>2015-06-07T14:04:54Z</time>
      </trkpt>
      <trkpt lat="40.164017" lon="-5.295267">
        <ele>1260.0</ele>
        <time>2015-06-07T14:04:56Z</time>
      </trkpt>
      <trkpt lat="40.163900" lon="-5.295433">
        <ele>1259.0</ele>
        <time>2015-06-07T14:04:58Z</time>
      </trkpt>
      <trkpt lat="40.163783" lon="-5.295633">
        <ele>1266.0</ele>
        <time>2015-06-07T14:05:00Z</time>
      </trkpt>
      <trkpt lat="40.163717" lon="-5.295800">
        <ele>1271.0</ele>
        <time>2015-06-07T14:05:02Z</time>
      </trkpt>
      <trkpt lat="40.163683" lon="-5.296033">
        <ele>1272.0</ele>
        <time>2015-06-07T14:05:04Z</time>
      </trkpt>
      <trkpt lat="40.163717" lon="-5.296317">
        <ele>1271.0</ele>
        <time>2015-06-07T14:05:06Z</time>
      </trkpt>
      <trkpt lat="40.163850" lon="-5.296550">
        <ele>1273.0</ele>
        <time>2015-06-07T14:05:08Z</time>
      </trkpt>
      <trkpt lat="40.164033" lon="-5.296667">
        <ele>1274.0</ele>
        <time>2015-06-07T14:05:10Z</time>
      </trkpt>
      <trkpt lat="40.164200" lon="-5.296650">
        <ele>1275.0</ele>
        <time>2015-06-07T14:05:12Z</time>
      </trkpt>
      <trkpt lat="40.164333" lon="-5.296517">
        <ele>1275.0</ele>
        <time>2015-06-07T14:05:14Z</time>
      </trkpt>
      <trkpt lat="40.164383" lon="-5.296333">
        <ele>1277.0</ele>
        <time>2015-06-07T14:05:16Z</time>
      </trkpt>
      <trkpt lat="40.164367" lon="-5.296167">
        <ele>1279.0</ele>
        <time>2015-06-07T14:05:18Z</time>
      </trkpt>
      <trkpt lat="40.164300" lon="-5.296017">
        <ele>1281.0</ele>
        <time>2015-06-07T14:05:20Z</time>
      </trkpt>
      <trkpt lat="40.164217" lon="-5.295900">
        <ele>1284.0</ele>
        <time>2015-06-07T14:05:22Z</time>
      </trkpt>
      <trkpt lat="40.164100" lon="-5.295900">
        <ele>1286.0</ele>
        <time>2015-06-07T14:05:24Z</time>
      </trkpt>
      <trkpt lat="40.163983" lon="-5.295967">
        <ele>1288.0</ele>
        <time>2015-06-07T14:05:26Z</time>
      </trkpt>
      <trkpt lat="40.163883" lon="-5.296100">
        <ele>1290.0</ele>
        <time>2015-06-07T14:05:28Z</time>
      </trkpt>
      <trkpt lat="40.163817" lon="-5.296317">
        <ele>1291.0</ele>
        <time>2015-06-07T14:05:30Z</time>
      </trkpt>
      <trkpt lat="40.163817" lon="-5.296567">
        <ele>1293.0</ele>
        <time>2015-06-07T14:05:32Z</time>
      </trkpt>
      <trkpt lat="40.163900" lon="-5.296800">
        <ele>1295.0</ele>
        <time>2015-06-07T14:05:34Z</time>
      </trkpt>
      <trkpt lat="40.164067" lon="-5.297000">
        <ele>1296.0</ele>
        <time>2015-06-07T14:05:36Z</time>
      </trkpt>
      <trkpt lat="40.164267" lon="-5.297100">
        <ele>1299.0</ele>
        <time>2015-06-07T14:05:38Z</time>
      </trkpt>
      <trkpt lat="40.164450" lon="-5.297067">
        <ele>1301.0</ele>
        <time>2015-06-07T14:05:40Z</time>
      </trkpt>
      <trkpt lat="40.164600" lon="-5.296967">
        <ele>1303.0</ele>
        <time>2015-06-07T14:05:42Z</time>
      </trkpt>
      <trkpt lat="40.164667" lon="-5.296817">
        <ele>1305.0</ele>
        <time>2015-06-07T14:05:44Z</time>
      </trkpt>
      <trkpt lat="40.164633" lon="-5.296667">
        <ele>1308.0</ele>
        <time>2015-06-07T14:05:46Z</time>
      </trkpt>
      <trkpt lat="40.164550" lon="-5.296600">
        <ele>1310.0</ele>
        <time>2015-06-07T14:05:48Z</time>
      </trkpt>
      <trkpt lat="40.164433" lon="-5.296583">
        <ele>1311.0</ele>
        <time>2015-06-07T14:05:50Z</time>
      </trkpt>
      <trkpt lat="40.164300" lon="-5.296667">
        <ele>1312.0</ele>
        <time>2015-06-07T14:05:52Z</time>
      </trkpt>
      <trkpt lat="40.164200" lon="-5.296783">
        <ele>1316.0</ele>
        <time>2015-06-07T14:05:54Z</time>
      </trkpt>
      <trkpt lat="40.164117" lon="-5.296950">
        <ele>1316.0</ele>
        <time>2015-06-07T14:05:56Z</time>
      </trkpt>
      <trkpt lat="40.164083" lon="-5.297217">
        <ele>1316.0</ele>
        <time>2015-06-07T14:05:58Z</time>
      </trkpt>
      <trkpt lat="40.164117" lon="-5.297517">
        <ele>1320.0</ele>
        <time>2015-06-07T14:06:00Z</time>
      </trkpt>
      <trkpt lat="40.164200" lon="-5.297750">
        <ele>1324.0</ele>
        <time>2015-06-07T14:06:02Z</time>
      </trkpt>
      <trkpt lat="40.164350" lon="-5.297950">
        <ele>1325.0</ele>
        <time>2015-06-07T14:06:04Z</time>
      </trkpt>
      <trkpt lat="40.164533" lon="-5.298083">
        <ele>1327.0</ele>
        <time>2015-06-07T14:06:06Z</time>
      </trkpt>
      <trkpt lat="40.164717" lon="-5.298083">
        <ele>1328.0</ele>
        <time>2015-06-07T14:06:08Z</time>
      </trkpt>
      <trkpt lat="40.164867" lon="-5.297967">
        <ele>1331.0</ele>
        <time>2015-06-07T14:06:10Z</time>
      </trkpt>
      <trkpt lat="40.164917" lon="-5.297850">
        <ele>1333.0</ele>
        <time>2015-06-07T14:06:12Z</time>
      </trkpt>
      <trkpt lat="40.164950" lon="-5.297733">
        <ele>1334.0</ele>
        <time>2015-06-07T14:06:14Z</time>
      </trkpt>
      <trkpt lat="40.164933" lon="-5.297583">
        <ele>1333.0</ele>
        <time>2015-06-07T14:06:16Z</time>
      </trkpt>
      <trkpt lat="40.164850" lon="-5.297467">
        <ele>1335.0</ele>
        <time>2015-06-07T14:06:18Z</time>
      </trkpt>
      <trkpt lat="40.164733" lon="-5.297433">
        <ele>1337.0</ele>
        <time>2015-06-07T14:06:20Z</time>
      </trkpt>
      <trkpt lat="40.164617" lon="-5.297450">
        <ele>1338.0</ele>
        <time>2015-06-07T14:06:22Z</time>
      </trkpt>
      <trkpt lat="40.164483" lon="-5.297533">
        <ele>1338.0</ele>
        <time>2015-06-07T14:06:24Z</time>
      </trkpt>
      <trkpt lat="40.164383" lon="-5.297667">
        <ele>1338.0</ele>
        <time>2015-06-07T14:06:26Z</time>
      </trkpt>
      <trkpt lat="40.164317" lon="-5.297900">
        <ele>1335.0</ele>
        <time>2015-06-07T14:06:28Z</time>
      </trkpt>
      <trkpt lat="40.164233" lon="-5.298183">
        <ele>1338.0</ele>
        <time>2015-06-07T14:06:30Z</time>
      </trkpt>
      <trkpt lat="40.164217" lon="-5.298417">
        <ele>1342.0</ele>
        <time>2015-06-07T14:06:32Z</time>
      </trkpt>
      <trkpt lat="40.164267" lon="-5.298650">
        <ele>1342.0</ele>
        <time>2015-06-07T14:06:34Z</time>
      </trkpt>
      <trkpt lat="40.164417" lon="-5.298900">
        <ele>1341.0</ele>
        <time>2015-06-07T14:06:36Z</time>
      </trkpt>
      <trkpt lat="40.164633" lon="-5.298983">
        <ele>1343.0</ele>
        <time>2015-06-07T14:06:38Z</time>
      </trkpt>
      <trkpt lat="40.164800" lon="-5.298950">
        <ele>1344.0</ele>
        <time>2015-06-07T14:06:40Z</time>
      </trkpt>
      <trkpt lat="40.164917" lon="-5.298850">
        <ele>1343.0</ele>
        <time>2015-06-07T14:06:42Z</time>
      </trkpt>
      <trkpt lat="40.164983" lon="-5.298683">
        <ele>1341.0</ele>
        <time>2015-06-07T14:06:44Z</time>
      </trkpt>
      <trkpt lat="40.164950" lon="-5.298517">
        <ele>1341.0</ele>
        <time>2015-06-07T14:06:46Z</time>
      </trkpt>
      <trkpt lat="40.164867" lon="-5.298450">
        <ele>1343.0</ele>
        <time>2015-06-07T14:06:48Z</time>
      </trkpt>
      <trkpt lat="40.164767" lon="-5.298450">
        <ele>1342.0</ele>
        <time>2015-06-07T14:06:50Z</time>
      </trkpt>
      <trkpt lat="40.164633" lon="-5.298500">
        <ele>1338.0</ele>
        <time>2015-06-07T14:06:52Z</time>
      </trkpt>
      <trkpt lat="40.164450" lon="-5.298583">
        <ele>1341.0</ele>
        <time>2015-06-07T14:06:54Z</time>
      </trkpt>
      <trkpt lat="40.164317" lon="-5.298733">
        <ele>1346.0</ele>
        <time>2015-06-07T14:06:56Z</time>
      </trkpt>
      <trkpt lat="40.164250" lon="-5.298950">
        <ele>1349.0</ele>
        <time>2015-06-07T14:06:58Z</time>
      </trkpt>
      <trkpt lat="40.164217" lon="-5.299183">
        <ele>1351.0</ele>
        <time>2015-06-07T14:07:00Z</time>
      </trkpt>
      <trkpt lat="40.164283" lon="-5.299450">
        <ele>1353.0</ele>
        <time>2015-06-07T14:07:02Z</time>
      </trkpt>
      <trkpt lat="40.164433" lon="-5.299633">
        <ele>1355.0</ele>
        <time>2015-06-07T14:07:04Z</time>
      </trkpt>
      <trkpt lat="40.164633" lon="-5.299700">
        <ele>1358.0</ele>
        <time>2015-06-07T14:07:06Z</time>
      </trkpt>
      <trkpt lat="40.164800" lon="-5.299633">
        <ele>1361.0</ele>
        <time>2015-06-07T14:07:08Z</time>
      </trkpt>
      <trkpt lat="40.164900" lon="-5.299500">
        <ele>1363.0</ele>
        <time>2015-06-07T14:07:10Z</time>
      </trkpt>
      <trkpt lat="40.164917" lon="-5.299350">
        <ele>1362.0</ele>
        <time>2015-06-07T14:07:12Z</time>
      </trkpt>
      <trkpt lat="40.164867" lon="-5.299183">
        <ele>1362.0</ele>
        <time>2015-06-07T14:07:14Z</time>
      </trkpt>
      <trkpt lat="40.164733" lon="-5.299050">
        <ele>1365.0</ele>
        <time>2015-06-07T14:07:16Z</time>
      </trkpt>
      <trkpt lat="40.164583" lon="-5.299000">
        <ele>1365.0</ele>
        <time>2015-06-07T14:07:18Z</time>
      </trkpt>
      <trkpt lat="40.164417" lon="-5.299017">
        <ele>1367.0</ele>
        <time>2015-06-07T14:07:20Z</time>
      </trkpt>
      <trkpt lat="40.164300" lon="-5.299200">
        <ele>1376.0</ele>
        <time>2015-06-07T14:07:22Z</time>
      </trkpt>
      <trkpt lat="40.164267" lon="-5.299567">
        <ele>1376.0</ele>
        <time>2015-06-07T14:07:25Z</time>
      </trkpt>
      <trkpt lat="40.164233" lon="-5.299817">
        <ele>1372.0</ele>
        <time>2015-06-07T14:07:27Z</time>
      </trkpt>
      <trkpt lat="40.164283" lon="-5.300100">
        <ele>1374.0</ele>
        <time>2015-06-07T14:07:29Z</time>
      </trkpt>
      <trkpt lat="40.164417" lon="-5.300300">
        <ele>1378.0</ele>
        <time>2015-06-07T14:07:31Z</time>
      </trkpt>
      <trkpt lat="40.164567" lon="-5.300400">
        <ele>1381.0</ele>
        <time>2015-06-07T14:07:33Z</time>
      </trkpt>
      <trkpt lat="40.164717" lon="-5.300383">
        <ele>1382.0</ele>
        <time>2015-06-07T14:07:35Z</time>
      </trkpt>
      <trkpt lat="40.164817" lon="-5.300233">
        <ele>1383.0</ele>
        <time>2015-06-07T14:07:37Z</time>
      </trkpt>
      <trkpt lat="40.164833" lon="-5.300050">
        <ele>1385.0</ele>
        <time>2015-06-07T14:07:39Z</time>
      </trkpt>
      <trkpt lat="40.164767" lon="-5.299900">
        <ele>1389.0</ele>
        <time>2015-06-07T14:07:41Z</time>
      </trkpt>
      <trkpt lat="40.164683" lon="-5.299783">
        <ele>1392.0</ele>
        <time>2015-06-07T14:07:43Z</time>
      </trkpt>
      <trkpt lat="40.164533" lon="-5.299717">
        <ele>1393.0</ele>
        <time>2015-06-07T14:07:45Z</time>
      </trkpt>
      <trkpt lat="40.164400" lon="-5.299733">
        <ele>1395.0</ele>
        <time>2015-06-07T14:07:47Z</time>
      </trkpt>
      <trkpt lat="40.164283" lon="-5.299800">
        <ele>1397.0</ele>
        <time>2015-06-07T14:07:49Z</time>
      </trkpt>
      <trkpt lat="40.164183" lon="-5.299950">
        <ele>1397.0</ele>
        <time>2015-06-07T14:07:51Z</time>
      </trkpt>
      <trkpt lat="40.164117" lon="-5.300150">
        <ele>1396.0</ele>
        <time>2015-06-07T14:07:53Z</time>
      </trkpt>
      <trkpt lat="40.164117" lon="-5.300400">
        <ele>1395.0</ele>
        <time>2015-06-07T14:07:55Z</time>
      </trkpt>
      <trkpt lat="40.164167" lon="-5.300650">
        <ele>1393.0</ele>
        <time>2015-06-07T14:07:57Z</time>
      </trkpt>
      <trkpt lat="40.164367" lon="-5.300800">
        <ele>1391.0</ele>
        <time>2015-06-07T14:07:59Z</time>
      </trkpt>
      <trkpt lat="40.164550" lon="-5.300850">
        <ele>1395.0</ele>
        <time>2015-06-07T14:08:01Z</time>
      </trkpt>
      <trkpt lat="40.164683" lon="-5.300817">
        <ele>1400.0</ele>
        <time>2015-06-07T14:08:03Z</time>
      </trkpt>
      <trkpt lat="40.164783" lon="-5.300683">
        <ele>1399.0</ele>
        <time>2015-06-07T14:08:05Z</time>
      </trkpt>
      <trkpt lat="40.164867" lon="-5.300500">
        <ele>1399.0</ele>
        <time>2015-06-07T14:08:07Z</time>
      </trkpt>
      <trkpt lat="40.164833" lon="-5.300333">
        <ele>1399.0</ele>
        <time>2015-06-07T14:08:09Z</time>
      </trkpt>
      <trkpt lat="40.164750" lon="-5.300217">
        <ele>1398.0</ele>
        <time>2015-06-07T14:08:11Z</time>
      </trkpt>
      <trkpt lat="40.164633" lon="-5.300117">
        <ele>1395.0</ele>
        <time>2015-06-07T14:08:13Z</time>
      </trkpt>
      <trkpt lat="40.164500" lon="-5.299983">
        <ele>1393.0</ele>
        <time>2015-06-07T14:08:15Z</time>
      </trkpt>
      <trkpt lat="40.164417" lon="-5.299900">
        <ele>1391.0</ele>
        <time>2015-06-07T14:08:17Z</time>
      </trkpt>
      <trkpt lat="40.164283" lon="-5.299867">
        <ele>1387.0</ele>
        <time>2015-06-07T14:08:19Z</time>
      </trkpt>
      <trkpt lat="40.164150" lon="-5.299900">
        <ele>1384.0</ele>
        <time>2015-06-07T14:08:21Z</time>
      </trkpt>
      <trkpt lat="40.164017" lon="-5.300033">
        <ele>1381.0</ele>
        <time>2015-06-07T14:08:23Z</time>
      </trkpt>
      <trkpt lat="40.163917" lon="-5.300250">
        <ele>1375.0</ele>
        <time>2015-06-07T14:08:25Z</time>
      </trkpt>
      <trkpt lat="40.163850" lon="-5.300483">
        <ele>1370.0</ele>
        <time>2015-06-07T14:08:27Z</time>
      </trkpt>
      <trkpt lat="40.163833" lon="-5.300733">
        <ele>1366.0</ele>
        <time>2015-06-07T14:08:29Z</time>
      </trkpt>
      <trkpt lat="40.163850" lon="-5.301000">
        <ele>1359.0</ele>
        <time>2015-06-07T14:08:31Z</time>
      </trkpt>
      <trkpt lat="40.163833" lon="-5.301300">
        <ele>1353.0</ele>
        <time>2015-06-07T14:08:33Z</time>
      </trkpt>
      <trkpt lat="40.163783" lon="-5.301550">
        <ele>1351.0</ele>
        <time>2015-06-07T14:08:35Z</time>
      </trkpt>
      <trkpt lat="40.163750" lon="-5.301833">
        <ele>1347.0</ele>
        <time>2015-06-07T14:08:37Z</time>
      </trkpt>
      <trkpt lat="40.163683" lon="-5.302100">
        <ele>1344.0</ele>
        <time>2015-06-07T14:08:39Z</time>
      </trkpt>
      <trkpt lat="40.163617" lon="-5.302350">
        <ele>1341.0</ele>
        <time>2015-06-07T14:08:41Z</time>
      </trkpt>
      <trkpt lat="40.163567" lon="-5.302600">
        <ele>1338.0</ele>
        <time>2015-06-07T14:08:43Z</time>
      </trkpt>
      <trkpt lat="40.163500" lon="-5.302867">
        <ele>1336.0</ele>
        <time>2015-06-07T14:08:45Z</time>
      </trkpt>
      <trkpt lat="40.163433" lon="-5.303133">
        <ele>1334.0</ele>
        <time>2015-06-07T14:08:47Z</time>
      </trkpt>
      <trkpt lat="40.163350" lon="-5.303383">
        <ele>1334.0</ele>
        <time>2015-06-07T14:08:49Z</time>
      </trkpt>
      <trkpt lat="40.163267" lon="-5.303617">
        <ele>1334.0</ele>
        <time>2015-06-07T14:08:51Z</time>
      </trkpt>
      <trkpt lat="40.163233" lon="-5.303867">
        <ele>1335.0</ele>
        <time>2015-06-07T14:08:53Z</time>
      </trkpt>
      <trkpt lat="40.163217" lon="-5.304117">
        <ele>1336.0</ele>
        <time>2015-06-07T14:08:55Z</time>
      </trkpt>
      <trkpt lat="40.163200" lon="-5.304383">
        <ele>1336.0</ele>
        <time>2015-06-07T14:08:57Z</time>
      </trkpt>
      <trkpt lat="40.163117" lon="-5.304617">
        <ele>1336.0</ele>
        <time>2015-06-07T14:08:59Z</time>
      </trkpt>
      <trkpt lat="40.163000" lon="-5.304850">
        <ele>1336.0</ele>
        <time>2015-06-07T14:09:01Z</time>
      </trkpt>
      <trkpt lat="40.162917" lon="-5.305117">
        <ele>1335.0</ele>
        <time>2015-06-07T14:09:03Z</time>
      </trkpt>
      <trkpt lat="40.162833" lon="-5.305333">
        <ele>1335.0</ele>
        <time>2015-06-07T14:09:05Z</time>
      </trkpt>
      <trkpt lat="40.162683" lon="-5.305533">
        <ele>1331.0</ele>
        <time>2015-06-07T14:09:07Z</time>
      </trkpt>
      <trkpt lat="40.162533" lon="-5.305733">
        <ele>1332.0</ele>
        <time>2015-06-07T14:09:09Z</time>
      </trkpt>
      <trkpt lat="40.162450" lon="-5.305917">
        <ele>1333.0</ele>
        <time>2015-06-07T14:09:11Z</time>
      </trkpt>
      <trkpt lat="40.162367" lon="-5.306133">
        <ele>1331.0</ele>
        <time>2015-06-07T14:09:13Z</time>
      </trkpt>
      <trkpt lat="40.162317" lon="-5.306433">
        <ele>1326.0</ele>
        <time>2015-06-07T14:09:15Z</time>
      </trkpt>
      <trkpt lat="40.162300" lon="-5.306733">
        <ele>1324.0</ele>
        <time>2015-06-07T14:09:17Z</time>
      </trkpt>
      <trkpt lat="40.162300" lon="-5.307017">
        <ele>1325.0</ele>
        <time>2015-06-07T14:09:19Z</time>
      </trkpt>
      <trkpt lat="40.162367" lon="-5.307283">
        <ele>1326.0</ele>
        <time>2015-06-07T14:09:21Z</time>
      </trkpt>
      <trkpt lat="40.162500" lon="-5.307483">
        <ele>1322.0</ele>
        <time>2015-06-07T14:09:23Z</time>
      </trkpt>
      <trkpt lat="40.162667" lon="-5.307700">
        <ele>1320.0</ele>
        <time>2015-06-07T14:09:25Z</time>
      </trkpt>
      <trkpt lat="40.162817" lon="-5.307833">
        <ele>1320.0</ele>
        <time>2015-06-07T14:09:27Z</time>
      </trkpt>
      <trkpt lat="40.163017" lon="-5.307900">
        <ele>1317.0</ele>
        <time>2015-06-07T14:09:29Z</time>
      </trkpt>
      <trkpt lat="40.163217" lon="-5.307833">
        <ele>1315.0</ele>
        <time>2015-06-07T14:09:31Z</time>
      </trkpt>
      <trkpt lat="40.163367" lon="-5.307750">
        <ele>1316.0</ele>
        <time>2015-06-07T14:09:33Z</time>
      </trkpt>
      <trkpt lat="40.163483" lon="-5.307633">
        <ele>1318.0</ele>
        <time>2015-06-07T14:09:35Z</time>
      </trkpt>
      <trkpt lat="40.163550" lon="-5.307517">
        <ele>1318.0</ele>
        <time>2015-06-07T14:09:37Z</time>
      </trkpt>
      <trkpt lat="40.163567" lon="-5.307350">
        <ele>1314.0</ele>
        <time>2015-06-07T14:09:39Z</time>
      </trkpt>
      <trkpt lat="40.163550" lon="-5.307200">
        <ele>1313.0</ele>
        <time>2015-06-07T14:09:41Z</time>
      </trkpt>
      <trkpt lat="40.163467" lon="-5.307067">
        <ele>1313.0</ele>
        <time>2015-06-07T14:09:43Z</time>
      </trkpt>
      <trkpt lat="40.163350" lon="-5.306967">
        <ele>1313.0</ele>
        <time>2015-06-07T14:09:45Z</time>
      </trkpt>
      <trkpt lat="40.163217" lon="-5.306900">
        <ele>1316.0</ele>
        <time>2015-06-07T14:09:47Z</time>
      </trkpt>
      <trkpt lat="40.163067" lon="-5.306883">
        <ele>1318.0</ele>
        <time>2015-06-07T14:09:49Z</time>
      </trkpt>
      <trkpt lat="40.162900" lon="-5.306950">
        <ele>1318.0</ele>
        <time>2015-06-07T14:09:51Z</time>
      </trkpt>
      <trkpt lat="40.162750" lon="-5.307100">
        <ele>1318.0</ele>
        <time>2015-06-07T14:09:53Z</time>
      </trkpt>
      <trkpt lat="40.162633" lon="-5.307300">
        <ele>1317.0</ele>
        <time>2015-06-07T14:09:55Z</time>
      </trkpt>
      <trkpt lat="40.162550" lon="-5.307567">
        <ele>1314.0</ele>
        <time>2015-06-07T14:09:57Z</time>
      </trkpt>
      <trkpt lat="40.162517" lon="-5.307867">
        <ele>1315.0</ele>
        <time>2015-06-07T14:09:59Z</time>
      </trkpt>
      <trkpt lat="40.162550" lon="-5.308133">
        <ele>1318.0</ele>
        <time>2015-06-07T14:10:01Z</time>
      </trkpt>
      <trkpt lat="40.162600" lon="-5.308367">
        <ele>1319.0</ele>
        <time>2015-06-07T14:10:03Z</time>
      </trkpt>
      <trkpt lat="40.162717" lon="-5.308583">
        <ele>1317.0</ele>
        <time>2015-06-07T14:10:05Z</time>
      </trkpt>
      <trkpt lat="40.162867" lon="-5.308767">
        <ele>1317.0</ele>
        <time>2015-06-07T14:10:07Z</time>
      </trkpt>
      <trkpt lat="40.162983" lon="-5.308967">
        <ele>1317.0</ele>
        <time>2015-06-07T14:10:09Z</time>
      </trkpt>
      <trkpt lat="40.163133" lon="-5.309167">
        <ele>1313.0</ele>
        <time>2015-06-07T14:10:11Z</time>
      </trkpt>
      <trkpt lat="40.163317" lon="-5.309383">
        <ele>1310.0</ele>
        <time>2015-06-07T14:10:13Z</time>
      </trkpt>
      <trkpt lat="40.163417" lon="-5.309650">
        <ele>1309.0</ele>
        <time>2015-06-07T14:10:15Z</time>
      </trkpt>
      <trkpt lat="40.163483" lon="-5.309933">
        <ele>1307.0</ele>
        <time>2015-06-07T14:10:17Z</time>
      </trkpt>
      <trkpt lat="40.163550" lon="-5.310183">
        <ele>1308.0</ele>
        <time>2015-06-07T14:10:19Z</time>
      </trkpt>
      <trkpt lat="40.163550" lon="-5.310433">
        <ele>1308.0</ele>
        <time>2015-06-07T14:10:21Z</time>
      </trkpt>
      <trkpt lat="40.163517" lon="-5.310717">
        <ele>1305.0</ele>
        <time>2015-06-07T14:10:23Z</time>
      </trkpt>
      <trkpt lat="40.163467" lon="-5.310933">
        <ele>1305.0</ele>
        <time>2015-06-07T14:10:25Z</time>
      </trkpt>
      <trkpt lat="40.163383" lon="-5.311100">
        <ele>1303.0</ele>
        <time>2015-06-07T14:10:27Z</time>
      </trkpt>
      <trkpt lat="40.163267" lon="-5.311317">
        <ele>1299.0</ele>
        <time>2015-06-07T14:10:29Z</time>
      </trkpt>
      <trkpt lat="40.163200" lon="-5.311550">
        <ele>1298.0</ele>
        <time>2015-06-07T14:10:31Z</time>
      </trkpt>
      <trkpt lat="40.163150" lon="-5.311800">
        <ele>1297.0</ele>
        <time>2015-06-07T14:10:33Z</time>
      </trkpt>
      <trkpt lat="40.163083" lon="-5.312033">
        <ele>1295.0</ele>
        <time>2015-06-07T14:10:35Z</time>
      </trkpt>
      <trkpt lat="40.163050" lon="-5.312283">
        <ele>1293.0</ele>
        <time>2015-06-07T14:10:37Z</time>
      </trkpt>
      <trkpt lat="40.162983" lon="-5.312500">
        <ele>1291.0</ele>
        <time>2015-06-07T14:10:39Z</time>
      </trkpt>
      <trkpt lat="40.162883" lon="-5.312650">
        <ele>1290.0</ele>
        <time>2015-06-07T14:10:41Z</time>
      </trkpt>
      <trkpt lat="40.162800" lon="-5.312817">
        <ele>1288.0</ele>
        <time>2015-06-07T14:10:43Z</time>
      </trkpt>
      <trkpt lat="40.162717" lon="-5.313017">
        <ele>1286.0</ele>
        <time>2015-06-07T14:10:45Z</time>
      </trkpt>
      <trkpt lat="40.162633" lon="-5.313200">
        <ele>1288.0</ele>
        <time>2015-06-07T14:10:47Z</time>
      </trkpt>
      <trkpt lat="40.162533" lon="-5.313383">
        <ele>1291.0</ele>
        <time>2015-06-07T14:10:49Z</time>
      </trkpt>
      <trkpt lat="40.162400" lon="-5.313533">
        <ele>1294.0</ele>
        <time>2015-06-07T14:10:51Z</time>
      </trkpt>
      <trkpt lat="40.162233" lon="-5.313633">
        <ele>1297.0</ele>
        <time>2015-06-07T14:10:53Z</time>
      </trkpt>
      <trkpt lat="40.162067" lon="-5.313667">
        <ele>1299.0</ele>
        <time>2015-06-07T14:10:55Z</time>
      </trkpt>
      <trkpt lat="40.161883" lon="-5.313683">
        <ele>1301.0</ele>
        <time>2015-06-07T14:10:57Z</time>
      </trkpt>
      <trkpt lat="40.161750" lon="-5.313633">
        <ele>1300.0</ele>
        <time>2015-06-07T14:10:59Z</time>
      </trkpt>
      <trkpt lat="40.161600" lon="-5.313583">
        <ele>1297.0</ele>
        <time>2015-06-07T14:11:01Z</time>
      </trkpt>
      <trkpt lat="40.161433" lon="-5.313667">
        <ele>1295.0</ele>
        <time>2015-06-07T14:11:03Z</time>
      </trkpt>
      <trkpt lat="40.161317" lon="-5.313833">
        <ele>1294.0</ele>
        <time>2015-06-07T14:11:05Z</time>
      </trkpt>
      <trkpt lat="40.161283" lon="-5.314067">
        <ele>1294.0</ele>
        <time>2015-06-07T14:11:07Z</time>
      </trkpt>
      <trkpt lat="40.161283" lon="-5.314317">
        <ele>1290.0</ele>
        <time>2015-06-07T14:11:09Z</time>
      </trkpt>
      <trkpt lat="40.161317" lon="-5.314567">
        <ele>1286.0</ele>
        <time>2015-06-07T14:11:11Z</time>
      </trkpt>
      <trkpt lat="40.161433" lon="-5.314800">
        <ele>1283.0</ele>
        <time>2015-06-07T14:11:13Z</time>
      </trkpt>
      <trkpt lat="40.161583" lon="-5.314983">
        <ele>1281.0</ele>
        <time>2015-06-07T14:11:15Z</time>
      </trkpt>
      <trkpt lat="40.161750" lon="-5.315083">
        <ele>1278.0</ele>
        <time>2015-06-07T14:11:17Z</time>
      </trkpt>
      <trkpt lat="40.161933" lon="-5.315150">
        <ele>1274.0</ele>
        <time>2015-06-07T14:11:19Z</time>
      </trkpt>
      <trkpt lat="40.162117" lon="-5.315200">
        <ele>1271.0</ele>
        <time>2015-06-07T14:11:21Z</time>
      </trkpt>
      <trkpt lat="40.162283" lon="-5.315267">
        <ele>1268.0</ele>
        <time>2015-06-07T14:11:23Z</time>
      </trkpt>
      <trkpt lat="40.162417" lon="-5.315383">
        <ele>1264.0</ele>
        <time>2015-06-07T14:11:25Z</time>
      </trkpt>
      <trkpt lat="40.162533" lon="-5.315550">
        <ele>1260.0</ele>
        <time>2015-06-07T14:11:27Z</time>
      </trkpt>
      <trkpt lat="40.162617" lon="-5.315783">
        <ele>1258.0</ele>
        <time>2015-06-07T14:11:29Z</time>
      </trkpt>
      <trkpt lat="40.162700" lon="-5.315983">
        <ele>1258.0</ele>
        <time>2015-06-07T14:11:31Z</time>
      </trkpt>
      <trkpt lat="40.162833" lon="-5.316150">
        <ele>1256.0</ele>
        <time>2015-06-07T14:11:33Z</time>
      </trkpt>
      <trkpt lat="40.162983" lon="-5.316267">
        <ele>1254.0</ele>
        <time>2015-06-07T14:11:35Z</time>
      </trkpt>
      <trkpt lat="40.163133" lon="-5.316383">
        <ele>1253.0</ele>
        <time>2015-06-07T14:11:37Z</time>
      </trkpt>
      <trkpt lat="40.163283" lon="-5.316533">
        <ele>1250.0</ele>
        <time>2015-06-07T14:11:39Z</time>
      </trkpt>
      <trkpt lat="40.163450" lon="-5.316717">
        <ele>1245.0</ele>
        <time>2015-06-07T14:11:41Z</time>
      </trkpt>
      <trkpt lat="40.163600" lon="-5.316933">
        <ele>1242.0</ele>
        <time>2015-06-07T14:11:43Z</time>
      </trkpt>
      <trkpt lat="40.163733" lon="-5.317133">
        <ele>1244.0</ele>
        <time>2015-06-07T14:11:45Z</time>
      </trkpt>
      <trkpt lat="40.163850" lon="-5.317333">
        <ele>1246.0</ele>
        <time>2015-06-07T14:11:47Z</time>
      </trkpt>
      <trkpt lat="40.163983" lon="-5.317533">
        <ele>1245.0</ele>
        <time>2015-06-07T14:11:49Z</time>
      </trkpt>
      <trkpt lat="40.164150" lon="-5.317600">
        <ele>1247.0</ele>
        <time>2015-06-07T14:11:51Z</time>
      </trkpt>
      <trkpt lat="40.164317" lon="-5.317550">
        <ele>1249.0</ele>
        <time>2015-06-07T14:11:53Z</time>
      </trkpt>
      <trkpt lat="40.164433" lon="-5.317450">
        <ele>1253.0</ele>
        <time>2015-06-07T14:11:55Z</time>
      </trkpt>
      <trkpt lat="40.164483" lon="-5.317283">
        <ele>1255.0</ele>
        <time>2015-06-07T14:11:57Z</time>
      </trkpt>
      <trkpt lat="40.164467" lon="-5.317117">
        <ele>1258.0</ele>
        <time>2015-06-07T14:11:59Z</time>
      </trkpt>
      <trkpt lat="40.164383" lon="-5.316967">
        <ele>1261.0</ele>
        <time>2015-06-07T14:12:01Z</time>
      </trkpt>
      <trkpt lat="40.164233" lon="-5.316850">
        <ele>1263.0</ele>
        <time>2015-06-07T14:12:03Z</time>
      </trkpt>
      <trkpt lat="40.164067" lon="-5.316833">
        <ele>1268.0</ele>
        <time>2015-06-07T14:12:05Z</time>
      </trkpt>
      <trkpt lat="40.163900" lon="-5.316917">
        <ele>1271.0</ele>
        <time>2015-06-07T14:12:07Z</time>
      </trkpt>
      <trkpt lat="40.163783" lon="-5.317083">
        <ele>1272.0</ele>
        <time>2015-06-07T14:12:09Z</time>
      </trkpt>
      <trkpt lat="40.163733" lon="-5.317333">
        <ele>1272.0</ele>
        <time>2015-06-07T14:12:11Z</time>
      </trkpt>
      <trkpt lat="40.163750" lon="-5.317633">
        <ele>1269.0</ele>
        <time>2015-06-07T14:12:13Z</time>
      </trkpt>
      <trkpt lat="40.163817" lon="-5.317900">
        <ele>1270.0</ele>
        <time>2015-06-07T14:12:15Z</time>
      </trkpt>
      <trkpt lat="40.163917" lon="-5.318117">
        <ele>1271.0</ele>
        <time>2015-06-07T14:12:17Z</time>
      </trkpt>
      <trkpt lat="40.164083" lon="-5.318283">
        <ele>1270.0</ele>
        <time>2015-06-07T14:12:19Z</time>
      </trkpt>
      <trkpt lat="40.164267" lon="-5.318350">
        <ele>1269.0</ele>
        <time>2015-06-07T14:12:21Z</time>
      </trkpt>
      <trkpt lat="40.164433" lon="-5.318383">
        <ele>1272.0</ele>
        <time>2015-06-07T14:12:23Z</time>
      </trkpt>
      <trkpt lat="40.164567" lon="-5.318350">
        <ele>1271.0</ele>
        <time>2015-06-07T14:12:25Z</time>
      </trkpt>
      <trkpt lat="40.164667" lon="-5.318217">
        <ele>1268.0</ele>
        <time>2015-06-07T14:12:27Z</time>
      </trkpt>
      <trkpt lat="40.164700" lon="-5.318017">
        <ele>1264.0</ele>
        <time>2015-06-07T14:12:29Z</time>
      </trkpt>
      <trkpt lat="40.164667" lon="-5.317783">
        <ele>1261.0</ele>
        <time>2015-06-07T14:12:31Z</time>
      </trkpt>
      <trkpt lat="40.164617" lon="-5.317550">
        <ele>1260.0</ele>
        <time>2015-06-07T14:12:33Z</time>
      </trkpt>
      <trkpt lat="40.164517" lon="-5.317383">
        <ele>1262.0</ele>
        <time>2015-06-07T14:12:35Z</time>
      </trkpt>
      <trkpt lat="40.164383" lon="-5.317233">
        <ele>1264.0</ele>
        <time>2015-06-07T14:12:37Z</time>
      </trkpt>
      <trkpt lat="40.164250" lon="-5.317117">
        <ele>1268.0</ele>
        <time>2015-06-07T14:12:39Z</time>
      </trkpt>
      <trkpt lat="40.164117" lon="-5.317083">
        <ele>1271.0</ele>
        <time>2015-06-07T14:12:41Z</time>
      </trkpt>
      <trkpt lat="40.163950" lon="-5.317167">
        <ele>1271.0</ele>
        <time>2015-06-07T14:12:43Z</time>
      </trkpt>
      <trkpt lat="40.163817" lon="-5.317333">
        <ele>1273.0</ele>
        <time>2015-06-07T14:12:45Z</time>
      </trkpt>
      <trkpt lat="40.163750" lon="-5.317517">
        <ele>1275.0</ele>
        <time>2015-06-07T14:12:47Z</time>
      </trkpt>
      <trkpt lat="40.163750" lon="-5.317767">
        <ele>1271.0</ele>
        <time>2015-06-07T14:12:49Z</time>
      </trkpt>
      <trkpt lat="40.163817" lon="-5.318033">
        <ele>1267.0</ele>
        <time>2015-06-07T14:12:51Z</time>
      </trkpt>
      <trkpt lat="40.163950" lon="-5.318233">
        <ele>1267.0</ele>
        <time>2015-06-07T14:12:53Z</time>
      </trkpt>
      <trkpt lat="40.164083" lon="-5.318383">
        <ele>1268.0</ele>
        <time>2015-06-07T14:12:55Z</time>
      </trkpt>
      <trkpt lat="40.164267" lon="-5.318433">
        <ele>1267.0</ele>
        <time>2015-06-07T14:12:57Z</time>
      </trkpt>
      <trkpt lat="40.164433" lon="-5.318383">
        <ele>1266.0</ele>
        <time>2015-06-07T14:12:59Z</time>
      </trkpt>
      <trkpt lat="40.164533" lon="-5.318250">
        <ele>1265.0</ele>
        <time>2015-06-07T14:13:01Z</time>
      </trkpt>
      <trkpt lat="40.164583" lon="-5.318067">
        <ele>1265.0</ele>
        <time>2015-06-07T14:13:03Z</time>
      </trkpt>
      <trkpt lat="40.164633" lon="-5.317900">
        <ele>1267.0</ele>
        <time>2015-06-07T14:13:05Z</time>
      </trkpt>
      <trkpt lat="40.164667" lon="-5.317750">
        <ele>1268.0</ele>
        <time>2015-06-07T14:13:07Z</time>
      </trkpt>
      <trkpt lat="40.164767" lon="-5.317633">
        <ele>1268.0</ele>
        <time>2015-06-07T14:13:09Z</time>
      </trkpt>
      <trkpt lat="40.164917" lon="-5.317500">
        <ele>1265.0</ele>
        <time>2015-06-07T14:13:11Z</time>
      </trkpt>
      <trkpt lat="40.164950" lon="-5.317300">
        <ele>1268.0</ele>
        <time>2015-06-07T14:13:13Z</time>
      </trkpt>
      <trkpt lat="40.164900" lon="-5.317150">
        <ele>1271.0</ele>
        <time>2015-06-07T14:13:15Z</time>
      </trkpt>
      <trkpt lat="40.164800" lon="-5.317050">
        <ele>1273.0</ele>
        <time>2015-06-07T14:13:17Z</time>
      </trkpt>
      <trkpt lat="40.164650" lon="-5.317017">
        <ele>1271.0</ele>
        <time>2015-06-07T14:13:19Z</time>
      </trkpt>
      <trkpt lat="40.164450" lon="-5.317067">
        <ele>1269.0</ele>
        <time>2015-06-07T14:13:21Z</time>
      </trkpt>
      <trkpt lat="40.164300" lon="-5.317133">
        <ele>1270.0</ele>
        <time>2015-06-07T14:13:23Z</time>
      </trkpt>
      <trkpt lat="40.164133" lon="-5.317217">
        <ele>1269.0</ele>
        <time>2015-06-07T14:13:25Z</time>
      </trkpt>
      <trkpt lat="40.163983" lon="-5.317417">
        <ele>1266.0</ele>
        <time>2015-06-07T14:13:27Z</time>
      </trkpt>
      <trkpt lat="40.163900" lon="-5.317667">
        <ele>1265.0</ele>
        <time>2015-06-07T14:13:29Z</time>
      </trkpt>
      <trkpt lat="40.163883" lon="-5.317900">
        <ele>1265.0</ele>
        <time>2015-06-07T14:13:31Z</time>
      </trkpt>
      <trkpt lat="40.163933" lon="-5.318150">
        <ele>1263.0</ele>
        <time>2015-06-07T14:13:33Z</time>
      </trkpt>
      <trkpt lat="40.164017" lon="-5.318383">
        <ele>1261.0</ele>
        <time>2015-06-07T14:13:35Z</time>
      </trkpt>
      <trkpt lat="40.164117" lon="-5.318550">
        <ele>1261.0</ele>
        <time>2015-06-07T14:13:37Z</time>
      </trkpt>
      <trkpt lat="40.164250" lon="-5.318667">
        <ele>1259.0</ele>
        <time>2015-06-07T14:13:39Z</time>
      </trkpt>
      <trkpt lat="40.164417" lon="-5.318733">
        <ele>1257.0</ele>
        <time>2015-06-07T14:13:41Z</time>
      </trkpt>
      <trkpt lat="40.164583" lon="-5.318767">
        <ele>1257.0</ele>
        <time>2015-06-07T14:13:43Z</time>
      </trkpt>
      <trkpt lat="40.164717" lon="-5.318750">
        <ele>1258.0</ele>
        <time>2015-06-07T14:13:45Z</time>
      </trkpt>
      <trkpt lat="40.164850" lon="-5.318667">
        <ele>1256.0</ele>
        <time>2015-06-07T14:13:47Z</time>
      </trkpt>
      <trkpt lat="40.164933" lon="-5.318517">
        <ele>1256.0</ele>
        <time>2015-06-07T14:13:49Z</time>
      </trkpt>
      <trkpt lat="40.164983" lon="-5.318333">
        <ele>1256.0</ele>
        <time>2015-06-07T14:13:51Z</time>
      </trkpt>
      <trkpt lat="40.165017" lon="-5.318150">
        <ele>1256.0</ele>
        <time>2015-06-07T14:13:53Z</time>
      </trkpt>
      <trkpt lat="40.164983" lon="-5.317983">
        <ele>1256.0</ele>
        <time>2015-06-07T14:13:55Z</time>
      </trkpt>
      <trkpt lat="40.164883" lon="-5.317833">
        <ele>1255.0</ele>
        <time>2015-06-07T14:13:57Z</time>
      </trkpt>
      <trkpt lat="40.164767" lon="-5.317700">
        <ele>1253.0</ele>
        <time>2015-06-07T14:13:59Z</time>
      </trkpt>
      <trkpt lat="40.164650" lon="-5.317600">
        <ele>1253.0</ele>
        <time>2015-06-07T14:14:01Z</time>
      </trkpt>
      <trkpt lat="40.164500" lon="-5.317567">
        <ele>1254.0</ele>
        <time>2015-06-07T14:14:03Z</time>
      </trkpt>
      <trkpt lat="40.164317" lon="-5.317617">
        <ele>1253.0</ele>
        <time>2015-06-07T14:14:05Z</time>
      </trkpt>
      <trkpt lat="40.164167" lon="-5.317700">
        <ele>1252.0</ele>
        <time>2015-06-07T14:14:07Z</time>
      </trkpt>
      <trkpt lat="40.164000" lon="-5.317817">
        <ele>1250.0</ele>
        <time>2015-06-07T14:14:09Z</time>
      </trkpt>
      <trkpt lat="40.163867" lon="-5.318000">
        <ele>1247.0</ele>
        <time>2015-06-07T14:14:11Z</time>
      </trkpt>
      <trkpt lat="40.163767" lon="-5.318217">
        <ele>1244.0</ele>
        <time>2015-06-07T14:14:13Z</time>
      </trkpt>
      <trkpt lat="40.163683" lon="-5.318417">
        <ele>1240.0</ele>
        <time>2015-06-07T14:14:15Z</time>
      </trkpt>
      <trkpt lat="40.163667" lon="-5.318650">
        <ele>1236.0</ele>
        <time>2015-06-07T14:14:17Z</time>
      </trkpt>
      <trkpt lat="40.163667" lon="-5.318883">
        <ele>1232.0</ele>
        <time>2015-06-07T14:14:19Z</time>
      </trkpt>
      <trkpt lat="40.163667" lon="-5.319150">
        <ele>1229.0</ele>
        <time>2015-06-07T14:14:21Z</time>
      </trkpt>
      <trkpt lat="40.163650" lon="-5.319383">
        <ele>1227.0</ele>
        <time>2015-06-07T14:14:23Z</time>
      </trkpt>
      <trkpt lat="40.163633" lon="-5.319583">
        <ele>1227.0</ele>
        <time>2015-06-07T14:14:25Z</time>
      </trkpt>
      <trkpt lat="40.163583" lon="-5.319783">
        <ele>1224.0</ele>
        <time>2015-06-07T14:14:27Z</time>
      </trkpt>
      <trkpt lat="40.163517" lon="-5.319983">
        <ele>1221.0</ele>
        <time>2015-06-07T14:14:29Z</time>
      </trkpt>
      <trkpt lat="40.163450" lon="-5.320150">
        <ele>1221.0</ele>
        <time>2015-06-07T14:14:31Z</time>
      </trkpt>
      <trkpt lat="40.163417" lon="-5.320317">
        <ele>1221.0</ele>
        <time>2015-06-07T14:14:33Z</time>
      </trkpt>
      <trkpt lat="40.163400" lon="-5.320500">
        <ele>1220.0</ele>
        <time>2015-06-07T14:14:35Z</time>
      </trkpt>
      <trkpt lat="40.163383" lon="-5.320717">
        <ele>1219.0</ele>
        <time>2015-06-07T14:14:37Z</time>
      </trkpt>
      <trkpt lat="40.163383" lon="-5.320933">
        <ele>1218.0</ele>
        <time>2015-06-07T14:14:39Z</time>
      </trkpt>
      <trkpt lat="40.163367" lon="-5.321117">
        <ele>1219.0</ele>
        <time>2015-06-07T14:14:41Z</time>
      </trkpt>
      <trkpt lat="40.163317" lon="-5.321300">
        <ele>1217.0</ele>
        <time>2015-06-07T14:14:43Z</time>
      </trkpt>
      <trkpt lat="40.163267" lon="-5.321500">
        <ele>1216.0</ele>
        <time>2015-06-07T14:14:45Z</time>
      </trkpt>
      <trkpt lat="40.163233" lon="-5.321683">
        <ele>1214.0</ele>
        <time>2015-06-07T14:14:47Z</time>
      </trkpt>
      <trkpt lat="40.163200" lon="-5.321883">
        <ele>1210.0</ele>
        <time>2015-06-07T14:14:49Z</time>
      </trkpt>
      <trkpt lat="40.163167" lon="-5.322117">
        <ele>1206.0</ele>
        <time>2015-06-07T14:14:51Z</time>
      </trkpt>
      <trkpt lat="40.163167" lon="-5.322283">
        <ele>1209.0</ele>
        <time>2015-06-07T14:14:53Z</time>
      </trkpt>
      <trkpt lat="40.163150" lon="-5.322433">
        <ele>1211.0</ele>
        <time>2015-06-07T14:14:55Z</time>
      </trkpt>
      <trkpt lat="40.163183" lon="-5.322633">
        <ele>1211.0</ele>
        <time>2015-06-07T14:14:57Z</time>
      </trkpt>
      <trkpt lat="40.163300" lon="-5.322850">
        <ele>1211.0</ele>
        <time>2015-06-07T14:14:59Z</time>
      </trkpt>
      <trkpt lat="40.163467" lon="-5.323067">
        <ele>1206.0</ele>
        <time>2015-06-07T14:15:01Z</time>
      </trkpt>
      <trkpt lat="40.163650" lon="-5.323317">
        <ele>1200.0</ele>
        <time>2015-06-07T14:15:03Z</time>
      </trkpt>
      <trkpt lat="40.163767" lon="-5.323567">
        <ele>1195.0</ele>
        <time>2015-06-07T14:15:05Z</time>
      </trkpt>
      <trkpt lat="40.163900" lon="-5.323750">
        <ele>1193.0</ele>
        <time>2015-06-07T14:15:07Z</time>
      </trkpt>
      <trkpt lat="40.164117" lon="-5.323883">
        <ele>1188.0</ele>
        <time>2015-06-07T14:15:09Z</time>
      </trkpt>
      <trkpt lat="40.164367" lon="-5.323933">
        <ele>1184.0</ele>
        <time>2015-06-07T14:15:11Z</time>
      </trkpt>
      <trkpt lat="40.164583" lon="-5.323883">
        <ele>1182.0</ele>
        <time>2015-06-07T14:15:13Z</time>
      </trkpt>
      <trkpt lat="40.164783" lon="-5.323750">
        <ele>1178.0</ele>
        <time>2015-06-07T14:15:15Z</time>
      </trkpt>
      <trkpt lat="40.164950" lon="-5.323567">
        <ele>1174.0</ele>
        <time>2015-06-07T14:15:17Z</time>
      </trkpt>
      <trkpt lat="40.165033" lon="-5.323333">
        <ele>1170.0</ele>
        <time>2015-06-07T14:15:19Z</time>
      </trkpt>
      <trkpt lat="40.165017" lon="-5.323133">
        <ele>1166.0</ele>
        <time>2015-06-07T14:15:21Z</time>
      </trkpt>
      <trkpt lat="40.164967" lon="-5.323017">
        <ele>1163.0</ele>
        <time>2015-06-07T14:15:23Z</time>
      </trkpt>
      <trkpt lat="40.164883" lon="-5.322950">
        <ele>1159.0</ele>
        <time>2015-06-07T14:15:25Z</time>
      </trkpt>
      <trkpt lat="40.164783" lon="-5.322967">
        <ele>1155.0</ele>
        <time>2015-06-07T14:15:27Z</time>
      </trkpt>
      <trkpt lat="40.164683" lon="-5.323050">
        <ele>1153.0</ele>
        <time>2015-06-07T14:15:29Z</time>
      </trkpt>
      <trkpt lat="40.164600" lon="-5.323133">
        <ele>1151.0</ele>
        <time>2015-06-07T14:15:31Z</time>
      </trkpt>
      <trkpt lat="40.164533" lon="-5.323250">
        <ele>1148.0</ele>
        <time>2015-06-07T14:15:33Z</time>
      </trkpt>
      <trkpt lat="40.164533" lon="-5.323433">
        <ele>1145.0</ele>
        <time>2015-06-07T14:15:35Z</time>
      </trkpt>
      <trkpt lat="40.164500" lon="-5.323667">
        <ele>1141.0</ele>
        <time>2015-06-07T14:15:37Z</time>
      </trkpt>
      <trkpt lat="40.164433" lon="-5.323850">
        <ele>1142.0</ele>
        <time>2015-06-07T14:15:39Z</time>
      </trkpt>
      <trkpt lat="40.164383" lon="-5.323983">
        <ele>1144.0</ele>
        <time>2015-06-07T14:15:41Z</time>
      </trkpt>
      <trkpt lat="40.164333" lon="-5.324100">
        <ele>1142.0</ele>
        <time>2015-06-07T14:15:43Z</time>
      </trkpt>
      <trkpt lat="40.164300" lon="-5.324250">
        <ele>1138.0</ele>
        <time>2015-06-07T14:15:45Z</time>
      </trkpt>
      <trkpt lat="40.164283" lon="-5.324450">
        <ele>1131.0</ele>
        <time>2015-06-07T14:15:47Z</time>
      </trkpt>
      <trkpt lat="40.164233" lon="-5.324600">
        <ele>1126.0</ele>
        <time>2015-06-07T14:15:49Z</time>
      </trkpt>
      <trkpt lat="40.164183" lon="-5.324733">
        <ele>1122.0</ele>
        <time>2015-06-07T14:15:51Z</time>
      </trkpt>
      <trkpt lat="40.164133" lon="-5.324900">
        <ele>1115.0</ele>
        <time>2015-06-07T14:15:53Z</time>
      </trkpt>
      <trkpt lat="40.164033" lon="-5.325050">
        <ele>1108.0</ele>
        <time>2015-06-07T14:15:55Z</time>
      </trkpt>
      <trkpt lat="40.163967" lon="-5.325167">
        <ele>1105.0</ele>
        <time>2015-06-07T14:15:57Z</time>
      </trkpt>
      <trkpt lat="40.163900" lon="-5.325283">
        <ele>1101.0</ele>
        <time>2015-06-07T14:15:59Z</time>
      </trkpt>
      <trkpt lat="40.163800" lon="-5.325417">
        <ele>1095.0</ele>
        <time>2015-06-07T14:16:01Z</time>
      </trkpt>
      <trkpt lat="40.163700" lon="-5.325517">
        <ele>1091.0</ele>
        <time>2015-06-07T14:16:03Z</time>
      </trkpt>
      <trkpt lat="40.163583" lon="-5.325600">
        <ele>1085.0</ele>
        <time>2015-06-07T14:16:05Z</time>
      </trkpt>
      <trkpt lat="40.163467" lon="-5.325700">
        <ele>1080.0</ele>
        <time>2015-06-07T14:16:07Z</time>
      </trkpt>
      <trkpt lat="40.163350" lon="-5.325783">
        <ele>1077.0</ele>
        <time>2015-06-07T14:16:09Z</time>
      </trkpt>
      <trkpt lat="40.163250" lon="-5.325833">
        <ele>1073.0</ele>
        <time>2015-06-07T14:16:11Z</time>
      </trkpt>
      <trkpt lat="40.163150" lon="-5.325950">
        <ele>1068.0</ele>
        <time>2015-06-07T14:16:13Z</time>
      </trkpt>
      <trkpt lat="40.163050" lon="-5.326117">
        <ele>1063.0</ele>
        <time>2015-06-07T14:16:15Z</time>
      </trkpt>
      <trkpt lat="40.162983" lon="-5.326250">
        <ele>1062.0</ele>
        <time>2015-06-07T14:16:17Z</time>
      </trkpt>
      <trkpt lat="40.162883" lon="-5.326383">
        <ele>1059.0</ele>
        <time>2015-06-07T14:16:19Z</time>
      </trkpt>
      <trkpt lat="40.162783" lon="-5.326500">
        <ele>1056.0</ele>
        <time>2015-06-07T14:16:21Z</time>
      </trkpt>
      <trkpt lat="40.162700" lon="-5.326650">
        <ele>1054.0</ele>
        <time>2015-06-07T14:16:23Z</time>
      </trkpt>
      <trkpt lat="40.162633" lon="-5.326817">
        <ele>1054.0</ele>
        <time>2015-06-07T14:16:25Z</time>
      </trkpt>
      <trkpt lat="40.162583" lon="-5.327000">
        <ele>1054.0</ele>
        <time>2015-06-07T14:16:27Z</time>
      </trkpt>
      <trkpt lat="40.162550" lon="-5.327200">
        <ele>1051.0</ele>
        <time>2015-06-07T14:16:29Z</time>
      </trkpt>
      <trkpt lat="40.162483" lon="-5.327417">
        <ele>1048.0</ele>
        <time>2015-06-07T14:16:31Z</time>
      </trkpt>
      <trkpt lat="40.162400" lon="-5.327633">
        <ele>1045.0</ele>
        <time>2015-06-07T14:16:33Z</time>
      </trkpt>
      <trkpt lat="40.162317" lon="-5.327833">
        <ele>1044.0</ele>
        <time>2015-06-07T14:16:35Z</time>
      </trkpt>
      <trkpt lat="40.162250" lon="-5.327967">
        <ele>1042.0</ele>
        <time>2015-06-07T14:16:37Z</time>
      </trkpt>
      <trkpt lat="40.162150" lon="-5.328117">
        <ele>1036.0</ele>
        <time>2015-06-07T14:16:39Z</time>
      </trkpt>
      <trkpt lat="40.162033" lon="-5.328317">
        <ele>1032.0</ele>
        <time>2015-06-07T14:16:41Z</time>
      </trkpt>
      <trkpt lat="40.161933" lon="-5.328467">
        <ele>1031.0</ele>
        <time>2015-06-07T14:16:43Z</time>
      </trkpt>
      <trkpt lat="40.161833" lon="-5.328617">
        <ele>1028.0</ele>
        <time>2015-06-07T14:16:45Z</time>
      </trkpt>
      <trkpt lat="40.161717" lon="-5.328817">
        <ele>1024.0</ele>
        <time>2015-06-07T14:16:47Z</time>
      </trkpt>
      <trkpt lat="40.161617" lon="-5.329033">
        <ele>1023.0</ele>
        <time>2015-06-07T14:16:49Z</time>
      </trkpt>
      <trkpt lat="40.161533" lon="-5.329200">
        <ele>1026.0</ele>
        <time>2015-06-07T14:16:51Z</time>
      </trkpt>
      <trkpt lat="40.161500" lon="-5.329400">
        <ele>1028.0</ele>
        <time>2015-06-07T14:16:53Z</time>
      </trkpt>
      <trkpt lat="40.161517" lon="-5.329650">
        <ele>1029.0</ele>
        <time>2015-06-07T14:16:55Z</time>
      </trkpt>
      <trkpt lat="40.161600" lon="-5.329850">
        <ele>1032.0</ele>
        <time>2015-06-07T14:16:57Z</time>
      </trkpt>
      <trkpt lat="40.161733" lon="-5.330000">
        <ele>1034.0</ele>
        <time>2015-06-07T14:16:59Z</time>
      </trkpt>
      <trkpt lat="40.161933" lon="-5.329983">
        <ele>1032.0</ele>
        <time>2015-06-07T14:17:01Z</time>
      </trkpt>
      <trkpt lat="40.162067" lon="-5.329800">
        <ele>1029.0</ele>
        <time>2015-06-07T14:17:03Z</time>
      </trkpt>
      <trkpt lat="40.162117" lon="-5.329600">
        <ele>1029.0</ele>
        <time>2015-06-07T14:17:05Z</time>
      </trkpt>
      <trkpt lat="40.162150" lon="-5.329467">
        <ele>1030.0</ele>
        <time>2015-06-07T14:17:07Z</time>
      </trkpt>
      <trkpt lat="40.162183" lon="-5.329283">
        <ele>1027.0</ele>
        <time>2015-06-07T14:17:09Z</time>
      </trkpt>
      <trkpt lat="40.162117" lon="-5.329100">
        <ele>1024.0</ele>
        <time>2015-06-07T14:17:11Z</time>
      </trkpt>
      <trkpt lat="40.161950" lon="-5.329033">
        <ele>1023.0</ele>
        <time>2015-06-07T14:17:13Z</time>
      </trkpt>
      <trkpt lat="40.161817" lon="-5.329017">
        <ele>1026.0</ele>
        <time>2015-06-07T14:17:15Z</time>
      </trkpt>
      <trkpt lat="40.161650" lon="-5.329017">
        <ele>1027.0</ele>
        <time>2015-06-07T14:17:17Z</time>
      </trkpt>
      <trkpt lat="40.161483" lon="-5.329100">
        <ele>1027.0</ele>
        <time>2015-06-07T14:17:19Z</time>
      </trkpt>
      <trkpt lat="40.161367" lon="-5.329233">
        <ele>1031.0</ele>
        <time>2015-06-07T14:17:21Z</time>
      </trkpt>
      <trkpt lat="40.161233" lon="-5.329400">
        <ele>1032.0</ele>
        <time>2015-06-07T14:17:23Z</time>
      </trkpt>
      <trkpt lat="40.161167" lon="-5.329650">
        <ele>1031.0</ele>
        <time>2015-06-07T14:17:25Z</time>
      </trkpt>
      <trkpt lat="40.161200" lon="-5.329917">
        <ele>1031.0</ele>
        <time>2015-06-07T14:17:27Z</time>
      </trkpt>
      <trkpt lat="40.161300" lon="-5.330100">
        <ele>1033.0</ele>
        <time>2015-06-07T14:17:29Z</time>
      </trkpt>
      <trkpt lat="40.161400" lon="-5.330217">
        <ele>1033.0</ele>
        <time>2015-06-07T14:17:31Z</time>
      </trkpt>
      <trkpt lat="40.161500" lon="-5.330317">
        <ele>1032.0</ele>
        <time>2015-06-07T14:17:33Z</time>
      </trkpt>
      <trkpt lat="40.161633" lon="-5.330367">
        <ele>1029.0</ele>
        <time>2015-06-07T14:17:35Z</time>
      </trkpt>
      <trkpt lat="40.161783" lon="-5.330433">
        <ele>1026.0</ele>
        <time>2015-06-07T14:17:37Z</time>
      </trkpt>
      <trkpt lat="40.161900" lon="-5.330583">
        <ele>1025.0</ele>
        <time>2015-06-07T14:17:39Z</time>
      </trkpt>
      <trkpt lat="40.161950" lon="-5.330783">
        <ele>1025.0</ele>
        <time>2015-06-07T14:17:41Z</time>
      </trkpt>
      <trkpt lat="40.161950" lon="-5.331017">
        <ele>1024.0</ele>
        <time>2015-06-07T14:17:43Z</time>
      </trkpt>
      <trkpt lat="40.161900" lon="-5.331217">
        <ele>1024.0</ele>
        <time>2015-06-07T14:17:45Z</time>
      </trkpt>
      <trkpt lat="40.161817" lon="-5.331367">
        <ele>1025.0</ele>
        <time>2015-06-07T14:17:47Z</time>
      </trkpt>
      <trkpt lat="40.161733" lon="-5.331483">
        <ele>1023.0</ele>
        <time>2015-06-07T14:17:49Z</time>
      </trkpt>
      <trkpt lat="40.161617" lon="-5.331550">
        <ele>1021.0</ele>
        <time>2015-06-07T14:17:51Z</time>
      </trkpt>
      <trkpt lat="40.161517" lon="-5.331650">
        <ele>1019.0</ele>
        <time>2015-06-07T14:17:53Z</time>
      </trkpt>
      <trkpt lat="40.161433" lon="-5.331783">
        <ele>1015.0</ele>
        <time>2015-06-07T14:17:55Z</time>
      </trkpt>
      <trkpt lat="40.161350" lon="-5.331917">
        <ele>1006.0</ele>
        <time>2015-06-07T14:17:57Z</time>
      </trkpt>
      <trkpt lat="40.161217" lon="-5.332067">
        <ele>998.0</ele>
        <time>2015-06-07T14:17:59Z</time>
      </trkpt>
      <trkpt lat="40.161100" lon="-5.332200">
        <ele>993.0</ele>
        <time>2015-06-07T14:18:01Z</time>
      </trkpt>
      <trkpt lat="40.160983" lon="-5.332333">
        <ele>986.0</ele>
        <time>2015-06-07T14:18:03Z</time>
      </trkpt>
      <trkpt lat="40.160817" lon="-5.332433">
        <ele>978.0</ele>
        <time>2015-06-07T14:18:05Z</time>
      </trkpt>
      <trkpt lat="40.160700" lon="-5.332467">
        <ele>976.0</ele>
        <time>2015-06-07T14:18:07Z</time>
      </trkpt>
      <trkpt lat="40.160567" lon="-5.332533">
        <ele>970.0</ele>
        <time>2015-06-07T14:18:09Z</time>
      </trkpt>
      <trkpt lat="40.160417" lon="-5.332567">
        <ele>962.0</ele>
        <time>2015-06-07T14:18:11Z</time>
      </trkpt>
      <trkpt lat="40.160283" lon="-5.332567">
        <ele>956.0</ele>
        <time>2015-06-07T14:18:13Z</time>
      </trkpt>
      <trkpt lat="40.160167" lon="-5.332517">
        <ele>949.0</ele>
        <time>2015-06-07T14:18:15Z</time>
      </trkpt>
      <trkpt lat="40.160017" lon="-5.332500">
        <ele>940.0</ele>
        <time>2015-06-07T14:18:17Z</time>
      </trkpt>
      <trkpt lat="40.159883" lon="-5.332517">
        <ele>935.0</ele>
        <time>2015-06-07T14:18:19Z</time>
      </trkpt>
      <trkpt lat="40.159783" lon="-5.332600">
        <ele>930.0</ele>
        <time>2015-06-07T14:18:21Z</time>
      </trkpt>
      <trkpt lat="40.159700" lon="-5.332750">
        <ele>922.0</ele>
        <time>2015-06-07T14:18:23Z</time>
      </trkpt>
      <trkpt lat="40.159617" lon="-5.332933">
        <ele>915.0</ele>
        <time>2015-06-07T14:18:25Z</time>
      </trkpt>
      <trkpt lat="40.159533" lon="-5.333100">
        <ele>909.0</ele>
        <time>2015-06-07T14:18:27Z</time>
      </trkpt>
      <trkpt lat="40.159467" lon="-5.333250">
        <ele>900.0</ele>
        <time>2015-06-07T14:18:29Z</time>
      </trkpt>
      <trkpt lat="40.159383" lon="-5.333433">
        <ele>893.0</ele>
        <time>2015-06-07T14:18:31Z</time>
      </trkpt>
      <trkpt lat="40.159283" lon="-5.333583">
        <ele>890.0</ele>
        <time>2015-06-07T14:18:33Z</time>
      </trkpt>
      <trkpt lat="40.159200" lon="-5.333683">
        <ele>887.0</ele>
        <time>2015-06-07T14:18:35Z</time>
      </trkpt>
      <trkpt lat="40.159100" lon="-5.333833">
        <ele>882.0</ele>
        <time>2015-06-07T14:18:37Z</time>
      </trkpt>
      <trkpt lat="40.159000" lon="-5.333967">
        <ele>877.0</ele>
        <time>2015-06-07T14:18:39Z</time>
      </trkpt>
      <trkpt lat="40.158900" lon="-5.334083">
        <ele>872.0</ele>
        <time>2015-06-07T14:18:41Z</time>
      </trkpt>
      <trkpt lat="40.158783" lon="-5.334200">
        <ele>867.0</ele>
        <time>2015-06-07T14:18:43Z</time>
      </trkpt>
      <trkpt lat="40.158667" lon="-5.334350">
        <ele>861.0</ele>
        <time>2015-06-07T14:18:45Z</time>
      </trkpt>
      <trkpt lat="40.158583" lon="-5.334483">
        <ele>859.0</ele>
        <time>2015-06-07T14:18:47Z</time>
      </trkpt>
      <trkpt lat="40.158483" lon="-5.334600">
        <ele>856.0</ele>
        <time>2015-06-07T14:18:49Z</time>
      </trkpt>
      <trkpt lat="40.158367" lon="-5.334750">
        <ele>851.0</ele>
        <time>2015-06-07T14:18:51Z</time>
      </trkpt>
      <trkpt lat="40.158300" lon="-5.334933">
        <ele>849.0</ele>
        <time>2015-06-07T14:18:53Z</time>
      </trkpt>
      <trkpt lat="40.158250" lon="-5.335100">
        <ele>846.0</ele>
        <time>2015-06-07T14:18:55Z</time>
      </trkpt>
      <trkpt lat="40.158200" lon="-5.335317">
        <ele>841.0</ele>
        <time>2015-06-07T14:18:57Z</time>
      </trkpt>
      <trkpt lat="40.158133" lon="-5.335483">
        <ele>839.0</ele>
        <time>2015-06-07T14:18:59Z</time>
      </trkpt>
      <trkpt lat="40.158083" lon="-5.335650">
        <ele>838.0</ele>
        <time>2015-06-07T14:19:01Z</time>
      </trkpt>
      <trkpt lat="40.158033" lon="-5.335833">
        <ele>835.0</ele>
        <time>2015-06-07T14:19:03Z</time>
      </trkpt>
      <trkpt lat="40.157983" lon="-5.336033">
        <ele>833.0</ele>
        <time>2015-06-07T14:19:05Z</time>
      </trkpt>
      <trkpt lat="40.157950" lon="-5.336200">
        <ele>832.0</ele>
        <time>2015-06-07T14:19:07Z</time>
      </trkpt>
      <trkpt lat="40.157900" lon="-5.336367">
        <ele>830.0</ele>
        <time>2015-06-07T14:19:09Z</time>
      </trkpt>
      <trkpt lat="40.157850" lon="-5.336583">
        <ele>827.0</ele>
        <time>2015-06-07T14:19:11Z</time>
      </trkpt>
      <trkpt lat="40.157800" lon="-5.336750">
        <ele>828.0</ele>
        <time>2015-06-07T14:19:13Z</time>
      </trkpt>
      <trkpt lat="40.157767" lon="-5.336917">
        <ele>827.0</ele>
        <time>2015-06-07T14:19:15Z</time>
      </trkpt>
      <trkpt lat="40.157733" lon="-5.337117">
        <ele>824.0</ele>
        <time>2015-06-07T14:19:17Z</time>
      </trkpt>
      <trkpt lat="40.157683" lon="-5.337317">
        <ele>821.0</ele>
        <time>2015-06-07T14:19:19Z</time>
      </trkpt>
      <trkpt lat="40.157633" lon="-5.337533">
        <ele>819.0</ele>
        <time>2015-06-07T14:19:21Z</time>
      </trkpt>
      <trkpt lat="40.157567" lon="-5.337717">
        <ele>817.0</ele>
        <time>2015-06-07T14:19:23Z</time>
      </trkpt>
      <trkpt lat="40.157517" lon="-5.337917">
        <ele>815.0</ele>
        <time>2015-06-07T14:19:25Z</time>
      </trkpt>
      <trkpt lat="40.157467" lon="-5.338100">
        <ele>814.0</ele>
        <time>2015-06-07T14:19:27Z</time>
      </trkpt>
      <trkpt lat="40.157417" lon="-5.338283">
        <ele>813.0</ele>
        <time>2015-06-07T14:19:29Z</time>
      </trkpt>
      <trkpt lat="40.157383" lon="-5.338450">
        <ele>813.0</ele>
        <time>2015-06-07T14:19:31Z</time>
      </trkpt>
      <trkpt lat="40.157400" lon="-5.338633">
        <ele>813.0</ele>
        <time>2015-06-07T14:19:33Z</time>
      </trkpt>
      <trkpt lat="40.157450" lon="-5.338867">
        <ele>811.0</ele>
        <time>2015-06-07T14:19:35Z</time>
      </trkpt>
      <trkpt lat="40.157517" lon="-5.339117">
        <ele>811.0</ele>
        <time>2015-06-07T14:19:37Z</time>
      </trkpt>
      <trkpt lat="40.157567" lon="-5.339350">
        <ele>811.0</ele>
        <time>2015-06-07T14:19:39Z</time>
      </trkpt>
      <trkpt lat="40.157600" lon="-5.339583">
        <ele>811.0</ele>
        <time>2015-06-07T14:19:41Z</time>
      </trkpt>
      <trkpt lat="40.157600" lon="-5.339783">
        <ele>812.0</ele>
        <time>2015-06-07T14:19:43Z</time>
      </trkpt>
      <trkpt lat="40.157567" lon="-5.339967">
        <ele>812.0</ele>
        <time>2015-06-07T14:19:45Z</time>
      </trkpt>
      <trkpt lat="40.157483" lon="-5.340117">
        <ele>812.0</ele>
        <time>2015-06-07T14:19:47Z</time>
      </trkpt>
      <trkpt lat="40.157383" lon="-5.340217">
        <ele>814.0</ele>
        <time>2015-06-07T14:19:49Z</time>
      </trkpt>
      <trkpt lat="40.157283" lon="-5.340283">
        <ele>814.0</ele>
        <time>2015-06-07T14:19:51Z</time>
      </trkpt>
      <trkpt lat="40.157183" lon="-5.340267">
        <ele>815.0</ele>
        <time>2015-06-07T14:19:53Z</time>
      </trkpt>
      <trkpt lat="40.157117" lon="-5.340217">
        <ele>816.0</ele>
        <time>2015-06-07T14:19:55Z</time>
      </trkpt>
      <trkpt lat="40.157033" lon="-5.340133">
        <ele>817.0</ele>
        <time>2015-06-07T14:19:57Z</time>
      </trkpt>
      <trkpt lat="40.156983" lon="-5.340017">
        <ele>815.0</ele>
        <time>2015-06-07T14:19:59Z</time>
      </trkpt>
      <trkpt lat="40.156900" lon="-5.339850">
        <ele>811.0</ele>
        <time>2015-06-07T14:20:01Z</time>
      </trkpt>
      <trkpt lat="40.156817" lon="-5.339783">
        <ele>811.0</ele>
        <time>2015-06-07T14:20:03Z</time>
      </trkpt>
      <trkpt lat="40.156733" lon="-5.339783">
        <ele>812.0</ele>
        <time>2015-06-07T14:20:05Z</time>
      </trkpt>
      <trkpt lat="40.156633" lon="-5.339867">
        <ele>811.0</ele>
        <time>2015-06-07T14:20:07Z</time>
      </trkpt>
      <trkpt lat="40.156533" lon="-5.340033">
        <ele>809.0</ele>
        <time>2015-06-07T14:20:09Z</time>
      </trkpt>
      <trkpt lat="40.156483" lon="-5.340217">
        <ele>809.0</ele>
        <time>2015-06-07T14:20:11Z</time>
      </trkpt>
      <trkpt lat="40.156450" lon="-5.340417">
        <ele>809.0</ele>
        <time>2015-06-07T14:20:13Z</time>
      </trkpt>
      <trkpt lat="40.156483" lon="-5.340667">
        <ele>806.0</ele>
        <time>2015-06-07T14:20:15Z</time>
      </trkpt>
      <trkpt lat="40.156550" lon="-5.340883">
        <ele>807.0</ele>
        <time>2015-06-07T14:20:17Z</time>
      </trkpt>
      <trkpt lat="40.156633" lon="-5.341100">
        <ele>808.0</ele>
        <time>2015-06-07T14:20:19Z</time>
      </trkpt>
      <trkpt lat="40.156767" lon="-5.341300">
        <ele>808.0</ele>
        <time>2015-06-07T14:20:21Z</time>
      </trkpt>
      <trkpt lat="40.156950" lon="-5.341483">
        <ele>808.0</ele>
        <time>2015-06-07T14:20:23Z</time>
      </trkpt>
      <trkpt lat="40.157133" lon="-5.341633">
        <ele>810.0</ele>
        <time>2015-06-07T14:20:25Z</time>
      </trkpt>
      <trkpt lat="40.157350" lon="-5.341700">
        <ele>813.0</ele>
        <time>2015-06-07T14:20:27Z</time>
      </trkpt>
      <trkpt lat="40.157533" lon="-5.341667">
        <ele>817.0</ele>
        <time>2015-06-07T14:20:29Z</time>
      </trkpt>
      <trkpt lat="40.157700" lon="-5.341517">
        <ele>819.0</ele>
        <time>2015-06-07T14:20:31Z</time>
      </trkpt>
      <trkpt lat="40.157750" lon="-5.341300">
        <ele>821.0</ele>
        <time>2015-06-07T14:20:33Z</time>
      </trkpt>
      <trkpt lat="40.157733" lon="-5.341133">
        <ele>826.0</ele>
        <time>2015-06-07T14:20:35Z</time>
      </trkpt>
      <trkpt lat="40.157667" lon="-5.341033">
        <ele>830.0</ele>
        <time>2015-06-07T14:20:37Z</time>
      </trkpt>
      <trkpt lat="40.157533" lon="-5.340983">
        <ele>831.0</ele>
        <time>2015-06-07T14:20:39Z</time>
      </trkpt>
      <trkpt lat="40.157400" lon="-5.341033">
        <ele>834.0</ele>
        <time>2015-06-07T14:20:41Z</time>
      </trkpt>
      <trkpt lat="40.157317" lon="-5.341150">
        <ele>840.0</ele>
        <time>2015-06-07T14:20:43Z</time>
      </trkpt>
      <trkpt lat="40.157267" lon="-5.341333">
        <ele>842.0</ele>
        <time>2015-06-07T14:20:45Z</time>
      </trkpt>
      <trkpt lat="40.157267" lon="-5.341583">
        <ele>842.0</ele>
        <time>2015-06-07T14:20:47Z</time>
      </trkpt>
      <trkpt lat="40.157367" lon="-5.341817">
        <ele>843.0</ele>
        <time>2015-06-07T14:20:49Z</time>
      </trkpt>
      <trkpt lat="40.157500" lon="-5.342000">
        <ele>847.0</ele>
        <time>2015-06-07T14:20:51Z</time>
      </trkpt>
      <trkpt lat="40.157650" lon="-5.342150">
        <ele>849.0</ele>
        <time>2015-06-07T14:20:53Z</time>
      </trkpt>
      <trkpt lat="40.157867" lon="-5.342233">
        <ele>849.0</ele>
        <time>2015-06-07T14:20:55Z</time>
      </trkpt>
      <trkpt lat="40.158050" lon="-5.342200">
        <ele>854.0</ele>
        <time>2015-06-07T14:20:57Z</time>
      </trkpt>
      <trkpt lat="40.158200" lon="-5.342117">
        <ele>856.0</ele>
        <time>2015-06-07T14:20:59Z</time>
      </trkpt>
      <trkpt lat="40.158350" lon="-5.341950">
        <ele>855.0</ele>
        <time>2015-06-07T14:21:01Z</time>
      </trkpt>
      <trkpt lat="40.158400" lon="-5.341750">
        <ele>857.0</ele>
        <time>2015-06-07T14:21:03Z</time>
      </trkpt>
      <trkpt lat="40.158350" lon="-5.341567">
        <ele>860.0</ele>
        <time>2015-06-07T14:21:05Z</time>
      </trkpt>
      <trkpt lat="40.158250" lon="-5.341483">
        <ele>865.0</ele>
        <time>2015-06-07T14:21:07Z</time>
      </trkpt>
      <trkpt lat="40.158133" lon="-5.341517">
        <ele>869.0</ele>
        <time>2015-06-07T14:21:09Z</time>
      </trkpt>
      <trkpt lat="40.158017" lon="-5.341633">
        <ele>871.0</ele>
        <time>2015-06-07T14:21:11Z</time>
      </trkpt>
      <trkpt lat="40.157983" lon="-5.341850">
        <ele>873.0</ele>
        <time>2015-06-07T14:21:13Z</time>
      </trkpt>
      <trkpt lat="40.158067" lon="-5.342083">
        <ele>875.0</ele>
        <time>2015-06-07T14:21:15Z</time>
      </trkpt>
      <trkpt lat="40.158200" lon="-5.342250">
        <ele>879.0</ele>
        <time>2015-06-07T14:21:17Z</time>
      </trkpt>
      <trkpt lat="40.158367" lon="-5.342350">
        <ele>883.0</ele>
        <time>2015-06-07T14:21:19Z</time>
      </trkpt>
      <trkpt lat="40.158550" lon="-5.342333">
        <ele>884.0</ele>
        <time>2015-06-07T14:21:21Z</time>
      </trkpt>
      <trkpt lat="40.158733" lon="-5.342200">
        <ele>886.0</ele>
        <time>2015-06-07T14:21:23Z</time>
      </trkpt>
      <trkpt lat="40.158800" lon="-5.342000">
        <ele>888.0</ele>
        <time>2015-06-07T14:21:25Z</time>
      </trkpt>
      <trkpt lat="40.158783" lon="-5.341800">
        <ele>890.0</ele>
        <time>2015-06-07T14:21:27Z</time>
      </trkpt>
      <trkpt lat="40.158683" lon="-5.341650">
        <ele>893.0</ele>
        <time>2015-06-07T14:21:29Z</time>
      </trkpt>
      <trkpt lat="40.158550" lon="-5.341583">
        <ele>897.0</ele>
        <time>2015-06-07T14:21:31Z</time>
      </trkpt>
      <trkpt lat="40.158450" lon="-5.341583">
        <ele>902.0</ele>
        <time>2015-06-07T14:21:33Z</time>
      </trkpt>
      <trkpt lat="40.158317" lon="-5.341667">
        <ele>904.0</ele>
        <time>2015-06-07T14:21:35Z</time>
      </trkpt>
      <trkpt lat="40.158250" lon="-5.341867">
        <ele>906.0</ele>
        <time>2015-06-07T14:21:37Z</time>
      </trkpt>
      <trkpt lat="40.158267" lon="-5.342083">
        <ele>909.0</ele>
        <time>2015-06-07T14:21:39Z</time>
      </trkpt>
      <trkpt lat="40.158367" lon="-5.342300">
        <ele>910.0</ele>
        <time>2015-06-07T14:21:41Z</time>
      </trkpt>
      <trkpt lat="40.158533" lon="-5.342417">
        <ele>912.0</ele>
        <time>2015-06-07T14:21:43Z</time>
      </trkpt>
      <trkpt lat="40.158683" lon="-5.342400">
        <ele>916.0</ele>
        <time>2015-06-07T14:21:45Z</time>
      </trkpt>
      <trkpt lat="40.158817" lon="-5.342267">
        <ele>919.0</ele>
        <time>2015-06-07T14:21:47Z</time>
      </trkpt>
      <trkpt lat="40.158900" lon="-5.342050">
        <ele>921.0</ele>
        <time>2015-06-07T14:21:49Z</time>
      </trkpt>
      <trkpt lat="40.158850" lon="-5.341833">
        <ele>924.0</ele>
        <time>2015-06-07T14:21:51Z</time>
      </trkpt>
      <trkpt lat="40.158733" lon="-5.341717">
        <ele>927.0</ele>
        <time>2015-06-07T14:21:53Z</time>
      </trkpt>
      <trkpt lat="40.158600" lon="-5.341683">
        <ele>931.0</ele>
        <time>2015-06-07T14:21:55Z</time>
      </trkpt>
      <trkpt lat="40.158483" lon="-5.341750">
        <ele>933.0</ele>
        <time>2015-06-07T14:21:57Z</time>
      </trkpt>
      <trkpt lat="40.158383" lon="-5.341917">
        <ele>934.0</ele>
        <time>2015-06-07T14:21:59Z</time>
      </trkpt>
      <trkpt lat="40.158350" lon="-5.342133">
        <ele>935.0</ele>
        <time>2015-06-07T14:22:01Z</time>
      </trkpt>
      <trkpt lat="40.158400" lon="-5.342350">
        <ele>937.0</ele>
        <time>2015-06-07T14:22:03Z</time>
      </trkpt>
      <trkpt lat="40.158550" lon="-5.342533">
        <ele>937.0</ele>
        <time>2015-06-07T14:22:05Z</time>
      </trkpt>
      <trkpt lat="40.158750" lon="-5.342567">
        <ele>940.0</ele>
        <time>2015-06-07T14:22:07Z</time>
      </trkpt>
      <trkpt lat="40.158900" lon="-5.342483">
        <ele>945.0</ele>
        <time>2015-06-07T14:22:09Z</time>
      </trkpt>
      <trkpt lat="40.159050" lon="-5.342350">
        <ele>949.0</ele>
        <time>2015-06-07T14:22:11Z</time>
      </trkpt>
      <trkpt lat="40.159133" lon="-5.342150">
        <ele>955.0</ele>
        <time>2015-06-07T14:22:13Z</time>
      </trkpt>
      <trkpt lat="40.159133" lon="-5.341967">
        <ele>960.0</ele>
        <time>2015-06-07T14:22:15Z</time>
      </trkpt>
      <trkpt lat="40.159067" lon="-5.341817">
        <ele>963.0</ele>
        <time>2015-06-07T14:22:17Z</time>
      </trkpt>
      <trkpt lat="40.158950" lon="-5.341733">
        <ele>965.0</ele>
        <time>2015-06-07T14:22:19Z</time>
      </trkpt>
      <trkpt lat="40.158817" lon="-5.341783">
        <ele>966.0</ele>
        <time>2015-06-07T14:22:21Z</time>
      </trkpt>
      <trkpt lat="40.158717" lon="-5.341933">
        <ele>966.0</ele>
        <time>2015-06-07T14:22:23Z</time>
      </trkpt>
      <trkpt lat="40.158683" lon="-5.342167">
        <ele>966.0</ele>
        <time>2015-06-07T14:22:25Z</time>
      </trkpt>
      <trkpt lat="40.158750" lon="-5.342417">
        <ele>968.0</ele>
        <time>2015-06-07T14:22:27Z</time>
      </trkpt>
      <trkpt lat="40.158867" lon="-5.342600">
        <ele>974.0</ele>
        <time>2015-06-07T14:22:29Z</time>
      </trkpt>
      <trkpt lat="40.159000" lon="-5.342683">
        <ele>980.0</ele>
        <time>2015-06-07T14:22:31Z</time>
      </trkpt>
      <trkpt lat="40.159200" lon="-5.342700">
        <ele>983.0</ele>
        <time>2015-06-07T14:22:33Z</time>
      </trkpt>
      <trkpt lat="40.159400" lon="-5.342550">
        <ele>986.0</ele>
        <time>2015-06-07T14:22:35Z</time>
      </trkpt>
      <trkpt lat="40.159517" lon="-5.342350">
        <ele>992.0</ele>
        <time>2015-06-07T14:22:37Z</time>
      </trkpt>
      <trkpt lat="40.159567" lon="-5.342150">
        <ele>998.0</ele>
        <time>2015-06-07T14:22:39Z</time>
      </trkpt>
      <trkpt lat="40.159500" lon="-5.341950">
        <ele>1001.0</ele>
        <time>2015-06-07T14:22:41Z</time>
      </trkpt>
      <trkpt lat="40.159367" lon="-5.341833">
        <ele>1006.0</ele>
        <time>2015-06-07T14:22:43Z</time>
      </trkpt>
      <trkpt lat="40.159250" lon="-5.341850">
        <ele>1012.0</ele>
        <time>2015-06-07T14:22:45Z</time>
      </trkpt>
      <trkpt lat="40.159150" lon="-5.342017">
        <ele>1013.0</ele>
        <time>2015-06-07T14:22:47Z</time>
      </trkpt>
      <trkpt lat="40.159133" lon="-5.342267">
        <ele>1014.0</ele>
        <time>2015-06-07T14:22:49Z</time>
      </trkpt>
      <trkpt lat="40.159267" lon="-5.342467">
        <ele>1019.0</ele>
        <time>2015-06-07T14:22:51Z</time>
      </trkpt>
      <trkpt lat="40.159450" lon="-5.342500">
        <ele>1025.0</ele>
        <time>2015-06-07T14:22:53Z</time>
      </trkpt>
      <trkpt lat="40.159617" lon="-5.342467">
        <ele>1030.0</ele>
        <time>2015-06-07T14:22:55Z</time>
      </trkpt>
      <trkpt lat="40.159800" lon="-5.342300">
        <ele>1033.0</ele>
        <time>2015-06-07T14:22:57Z</time>
      </trkpt>
      <trkpt lat="40.159867" lon="-5.342050">
        <ele>1039.0</ele>
        <time>2015-06-07T14:22:59Z</time>
      </trkpt>
      <trkpt lat="40.159850" lon="-5.341850">
        <ele>1047.0</ele>
        <time>2015-06-07T14:23:01Z</time>
      </trkpt>
      <trkpt lat="40.159783" lon="-5.341683">
        <ele>1054.0</ele>
        <time>2015-06-07T14:23:03Z</time>
      </trkpt>
      <trkpt lat="40.159650" lon="-5.341600">
        <ele>1056.0</ele>
        <time>2015-06-07T14:23:05Z</time>
      </trkpt>
      <trkpt lat="40.159517" lon="-5.341683">
        <ele>1058.0</ele>
        <time>2015-06-07T14:23:07Z</time>
      </trkpt>
      <trkpt lat="40.159467" lon="-5.341900">
        <ele>1058.0</ele>
        <time>2015-06-07T14:23:09Z</time>
      </trkpt>
      <trkpt lat="40.159500" lon="-5.342117">
        <ele>1062.0</ele>
        <time>2015-06-07T14:23:11Z</time>
      </trkpt>
      <trkpt lat="40.159600" lon="-5.342267">
        <ele>1068.0</ele>
        <time>2015-06-07T14:23:13Z</time>
      </trkpt>
      <trkpt lat="40.159750" lon="-5.342350">
        <ele>1071.0</ele>
        <time>2015-06-07T14:23:15Z</time>
      </trkpt>
      <trkpt lat="40.159933" lon="-5.342350">
        <ele>1075.0</ele>
        <time>2015-06-07T14:23:17Z</time>
      </trkpt>
      <trkpt lat="40.160100" lon="-5.342217">
        <ele>1080.0</ele>
        <time>2015-06-07T14:23:19Z</time>
      </trkpt>
      <trkpt lat="40.160233" lon="-5.342000">
        <ele>1083.0</ele>
        <time>2015-06-07T14:23:21Z</time>
      </trkpt>
      <trkpt lat="40.160333" lon="-5.341767">
        <ele>1089.0</ele>
        <time>2015-06-07T14:23:23Z</time>
      </trkpt>
      <trkpt lat="40.160333" lon="-5.341517">
        <ele>1094.0</ele>
        <time>2015-06-07T14:23:25Z</time>
      </trkpt>
      <trkpt lat="40.160250" lon="-5.341333">
        <ele>1100.0</ele>
        <time>2015-06-07T14:23:27Z</time>
      </trkpt>
      <trkpt lat="40.160133" lon="-5.341283">
        <ele>1105.0</ele>
        <time>2015-06-07T14:23:29Z</time>
      </trkpt>
      <trkpt lat="40.160017" lon="-5.341333">
        <ele>1109.0</ele>
        <time>2015-06-07T14:23:31Z</time>
      </trkpt>
      <trkpt lat="40.159967" lon="-5.341483">
        <ele>1112.0</ele>
        <time>2015-06-07T14:23:33Z</time>
      </trkpt>
      <trkpt lat="40.159950" lon="-5.341717">
        <ele>1112.0</ele>
        <time>2015-06-07T14:23:35Z</time>
      </trkpt>
      <trkpt lat="40.160000" lon="-5.341950">
        <ele>1117.0</ele>
        <time>2015-06-07T14:23:37Z</time>
      </trkpt>
      <trkpt lat="40.160100" lon="-5.342083">
        <ele>1124.0</ele>
        <time>2015-06-07T14:23:39Z</time>
      </trkpt>
      <trkpt lat="40.160250" lon="-5.342117">
        <ele>1129.0</ele>
        <time>2015-06-07T14:23:41Z</time>
      </trkpt>
      <trkpt lat="40.160417" lon="-5.342033">
        <ele>1132.0</ele>
        <time>2015-06-07T14:23:43Z</time>
      </trkpt>
      <trkpt lat="40.160533" lon="-5.341833">
        <ele>1136.0</ele>
        <time>2015-06-07T14:23:45Z</time>
      </trkpt>
      <trkpt lat="40.160583" lon="-5.341567">
        <ele>1140.0</ele>
        <time>2015-06-07T14:23:47Z</time>
      </trkpt>
      <trkpt lat="40.160550" lon="-5.341333">
        <ele>1148.0</ele>
        <time>2015-06-07T14:23:49Z</time>
      </trkpt>
      <trkpt lat="40.160433" lon="-5.341183">
        <ele>1153.0</ele>
        <time>2015-06-07T14:23:51Z</time>
      </trkpt>
      <trkpt lat="40.160283" lon="-5.341117">
        <ele>1156.0</ele>
        <time>2015-06-07T14:23:53Z</time>
      </trkpt>
      <trkpt lat="40.160150" lon="-5.341167">
        <ele>1159.0</ele>
        <time>2015-06-07T14:23:55Z</time>
      </trkpt>
      <trkpt lat="40.160050" lon="-5.341317">
        <ele>1161.0</ele>
        <time>2015-06-07T14:23:57Z</time>
      </trkpt>
      <trkpt lat="40.160000" lon="-5.341500">
        <ele>1162.0</ele>
        <time>2015-06-07T14:23:59Z</time>
      </trkpt>
      <trkpt lat="40.160033" lon="-5.341667">
        <ele>1168.0</ele>
        <time>2015-06-07T14:24:01Z</time>
      </trkpt>
      <trkpt lat="40.160133" lon="-5.341800">
        <ele>1170.0</ele>
        <time>2015-06-07T14:24:03Z</time>
      </trkpt>
      <trkpt lat="40.160300" lon="-5.341867">
        <ele>1173.0</ele>
        <time>2015-06-07T14:24:05Z</time>
      </trkpt>
      <trkpt lat="40.160517" lon="-5.341850">
        <ele>1179.0</ele>
        <time>2015-06-07T14:24:07Z</time>
      </trkpt>
      <trkpt lat="40.160683" lon="-5.341800">
        <ele>1190.0</ele>
        <time>2015-06-07T14:24:09Z</time>
      </trkpt>
      <trkpt lat="40.160800" lon="-5.341700">
        <ele>1194.0</ele>
        <time>2015-06-07T14:24:11Z</time>
      </trkpt>
      <trkpt lat="40.160900" lon="-5.341483">
        <ele>1194.0</ele>
        <time>2015-06-07T14:24:13Z</time>
      </trkpt>
      <trkpt lat="40.160917" lon="-5.341183">
        <ele>1195.0</ele>
        <time>2015-06-07T14:24:15Z</time>
      </trkpt>
      <trkpt lat="40.160833" lon="-5.340950">
        <ele>1201.0</ele>
        <time>2015-06-07T14:24:17Z</time>
      </trkpt>
      <trkpt lat="40.160767" lon="-5.340800">
        <ele>1211.0</ele>
        <time>2015-06-07T14:24:19Z</time>
      </trkpt>
      <trkpt lat="40.160650" lon="-5.340700">
        <ele>1215.0</ele>
        <time>2015-06-07T14:24:21Z</time>
      </trkpt>
      <trkpt lat="40.160467" lon="-5.340650">
        <ele>1216.0</ele>
        <time>2015-06-07T14:24:23Z</time>
      </trkpt>
      <trkpt lat="40.160333" lon="-5.340717">
        <ele>1219.0</ele>
        <time>2015-06-07T14:24:25Z</time>
      </trkpt>
      <trkpt lat="40.160267" lon="-5.340833">
        <ele>1221.0</ele>
        <time>2015-06-07T14:24:27Z</time>
      </trkpt>
      <trkpt lat="40.160233" lon="-5.341050">
        <ele>1219.0</ele>
        <time>2015-06-07T14:24:29Z</time>
      </trkpt>
      <trkpt lat="40.160283" lon="-5.341267">
        <ele>1224.0</ele>
        <time>2015-06-07T14:24:31Z</time>
      </trkpt>
      <trkpt lat="40.160333" lon="-5.341383">
        <ele>1233.0</ele>
        <time>2015-06-07T14:24:33Z</time>
      </trkpt>
      <trkpt lat="40.160417" lon="-5.341483">
        <ele>1240.0</ele>
        <time>2015-06-07T14:24:35Z</time>
      </trkpt>
      <trkpt lat="40.160600" lon="-5.341483">
        <ele>1244.0</ele>
        <time>2015-06-07T14:24:37Z</time>
      </trkpt>
      <trkpt lat="40.160750" lon="-5.341317">
        <ele>1248.0</ele>
        <time>2015-06-07T14:24:39Z</time>
      </trkpt>
      <trkpt lat="40.160817" lon="-5.341067">
        <ele>1253.0</ele>
        <time>2015-06-07T14:24:41Z</time>
      </trkpt>
      <trkpt lat="40.160783" lon="-5.340800">
        <ele>1257.0</ele>
        <time>2015-06-07T14:24:43Z</time>
      </trkpt>
      <trkpt lat="40.160667" lon="-5.340567">
        <ele>1259.0</ele>
        <time>2015-06-07T14:24:45Z</time>
      </trkpt>
      <trkpt lat="40.160483" lon="-5.340450">
        <ele>1263.0</ele>
        <time>2015-06-07T14:24:47Z</time>
      </trkpt>
      <trkpt lat="40.160333" lon="-5.340433">
        <ele>1268.0</ele>
        <time>2015-06-07T14:24:49Z</time>
      </trkpt>
      <trkpt lat="40.160200" lon="-5.340517">
        <ele>1270.0</ele>
        <time>2015-06-07T14:24:51Z</time>
      </trkpt>
      <trkpt lat="40.160100" lon="-5.340700">
        <ele>1267.0</ele>
        <time>2015-06-07T14:24:53Z</time>
      </trkpt>
      <trkpt lat="40.160083" lon="-5.340950">
        <ele>1266.0</ele>
        <time>2015-06-07T14:24:55Z</time>
      </trkpt>
      <trkpt lat="40.160200" lon="-5.341183">
        <ele>1266.0</ele>
        <time>2015-06-07T14:24:57Z</time>
      </trkpt>
      <trkpt lat="40.160317" lon="-5.341333">
        <ele>1271.0</ele>
        <time>2015-06-07T14:24:59Z</time>
      </trkpt>
      <trkpt lat="40.160467" lon="-5.341417">
        <ele>1274.0</ele>
        <time>2015-06-07T14:25:01Z</time>
      </trkpt>
      <trkpt lat="40.160667" lon="-5.341400">
        <ele>1277.0</ele>
        <time>2015-06-07T14:25:03Z</time>
      </trkpt>
      <trkpt lat="40.160833" lon="-5.341233">
        <ele>1279.0</ele>
        <time>2015-06-07T14:25:05Z</time>
      </trkpt>
      <trkpt lat="40.160900" lon="-5.340967">
        <ele>1282.0</ele>
        <time>2015-06-07T14:25:07Z</time>
      </trkpt>
      <trkpt lat="40.160867" lon="-5.340700">
        <ele>1287.0</ele>
        <time>2015-06-07T14:25:09Z</time>
      </trkpt>
      <trkpt lat="40.160750" lon="-5.340467">
        <ele>1289.0</ele>
        <time>2015-06-07T14:25:11Z</time>
      </trkpt>
      <trkpt lat="40.160567" lon="-5.340317">
        <ele>1291.0</ele>
        <time>2015-06-07T14:25:13Z</time>
      </trkpt>
      <trkpt lat="40.160383" lon="-5.340300">
        <ele>1294.0</ele>
        <time>2015-06-07T14:25:15Z</time>
      </trkpt>
      <trkpt lat="40.160250" lon="-5.340383">
        <ele>1298.0</ele>
        <time>2015-06-07T14:25:17Z</time>
      </trkpt>
      <trkpt lat="40.160183" lon="-5.340550">
        <ele>1297.0</ele>
        <time>2015-06-07T14:25:19Z</time>
      </trkpt>
      <trkpt lat="40.160233" lon="-5.340783">
        <ele>1293.0</ele>
        <time>2015-06-07T14:25:21Z</time>
      </trkpt>
      <trkpt lat="40.160417" lon="-5.340933">
        <ele>1289.0</ele>
        <time>2015-06-07T14:25:23Z</time>
      </trkpt>
      <trkpt lat="40.160633" lon="-5.340917">
        <ele>1291.0</ele>
        <time>2015-06-07T14:25:25Z</time>
      </trkpt>
      <trkpt lat="40.160783" lon="-5.340800">
        <ele>1293.0</ele>
        <time>2015-06-07T14:25:27Z</time>
      </trkpt>
      <trkpt lat="40.160950" lon="-5.340583">
        <ele>1291.0</ele>
        <time>2015-06-07T14:25:29Z</time>
      </trkpt>
      <trkpt lat="40.161067" lon="-5.340317">
        <ele>1295.0</ele>
        <time>2015-06-07T14:25:31Z</time>
      </trkpt>
      <trkpt lat="40.161133" lon="-5.340083">
        <ele>1300.0</ele>
        <time>2015-06-07T14:25:33Z</time>
      </trkpt>
      <trkpt lat="40.161150" lon="-5.339817">
        <ele>1299.0</ele>
        <time>2015-06-07T14:25:35Z</time>
      </trkpt>
      <trkpt lat="40.161083" lon="-5.339483">
        <ele>1297.0</ele>
        <time>2015-06-07T14:25:37Z</time>
      </trkpt>
      <trkpt lat="40.160983" lon="-5.339233">
        <ele>1299.0</ele>
        <time>2015-06-07T14:25:39Z</time>
      </trkpt>
      <trkpt lat="40.160833" lon="-5.339083">
        <ele>1301.0</ele>
        <time>2015-06-07T14:25:41Z</time>
      </trkpt>
      <trkpt lat="40.160667" lon="-5.339017">
        <ele>1300.0</ele>
        <time>2015-06-07T14:25:43Z</time>
      </trkpt>
      <trkpt lat="40.160517" lon="-5.339050">
        <ele>1297.0</ele>
        <time>2015-06-07T14:25:45Z</time>
      </trkpt>
      <trkpt lat="40.160417" lon="-5.339217">
        <ele>1293.0</ele>
        <time>2015-06-07T14:25:47Z</time>
      </trkpt>
      <trkpt lat="40.160433" lon="-5.339417">
        <ele>1286.0</ele>
        <time>2015-06-07T14:25:49Z</time>
      </trkpt>
      <trkpt lat="40.160517" lon="-5.339600">
        <ele>1281.0</ele>
        <time>2015-06-07T14:25:51Z</time>
      </trkpt>
      <trkpt lat="40.160617" lon="-5.339750">
        <ele>1280.0</ele>
        <time>2015-06-07T14:25:53Z</time>
      </trkpt>
      <trkpt lat="40.160733" lon="-5.339833">
        <ele>1280.0</ele>
        <time>2015-06-07T14:25:55Z</time>
      </trkpt>
      <trkpt lat="40.160850" lon="-5.339850">
        <ele>1280.0</ele>
        <time>2015-06-07T14:25:57Z</time>
      </trkpt>
      <trkpt lat="40.160983" lon="-5.339850">
        <ele>1276.0</ele>
        <time>2015-06-07T14:25:59Z</time>
      </trkpt>
      <trkpt lat="40.161150" lon="-5.339867">
        <ele>1271.0</ele>
        <time>2015-06-07T14:26:01Z</time>
      </trkpt>
      <trkpt lat="40.161300" lon="-5.339867">
        <ele>1270.0</ele>
        <time>2015-06-07T14:26:03Z</time>
      </trkpt>
      <trkpt lat="40.161433" lon="-5.339767">
        <ele>1270.0</ele>
        <time>2015-06-07T14:26:05Z</time>
      </trkpt>
      <trkpt lat="40.161583" lon="-5.339600">
        <ele>1270.0</ele>
        <time>2015-06-07T14:26:07Z</time>
      </trkpt>
      <trkpt lat="40.161733" lon="-5.339400">
        <ele>1270.0</ele>
        <time>2015-06-07T14:26:09Z</time>
      </trkpt>
      <trkpt lat="40.161883" lon="-5.339283">
        <ele>1273.0</ele>
        <time>2015-06-07T14:26:11Z</time>
      </trkpt>
      <trkpt lat="40.162050" lon="-5.339233">
        <ele>1273.0</ele>
        <time>2015-06-07T14:26:13Z</time>
      </trkpt>
      <trkpt lat="40.162233" lon="-5.339200">
        <ele>1272.0</ele>
        <time>2015-06-07T14:26:15Z</time>
      </trkpt>
      <trkpt lat="40.162417" lon="-5.339233">
        <ele>1273.0</ele>
        <time>2015-06-07T14:26:17Z</time>
      </trkpt>
      <trkpt lat="40.162550" lon="-5.339333">
        <ele>1272.0</ele>
        <time>2015-06-07T14:26:19Z</time>
      </trkpt>
      <trkpt lat="40.162683" lon="-5.339450">
        <ele>1273.0</ele>
        <time>2015-06-07T14:26:21Z</time>
      </trkpt>
      <trkpt lat="40.162800" lon="-5.339517">
        <ele>1277.0</ele>
        <time>2015-06-07T14:26:23Z</time>
      </trkpt>
      <trkpt lat="40.162950" lon="-5.339550">
        <ele>1279.0</ele>
        <time>2015-06-07T14:26:25Z</time>
      </trkpt>
      <trkpt lat="40.163100" lon="-5.339517">
        <ele>1284.0</ele>
        <time>2015-06-07T14:26:27Z</time>
      </trkpt>
      <trkpt lat="40.163233" lon="-5.339350">
        <ele>1288.0</ele>
        <time>2015-06-07T14:26:29Z</time>
      </trkpt>
      <trkpt lat="40.163283" lon="-5.339050">
        <ele>1291.0</ele>
        <time>2015-06-07T14:26:31Z</time>
      </trkpt>
      <trkpt lat="40.163200" lon="-5.338783">
        <ele>1296.0</ele>
        <time>2015-06-07T14:26:33Z</time>
      </trkpt>
      <trkpt lat="40.163050" lon="-5.338583">
        <ele>1300.0</ele>
        <time>2015-06-07T14:26:35Z</time>
      </trkpt>
      <trkpt lat="40.162883" lon="-5.338517">
        <ele>1302.0</ele>
        <time>2015-06-07T14:26:37Z</time>
      </trkpt>
      <trkpt lat="40.162717" lon="-5.338583">
        <ele>1303.0</ele>
        <time>2015-06-07T14:26:39Z</time>
      </trkpt>
      <trkpt lat="40.162633" lon="-5.338733">
        <ele>1304.0</ele>
        <time>2015-06-07T14:26:41Z</time>
      </trkpt>
      <trkpt lat="40.162633" lon="-5.338900">
        <ele>1304.0</ele>
        <time>2015-06-07T14:26:43Z</time>
      </trkpt>
      <trkpt lat="40.162700" lon="-5.339033">
        <ele>1305.0</ele>
        <time>2015-06-07T14:26:45Z</time>
      </trkpt>
      <trkpt lat="40.162800" lon="-5.339133">
        <ele>1307.0</ele>
        <time>2015-06-07T14:26:47Z</time>
      </trkpt>
      <trkpt lat="40.162900" lon="-5.339250">
        <ele>1309.0</ele>
        <time>2015-06-07T14:26:49Z</time>
      </trkpt>
      <trkpt lat="40.163017" lon="-5.339283">
        <ele>1312.0</ele>
        <time>2015-06-07T14:26:51Z</time>
      </trkpt>
      <trkpt lat="40.163150" lon="-5.339283">
        <ele>1315.0</ele>
        <time>2015-06-07T14:26:53Z</time>
      </trkpt>
      <trkpt lat="40.163267" lon="-5.339283">
        <ele>1322.0</ele>
        <time>2015-06-07T14:26:55Z</time>
      </trkpt>
      <trkpt lat="40.163317" lon="-5.339350">
        <ele>1327.0</ele>
        <time>2015-06-07T14:26:57Z</time>
      </trkpt>
      <trkpt lat="40.163317" lon="-5.339500">
        <ele>1328.0</ele>
        <time>2015-06-07T14:26:59Z</time>
      </trkpt>
      <trkpt lat="40.163233" lon="-5.339650">
        <ele>1330.0</ele>
        <time>2015-06-07T14:27:01Z</time>
      </trkpt>
      <trkpt lat="40.163167" lon="-5.339783">
        <ele>1334.0</ele>
        <time>2015-06-07T14:27:03Z</time>
      </trkpt>
      <trkpt lat="40.163217" lon="-5.339933">
        <ele>1335.0</ele>
        <time>2015-06-07T14:27:05Z</time>
      </trkpt>
      <trkpt lat="40.163350" lon="-5.339967">
        <ele>1339.0</ele>
        <time>2015-06-07T14:27:07Z</time>
      </trkpt>
      <trkpt lat="40.163467" lon="-5.339883">
        <ele>1345.0</ele>
        <time>2015-06-07T14:27:09Z</time>
      </trkpt>
      <trkpt lat="40.163550" lon="-5.339683">
        <ele>1348.0</ele>
        <time>2015-06-07T14:27:11Z</time>
      </trkpt>
      <trkpt lat="40.163617" lon="-5.339400">
        <ele>1350.0</ele>
        <time>2015-06-07T14:27:13Z</time>
      </trkpt>
      <trkpt lat="40.163567" lon="-5.339083">
        <ele>1352.0</ele>
        <time>2015-06-07T14:27:15Z</time>
      </trkpt>
      <trkpt lat="40.163433" lon="-5.338800">
        <ele>1353.0</ele>
        <time>2015-06-07T14:27:17Z</time>
      </trkpt>
      <trkpt lat="40.163267" lon="-5.338567">
        <ele>1356.0</ele>
        <time>2015-06-07T14:27:19Z</time>
      </trkpt>
      <trkpt lat="40.163067" lon="-5.338417">
        <ele>1359.0</ele>
        <time>2015-06-07T14:27:21Z</time>
      </trkpt>
      <trkpt lat="40.162867" lon="-5.338400">
        <ele>1361.0</ele>
        <time>2015-06-07T14:27:23Z</time>
      </trkpt>
      <trkpt lat="40.162717" lon="-5.338450">
        <ele>1363.0</ele>
        <time>2015-06-07T14:27:25Z</time>
      </trkpt>
      <trkpt lat="40.162600" lon="-5.338567">
        <ele>1363.0</ele>
        <time>2015-06-07T14:27:27Z</time>
      </trkpt>
      <trkpt lat="40.162533" lon="-5.338733">
        <ele>1364.0</ele>
        <time>2015-06-07T14:27:29Z</time>
      </trkpt>
      <trkpt lat="40.162567" lon="-5.338883">
        <ele>1365.0</ele>
        <time>2015-06-07T14:27:31Z</time>
      </trkpt>
      <trkpt lat="40.162667" lon="-5.339000">
        <ele>1365.0</ele>
        <time>2015-06-07T14:27:33Z</time>
      </trkpt>
      <trkpt lat="40.162767" lon="-5.339050">
        <ele>1368.0</ele>
        <time>2015-06-07T14:27:35Z</time>
      </trkpt>
      <trkpt lat="40.162867" lon="-5.339033">
        <ele>1370.0</ele>
        <time>2015-06-07T14:27:37Z</time>
      </trkpt>
      <trkpt lat="40.162967" lon="-5.338983">
        <ele>1372.0</ele>
        <time>2015-06-07T14:27:39Z</time>
      </trkpt>
      <trkpt lat="40.163083" lon="-5.338867">
        <ele>1373.0</ele>
        <time>2015-06-07T14:27:41Z</time>
      </trkpt>
      <trkpt lat="40.163167" lon="-5.338683">
        <ele>1374.0</ele>
        <time>2015-06-07T14:27:43Z</time>
      </trkpt>
      <trkpt lat="40.163217" lon="-5.338467">
        <ele>1375.0</ele>
        <time>2015-06-07T14:27:45Z</time>
      </trkpt>
      <trkpt lat="40.163217" lon="-5.338167">
        <ele>1375.0</ele>
        <time>2015-06-07T14:27:47Z</time>
      </trkpt>
      <trkpt lat="40.163133" lon="-5.337883">
        <ele>1376.0</ele>
        <time>2015-06-07T14:27:49Z</time>
      </trkpt>
      <trkpt lat="40.163033" lon="-5.337650">
        <ele>1378.0</ele>
        <time>2015-06-07T14:27:51Z</time>
      </trkpt>
      <trkpt lat="40.162900" lon="-5.337433">
        <ele>1378.0</ele>
        <time>2015-06-07T14:27:53Z</time>
      </trkpt>
      <trkpt lat="40.162733" lon="-5.337283">
        <ele>1376.0</ele>
        <time>2015-06-07T14:27:55Z</time>
      </trkpt>
      <trkpt lat="40.162550" lon="-5.337250">
        <ele>1374.0</ele>
        <time>2015-06-07T14:27:57Z</time>
      </trkpt>
      <trkpt lat="40.162400" lon="-5.337317">
        <ele>1372.0</ele>
        <time>2015-06-07T14:27:59Z</time>
      </trkpt>
      <trkpt lat="40.162283" lon="-5.337433">
        <ele>1369.0</ele>
        <time>2015-06-07T14:28:01Z</time>
      </trkpt>
      <trkpt lat="40.162250" lon="-5.337600">
        <ele>1368.0</ele>
        <time>2015-06-07T14:28:03Z</time>
      </trkpt>
      <trkpt lat="40.162283" lon="-5.337800">
        <ele>1364.0</ele>
        <time>2015-06-07T14:28:05Z</time>
      </trkpt>
      <trkpt lat="40.162300" lon="-5.338033">
        <ele>1360.0</ele>
        <time>2015-06-07T14:28:07Z</time>
      </trkpt>
      <trkpt lat="40.162350" lon="-5.338217">
        <ele>1360.0</ele>
        <time>2015-06-07T14:28:09Z</time>
      </trkpt>
      <trkpt lat="40.162467" lon="-5.338333">
        <ele>1360.0</ele>
        <time>2015-06-07T14:28:11Z</time>
      </trkpt>
      <trkpt lat="40.162600" lon="-5.338400">
        <ele>1359.0</ele>
        <time>2015-06-07T14:28:13Z</time>
      </trkpt>
      <trkpt lat="40.162750" lon="-5.338400">
        <ele>1358.0</ele>
        <time>2015-06-07T14:28:15Z</time>
      </trkpt>
      <trkpt lat="40.162917" lon="-5.338400">
        <ele>1356.0</ele>
        <time>2015-06-07T14:28:17Z</time>
      </trkpt>
      <trkpt lat="40.163067" lon="-5.338400">
        <ele>1357.0</ele>
        <time>2015-06-07T14:28:19Z</time>
      </trkpt>
      <trkpt lat="40.163200" lon="-5.338433">
        <ele>1358.0</ele>
        <time>2015-06-07T14:28:21Z</time>
      </trkpt>
      <trkpt lat="40.163317" lon="-5.338483">
        <ele>1356.0</ele>
        <time>2015-06-07T14:28:23Z</time>
      </trkpt>
      <trkpt lat="40.163450" lon="-5.338583">
        <ele>1356.0</ele>
        <time>2015-06-07T14:28:25Z</time>
      </trkpt>
      <trkpt lat="40.163550" lon="-5.338667">
        <ele>1357.0</ele>
        <time>2015-06-07T14:28:27Z</time>
      </trkpt>
      <trkpt lat="40.163650" lon="-5.338733">
        <ele>1358.0</ele>
        <time>2015-06-07T14:28:29Z</time>
      </trkpt>
      <trkpt lat="40.163767" lon="-5.338817">
        <ele>1357.0</ele>
        <time>2015-06-07T14:28:31Z</time>
      </trkpt>
      <trkpt lat="40.163883" lon="-5.338833">
        <ele>1357.0</ele>
        <time>2015-06-07T14:28:33Z</time>
      </trkpt>
      <trkpt lat="40.163983" lon="-5.338817">
        <ele>1355.0</ele>
        <time>2015-06-07T14:28:35Z</time>
      </trkpt>
      <trkpt lat="40.164100" lon="-5.338850">
        <ele>1348.0</ele>
        <time>2015-06-07T14:28:37Z</time>
      </trkpt>
      <trkpt lat="40.164250" lon="-5.338900">
        <ele>1340.0</ele>
        <time>2015-06-07T14:28:39Z</time>
      </trkpt>
      <trkpt lat="40.164367" lon="-5.339033">
        <ele>1334.0</ele>
        <time>2015-06-07T14:28:41Z</time>
      </trkpt>
      <trkpt lat="40.164400" lon="-5.339250">
        <ele>1330.0</ele>
        <time>2015-06-07T14:28:43Z</time>
      </trkpt>
      <trkpt lat="40.164350" lon="-5.339417">
        <ele>1331.0</ele>
        <time>2015-06-07T14:28:45Z</time>
      </trkpt>
      <trkpt lat="40.164267" lon="-5.339567">
        <ele>1331.0</ele>
        <time>2015-06-07T14:28:47Z</time>
      </trkpt>
      <trkpt lat="40.164133" lon="-5.339700">
        <ele>1330.0</ele>
        <time>2015-06-07T14:28:49Z</time>
      </trkpt>
      <trkpt lat="40.163983" lon="-5.339817">
        <ele>1328.0</ele>
        <time>2015-06-07T14:28:51Z</time>
      </trkpt>
      <trkpt lat="40.163883" lon="-5.339983">
        <ele>1328.0</ele>
        <time>2015-06-07T14:28:53Z</time>
      </trkpt>
      <trkpt lat="40.163850" lon="-5.340167">
        <ele>1328.0</ele>
        <time>2015-06-07T14:28:55Z</time>
      </trkpt>
      <trkpt lat="40.163850" lon="-5.340367">
        <ele>1329.0</ele>
        <time>2015-06-07T14:28:57Z</time>
      </trkpt>
      <trkpt lat="40.163900" lon="-5.340550">
        <ele>1330.0</ele>
        <time>2015-06-07T14:28:59Z</time>
      </trkpt>
      <trkpt lat="40.164000" lon="-5.340700">
        <ele>1331.0</ele>
        <time>2015-06-07T14:29:01Z</time>
      </trkpt>
      <trkpt lat="40.164100" lon="-5.340850">
        <ele>1330.0</ele>
        <time>2015-06-07T14:29:03Z</time>
      </trkpt>
      <trkpt lat="40.164250" lon="-5.341000">
        <ele>1327.0</ele>
        <time>2015-06-07T14:29:05Z</time>
      </trkpt>
      <trkpt lat="40.164400" lon="-5.341083">
        <ele>1329.0</ele>
        <time>2015-06-07T14:29:07Z</time>
      </trkpt>
      <trkpt lat="40.164550" lon="-5.341217">
        <ele>1332.0</ele>
        <time>2015-06-07T14:29:09Z</time>
      </trkpt>
      <trkpt lat="40.164633" lon="-5.341417">
        <ele>1337.0</ele>
        <time>2015-06-07T14:29:11Z</time>
      </trkpt>
      <trkpt lat="40.164650" lon="-5.341583">
        <ele>1343.0</ele>
        <time>2015-06-07T14:29:13Z</time>
      </trkpt>
      <trkpt lat="40.164600" lon="-5.341733">
        <ele>1350.0</ele>
        <time>2015-06-07T14:29:15Z</time>
      </trkpt>
      <trkpt lat="40.164467" lon="-5.341833">
        <ele>1354.0</ele>
        <time>2015-06-07T14:29:17Z</time>
      </trkpt>
      <trkpt lat="40.164317" lon="-5.341833">
        <ele>1359.0</ele>
        <time>2015-06-07T14:29:19Z</time>
      </trkpt>
      <trkpt lat="40.164183" lon="-5.341717">
        <ele>1364.0</ele>
        <time>2015-06-07T14:29:21Z</time>
      </trkpt>
      <trkpt lat="40.164100" lon="-5.341517">
        <ele>1367.0</ele>
        <time>2015-06-07T14:29:23Z</time>
      </trkpt>
      <trkpt lat="40.164083" lon="-5.341250">
        <ele>1370.0</ele>
        <time>2015-06-07T14:29:25Z</time>
      </trkpt>
      <trkpt lat="40.164167" lon="-5.341050">
        <ele>1375.0</ele>
        <time>2015-06-07T14:29:27Z</time>
      </trkpt>
      <trkpt lat="40.164283" lon="-5.340917">
        <ele>1380.0</ele>
        <time>2015-06-07T14:29:29Z</time>
      </trkpt>
      <trkpt lat="40.164433" lon="-5.340883">
        <ele>1380.0</ele>
        <time>2015-06-07T14:29:31Z</time>
      </trkpt>
      <trkpt lat="40.164583" lon="-5.341000">
        <ele>1379.0</ele>
        <time>2015-06-07T14:29:33Z</time>
      </trkpt>
      <trkpt lat="40.164650" lon="-5.341167">
        <ele>1384.0</ele>
        <time>2015-06-07T14:29:35Z</time>
      </trkpt>
      <trkpt lat="40.164683" lon="-5.341300">
        <ele>1389.0</ele>
        <time>2015-06-07T14:29:37Z</time>
      </trkpt>
      <trkpt lat="40.164650" lon="-5.341483">
        <ele>1392.0</ele>
        <time>2015-06-07T14:29:39Z</time>
      </trkpt>
      <trkpt lat="40.164517" lon="-5.341617">
        <ele>1394.0</ele>
        <time>2015-06-07T14:29:41Z</time>
      </trkpt>
      <trkpt lat="40.164383" lon="-5.341633">
        <ele>1398.0</ele>
        <time>2015-06-07T14:29:43Z</time>
      </trkpt>
      <trkpt lat="40.164250" lon="-5.341583">
        <ele>1404.0</ele>
        <time>2015-06-07T14:29:45Z</time>
      </trkpt>
      <trkpt lat="40.164117" lon="-5.341483">
        <ele>1406.0</ele>
        <time>2015-06-07T14:29:47Z</time>
      </trkpt>
      <trkpt lat="40.164017" lon="-5.341267">
        <ele>1407.0</ele>
        <time>2015-06-07T14:29:49Z</time>
      </trkpt>
      <trkpt lat="40.163983" lon="-5.341033">
        <ele>1412.0</ele>
        <time>2015-06-07T14:29:51Z</time>
      </trkpt>
      <trkpt lat="40.164017" lon="-5.340850">
        <ele>1417.0</ele>
        <time>2015-06-07T14:29:53Z</time>
      </trkpt>
      <trkpt lat="40.164083" lon="-5.340667">
        <ele>1416.0</ele>
        <time>2015-06-07T14:29:55Z</time>
      </trkpt>
      <trkpt lat="40.164217" lon="-5.340533">
        <ele>1413.0</ele>
        <time>2015-06-07T14:29:57Z</time>
      </trkpt>
      <trkpt lat="40.164367" lon="-5.340500">
        <ele>1411.0</ele>
        <time>2015-06-07T14:29:59Z</time>
      </trkpt>
      <trkpt lat="40.164517" lon="-5.340567">
        <ele>1409.0</ele>
        <time>2015-06-07T14:30:01Z</time>
      </trkpt>
      <trkpt lat="40.164667" lon="-5.340683">
        <ele>1407.0</ele>
        <time>2015-06-07T14:30:03Z</time>
      </trkpt>
      <trkpt lat="40.164817" lon="-5.340783">
        <ele>1411.0</ele>
        <time>2015-06-07T14:30:05Z</time>
      </trkpt>
      <trkpt lat="40.164967" lon="-5.340733">
        <ele>1416.0</ele>
        <time>2015-06-07T14:30:07Z</time>
      </trkpt>
      <trkpt lat="40.165100" lon="-5.340567">
        <ele>1419.0</ele>
        <time>2015-06-07T14:30:09Z</time>
      </trkpt>
      <trkpt lat="40.165150" lon="-5.340283">
        <ele>1422.0</ele>
        <time>2015-06-07T14:30:11Z</time>
      </trkpt>
      <trkpt lat="40.165117" lon="-5.340000">
        <ele>1425.0</ele>
        <time>2015-06-07T14:30:13Z</time>
      </trkpt>
      <trkpt lat="40.164983" lon="-5.339750">
        <ele>1429.0</ele>
        <time>2015-06-07T14:30:15Z</time>
      </trkpt>
      <trkpt lat="40.164800" lon="-5.339617">
        <ele>1431.0</ele>
        <time>2015-06-07T14:30:17Z</time>
      </trkpt>
      <trkpt lat="40.164583" lon="-5.339600">
        <ele>1432.0</ele>
        <time>2015-06-07T14:30:19Z</time>
      </trkpt>
      <trkpt lat="40.164433" lon="-5.339717">
        <ele>1434.0</ele>
        <time>2015-06-07T14:30:21Z</time>
      </trkpt>
      <trkpt lat="40.164350" lon="-5.339900">
        <ele>1432.0</ele>
        <time>2015-06-07T14:30:23Z</time>
      </trkpt>
      <trkpt lat="40.164367" lon="-5.340100">
        <ele>1430.0</ele>
        <time>2015-06-07T14:30:25Z</time>
      </trkpt>
      <trkpt lat="40.164467" lon="-5.340283">
        <ele>1426.0</ele>
        <time>2015-06-07T14:30:27Z</time>
      </trkpt>
      <trkpt lat="40.164633" lon="-5.340367">
        <ele>1422.0</ele>
        <time>2015-06-07T14:30:29Z</time>
      </trkpt>
      <trkpt lat="40.164817" lon="-5.340267">
        <ele>1421.0</ele>
        <time>2015-06-07T14:30:31Z</time>
      </trkpt>
      <trkpt lat="40.164900" lon="-5.340017">
        <ele>1423.0</ele>
        <time>2015-06-07T14:30:33Z</time>
      </trkpt>
      <trkpt lat="40.164900" lon="-5.339767">
        <ele>1426.0</ele>
        <time>2015-06-07T14:30:35Z</time>
      </trkpt>
      <trkpt lat="40.164883" lon="-5.339533">
        <ele>1427.0</ele>
        <time>2015-06-07T14:30:37Z</time>
      </trkpt>
      <trkpt lat="40.164067" lon="-5.339183">
        <ele>1423.0</ele>
        <time>2015-06-07T14:30:47Z</time>
      </trkpt>
      <trkpt lat="40.163950" lon="-5.339333">
        <ele>1422.0</ele>
        <time>2015-06-07T14:30:49Z</time>
      </trkpt>
      <trkpt lat="40.163883" lon="-5.339533">
        <ele>1424.0</ele>
        <time>2015-06-07T14:30:51Z</time>
      </trkpt>
      <trkpt lat="40.163917" lon="-5.339733">
        <ele>1418.0</ele>
        <time>2015-06-07T14:30:53Z</time>
      </trkpt>
      <trkpt lat="40.163983" lon="-5.339950">
        <ele>1416.0</ele>
        <time>2015-06-07T14:30:55Z</time>
      </trkpt>
      <trkpt lat="40.164117" lon="-5.340083">
        <ele>1414.0</ele>
        <time>2015-06-07T14:30:57Z</time>
      </trkpt>
      <trkpt lat="40.164267" lon="-5.340183">
        <ele>1412.0</ele>
        <time>2015-06-07T14:30:59Z</time>
      </trkpt>
      <trkpt lat="40.164383" lon="-5.340350">
        <ele>1412.0</ele>
        <time>2015-06-07T14:31:01Z</time>
      </trkpt>
      <trkpt lat="40.164467" lon="-5.340550">
        <ele>1411.0</ele>
        <time>2015-06-07T14:31:03Z</time>
      </trkpt>
      <trkpt lat="40.164517" lon="-5.340767">
        <ele>1411.0</ele>
        <time>2015-06-07T14:31:05Z</time>
      </trkpt>
      <trkpt lat="40.164517" lon="-5.340967">
        <ele>1410.0</ele>
        <time>2015-06-07T14:31:07Z</time>
      </trkpt>
      <trkpt lat="40.164467" lon="-5.341167">
        <ele>1409.0</ele>
        <time>2015-06-07T14:31:09Z</time>
      </trkpt>
      <trkpt lat="40.164383" lon="-5.341333">
        <ele>1407.0</ele>
        <time>2015-06-07T14:31:11Z</time>
      </trkpt>
      <trkpt lat="40.164283" lon="-5.341500">
        <ele>1404.0</ele>
        <time>2015-06-07T14:31:13Z</time>
      </trkpt>
      <trkpt lat="40.164167" lon="-5.341683">
        <ele>1401.0</ele>
        <time>2015-06-07T14:31:15Z</time>
      </trkpt>
      <trkpt lat="40.164033" lon="-5.341850">
        <ele>1400.0</ele>
        <time>2015-06-07T14:31:17Z</time>
      </trkpt>
      <trkpt lat="40.163917" lon="-5.342017">
        <ele>1401.0</ele>
        <time>2015-06-07T14:31:19Z</time>
      </trkpt>
      <trkpt lat="40.163867" lon="-5.342183">
        <ele>1399.0</ele>
        <time>2015-06-07T14:31:21Z</time>
      </trkpt>
      <trkpt lat="40.163817" lon="-5.342433">
        <ele>1393.0</ele>
        <time>2015-06-07T14:31:23Z</time>
      </trkpt>
      <trkpt lat="40.163800" lon="-5.342667">
        <ele>1390.0</ele>
        <time>2015-06-07T14:31:25Z</time>
      </trkpt>
      <trkpt lat="40.163750" lon="-5.342883">
        <ele>1391.0</ele>
        <time>2015-06-07T14:31:27Z</time>
      </trkpt>
      <trkpt lat="40.163700" lon="-5.343050">
        <ele>1391.0</ele>
        <time>2015-06-07T14:31:29Z</time>
      </trkpt>
      <trkpt lat="40.163600" lon="-5.343217">
        <ele>1390.0</ele>
        <time>2015-06-07T14:31:31Z</time>
      </trkpt>
      <trkpt lat="40.163467" lon="-5.343383">
        <ele>1392.0</ele>
        <time>2015-06-07T14:31:33Z</time>
      </trkpt>
      <trkpt lat="40.163350" lon="-5.343500">
        <ele>1395.0</ele>
        <time>2015-06-07T14:31:35Z</time>
      </trkpt>
      <trkpt lat="40.163183" lon="-5.343550">
        <ele>1395.0</ele>
        <time>2015-06-07T14:31:37Z</time>
      </trkpt>
      <trkpt lat="40.163000" lon="-5.343500">
        <ele>1393.0</ele>
        <time>2015-06-07T14:31:39Z</time>
      </trkpt>
      <trkpt lat="40.162800" lon="-5.343433">
        <ele>1391.0</ele>
        <time>2015-06-07T14:31:41Z</time>
      </trkpt>
      <trkpt lat="40.162617" lon="-5.343450">
        <ele>1389.0</ele>
        <time>2015-06-07T14:31:43Z</time>
      </trkpt>
      <trkpt lat="40.162467" lon="-5.343533">
        <ele>1387.0</ele>
        <time>2015-06-07T14:31:45Z</time>
      </trkpt>
      <trkpt lat="40.162350" lon="-5.343667">
        <ele>1384.0</ele>
        <time>2015-06-07T14:31:47Z</time>
      </trkpt>
      <trkpt lat="40.162267" lon="-5.343883">
        <ele>1377.0</ele>
        <time>2015-06-07T14:31:49Z</time>
      </trkpt>
      <trkpt lat="40.162183" lon="-5.344117">
        <ele>1373.0</ele>
        <time>2015-06-07T14:31:51Z</time>
      </trkpt>
      <trkpt lat="40.162083" lon="-5.344367">
        <ele>1372.0</ele>
        <time>2015-06-07T14:31:53Z</time>
      </trkpt>
      <trkpt lat="40.162067" lon="-5.344600">
        <ele>1370.0</ele>
        <time>2015-06-07T14:31:55Z</time>
      </trkpt>
      <trkpt lat="40.162067" lon="-5.344800">
        <ele>1366.0</ele>
        <time>2015-06-07T14:31:57Z</time>
      </trkpt>
      <trkpt lat="40.162133" lon="-5.345033">
        <ele>1362.0</ele>
        <time>2015-06-07T14:31:59Z</time>
      </trkpt>
      <trkpt lat="40.162233" lon="-5.345317">
        <ele>1358.0</ele>
        <time>2015-06-07T14:32:01Z</time>
      </trkpt>
      <trkpt lat="40.162333" lon="-5.345583">
        <ele>1361.0</ele>
        <time>2015-06-07T14:32:03Z</time>
      </trkpt>
      <trkpt lat="40.162467" lon="-5.345733">
        <ele>1364.0</ele>
        <time>2015-06-07T14:32:05Z</time>
      </trkpt>
      <trkpt lat="40.162633" lon="-5.345833">
        <ele>1364.0</ele>
        <time>2015-06-07T14:32:07Z</time>
      </trkpt>
      <trkpt lat="40.162817" lon="-5.345917">
        <ele>1364.0</ele>
        <time>2015-06-07T14:32:09Z</time>
      </trkpt>
      <trkpt lat="40.163000" lon="-5.345817">
        <ele>1361.0</ele>
        <time>2015-06-07T14:32:11Z</time>
      </trkpt>
      <trkpt lat="40.163133" lon="-5.345617">
        <ele>1361.0</ele>
        <time>2015-06-07T14:32:13Z</time>
      </trkpt>
      <trkpt lat="40.163150" lon="-5.345417">
        <ele>1360.0</ele>
        <time>2015-06-07T14:32:15Z</time>
      </trkpt>
      <trkpt lat="40.163083" lon="-5.345233">
        <ele>1358.0</ele>
        <time>2015-06-07T14:32:17Z</time>
      </trkpt>
      <trkpt lat="40.162950" lon="-5.345133">
        <ele>1357.0</ele>
        <time>2015-06-07T14:32:19Z</time>
      </trkpt>
      <trkpt lat="40.162783" lon="-5.345133">
        <ele>1356.0</ele>
        <time>2015-06-07T14:32:21Z</time>
      </trkpt>
      <trkpt lat="40.162633" lon="-5.345217">
        <ele>1356.0</ele>
        <time>2015-06-07T14:32:23Z</time>
      </trkpt>
      <trkpt lat="40.162483" lon="-5.345333">
        <ele>1357.0</ele>
        <time>2015-06-07T14:32:25Z</time>
      </trkpt>
      <trkpt lat="40.162333" lon="-5.345433">
        <ele>1360.0</ele>
        <time>2015-06-07T14:32:27Z</time>
      </trkpt>
      <trkpt lat="40.162217" lon="-5.345533">
        <ele>1363.0</ele>
        <time>2015-06-07T14:32:29Z</time>
      </trkpt>
      <trkpt lat="40.162117" lon="-5.345700">
        <ele>1365.0</ele>
        <time>2015-06-07T14:32:31Z</time>
      </trkpt>
      <trkpt lat="40.162067" lon="-5.345917">
        <ele>1370.0</ele>
        <time>2015-06-07T14:32:33Z</time>
      </trkpt>
      <trkpt lat="40.162100" lon="-5.346117">
        <ele>1374.0</ele>
        <time>2015-06-07T14:32:35Z</time>
      </trkpt>
      <trkpt lat="40.162217" lon="-5.346267">
        <ele>1375.0</ele>
        <time>2015-06-07T14:32:37Z</time>
      </trkpt>
      <trkpt lat="40.162383" lon="-5.346250">
        <ele>1374.0</ele>
        <time>2015-06-07T14:32:39Z</time>
      </trkpt>
      <trkpt lat="40.162533" lon="-5.346133">
        <ele>1373.0</ele>
        <time>2015-06-07T14:32:41Z</time>
      </trkpt>
      <trkpt lat="40.162650" lon="-5.345917">
        <ele>1373.0</ele>
        <time>2015-06-07T14:32:43Z</time>
      </trkpt>
      <trkpt lat="40.162667" lon="-5.345700">
        <ele>1374.0</ele>
        <time>2015-06-07T14:32:45Z</time>
      </trkpt>
      <trkpt lat="40.162617" lon="-5.345467">
        <ele>1373.0</ele>
        <time>2015-06-07T14:32:47Z</time>
      </trkpt>
      <trkpt lat="40.162517" lon="-5.345250">
        <ele>1373.0</ele>
        <time>2015-06-07T14:32:49Z</time>
      </trkpt>
      <trkpt lat="40.162400" lon="-5.345100">
        <ele>1372.0</ele>
        <time>2015-06-07T14:32:51Z</time>
      </trkpt>
      <trkpt lat="40.162233" lon="-5.345000">
        <ele>1372.0</ele>
        <time>2015-06-07T14:32:53Z</time>
      </trkpt>
      <trkpt lat="40.162050" lon="-5.345017">
        <ele>1370.0</ele>
        <time>2015-06-07T14:32:55Z</time>
      </trkpt>
      <trkpt lat="40.161867" lon="-5.345050">
        <ele>1364.0</ele>
        <time>2015-06-07T14:32:57Z</time>
      </trkpt>
      <trkpt lat="40.161700" lon="-5.345117">
        <ele>1357.0</ele>
        <time>2015-06-07T14:32:59Z</time>
      </trkpt>
      <trkpt lat="40.161567" lon="-5.345283">
        <ele>1350.0</ele>
        <time>2015-06-07T14:33:01Z</time>
      </trkpt>
      <trkpt lat="40.161467" lon="-5.345467">
        <ele>1341.0</ele>
        <time>2015-06-07T14:33:03Z</time>
      </trkpt>
      <trkpt lat="40.161350" lon="-5.345683">
        <ele>1331.0</ele>
        <time>2015-06-07T14:33:05Z</time>
      </trkpt>
      <trkpt lat="40.161250" lon="-5.345917">
        <ele>1323.0</ele>
        <time>2015-06-07T14:33:07Z</time>
      </trkpt>
      <trkpt lat="40.161183" lon="-5.346133">
        <ele>1315.0</ele>
        <time>2015-06-07T14:33:09Z</time>
      </trkpt>
      <trkpt lat="40.161133" lon="-5.346383">
        <ele>1306.0</ele>
        <time>2015-06-07T14:33:11Z</time>
      </trkpt>
      <trkpt lat="40.161133" lon="-5.346667">
        <ele>1300.0</ele>
        <time>2015-06-07T14:33:13Z</time>
      </trkpt>
      <trkpt lat="40.161150" lon="-5.346917">
        <ele>1298.0</ele>
        <time>2015-06-07T14:33:15Z</time>
      </trkpt>
      <trkpt lat="40.161200" lon="-5.347150">
        <ele>1292.0</ele>
        <time>2015-06-07T14:33:17Z</time>
      </trkpt>
      <trkpt lat="40.161317" lon="-5.347417">
        <ele>1285.0</ele>
        <time>2015-06-07T14:33:19Z</time>
      </trkpt>
      <trkpt lat="40.161450" lon="-5.347717">
        <ele>1286.0</ele>
        <time>2015-06-07T14:33:21Z</time>
      </trkpt>
      <trkpt lat="40.161567" lon="-5.347950">
        <ele>1290.0</ele>
        <time>2015-06-07T14:33:23Z</time>
      </trkpt>
      <trkpt lat="40.161667" lon="-5.348183">
        <ele>1291.0</ele>
        <time>2015-06-07T14:33:25Z</time>
      </trkpt>
      <trkpt lat="40.161717" lon="-5.348467">
        <ele>1292.0</ele>
        <time>2015-06-07T14:33:27Z</time>
      </trkpt>
      <trkpt lat="40.161700" lon="-5.348717">
        <ele>1296.0</ele>
        <time>2015-06-07T14:33:29Z</time>
      </trkpt>
      <trkpt lat="40.161633" lon="-5.348900">
        <ele>1298.0</ele>
        <time>2015-06-07T14:33:31Z</time>
      </trkpt>
      <trkpt lat="40.161533" lon="-5.349083">
        <ele>1299.0</ele>
        <time>2015-06-07T14:33:33Z</time>
      </trkpt>
      <trkpt lat="40.161383" lon="-5.349217">
        <ele>1301.0</ele>
        <time>2015-06-07T14:33:35Z</time>
      </trkpt>
      <trkpt lat="40.161267" lon="-5.349233">
        <ele>1303.0</ele>
        <time>2015-06-07T14:33:37Z</time>
      </trkpt>
      <trkpt lat="40.161150" lon="-5.349183">
        <ele>1306.0</ele>
        <time>2015-06-07T14:33:39Z</time>
      </trkpt>
      <trkpt lat="40.161067" lon="-5.349033">
        <ele>1308.0</ele>
        <time>2015-06-07T14:33:41Z</time>
      </trkpt>
      <trkpt lat="40.161067" lon="-5.348867">
        <ele>1313.0</ele>
        <time>2015-06-07T14:33:43Z</time>
      </trkpt>
      <trkpt lat="40.161150" lon="-5.348700">
        <ele>1315.0</ele>
        <time>2015-06-07T14:33:45Z</time>
      </trkpt>
      <trkpt lat="40.161300" lon="-5.348600">
        <ele>1318.0</ele>
        <time>2015-06-07T14:33:47Z</time>
      </trkpt>
      <trkpt lat="40.161483" lon="-5.348600">
        <ele>1319.0</ele>
        <time>2015-06-07T14:33:49Z</time>
      </trkpt>
      <trkpt lat="40.161667" lon="-5.348717">
        <ele>1321.0</ele>
        <time>2015-06-07T14:33:51Z</time>
      </trkpt>
      <trkpt lat="40.161817" lon="-5.348917">
        <ele>1325.0</ele>
        <time>2015-06-07T14:33:53Z</time>
      </trkpt>
      <trkpt lat="40.161900" lon="-5.349117">
        <ele>1329.0</ele>
        <time>2015-06-07T14:33:55Z</time>
      </trkpt>
      <trkpt lat="40.161917" lon="-5.349333">
        <ele>1330.0</ele>
        <time>2015-06-07T14:33:57Z</time>
      </trkpt>
      <trkpt lat="40.161833" lon="-5.349567">
        <ele>1332.0</ele>
        <time>2015-06-07T14:33:59Z</time>
      </trkpt>
      <trkpt lat="40.161733" lon="-5.349700">
        <ele>1335.0</ele>
        <time>2015-06-07T14:34:01Z</time>
      </trkpt>
      <trkpt lat="40.161617" lon="-5.349750">
        <ele>1337.0</ele>
        <time>2015-06-07T14:34:03Z</time>
      </trkpt>
      <trkpt lat="40.161467" lon="-5.349733">
        <ele>1338.0</ele>
        <time>2015-06-07T14:34:05Z</time>
      </trkpt>
      <trkpt lat="40.161333" lon="-5.349583">
        <ele>1340.0</ele>
        <time>2015-06-07T14:34:07Z</time>
      </trkpt>
      <trkpt lat="40.161300" lon="-5.349400">
        <ele>1348.0</ele>
        <time>2015-06-07T14:34:09Z</time>
      </trkpt>
      <trkpt lat="40.161267" lon="-5.349233">
        <ele>1351.0</ele>
        <time>2015-06-07T14:34:11Z</time>
      </trkpt>
      <trkpt lat="40.161283" lon="-5.349050">
        <ele>1351.0</ele>
        <time>2015-06-07T14:34:13Z</time>
      </trkpt>
      <trkpt lat="40.161367" lon="-5.348867">
        <ele>1351.0</ele>
        <time>2015-06-07T14:34:15Z</time>
      </trkpt>
      <trkpt lat="40.161533" lon="-5.348750">
        <ele>1351.0</ele>
        <time>2015-06-07T14:34:17Z</time>
      </trkpt>
      <trkpt lat="40.161700" lon="-5.348733">
        <ele>1351.0</ele>
        <time>2015-06-07T14:34:19Z</time>
      </trkpt>
      <trkpt lat="40.161867" lon="-5.348817">
        <ele>1351.0</ele>
        <time>2015-06-07T14:34:21Z</time>
      </trkpt>
      <trkpt lat="40.161983" lon="-5.348983">
        <ele>1353.0</ele>
        <time>2015-06-07T14:34:23Z</time>
      </trkpt>
      <trkpt lat="40.162050" lon="-5.349167">
        <ele>1356.0</ele>
        <time>2015-06-07T14:34:25Z</time>
      </trkpt>
      <trkpt lat="40.162117" lon="-5.349367">
        <ele>1358.0</ele>
        <time>2015-06-07T14:34:27Z</time>
      </trkpt>
      <trkpt lat="40.162133" lon="-5.349600">
        <ele>1362.0</ele>
        <time>2015-06-07T14:34:29Z</time>
      </trkpt>
      <trkpt lat="40.162083" lon="-5.349800">
        <ele>1365.0</ele>
        <time>2015-06-07T14:34:31Z</time>
      </trkpt>
      <trkpt lat="40.162000" lon="-5.349950">
        <ele>1368.0</ele>
        <time>2015-06-07T14:34:33Z</time>
      </trkpt>
      <trkpt lat="40.161883" lon="-5.350033">
        <ele>1368.0</ele>
        <time>2015-06-07T14:34:35Z</time>
      </trkpt>
      <trkpt lat="40.161700" lon="-5.350017">
        <ele>1368.0</ele>
        <time>2015-06-07T14:34:37Z</time>
      </trkpt>
      <trkpt lat="40.161567" lon="-5.349917">
        <ele>1373.0</ele>
        <time>2015-06-07T14:34:39Z</time>
      </trkpt>
      <trkpt lat="40.161433" lon="-5.349800">
        <ele>1377.0</ele>
        <time>2015-06-07T14:34:41Z</time>
      </trkpt>
      <trkpt lat="40.161333" lon="-5.349617">
        <ele>1381.0</ele>
        <time>2015-06-07T14:34:43Z</time>
      </trkpt>
      <trkpt lat="40.161350" lon="-5.349400">
        <ele>1383.0</ele>
        <time>2015-06-07T14:34:45Z</time>
      </trkpt>
      <trkpt lat="40.161417" lon="-5.349233">
        <ele>1383.0</ele>
        <time>2015-06-07T14:34:47Z</time>
      </trkpt>
      <trkpt lat="40.161533" lon="-5.349100">
        <ele>1381.0</ele>
        <time>2015-06-07T14:34:49Z</time>
      </trkpt>
      <trkpt lat="40.161717" lon="-5.349017">
        <ele>1379.0</ele>
        <time>2015-06-07T14:34:51Z</time>
      </trkpt>
      <trkpt lat="40.161883" lon="-5.349033">
        <ele>1381.0</ele>
        <time>2015-06-07T14:34:53Z</time>
      </trkpt>
      <trkpt lat="40.162017" lon="-5.349100">
        <ele>1380.0</ele>
        <time>2015-06-07T14:34:55Z</time>
      </trkpt>
      <trkpt lat="40.162133" lon="-5.349283">
        <ele>1379.0</ele>
        <time>2015-06-07T14:34:57Z</time>
      </trkpt>
      <trkpt lat="40.162183" lon="-5.349500">
        <ele>1381.0</ele>
        <time>2015-06-07T14:34:59Z</time>
      </trkpt>
      <trkpt lat="40.162167" lon="-5.349717">
        <ele>1384.0</ele>
        <time>2015-06-07T14:35:01Z</time>
      </trkpt>
      <trkpt lat="40.162067" lon="-5.349867">
        <ele>1386.0</ele>
        <time>2015-06-07T14:35:03Z</time>
      </trkpt>
      <trkpt lat="40.161933" lon="-5.349967">
        <ele>1388.0</ele>
        <time>2015-06-07T14:35:05Z</time>
      </trkpt>
      <trkpt lat="40.161767" lon="-5.350017">
        <ele>1388.0</ele>
        <time>2015-06-07T14:35:07Z</time>
      </trkpt>
      <trkpt lat="40.161600" lon="-5.349967">
        <ele>1389.0</ele>
        <time>2015-06-07T14:35:09Z</time>
      </trkpt>
      <trkpt lat="40.161450" lon="-5.349833">
        <ele>1389.0</ele>
        <time>2015-06-07T14:35:11Z</time>
      </trkpt>
      <trkpt lat="40.161350" lon="-5.349650">
        <ele>1390.0</ele>
        <time>2015-06-07T14:35:13Z</time>
      </trkpt>
      <trkpt lat="40.161300" lon="-5.349433">
        <ele>1389.0</ele>
        <time>2015-06-07T14:35:15Z</time>
      </trkpt>
      <trkpt lat="40.161350" lon="-5.349250">
        <ele>1387.0</ele>
        <time>2015-06-07T14:35:17Z</time>
      </trkpt>
      <trkpt lat="40.161433" lon="-5.349100">
        <ele>1385.0</ele>
        <time>2015-06-07T14:35:19Z</time>
      </trkpt>
      <trkpt lat="40.161567" lon="-5.349000">
        <ele>1380.0</ele>
        <time>2015-06-07T14:35:21Z</time>
      </trkpt>
      <trkpt lat="40.161733" lon="-5.349000">
        <ele>1377.0</ele>
        <time>2015-06-07T14:35:23Z</time>
      </trkpt>
      <trkpt lat="40.161883" lon="-5.349083">
        <ele>1375.0</ele>
        <time>2015-06-07T14:35:25Z</time>
      </trkpt>
      <trkpt lat="40.161983" lon="-5.349267">
        <ele>1371.0</ele>
        <time>2015-06-07T14:35:27Z</time>
      </trkpt>
      <trkpt lat="40.162000" lon="-5.349517">
        <ele>1369.0</ele>
        <time>2015-06-07T14:35:29Z</time>
      </trkpt>
      <trkpt lat="40.161983" lon="-5.349717">
        <ele>1367.0</ele>
        <time>2015-06-07T14:35:31Z</time>
      </trkpt>
      <trkpt lat="40.161917" lon="-5.349900">
        <ele>1362.0</ele>
        <time>2015-06-07T14:35:33Z</time>
      </trkpt>
      <trkpt lat="40.161817" lon="-5.350183">
        <ele>1359.0</ele>
        <time>2015-06-07T14:35:35Z</time>
      </trkpt>
      <trkpt lat="40.161750" lon="-5.350383">
        <ele>1364.0</ele>
        <time>2015-06-07T14:35:37Z</time>
      </trkpt>
      <trkpt lat="40.161700" lon="-5.350517">
        <ele>1366.0</ele>
        <time>2015-06-07T14:35:39Z</time>
      </trkpt>
      <trkpt lat="40.161650" lon="-5.350700">
        <ele>1364.0</ele>
        <time>2015-06-07T14:35:41Z</time>
      </trkpt>
      <trkpt lat="40.161600" lon="-5.350933">
        <ele>1363.0</ele>
        <time>2015-06-07T14:35:43Z</time>
      </trkpt>
      <trkpt lat="40.161550" lon="-5.351133">
        <ele>1364.0</ele>
        <time>2015-06-07T14:35:45Z</time>
      </trkpt>
      <trkpt lat="40.161500" lon="-5.351300">
        <ele>1365.0</ele>
        <time>2015-06-07T14:35:47Z</time>
      </trkpt>
      <trkpt lat="40.161400" lon="-5.351483">
        <ele>1364.0</ele>
        <time>2015-06-07T14:35:49Z</time>
      </trkpt>
      <trkpt lat="40.161333" lon="-5.351650">
        <ele>1364.0</ele>
        <time>2015-06-07T14:35:51Z</time>
      </trkpt>
      <trkpt lat="40.161267" lon="-5.351833">
        <ele>1363.0</ele>
        <time>2015-06-07T14:35:53Z</time>
      </trkpt>
      <trkpt lat="40.161167" lon="-5.352033">
        <ele>1363.0</ele>
        <time>2015-06-07T14:35:55Z</time>
      </trkpt>
      <trkpt lat="40.161067" lon="-5.352200">
        <ele>1365.0</ele>
        <time>2015-06-07T14:35:57Z</time>
      </trkpt>
      <trkpt lat="40.161000" lon="-5.352333">
        <ele>1366.0</ele>
        <time>2015-06-07T14:35:59Z</time>
      </trkpt>
      <trkpt lat="40.160900" lon="-5.352467">
        <ele>1367.0</ele>
        <time>2015-06-07T14:36:01Z</time>
      </trkpt>
      <trkpt lat="40.160850" lon="-5.352633">
        <ele>1369.0</ele>
        <time>2015-06-07T14:36:03Z</time>
      </trkpt>
      <trkpt lat="40.160867" lon="-5.352833">
        <ele>1370.0</ele>
        <time>2015-06-07T14:36:05Z</time>
      </trkpt>
      <trkpt lat="40.160967" lon="-5.353000">
        <ele>1370.0</ele>
        <time>2015-06-07T14:36:07Z</time>
      </trkpt>
      <trkpt lat="40.161150" lon="-5.353067">
        <ele>1370.0</ele>
        <time>2015-06-07T14:36:09Z</time>
      </trkpt>
      <trkpt lat="40.161317" lon="-5.352983">
        <ele>1372.0</ele>
        <time>2015-06-07T14:36:11Z</time>
      </trkpt>
      <trkpt lat="40.161417" lon="-5.352800">
        <ele>1372.0</ele>
        <time>2015-06-07T14:36:13Z</time>
      </trkpt>
      <trkpt lat="40.161483" lon="-5.352567">
        <ele>1372.0</ele>
        <time>2015-06-07T14:36:15Z</time>
      </trkpt>
      <trkpt lat="40.161450" lon="-5.352367">
        <ele>1373.0</ele>
        <time>2015-06-07T14:36:17Z</time>
      </trkpt>
      <trkpt lat="40.161333" lon="-5.352233">
        <ele>1373.0</ele>
        <time>2015-06-07T14:36:19Z</time>
      </trkpt>
      <trkpt lat="40.161217" lon="-5.352217">
        <ele>1373.0</ele>
        <time>2015-06-07T14:36:21Z</time>
      </trkpt>
      <trkpt lat="40.161117" lon="-5.352283">
        <ele>1373.0</ele>
        <time>2015-06-07T14:36:23Z</time>
      </trkpt>
      <trkpt lat="40.161033" lon="-5.352367">
        <ele>1373.0</ele>
        <time>2015-06-07T14:36:25Z</time>
      </trkpt>
      <trkpt lat="40.160950" lon="-5.352517">
        <ele>1371.0</ele>
        <time>2015-06-07T14:36:27Z</time>
      </trkpt>
      <trkpt lat="40.160883" lon="-5.352700">
        <ele>1371.0</ele>
        <time>2015-06-07T14:36:29Z</time>
      </trkpt>
      <trkpt lat="40.160800" lon="-5.352850">
        <ele>1372.0</ele>
        <time>2015-06-07T14:36:31Z</time>
      </trkpt>
      <trkpt lat="40.160683" lon="-5.352967">
        <ele>1375.0</ele>
        <time>2015-06-07T14:36:33Z</time>
      </trkpt>
      <trkpt lat="40.160567" lon="-5.353083">
        <ele>1377.0</ele>
        <time>2015-06-07T14:36:35Z</time>
      </trkpt>
      <trkpt lat="40.160467" lon="-5.353217">
        <ele>1379.0</ele>
        <time>2015-06-07T14:36:37Z</time>
      </trkpt>
      <trkpt lat="40.160450" lon="-5.353417">
        <ele>1381.0</ele>
        <time>2015-06-07T14:36:39Z</time>
      </trkpt>
      <trkpt lat="40.160550" lon="-5.353583">
        <ele>1380.0</ele>
        <time>2015-06-07T14:36:41Z</time>
      </trkpt>
      <trkpt lat="40.160700" lon="-5.353650">
        <ele>1378.0</ele>
        <time>2015-06-07T14:36:43Z</time>
      </trkpt>
      <trkpt lat="40.160917" lon="-5.353600">
        <ele>1376.0</ele>
        <time>2015-06-07T14:36:45Z</time>
      </trkpt>
      <trkpt lat="40.161067" lon="-5.353433">
        <ele>1378.0</ele>
        <time>2015-06-07T14:36:47Z</time>
      </trkpt>
      <trkpt lat="40.161100" lon="-5.353200">
        <ele>1379.0</ele>
        <time>2015-06-07T14:36:49Z</time>
      </trkpt>
      <trkpt lat="40.161067" lon="-5.352983">
        <ele>1379.0</ele>
        <time>2015-06-07T14:36:51Z</time>
      </trkpt>
      <trkpt lat="40.160950" lon="-5.352850">
        <ele>1379.0</ele>
        <time>2015-06-07T14:36:53Z</time>
      </trkpt>
      <trkpt lat="40.160833" lon="-5.352833">
        <ele>1382.0</ele>
        <time>2015-06-07T14:36:55Z</time>
      </trkpt>
      <trkpt lat="40.160750" lon="-5.352867">
        <ele>1383.0</ele>
        <time>2015-06-07T14:36:57Z</time>
      </trkpt>
      <trkpt lat="40.160650" lon="-5.352967">
        <ele>1382.0</ele>
        <time>2015-06-07T14:36:59Z</time>
      </trkpt>
      <trkpt lat="40.160550" lon="-5.353117">
        <ele>1382.0</ele>
        <time>2015-06-07T14:37:01Z</time>
      </trkpt>
      <trkpt lat="40.160433" lon="-5.353217">
        <ele>1384.0</ele>
        <time>2015-06-07T14:37:03Z</time>
      </trkpt>
      <trkpt lat="40.160317" lon="-5.353283">
        <ele>1385.0</ele>
        <time>2015-06-07T14:37:05Z</time>
      </trkpt>
      <trkpt lat="40.160033" lon="-5.353433">
        <ele>1386.0</ele>
        <time>2015-06-07T14:37:09Z</time>
      </trkpt>
      <trkpt lat="40.159867" lon="-5.353550">
        <ele>1386.0</ele>
        <time>2015-06-07T14:37:11Z</time>
      </trkpt>
      <trkpt lat="40.159683" lon="-5.353683">
        <ele>1383.0</ele>
        <time>2015-06-07T14:37:13Z</time>
      </trkpt>
      <trkpt lat="40.159567" lon="-5.353750">
        <ele>1384.0</ele>
        <time>2015-06-07T14:37:15Z</time>
      </trkpt>
      <trkpt lat="40.159467" lon="-5.353833">
        <ele>1384.0</ele>
        <time>2015-06-07T14:37:17Z</time>
      </trkpt>
      <trkpt lat="40.159350" lon="-5.353983">
        <ele>1382.0</ele>
        <time>2015-06-07T14:37:19Z</time>
      </trkpt>
      <trkpt lat="40.159217" lon="-5.354167">
        <ele>1380.0</ele>
        <time>2015-06-07T14:37:21Z</time>
      </trkpt>
      <trkpt lat="40.159100" lon="-5.354333">
        <ele>1379.0</ele>
        <time>2015-06-07T14:37:23Z</time>
      </trkpt>
      <trkpt lat="40.159000" lon="-5.354517">
        <ele>1377.0</ele>
        <time>2015-06-07T14:37:25Z</time>
      </trkpt>
      <trkpt lat="40.158883" lon="-5.354717">
        <ele>1375.0</ele>
        <time>2015-06-07T14:37:27Z</time>
      </trkpt>
      <trkpt lat="40.158783" lon="-5.354917">
        <ele>1374.0</ele>
        <time>2015-06-07T14:37:29Z</time>
      </trkpt>
      <trkpt lat="40.158683" lon="-5.355100">
        <ele>1370.0</ele>
        <time>2015-06-07T14:37:31Z</time>
      </trkpt>
      <trkpt lat="40.158567" lon="-5.355300">
        <ele>1367.0</ele>
        <time>2015-06-07T14:37:33Z</time>
      </trkpt>
      <trkpt lat="40.158450" lon="-5.355483">
        <ele>1365.0</ele>
        <time>2015-06-07T14:37:35Z</time>
      </trkpt>
      <trkpt lat="40.158333" lon="-5.355650">
        <ele>1362.0</ele>
        <time>2015-06-07T14:37:37Z</time>
      </trkpt>
      <trkpt lat="40.158183" lon="-5.355800">
        <ele>1358.0</ele>
        <time>2015-06-07T14:37:39Z</time>
      </trkpt>
      <trkpt lat="40.158000" lon="-5.355917">
        <ele>1357.0</ele>
        <time>2015-06-07T14:37:41Z</time>
      </trkpt>
      <trkpt lat="40.157833" lon="-5.356000">
        <ele>1356.0</ele>
        <time>2015-06-07T14:37:43Z</time>
      </trkpt>
      <trkpt lat="40.157683" lon="-5.356150">
        <ele>1356.0</ele>
        <time>2015-06-07T14:37:45Z</time>
      </trkpt>
      <trkpt lat="40.157567" lon="-5.356350">
        <ele>1354.0</ele>
        <time>2015-06-07T14:37:47Z</time>
      </trkpt>
      <trkpt lat="40.157433" lon="-5.356583">
        <ele>1352.0</ele>
        <time>2015-06-07T14:37:49Z</time>
      </trkpt>
      <trkpt lat="40.157283" lon="-5.356800">
        <ele>1350.0</ele>
        <time>2015-06-07T14:37:51Z</time>
      </trkpt>
      <trkpt lat="40.157183" lon="-5.357033">
        <ele>1348.0</ele>
        <time>2015-06-07T14:37:53Z</time>
      </trkpt>
      <trkpt lat="40.157083" lon="-5.357267">
        <ele>1342.0</ele>
        <time>2015-06-07T14:37:55Z</time>
      </trkpt>
      <trkpt lat="40.156933" lon="-5.357533">
        <ele>1338.0</ele>
        <time>2015-06-07T14:37:57Z</time>
      </trkpt>
      <trkpt lat="40.156800" lon="-5.357783">
        <ele>1337.0</ele>
        <time>2015-06-07T14:37:59Z</time>
      </trkpt>
      <trkpt lat="40.156683" lon="-5.358033">
        <ele>1333.0</ele>
        <time>2015-06-07T14:38:01Z</time>
      </trkpt>
      <trkpt lat="40.156550" lon="-5.358283">
        <ele>1329.0</ele>
        <time>2015-06-07T14:38:03Z</time>
      </trkpt>
      <trkpt lat="40.156400" lon="-5.358533">
        <ele>1327.0</ele>
        <time>2015-06-07T14:38:05Z</time>
      </trkpt>
      <trkpt lat="40.156283" lon="-5.358767">
        <ele>1324.0</ele>
        <time>2015-06-07T14:38:07Z</time>
      </trkpt>
      <trkpt lat="40.156150" lon="-5.359033">
        <ele>1320.0</ele>
        <time>2015-06-07T14:38:09Z</time>
      </trkpt>
      <trkpt lat="40.156033" lon="-5.359283">
        <ele>1320.0</ele>
        <time>2015-06-07T14:38:11Z</time>
      </trkpt>
      <trkpt lat="40.155933" lon="-5.359500">
        <ele>1320.0</ele>
        <time>2015-06-07T14:38:13Z</time>
      </trkpt>
      <trkpt lat="40.155800" lon="-5.359733">
        <ele>1317.0</ele>
        <time>2015-06-07T14:38:15Z</time>
      </trkpt>
      <trkpt lat="40.155667" lon="-5.359950">
        <ele>1316.0</ele>
        <time>2015-06-07T14:38:17Z</time>
      </trkpt>
      <trkpt lat="40.155550" lon="-5.360167">
        <ele>1314.0</ele>
        <time>2015-06-07T14:38:19Z</time>
      </trkpt>
      <trkpt lat="40.155417" lon="-5.360383">
        <ele>1310.0</ele>
        <time>2015-06-07T14:38:21Z</time>
      </trkpt>
      <trkpt lat="40.155283" lon="-5.360633">
        <ele>1306.0</ele>
        <time>2015-06-07T14:38:23Z</time>
      </trkpt>
      <trkpt lat="40.155167" lon="-5.360867">
        <ele>1306.0</ele>
        <time>2015-06-07T14:38:25Z</time>
      </trkpt>
      <trkpt lat="40.155067" lon="-5.361117">
        <ele>1305.0</ele>
        <time>2015-06-07T14:38:27Z</time>
      </trkpt>
      <trkpt lat="40.155000" lon="-5.361417">
        <ele>1300.0</ele>
        <time>2015-06-07T14:38:29Z</time>
      </trkpt>
      <trkpt lat="40.154883" lon="-5.361733">
        <ele>1298.0</ele>
        <time>2015-06-07T14:38:31Z</time>
      </trkpt>
      <trkpt lat="40.154767" lon="-5.362033">
        <ele>1298.0</ele>
        <time>2015-06-07T14:38:33Z</time>
      </trkpt>
      <trkpt lat="40.154633" lon="-5.362267">
        <ele>1295.0</ele>
        <time>2015-06-07T14:38:35Z</time>
      </trkpt>
      <trkpt lat="40.154467" lon="-5.362517">
        <ele>1290.0</ele>
        <time>2015-06-07T14:38:37Z</time>
      </trkpt>
      <trkpt lat="40.154300" lon="-5.362767">
        <ele>1288.0</ele>
        <time>2015-06-07T14:38:39Z</time>
      </trkpt>
      <trkpt lat="40.154150" lon="-5.362983">
        <ele>1286.0</ele>
        <time>2015-06-07T14:38:41Z</time>
      </trkpt>
      <trkpt lat="40.154000" lon="-5.363217">
        <ele>1280.0</ele>
        <time>2015-06-07T14:38:43Z</time>
      </trkpt>
      <trkpt lat="40.153850" lon="-5.363450">
        <ele>1276.0</ele>
        <time>2015-06-07T14:38:45Z</time>
      </trkpt>
      <trkpt lat="40.153700" lon="-5.363667">
        <ele>1272.0</ele>
        <time>2015-06-07T14:38:47Z</time>
      </trkpt>
      <trkpt lat="40.153533" lon="-5.363900">
        <ele>1268.0</ele>
        <time>2015-06-07T14:38:49Z</time>
      </trkpt>
      <trkpt lat="40.153367" lon="-5.364133">
        <ele>1265.0</ele>
        <time>2015-06-07T14:38:51Z</time>
      </trkpt>
      <trkpt lat="40.153233" lon="-5.364300">
        <ele>1263.0</ele>
        <time>2015-06-07T14:38:53Z</time>
      </trkpt>
      <trkpt lat="40.153117" lon="-5.364483">
        <ele>1261.0</ele>
        <time>2015-06-07T14:38:55Z</time>
      </trkpt>
      <trkpt lat="40.153000" lon="-5.364717">
        <ele>1257.0</ele>
        <time>2015-06-07T14:38:57Z</time>
      </trkpt>
      <trkpt lat="40.152883" lon="-5.364933">
        <ele>1255.0</ele>
        <time>2015-06-07T14:38:59Z</time>
      </trkpt>
      <trkpt lat="40.152750" lon="-5.365133">
        <ele>1252.0</ele>
        <time>2015-06-07T14:39:01Z</time>
      </trkpt>
      <trkpt lat="40.152633" lon="-5.365317">
        <ele>1248.0</ele>
        <time>2015-06-07T14:39:03Z</time>
      </trkpt>
      <trkpt lat="40.152517" lon="-5.365517">
        <ele>1245.0</ele>
        <time>2015-06-07T14:39:05Z</time>
      </trkpt>
      <trkpt lat="40.152433" lon="-5.365750">
        <ele>1242.0</ele>
        <time>2015-06-07T14:39:07Z</time>
      </trkpt>
      <trkpt lat="40.152333" lon="-5.365983">
        <ele>1240.0</ele>
        <time>2015-06-07T14:39:09Z</time>
      </trkpt>
      <trkpt lat="40.152250" lon="-5.366217">
        <ele>1239.0</ele>
        <time>2015-06-07T14:39:11Z</time>
      </trkpt>
      <trkpt lat="40.152167" lon="-5.366450">
        <ele>1238.0</ele>
        <time>2015-06-07T14:39:13Z</time>
      </trkpt>
      <trkpt lat="40.152067" lon="-5.366683">
        <ele>1236.0</ele>
        <time>2015-06-07T14:39:15Z</time>
      </trkpt>
      <trkpt lat="40.151967" lon="-5.366917">
        <ele>1234.0</ele>
        <time>2015-06-07T14:39:17Z</time>
      </trkpt>
      <trkpt lat="40.151850" lon="-5.367133">
        <ele>1232.0</ele>
        <time>2015-06-07T14:39:19Z</time>
      </trkpt>
      <trkpt lat="40.151733" lon="-5.367350">
        <ele>1231.0</ele>
        <time>2015-06-07T14:39:21Z</time>
      </trkpt>
      <trkpt lat="40.151633" lon="-5.367600">
        <ele>1229.0</ele>
        <time>2015-06-07T14:39:23Z</time>
      </trkpt>
      <trkpt lat="40.151517" lon="-5.367833">
        <ele>1228.0</ele>
        <time>2015-06-07T14:39:25Z</time>
      </trkpt>
      <trkpt lat="40.151417" lon="-5.368083">
        <ele>1227.0</ele>
        <time>2015-06-07T14:39:27Z</time>
      </trkpt>
      <trkpt lat="40.151317" lon="-5.368317">
        <ele>1225.0</ele>
        <time>2015-06-07T14:39:29Z</time>
      </trkpt>
      <trkpt lat="40.151217" lon="-5.368550">
        <ele>1222.0</ele>
        <time>2015-06-07T14:39:31Z</time>
      </trkpt>
      <trkpt lat="40.151117" lon="-5.368800">
        <ele>1219.0</ele>
        <time>2015-06-07T14:39:33Z</time>
      </trkpt>
      <trkpt lat="40.151017" lon="-5.369050">
        <ele>1216.0</ele>
        <time>2015-06-07T14:39:35Z</time>
      </trkpt>
      <trkpt lat="40.150933" lon="-5.369283">
        <ele>1214.0</ele>
        <time>2015-06-07T14:39:37Z</time>
      </trkpt>
      <trkpt lat="40.150833" lon="-5.369517">
        <ele>1212.0</ele>
        <time>2015-06-07T14:39:39Z</time>
      </trkpt>
      <trkpt lat="40.150750" lon="-5.369733">
        <ele>1208.0</ele>
        <time>2015-06-07T14:39:41Z</time>
      </trkpt>
      <trkpt lat="40.150650" lon="-5.369967">
        <ele>1205.0</ele>
        <time>2015-06-07T14:39:43Z</time>
      </trkpt>
      <trkpt lat="40.150550" lon="-5.370200">
        <ele>1203.0</ele>
        <time>2015-06-07T14:39:45Z</time>
      </trkpt>
      <trkpt lat="40.150450" lon="-5.370417">
        <ele>1200.0</ele>
        <time>2015-06-07T14:39:47Z</time>
      </trkpt>
      <trkpt lat="40.150350" lon="-5.370633">
        <ele>1195.0</ele>
        <time>2015-06-07T14:39:49Z</time>
      </trkpt>
      <trkpt lat="40.150250" lon="-5.370850">
        <ele>1190.0</ele>
        <time>2015-06-07T14:39:51Z</time>
      </trkpt>
      <trkpt lat="40.150133" lon="-5.371067">
        <ele>1186.0</ele>
        <time>2015-06-07T14:39:53Z</time>
      </trkpt>
      <trkpt lat="40.150033" lon="-5.371267">
        <ele>1182.0</ele>
        <time>2015-06-07T14:39:55Z</time>
      </trkpt>
      <trkpt lat="40.149917" lon="-5.371450">
        <ele>1177.0</ele>
        <time>2015-06-07T14:39:57Z</time>
      </trkpt>
      <trkpt lat="40.149767" lon="-5.371583">
        <ele>1172.0</ele>
        <time>2015-06-07T14:39:59Z</time>
      </trkpt>
      <trkpt lat="40.149633" lon="-5.371750">
        <ele>1168.0</ele>
        <time>2015-06-07T14:40:01Z</time>
      </trkpt>
      <trkpt lat="40.149517" lon="-5.371933">
        <ele>1164.0</ele>
        <time>2015-06-07T14:40:03Z</time>
      </trkpt>
      <trkpt lat="40.149400" lon="-5.372117">
        <ele>1158.0</ele>
        <time>2015-06-07T14:40:05Z</time>
      </trkpt>
      <trkpt lat="40.149300" lon="-5.372333">
        <ele>1152.0</ele>
        <time>2015-06-07T14:40:07Z</time>
      </trkpt>
      <trkpt lat="40.149183" lon="-5.372533">
        <ele>1147.0</ele>
        <time>2015-06-07T14:40:09Z</time>
      </trkpt>
      <trkpt lat="40.149067" lon="-5.372700">
        <ele>1142.0</ele>
        <time>2015-06-07T14:40:11Z</time>
      </trkpt>
      <trkpt lat="40.148933" lon="-5.372850">
        <ele>1136.0</ele>
        <time>2015-06-07T14:40:13Z</time>
      </trkpt>
      <trkpt lat="40.148800" lon="-5.373033">
        <ele>1128.0</ele>
        <time>2015-06-07T14:40:15Z</time>
      </trkpt>
      <trkpt lat="40.148667" lon="-5.373233">
        <ele>1123.0</ele>
        <time>2015-06-07T14:40:17Z</time>
      </trkpt>
      <trkpt lat="40.148567" lon="-5.373433">
        <ele>1118.0</ele>
        <time>2015-06-07T14:40:19Z</time>
      </trkpt>
      <trkpt lat="40.148467" lon="-5.373633">
        <ele>1111.0</ele>
        <time>2015-06-07T14:40:21Z</time>
      </trkpt>
      <trkpt lat="40.148317" lon="-5.373800">
        <ele>1105.0</ele>
        <time>2015-06-07T14:40:23Z</time>
      </trkpt>
      <trkpt lat="40.148167" lon="-5.373933">
        <ele>1103.0</ele>
        <time>2015-06-07T14:40:25Z</time>
      </trkpt>
      <trkpt lat="40.148017" lon="-5.374083">
        <ele>1098.0</ele>
        <time>2015-06-07T14:40:27Z</time>
      </trkpt>
      <trkpt lat="40.147867" lon="-5.374233">
        <ele>1093.0</ele>
        <time>2015-06-07T14:40:29Z</time>
      </trkpt>
      <trkpt lat="40.147717" lon="-5.374400">
        <ele>1088.0</ele>
        <time>2015-06-07T14:40:31Z</time>
      </trkpt>
      <trkpt lat="40.147600" lon="-5.374600">
        <ele>1081.0</ele>
        <time>2015-06-07T14:40:33Z</time>
      </trkpt>
      <trkpt lat="40.147467" lon="-5.374800">
        <ele>1075.0</ele>
        <time>2015-06-07T14:40:35Z</time>
      </trkpt>
      <trkpt lat="40.147350" lon="-5.375000">
        <ele>1069.0</ele>
        <time>2015-06-07T14:40:37Z</time>
      </trkpt>
      <trkpt lat="40.147233" lon="-5.375217">
        <ele>1062.0</ele>
        <time>2015-06-07T14:40:39Z</time>
      </trkpt>
      <trkpt lat="40.147117" lon="-5.375433">
        <ele>1056.0</ele>
        <time>2015-06-07T14:40:41Z</time>
      </trkpt>
      <trkpt lat="40.147000" lon="-5.375633">
        <ele>1050.0</ele>
        <time>2015-06-07T14:40:43Z</time>
      </trkpt>
      <trkpt lat="40.146883" lon="-5.375867">
        <ele>1044.0</ele>
        <time>2015-06-07T14:40:45Z</time>
      </trkpt>
      <trkpt lat="40.146783" lon="-5.376100">
        <ele>1037.0</ele>
        <time>2015-06-07T14:40:47Z</time>
      </trkpt>
      <trkpt lat="40.146667" lon="-5.376333">
        <ele>1032.0</ele>
        <time>2015-06-07T14:40:49Z</time>
      </trkpt>
      <trkpt lat="40.146550" lon="-5.376517">
        <ele>1027.0</ele>
        <time>2015-06-07T14:40:51Z</time>
      </trkpt>
      <trkpt lat="40.146433" lon="-5.376750">
        <ele>1019.0</ele>
        <time>2015-06-07T14:40:53Z</time>
      </trkpt>
      <trkpt lat="40.146300" lon="-5.376950">
        <ele>1013.0</ele>
        <time>2015-06-07T14:40:55Z</time>
      </trkpt>
      <trkpt lat="40.146167" lon="-5.377133">
        <ele>1007.0</ele>
        <time>2015-06-07T14:40:57Z</time>
      </trkpt>
      <trkpt lat="40.146017" lon="-5.377317">
        <ele>999.0</ele>
        <time>2015-06-07T14:40:59Z</time>
      </trkpt>
      <trkpt lat="40.145883" lon="-5.377533">
        <ele>992.0</ele>
        <time>2015-06-07T14:41:01Z</time>
      </trkpt>
      <trkpt lat="40.145750" lon="-5.377750">
        <ele>986.0</ele>
        <time>2015-06-07T14:41:03Z</time>
      </trkpt>
      <trkpt lat="40.145617" lon="-5.377950">
        <ele>980.0</ele>
        <time>2015-06-07T14:41:05Z</time>
      </trkpt>
      <trkpt lat="40.145483" lon="-5.378167">
        <ele>973.0</ele>
        <time>2015-06-07T14:41:07Z</time>
      </trkpt>
      <trkpt lat="40.145350" lon="-5.378383">
        <ele>968.0</ele>
        <time>2015-06-07T14:41:09Z</time>
      </trkpt>
      <trkpt lat="40.145233" lon="-5.378600">
        <ele>962.0</ele>
        <time>2015-06-07T14:41:11Z</time>
      </trkpt>
      <trkpt lat="40.145117" lon="-5.378817">
        <ele>954.0</ele>
        <time>2015-06-07T14:41:13Z</time>
      </trkpt>
      <trkpt lat="40.144983" lon="-5.379067">
        <ele>948.0</ele>
        <time>2015-06-07T14:41:15Z</time>
      </trkpt>
      <trkpt lat="40.144867" lon="-5.379283">
        <ele>941.0</ele>
        <time>2015-06-07T14:41:17Z</time>
      </trkpt>
      <trkpt lat="40.144717" lon="-5.379467">
        <ele>934.0</ele>
        <time>2015-06-07T14:41:19Z</time>
      </trkpt>
      <trkpt lat="40.144533" lon="-5.379617">
        <ele>928.0</ele>
        <time>2015-06-07T14:41:21Z</time>
      </trkpt>
      <trkpt lat="40.144350" lon="-5.379717">
        <ele>921.0</ele>
        <time>2015-06-07T14:41:23Z</time>
      </trkpt>
      <trkpt lat="40.144150" lon="-5.379833">
        <ele>914.0</ele>
        <time>2015-06-07T14:41:25Z</time>
      </trkpt>
      <trkpt lat="40.143967" lon="-5.379967">
        <ele>907.0</ele>
        <time>2015-06-07T14:41:27Z</time>
      </trkpt>
      <trkpt lat="40.143783" lon="-5.380100">
        <ele>900.0</ele>
        <time>2015-06-07T14:41:29Z</time>
      </trkpt>
      <trkpt lat="40.143583" lon="-5.380233">
        <ele>893.0</ele>
        <time>2015-06-07T14:41:31Z</time>
      </trkpt>
      <trkpt lat="40.143400" lon="-5.380367">
        <ele>886.0</ele>
        <time>2015-06-07T14:41:33Z</time>
      </trkpt>
      <trkpt lat="40.143200" lon="-5.380467">
        <ele>880.0</ele>
        <time>2015-06-07T14:41:35Z</time>
      </trkpt>
      <trkpt lat="40.143000" lon="-5.380533">
        <ele>874.0</ele>
        <time>2015-06-07T14:41:37Z</time>
      </trkpt>
      <trkpt lat="40.142800" lon="-5.380617">
        <ele>867.0</ele>
        <time>2015-06-07T14:41:39Z</time>
      </trkpt>
      <trkpt lat="40.142617" lon="-5.380733">
        <ele>861.0</ele>
        <time>2015-06-07T14:41:41Z</time>
      </trkpt>
      <trkpt lat="40.142433" lon="-5.380867">
        <ele>855.0</ele>
        <time>2015-06-07T14:41:43Z</time>
      </trkpt>
      <trkpt lat="40.142267" lon="-5.381050">
        <ele>851.0</ele>
        <time>2015-06-07T14:41:45Z</time>
      </trkpt>
      <trkpt lat="40.142150" lon="-5.381300">
        <ele>846.0</ele>
        <time>2015-06-07T14:41:47Z</time>
      </trkpt>
      <trkpt lat="40.142067" lon="-5.381550">
        <ele>841.0</ele>
        <time>2015-06-07T14:41:49Z</time>
      </trkpt>
      <trkpt lat="40.142000" lon="-5.381833">
        <ele>836.0</ele>
        <time>2015-06-07T14:41:51Z</time>
      </trkpt>
      <trkpt lat="40.141900" lon="-5.382133">
        <ele>833.0</ele>
        <time>2015-06-07T14:41:53Z</time>
      </trkpt>
      <trkpt lat="40.141817" lon="-5.382400">
        <ele>835.0</ele>
        <time>2015-06-07T14:41:55Z</time>
      </trkpt>
      <trkpt lat="40.141767" lon="-5.382650">
        <ele>836.0</ele>
        <time>2015-06-07T14:41:57Z</time>
      </trkpt>
      <trkpt lat="40.141783" lon="-5.382900">
        <ele>835.0</ele>
        <time>2015-06-07T14:41:59Z</time>
      </trkpt>
      <trkpt lat="40.141817" lon="-5.383150">
        <ele>835.0</ele>
        <time>2015-06-07T14:42:01Z</time>
      </trkpt>
      <trkpt lat="40.141900" lon="-5.383367">
        <ele>834.0</ele>
        <time>2015-06-07T14:42:03Z</time>
      </trkpt>
      <trkpt lat="40.142017" lon="-5.383500">
        <ele>832.0</ele>
        <time>2015-06-07T14:42:05Z</time>
      </trkpt>
      <trkpt lat="40.142133" lon="-5.383533">
        <ele>831.0</ele>
        <time>2015-06-07T14:42:07Z</time>
      </trkpt>
      <trkpt lat="40.142233" lon="-5.383483">
        <ele>831.0</ele>
        <time>2015-06-07T14:42:09Z</time>
      </trkpt>
      <trkpt lat="40.142300" lon="-5.383400">
        <ele>832.0</ele>
        <time>2015-06-07T14:42:11Z</time>
      </trkpt>
      <trkpt lat="40.142283" lon="-5.383267">
        <ele>830.0</ele>
        <time>2015-06-07T14:42:13Z</time>
      </trkpt>
      <trkpt lat="40.142217" lon="-5.383133">
        <ele>828.0</ele>
        <time>2015-06-07T14:42:15Z</time>
      </trkpt>
      <trkpt lat="40.142067" lon="-5.383033">
        <ele>826.0</ele>
        <time>2015-06-07T14:42:17Z</time>
      </trkpt>
      <trkpt lat="40.141867" lon="-5.383017">
        <ele>824.0</ele>
        <time>2015-06-07T14:42:19Z</time>
      </trkpt>
      <trkpt lat="40.141650" lon="-5.383000">
        <ele>820.0</ele>
        <time>2015-06-07T14:42:21Z</time>
      </trkpt>
      <trkpt lat="40.141417" lon="-5.383033">
        <ele>818.0</ele>
        <time>2015-06-07T14:42:23Z</time>
      </trkpt>
      <trkpt lat="40.141217" lon="-5.383183">
        <ele>817.0</ele>
        <time>2015-06-07T14:42:25Z</time>
      </trkpt>
      <trkpt lat="40.141050" lon="-5.383400">
        <ele>818.0</ele>
        <time>2015-06-07T14:42:27Z</time>
      </trkpt>
      <trkpt lat="40.140917" lon="-5.383617">
        <ele>819.0</ele>
        <time>2015-06-07T14:42:29Z</time>
      </trkpt>
      <trkpt lat="40.140833" lon="-5.383900">
        <ele>817.0</ele>
        <time>2015-06-07T14:42:31Z</time>
      </trkpt>
      <trkpt lat="40.140783" lon="-5.384217">
        <ele>818.0</ele>
        <time>2015-06-07T14:42:33Z</time>
      </trkpt>
      <trkpt lat="40.140700" lon="-5.384483">
        <ele>822.0</ele>
        <time>2015-06-07T14:42:35Z</time>
      </trkpt>
      <trkpt lat="40.140567" lon="-5.384700">
        <ele>824.0</ele>
        <time>2015-06-07T14:42:37Z</time>
      </trkpt>
      <trkpt lat="40.140383" lon="-5.384850">
        <ele>824.0</ele>
        <time>2015-06-07T14:42:39Z</time>
      </trkpt>
      <trkpt lat="40.140167" lon="-5.384933">
        <ele>822.0</ele>
        <time>2015-06-07T14:42:41Z</time>
      </trkpt>
      <trkpt lat="40.139950" lon="-5.385050">
        <ele>823.0</ele>
        <time>2015-06-07T14:42:43Z</time>
      </trkpt>
      <trkpt lat="40.139800" lon="-5.385267">
        <ele>823.0</ele>
        <time>2015-06-07T14:42:45Z</time>
      </trkpt>
      <trkpt lat="40.139733" lon="-5.385517">
        <ele>821.0</ele>
        <time>2015-06-07T14:42:47Z</time>
      </trkpt>
      <trkpt lat="40.139733" lon="-5.385783">
        <ele>819.0</ele>
        <time>2015-06-07T14:42:49Z</time>
      </trkpt>
      <trkpt lat="40.139817" lon="-5.386000">
        <ele>817.0</ele>
        <time>2015-06-07T14:42:51Z</time>
      </trkpt>
      <trkpt lat="40.139917" lon="-5.386133">
        <ele>816.0</ele>
        <time>2015-06-07T14:42:53Z</time>
      </trkpt>
      <trkpt lat="40.140017" lon="-5.386183">
        <ele>812.0</ele>
        <time>2015-06-07T14:42:55Z</time>
      </trkpt>
      <trkpt lat="40.140133" lon="-5.386133">
        <ele>808.0</ele>
        <time>2015-06-07T14:42:57Z</time>
      </trkpt>
      <trkpt lat="40.140200" lon="-5.386000">
        <ele>806.0</ele>
        <time>2015-06-07T14:42:59Z</time>
      </trkpt>
      <trkpt lat="40.140233" lon="-5.385850">
        <ele>805.0</ele>
        <time>2015-06-07T14:43:01Z</time>
      </trkpt>
      <trkpt lat="40.140267" lon="-5.385700">
        <ele>805.0</ele>
        <time>2015-06-07T14:43:03Z</time>
      </trkpt>
      <trkpt lat="40.140250" lon="-5.385533">
        <ele>805.0</ele>
        <time>2015-06-07T14:43:05Z</time>
      </trkpt>
      <trkpt lat="40.140183" lon="-5.385367">
        <ele>806.0</ele>
        <time>2015-06-07T14:43:07Z</time>
      </trkpt>
      <trkpt lat="40.140100" lon="-5.385200">
        <ele>808.0</ele>
        <time>2015-06-07T14:43:09Z</time>
      </trkpt>
      <trkpt lat="40.139950" lon="-5.385067">
        <ele>810.0</ele>
        <time>2015-06-07T14:43:11Z</time>
      </trkpt>
      <trkpt lat="40.139800" lon="-5.384983">
        <ele>812.0</ele>
        <time>2015-06-07T14:43:13Z</time>
      </trkpt>
      <trkpt lat="40.139600" lon="-5.384950">
        <ele>815.0</ele>
        <time>2015-06-07T14:43:15Z</time>
      </trkpt>
      <trkpt lat="40.139400" lon="-5.384983">
        <ele>819.0</ele>
        <time>2015-06-07T14:43:17Z</time>
      </trkpt>
      <trkpt lat="40.139217" lon="-5.385117">
        <ele>822.0</ele>
        <time>2015-06-07T14:43:19Z</time>
      </trkpt>
      <trkpt lat="40.139083" lon="-5.385400">
        <ele>825.0</ele>
        <time>2015-06-07T14:43:21Z</time>
      </trkpt>
      <trkpt lat="40.139067" lon="-5.385633">
        <ele>830.0</ele>
        <time>2015-06-07T14:43:23Z</time>
      </trkpt>
      <trkpt lat="40.139100" lon="-5.385833">
        <ele>832.0</ele>
        <time>2015-06-07T14:43:25Z</time>
      </trkpt>
      <trkpt lat="40.139217" lon="-5.385967">
        <ele>831.0</ele>
        <time>2015-06-07T14:43:27Z</time>
      </trkpt>
      <trkpt lat="40.139333" lon="-5.385917">
        <ele>833.0</ele>
        <time>2015-06-07T14:43:29Z</time>
      </trkpt>
      <trkpt lat="40.139367" lon="-5.385783">
        <ele>837.0</ele>
        <time>2015-06-07T14:43:31Z</time>
      </trkpt>
      <trkpt lat="40.139350" lon="-5.385633">
        <ele>838.0</ele>
        <time>2015-06-07T14:43:33Z</time>
      </trkpt>
      <trkpt lat="40.139283" lon="-5.385450">
        <ele>839.0</ele>
        <time>2015-06-07T14:43:35Z</time>
      </trkpt>
      <trkpt lat="40.139133" lon="-5.385317">
        <ele>844.0</ele>
        <time>2015-06-07T14:43:37Z</time>
      </trkpt>
      <trkpt lat="40.138950" lon="-5.385300">
        <ele>849.0</ele>
        <time>2015-06-07T14:43:39Z</time>
      </trkpt>
      <trkpt lat="40.138783" lon="-5.385367">
        <ele>852.0</ele>
        <time>2015-06-07T14:43:41Z</time>
      </trkpt>
      <trkpt lat="40.138633" lon="-5.385533">
        <ele>854.0</ele>
        <time>2015-06-07T14:43:43Z</time>
      </trkpt>
      <trkpt lat="40.138550" lon="-5.385783">
        <ele>857.0</ele>
        <time>2015-06-07T14:43:45Z</time>
      </trkpt>
      <trkpt lat="40.138583" lon="-5.386017">
        <ele>859.0</ele>
        <time>2015-06-07T14:43:47Z</time>
      </trkpt>
      <trkpt lat="40.138683" lon="-5.386200">
        <ele>860.0</ele>
        <time>2015-06-07T14:43:49Z</time>
      </trkpt>
      <trkpt lat="40.138800" lon="-5.386283">
        <ele>863.0</ele>
        <time>2015-06-07T14:43:51Z</time>
      </trkpt>
      <trkpt lat="40.138883" lon="-5.386267">
        <ele>865.0</ele>
        <time>2015-06-07T14:43:53Z</time>
      </trkpt>
      <trkpt lat="40.138967" lon="-5.386150">
        <ele>866.0</ele>
        <time>2015-06-07T14:43:55Z</time>
      </trkpt>
      <trkpt lat="40.139017" lon="-5.385983">
        <ele>869.0</ele>
        <time>2015-06-07T14:43:57Z</time>
      </trkpt>
      <trkpt lat="40.138983" lon="-5.385800">
        <ele>873.0</ele>
        <time>2015-06-07T14:43:59Z</time>
      </trkpt>
      <trkpt lat="40.138867" lon="-5.385650">
        <ele>876.0</ele>
        <time>2015-06-07T14:44:01Z</time>
      </trkpt>
      <trkpt lat="40.138700" lon="-5.385550">
        <ele>878.0</ele>
        <time>2015-06-07T14:44:03Z</time>
      </trkpt>
      <trkpt lat="40.138500" lon="-5.385550">
        <ele>882.0</ele>
        <time>2015-06-07T14:44:05Z</time>
      </trkpt>
      <trkpt lat="40.138350" lon="-5.385667">
        <ele>888.0</ele>
        <time>2015-06-07T14:44:07Z</time>
      </trkpt>
      <trkpt lat="40.138233" lon="-5.385833">
        <ele>891.0</ele>
        <time>2015-06-07T14:44:09Z</time>
      </trkpt>
      <trkpt lat="40.138183" lon="-5.386100">
        <ele>894.0</ele>
        <time>2015-06-07T14:44:11Z</time>
      </trkpt>
      <trkpt lat="40.138233" lon="-5.386317">
        <ele>896.0</ele>
        <time>2015-06-07T14:44:13Z</time>
      </trkpt>
      <trkpt lat="40.138350" lon="-5.386450">
        <ele>899.0</ele>
        <time>2015-06-07T14:44:15Z</time>
      </trkpt>
      <trkpt lat="40.138483" lon="-5.386517">
        <ele>900.0</ele>
        <time>2015-06-07T14:44:17Z</time>
      </trkpt>
      <trkpt lat="40.138617" lon="-5.386450">
        <ele>902.0</ele>
        <time>2015-06-07T14:44:19Z</time>
      </trkpt>
      <trkpt lat="40.138700" lon="-5.386317">
        <ele>906.0</ele>
        <time>2015-06-07T14:44:21Z</time>
      </trkpt>
      <trkpt lat="40.138700" lon="-5.386150">
        <ele>908.0</ele>
        <time>2015-06-07T14:44:23Z</time>
      </trkpt>
      <trkpt lat="40.138633" lon="-5.385933">
        <ele>909.0</ele>
        <time>2015-06-07T14:44:25Z</time>
      </trkpt>
      <trkpt lat="40.138467" lon="-5.385783">
        <ele>910.0</ele>
        <time>2015-06-07T14:44:27Z</time>
      </trkpt>
      <trkpt lat="40.138267" lon="-5.385750">
        <ele>913.0</ele>
        <time>2015-06-07T14:44:29Z</time>
      </trkpt>
      <trkpt lat="40.138083" lon="-5.385800">
        <ele>915.0</ele>
        <time>2015-06-07T14:44:31Z</time>
      </trkpt>
      <trkpt lat="40.137917" lon="-5.385967">
        <ele>915.0</ele>
        <time>2015-06-07T14:44:33Z</time>
      </trkpt>
      <trkpt lat="40.137783" lon="-5.386217">
        <ele>919.0</ele>
        <time>2015-06-07T14:44:35Z</time>
      </trkpt>
      <trkpt lat="40.137733" lon="-5.386417">
        <ele>926.0</ele>
        <time>2015-06-07T14:44:37Z</time>
      </trkpt>
      <trkpt lat="40.137733" lon="-5.386633">
        <ele>928.0</ele>
        <time>2015-06-07T14:44:39Z</time>
      </trkpt>
      <trkpt lat="40.137817" lon="-5.386867">
        <ele>930.0</ele>
        <time>2015-06-07T14:44:41Z</time>
      </trkpt>
      <trkpt lat="40.137967" lon="-5.386933">
        <ele>934.0</ele>
        <time>2015-06-07T14:44:43Z</time>
      </trkpt>
      <trkpt lat="40.138083" lon="-5.386900">
        <ele>939.0</ele>
        <time>2015-06-07T14:44:45Z</time>
      </trkpt>
      <trkpt lat="40.138200" lon="-5.386833">
        <ele>941.0</ele>
        <time>2015-06-07T14:44:47Z</time>
      </trkpt>
      <trkpt lat="40.138267" lon="-5.386667">
        <ele>941.0</ele>
        <time>2015-06-07T14:44:49Z</time>
      </trkpt>
      <trkpt lat="40.138217" lon="-5.386417">
        <ele>941.0</ele>
        <time>2015-06-07T14:44:51Z</time>
      </trkpt>
      <trkpt lat="40.138083" lon="-5.386250">
        <ele>945.0</ele>
        <time>2015-06-07T14:44:53Z</time>
      </trkpt>
      <trkpt lat="40.137917" lon="-5.386150">
        <ele>947.0</ele>
        <time>2015-06-07T14:44:55Z</time>
      </trkpt>
      <trkpt lat="40.137700" lon="-5.386133">
        <ele>948.0</ele>
        <time>2015-06-07T14:44:57Z</time>
      </trkpt>
      <trkpt lat="40.137500" lon="-5.386250">
        <ele>949.0</ele>
        <time>2015-06-07T14:44:59Z</time>
      </trkpt>
      <trkpt lat="40.137317" lon="-5.386400">
        <ele>952.0</ele>
        <time>2015-06-07T14:45:01Z</time>
      </trkpt>
      <trkpt lat="40.137183" lon="-5.386600">
        <ele>956.0</ele>
        <time>2015-06-07T14:45:03Z</time>
      </trkpt>
      <trkpt lat="40.137133" lon="-5.386867">
        <ele>958.0</ele>
        <time>2015-06-07T14:45:05Z</time>
      </trkpt>
      <trkpt lat="40.137167" lon="-5.387083">
        <ele>962.0</ele>
        <time>2015-06-07T14:45:07Z</time>
      </trkpt>
      <trkpt lat="40.137267" lon="-5.387267">
        <ele>965.0</ele>
        <time>2015-06-07T14:45:09Z</time>
      </trkpt>
      <trkpt lat="40.137417" lon="-5.387333">
        <ele>967.0</ele>
        <time>2015-06-07T14:45:11Z</time>
      </trkpt>
      <trkpt lat="40.137550" lon="-5.387283">
        <ele>973.0</ele>
        <time>2015-06-07T14:45:13Z</time>
      </trkpt>
      <trkpt lat="40.137600" lon="-5.387133">
        <ele>975.0</ele>
        <time>2015-06-07T14:45:15Z</time>
      </trkpt>
      <trkpt lat="40.137617" lon="-5.386917">
        <ele>975.0</ele>
        <time>2015-06-07T14:45:17Z</time>
      </trkpt>
      <trkpt lat="40.137533" lon="-5.386667">
        <ele>976.0</ele>
        <time>2015-06-07T14:45:19Z</time>
      </trkpt>
      <trkpt lat="40.137383" lon="-5.386500">
        <ele>981.0</ele>
        <time>2015-06-07T14:45:21Z</time>
      </trkpt>
      <trkpt lat="40.137200" lon="-5.386417">
        <ele>984.0</ele>
        <time>2015-06-07T14:45:23Z</time>
      </trkpt>
      <trkpt lat="40.136983" lon="-5.386433">
        <ele>984.0</ele>
        <time>2015-06-07T14:45:25Z</time>
      </trkpt>
      <trkpt lat="40.136767" lon="-5.386533">
        <ele>986.0</ele>
        <time>2015-06-07T14:45:27Z</time>
      </trkpt>
      <trkpt lat="40.136617" lon="-5.386717">
        <ele>988.0</ele>
        <time>2015-06-07T14:45:29Z</time>
      </trkpt>
      <trkpt lat="40.136517" lon="-5.386950">
        <ele>989.0</ele>
        <time>2015-06-07T14:45:31Z</time>
      </trkpt>
      <trkpt lat="40.136500" lon="-5.387217">
        <ele>992.0</ele>
        <time>2015-06-07T14:45:33Z</time>
      </trkpt>
      <trkpt lat="40.136550" lon="-5.387417">
        <ele>996.0</ele>
        <time>2015-06-07T14:45:35Z</time>
      </trkpt>
      <trkpt lat="40.136633" lon="-5.387533">
        <ele>999.0</ele>
        <time>2015-06-07T14:45:37Z</time>
      </trkpt>
      <trkpt lat="40.136750" lon="-5.387533">
        <ele>1001.0</ele>
        <time>2015-06-07T14:45:39Z</time>
      </trkpt>
      <trkpt lat="40.136850" lon="-5.387450">
        <ele>1003.0</ele>
        <time>2015-06-07T14:45:41Z</time>
      </trkpt>
      <trkpt lat="40.136883" lon="-5.387250">
        <ele>1005.0</ele>
        <time>2015-06-07T14:45:43Z</time>
      </trkpt>
      <trkpt lat="40.136817" lon="-5.387000">
        <ele>1006.0</ele>
        <time>2015-06-07T14:45:45Z</time>
      </trkpt>
      <trkpt lat="40.136650" lon="-5.386817">
        <ele>1010.0</ele>
        <time>2015-06-07T14:45:47Z</time>
      </trkpt>
      <trkpt lat="40.136467" lon="-5.386767">
        <ele>1014.0</ele>
        <time>2015-06-07T14:45:49Z</time>
      </trkpt>
      <trkpt lat="40.136283" lon="-5.386800">
        <ele>1015.0</ele>
        <time>2015-06-07T14:45:51Z</time>
      </trkpt>
      <trkpt lat="40.136083" lon="-5.386933">
        <ele>1015.0</ele>
        <time>2015-06-07T14:45:53Z</time>
      </trkpt>
      <trkpt lat="40.135917" lon="-5.387167">
        <ele>1015.0</ele>
        <time>2015-06-07T14:45:55Z</time>
      </trkpt>
      <trkpt lat="40.135850" lon="-5.387400">
        <ele>1019.0</ele>
        <time>2015-06-07T14:45:57Z</time>
      </trkpt>
      <trkpt lat="40.135833" lon="-5.387633">
        <ele>1020.0</ele>
        <time>2015-06-07T14:45:59Z</time>
      </trkpt>
      <trkpt lat="40.135917" lon="-5.387817">
        <ele>1021.0</ele>
        <time>2015-06-07T14:46:01Z</time>
      </trkpt>
      <trkpt lat="40.136033" lon="-5.387883">
        <ele>1023.0</ele>
        <time>2015-06-07T14:46:03Z</time>
      </trkpt>
      <trkpt lat="40.136150" lon="-5.387817">
        <ele>1025.0</ele>
        <time>2015-06-07T14:46:05Z</time>
      </trkpt>
      <trkpt lat="40.136217" lon="-5.387667">
        <ele>1028.0</ele>
        <time>2015-06-07T14:46:07Z</time>
      </trkpt>
      <trkpt lat="40.136217" lon="-5.387467">
        <ele>1029.0</ele>
        <time>2015-06-07T14:46:09Z</time>
      </trkpt>
      <trkpt lat="40.136150" lon="-5.387250">
        <ele>1029.0</ele>
        <time>2015-06-07T14:46:11Z</time>
      </trkpt>
      <trkpt lat="40.135983" lon="-5.387117">
        <ele>1032.0</ele>
        <time>2015-06-07T14:46:13Z</time>
      </trkpt>
      <trkpt lat="40.135817" lon="-5.387083">
        <ele>1035.0</ele>
        <time>2015-06-07T14:46:15Z</time>
      </trkpt>
      <trkpt lat="40.135617" lon="-5.387117">
        <ele>1034.0</ele>
        <time>2015-06-07T14:46:17Z</time>
      </trkpt>
      <trkpt lat="40.135417" lon="-5.387283">
        <ele>1035.0</ele>
        <time>2015-06-07T14:46:19Z</time>
      </trkpt>
      <trkpt lat="40.135300" lon="-5.387517">
        <ele>1037.0</ele>
        <time>2015-06-07T14:46:21Z</time>
      </trkpt>
      <trkpt lat="40.135250" lon="-5.387750">
        <ele>1039.0</ele>
        <time>2015-06-07T14:46:23Z</time>
      </trkpt>
      <trkpt lat="40.135283" lon="-5.388000">
        <ele>1039.0</ele>
        <time>2015-06-07T14:46:25Z</time>
      </trkpt>
      <trkpt lat="40.135367" lon="-5.388167">
        <ele>1041.0</ele>
        <time>2015-06-07T14:46:27Z</time>
      </trkpt>
      <trkpt lat="40.135483" lon="-5.388250">
        <ele>1044.0</ele>
        <time>2015-06-07T14:46:29Z</time>
      </trkpt>
      <trkpt lat="40.135600" lon="-5.388233">
        <ele>1044.0</ele>
        <time>2015-06-07T14:46:31Z</time>
      </trkpt>
      <trkpt lat="40.135717" lon="-5.388083">
        <ele>1047.0</ele>
        <time>2015-06-07T14:46:33Z</time>
      </trkpt>
      <trkpt lat="40.135783" lon="-5.387917">
        <ele>1053.0</ele>
        <time>2015-06-07T14:46:35Z</time>
      </trkpt>
      <trkpt lat="40.135850" lon="-5.387800">
        <ele>1054.0</ele>
        <time>2015-06-07T14:46:37Z</time>
      </trkpt>
      <trkpt lat="40.135867" lon="-5.387600">
        <ele>1053.0</ele>
        <time>2015-06-07T14:46:39Z</time>
      </trkpt>
      <trkpt lat="40.135767" lon="-5.387400">
        <ele>1054.0</ele>
        <time>2015-06-07T14:46:41Z</time>
      </trkpt>
      <trkpt lat="40.135617" lon="-5.387300">
        <ele>1057.0</ele>
        <time>2015-06-07T14:46:43Z</time>
      </trkpt>
      <trkpt lat="40.135450" lon="-5.387250">
        <ele>1058.0</ele>
        <time>2015-06-07T14:46:45Z</time>
      </trkpt>
      <trkpt lat="40.135250" lon="-5.387283">
        <ele>1057.0</ele>
        <time>2015-06-07T14:46:47Z</time>
      </trkpt>
      <trkpt lat="40.135067" lon="-5.387450">
        <ele>1058.0</ele>
        <time>2015-06-07T14:46:49Z</time>
      </trkpt>
      <trkpt lat="40.134967" lon="-5.387650">
        <ele>1061.0</ele>
        <time>2015-06-07T14:46:51Z</time>
      </trkpt>
      <trkpt lat="40.134900" lon="-5.387883">
        <ele>1062.0</ele>
        <time>2015-06-07T14:46:53Z</time>
      </trkpt>
      <trkpt lat="40.134917" lon="-5.388133">
        <ele>1062.0</ele>
        <time>2015-06-07T14:46:55Z</time>
      </trkpt>
      <trkpt lat="40.135000" lon="-5.388333">
        <ele>1064.0</ele>
        <time>2015-06-07T14:46:57Z</time>
      </trkpt>
      <trkpt lat="40.135133" lon="-5.388467">
        <ele>1067.0</ele>
        <time>2015-06-07T14:46:59Z</time>
      </trkpt>
      <trkpt lat="40.135250" lon="-5.388550">
        <ele>1071.0</ele>
        <time>2015-06-07T14:47:01Z</time>
      </trkpt>
      <trkpt lat="40.135367" lon="-5.388583">
        <ele>1072.0</ele>
        <time>2015-06-07T14:47:03Z</time>
      </trkpt>
      <trkpt lat="40.135450" lon="-5.388517">
        <ele>1073.0</ele>
        <time>2015-06-07T14:47:05Z</time>
      </trkpt>
      <trkpt lat="40.135467" lon="-5.388350">
        <ele>1074.0</ele>
        <time>2015-06-07T14:47:07Z</time>
      </trkpt>
      <trkpt lat="40.135417" lon="-5.388167">
        <ele>1075.0</ele>
        <time>2015-06-07T14:47:09Z</time>
      </trkpt>
      <trkpt lat="40.135267" lon="-5.388033">
        <ele>1075.0</ele>
        <time>2015-06-07T14:47:11Z</time>
      </trkpt>
      <trkpt lat="40.135067" lon="-5.387967">
        <ele>1075.0</ele>
        <time>2015-06-07T14:47:13Z</time>
      </trkpt>
      <trkpt lat="40.134850" lon="-5.387967">
        <ele>1075.0</ele>
        <time>2015-06-07T14:47:15Z</time>
      </trkpt>
      <trkpt lat="40.134650" lon="-5.388067">
        <ele>1078.0</ele>
        <time>2015-06-07T14:47:17Z</time>
      </trkpt>
      <trkpt lat="40.134467" lon="-5.388217">
        <ele>1082.0</ele>
        <time>2015-06-07T14:47:19Z</time>
      </trkpt>
      <trkpt lat="40.134333" lon="-5.388400">
        <ele>1085.0</ele>
        <time>2015-06-07T14:47:21Z</time>
      </trkpt>
      <trkpt lat="40.134250" lon="-5.388667">
        <ele>1086.0</ele>
        <time>2015-06-07T14:47:23Z</time>
      </trkpt>
      <trkpt lat="40.134267" lon="-5.388950">
        <ele>1089.0</ele>
        <time>2015-06-07T14:47:25Z</time>
      </trkpt>
      <trkpt lat="40.134350" lon="-5.389117">
        <ele>1092.0</ele>
        <time>2015-06-07T14:47:27Z</time>
      </trkpt>
      <trkpt lat="40.134467" lon="-5.389117">
        <ele>1096.0</ele>
        <time>2015-06-07T14:47:29Z</time>
      </trkpt>
      <trkpt lat="40.134533" lon="-5.389000">
        <ele>1099.0</ele>
        <time>2015-06-07T14:47:31Z</time>
      </trkpt>
      <trkpt lat="40.134533" lon="-5.388850">
        <ele>1102.0</ele>
        <time>2015-06-07T14:47:33Z</time>
      </trkpt>
      <trkpt lat="40.134433" lon="-5.388667">
        <ele>1102.0</ele>
        <time>2015-06-07T14:47:35Z</time>
      </trkpt>
      <trkpt lat="40.134233" lon="-5.388500">
        <ele>1103.0</ele>
        <time>2015-06-07T14:47:37Z</time>
      </trkpt>
      <trkpt lat="40.134000" lon="-5.388417">
        <ele>1107.0</ele>
        <time>2015-06-07T14:47:39Z</time>
      </trkpt>
      <trkpt lat="40.133800" lon="-5.388467">
        <ele>1113.0</ele>
        <time>2015-06-07T14:47:41Z</time>
      </trkpt>
      <trkpt lat="40.133633" lon="-5.388600">
        <ele>1115.0</ele>
        <time>2015-06-07T14:47:43Z</time>
      </trkpt>
      <trkpt lat="40.133500" lon="-5.388833">
        <ele>1115.0</ele>
        <time>2015-06-07T14:47:45Z</time>
      </trkpt>
      <trkpt lat="40.133433" lon="-5.389100">
        <ele>1118.0</ele>
        <time>2015-06-07T14:47:47Z</time>
      </trkpt>
      <trkpt lat="40.133400" lon="-5.389300">
        <ele>1121.0</ele>
        <time>2015-06-07T14:47:49Z</time>
      </trkpt>
      <trkpt lat="40.133400" lon="-5.389500">
        <ele>1120.0</ele>
        <time>2015-06-07T14:47:51Z</time>
      </trkpt>
      <trkpt lat="40.133483" lon="-5.389667">
        <ele>1117.0</ele>
        <time>2015-06-07T14:47:53Z</time>
      </trkpt>
      <trkpt lat="40.133633" lon="-5.389767">
        <ele>1116.0</ele>
        <time>2015-06-07T14:47:55Z</time>
      </trkpt>
      <trkpt lat="40.133750" lon="-5.389767">
        <ele>1120.0</ele>
        <time>2015-06-07T14:47:57Z</time>
      </trkpt>
      <trkpt lat="40.133833" lon="-5.389750">
        <ele>1124.0</ele>
        <time>2015-06-07T14:47:59Z</time>
      </trkpt>
      <trkpt lat="40.133917" lon="-5.389650">
        <ele>1125.0</ele>
        <time>2015-06-07T14:48:01Z</time>
      </trkpt>
      <trkpt lat="40.133933" lon="-5.389433">
        <ele>1126.0</ele>
        <time>2015-06-07T14:48:03Z</time>
      </trkpt>
      <trkpt lat="40.133850" lon="-5.389233">
        <ele>1130.0</ele>
        <time>2015-06-07T14:48:05Z</time>
      </trkpt>
      <trkpt lat="40.133717" lon="-5.389067">
        <ele>1133.0</ele>
        <time>2015-06-07T14:48:07Z</time>
      </trkpt>
      <trkpt lat="40.133550" lon="-5.388983">
        <ele>1136.0</ele>
        <time>2015-06-07T14:48:09Z</time>
      </trkpt>
      <trkpt lat="40.133350" lon="-5.389033">
        <ele>1140.0</ele>
        <time>2015-06-07T14:48:11Z</time>
      </trkpt>
      <trkpt lat="40.133200" lon="-5.389150">
        <ele>1142.0</ele>
        <time>2015-06-07T14:48:13Z</time>
      </trkpt>
      <trkpt lat="40.133050" lon="-5.389333">
        <ele>1142.0</ele>
        <time>2015-06-07T14:48:15Z</time>
      </trkpt>
      <trkpt lat="40.132967" lon="-5.389583">
        <ele>1141.0</ele>
        <time>2015-06-07T14:48:17Z</time>
      </trkpt>
      <trkpt lat="40.132950" lon="-5.389800">
        <ele>1143.0</ele>
        <time>2015-06-07T14:48:19Z</time>
      </trkpt>
      <trkpt lat="40.132983" lon="-5.390017">
        <ele>1142.0</ele>
        <time>2015-06-07T14:48:21Z</time>
      </trkpt>
      <trkpt lat="40.133083" lon="-5.390217">
        <ele>1139.0</ele>
        <time>2015-06-07T14:48:23Z</time>
      </trkpt>
      <trkpt lat="40.133233" lon="-5.390333">
        <ele>1141.0</ele>
        <time>2015-06-07T14:48:25Z</time>
      </trkpt>
      <trkpt lat="40.133350" lon="-5.390333">
        <ele>1143.0</ele>
        <time>2015-06-07T14:48:27Z</time>
      </trkpt>
      <trkpt lat="40.133467" lon="-5.390317">
        <ele>1145.0</ele>
        <time>2015-06-07T14:48:29Z</time>
      </trkpt>
      <trkpt lat="40.133533" lon="-5.390217">
        <ele>1148.0</ele>
        <time>2015-06-07T14:48:31Z</time>
      </trkpt>
      <trkpt lat="40.133517" lon="-5.390017">
        <ele>1150.0</ele>
        <time>2015-06-07T14:48:33Z</time>
      </trkpt>
      <trkpt lat="40.133400" lon="-5.389800">
        <ele>1154.0</ele>
        <time>2015-06-07T14:48:35Z</time>
      </trkpt>
      <trkpt lat="40.133217" lon="-5.389683">
        <ele>1159.0</ele>
        <time>2015-06-07T14:48:37Z</time>
      </trkpt>
      <trkpt lat="40.133017" lon="-5.389700">
        <ele>1163.0</ele>
        <time>2015-06-07T14:48:39Z</time>
      </trkpt>
      <trkpt lat="40.132850" lon="-5.389833">
        <ele>1164.0</ele>
        <time>2015-06-07T14:48:41Z</time>
      </trkpt>
      <trkpt lat="40.132750" lon="-5.390083">
        <ele>1163.0</ele>
        <time>2015-06-07T14:48:43Z</time>
      </trkpt>
      <trkpt lat="40.132800" lon="-5.390317">
        <ele>1162.0</ele>
        <time>2015-06-07T14:48:45Z</time>
      </trkpt>
      <trkpt lat="40.132933" lon="-5.390433">
        <ele>1163.0</ele>
        <time>2015-06-07T14:48:47Z</time>
      </trkpt>
      <trkpt lat="40.133050" lon="-5.390450">
        <ele>1165.0</ele>
        <time>2015-06-07T14:48:49Z</time>
      </trkpt>
      <trkpt lat="40.133200" lon="-5.390400">
        <ele>1168.0</ele>
        <time>2015-06-07T14:48:51Z</time>
      </trkpt>
      <trkpt lat="40.133300" lon="-5.390300">
        <ele>1174.0</ele>
        <time>2015-06-07T14:48:53Z</time>
      </trkpt>
      <trkpt lat="40.133350" lon="-5.390183">
        <ele>1177.0</ele>
        <time>2015-06-07T14:48:55Z</time>
      </trkpt>
      <trkpt lat="40.133350" lon="-5.389967">
        <ele>1177.0</ele>
        <time>2015-06-07T14:48:57Z</time>
      </trkpt>
      <trkpt lat="40.133267" lon="-5.389750">
        <ele>1182.0</ele>
        <time>2015-06-07T14:48:59Z</time>
      </trkpt>
      <trkpt lat="40.133117" lon="-5.389667">
        <ele>1186.0</ele>
        <time>2015-06-07T14:49:01Z</time>
      </trkpt>
      <trkpt lat="40.132933" lon="-5.389617">
        <ele>1186.0</ele>
        <time>2015-06-07T14:49:03Z</time>
      </trkpt>
      <trkpt lat="40.132750" lon="-5.389700">
        <ele>1185.0</ele>
        <time>2015-06-07T14:49:05Z</time>
      </trkpt>
      <trkpt lat="40.132600" lon="-5.389933">
        <ele>1185.0</ele>
        <time>2015-06-07T14:49:07Z</time>
      </trkpt>
      <trkpt lat="40.132567" lon="-5.390200">
        <ele>1187.0</ele>
        <time>2015-06-07T14:49:09Z</time>
      </trkpt>
      <trkpt lat="40.132567" lon="-5.390433">
        <ele>1187.0</ele>
        <time>2015-06-07T14:49:11Z</time>
      </trkpt>
      <trkpt lat="40.132617" lon="-5.390650">
        <ele>1188.0</ele>
        <time>2015-06-07T14:49:13Z</time>
      </trkpt>
      <trkpt lat="40.132717" lon="-5.390817">
        <ele>1187.0</ele>
        <time>2015-06-07T14:49:15Z</time>
      </trkpt>
      <trkpt lat="40.132883" lon="-5.390950">
        <ele>1188.0</ele>
        <time>2015-06-07T14:49:17Z</time>
      </trkpt>
      <trkpt lat="40.133033" lon="-5.390933">
        <ele>1193.0</ele>
        <time>2015-06-07T14:49:19Z</time>
      </trkpt>
      <trkpt lat="40.133150" lon="-5.390900">
        <ele>1198.0</ele>
        <time>2015-06-07T14:49:21Z</time>
      </trkpt>
      <trkpt lat="40.133267" lon="-5.390800">
        <ele>1200.0</ele>
        <time>2015-06-07T14:49:23Z</time>
      </trkpt>
      <trkpt lat="40.133317" lon="-5.390617">
        <ele>1201.0</ele>
        <time>2015-06-07T14:49:25Z</time>
      </trkpt>
      <trkpt lat="40.133283" lon="-5.390433">
        <ele>1202.0</ele>
        <time>2015-06-07T14:49:27Z</time>
      </trkpt>
      <trkpt lat="40.133150" lon="-5.390250">
        <ele>1201.0</ele>
        <time>2015-06-07T14:49:29Z</time>
      </trkpt>
      <trkpt lat="40.132933" lon="-5.390233">
        <ele>1201.0</ele>
        <time>2015-06-07T14:49:31Z</time>
      </trkpt>
      <trkpt lat="40.132767" lon="-5.390383">
        <ele>1203.0</ele>
        <time>2015-06-07T14:49:33Z</time>
      </trkpt>
      <trkpt lat="40.132650" lon="-5.390583">
        <ele>1203.0</ele>
        <time>2015-06-07T14:49:35Z</time>
      </trkpt>
      <trkpt lat="40.132600" lon="-5.390867">
        <ele>1202.0</ele>
        <time>2015-06-07T14:49:37Z</time>
      </trkpt>
      <trkpt lat="40.132650" lon="-5.391150">
        <ele>1203.0</ele>
        <time>2015-06-07T14:49:39Z</time>
      </trkpt>
      <trkpt lat="40.132750" lon="-5.391383">
        <ele>1206.0</ele>
        <time>2015-06-07T14:49:41Z</time>
      </trkpt>
      <trkpt lat="40.132833" lon="-5.391600">
        <ele>1208.0</ele>
        <time>2015-06-07T14:49:43Z</time>
      </trkpt>
      <trkpt lat="40.132967" lon="-5.391767">
        <ele>1211.0</ele>
        <time>2015-06-07T14:49:45Z</time>
      </trkpt>
      <trkpt lat="40.133117" lon="-5.391817">
        <ele>1212.0</ele>
        <time>2015-06-07T14:49:47Z</time>
      </trkpt>
      <trkpt lat="40.133250" lon="-5.391733">
        <ele>1212.0</ele>
        <time>2015-06-07T14:49:49Z</time>
      </trkpt>
      <trkpt lat="40.133333" lon="-5.391583">
        <ele>1213.0</ele>
        <time>2015-06-07T14:49:51Z</time>
      </trkpt>
      <trkpt lat="40.133367" lon="-5.391417">
        <ele>1214.0</ele>
        <time>2015-06-07T14:49:53Z</time>
      </trkpt>
      <trkpt lat="40.133317" lon="-5.391250">
        <ele>1214.0</ele>
        <time>2015-06-07T14:49:55Z</time>
      </trkpt>
      <trkpt lat="40.133167" lon="-5.391150">
        <ele>1213.0</ele>
        <time>2015-06-07T14:49:57Z</time>
      </trkpt>
      <trkpt lat="40.133000" lon="-5.391100">
        <ele>1216.0</ele>
        <time>2015-06-07T14:49:59Z</time>
      </trkpt>
      <trkpt lat="40.132850" lon="-5.391133">
        <ele>1219.0</ele>
        <time>2015-06-07T14:50:01Z</time>
      </trkpt>
      <trkpt lat="40.132717" lon="-5.391317">
        <ele>1218.0</ele>
        <time>2015-06-07T14:50:03Z</time>
      </trkpt>
      <trkpt lat="40.132633" lon="-5.391550">
        <ele>1220.0</ele>
        <time>2015-06-07T14:50:05Z</time>
      </trkpt>
      <trkpt lat="40.132617" lon="-5.391783">
        <ele>1225.0</ele>
        <time>2015-06-07T14:50:07Z</time>
      </trkpt>
      <trkpt lat="40.132683" lon="-5.391967">
        <ele>1227.0</ele>
        <time>2015-06-07T14:50:09Z</time>
      </trkpt>
      <trkpt lat="40.132817" lon="-5.392083">
        <ele>1226.0</ele>
        <time>2015-06-07T14:50:11Z</time>
      </trkpt>
      <trkpt lat="40.132983" lon="-5.392100">
        <ele>1226.0</ele>
        <time>2015-06-07T14:50:13Z</time>
      </trkpt>
      <trkpt lat="40.133133" lon="-5.392017">
        <ele>1225.0</ele>
        <time>2015-06-07T14:50:15Z</time>
      </trkpt>
      <trkpt lat="40.133250" lon="-5.391883">
        <ele>1225.0</ele>
        <time>2015-06-07T14:50:17Z</time>
      </trkpt>
      <trkpt lat="40.133367" lon="-5.391767">
        <ele>1223.0</ele>
        <time>2015-06-07T14:50:19Z</time>
      </trkpt>
      <trkpt lat="40.133450" lon="-5.391617">
        <ele>1224.0</ele>
        <time>2015-06-07T14:50:21Z</time>
      </trkpt>
      <trkpt lat="40.133467" lon="-5.391417">
        <ele>1223.0</ele>
        <time>2015-06-07T14:50:23Z</time>
      </trkpt>
      <trkpt lat="40.133400" lon="-5.391233">
        <ele>1224.0</ele>
        <time>2015-06-07T14:50:25Z</time>
      </trkpt>
      <trkpt lat="40.133283" lon="-5.391083">
        <ele>1225.0</ele>
        <time>2015-06-07T14:50:27Z</time>
      </trkpt>
      <trkpt lat="40.133133" lon="-5.390983">
        <ele>1224.0</ele>
        <time>2015-06-07T14:50:29Z</time>
      </trkpt>
      <trkpt lat="40.132983" lon="-5.390917">
        <ele>1224.0</ele>
        <time>2015-06-07T14:50:31Z</time>
      </trkpt>
      <trkpt lat="40.132800" lon="-5.390900">
        <ele>1224.0</ele>
        <time>2015-06-07T14:50:33Z</time>
      </trkpt>
      <trkpt lat="40.132617" lon="-5.390950">
        <ele>1227.0</ele>
        <time>2015-06-07T14:50:35Z</time>
      </trkpt>
      <trkpt lat="40.132483" lon="-5.391033">
        <ele>1231.0</ele>
        <time>2015-06-07T14:50:37Z</time>
      </trkpt>
      <trkpt lat="40.132383" lon="-5.391183">
        <ele>1231.0</ele>
        <time>2015-06-07T14:50:39Z</time>
      </trkpt>
      <trkpt lat="40.132300" lon="-5.391417">
        <ele>1229.0</ele>
        <time>2015-06-07T14:50:41Z</time>
      </trkpt>
      <trkpt lat="40.132267" lon="-5.391667">
        <ele>1231.0</ele>
        <time>2015-06-07T14:50:43Z</time>
      </trkpt>
      <trkpt lat="40.132300" lon="-5.391883">
        <ele>1233.0</ele>
        <time>2015-06-07T14:50:45Z</time>
      </trkpt>
      <trkpt lat="40.132350" lon="-5.392067">
        <ele>1235.0</ele>
        <time>2015-06-07T14:50:47Z</time>
      </trkpt>
      <trkpt lat="40.132467" lon="-5.392217">
        <ele>1236.0</ele>
        <time>2015-06-07T14:50:49Z</time>
      </trkpt>
      <trkpt lat="40.132617" lon="-5.392267">
        <ele>1237.0</ele>
        <time>2015-06-07T14:50:51Z</time>
      </trkpt>
      <trkpt lat="40.132767" lon="-5.392217">
        <ele>1238.0</ele>
        <time>2015-06-07T14:50:53Z</time>
      </trkpt>
      <trkpt lat="40.132900" lon="-5.392100">
        <ele>1237.0</ele>
        <time>2015-06-07T14:50:55Z</time>
      </trkpt>
      <trkpt lat="40.132967" lon="-5.391900">
        <ele>1235.0</ele>
        <time>2015-06-07T14:50:57Z</time>
      </trkpt>
      <trkpt lat="40.132967" lon="-5.391700">
        <ele>1235.0</ele>
        <time>2015-06-07T14:50:59Z</time>
      </trkpt>
      <trkpt lat="40.132900" lon="-5.391517">
        <ele>1234.0</ele>
        <time>2015-06-07T14:51:01Z</time>
      </trkpt>
      <trkpt lat="40.132833" lon="-5.391333">
        <ele>1232.0</ele>
        <time>2015-06-07T14:51:03Z</time>
      </trkpt>
      <trkpt lat="40.132683" lon="-5.391200">
        <ele>1231.0</ele>
        <time>2015-06-07T14:51:05Z</time>
      </trkpt>
      <trkpt lat="40.132483" lon="-5.391133">
        <ele>1235.0</ele>
        <time>2015-06-07T14:51:07Z</time>
      </trkpt>
      <trkpt lat="40.132317" lon="-5.391150">
        <ele>1239.0</ele>
        <time>2015-06-07T14:51:09Z</time>
      </trkpt>
      <trkpt lat="40.132167" lon="-5.391283">
        <ele>1240.0</ele>
        <time>2015-06-07T14:51:11Z</time>
      </trkpt>
      <trkpt lat="40.132050" lon="-5.391500">
        <ele>1241.0</ele>
        <time>2015-06-07T14:51:13Z</time>
      </trkpt>
      <trkpt lat="40.132017" lon="-5.391700">
        <ele>1241.0</ele>
        <time>2015-06-07T14:51:15Z</time>
      </trkpt>
      <trkpt lat="40.132050" lon="-5.391900">
        <ele>1240.0</ele>
        <time>2015-06-07T14:51:17Z</time>
      </trkpt>
      <trkpt lat="40.132183" lon="-5.392067">
        <ele>1240.0</ele>
        <time>2015-06-07T14:51:19Z</time>
      </trkpt>
      <trkpt lat="40.132350" lon="-5.392117">
        <ele>1242.0</ele>
        <time>2015-06-07T14:51:21Z</time>
      </trkpt>
      <trkpt lat="40.132500" lon="-5.392100">
        <ele>1245.0</ele>
        <time>2015-06-07T14:51:23Z</time>
      </trkpt>
      <trkpt lat="40.132650" lon="-5.392000">
        <ele>1246.0</ele>
        <time>2015-06-07T14:51:25Z</time>
      </trkpt>
      <trkpt lat="40.132717" lon="-5.391817">
        <ele>1246.0</ele>
        <time>2015-06-07T14:51:27Z</time>
      </trkpt>
      <trkpt lat="40.132733" lon="-5.391617">
        <ele>1245.0</ele>
        <time>2015-06-07T14:51:29Z</time>
      </trkpt>
      <trkpt lat="40.132650" lon="-5.391400">
        <ele>1243.0</ele>
        <time>2015-06-07T14:51:31Z</time>
      </trkpt>
      <trkpt lat="40.132500" lon="-5.391233">
        <ele>1245.0</ele>
        <time>2015-06-07T14:51:33Z</time>
      </trkpt>
      <trkpt lat="40.132300" lon="-5.391150">
        <ele>1250.0</ele>
        <time>2015-06-07T14:51:35Z</time>
      </trkpt>
      <trkpt lat="40.132117" lon="-5.391133">
        <ele>1255.0</ele>
        <time>2015-06-07T14:51:37Z</time>
      </trkpt>
      <trkpt lat="40.131933" lon="-5.391200">
        <ele>1258.0</ele>
        <time>2015-06-07T14:51:39Z</time>
      </trkpt>
      <trkpt lat="40.131817" lon="-5.391350">
        <ele>1261.0</ele>
        <time>2015-06-07T14:51:41Z</time>
      </trkpt>
      <trkpt lat="40.131750" lon="-5.391550">
        <ele>1258.0</ele>
        <time>2015-06-07T14:51:43Z</time>
      </trkpt>
      <trkpt lat="40.131767" lon="-5.391817">
        <ele>1256.0</ele>
        <time>2015-06-07T14:51:45Z</time>
      </trkpt>
      <trkpt lat="40.131833" lon="-5.392017">
        <ele>1257.0</ele>
        <time>2015-06-07T14:51:47Z</time>
      </trkpt>
      <trkpt lat="40.131950" lon="-5.392150">
        <ele>1257.0</ele>
        <time>2015-06-07T14:51:49Z</time>
      </trkpt>
      <trkpt lat="40.132117" lon="-5.392250">
        <ele>1256.0</ele>
        <time>2015-06-07T14:51:51Z</time>
      </trkpt>
      <trkpt lat="40.132283" lon="-5.392250">
        <ele>1258.0</ele>
        <time>2015-06-07T14:51:53Z</time>
      </trkpt>
      <trkpt lat="40.132433" lon="-5.392183">
        <ele>1262.0</ele>
        <time>2015-06-07T14:51:55Z</time>
      </trkpt>
      <trkpt lat="40.132533" lon="-5.392067">
        <ele>1263.0</ele>
        <time>2015-06-07T14:51:57Z</time>
      </trkpt>
      <trkpt lat="40.132617" lon="-5.391867">
        <ele>1262.0</ele>
        <time>2015-06-07T14:51:59Z</time>
      </trkpt>
      <trkpt lat="40.132633" lon="-5.391650">
        <ele>1263.0</ele>
        <time>2015-06-07T14:52:01Z</time>
      </trkpt>
      <trkpt lat="40.132583" lon="-5.391450">
        <ele>1264.0</ele>
        <time>2015-06-07T14:52:03Z</time>
      </trkpt>
      <trkpt lat="40.132483" lon="-5.391300">
        <ele>1265.0</ele>
        <time>2015-06-07T14:52:05Z</time>
      </trkpt>
      <trkpt lat="40.132317" lon="-5.391250">
        <ele>1266.0</ele>
        <time>2015-06-07T14:52:07Z</time>
      </trkpt>
      <trkpt lat="40.132133" lon="-5.391283">
        <ele>1267.0</ele>
        <time>2015-06-07T14:52:09Z</time>
      </trkpt>
      <trkpt lat="40.131967" lon="-5.391383">
        <ele>1271.0</ele>
        <time>2015-06-07T14:52:11Z</time>
      </trkpt>
      <trkpt lat="40.131850" lon="-5.391550">
        <ele>1276.0</ele>
        <time>2015-06-07T14:52:13Z</time>
      </trkpt>
      <trkpt lat="40.131817" lon="-5.391717">
        <ele>1277.0</ele>
        <time>2015-06-07T14:52:15Z</time>
      </trkpt>
      <trkpt lat="40.131867" lon="-5.391917">
        <ele>1274.0</ele>
        <time>2015-06-07T14:52:17Z</time>
      </trkpt>
      <trkpt lat="40.132000" lon="-5.392100">
        <ele>1274.0</ele>
        <time>2015-06-07T14:52:19Z</time>
      </trkpt>
      <trkpt lat="40.132167" lon="-5.392133">
        <ele>1274.0</ele>
        <time>2015-06-07T14:52:21Z</time>
      </trkpt>
      <trkpt lat="40.132333" lon="-5.392083">
        <ele>1273.0</ele>
        <time>2015-06-07T14:52:23Z</time>
      </trkpt>
      <trkpt lat="40.132500" lon="-5.391950">
        <ele>1275.0</ele>
        <time>2015-06-07T14:52:25Z</time>
      </trkpt>
      <trkpt lat="40.132550" lon="-5.391750">
        <ele>1278.0</ele>
        <time>2015-06-07T14:52:27Z</time>
      </trkpt>
      <trkpt lat="40.132550" lon="-5.391567">
        <ele>1280.0</ele>
        <time>2015-06-07T14:52:29Z</time>
      </trkpt>
      <trkpt lat="40.132483" lon="-5.391417">
        <ele>1282.0</ele>
        <time>2015-06-07T14:52:31Z</time>
      </trkpt>
      <trkpt lat="40.132317" lon="-5.391350">
        <ele>1282.0</ele>
        <time>2015-06-07T14:52:33Z</time>
      </trkpt>
      <trkpt lat="40.132117" lon="-5.391367">
        <ele>1284.0</ele>
        <time>2015-06-07T14:52:35Z</time>
      </trkpt>
      <trkpt lat="40.131950" lon="-5.391467">
        <ele>1288.0</ele>
        <time>2015-06-07T14:52:37Z</time>
      </trkpt>
      <trkpt lat="40.131817" lon="-5.391633">
        <ele>1291.0</ele>
        <time>2015-06-07T14:52:39Z</time>
      </trkpt>
      <trkpt lat="40.131733" lon="-5.391817">
        <ele>1294.0</ele>
        <time>2015-06-07T14:52:41Z</time>
      </trkpt>
      <trkpt lat="40.131733" lon="-5.392017">
        <ele>1295.0</ele>
        <time>2015-06-07T14:52:43Z</time>
      </trkpt>
      <trkpt lat="40.131817" lon="-5.392250">
        <ele>1293.0</ele>
        <time>2015-06-07T14:52:45Z</time>
      </trkpt>
      <trkpt lat="40.131983" lon="-5.392417">
        <ele>1293.0</ele>
        <time>2015-06-07T14:52:47Z</time>
      </trkpt>
      <trkpt lat="40.132150" lon="-5.392483">
        <ele>1294.0</ele>
        <time>2015-06-07T14:52:49Z</time>
      </trkpt>
      <trkpt lat="40.132333" lon="-5.392450">
        <ele>1295.0</ele>
        <time>2015-06-07T14:52:51Z</time>
      </trkpt>
      <trkpt lat="40.132483" lon="-5.392367">
        <ele>1293.0</ele>
        <time>2015-06-07T14:52:53Z</time>
      </trkpt>
      <trkpt lat="40.132600" lon="-5.392150">
        <ele>1294.0</ele>
        <time>2015-06-07T14:52:55Z</time>
      </trkpt>
      <trkpt lat="40.132650" lon="-5.391950">
        <ele>1297.0</ele>
        <time>2015-06-07T14:52:57Z</time>
      </trkpt>
      <trkpt lat="40.132650" lon="-5.391750">
        <ele>1298.0</ele>
        <time>2015-06-07T14:52:59Z</time>
      </trkpt>
      <trkpt lat="40.132567" lon="-5.391550">
        <ele>1296.0</ele>
        <time>2015-06-07T14:53:01Z</time>
      </trkpt>
      <trkpt lat="40.132433" lon="-5.391417">
        <ele>1296.0</ele>
        <time>2015-06-07T14:53:03Z</time>
      </trkpt>
      <trkpt lat="40.132300" lon="-5.391333">
        <ele>1299.0</ele>
        <time>2015-06-07T14:53:05Z</time>
      </trkpt>
      <trkpt lat="40.132133" lon="-5.391333">
        <ele>1300.0</ele>
        <time>2015-06-07T14:53:07Z</time>
      </trkpt>
      <trkpt lat="40.131967" lon="-5.391450">
        <ele>1301.0</ele>
        <time>2015-06-07T14:53:09Z</time>
      </trkpt>
      <trkpt lat="40.131883" lon="-5.391633">
        <ele>1305.0</ele>
        <time>2015-06-07T14:53:11Z</time>
      </trkpt>
      <trkpt lat="40.131833" lon="-5.391817">
        <ele>1307.0</ele>
        <time>2015-06-07T14:53:13Z</time>
      </trkpt>
      <trkpt lat="40.131817" lon="-5.392083">
        <ele>1307.0</ele>
        <time>2015-06-07T14:53:15Z</time>
      </trkpt>
      <trkpt lat="40.131833" lon="-5.392350">
        <ele>1311.0</ele>
        <time>2015-06-07T14:53:17Z</time>
      </trkpt>
      <trkpt lat="40.131900" lon="-5.392567">
        <ele>1313.0</ele>
        <time>2015-06-07T14:53:19Z</time>
      </trkpt>
      <trkpt lat="40.132050" lon="-5.392733">
        <ele>1311.0</ele>
        <time>2015-06-07T14:53:21Z</time>
      </trkpt>
      <trkpt lat="40.132233" lon="-5.392817">
        <ele>1309.0</ele>
        <time>2015-06-07T14:53:23Z</time>
      </trkpt>
      <trkpt lat="40.132450" lon="-5.392817">
        <ele>1309.0</ele>
        <time>2015-06-07T14:53:25Z</time>
      </trkpt>
      <trkpt lat="40.132600" lon="-5.392733">
        <ele>1308.0</ele>
        <time>2015-06-07T14:53:27Z</time>
      </trkpt>
      <trkpt lat="40.132700" lon="-5.392550">
        <ele>1303.0</ele>
        <time>2015-06-07T14:53:29Z</time>
      </trkpt>
      <trkpt lat="40.132700" lon="-5.392300">
        <ele>1301.0</ele>
        <time>2015-06-07T14:53:31Z</time>
      </trkpt>
      <trkpt lat="40.132667" lon="-5.392117">
        <ele>1303.0</ele>
        <time>2015-06-07T14:53:33Z</time>
      </trkpt>
      <trkpt lat="40.132583" lon="-5.391983">
        <ele>1302.0</ele>
        <time>2015-06-07T14:53:35Z</time>
      </trkpt>
      <trkpt lat="40.132433" lon="-5.391867">
        <ele>1298.0</ele>
        <time>2015-06-07T14:53:37Z</time>
      </trkpt>
      <trkpt lat="40.132250" lon="-5.391867">
        <ele>1296.0</ele>
        <time>2015-06-07T14:53:39Z</time>
      </trkpt>
      <trkpt lat="40.132100" lon="-5.391967">
        <ele>1296.0</ele>
        <time>2015-06-07T14:53:41Z</time>
      </trkpt>
      <trkpt lat="40.131967" lon="-5.392117">
        <ele>1296.0</ele>
        <time>2015-06-07T14:53:43Z</time>
      </trkpt>
      <trkpt lat="40.131850" lon="-5.392333">
        <ele>1295.0</ele>
        <time>2015-06-07T14:53:45Z</time>
      </trkpt>
      <trkpt lat="40.131767" lon="-5.392550">
        <ele>1296.0</ele>
        <time>2015-06-07T14:53:47Z</time>
      </trkpt>
      <trkpt lat="40.131717" lon="-5.392767">
        <ele>1297.0</ele>
        <time>2015-06-07T14:53:49Z</time>
      </trkpt>
      <trkpt lat="40.131700" lon="-5.392950">
        <ele>1296.0</ele>
        <time>2015-06-07T14:53:51Z</time>
      </trkpt>
      <trkpt lat="40.131683" lon="-5.393167">
        <ele>1291.0</ele>
        <time>2015-06-07T14:53:53Z</time>
      </trkpt>
      <trkpt lat="40.131650" lon="-5.393417">
        <ele>1288.0</ele>
        <time>2015-06-07T14:53:55Z</time>
      </trkpt>
      <trkpt lat="40.131650" lon="-5.393600">
        <ele>1286.0</ele>
        <time>2015-06-07T14:53:57Z</time>
      </trkpt>
      <trkpt lat="40.131717" lon="-5.393767">
        <ele>1281.0</ele>
        <time>2015-06-07T14:53:59Z</time>
      </trkpt>
      <trkpt lat="40.131800" lon="-5.393967">
        <ele>1276.0</ele>
        <time>2015-06-07T14:54:01Z</time>
      </trkpt>
      <trkpt lat="40.131867" lon="-5.394167">
        <ele>1272.0</ele>
        <time>2015-06-07T14:54:03Z</time>
      </trkpt>
      <trkpt lat="40.131883" lon="-5.394367">
        <ele>1268.0</ele>
        <time>2015-06-07T14:54:05Z</time>
      </trkpt>
      <trkpt lat="40.131850" lon="-5.394567">
        <ele>1262.0</ele>
        <time>2015-06-07T14:54:07Z</time>
      </trkpt>
      <trkpt lat="40.131800" lon="-5.394800">
        <ele>1255.0</ele>
        <time>2015-06-07T14:54:09Z</time>
      </trkpt>
      <trkpt lat="40.131717" lon="-5.395017">
        <ele>1253.0</ele>
        <time>2015-06-07T14:54:11Z</time>
      </trkpt>
      <trkpt lat="40.131600" lon="-5.395167">
        <ele>1249.0</ele>
        <time>2015-06-07T14:54:13Z</time>
      </trkpt>
      <trkpt lat="40.131483" lon="-5.395333">
        <ele>1242.0</ele>
        <time>2015-06-07T14:54:15Z</time>
      </trkpt>
      <trkpt lat="40.131350" lon="-5.395517">
        <ele>1236.0</ele>
        <time>2015-06-07T14:54:17Z</time>
      </trkpt>
      <trkpt lat="40.131267" lon="-5.395717">
        <ele>1231.0</ele>
        <time>2015-06-07T14:54:19Z</time>
      </trkpt>
      <trkpt lat="40.131233" lon="-5.395917">
        <ele>1225.0</ele>
        <time>2015-06-07T14:54:21Z</time>
      </trkpt>
      <trkpt lat="40.131217" lon="-5.396150">
        <ele>1220.0</ele>
        <time>2015-06-07T14:54:23Z</time>
      </trkpt>
      <trkpt lat="40.131233" lon="-5.396400">
        <ele>1215.0</ele>
        <time>2015-06-07T14:54:25Z</time>
      </trkpt>
      <trkpt lat="40.131217" lon="-5.396633">
        <ele>1212.0</ele>
        <time>2015-06-07T14:54:27Z</time>
      </trkpt>
      <trkpt lat="40.131200" lon="-5.396867">
        <ele>1207.0</ele>
        <time>2015-06-07T14:54:29Z</time>
      </trkpt>
      <trkpt lat="40.131183" lon="-5.397100">
        <ele>1203.0</ele>
        <time>2015-06-07T14:54:31Z</time>
      </trkpt>
      <trkpt lat="40.131167" lon="-5.397317">
        <ele>1198.0</ele>
        <time>2015-06-07T14:54:33Z</time>
      </trkpt>
      <trkpt lat="40.131133" lon="-5.397517">
        <ele>1191.0</ele>
        <time>2015-06-07T14:54:35Z</time>
      </trkpt>
      <trkpt lat="40.131067" lon="-5.397750">
        <ele>1183.0</ele>
        <time>2015-06-07T14:54:37Z</time>
      </trkpt>
      <trkpt lat="40.131050" lon="-5.397950">
        <ele>1178.0</ele>
        <time>2015-06-07T14:54:39Z</time>
      </trkpt>
      <trkpt lat="40.131100" lon="-5.398117">
        <ele>1171.0</ele>
        <time>2015-06-07T14:54:41Z</time>
      </trkpt>
      <trkpt lat="40.131200" lon="-5.398283">
        <ele>1162.0</ele>
        <time>2015-06-07T14:54:43Z</time>
      </trkpt>
      <trkpt lat="40.131300" lon="-5.398483">
        <ele>1156.0</ele>
        <time>2015-06-07T14:54:45Z</time>
      </trkpt>
      <trkpt lat="40.131400" lon="-5.398683">
        <ele>1153.0</ele>
        <time>2015-06-07T14:54:47Z</time>
      </trkpt>
      <trkpt lat="40.131483" lon="-5.398867">
        <ele>1153.0</ele>
        <time>2015-06-07T14:54:49Z</time>
      </trkpt>
      <trkpt lat="40.131583" lon="-5.399067">
        <ele>1150.0</ele>
        <time>2015-06-07T14:54:51Z</time>
      </trkpt>
      <trkpt lat="40.131683" lon="-5.399283">
        <ele>1146.0</ele>
        <time>2015-06-07T14:54:53Z</time>
      </trkpt>
      <trkpt lat="40.131783" lon="-5.399533">
        <ele>1143.0</ele>
        <time>2015-06-07T14:54:55Z</time>
      </trkpt>
      <trkpt lat="40.131867" lon="-5.399800">
        <ele>1140.0</ele>
        <time>2015-06-07T14:54:57Z</time>
      </trkpt>
      <trkpt lat="40.131933" lon="-5.400067">
        <ele>1138.0</ele>
        <time>2015-06-07T14:54:59Z</time>
      </trkpt>
      <trkpt lat="40.132000" lon="-5.400333">
        <ele>1138.0</ele>
        <time>2015-06-07T14:55:01Z</time>
      </trkpt>
      <trkpt lat="40.132067" lon="-5.400567">
        <ele>1140.0</ele>
        <time>2015-06-07T14:55:03Z</time>
      </trkpt>
      <trkpt lat="40.132167" lon="-5.400733">
        <ele>1143.0</ele>
        <time>2015-06-07T14:55:05Z</time>
      </trkpt>
      <trkpt lat="40.132300" lon="-5.400800">
        <ele>1146.0</ele>
        <time>2015-06-07T14:55:07Z</time>
      </trkpt>
      <trkpt lat="40.132450" lon="-5.400783">
        <ele>1148.0</ele>
        <time>2015-06-07T14:55:09Z</time>
      </trkpt>
      <trkpt lat="40.132550" lon="-5.400650">
        <ele>1149.0</ele>
        <time>2015-06-07T14:55:11Z</time>
      </trkpt>
      <trkpt lat="40.132600" lon="-5.400450">
        <ele>1150.0</ele>
        <time>2015-06-07T14:55:13Z</time>
      </trkpt>
      <trkpt lat="40.132533" lon="-5.400250">
        <ele>1150.0</ele>
        <time>2015-06-07T14:55:15Z</time>
      </trkpt>
      <trkpt lat="40.132383" lon="-5.400117">
        <ele>1150.0</ele>
        <time>2015-06-07T14:55:17Z</time>
      </trkpt>
      <trkpt lat="40.132233" lon="-5.400083">
        <ele>1153.0</ele>
        <time>2015-06-07T14:55:19Z</time>
      </trkpt>
      <trkpt lat="40.132067" lon="-5.400117">
        <ele>1155.0</ele>
        <time>2015-06-07T14:55:21Z</time>
      </trkpt>
      <trkpt lat="40.131917" lon="-5.400200">
        <ele>1155.0</ele>
        <time>2015-06-07T14:55:23Z</time>
      </trkpt>
      <trkpt lat="40.131800" lon="-5.400400">
        <ele>1153.0</ele>
        <time>2015-06-07T14:55:25Z</time>
      </trkpt>
      <trkpt lat="40.131700" lon="-5.400650">
        <ele>1153.0</ele>
        <time>2015-06-07T14:55:27Z</time>
      </trkpt>
      <trkpt lat="40.131683" lon="-5.400900">
        <ele>1155.0</ele>
        <time>2015-06-07T14:55:29Z</time>
      </trkpt>
      <trkpt lat="40.131700" lon="-5.401150">
        <ele>1156.0</ele>
        <time>2015-06-07T14:55:31Z</time>
      </trkpt>
      <trkpt lat="40.131750" lon="-5.401383">
        <ele>1155.0</ele>
        <time>2015-06-07T14:55:33Z</time>
      </trkpt>
      <trkpt lat="40.131883" lon="-5.401533">
        <ele>1156.0</ele>
        <time>2015-06-07T14:55:35Z</time>
      </trkpt>
      <trkpt lat="40.132017" lon="-5.401667">
        <ele>1157.0</ele>
        <time>2015-06-07T14:55:37Z</time>
      </trkpt>
      <trkpt lat="40.132167" lon="-5.401733">
        <ele>1159.0</ele>
        <time>2015-06-07T14:55:39Z</time>
      </trkpt>
      <trkpt lat="40.132317" lon="-5.401700">
        <ele>1160.0</ele>
        <time>2015-06-07T14:55:41Z</time>
      </trkpt>
      <trkpt lat="40.132467" lon="-5.401650">
        <ele>1161.0</ele>
        <time>2015-06-07T14:55:43Z</time>
      </trkpt>
      <trkpt lat="40.132617" lon="-5.401600">
        <ele>1161.0</ele>
        <time>2015-06-07T14:55:45Z</time>
      </trkpt>
      <trkpt lat="40.132733" lon="-5.401433">
        <ele>1160.0</ele>
        <time>2015-06-07T14:55:47Z</time>
      </trkpt>
      <trkpt lat="40.132767" lon="-5.401217">
        <ele>1163.0</ele>
        <time>2015-06-07T14:55:49Z</time>
      </trkpt>
      <trkpt lat="40.132717" lon="-5.401033">
        <ele>1165.0</ele>
        <time>2015-06-07T14:55:51Z</time>
      </trkpt>
      <trkpt lat="40.132600" lon="-5.400867">
        <ele>1167.0</ele>
        <time>2015-06-07T14:55:53Z</time>
      </trkpt>
      <trkpt lat="40.132433" lon="-5.400767">
        <ele>1172.0</ele>
        <time>2015-06-07T14:55:55Z</time>
      </trkpt>
      <trkpt lat="40.132267" lon="-5.400783">
        <ele>1174.0</ele>
        <time>2015-06-07T14:55:57Z</time>
      </trkpt>
      <trkpt lat="40.132100" lon="-5.400900">
        <ele>1174.0</ele>
        <time>2015-06-07T14:55:59Z</time>
      </trkpt>
      <trkpt lat="40.132000" lon="-5.401083">
        <ele>1174.0</ele>
        <time>2015-06-07T14:56:01Z</time>
      </trkpt>
      <trkpt lat="40.131950" lon="-5.401317">
        <ele>1175.0</ele>
        <time>2015-06-07T14:56:03Z</time>
      </trkpt>
      <trkpt lat="40.132000" lon="-5.401517">
        <ele>1175.0</ele>
        <time>2015-06-07T14:56:05Z</time>
      </trkpt>
      <trkpt lat="40.132083" lon="-5.401683">
        <ele>1174.0</ele>
        <time>2015-06-07T14:56:07Z</time>
      </trkpt>
      <trkpt lat="40.132233" lon="-5.401767">
        <ele>1174.0</ele>
        <time>2015-06-07T14:56:09Z</time>
      </trkpt>
      <trkpt lat="40.132400" lon="-5.401750">
        <ele>1174.0</ele>
        <time>2015-06-07T14:56:11Z</time>
      </trkpt>
      <trkpt lat="40.132533" lon="-5.401633">
        <ele>1173.0</ele>
        <time>2015-06-07T14:56:13Z</time>
      </trkpt>
      <trkpt lat="40.132600" lon="-5.401417">
        <ele>1174.0</ele>
        <time>2015-06-07T14:56:15Z</time>
      </trkpt>
      <trkpt lat="40.132583" lon="-5.401200">
        <ele>1176.0</ele>
        <time>2015-06-07T14:56:17Z</time>
      </trkpt>
      <trkpt lat="40.132550" lon="-5.400950">
        <ele>1178.0</ele>
        <time>2015-06-07T14:56:19Z</time>
      </trkpt>
      <trkpt lat="40.132450" lon="-5.400733">
        <ele>1181.0</ele>
        <time>2015-06-07T14:56:21Z</time>
      </trkpt>
      <trkpt lat="40.132300" lon="-5.400600">
        <ele>1184.0</ele>
        <time>2015-06-07T14:56:23Z</time>
      </trkpt>
      <trkpt lat="40.132117" lon="-5.400550">
        <ele>1186.0</ele>
        <time>2015-06-07T14:56:25Z</time>
      </trkpt>
      <trkpt lat="40.131967" lon="-5.400583">
        <ele>1190.0</ele>
        <time>2015-06-07T14:56:27Z</time>
      </trkpt>
      <trkpt lat="40.131833" lon="-5.400700">
        <ele>1193.0</ele>
        <time>2015-06-07T14:56:29Z</time>
      </trkpt>
      <trkpt lat="40.131783" lon="-5.400883">
        <ele>1194.0</ele>
        <time>2015-06-07T14:56:31Z</time>
      </trkpt>
      <trkpt lat="40.131817" lon="-5.401083">
        <ele>1195.0</ele>
        <time>2015-06-07T14:56:33Z</time>
      </trkpt>
      <trkpt lat="40.131917" lon="-5.401233">
        <ele>1197.0</ele>
        <time>2015-06-07T14:56:35Z</time>
      </trkpt>
      <trkpt lat="40.132050" lon="-5.401300">
        <ele>1198.0</ele>
        <time>2015-06-07T14:56:37Z</time>
      </trkpt>
      <trkpt lat="40.132200" lon="-5.401250">
        <ele>1199.0</ele>
        <time>2015-06-07T14:56:39Z</time>
      </trkpt>
      <trkpt lat="40.132333" lon="-5.401133">
        <ele>1200.0</ele>
        <time>2015-06-07T14:56:41Z</time>
      </trkpt>
      <trkpt lat="40.132417" lon="-5.400950">
        <ele>1204.0</ele>
        <time>2015-06-07T14:56:43Z</time>
      </trkpt>
      <trkpt lat="40.132417" lon="-5.400733">
        <ele>1208.0</ele>
        <time>2015-06-07T14:56:45Z</time>
      </trkpt>
      <trkpt lat="40.132333" lon="-5.400517">
        <ele>1213.0</ele>
        <time>2015-06-07T14:56:47Z</time>
      </trkpt>
      <trkpt lat="40.132183" lon="-5.400417">
        <ele>1218.0</ele>
        <time>2015-06-07T14:56:49Z</time>
      </trkpt>
      <trkpt lat="40.132017" lon="-5.400450">
        <ele>1220.0</ele>
        <time>2015-06-07T14:56:51Z</time>
      </trkpt>
      <trkpt lat="40.131883" lon="-5.400633">
        <ele>1223.0</ele>
        <time>2015-06-07T14:56:53Z</time>
      </trkpt>
      <trkpt lat="40.131850" lon="-5.400850">
        <ele>1227.0</ele>
        <time>2015-06-07T14:56:55Z</time>
      </trkpt>
      <trkpt lat="40.131933" lon="-5.401017">
        <ele>1229.0</ele>
        <time>2015-06-07T14:56:57Z</time>
      </trkpt>
      <trkpt lat="40.132033" lon="-5.401133">
        <ele>1228.0</ele>
        <time>2015-06-07T14:56:59Z</time>
      </trkpt>
      <trkpt lat="40.132217" lon="-5.401183">
        <ele>1226.0</ele>
        <time>2015-06-07T14:57:01Z</time>
      </trkpt>
      <trkpt lat="40.132400" lon="-5.401133">
        <ele>1226.0</ele>
        <time>2015-06-07T14:57:03Z</time>
      </trkpt>
      <trkpt lat="40.132517" lon="-5.401000">
        <ele>1227.0</ele>
        <time>2015-06-07T14:57:05Z</time>
      </trkpt>
      <trkpt lat="40.132617" lon="-5.400783">
        <ele>1229.0</ele>
        <time>2015-06-07T14:57:07Z</time>
      </trkpt>
      <trkpt lat="40.132683" lon="-5.400567">
        <ele>1235.0</ele>
        <time>2015-06-07T14:57:09Z</time>
      </trkpt>
      <trkpt lat="40.132667" lon="-5.400367">
        <ele>1242.0</ele>
        <time>2015-06-07T14:57:11Z</time>
      </trkpt>
      <trkpt lat="40.132533" lon="-5.400183">
        <ele>1245.0</ele>
        <time>2015-06-07T14:57:13Z</time>
      </trkpt>
      <trkpt lat="40.132367" lon="-5.400100">
        <ele>1250.0</ele>
        <time>2015-06-07T14:57:15Z</time>
      </trkpt>
      <trkpt lat="40.132200" lon="-5.400167">
        <ele>1251.0</ele>
        <time>2015-06-07T14:57:17Z</time>
      </trkpt>
      <trkpt lat="40.132100" lon="-5.400400">
        <ele>1251.0</ele>
        <time>2015-06-07T14:57:19Z</time>
      </trkpt>
      <trkpt lat="40.132117" lon="-5.400650">
        <ele>1254.0</ele>
        <time>2015-06-07T14:57:21Z</time>
      </trkpt>
      <trkpt lat="40.132233" lon="-5.400800">
        <ele>1257.0</ele>
        <time>2015-06-07T14:57:23Z</time>
      </trkpt>
      <trkpt lat="40.132417" lon="-5.400817">
        <ele>1256.0</ele>
        <time>2015-06-07T14:57:25Z</time>
      </trkpt>
      <trkpt lat="40.132600" lon="-5.400700">
        <ele>1258.0</ele>
        <time>2015-06-07T14:57:27Z</time>
      </trkpt>
      <trkpt lat="40.132700" lon="-5.400517">
        <ele>1261.0</ele>
        <time>2015-06-07T14:57:29Z</time>
      </trkpt>
      <trkpt lat="40.132750" lon="-5.400300">
        <ele>1264.0</ele>
        <time>2015-06-07T14:57:31Z</time>
      </trkpt>
      <trkpt lat="40.132700" lon="-5.400050">
        <ele>1265.0</ele>
        <time>2015-06-07T14:57:33Z</time>
      </trkpt>
      <trkpt lat="40.132583" lon="-5.399867">
        <ele>1270.0</ele>
        <time>2015-06-07T14:57:35Z</time>
      </trkpt>
      <trkpt lat="40.132450" lon="-5.399767">
        <ele>1274.0</ele>
        <time>2015-06-07T14:57:37Z</time>
      </trkpt>
      <trkpt lat="40.132300" lon="-5.399750">
        <ele>1275.0</ele>
        <time>2015-06-07T14:57:39Z</time>
      </trkpt>
      <trkpt lat="40.132150" lon="-5.399867">
        <ele>1275.0</ele>
        <time>2015-06-07T14:57:41Z</time>
      </trkpt>
      <trkpt lat="40.132067" lon="-5.400050">
        <ele>1276.0</ele>
        <time>2015-06-07T14:57:43Z</time>
      </trkpt>
      <trkpt lat="40.132067" lon="-5.400250">
        <ele>1278.0</ele>
        <time>2015-06-07T14:57:45Z</time>
      </trkpt>
      <trkpt lat="40.132150" lon="-5.400433">
        <ele>1278.0</ele>
        <time>2015-06-07T14:57:47Z</time>
      </trkpt>
      <trkpt lat="40.132333" lon="-5.400533">
        <ele>1278.0</ele>
        <time>2015-06-07T14:57:49Z</time>
      </trkpt>
      <trkpt lat="40.132517" lon="-5.400467">
        <ele>1281.0</ele>
        <time>2015-06-07T14:57:51Z</time>
      </trkpt>
      <trkpt lat="40.132650" lon="-5.400350">
        <ele>1282.0</ele>
        <time>2015-06-07T14:57:53Z</time>
      </trkpt>
      <trkpt lat="40.132783" lon="-5.400183">
        <ele>1281.0</ele>
        <time>2015-06-07T14:57:55Z</time>
      </trkpt>
      <trkpt lat="40.132850" lon="-5.399917">
        <ele>1280.0</ele>
        <time>2015-06-07T14:57:57Z</time>
      </trkpt>
      <trkpt lat="40.132800" lon="-5.399650">
        <ele>1283.0</ele>
        <time>2015-06-07T14:57:59Z</time>
      </trkpt>
      <trkpt lat="40.132700" lon="-5.399467">
        <ele>1285.0</ele>
        <time>2015-06-07T14:58:01Z</time>
      </trkpt>
      <trkpt lat="40.132567" lon="-5.399350">
        <ele>1286.0</ele>
        <time>2015-06-07T14:58:03Z</time>
      </trkpt>
      <trkpt lat="40.132400" lon="-5.399333">
        <ele>1286.0</ele>
        <time>2015-06-07T14:58:05Z</time>
      </trkpt>
      <trkpt lat="40.132250" lon="-5.399383">
        <ele>1287.0</ele>
        <time>2015-06-07T14:58:07Z</time>
      </trkpt>
      <trkpt lat="40.132133" lon="-5.399500">
        <ele>1285.0</ele>
        <time>2015-06-07T14:58:09Z</time>
      </trkpt>
      <trkpt lat="40.132050" lon="-5.399717">
        <ele>1283.0</ele>
        <time>2015-06-07T14:58:11Z</time>
      </trkpt>
      <trkpt lat="40.132067" lon="-5.399900">
        <ele>1285.0</ele>
        <time>2015-06-07T14:58:13Z</time>
      </trkpt>
      <trkpt lat="40.132117" lon="-5.400033">
        <ele>1284.0</ele>
        <time>2015-06-07T14:58:15Z</time>
      </trkpt>
      <trkpt lat="40.132233" lon="-5.400167">
        <ele>1280.0</ele>
        <time>2015-06-07T14:58:17Z</time>
      </trkpt>
      <trkpt lat="40.132400" lon="-5.400233">
        <ele>1281.0</ele>
        <time>2015-06-07T14:58:19Z</time>
      </trkpt>
      <trkpt lat="40.132583" lon="-5.400183">
        <ele>1281.0</ele>
        <time>2015-06-07T14:58:21Z</time>
      </trkpt>
      <trkpt lat="40.132750" lon="-5.400067">
        <ele>1280.0</ele>
        <time>2015-06-07T14:58:23Z</time>
      </trkpt>
      <trkpt lat="40.132900" lon="-5.399867">
        <ele>1279.0</ele>
        <time>2015-06-07T14:58:25Z</time>
      </trkpt>
      <trkpt lat="40.132967" lon="-5.399600">
        <ele>1278.0</ele>
        <time>2015-06-07T14:58:27Z</time>
      </trkpt>
      <trkpt lat="40.132950" lon="-5.399350">
        <ele>1278.0</ele>
        <time>2015-06-07T14:58:29Z</time>
      </trkpt>
      <trkpt lat="40.132900" lon="-5.399117">
        <ele>1276.0</ele>
        <time>2015-06-07T14:58:31Z</time>
      </trkpt>
      <trkpt lat="40.132783" lon="-5.398900">
        <ele>1273.0</ele>
        <time>2015-06-07T14:58:33Z</time>
      </trkpt>
      <trkpt lat="40.132617" lon="-5.398750">
        <ele>1271.0</ele>
        <time>2015-06-07T14:58:35Z</time>
      </trkpt>
      <trkpt lat="40.132467" lon="-5.398683">
        <ele>1271.0</ele>
        <time>2015-06-07T14:58:37Z</time>
      </trkpt>
      <trkpt lat="40.132317" lon="-5.398683">
        <ele>1269.0</ele>
        <time>2015-06-07T14:58:39Z</time>
      </trkpt>
      <trkpt lat="40.132183" lon="-5.398783">
        <ele>1266.0</ele>
        <time>2015-06-07T14:58:41Z</time>
      </trkpt>
      <trkpt lat="40.132050" lon="-5.398933">
        <ele>1266.0</ele>
        <time>2015-06-07T14:58:43Z</time>
      </trkpt>
      <trkpt lat="40.131967" lon="-5.399033">
        <ele>1267.0</ele>
        <time>2015-06-07T14:58:45Z</time>
      </trkpt>
      <trkpt lat="40.131867" lon="-5.399167">
        <ele>1264.0</ele>
        <time>2015-06-07T14:58:47Z</time>
      </trkpt>
      <trkpt lat="40.131817" lon="-5.399367">
        <ele>1266.0</ele>
        <time>2015-06-07T14:58:49Z</time>
      </trkpt>
      <trkpt lat="40.131800" lon="-5.399533">
        <ele>1267.0</ele>
        <time>2015-06-07T14:58:51Z</time>
      </trkpt>
      <trkpt lat="40.131767" lon="-5.399650">
        <ele>1263.0</ele>
        <time>2015-06-07T14:58:53Z</time>
      </trkpt>
      <trkpt lat="40.131750" lon="-5.399833">
        <ele>1259.0</ele>
        <time>2015-06-07T14:58:55Z</time>
      </trkpt>
      <trkpt lat="40.131783" lon="-5.400050">
        <ele>1259.0</ele>
        <time>2015-06-07T14:58:57Z</time>
      </trkpt>
      <trkpt lat="40.131850" lon="-5.400267">
        <ele>1260.0</ele>
        <time>2015-06-07T14:58:59Z</time>
      </trkpt>
      <trkpt lat="40.131900" lon="-5.400483">
        <ele>1260.0</ele>
        <time>2015-06-07T14:59:01Z</time>
      </trkpt>
      <trkpt lat="40.131950" lon="-5.400667">
        <ele>1262.0</ele>
        <time>2015-06-07T14:59:03Z</time>
      </trkpt>
      <trkpt lat="40.132017" lon="-5.400850">
        <ele>1262.0</ele>
        <time>2015-06-07T14:59:05Z</time>
      </trkpt>
      <trkpt lat="40.132050" lon="-5.401033">
        <ele>1260.0</ele>
        <time>2015-06-07T14:59:07Z</time>
      </trkpt>
      <trkpt lat="40.132083" lon="-5.401267">
        <ele>1257.0</ele>
        <time>2015-06-07T14:59:09Z</time>
      </trkpt>
      <trkpt lat="40.132067" lon="-5.401500">
        <ele>1258.0</ele>
        <time>2015-06-07T14:59:11Z</time>
      </trkpt>
      <trkpt lat="40.132033" lon="-5.401667">
        <ele>1257.0</ele>
        <time>2015-06-07T14:59:13Z</time>
      </trkpt>
      <trkpt lat="40.131967" lon="-5.401833">
        <ele>1253.0</ele>
        <time>2015-06-07T14:59:15Z</time>
      </trkpt>
      <trkpt lat="40.131883" lon="-5.402050">
        <ele>1249.0</ele>
        <time>2015-06-07T14:59:17Z</time>
      </trkpt>
      <trkpt lat="40.131833" lon="-5.402233">
        <ele>1247.0</ele>
        <time>2015-06-07T14:59:19Z</time>
      </trkpt>
      <trkpt lat="40.131767" lon="-5.402417">
        <ele>1242.0</ele>
        <time>2015-06-07T14:59:21Z</time>
      </trkpt>
      <trkpt lat="40.131700" lon="-5.402633">
        <ele>1236.0</ele>
        <time>2015-06-07T14:59:23Z</time>
      </trkpt>
      <trkpt lat="40.131633" lon="-5.402850">
        <ele>1233.0</ele>
        <time>2015-06-07T14:59:25Z</time>
      </trkpt>
      <trkpt lat="40.131583" lon="-5.403033">
        <ele>1231.0</ele>
        <time>2015-06-07T14:59:27Z</time>
      </trkpt>
      <trkpt lat="40.131533" lon="-5.403233">
        <ele>1227.0</ele>
        <time>2015-06-07T14:59:29Z</time>
      </trkpt>
      <trkpt lat="40.131533" lon="-5.403450">
        <ele>1224.0</ele>
        <time>2015-06-07T14:59:31Z</time>
      </trkpt>
      <trkpt lat="40.131583" lon="-5.403683">
        <ele>1222.0</ele>
        <time>2015-06-07T14:59:33Z</time>
      </trkpt>
      <trkpt lat="40.131633" lon="-5.403917">
        <ele>1220.0</ele>
        <time>2015-06-07T14:59:35Z</time>
      </trkpt>
      <trkpt lat="40.131683" lon="-5.404183">
        <ele>1219.0</ele>
        <time>2015-06-07T14:59:37Z</time>
      </trkpt>
      <trkpt lat="40.131717" lon="-5.404383">
        <ele>1220.0</ele>
        <time>2015-06-07T14:59:39Z</time>
      </trkpt>
      <trkpt lat="40.131717" lon="-5.404550">
        <ele>1215.0</ele>
        <time>2015-06-07T14:59:41Z</time>
      </trkpt>
      <trkpt lat="40.131700" lon="-5.404783">
        <ele>1208.0</ele>
        <time>2015-06-07T14:59:43Z</time>
      </trkpt>
      <trkpt lat="40.131683" lon="-5.405050">
        <ele>1206.0</ele>
        <time>2015-06-07T14:59:45Z</time>
      </trkpt>
      <trkpt lat="40.131700" lon="-5.405317">
        <ele>1206.0</ele>
        <time>2015-06-07T14:59:47Z</time>
      </trkpt>
      <trkpt lat="40.131717" lon="-5.405550">
        <ele>1207.0</ele>
        <time>2015-06-07T14:59:49Z</time>
      </trkpt>
      <trkpt lat="40.131783" lon="-5.405750">
        <ele>1205.0</ele>
        <time>2015-06-07T14:59:51Z</time>
      </trkpt>
      <trkpt lat="40.131917" lon="-5.405900">
        <ele>1202.0</ele>
        <time>2015-06-07T14:59:53Z</time>
      </trkpt>
      <trkpt lat="40.132067" lon="-5.405917">
        <ele>1197.0</ele>
        <time>2015-06-07T14:59:55Z</time>
      </trkpt>
      <trkpt lat="40.132200" lon="-5.405850">
        <ele>1191.0</ele>
        <time>2015-06-07T14:59:57Z</time>
      </trkpt>
      <trkpt lat="40.132283" lon="-5.405683">
        <ele>1183.0</ele>
        <time>2015-06-07T14:59:59Z</time>
      </trkpt>
      <trkpt lat="40.132283" lon="-5.405450">
        <ele>1177.0</ele>
        <time>2015-06-07T15:00:01Z</time>
      </trkpt>
      <trkpt lat="40.132233" lon="-5.405250">
        <ele>1171.0</ele>
        <time>2015-06-07T15:00:03Z</time>
      </trkpt>
      <trkpt lat="40.132117" lon="-5.405083">
        <ele>1166.0</ele>
        <time>2015-06-07T15:00:05Z</time>
      </trkpt>
      <trkpt lat="40.131950" lon="-5.405000">
        <ele>1164.0</ele>
        <time>2015-06-07T15:00:07Z</time>
      </trkpt>
      <trkpt lat="40.131817" lon="-5.405000">
        <ele>1166.0</ele>
        <time>2015-06-07T15:00:09Z</time>
      </trkpt>
      <trkpt lat="40.131717" lon="-5.405000">
        <ele>1165.0</ele>
        <time>2015-06-07T15:00:11Z</time>
      </trkpt>
      <trkpt lat="40.131567" lon="-5.405067">
        <ele>1159.0</ele>
        <time>2015-06-07T15:00:13Z</time>
      </trkpt>
      <trkpt lat="40.131483" lon="-5.405200">
        <ele>1157.0</ele>
        <time>2015-06-07T15:00:15Z</time>
      </trkpt>
      <trkpt lat="40.131433" lon="-5.405333">
        <ele>1152.0</ele>
        <time>2015-06-07T15:00:17Z</time>
      </trkpt>
      <trkpt lat="40.131450" lon="-5.405517">
        <ele>1144.0</ele>
        <time>2015-06-07T15:00:19Z</time>
      </trkpt>
      <trkpt lat="40.131467" lon="-5.405750">
        <ele>1137.0</ele>
        <time>2015-06-07T15:00:21Z</time>
      </trkpt>
      <trkpt lat="40.131500" lon="-5.405950">
        <ele>1133.0</ele>
        <time>2015-06-07T15:00:23Z</time>
      </trkpt>
      <trkpt lat="40.131500" lon="-5.406167">
        <ele>1126.0</ele>
        <time>2015-06-07T15:00:25Z</time>
      </trkpt>
      <trkpt lat="40.131533" lon="-5.406400">
        <ele>1118.0</ele>
        <time>2015-06-07T15:00:27Z</time>
      </trkpt>
      <trkpt lat="40.131533" lon="-5.406633">
        <ele>1112.0</ele>
        <time>2015-06-07T15:00:29Z</time>
      </trkpt>
      <trkpt lat="40.131517" lon="-5.406833">
        <ele>1107.0</ele>
        <time>2015-06-07T15:00:31Z</time>
      </trkpt>
      <trkpt lat="40.131517" lon="-5.407050">
        <ele>1101.0</ele>
        <time>2015-06-07T15:00:33Z</time>
      </trkpt>
      <trkpt lat="40.131500" lon="-5.407300">
        <ele>1095.0</ele>
        <time>2015-06-07T15:00:35Z</time>
      </trkpt>
      <trkpt lat="40.131467" lon="-5.407533">
        <ele>1088.0</ele>
        <time>2015-06-07T15:00:37Z</time>
      </trkpt>
      <trkpt lat="40.131450" lon="-5.407783">
        <ele>1081.0</ele>
        <time>2015-06-07T15:00:39Z</time>
      </trkpt>
      <trkpt lat="40.131467" lon="-5.408067">
        <ele>1075.0</ele>
        <time>2015-06-07T15:00:41Z</time>
      </trkpt>
      <trkpt lat="40.131467" lon="-5.408317">
        <ele>1069.0</ele>
        <time>2015-06-07T15:00:43Z</time>
      </trkpt>
      <trkpt lat="40.131467" lon="-5.408567">
        <ele>1059.0</ele>
        <time>2015-06-07T15:00:45Z</time>
      </trkpt>
      <trkpt lat="40.131467" lon="-5.408883">
        <ele>1052.0</ele>
        <time>2015-06-07T15:00:47Z</time>
      </trkpt>
      <trkpt lat="40.131417" lon="-5.409133">
        <ele>1050.0</ele>
        <time>2015-06-07T15:00:49Z</time>
      </trkpt>
      <trkpt lat="40.131350" lon="-5.409350">
        <ele>1046.0</ele>
        <time>2015-06-07T15:00:51Z</time>
      </trkpt>
      <trkpt lat="40.131300" lon="-5.409583">
        <ele>1041.0</ele>
        <time>2015-06-07T15:00:53Z</time>
      </trkpt>
      <trkpt lat="40.131217" lon="-5.409800">
        <ele>1036.0</ele>
        <time>2015-06-07T15:00:55Z</time>
      </trkpt>
      <trkpt lat="40.131167" lon="-5.410050">
        <ele>1031.0</ele>
        <time>2015-06-07T15:00:57Z</time>
      </trkpt>
      <trkpt lat="40.131117" lon="-5.410300">
        <ele>1027.0</ele>
        <time>2015-06-07T15:00:59Z</time>
      </trkpt>
      <trkpt lat="40.131050" lon="-5.410533">
        <ele>1027.0</ele>
        <time>2015-06-07T15:01:01Z</time>
      </trkpt>
      <trkpt lat="40.131000" lon="-5.410750">
        <ele>1025.0</ele>
        <time>2015-06-07T15:01:03Z</time>
      </trkpt>
      <trkpt lat="40.130933" lon="-5.410983">
        <ele>1020.0</ele>
        <time>2015-06-07T15:01:05Z</time>
      </trkpt>
      <trkpt lat="40.130867" lon="-5.411250">
        <ele>1016.0</ele>
        <time>2015-06-07T15:01:07Z</time>
      </trkpt>
      <trkpt lat="40.130783" lon="-5.411517">
        <ele>1017.0</ele>
        <time>2015-06-07T15:01:09Z</time>
      </trkpt>
      <trkpt lat="40.130717" lon="-5.411733">
        <ele>1019.0</ele>
        <time>2015-06-07T15:01:11Z</time>
      </trkpt>
      <trkpt lat="40.130700" lon="-5.411983">
        <ele>1019.0</ele>
        <time>2015-06-07T15:01:13Z</time>
      </trkpt>
      <trkpt lat="40.130717" lon="-5.412200">
        <ele>1022.0</ele>
        <time>2015-06-07T15:01:15Z</time>
      </trkpt>
      <trkpt lat="40.130783" lon="-5.412317">
        <ele>1024.0</ele>
        <time>2015-06-07T15:01:17Z</time>
      </trkpt>
      <trkpt lat="40.130883" lon="-5.412350">
        <ele>1024.0</ele>
        <time>2015-06-07T15:01:19Z</time>
      </trkpt>
      <trkpt lat="40.131017" lon="-5.412317">
        <ele>1025.0</ele>
        <time>2015-06-07T15:01:21Z</time>
      </trkpt>
      <trkpt lat="40.131100" lon="-5.412183">
        <ele>1027.0</ele>
        <time>2015-06-07T15:01:23Z</time>
      </trkpt>
      <trkpt lat="40.131100" lon="-5.412000">
        <ele>1027.0</ele>
        <time>2015-06-07T15:01:25Z</time>
      </trkpt>
      <trkpt lat="40.131050" lon="-5.411800">
        <ele>1023.0</ele>
        <time>2015-06-07T15:01:27Z</time>
      </trkpt>
      <trkpt lat="40.130900" lon="-5.411617">
        <ele>1017.0</ele>
        <time>2015-06-07T15:01:29Z</time>
      </trkpt>
      <trkpt lat="40.130700" lon="-5.411500">
        <ele>1014.0</ele>
        <time>2015-06-07T15:01:31Z</time>
      </trkpt>
      <trkpt lat="40.130467" lon="-5.411500">
        <ele>1013.0</ele>
        <time>2015-06-07T15:01:33Z</time>
      </trkpt>
      <trkpt lat="40.130267" lon="-5.411583">
        <ele>1014.0</ele>
        <time>2015-06-07T15:01:35Z</time>
      </trkpt>
      <trkpt lat="40.130100" lon="-5.411717">
        <ele>1016.0</ele>
        <time>2015-06-07T15:01:37Z</time>
      </trkpt>
      <trkpt lat="40.129983" lon="-5.411933">
        <ele>1015.0</ele>
        <time>2015-06-07T15:01:39Z</time>
      </trkpt>
      <trkpt lat="40.129933" lon="-5.412183">
        <ele>1016.0</ele>
        <time>2015-06-07T15:01:41Z</time>
      </trkpt>
      <trkpt lat="40.129917" lon="-5.412433">
        <ele>1018.0</ele>
        <time>2015-06-07T15:01:43Z</time>
      </trkpt>
      <trkpt lat="40.129917" lon="-5.412667">
        <ele>1020.0</ele>
        <time>2015-06-07T15:01:45Z</time>
      </trkpt>
      <trkpt lat="40.129983" lon="-5.412867">
        <ele>1023.0</ele>
        <time>2015-06-07T15:01:47Z</time>
      </trkpt>
      <trkpt lat="40.130067" lon="-5.413000">
        <ele>1026.0</ele>
        <time>2015-06-07T15:01:49Z</time>
      </trkpt>
      <trkpt lat="40.130200" lon="-5.413033">
        <ele>1029.0</ele>
        <time>2015-06-07T15:01:51Z</time>
      </trkpt>
      <trkpt lat="40.130317" lon="-5.412950">
        <ele>1031.0</ele>
        <time>2015-06-07T15:01:53Z</time>
      </trkpt>
      <trkpt lat="40.130350" lon="-5.412767">
        <ele>1035.0</ele>
        <time>2015-06-07T15:01:55Z</time>
      </trkpt>
      <trkpt lat="40.130317" lon="-5.412583">
        <ele>1039.0</ele>
        <time>2015-06-07T15:01:57Z</time>
      </trkpt>
      <trkpt lat="40.130217" lon="-5.412417">
        <ele>1040.0</ele>
        <time>2015-06-07T15:01:59Z</time>
      </trkpt>
      <trkpt lat="40.130033" lon="-5.412300">
        <ele>1042.0</ele>
        <time>2015-06-07T15:02:01Z</time>
      </trkpt>
      <trkpt lat="40.129817" lon="-5.412333">
        <ele>1044.0</ele>
        <time>2015-06-07T15:02:03Z</time>
      </trkpt>
      <trkpt lat="40.129650" lon="-5.412467">
        <ele>1046.0</ele>
        <time>2015-06-07T15:02:05Z</time>
      </trkpt>
      <trkpt lat="40.129517" lon="-5.412683">
        <ele>1048.0</ele>
        <time>2015-06-07T15:02:07Z</time>
      </trkpt>
      <trkpt lat="40.129467" lon="-5.412933">
        <ele>1051.0</ele>
        <time>2015-06-07T15:02:09Z</time>
      </trkpt>
      <trkpt lat="40.129517" lon="-5.413133">
        <ele>1053.0</ele>
        <time>2015-06-07T15:02:11Z</time>
      </trkpt>
      <trkpt lat="40.129633" lon="-5.413267">
        <ele>1057.0</ele>
        <time>2015-06-07T15:02:13Z</time>
      </trkpt>
      <trkpt lat="40.129750" lon="-5.413267">
        <ele>1061.0</ele>
        <time>2015-06-07T15:02:15Z</time>
      </trkpt>
      <trkpt lat="40.129850" lon="-5.413167">
        <ele>1062.0</ele>
        <time>2015-06-07T15:02:17Z</time>
      </trkpt>
      <trkpt lat="40.129883" lon="-5.412967">
        <ele>1063.0</ele>
        <time>2015-06-07T15:02:19Z</time>
      </trkpt>
      <trkpt lat="40.129800" lon="-5.412767">
        <ele>1066.0</ele>
        <time>2015-06-07T15:02:21Z</time>
      </trkpt>
      <trkpt lat="40.129667" lon="-5.412617">
        <ele>1069.0</ele>
        <time>2015-06-07T15:02:23Z</time>
      </trkpt>
      <trkpt lat="40.129483" lon="-5.412550">
        <ele>1069.0</ele>
        <time>2015-06-07T15:02:25Z</time>
      </trkpt>
      <trkpt lat="40.129267" lon="-5.412583">
        <ele>1070.0</ele>
        <time>2015-06-07T15:02:27Z</time>
      </trkpt>
      <trkpt lat="40.129083" lon="-5.412700">
        <ele>1074.0</ele>
        <time>2015-06-07T15:02:29Z</time>
      </trkpt>
      <trkpt lat="40.128967" lon="-5.412900">
        <ele>1076.0</ele>
        <time>2015-06-07T15:02:31Z</time>
      </trkpt>
      <trkpt lat="40.128917" lon="-5.413133">
        <ele>1077.0</ele>
        <time>2015-06-07T15:02:33Z</time>
      </trkpt>
      <trkpt lat="40.128933" lon="-5.413350">
        <ele>1080.0</ele>
        <time>2015-06-07T15:02:35Z</time>
      </trkpt>
      <trkpt lat="40.129033" lon="-5.413483">
        <ele>1084.0</ele>
        <time>2015-06-07T15:02:37Z</time>
      </trkpt>
      <trkpt lat="40.129133" lon="-5.413567">
        <ele>1088.0</ele>
        <time>2015-06-07T15:02:39Z</time>
      </trkpt>
      <trkpt lat="40.129250" lon="-5.413567">
        <ele>1089.0</ele>
        <time>2015-06-07T15:02:41Z</time>
      </trkpt>
      <trkpt lat="40.129367" lon="-5.413483">
        <ele>1092.0</ele>
        <time>2015-06-07T15:02:43Z</time>
      </trkpt>
      <trkpt lat="40.129417" lon="-5.413317">
        <ele>1094.0</ele>
        <time>2015-06-07T15:02:45Z</time>
      </trkpt>
      <trkpt lat="40.129367" lon="-5.413117">
        <ele>1095.0</ele>
        <time>2015-06-07T15:02:47Z</time>
      </trkpt>
      <trkpt lat="40.129250" lon="-5.412950">
        <ele>1096.0</ele>
        <time>2015-06-07T15:02:49Z</time>
      </trkpt>
      <trkpt lat="40.129083" lon="-5.412850">
        <ele>1096.0</ele>
        <time>2015-06-07T15:02:51Z</time>
      </trkpt>
      <trkpt lat="40.128867" lon="-5.412833">
        <ele>1095.0</ele>
        <time>2015-06-07T15:02:53Z</time>
      </trkpt>
      <trkpt lat="40.128633" lon="-5.412933">
        <ele>1095.0</ele>
        <time>2015-06-07T15:02:55Z</time>
      </trkpt>
      <trkpt lat="40.128483" lon="-5.413117">
        <ele>1098.0</ele>
        <time>2015-06-07T15:02:57Z</time>
      </trkpt>
      <trkpt lat="40.128400" lon="-5.413317">
        <ele>1102.0</ele>
        <time>2015-06-07T15:02:59Z</time>
      </trkpt>
      <trkpt lat="40.128367" lon="-5.413550">
        <ele>1102.0</ele>
        <time>2015-06-07T15:03:01Z</time>
      </trkpt>
      <trkpt lat="40.128367" lon="-5.413800">
        <ele>1105.0</ele>
        <time>2015-06-07T15:03:03Z</time>
      </trkpt>
      <trkpt lat="40.128417" lon="-5.414000">
        <ele>1110.0</ele>
        <time>2015-06-07T15:03:05Z</time>
      </trkpt>
      <trkpt lat="40.128517" lon="-5.414133">
        <ele>1112.0</ele>
        <time>2015-06-07T15:03:07Z</time>
      </trkpt>
      <trkpt lat="40.128633" lon="-5.414183">
        <ele>1118.0</ele>
        <time>2015-06-07T15:03:09Z</time>
      </trkpt>
      <trkpt lat="40.128733" lon="-5.414117">
        <ele>1121.0</ele>
        <time>2015-06-07T15:03:11Z</time>
      </trkpt>
      <trkpt lat="40.128783" lon="-5.413950">
        <ele>1123.0</ele>
        <time>2015-06-07T15:03:13Z</time>
      </trkpt>
      <trkpt lat="40.128750" lon="-5.413733">
        <ele>1127.0</ele>
        <time>2015-06-07T15:03:15Z</time>
      </trkpt>
      <trkpt lat="40.128617" lon="-5.413583">
        <ele>1129.0</ele>
        <time>2015-06-07T15:03:17Z</time>
      </trkpt>
      <trkpt lat="40.128417" lon="-5.413517">
        <ele>1132.0</ele>
        <time>2015-06-07T15:03:19Z</time>
      </trkpt>
      <trkpt lat="40.128200" lon="-5.413550">
        <ele>1133.0</ele>
        <time>2015-06-07T15:03:21Z</time>
      </trkpt>
      <trkpt lat="40.128017" lon="-5.413700">
        <ele>1137.0</ele>
        <time>2015-06-07T15:03:23Z</time>
      </trkpt>
      <trkpt lat="40.127917" lon="-5.413900">
        <ele>1139.0</ele>
        <time>2015-06-07T15:03:25Z</time>
      </trkpt>
      <trkpt lat="40.127900" lon="-5.414150">
        <ele>1140.0</ele>
        <time>2015-06-07T15:03:27Z</time>
      </trkpt>
      <trkpt lat="40.127967" lon="-5.414333">
        <ele>1145.0</ele>
        <time>2015-06-07T15:03:29Z</time>
      </trkpt>
      <trkpt lat="40.128067" lon="-5.414400">
        <ele>1150.0</ele>
        <time>2015-06-07T15:03:31Z</time>
      </trkpt>
      <trkpt lat="40.128167" lon="-5.414383">
        <ele>1152.0</ele>
        <time>2015-06-07T15:03:33Z</time>
      </trkpt>
      <trkpt lat="40.128250" lon="-5.414250">
        <ele>1153.0</ele>
        <time>2015-06-07T15:03:35Z</time>
      </trkpt>
      <trkpt lat="40.128217" lon="-5.414017">
        <ele>1155.0</ele>
        <time>2015-06-07T15:03:37Z</time>
      </trkpt>
      <trkpt lat="40.128083" lon="-5.413850">
        <ele>1161.0</ele>
        <time>2015-06-07T15:03:39Z</time>
      </trkpt>
      <trkpt lat="40.127900" lon="-5.413783">
        <ele>1165.0</ele>
        <time>2015-06-07T15:03:41Z</time>
      </trkpt>
      <trkpt lat="40.127700" lon="-5.413800">
        <ele>1167.0</ele>
        <time>2015-06-07T15:03:43Z</time>
      </trkpt>
      <trkpt lat="40.127517" lon="-5.413950">
        <ele>1170.0</ele>
        <time>2015-06-07T15:03:45Z</time>
      </trkpt>
      <trkpt lat="40.127383" lon="-5.414167">
        <ele>1174.0</ele>
        <time>2015-06-07T15:03:47Z</time>
      </trkpt>
      <trkpt lat="40.127350" lon="-5.414400">
        <ele>1177.0</ele>
        <time>2015-06-07T15:03:49Z</time>
      </trkpt>
      <trkpt lat="40.127383" lon="-5.414617">
        <ele>1180.0</ele>
        <time>2015-06-07T15:03:51Z</time>
      </trkpt>
      <trkpt lat="40.127467" lon="-5.414767">
        <ele>1183.0</ele>
        <time>2015-06-07T15:03:53Z</time>
      </trkpt>
      <trkpt lat="40.127617" lon="-5.414783">
        <ele>1185.0</ele>
        <time>2015-06-07T15:03:55Z</time>
      </trkpt>
      <trkpt lat="40.127700" lon="-5.414633">
        <ele>1188.0</ele>
        <time>2015-06-07T15:03:57Z</time>
      </trkpt>
      <trkpt lat="40.127700" lon="-5.414433">
        <ele>1191.0</ele>
        <time>2015-06-07T15:03:59Z</time>
      </trkpt>
      <trkpt lat="40.127617" lon="-5.414250">
        <ele>1193.0</ele>
        <time>2015-06-07T15:04:01Z</time>
      </trkpt>
      <trkpt lat="40.127433" lon="-5.414133">
        <ele>1196.0</ele>
        <time>2015-06-07T15:04:03Z</time>
      </trkpt>
      <trkpt lat="40.127217" lon="-5.414150">
        <ele>1200.0</ele>
        <time>2015-06-07T15:04:05Z</time>
      </trkpt>
      <trkpt lat="40.127050" lon="-5.414267">
        <ele>1205.0</ele>
        <time>2015-06-07T15:04:07Z</time>
      </trkpt>
      <trkpt lat="40.126933" lon="-5.414433">
        <ele>1208.0</ele>
        <time>2015-06-07T15:04:09Z</time>
      </trkpt>
      <trkpt lat="40.126883" lon="-5.414683">
        <ele>1210.0</ele>
        <time>2015-06-07T15:04:11Z</time>
      </trkpt>
      <trkpt lat="40.126933" lon="-5.414900">
        <ele>1213.0</ele>
        <time>2015-06-07T15:04:13Z</time>
      </trkpt>
      <trkpt lat="40.127050" lon="-5.415017">
        <ele>1217.0</ele>
        <time>2015-06-07T15:04:15Z</time>
      </trkpt>
      <trkpt lat="40.127183" lon="-5.415017">
        <ele>1220.0</ele>
        <time>2015-06-07T15:04:17Z</time>
      </trkpt>
      <trkpt lat="40.127267" lon="-5.414883">
        <ele>1224.0</ele>
        <time>2015-06-07T15:04:19Z</time>
      </trkpt>
      <trkpt lat="40.127250" lon="-5.414667">
        <ele>1226.0</ele>
        <time>2015-06-07T15:04:21Z</time>
      </trkpt>
      <trkpt lat="40.127150" lon="-5.414483">
        <ele>1230.0</ele>
        <time>2015-06-07T15:04:23Z</time>
      </trkpt>
      <trkpt lat="40.127000" lon="-5.414367">
        <ele>1232.0</ele>
        <time>2015-06-07T15:04:25Z</time>
      </trkpt>
      <trkpt lat="40.126767" lon="-5.414383">
        <ele>1233.0</ele>
        <time>2015-06-07T15:04:27Z</time>
      </trkpt>
      <trkpt lat="40.126583" lon="-5.414533">
        <ele>1236.0</ele>
        <time>2015-06-07T15:04:29Z</time>
      </trkpt>
      <trkpt lat="40.126467" lon="-5.414733">
        <ele>1241.0</ele>
        <time>2015-06-07T15:04:31Z</time>
      </trkpt>
      <trkpt lat="40.126417" lon="-5.414950">
        <ele>1242.0</ele>
        <time>2015-06-07T15:04:33Z</time>
      </trkpt>
      <trkpt lat="40.126483" lon="-5.415200">
        <ele>1244.0</ele>
        <time>2015-06-07T15:04:35Z</time>
      </trkpt>
      <trkpt lat="40.126617" lon="-5.415317">
        <ele>1251.0</ele>
        <time>2015-06-07T15:04:37Z</time>
      </trkpt>
      <trkpt lat="40.126717" lon="-5.415333">
        <ele>1255.0</ele>
        <time>2015-06-07T15:04:39Z</time>
      </trkpt>
      <trkpt lat="40.126833" lon="-5.415250">
        <ele>1256.0</ele>
        <time>2015-06-07T15:04:41Z</time>
      </trkpt>
      <trkpt lat="40.126883" lon="-5.415033">
        <ele>1257.0</ele>
        <time>2015-06-07T15:04:43Z</time>
      </trkpt>
      <trkpt lat="40.126817" lon="-5.414817">
        <ele>1261.0</ele>
        <time>2015-06-07T15:04:45Z</time>
      </trkpt>
      <trkpt lat="40.126683" lon="-5.414683">
        <ele>1264.0</ele>
        <time>2015-06-07T15:04:47Z</time>
      </trkpt>
      <trkpt lat="40.126483" lon="-5.414633">
        <ele>1265.0</ele>
        <time>2015-06-07T15:04:49Z</time>
      </trkpt>
      <trkpt lat="40.126267" lon="-5.414717">
        <ele>1266.0</ele>
        <time>2015-06-07T15:04:51Z</time>
      </trkpt>
      <trkpt lat="40.126133" lon="-5.414933">
        <ele>1272.0</ele>
        <time>2015-06-07T15:04:53Z</time>
      </trkpt>
      <trkpt lat="40.126100" lon="-5.415150">
        <ele>1276.0</ele>
        <time>2015-06-07T15:04:55Z</time>
      </trkpt>
      <trkpt lat="40.126117" lon="-5.415367">
        <ele>1279.0</ele>
        <time>2015-06-07T15:04:57Z</time>
      </trkpt>
      <trkpt lat="40.126233" lon="-5.415517">
        <ele>1281.0</ele>
        <time>2015-06-07T15:04:59Z</time>
      </trkpt>
      <trkpt lat="40.126383" lon="-5.415533">
        <ele>1286.0</ele>
        <time>2015-06-07T15:05:01Z</time>
      </trkpt>
      <trkpt lat="40.126483" lon="-5.415417">
        <ele>1289.0</ele>
        <time>2015-06-07T15:05:03Z</time>
      </trkpt>
      <trkpt lat="40.126517" lon="-5.415233">
        <ele>1290.0</ele>
        <time>2015-06-07T15:05:05Z</time>
      </trkpt>
      <trkpt lat="40.126467" lon="-5.415050">
        <ele>1291.0</ele>
        <time>2015-06-07T15:05:07Z</time>
      </trkpt>
      <trkpt lat="40.126300" lon="-5.414883">
        <ele>1291.0</ele>
        <time>2015-06-07T15:05:09Z</time>
      </trkpt>
      <trkpt lat="40.126083" lon="-5.414850">
        <ele>1291.0</ele>
        <time>2015-06-07T15:05:11Z</time>
      </trkpt>
      <trkpt lat="40.125867" lon="-5.414950">
        <ele>1294.0</ele>
        <time>2015-06-07T15:05:13Z</time>
      </trkpt>
      <trkpt lat="40.125700" lon="-5.415100">
        <ele>1300.0</ele>
        <time>2015-06-07T15:05:15Z</time>
      </trkpt>
      <trkpt lat="40.125583" lon="-5.415283">
        <ele>1305.0</ele>
        <time>2015-06-07T15:05:17Z</time>
      </trkpt>
      <trkpt lat="40.125533" lon="-5.415517">
        <ele>1307.0</ele>
        <time>2015-06-07T15:05:19Z</time>
      </trkpt>
      <trkpt lat="40.125550" lon="-5.415767">
        <ele>1311.0</ele>
        <time>2015-06-07T15:05:21Z</time>
      </trkpt>
      <trkpt lat="40.125683" lon="-5.415917">
        <ele>1315.0</ele>
        <time>2015-06-07T15:05:23Z</time>
      </trkpt>
      <trkpt lat="40.125833" lon="-5.415933">
        <ele>1318.0</ele>
        <time>2015-06-07T15:05:25Z</time>
      </trkpt>
      <trkpt lat="40.125933" lon="-5.415783">
        <ele>1322.0</ele>
        <time>2015-06-07T15:05:27Z</time>
      </trkpt>
      <trkpt lat="40.125900" lon="-5.415583">
        <ele>1325.0</ele>
        <time>2015-06-07T15:05:29Z</time>
      </trkpt>
      <trkpt lat="40.125800" lon="-5.415400">
        <ele>1327.0</ele>
        <time>2015-06-07T15:05:31Z</time>
      </trkpt>
      <trkpt lat="40.125583" lon="-5.415283">
        <ele>1329.0</ele>
        <time>2015-06-07T15:05:33Z</time>
      </trkpt>
      <trkpt lat="40.125367" lon="-5.415300">
        <ele>1333.0</ele>
        <time>2015-06-07T15:05:35Z</time>
      </trkpt>
      <trkpt lat="40.125167" lon="-5.415383">
        <ele>1337.0</ele>
        <time>2015-06-07T15:05:37Z</time>
      </trkpt>
      <trkpt lat="40.125000" lon="-5.415517">
        <ele>1342.0</ele>
        <time>2015-06-07T15:05:39Z</time>
      </trkpt>
      <trkpt lat="40.124917" lon="-5.415733">
        <ele>1345.0</ele>
        <time>2015-06-07T15:05:41Z</time>
      </trkpt>
      <trkpt lat="40.124900" lon="-5.415967">
        <ele>1348.0</ele>
        <time>2015-06-07T15:05:43Z</time>
      </trkpt>
      <trkpt lat="40.125000" lon="-5.416150">
        <ele>1351.0</ele>
        <time>2015-06-07T15:05:45Z</time>
      </trkpt>
      <trkpt lat="40.125133" lon="-5.416200">
        <ele>1355.0</ele>
        <time>2015-06-07T15:05:47Z</time>
      </trkpt>
      <trkpt lat="40.125267" lon="-5.416183">
        <ele>1359.0</ele>
        <time>2015-06-07T15:05:49Z</time>
      </trkpt>
      <trkpt lat="40.125367" lon="-5.416033">
        <ele>1361.0</ele>
        <time>2015-06-07T15:05:51Z</time>
      </trkpt>
      <trkpt lat="40.125317" lon="-5.415817">
        <ele>1362.0</ele>
        <time>2015-06-07T15:05:53Z</time>
      </trkpt>
      <trkpt lat="40.125133" lon="-5.415700">
        <ele>1365.0</ele>
        <time>2015-06-07T15:05:55Z</time>
      </trkpt>
      <trkpt lat="40.124933" lon="-5.415683">
        <ele>1370.0</ele>
        <time>2015-06-07T15:05:57Z</time>
      </trkpt>
      <trkpt lat="40.124750" lon="-5.415750">
        <ele>1373.0</ele>
        <time>2015-06-07T15:05:59Z</time>
      </trkpt>
      <trkpt lat="40.124600" lon="-5.415933">
        <ele>1376.0</ele>
        <time>2015-06-07T15:06:01Z</time>
      </trkpt>
      <trkpt lat="40.124517" lon="-5.416167">
        <ele>1381.0</ele>
        <time>2015-06-07T15:06:03Z</time>
      </trkpt>
      <trkpt lat="40.124533" lon="-5.416400">
        <ele>1384.0</ele>
        <time>2015-06-07T15:06:05Z</time>
      </trkpt>
      <trkpt lat="40.124617" lon="-5.416600">
        <ele>1386.0</ele>
        <time>2015-06-07T15:06:07Z</time>
      </trkpt>
      <trkpt lat="40.124767" lon="-5.416617">
        <ele>1387.0</ele>
        <time>2015-06-07T15:06:09Z</time>
      </trkpt>
      <trkpt lat="40.124883" lon="-5.416467">
        <ele>1389.0</ele>
        <time>2015-06-07T15:06:11Z</time>
      </trkpt>
      <trkpt lat="40.124883" lon="-5.416250">
        <ele>1393.0</ele>
        <time>2015-06-07T15:06:13Z</time>
      </trkpt>
      <trkpt lat="40.124800" lon="-5.416067">
        <ele>1398.0</ele>
        <time>2015-06-07T15:06:15Z</time>
      </trkpt>
      <trkpt lat="40.124633" lon="-5.415983">
        <ele>1402.0</ele>
        <time>2015-06-07T15:06:17Z</time>
      </trkpt>
      <trkpt lat="40.124450" lon="-5.416000">
        <ele>1405.0</ele>
        <time>2015-06-07T15:06:19Z</time>
      </trkpt>
      <trkpt lat="40.124300" lon="-5.416167">
        <ele>1409.0</ele>
        <time>2015-06-07T15:06:21Z</time>
      </trkpt>
      <trkpt lat="40.124233" lon="-5.416400">
        <ele>1414.0</ele>
        <time>2015-06-07T15:06:23Z</time>
      </trkpt>
      <trkpt lat="40.124283" lon="-5.416617">
        <ele>1417.0</ele>
        <time>2015-06-07T15:06:25Z</time>
      </trkpt>
      <trkpt lat="40.124400" lon="-5.416717">
        <ele>1420.0</ele>
        <time>2015-06-07T15:06:27Z</time>
      </trkpt>
      <trkpt lat="40.124550" lon="-5.416700">
        <ele>1421.0</ele>
        <time>2015-06-07T15:06:29Z</time>
      </trkpt>
      <trkpt lat="40.124667" lon="-5.416567">
        <ele>1422.0</ele>
        <time>2015-06-07T15:06:31Z</time>
      </trkpt>
      <trkpt lat="40.124700" lon="-5.416317">
        <ele>1425.0</ele>
        <time>2015-06-07T15:06:33Z</time>
      </trkpt>
      <trkpt lat="40.124600" lon="-5.416117">
        <ele>1431.0</ele>
        <time>2015-06-07T15:06:35Z</time>
      </trkpt>
      <trkpt lat="40.124450" lon="-5.415983">
        <ele>1435.0</ele>
        <time>2015-06-07T15:06:37Z</time>
      </trkpt>
      <trkpt lat="40.124283" lon="-5.415967">
        <ele>1437.0</ele>
        <time>2015-06-07T15:06:39Z</time>
      </trkpt>
      <trkpt lat="40.124100" lon="-5.416083">
        <ele>1439.0</ele>
        <time>2015-06-07T15:06:41Z</time>
      </trkpt>
      <trkpt lat="40.124017" lon="-5.416317">
        <ele>1443.0</ele>
        <time>2015-06-07T15:06:43Z</time>
      </trkpt>
      <trkpt lat="40.124083" lon="-5.416517">
        <ele>1448.0</ele>
        <time>2015-06-07T15:06:45Z</time>
      </trkpt>
      <trkpt lat="40.124200" lon="-5.416617">
        <ele>1454.0</ele>
        <time>2015-06-07T15:06:47Z</time>
      </trkpt>
      <trkpt lat="40.124333" lon="-5.416567">
        <ele>1456.0</ele>
        <time>2015-06-07T15:06:49Z</time>
      </trkpt>
      <trkpt lat="40.124433" lon="-5.416417">
        <ele>1458.0</ele>
        <time>2015-06-07T15:06:51Z</time>
      </trkpt>
      <trkpt lat="40.124417" lon="-5.416183">
        <ele>1461.0</ele>
        <time>2015-06-07T15:06:53Z</time>
      </trkpt>
      <trkpt lat="40.124300" lon="-5.415967">
        <ele>1464.0</ele>
        <time>2015-06-07T15:06:55Z</time>
      </trkpt>
      <trkpt lat="40.124133" lon="-5.415900">
        <ele>1467.0</ele>
        <time>2015-06-07T15:06:57Z</time>
      </trkpt>
      <trkpt lat="40.123950" lon="-5.416017">
        <ele>1468.0</ele>
        <time>2015-06-07T15:06:59Z</time>
      </trkpt>
      <trkpt lat="40.123850" lon="-5.416217">
        <ele>1472.0</ele>
        <time>2015-06-07T15:07:01Z</time>
      </trkpt>
      <trkpt lat="40.123850" lon="-5.416417">
        <ele>1475.0</ele>
        <time>2015-06-07T15:07:03Z</time>
      </trkpt>
      <trkpt lat="40.123917" lon="-5.416583">
        <ele>1478.0</ele>
        <time>2015-06-07T15:07:05Z</time>
      </trkpt>
      <trkpt lat="40.124067" lon="-5.416650">
        <ele>1481.0</ele>
        <time>2015-06-07T15:07:07Z</time>
      </trkpt>
      <trkpt lat="40.124200" lon="-5.416567">
        <ele>1484.0</ele>
        <time>2015-06-07T15:07:09Z</time>
      </trkpt>
      <trkpt lat="40.124250" lon="-5.416383">
        <ele>1488.0</ele>
        <time>2015-06-07T15:07:11Z</time>
      </trkpt>
      <trkpt lat="40.124200" lon="-5.416167">
        <ele>1489.0</ele>
        <time>2015-06-07T15:07:13Z</time>
      </trkpt>
      <trkpt lat="40.124017" lon="-5.415983">
        <ele>1490.0</ele>
        <time>2015-06-07T15:07:15Z</time>
      </trkpt>
      <trkpt lat="40.123817" lon="-5.415983">
        <ele>1493.0</ele>
        <time>2015-06-07T15:07:17Z</time>
      </trkpt>
      <trkpt lat="40.123667" lon="-5.416067">
        <ele>1496.0</ele>
        <time>2015-06-07T15:07:19Z</time>
      </trkpt>
      <trkpt lat="40.123533" lon="-5.416217">
        <ele>1498.0</ele>
        <time>2015-06-07T15:07:21Z</time>
      </trkpt>
      <trkpt lat="40.123517" lon="-5.416450">
        <ele>1496.0</ele>
        <time>2015-06-07T15:07:23Z</time>
      </trkpt>
      <trkpt lat="40.123617" lon="-5.416633">
        <ele>1499.0</ele>
        <time>2015-06-07T15:07:25Z</time>
      </trkpt>
      <trkpt lat="40.123767" lon="-5.416683">
        <ele>1503.0</ele>
        <time>2015-06-07T15:07:27Z</time>
      </trkpt>
      <trkpt lat="40.123900" lon="-5.416633">
        <ele>1508.0</ele>
        <time>2015-06-07T15:07:29Z</time>
      </trkpt>
      <trkpt lat="40.123983" lon="-5.416483">
        <ele>1510.0</ele>
        <time>2015-06-07T15:07:31Z</time>
      </trkpt>
      <trkpt lat="40.124000" lon="-5.416250">
        <ele>1512.0</ele>
        <time>2015-06-07T15:07:33Z</time>
      </trkpt>
      <trkpt lat="40.123900" lon="-5.416033">
        <ele>1515.0</ele>
        <time>2015-06-07T15:07:35Z</time>
      </trkpt>
      <trkpt lat="40.123750" lon="-5.415867">
        <ele>1516.0</ele>
        <time>2015-06-07T15:07:37Z</time>
      </trkpt>
      <trkpt lat="40.123550" lon="-5.415767">
        <ele>1517.0</ele>
        <time>2015-06-07T15:07:39Z</time>
      </trkpt>
      <trkpt lat="40.123333" lon="-5.415800">
        <ele>1518.0</ele>
        <time>2015-06-07T15:07:41Z</time>
      </trkpt>
      <trkpt lat="40.123183" lon="-5.415950">
        <ele>1520.0</ele>
        <time>2015-06-07T15:07:43Z</time>
      </trkpt>
      <trkpt lat="40.123133" lon="-5.416150">
        <ele>1521.0</ele>
        <time>2015-06-07T15:07:45Z</time>
      </trkpt>
      <trkpt lat="40.123167" lon="-5.416333">
        <ele>1522.0</ele>
        <time>2015-06-07T15:07:47Z</time>
      </trkpt>
      <trkpt lat="40.123300" lon="-5.416450">
        <ele>1524.0</ele>
        <time>2015-06-07T15:07:49Z</time>
      </trkpt>
      <trkpt lat="40.123450" lon="-5.416417">
        <ele>1527.0</ele>
        <time>2015-06-07T15:07:51Z</time>
      </trkpt>
      <trkpt lat="40.123567" lon="-5.416250">
        <ele>1530.0</ele>
        <time>2015-06-07T15:07:53Z</time>
      </trkpt>
      <trkpt lat="40.123600" lon="-5.416017">
        <ele>1533.0</ele>
        <time>2015-06-07T15:07:55Z</time>
      </trkpt>
      <trkpt lat="40.123567" lon="-5.415767">
        <ele>1537.0</ele>
        <time>2015-06-07T15:07:57Z</time>
      </trkpt>
      <trkpt lat="40.123433" lon="-5.415567">
        <ele>1539.0</ele>
        <time>2015-06-07T15:07:59Z</time>
      </trkpt>
      <trkpt lat="40.123217" lon="-5.415500">
        <ele>1539.0</ele>
        <time>2015-06-07T15:08:01Z</time>
      </trkpt>
      <trkpt lat="40.123017" lon="-5.415567">
        <ele>1540.0</ele>
        <time>2015-06-07T15:08:03Z</time>
      </trkpt>
      <trkpt lat="40.122900" lon="-5.415750">
        <ele>1541.0</ele>
        <time>2015-06-07T15:08:05Z</time>
      </trkpt>
      <trkpt lat="40.122867" lon="-5.415967">
        <ele>1544.0</ele>
        <time>2015-06-07T15:08:07Z</time>
      </trkpt>
      <trkpt lat="40.122917" lon="-5.416133">
        <ele>1545.0</ele>
        <time>2015-06-07T15:08:09Z</time>
      </trkpt>
      <trkpt lat="40.123050" lon="-5.416233">
        <ele>1546.0</ele>
        <time>2015-06-07T15:08:11Z</time>
      </trkpt>
      <trkpt lat="40.123217" lon="-5.416183">
        <ele>1549.0</ele>
        <time>2015-06-07T15:08:13Z</time>
      </trkpt>
      <trkpt lat="40.123300" lon="-5.415983">
        <ele>1554.0</ele>
        <time>2015-06-07T15:08:15Z</time>
      </trkpt>
      <trkpt lat="40.123283" lon="-5.415750">
        <ele>1558.0</ele>
        <time>2015-06-07T15:08:17Z</time>
      </trkpt>
      <trkpt lat="40.123183" lon="-5.415550">
        <ele>1562.0</ele>
        <time>2015-06-07T15:08:19Z</time>
      </trkpt>
      <trkpt lat="40.123000" lon="-5.415417">
        <ele>1563.0</ele>
        <time>2015-06-07T15:08:21Z</time>
      </trkpt>
      <trkpt lat="40.122800" lon="-5.415450">
        <ele>1564.0</ele>
        <time>2015-06-07T15:08:23Z</time>
      </trkpt>
      <trkpt lat="40.122650" lon="-5.415617">
        <ele>1565.0</ele>
        <time>2015-06-07T15:08:25Z</time>
      </trkpt>
      <trkpt lat="40.122583" lon="-5.415833">
        <ele>1565.0</ele>
        <time>2015-06-07T15:08:27Z</time>
      </trkpt>
      <trkpt lat="40.122617" lon="-5.416033">
        <ele>1565.0</ele>
        <time>2015-06-07T15:08:29Z</time>
      </trkpt>
      <trkpt lat="40.122733" lon="-5.416183">
        <ele>1564.0</ele>
        <time>2015-06-07T15:08:31Z</time>
      </trkpt>
      <trkpt lat="40.122950" lon="-5.416233">
        <ele>1563.0</ele>
        <time>2015-06-07T15:08:33Z</time>
      </trkpt>
      <trkpt lat="40.123133" lon="-5.416117">
        <ele>1567.0</ele>
        <time>2015-06-07T15:08:35Z</time>
      </trkpt>
      <trkpt lat="40.123233" lon="-5.415933">
        <ele>1575.0</ele>
        <time>2015-06-07T15:08:37Z</time>
      </trkpt>
      <trkpt lat="40.123283" lon="-5.415733">
        <ele>1579.0</ele>
        <time>2015-06-07T15:08:39Z</time>
      </trkpt>
      <trkpt lat="40.123250" lon="-5.415483">
        <ele>1581.0</ele>
        <time>2015-06-07T15:08:41Z</time>
      </trkpt>
      <trkpt lat="40.123117" lon="-5.415267">
        <ele>1585.0</ele>
        <time>2015-06-07T15:08:43Z</time>
      </trkpt>
      <trkpt lat="40.122917" lon="-5.415217">
        <ele>1590.0</ele>
        <time>2015-06-07T15:08:45Z</time>
      </trkpt>
      <trkpt lat="40.122733" lon="-5.415283">
        <ele>1592.0</ele>
        <time>2015-06-07T15:08:47Z</time>
      </trkpt>
      <trkpt lat="40.122567" lon="-5.415450">
        <ele>1593.0</ele>
        <time>2015-06-07T15:08:49Z</time>
      </trkpt>
      <trkpt lat="40.122450" lon="-5.415667">
        <ele>1596.0</ele>
        <time>2015-06-07T15:08:51Z</time>
      </trkpt>
      <trkpt lat="40.122417" lon="-5.415883">
        <ele>1599.0</ele>
        <time>2015-06-07T15:08:53Z</time>
      </trkpt>
      <trkpt lat="40.122433" lon="-5.416100">
        <ele>1598.0</ele>
        <time>2015-06-07T15:08:55Z</time>
      </trkpt>
      <trkpt lat="40.122550" lon="-5.416283">
        <ele>1597.0</ele>
        <time>2015-06-07T15:08:57Z</time>
      </trkpt>
      <trkpt lat="40.122733" lon="-5.416383">
        <ele>1602.0</ele>
        <time>2015-06-07T15:08:59Z</time>
      </trkpt>
      <trkpt lat="40.122900" lon="-5.416450">
        <ele>1608.0</ele>
        <time>2015-06-07T15:09:01Z</time>
      </trkpt>
      <trkpt lat="40.123050" lon="-5.416483">
        <ele>1612.0</ele>
        <time>2015-06-07T15:09:03Z</time>
      </trkpt>
      <trkpt lat="40.123217" lon="-5.416383">
        <ele>1613.0</ele>
        <time>2015-06-07T15:09:05Z</time>
      </trkpt>
      <trkpt lat="40.123300" lon="-5.416167">
        <ele>1617.0</ele>
        <time>2015-06-07T15:09:07Z</time>
      </trkpt>
      <trkpt lat="40.123250" lon="-5.415950">
        <ele>1622.0</ele>
        <time>2015-06-07T15:09:09Z</time>
      </trkpt>
      <trkpt lat="40.123133" lon="-5.415833">
        <ele>1628.0</ele>
        <time>2015-06-07T15:09:11Z</time>
      </trkpt>
      <trkpt lat="40.122983" lon="-5.415833">
        <ele>1633.0</ele>
        <time>2015-06-07T15:09:13Z</time>
      </trkpt>
      <trkpt lat="40.122850" lon="-5.415967">
        <ele>1638.0</ele>
        <time>2015-06-07T15:09:15Z</time>
      </trkpt>
      <trkpt lat="40.122800" lon="-5.416200">
        <ele>1642.0</ele>
        <time>2015-06-07T15:09:17Z</time>
      </trkpt>
      <trkpt lat="40.122833" lon="-5.416433">
        <ele>1647.0</ele>
        <time>2015-06-07T15:09:19Z</time>
      </trkpt>
      <trkpt lat="40.122950" lon="-5.416583">
        <ele>1651.0</ele>
        <time>2015-06-07T15:09:21Z</time>
      </trkpt>
      <trkpt lat="40.123100" lon="-5.416650">
        <ele>1654.0</ele>
        <time>2015-06-07T15:09:23Z</time>
      </trkpt>
      <trkpt lat="40.123267" lon="-5.416533">
        <ele>1654.0</ele>
        <time>2015-06-07T15:09:25Z</time>
      </trkpt>
      <trkpt lat="40.123350" lon="-5.416317">
        <ele>1656.0</ele>
        <time>2015-06-07T15:09:27Z</time>
      </trkpt>
      <trkpt lat="40.123317" lon="-5.416117">
        <ele>1662.0</ele>
        <time>2015-06-07T15:09:29Z</time>
      </trkpt>
      <trkpt lat="40.123233" lon="-5.415967">
        <ele>1665.0</ele>
        <time>2015-06-07T15:09:31Z</time>
      </trkpt>
      <trkpt lat="40.123100" lon="-5.415867">
        <ele>1668.0</ele>
        <time>2015-06-07T15:09:33Z</time>
      </trkpt>
      <trkpt lat="40.122950" lon="-5.415917">
        <ele>1670.0</ele>
        <time>2015-06-07T15:09:35Z</time>
      </trkpt>
      <trkpt lat="40.122833" lon="-5.416050">
        <ele>1674.0</ele>
        <time>2015-06-07T15:09:37Z</time>
      </trkpt>
      <trkpt lat="40.122767" lon="-5.416250">
        <ele>1677.0</ele>
        <time>2015-06-07T15:09:39Z</time>
      </trkpt>
      <trkpt lat="40.122817" lon="-5.416500">
        <ele>1680.0</ele>
        <time>2015-06-07T15:09:41Z</time>
      </trkpt>
      <trkpt lat="40.122933" lon="-5.416667">
        <ele>1685.0</ele>
        <time>2015-06-07T15:09:43Z</time>
      </trkpt>
      <trkpt lat="40.123067" lon="-5.416750">
        <ele>1688.0</ele>
        <time>2015-06-07T15:09:45Z</time>
      </trkpt>
      <trkpt lat="40.123233" lon="-5.416733">
        <ele>1686.0</ele>
        <time>2015-06-07T15:09:47Z</time>
      </trkpt>
      <trkpt lat="40.123400" lon="-5.416583">
        <ele>1685.0</ele>
        <time>2015-06-07T15:09:49Z</time>
      </trkpt>
      <trkpt lat="40.123433" lon="-5.416367">
        <ele>1688.0</ele>
        <time>2015-06-07T15:09:51Z</time>
      </trkpt>
      <trkpt lat="40.123383" lon="-5.416200">
        <ele>1691.0</ele>
        <time>2015-06-07T15:09:53Z</time>
      </trkpt>
      <trkpt lat="40.123283" lon="-5.416083">
        <ele>1691.0</ele>
        <time>2015-06-07T15:09:55Z</time>
      </trkpt>
      <trkpt lat="40.123117" lon="-5.416083">
        <ele>1691.0</ele>
        <time>2015-06-07T15:09:57Z</time>
      </trkpt>
      <trkpt lat="40.122967" lon="-5.416167">
        <ele>1693.0</ele>
        <time>2015-06-07T15:09:59Z</time>
      </trkpt>
      <trkpt lat="40.122850" lon="-5.416317">
        <ele>1696.0</ele>
        <time>2015-06-07T15:10:01Z</time>
      </trkpt>
      <trkpt lat="40.122800" lon="-5.416517">
        <ele>1698.0</ele>
        <time>2015-06-07T15:10:03Z</time>
      </trkpt>
      <trkpt lat="40.122817" lon="-5.416733">
        <ele>1701.0</ele>
        <time>2015-06-07T15:10:05Z</time>
      </trkpt>
      <trkpt lat="40.122900" lon="-5.416917">
        <ele>1703.0</ele>
        <time>2015-06-07T15:10:07Z</time>
      </trkpt>
      <trkpt lat="40.123050" lon="-5.417050">
        <ele>1703.0</ele>
        <time>2015-06-07T15:10:09Z</time>
      </trkpt>
      <trkpt lat="40.123233" lon="-5.417083">
        <ele>1701.0</ele>
        <time>2015-06-07T15:10:11Z</time>
      </trkpt>
      <trkpt lat="40.123400" lon="-5.417033">
        <ele>1700.0</ele>
        <time>2015-06-07T15:10:13Z</time>
      </trkpt>
      <trkpt lat="40.123533" lon="-5.416900">
        <ele>1698.0</ele>
        <time>2015-06-07T15:10:15Z</time>
      </trkpt>
      <trkpt lat="40.123617" lon="-5.416717">
        <ele>1696.0</ele>
        <time>2015-06-07T15:10:17Z</time>
      </trkpt>
      <trkpt lat="40.123633" lon="-5.416517">
        <ele>1695.0</ele>
        <time>2015-06-07T15:10:19Z</time>
      </trkpt>
      <trkpt lat="40.123550" lon="-5.416350">
        <ele>1695.0</ele>
        <time>2015-06-07T15:10:21Z</time>
      </trkpt>
      <trkpt lat="40.123383" lon="-5.416283">
        <ele>1693.0</ele>
        <time>2015-06-07T15:10:23Z</time>
      </trkpt>
      <trkpt lat="40.123217" lon="-5.416350">
        <ele>1694.0</ele>
        <time>2015-06-07T15:10:25Z</time>
      </trkpt>
      <trkpt lat="40.123083" lon="-5.416500">
        <ele>1695.0</ele>
        <time>2015-06-07T15:10:27Z</time>
      </trkpt>
      <trkpt lat="40.122983" lon="-5.416667">
        <ele>1694.0</ele>
        <time>2015-06-07T15:10:29Z</time>
      </trkpt>
      <trkpt lat="40.122900" lon="-5.416900">
        <ele>1691.0</ele>
        <time>2015-06-07T15:10:31Z</time>
      </trkpt>
      <trkpt lat="40.122800" lon="-5.417150">
        <ele>1690.0</ele>
        <time>2015-06-07T15:10:33Z</time>
      </trkpt>
      <trkpt lat="40.122700" lon="-5.417383">
        <ele>1690.0</ele>
        <time>2015-06-07T15:10:35Z</time>
      </trkpt>
      <trkpt lat="40.122600" lon="-5.417617">
        <ele>1689.0</ele>
        <time>2015-06-07T15:10:37Z</time>
      </trkpt>
      <trkpt lat="40.122517" lon="-5.417883">
        <ele>1687.0</ele>
        <time>2015-06-07T15:10:39Z</time>
      </trkpt>
      <trkpt lat="40.122400" lon="-5.418133">
        <ele>1687.0</ele>
        <time>2015-06-07T15:10:41Z</time>
      </trkpt>
      <trkpt lat="40.122283" lon="-5.418350">
        <ele>1684.0</ele>
        <time>2015-06-07T15:10:43Z</time>
      </trkpt>
      <trkpt lat="40.122150" lon="-5.418567">
        <ele>1683.0</ele>
        <time>2015-06-07T15:10:45Z</time>
      </trkpt>
      <trkpt lat="40.121983" lon="-5.418717">
        <ele>1683.0</ele>
        <time>2015-06-07T15:10:47Z</time>
      </trkpt>
      <trkpt lat="40.121817" lon="-5.418850">
        <ele>1683.0</ele>
        <time>2015-06-07T15:10:49Z</time>
      </trkpt>
      <trkpt lat="40.121617" lon="-5.419033">
        <ele>1683.0</ele>
        <time>2015-06-07T15:10:51Z</time>
      </trkpt>
      <trkpt lat="40.121433" lon="-5.419200">
        <ele>1690.0</ele>
        <time>2015-06-07T15:10:53Z</time>
      </trkpt>
      <trkpt lat="40.121317" lon="-5.419350">
        <ele>1694.0</ele>
        <time>2015-06-07T15:10:55Z</time>
      </trkpt>
      <trkpt lat="40.121283" lon="-5.419567">
        <ele>1693.0</ele>
        <time>2015-06-07T15:10:57Z</time>
      </trkpt>
      <trkpt lat="40.121333" lon="-5.419800">
        <ele>1695.0</ele>
        <time>2015-06-07T15:10:59Z</time>
      </trkpt>
      <trkpt lat="40.121433" lon="-5.419933">
        <ele>1698.0</ele>
        <time>2015-06-07T15:11:01Z</time>
      </trkpt>
      <trkpt lat="40.121583" lon="-5.419967">
        <ele>1699.0</ele>
        <time>2015-06-07T15:11:03Z</time>
      </trkpt>
      <trkpt lat="40.121717" lon="-5.419917">
        <ele>1704.0</ele>
        <time>2015-06-07T15:11:05Z</time>
      </trkpt>
      <trkpt lat="40.121783" lon="-5.419767">
        <ele>1708.0</ele>
        <time>2015-06-07T15:11:07Z</time>
      </trkpt>
      <trkpt lat="40.121800" lon="-5.419567">
        <ele>1708.0</ele>
        <time>2015-06-07T15:11:09Z</time>
      </trkpt>
      <trkpt lat="40.121733" lon="-5.419317">
        <ele>1706.0</ele>
        <time>2015-06-07T15:11:11Z</time>
      </trkpt>
      <trkpt lat="40.121583" lon="-5.419133">
        <ele>1711.0</ele>
        <time>2015-06-07T15:11:13Z</time>
      </trkpt>
      <trkpt lat="40.121417" lon="-5.419067">
        <ele>1715.0</ele>
        <time>2015-06-07T15:11:15Z</time>
      </trkpt>
      <trkpt lat="40.121233" lon="-5.419067">
        <ele>1716.0</ele>
        <time>2015-06-07T15:11:17Z</time>
      </trkpt>
      <trkpt lat="40.121050" lon="-5.419133">
        <ele>1717.0</ele>
        <time>2015-06-07T15:11:19Z</time>
      </trkpt>
      <trkpt lat="40.120933" lon="-5.419317">
        <ele>1719.0</ele>
        <time>2015-06-07T15:11:21Z</time>
      </trkpt>
      <trkpt lat="40.120867" lon="-5.419517">
        <ele>1723.0</ele>
        <time>2015-06-07T15:11:23Z</time>
      </trkpt>
      <trkpt lat="40.120833" lon="-5.419717">
        <ele>1726.0</ele>
        <time>2015-06-07T15:11:25Z</time>
      </trkpt>
      <trkpt lat="40.120900" lon="-5.419933">
        <ele>1726.0</ele>
        <time>2015-06-07T15:11:27Z</time>
      </trkpt>
      <trkpt lat="40.121050" lon="-5.420067">
        <ele>1727.0</ele>
        <time>2015-06-07T15:11:29Z</time>
      </trkpt>
      <trkpt lat="40.121183" lon="-5.420133">
        <ele>1730.0</ele>
        <time>2015-06-07T15:11:31Z</time>
      </trkpt>
      <trkpt lat="40.121317" lon="-5.420133">
        <ele>1731.0</ele>
        <time>2015-06-07T15:11:33Z</time>
      </trkpt>
      <trkpt lat="40.121417" lon="-5.420000">
        <ele>1730.0</ele>
        <time>2015-06-07T15:11:35Z</time>
      </trkpt>
      <trkpt lat="40.121467" lon="-5.419783">
        <ele>1729.0</ele>
        <time>2015-06-07T15:11:37Z</time>
      </trkpt>
      <trkpt lat="40.121417" lon="-5.419533">
        <ele>1730.0</ele>
        <time>2015-06-07T15:11:39Z</time>
      </trkpt>
      <trkpt lat="40.121317" lon="-5.419333">
        <ele>1732.0</ele>
        <time>2015-06-07T15:11:41Z</time>
      </trkpt>
      <trkpt lat="40.121150" lon="-5.419233">
        <ele>1733.0</ele>
        <time>2015-06-07T15:11:43Z</time>
      </trkpt>
      <trkpt lat="40.120967" lon="-5.419200">
        <ele>1733.0</ele>
        <time>2015-06-07T15:11:45Z</time>
      </trkpt>
      <trkpt lat="40.120783" lon="-5.419283">
        <ele>1734.0</ele>
        <time>2015-06-07T15:11:47Z</time>
      </trkpt>
      <trkpt lat="40.120617" lon="-5.419417">
        <ele>1737.0</ele>
        <time>2015-06-07T15:11:49Z</time>
      </trkpt>
      <trkpt lat="40.120500" lon="-5.419600">
        <ele>1740.0</ele>
        <time>2015-06-07T15:11:51Z</time>
      </trkpt>
      <trkpt lat="40.120450" lon="-5.419783">
        <ele>1741.0</ele>
        <time>2015-06-07T15:11:53Z</time>
      </trkpt>
      <trkpt lat="40.120450" lon="-5.420017">
        <ele>1741.0</ele>
        <time>2015-06-07T15:11:55Z</time>
      </trkpt>
      <trkpt lat="40.120517" lon="-5.420267">
        <ele>1742.0</ele>
        <time>2015-06-07T15:11:57Z</time>
      </trkpt>
      <trkpt lat="40.120650" lon="-5.420317">
        <ele>1744.0</ele>
        <time>2015-06-07T15:11:59Z</time>
      </trkpt>
      <trkpt lat="40.120767" lon="-5.420217">
        <ele>1745.0</ele>
        <time>2015-06-07T15:12:01Z</time>
      </trkpt>
      <trkpt lat="40.120833" lon="-5.420067">
        <ele>1746.0</ele>
        <time>2015-06-07T15:12:03Z</time>
      </trkpt>
      <trkpt lat="40.120833" lon="-5.419833">
        <ele>1744.0</ele>
        <time>2015-06-07T15:12:05Z</time>
      </trkpt>
      <trkpt lat="40.120717" lon="-5.419583">
        <ele>1744.0</ele>
        <time>2015-06-07T15:12:07Z</time>
      </trkpt>
      <trkpt lat="40.120567" lon="-5.419433">
        <ele>1751.0</ele>
        <time>2015-06-07T15:12:09Z</time>
      </trkpt>
      <trkpt lat="40.120433" lon="-5.419350">
        <ele>1754.0</ele>
        <time>2015-06-07T15:12:11Z</time>
      </trkpt>
      <trkpt lat="40.120233" lon="-5.419317">
        <ele>1752.0</ele>
        <time>2015-06-07T15:12:13Z</time>
      </trkpt>
      <trkpt lat="40.120017" lon="-5.419383">
        <ele>1753.0</ele>
        <time>2015-06-07T15:12:15Z</time>
      </trkpt>
      <trkpt lat="40.119883" lon="-5.419517">
        <ele>1757.0</ele>
        <time>2015-06-07T15:12:17Z</time>
      </trkpt>
      <trkpt lat="40.119783" lon="-5.419650">
        <ele>1756.0</ele>
        <time>2015-06-07T15:12:19Z</time>
      </trkpt>
      <trkpt lat="40.119733" lon="-5.419883">
        <ele>1754.0</ele>
        <time>2015-06-07T15:12:21Z</time>
      </trkpt>
      <trkpt lat="40.119817" lon="-5.420117">
        <ele>1754.0</ele>
        <time>2015-06-07T15:12:23Z</time>
      </trkpt>
      <trkpt lat="40.119917" lon="-5.420233">
        <ele>1757.0</ele>
        <time>2015-06-07T15:12:25Z</time>
      </trkpt>
      <trkpt lat="40.120000" lon="-5.420300">
        <ele>1759.0</ele>
        <time>2015-06-07T15:12:27Z</time>
      </trkpt>
      <trkpt lat="40.120133" lon="-5.420283">
        <ele>1758.0</ele>
        <time>2015-06-07T15:12:29Z</time>
      </trkpt>
      <trkpt lat="40.120217" lon="-5.420150">
        <ele>1759.0</ele>
        <time>2015-06-07T15:12:31Z</time>
      </trkpt>
      <trkpt lat="40.120217" lon="-5.419933">
        <ele>1759.0</ele>
        <time>2015-06-07T15:12:33Z</time>
      </trkpt>
      <trkpt lat="40.120133" lon="-5.419717">
        <ele>1759.0</ele>
        <time>2015-06-07T15:12:35Z</time>
      </trkpt>
      <trkpt lat="40.119983" lon="-5.419567">
        <ele>1760.0</ele>
        <time>2015-06-07T15:12:37Z</time>
      </trkpt>
      <trkpt lat="40.119767" lon="-5.419517">
        <ele>1761.0</ele>
        <time>2015-06-07T15:12:39Z</time>
      </trkpt>
      <trkpt lat="40.119550" lon="-5.419567">
        <ele>1761.0</ele>
        <time>2015-06-07T15:12:41Z</time>
      </trkpt>
      <trkpt lat="40.119383" lon="-5.419683">
        <ele>1761.0</ele>
        <time>2015-06-07T15:12:43Z</time>
      </trkpt>
      <trkpt lat="40.119233" lon="-5.419867">
        <ele>1759.0</ele>
        <time>2015-06-07T15:12:45Z</time>
      </trkpt>
      <trkpt lat="40.119167" lon="-5.420100">
        <ele>1759.0</ele>
        <time>2015-06-07T15:12:47Z</time>
      </trkpt>
      <trkpt lat="40.119150" lon="-5.420317">
        <ele>1759.0</ele>
        <time>2015-06-07T15:12:49Z</time>
      </trkpt>
      <trkpt lat="40.119133" lon="-5.420550">
        <ele>1756.0</ele>
        <time>2015-06-07T15:12:51Z</time>
      </trkpt>
      <trkpt lat="40.119117" lon="-5.420833">
        <ele>1755.0</ele>
        <time>2015-06-07T15:12:53Z</time>
      </trkpt>
      <trkpt lat="40.119067" lon="-5.421083">
        <ele>1756.0</ele>
        <time>2015-06-07T15:12:55Z</time>
      </trkpt>
      <trkpt lat="40.119000" lon="-5.421317">
        <ele>1755.0</ele>
        <time>2015-06-07T15:12:57Z</time>
      </trkpt>
      <trkpt lat="40.118950" lon="-5.421600">
        <ele>1753.0</ele>
        <time>2015-06-07T15:12:59Z</time>
      </trkpt>
      <trkpt lat="40.118867" lon="-5.421850">
        <ele>1753.0</ele>
        <time>2015-06-07T15:13:01Z</time>
      </trkpt>
      <trkpt lat="40.118767" lon="-5.422067">
        <ele>1755.0</ele>
        <time>2015-06-07T15:13:03Z</time>
      </trkpt>
      <trkpt lat="40.118667" lon="-5.422283">
        <ele>1752.0</ele>
        <time>2015-06-07T15:13:05Z</time>
      </trkpt>
      <trkpt lat="40.118583" lon="-5.422550">
        <ele>1748.0</ele>
        <time>2015-06-07T15:13:07Z</time>
      </trkpt>
      <trkpt lat="40.118483" lon="-5.422767">
        <ele>1747.0</ele>
        <time>2015-06-07T15:13:09Z</time>
      </trkpt>
      <trkpt lat="40.118383" lon="-5.423000">
        <ele>1744.0</ele>
        <time>2015-06-07T15:13:11Z</time>
      </trkpt>
      <trkpt lat="40.118317" lon="-5.423267">
        <ele>1742.0</ele>
        <time>2015-06-07T15:13:13Z</time>
      </trkpt>
      <trkpt lat="40.118250" lon="-5.423550">
        <ele>1741.0</ele>
        <time>2015-06-07T15:13:15Z</time>
      </trkpt>
      <trkpt lat="40.118200" lon="-5.423850">
        <ele>1740.0</ele>
        <time>2015-06-07T15:13:17Z</time>
      </trkpt>
      <trkpt lat="40.118133" lon="-5.424133">
        <ele>1739.0</ele>
        <time>2015-06-07T15:13:19Z</time>
      </trkpt>
      <trkpt lat="40.118033" lon="-5.424383">
        <ele>1738.0</ele>
        <time>2015-06-07T15:13:21Z</time>
      </trkpt>
      <trkpt lat="40.117950" lon="-5.424667">
        <ele>1735.0</ele>
        <time>2015-06-07T15:13:23Z</time>
      </trkpt>
      <trkpt lat="40.117883" lon="-5.424950">
        <ele>1734.0</ele>
        <time>2015-06-07T15:13:25Z</time>
      </trkpt>
      <trkpt lat="40.117817" lon="-5.425217">
        <ele>1731.0</ele>
        <time>2015-06-07T15:13:27Z</time>
      </trkpt>
      <trkpt lat="40.117717" lon="-5.425617">
        <ele>1728.0</ele>
        <time>2015-06-07T15:13:30Z</time>
      </trkpt>
      <trkpt lat="40.117683" lon="-5.425850">
        <ele>1724.0</ele>
        <time>2015-06-07T15:13:32Z</time>
      </trkpt>
      <trkpt lat="40.117633" lon="-5.426100">
        <ele>1722.0</ele>
        <time>2015-06-07T15:13:34Z</time>
      </trkpt>
      <trkpt lat="40.117583" lon="-5.426350">
        <ele>1719.0</ele>
        <time>2015-06-07T15:13:36Z</time>
      </trkpt>
      <trkpt lat="40.117417" lon="-5.427083">
        <ele>1712.0</ele>
        <time>2015-06-07T15:13:42Z</time>
      </trkpt>
      <trkpt lat="40.117383" lon="-5.427300">
        <ele>1705.0</ele>
        <time>2015-06-07T15:13:44Z</time>
      </trkpt>
      <trkpt lat="40.117350" lon="-5.427550">
        <ele>1698.0</ele>
        <time>2015-06-07T15:13:46Z</time>
      </trkpt>
      <trkpt lat="40.117300" lon="-5.427817">
        <ele>1694.0</ele>
        <time>2015-06-07T15:13:48Z</time>
      </trkpt>
      <trkpt lat="40.117283" lon="-5.428067">
        <ele>1690.0</ele>
        <time>2015-06-07T15:13:50Z</time>
      </trkpt>
      <trkpt lat="40.117283" lon="-5.428317">
        <ele>1689.0</ele>
        <time>2015-06-07T15:13:52Z</time>
      </trkpt>
      <trkpt lat="40.117267" lon="-5.428567">
        <ele>1687.0</ele>
        <time>2015-06-07T15:13:54Z</time>
      </trkpt>
      <trkpt lat="40.117217" lon="-5.428950">
        <ele>1684.0</ele>
        <time>2015-06-07T15:13:57Z</time>
      </trkpt>
      <trkpt lat="40.117183" lon="-5.429167">
        <ele>1683.0</ele>
        <time>2015-06-07T15:13:59Z</time>
      </trkpt>
      <trkpt lat="40.117183" lon="-5.429400">
        <ele>1677.0</ele>
        <time>2015-06-07T15:14:01Z</time>
      </trkpt>
      <trkpt lat="40.117167" lon="-5.429633">
        <ele>1672.0</ele>
        <time>2015-06-07T15:14:03Z</time>
      </trkpt>
      <trkpt lat="40.117150" lon="-5.429883">
        <ele>1669.0</ele>
        <time>2015-06-07T15:14:05Z</time>
      </trkpt>
      <trkpt lat="40.117133" lon="-5.430133">
        <ele>1667.0</ele>
        <time>2015-06-07T15:14:07Z</time>
      </trkpt>
      <trkpt lat="40.116983" lon="-5.431517">
        <ele>1657.0</ele>
        <time>2015-06-07T15:14:18Z</time>
      </trkpt>
      <trkpt lat="40.116817" lon="-5.432117">
        <ele>1645.0</ele>
        <time>2015-06-07T15:14:23Z</time>
      </trkpt>
      <trkpt lat="40.116767" lon="-5.432400">
        <ele>1648.0</ele>
        <time>2015-06-07T15:14:25Z</time>
      </trkpt>
      <trkpt lat="40.116733" lon="-5.432650">
        <ele>1646.0</ele>
        <time>2015-06-07T15:14:27Z</time>
      </trkpt>
      <trkpt lat="40.116733" lon="-5.432883">
        <ele>1644.0</ele>
        <time>2015-06-07T15:14:29Z</time>
      </trkpt>
      <trkpt lat="40.116733" lon="-5.433133">
        <ele>1642.0</ele>
        <time>2015-06-07T15:14:31Z</time>
      </trkpt>
      <trkpt lat="40.116733" lon="-5.433383">
        <ele>1640.0</ele>
        <time>2015-06-07T15:14:33Z</time>
      </trkpt>
      <trkpt lat="40.116717" lon="-5.433617">
        <ele>1637.0</ele>
        <time>2015-06-07T15:14:35Z</time>
      </trkpt>
      <trkpt lat="40.116700" lon="-5.433867">
        <ele>1633.0</ele>
        <time>2015-06-07T15:14:37Z</time>
      </trkpt>
      <trkpt lat="40.116683" lon="-5.434100">
        <ele>1631.0</ele>
        <time>2015-06-07T15:14:39Z</time>
      </trkpt>
      <trkpt lat="40.116667" lon="-5.434300">
        <ele>1629.0</ele>
        <time>2015-06-07T15:14:41Z</time>
      </trkpt>
      <trkpt lat="40.116650" lon="-5.434550">
        <ele>1625.0</ele>
        <time>2015-06-07T15:14:43Z</time>
      </trkpt>
      <trkpt lat="40.116600" lon="-5.434817">
        <ele>1620.0</ele>
        <time>2015-06-07T15:14:45Z</time>
      </trkpt>
      <trkpt lat="40.116600" lon="-5.435033">
        <ele>1617.0</ele>
        <time>2015-06-07T15:14:47Z</time>
      </trkpt>
      <trkpt lat="40.116583" lon="-5.435267">
        <ele>1610.0</ele>
        <time>2015-06-07T15:14:49Z</time>
      </trkpt>
      <trkpt lat="40.116583" lon="-5.435500">
        <ele>1605.0</ele>
        <time>2015-06-07T15:14:51Z</time>
      </trkpt>
      <trkpt lat="40.116567" lon="-5.435717">
        <ele>1601.0</ele>
        <time>2015-06-07T15:14:53Z</time>
      </trkpt>
      <trkpt lat="40.116567" lon="-5.435933">
        <ele>1596.0</ele>
        <time>2015-06-07T15:14:55Z</time>
      </trkpt>
      <trkpt lat="40.116550" lon="-5.436167">
        <ele>1589.0</ele>
        <time>2015-06-07T15:14:57Z</time>
      </trkpt>
      <trkpt lat="40.116533" lon="-5.436400">
        <ele>1583.0</ele>
        <time>2015-06-07T15:14:59Z</time>
      </trkpt>
      <trkpt lat="40.116533" lon="-5.436667">
        <ele>1576.0</ele>
        <time>2015-06-07T15:15:01Z</time>
      </trkpt>
      <trkpt lat="40.116483" lon="-5.437167">
        <ele>1561.0</ele>
        <time>2015-06-07T15:15:06Z</time>
      </trkpt>
      <trkpt lat="40.116483" lon="-5.437433">
        <ele>1553.0</ele>
        <time>2015-06-07T15:15:08Z</time>
      </trkpt>
      <trkpt lat="40.116500" lon="-5.437700">
        <ele>1549.0</ele>
        <time>2015-06-07T15:15:10Z</time>
      </trkpt>
      <trkpt lat="40.116500" lon="-5.437933">
        <ele>1545.0</ele>
        <time>2015-06-07T15:15:12Z</time>
      </trkpt>
      <trkpt lat="40.116517" lon="-5.438167">
        <ele>1541.0</ele>
        <time>2015-06-07T15:15:14Z</time>
      </trkpt>
      <trkpt lat="40.116550" lon="-5.438400">
        <ele>1537.0</ele>
        <time>2015-06-07T15:15:16Z</time>
      </trkpt>
      <trkpt lat="40.116550" lon="-5.438633">
        <ele>1533.0</ele>
        <time>2015-06-07T15:15:18Z</time>
      </trkpt>
      <trkpt lat="40.116550" lon="-5.438883">
        <ele>1528.0</ele>
        <time>2015-06-07T15:15:20Z</time>
      </trkpt>
      <trkpt lat="40.116550" lon="-5.439150">
        <ele>1524.0</ele>
        <time>2015-06-07T15:15:22Z</time>
      </trkpt>
      <trkpt lat="40.116550" lon="-5.439400">
        <ele>1520.0</ele>
        <time>2015-06-07T15:15:24Z</time>
      </trkpt>
      <trkpt lat="40.116533" lon="-5.439617">
        <ele>1516.0</ele>
        <time>2015-06-07T15:15:26Z</time>
      </trkpt>
      <trkpt lat="40.116517" lon="-5.439867">
        <ele>1512.0</ele>
        <time>2015-06-07T15:15:28Z</time>
      </trkpt>
      <trkpt lat="40.116517" lon="-5.440083">
        <ele>1510.0</ele>
        <time>2015-06-07T15:15:30Z</time>
      </trkpt>
      <trkpt lat="40.116517" lon="-5.440317">
        <ele>1505.0</ele>
        <time>2015-06-07T15:15:32Z</time>
      </trkpt>
      <trkpt lat="40.116517" lon="-5.440533">
        <ele>1499.0</ele>
        <time>2015-06-07T15:15:34Z</time>
      </trkpt>
      <trkpt lat="40.116517" lon="-5.440767">
        <ele>1492.0</ele>
        <time>2015-06-07T15:15:36Z</time>
      </trkpt>
      <trkpt lat="40.116517" lon="-5.441000">
        <ele>1486.0</ele>
        <time>2015-06-07T15:15:38Z</time>
      </trkpt>
      <trkpt lat="40.116533" lon="-5.441233">
        <ele>1478.0</ele>
        <time>2015-06-07T15:15:40Z</time>
      </trkpt>
      <trkpt lat="40.116533" lon="-5.441467">
        <ele>1471.0</ele>
        <time>2015-06-07T15:15:42Z</time>
      </trkpt>
      <trkpt lat="40.116533" lon="-5.441717">
        <ele>1463.0</ele>
        <time>2015-06-07T15:15:44Z</time>
      </trkpt>
      <trkpt lat="40.116533" lon="-5.441950">
        <ele>1456.0</ele>
        <time>2015-06-07T15:15:46Z</time>
      </trkpt>
      <trkpt lat="40.116550" lon="-5.442183">
        <ele>1448.0</ele>
        <time>2015-06-07T15:15:48Z</time>
      </trkpt>
      <trkpt lat="40.116550" lon="-5.442417">
        <ele>1441.0</ele>
        <time>2015-06-07T15:15:50Z</time>
      </trkpt>
      <trkpt lat="40.116550" lon="-5.442650">
        <ele>1434.0</ele>
        <time>2015-06-07T15:15:52Z</time>
      </trkpt>
      <trkpt lat="40.116550" lon="-5.442883">
        <ele>1427.0</ele>
        <time>2015-06-07T15:15:54Z</time>
      </trkpt>
      <trkpt lat="40.116550" lon="-5.443117">
        <ele>1420.0</ele>
        <time>2015-06-07T15:15:56Z</time>
      </trkpt>
      <trkpt lat="40.116567" lon="-5.443367">
        <ele>1414.0</ele>
        <time>2015-06-07T15:15:58Z</time>
      </trkpt>
      <trkpt lat="40.116583" lon="-5.443583">
        <ele>1408.0</ele>
        <time>2015-06-07T15:16:00Z</time>
      </trkpt>
      <trkpt lat="40.116600" lon="-5.443800">
        <ele>1401.0</ele>
        <time>2015-06-07T15:16:02Z</time>
      </trkpt>
      <trkpt lat="40.116633" lon="-5.444033">
        <ele>1392.0</ele>
        <time>2015-06-07T15:16:04Z</time>
      </trkpt>
      <trkpt lat="40.116667" lon="-5.444250">
        <ele>1384.0</ele>
        <time>2015-06-07T15:16:06Z</time>
      </trkpt>
      <trkpt lat="40.116683" lon="-5.444483">
        <ele>1375.0</ele>
        <time>2015-06-07T15:16:08Z</time>
      </trkpt>
      <trkpt lat="40.116683" lon="-5.444717">
        <ele>1368.0</ele>
        <time>2015-06-07T15:16:10Z</time>
      </trkpt>
      <trkpt lat="40.116650" lon="-5.444933">
        <ele>1361.0</ele>
        <time>2015-06-07T15:16:12Z</time>
      </trkpt>
      <trkpt lat="40.116633" lon="-5.445150">
        <ele>1355.0</ele>
        <time>2015-06-07T15:16:14Z</time>
      </trkpt>
      <trkpt lat="40.116617" lon="-5.445367">
        <ele>1348.0</ele>
        <time>2015-06-07T15:16:16Z</time>
      </trkpt>
      <trkpt lat="40.116617" lon="-5.445583">
        <ele>1341.0</ele>
        <time>2015-06-07T15:16:18Z</time>
      </trkpt>
      <trkpt lat="40.116600" lon="-5.445783">
        <ele>1334.0</ele>
        <time>2015-06-07T15:16:20Z</time>
      </trkpt>
      <trkpt lat="40.116600" lon="-5.446000">
        <ele>1326.0</ele>
        <time>2015-06-07T15:16:22Z</time>
      </trkpt>
      <trkpt lat="40.116617" lon="-5.446233">
        <ele>1318.0</ele>
        <time>2015-06-07T15:16:24Z</time>
      </trkpt>
      <trkpt lat="40.116633" lon="-5.446467">
        <ele>1313.0</ele>
        <time>2015-06-07T15:16:26Z</time>
      </trkpt>
      <trkpt lat="40.116650" lon="-5.446667">
        <ele>1307.0</ele>
        <time>2015-06-07T15:16:28Z</time>
      </trkpt>
      <trkpt lat="40.116683" lon="-5.446867">
        <ele>1300.0</ele>
        <time>2015-06-07T15:16:30Z</time>
      </trkpt>
      <trkpt lat="40.116700" lon="-5.447083">
        <ele>1294.0</ele>
        <time>2015-06-07T15:16:32Z</time>
      </trkpt>
      <trkpt lat="40.116733" lon="-5.447283">
        <ele>1291.0</ele>
        <time>2015-06-07T15:16:34Z</time>
      </trkpt>
      <trkpt lat="40.116817" lon="-5.447433">
        <ele>1288.0</ele>
        <time>2015-06-07T15:16:36Z</time>
      </trkpt>
      <trkpt lat="40.116933" lon="-5.447583">
        <ele>1285.0</ele>
        <time>2015-06-07T15:16:38Z</time>
      </trkpt>
      <trkpt lat="40.117017" lon="-5.447783">
        <ele>1283.0</ele>
        <time>2015-06-07T15:16:40Z</time>
      </trkpt>
      <trkpt lat="40.117083" lon="-5.447967">
        <ele>1282.0</ele>
        <time>2015-06-07T15:16:42Z</time>
      </trkpt>
      <trkpt lat="40.117133" lon="-5.448150">
        <ele>1276.0</ele>
        <time>2015-06-07T15:16:44Z</time>
      </trkpt>
      <trkpt lat="40.117133" lon="-5.448367">
        <ele>1267.0</ele>
        <time>2015-06-07T15:16:46Z</time>
      </trkpt>
      <trkpt lat="40.117083" lon="-5.448600">
        <ele>1260.0</ele>
        <time>2015-06-07T15:16:48Z</time>
      </trkpt>
      <trkpt lat="40.117067" lon="-5.448750">
        <ele>1255.0</ele>
        <time>2015-06-07T15:16:50Z</time>
      </trkpt>
      <trkpt lat="40.117117" lon="-5.448900">
        <ele>1247.0</ele>
        <time>2015-06-07T15:16:52Z</time>
      </trkpt>
      <trkpt lat="40.117200" lon="-5.449100">
        <ele>1241.0</ele>
        <time>2015-06-07T15:16:54Z</time>
      </trkpt>
      <trkpt lat="40.117250" lon="-5.449300">
        <ele>1238.0</ele>
        <time>2015-06-07T15:16:56Z</time>
      </trkpt>
      <trkpt lat="40.117283" lon="-5.449450">
        <ele>1234.0</ele>
        <time>2015-06-07T15:16:58Z</time>
      </trkpt>
      <trkpt lat="40.117317" lon="-5.449650">
        <ele>1229.0</ele>
        <time>2015-06-07T15:17:00Z</time>
      </trkpt>
      <trkpt lat="40.117317" lon="-5.449850">
        <ele>1226.0</ele>
        <time>2015-06-07T15:17:02Z</time>
      </trkpt>
      <trkpt lat="40.117317" lon="-5.450033">
        <ele>1226.0</ele>
        <time>2015-06-07T15:17:04Z</time>
      </trkpt>
      <trkpt lat="40.117350" lon="-5.450200">
        <ele>1223.0</ele>
        <time>2015-06-07T15:17:06Z</time>
      </trkpt>
      <trkpt lat="40.117433" lon="-5.450367">
        <ele>1220.0</ele>
        <time>2015-06-07T15:17:08Z</time>
      </trkpt>
      <trkpt lat="40.117533" lon="-5.450550">
        <ele>1220.0</ele>
        <time>2015-06-07T15:17:10Z</time>
      </trkpt>
      <trkpt lat="40.117583" lon="-5.450750">
        <ele>1221.0</ele>
        <time>2015-06-07T15:17:12Z</time>
      </trkpt>
      <trkpt lat="40.117583" lon="-5.450933">
        <ele>1222.0</ele>
        <time>2015-06-07T15:17:14Z</time>
      </trkpt>
      <trkpt lat="40.117517" lon="-5.451150">
        <ele>1222.0</ele>
        <time>2015-06-07T15:17:16Z</time>
      </trkpt>
      <trkpt lat="40.117417" lon="-5.451367">
        <ele>1222.0</ele>
        <time>2015-06-07T15:17:18Z</time>
      </trkpt>
      <trkpt lat="40.117300" lon="-5.451583">
        <ele>1224.0</ele>
        <time>2015-06-07T15:17:20Z</time>
      </trkpt>
      <trkpt lat="40.117150" lon="-5.451733">
        <ele>1226.0</ele>
        <time>2015-06-07T15:17:22Z</time>
      </trkpt>
      <trkpt lat="40.117000" lon="-5.451833">
        <ele>1226.0</ele>
        <time>2015-06-07T15:17:24Z</time>
      </trkpt>
      <trkpt lat="40.116817" lon="-5.451850">
        <ele>1229.0</ele>
        <time>2015-06-07T15:17:26Z</time>
      </trkpt>
      <trkpt lat="40.116683" lon="-5.451800">
        <ele>1230.0</ele>
        <time>2015-06-07T15:17:28Z</time>
      </trkpt>
      <trkpt lat="40.116533" lon="-5.451717">
        <ele>1227.0</ele>
        <time>2015-06-07T15:17:30Z</time>
      </trkpt>
      <trkpt lat="40.116350" lon="-5.451550">
        <ele>1224.0</ele>
        <time>2015-06-07T15:17:32Z</time>
      </trkpt>
      <trkpt lat="40.116217" lon="-5.451300">
        <ele>1221.0</ele>
        <time>2015-06-07T15:17:34Z</time>
      </trkpt>
      <trkpt lat="40.116167" lon="-5.451017">
        <ele>1223.0</ele>
        <time>2015-06-07T15:17:36Z</time>
      </trkpt>
      <trkpt lat="40.116150" lon="-5.450783">
        <ele>1227.0</ele>
        <time>2015-06-07T15:17:38Z</time>
      </trkpt>
      <trkpt lat="40.116150" lon="-5.450567">
        <ele>1227.0</ele>
        <time>2015-06-07T15:17:40Z</time>
      </trkpt>
      <trkpt lat="40.116167" lon="-5.450333">
        <ele>1225.0</ele>
        <time>2015-06-07T15:17:42Z</time>
      </trkpt>
      <trkpt lat="40.116117" lon="-5.450117">
        <ele>1222.0</ele>
        <time>2015-06-07T15:17:44Z</time>
      </trkpt>
      <trkpt lat="40.115967" lon="-5.449933">
        <ele>1218.0</ele>
        <time>2015-06-07T15:17:46Z</time>
      </trkpt>
      <trkpt lat="40.115767" lon="-5.449833">
        <ele>1217.0</ele>
        <time>2015-06-07T15:17:48Z</time>
      </trkpt>
      <trkpt lat="40.115567" lon="-5.449883">
        <ele>1216.0</ele>
        <time>2015-06-07T15:17:50Z</time>
      </trkpt>
      <trkpt lat="40.115400" lon="-5.449983">
        <ele>1216.0</ele>
        <time>2015-06-07T15:17:52Z</time>
      </trkpt>
      <trkpt lat="40.115283" lon="-5.450167">
        <ele>1212.0</ele>
        <time>2015-06-07T15:17:54Z</time>
      </trkpt>
      <trkpt lat="40.115217" lon="-5.450367">
        <ele>1207.0</ele>
        <time>2015-06-07T15:17:56Z</time>
      </trkpt>
      <trkpt lat="40.115167" lon="-5.450550">
        <ele>1201.0</ele>
        <time>2015-06-07T15:17:58Z</time>
      </trkpt>
      <trkpt lat="40.115083" lon="-5.450767">
        <ele>1190.0</ele>
        <time>2015-06-07T15:18:00Z</time>
      </trkpt>
      <trkpt lat="40.115033" lon="-5.451033">
        <ele>1183.0</ele>
        <time>2015-06-07T15:18:02Z</time>
      </trkpt>
      <trkpt lat="40.115067" lon="-5.451267">
        <ele>1185.0</ele>
        <time>2015-06-07T15:18:04Z</time>
      </trkpt>
      <trkpt lat="40.115067" lon="-5.451450">
        <ele>1188.0</ele>
        <time>2015-06-07T15:18:06Z</time>
      </trkpt>
      <trkpt lat="40.115083" lon="-5.451633">
        <ele>1189.0</ele>
        <time>2015-06-07T15:18:08Z</time>
      </trkpt>
      <trkpt lat="40.115167" lon="-5.451783">
        <ele>1191.0</ele>
        <time>2015-06-07T15:18:10Z</time>
      </trkpt>
      <trkpt lat="40.115250" lon="-5.451917">
        <ele>1192.0</ele>
        <time>2015-06-07T15:18:12Z</time>
      </trkpt>
      <trkpt lat="40.115317" lon="-5.452017">
        <ele>1189.0</ele>
        <time>2015-06-07T15:18:14Z</time>
      </trkpt>
      <trkpt lat="40.115450" lon="-5.452050">
        <ele>1183.0</ele>
        <time>2015-06-07T15:18:16Z</time>
      </trkpt>
      <trkpt lat="40.115600" lon="-5.452083">
        <ele>1181.0</ele>
        <time>2015-06-07T15:18:18Z</time>
      </trkpt>
      <trkpt lat="40.115717" lon="-5.452167">
        <ele>1181.0</ele>
        <time>2015-06-07T15:18:20Z</time>
      </trkpt>
      <trkpt lat="40.115783" lon="-5.452317">
        <ele>1178.0</ele>
        <time>2015-06-07T15:18:22Z</time>
      </trkpt>
      <trkpt lat="40.115833" lon="-5.452517">
        <ele>1176.0</ele>
        <time>2015-06-07T15:18:24Z</time>
      </trkpt>
      <trkpt lat="40.115850" lon="-5.452700">
        <ele>1174.0</ele>
        <time>2015-06-07T15:18:26Z</time>
      </trkpt>
      <trkpt lat="40.115833" lon="-5.452900">
        <ele>1171.0</ele>
        <time>2015-06-07T15:18:28Z</time>
      </trkpt>
      <trkpt lat="40.115783" lon="-5.453100">
        <ele>1171.0</ele>
        <time>2015-06-07T15:18:30Z</time>
      </trkpt>
      <trkpt lat="40.115750" lon="-5.453317">
        <ele>1170.0</ele>
        <time>2015-06-07T15:18:32Z</time>
      </trkpt>
      <trkpt lat="40.115733" lon="-5.453533">
        <ele>1168.0</ele>
        <time>2015-06-07T15:18:34Z</time>
      </trkpt>
      <trkpt lat="40.115767" lon="-5.453767">
        <ele>1165.0</ele>
        <time>2015-06-07T15:18:36Z</time>
      </trkpt>
      <trkpt lat="40.115817" lon="-5.453983">
        <ele>1162.0</ele>
        <time>2015-06-07T15:18:38Z</time>
      </trkpt>
      <trkpt lat="40.115883" lon="-5.454200">
        <ele>1160.0</ele>
        <time>2015-06-07T15:18:40Z</time>
      </trkpt>
      <trkpt lat="40.115950" lon="-5.454417">
        <ele>1157.0</ele>
        <time>2015-06-07T15:18:42Z</time>
      </trkpt>
      <trkpt lat="40.116050" lon="-5.454650">
        <ele>1155.0</ele>
        <time>2015-06-07T15:18:44Z</time>
      </trkpt>
      <trkpt lat="40.116167" lon="-5.454867">
        <ele>1159.0</ele>
        <time>2015-06-07T15:18:46Z</time>
      </trkpt>
      <trkpt lat="40.116250" lon="-5.455067">
        <ele>1164.0</ele>
        <time>2015-06-07T15:18:48Z</time>
      </trkpt>
      <trkpt lat="40.116367" lon="-5.455200">
        <ele>1169.0</ele>
        <time>2015-06-07T15:18:50Z</time>
      </trkpt>
      <trkpt lat="40.116517" lon="-5.455183">
        <ele>1172.0</ele>
        <time>2015-06-07T15:18:52Z</time>
      </trkpt>
      <trkpt lat="40.116617" lon="-5.454983">
        <ele>1174.0</ele>
        <time>2015-06-07T15:18:54Z</time>
      </trkpt>
      <trkpt lat="40.116600" lon="-5.454750">
        <ele>1180.0</ele>
        <time>2015-06-07T15:18:56Z</time>
      </trkpt>
      <trkpt lat="40.116500" lon="-5.454600">
        <ele>1187.0</ele>
        <time>2015-06-07T15:18:58Z</time>
      </trkpt>
      <trkpt lat="40.116333" lon="-5.454583">
        <ele>1192.0</ele>
        <time>2015-06-07T15:19:00Z</time>
      </trkpt>
      <trkpt lat="40.116167" lon="-5.454700">
        <ele>1195.0</ele>
        <time>2015-06-07T15:19:02Z</time>
      </trkpt>
      <trkpt lat="40.116083" lon="-5.454917">
        <ele>1198.0</ele>
        <time>2015-06-07T15:19:04Z</time>
      </trkpt>
      <trkpt lat="40.116050" lon="-5.455167">
        <ele>1196.0</ele>
        <time>2015-06-07T15:19:06Z</time>
      </trkpt>
      <trkpt lat="40.116117" lon="-5.455467">
        <ele>1194.0</ele>
        <time>2015-06-07T15:19:08Z</time>
      </trkpt>
      <trkpt lat="40.116350" lon="-5.455567">
        <ele>1193.0</ele>
        <time>2015-06-07T15:19:10Z</time>
      </trkpt>
      <trkpt lat="40.116550" lon="-5.455450">
        <ele>1198.0</ele>
        <time>2015-06-07T15:19:12Z</time>
      </trkpt>
      <trkpt lat="40.116683" lon="-5.455383">
        <ele>1208.0</ele>
        <time>2015-06-07T15:19:14Z</time>
      </trkpt>
      <trkpt lat="40.116783" lon="-5.455283">
        <ele>1213.0</ele>
        <time>2015-06-07T15:19:16Z</time>
      </trkpt>
      <trkpt lat="40.116867" lon="-5.455100">
        <ele>1217.0</ele>
        <time>2015-06-07T15:19:18Z</time>
      </trkpt>
      <trkpt lat="40.116850" lon="-5.454900">
        <ele>1221.0</ele>
        <time>2015-06-07T15:19:20Z</time>
      </trkpt>
      <trkpt lat="40.116683" lon="-5.454783">
        <ele>1224.0</ele>
        <time>2015-06-07T15:19:22Z</time>
      </trkpt>
      <trkpt lat="40.116517" lon="-5.454850">
        <ele>1230.0</ele>
        <time>2015-06-07T15:19:24Z</time>
      </trkpt>
      <trkpt lat="40.116400" lon="-5.455050">
        <ele>1235.0</ele>
        <time>2015-06-07T15:19:26Z</time>
      </trkpt>
      <trkpt lat="40.116367" lon="-5.455283">
        <ele>1240.0</ele>
        <time>2015-06-07T15:19:28Z</time>
      </trkpt>
      <trkpt lat="40.116467" lon="-5.455500">
        <ele>1243.0</ele>
        <time>2015-06-07T15:19:30Z</time>
      </trkpt>
      <trkpt lat="40.116650" lon="-5.455600">
        <ele>1249.0</ele>
        <time>2015-06-07T15:19:32Z</time>
      </trkpt>
      <trkpt lat="40.116800" lon="-5.455533">
        <ele>1254.0</ele>
        <time>2015-06-07T15:19:34Z</time>
      </trkpt>
      <trkpt lat="40.116900" lon="-5.455367">
        <ele>1257.0</ele>
        <time>2015-06-07T15:19:36Z</time>
      </trkpt>
      <trkpt lat="40.116900" lon="-5.455117">
        <ele>1260.0</ele>
        <time>2015-06-07T15:19:38Z</time>
      </trkpt>
      <trkpt lat="40.116800" lon="-5.454917">
        <ele>1265.0</ele>
        <time>2015-06-07T15:19:40Z</time>
      </trkpt>
      <trkpt lat="40.116650" lon="-5.454833">
        <ele>1270.0</ele>
        <time>2015-06-07T15:19:42Z</time>
      </trkpt>
      <trkpt lat="40.116450" lon="-5.454883">
        <ele>1274.0</ele>
        <time>2015-06-07T15:19:44Z</time>
      </trkpt>
      <trkpt lat="40.116317" lon="-5.455067">
        <ele>1280.0</ele>
        <time>2015-06-07T15:19:46Z</time>
      </trkpt>
      <trkpt lat="40.116283" lon="-5.455283">
        <ele>1285.0</ele>
        <time>2015-06-07T15:19:48Z</time>
      </trkpt>
      <trkpt lat="40.116350" lon="-5.455517">
        <ele>1288.0</ele>
        <time>2015-06-07T15:19:50Z</time>
      </trkpt>
      <trkpt lat="40.116500" lon="-5.455667">
        <ele>1291.0</ele>
        <time>2015-06-07T15:19:52Z</time>
      </trkpt>
      <trkpt lat="40.116667" lon="-5.455600">
        <ele>1296.0</ele>
        <time>2015-06-07T15:19:54Z</time>
      </trkpt>
      <trkpt lat="40.116783" lon="-5.455450">
        <ele>1302.0</ele>
        <time>2015-06-07T15:19:56Z</time>
      </trkpt>
      <trkpt lat="40.116800" lon="-5.455250">
        <ele>1306.0</ele>
        <time>2015-06-07T15:19:58Z</time>
      </trkpt>
      <trkpt lat="40.116717" lon="-5.455050">
        <ele>1309.0</ele>
        <time>2015-06-07T15:20:00Z</time>
      </trkpt>
      <trkpt lat="40.116550" lon="-5.454933">
        <ele>1313.0</ele>
        <time>2015-06-07T15:20:02Z</time>
      </trkpt>
      <trkpt lat="40.116383" lon="-5.455017">
        <ele>1317.0</ele>
        <time>2015-06-07T15:20:04Z</time>
      </trkpt>
      <trkpt lat="40.116250" lon="-5.455217">
        <ele>1319.0</ele>
        <time>2015-06-07T15:20:06Z</time>
      </trkpt>
      <trkpt lat="40.116150" lon="-5.455450">
        <ele>1324.0</ele>
        <time>2015-06-07T15:20:08Z</time>
      </trkpt>
      <trkpt lat="40.116167" lon="-5.455667">
        <ele>1327.0</ele>
        <time>2015-06-07T15:20:10Z</time>
      </trkpt>
      <trkpt lat="40.116283" lon="-5.455833">
        <ele>1331.0</ele>
        <time>2015-06-07T15:20:12Z</time>
      </trkpt>
      <trkpt lat="40.116450" lon="-5.455883">
        <ele>1335.0</ele>
        <time>2015-06-07T15:20:14Z</time>
      </trkpt>
      <trkpt lat="40.116583" lon="-5.455767">
        <ele>1338.0</ele>
        <time>2015-06-07T15:20:16Z</time>
      </trkpt>
      <trkpt lat="40.116650" lon="-5.455567">
        <ele>1344.0</ele>
        <time>2015-06-07T15:20:18Z</time>
      </trkpt>
      <trkpt lat="40.116633" lon="-5.455383">
        <ele>1349.0</ele>
        <time>2015-06-07T15:20:20Z</time>
      </trkpt>
      <trkpt lat="40.116550" lon="-5.455217">
        <ele>1354.0</ele>
        <time>2015-06-07T15:20:22Z</time>
      </trkpt>
      <trkpt lat="40.116400" lon="-5.455133">
        <ele>1355.0</ele>
        <time>2015-06-07T15:20:24Z</time>
      </trkpt>
      <trkpt lat="40.116217" lon="-5.455217">
        <ele>1357.0</ele>
        <time>2015-06-07T15:20:26Z</time>
      </trkpt>
      <trkpt lat="40.116100" lon="-5.455383">
        <ele>1360.0</ele>
        <time>2015-06-07T15:20:28Z</time>
      </trkpt>
      <trkpt lat="40.116067" lon="-5.455617">
        <ele>1364.0</ele>
        <time>2015-06-07T15:20:30Z</time>
      </trkpt>
      <trkpt lat="40.116133" lon="-5.455850">
        <ele>1365.0</ele>
        <time>2015-06-07T15:20:32Z</time>
      </trkpt>
      <trkpt lat="40.116317" lon="-5.455983">
        <ele>1367.0</ele>
        <time>2015-06-07T15:20:34Z</time>
      </trkpt>
      <trkpt lat="40.116517" lon="-5.455950">
        <ele>1373.0</ele>
        <time>2015-06-07T15:20:36Z</time>
      </trkpt>
      <trkpt lat="40.116650" lon="-5.455900">
        <ele>1380.0</ele>
        <time>2015-06-07T15:20:38Z</time>
      </trkpt>
      <trkpt lat="40.116783" lon="-5.455800">
        <ele>1382.0</ele>
        <time>2015-06-07T15:20:40Z</time>
      </trkpt>
      <trkpt lat="40.116867" lon="-5.455600">
        <ele>1385.0</ele>
        <time>2015-06-07T15:20:42Z</time>
      </trkpt>
      <trkpt lat="40.116833" lon="-5.455417">
        <ele>1389.0</ele>
        <time>2015-06-07T15:20:44Z</time>
      </trkpt>
      <trkpt lat="40.116717" lon="-5.455283">
        <ele>1393.0</ele>
        <time>2015-06-07T15:20:46Z</time>
      </trkpt>
      <trkpt lat="40.116550" lon="-5.455233">
        <ele>1398.0</ele>
        <time>2015-06-07T15:20:48Z</time>
      </trkpt>
      <trkpt lat="40.116400" lon="-5.455350">
        <ele>1399.0</ele>
        <time>2015-06-07T15:20:50Z</time>
      </trkpt>
      <trkpt lat="40.116283" lon="-5.455617">
        <ele>1401.0</ele>
        <time>2015-06-07T15:20:52Z</time>
      </trkpt>
      <trkpt lat="40.116250" lon="-5.455867">
        <ele>1409.0</ele>
        <time>2015-06-07T15:20:54Z</time>
      </trkpt>
      <trkpt lat="40.116233" lon="-5.456050">
        <ele>1415.0</ele>
        <time>2015-06-07T15:20:56Z</time>
      </trkpt>
      <trkpt lat="40.116283" lon="-5.456267">
        <ele>1416.0</ele>
        <time>2015-06-07T15:20:58Z</time>
      </trkpt>
      <trkpt lat="40.116417" lon="-5.456467">
        <ele>1418.0</ele>
        <time>2015-06-07T15:21:00Z</time>
      </trkpt>
      <trkpt lat="40.116600" lon="-5.456483">
        <ele>1420.0</ele>
        <time>2015-06-07T15:21:02Z</time>
      </trkpt>
      <trkpt lat="40.116733" lon="-5.456383">
        <ele>1425.0</ele>
        <time>2015-06-07T15:21:04Z</time>
      </trkpt>
      <trkpt lat="40.116817" lon="-5.456217">
        <ele>1429.0</ele>
        <time>2015-06-07T15:21:06Z</time>
      </trkpt>
      <trkpt lat="40.116783" lon="-5.456033">
        <ele>1433.0</ele>
        <time>2015-06-07T15:21:08Z</time>
      </trkpt>
      <trkpt lat="40.116650" lon="-5.455917">
        <ele>1436.0</ele>
        <time>2015-06-07T15:21:10Z</time>
      </trkpt>
      <trkpt lat="40.116483" lon="-5.455950">
        <ele>1439.0</ele>
        <time>2015-06-07T15:21:12Z</time>
      </trkpt>
      <trkpt lat="40.116333" lon="-5.456067">
        <ele>1443.0</ele>
        <time>2015-06-07T15:21:14Z</time>
      </trkpt>
      <trkpt lat="40.116250" lon="-5.456250">
        <ele>1447.0</ele>
        <time>2015-06-07T15:21:16Z</time>
      </trkpt>
      <trkpt lat="40.116250" lon="-5.456500">
        <ele>1450.0</ele>
        <time>2015-06-07T15:21:18Z</time>
      </trkpt>
      <trkpt lat="40.116317" lon="-5.456700">
        <ele>1453.0</ele>
        <time>2015-06-07T15:21:20Z</time>
      </trkpt>
      <trkpt lat="40.116467" lon="-5.456817">
        <ele>1454.0</ele>
        <time>2015-06-07T15:21:22Z</time>
      </trkpt>
      <trkpt lat="40.116650" lon="-5.456800">
        <ele>1456.0</ele>
        <time>2015-06-07T15:21:24Z</time>
      </trkpt>
      <trkpt lat="40.116750" lon="-5.456617">
        <ele>1460.0</ele>
        <time>2015-06-07T15:21:26Z</time>
      </trkpt>
      <trkpt lat="40.116783" lon="-5.456383">
        <ele>1464.0</ele>
        <time>2015-06-07T15:21:28Z</time>
      </trkpt>
      <trkpt lat="40.116717" lon="-5.456183">
        <ele>1468.0</ele>
        <time>2015-06-07T15:21:30Z</time>
      </trkpt>
      <trkpt lat="40.116567" lon="-5.456083">
        <ele>1472.0</ele>
        <time>2015-06-07T15:21:32Z</time>
      </trkpt>
      <trkpt lat="40.116383" lon="-5.456167">
        <ele>1476.0</ele>
        <time>2015-06-07T15:21:34Z</time>
      </trkpt>
      <trkpt lat="40.116300" lon="-5.456367">
        <ele>1482.0</ele>
        <time>2015-06-07T15:21:36Z</time>
      </trkpt>
      <trkpt lat="40.116300" lon="-5.456583">
        <ele>1487.0</ele>
        <time>2015-06-07T15:21:38Z</time>
      </trkpt>
      <trkpt lat="40.116367" lon="-5.456767">
        <ele>1490.0</ele>
        <time>2015-06-07T15:21:40Z</time>
      </trkpt>
      <trkpt lat="40.116517" lon="-5.456900">
        <ele>1492.0</ele>
        <time>2015-06-07T15:21:42Z</time>
      </trkpt>
      <trkpt lat="40.116683" lon="-5.456917">
        <ele>1494.0</ele>
        <time>2015-06-07T15:21:44Z</time>
      </trkpt>
      <trkpt lat="40.116817" lon="-5.456800">
        <ele>1498.0</ele>
        <time>2015-06-07T15:21:46Z</time>
      </trkpt>
      <trkpt lat="40.116933" lon="-5.456633">
        <ele>1502.0</ele>
        <time>2015-06-07T15:21:48Z</time>
      </trkpt>
      <trkpt lat="40.116933" lon="-5.456400">
        <ele>1505.0</ele>
        <time>2015-06-07T15:21:50Z</time>
      </trkpt>
      <trkpt lat="40.116800" lon="-5.456233">
        <ele>1507.0</ele>
        <time>2015-06-07T15:21:52Z</time>
      </trkpt>
      <trkpt lat="40.116683" lon="-5.456183">
        <ele>1514.0</ele>
        <time>2015-06-07T15:21:54Z</time>
      </trkpt>
      <trkpt lat="40.116567" lon="-5.456167">
        <ele>1516.0</ele>
        <time>2015-06-07T15:21:56Z</time>
      </trkpt>
      <trkpt lat="40.116383" lon="-5.456217">
        <ele>1515.0</ele>
        <time>2015-06-07T15:21:58Z</time>
      </trkpt>
      <trkpt lat="40.116250" lon="-5.456400">
        <ele>1517.0</ele>
        <time>2015-06-07T15:22:00Z</time>
      </trkpt>
      <trkpt lat="40.116200" lon="-5.456633">
        <ele>1521.0</ele>
        <time>2015-06-07T15:22:02Z</time>
      </trkpt>
      <trkpt lat="40.116267" lon="-5.456867">
        <ele>1523.0</ele>
        <time>2015-06-07T15:22:04Z</time>
      </trkpt>
      <trkpt lat="40.116417" lon="-5.457033">
        <ele>1523.0</ele>
        <time>2015-06-07T15:22:06Z</time>
      </trkpt>
      <trkpt lat="40.116583" lon="-5.457067">
        <ele>1525.0</ele>
        <time>2015-06-07T15:22:08Z</time>
      </trkpt>
      <trkpt lat="40.116717" lon="-5.456933">
        <ele>1525.0</ele>
        <time>2015-06-07T15:22:10Z</time>
      </trkpt>
      <trkpt lat="40.116800" lon="-5.456700">
        <ele>1526.0</ele>
        <time>2015-06-07T15:22:12Z</time>
      </trkpt>
      <trkpt lat="40.116800" lon="-5.456450">
        <ele>1533.0</ele>
        <time>2015-06-07T15:22:14Z</time>
      </trkpt>
      <trkpt lat="40.116767" lon="-5.456267">
        <ele>1538.0</ele>
        <time>2015-06-07T15:22:16Z</time>
      </trkpt>
      <trkpt lat="40.116633" lon="-5.456150">
        <ele>1541.0</ele>
        <time>2015-06-07T15:22:18Z</time>
      </trkpt>
      <trkpt lat="40.116433" lon="-5.456167">
        <ele>1543.0</ele>
        <time>2015-06-07T15:22:20Z</time>
      </trkpt>
      <trkpt lat="40.116283" lon="-5.456333">
        <ele>1548.0</ele>
        <time>2015-06-07T15:22:22Z</time>
      </trkpt>
      <trkpt lat="40.116217" lon="-5.456567">
        <ele>1553.0</ele>
        <time>2015-06-07T15:22:24Z</time>
      </trkpt>
      <trkpt lat="40.116250" lon="-5.456783">
        <ele>1557.0</ele>
        <time>2015-06-07T15:22:26Z</time>
      </trkpt>
      <trkpt lat="40.116333" lon="-5.456950">
        <ele>1558.0</ele>
        <time>2015-06-07T15:22:28Z</time>
      </trkpt>
      <trkpt lat="40.116517" lon="-5.457033">
        <ele>1558.0</ele>
        <time>2015-06-07T15:22:30Z</time>
      </trkpt>
      <trkpt lat="40.116683" lon="-5.456950">
        <ele>1559.0</ele>
        <time>2015-06-07T15:22:32Z</time>
      </trkpt>
      <trkpt lat="40.116817" lon="-5.456800">
        <ele>1562.0</ele>
        <time>2015-06-07T15:22:34Z</time>
      </trkpt>
      <trkpt lat="40.116883" lon="-5.456600">
        <ele>1564.0</ele>
        <time>2015-06-07T15:22:36Z</time>
      </trkpt>
      <trkpt lat="40.116867" lon="-5.456350">
        <ele>1567.0</ele>
        <time>2015-06-07T15:22:38Z</time>
      </trkpt>
      <trkpt lat="40.116783" lon="-5.456183">
        <ele>1573.0</ele>
        <time>2015-06-07T15:22:40Z</time>
      </trkpt>
      <trkpt lat="40.116667" lon="-5.456067">
        <ele>1577.0</ele>
        <time>2015-06-07T15:22:42Z</time>
      </trkpt>
      <trkpt lat="40.116500" lon="-5.456017">
        <ele>1579.0</ele>
        <time>2015-06-07T15:22:44Z</time>
      </trkpt>
      <trkpt lat="40.116333" lon="-5.456133">
        <ele>1583.0</ele>
        <time>2015-06-07T15:22:46Z</time>
      </trkpt>
      <trkpt lat="40.116233" lon="-5.456333">
        <ele>1589.0</ele>
        <time>2015-06-07T15:22:48Z</time>
      </trkpt>
      <trkpt lat="40.116233" lon="-5.456533">
        <ele>1592.0</ele>
        <time>2015-06-07T15:22:50Z</time>
      </trkpt>
      <trkpt lat="40.116300" lon="-5.456750">
        <ele>1593.0</ele>
        <time>2015-06-07T15:22:52Z</time>
      </trkpt>
      <trkpt lat="40.116433" lon="-5.456900">
        <ele>1595.0</ele>
        <time>2015-06-07T15:22:54Z</time>
      </trkpt>
      <trkpt lat="40.116583" lon="-5.456950">
        <ele>1596.0</ele>
        <time>2015-06-07T15:22:56Z</time>
      </trkpt>
      <trkpt lat="40.116750" lon="-5.456900">
        <ele>1597.0</ele>
        <time>2015-06-07T15:22:58Z</time>
      </trkpt>
      <trkpt lat="40.116900" lon="-5.456717">
        <ele>1598.0</ele>
        <time>2015-06-07T15:23:00Z</time>
      </trkpt>
      <trkpt lat="40.116933" lon="-5.456500">
        <ele>1603.0</ele>
        <time>2015-06-07T15:23:02Z</time>
      </trkpt>
      <trkpt lat="40.116900" lon="-5.456333">
        <ele>1608.0</ele>
        <time>2015-06-07T15:23:04Z</time>
      </trkpt>
      <trkpt lat="40.116850" lon="-5.456150">
        <ele>1611.0</ele>
        <time>2015-06-07T15:23:06Z</time>
      </trkpt>
      <trkpt lat="40.116717" lon="-5.456000">
        <ele>1614.0</ele>
        <time>2015-06-07T15:23:08Z</time>
      </trkpt>
      <trkpt lat="40.116533" lon="-5.455983">
        <ele>1619.0</ele>
        <time>2015-06-07T15:23:10Z</time>
      </trkpt>
      <trkpt lat="40.116383" lon="-5.456100">
        <ele>1623.0</ele>
        <time>2015-06-07T15:23:12Z</time>
      </trkpt>
      <trkpt lat="40.116300" lon="-5.456317">
        <ele>1627.0</ele>
        <time>2015-06-07T15:23:14Z</time>
      </trkpt>
      <trkpt lat="40.116317" lon="-5.456517">
        <ele>1630.0</ele>
        <time>2015-06-07T15:23:16Z</time>
      </trkpt>
      <trkpt lat="40.116400" lon="-5.456700">
        <ele>1629.0</ele>
        <time>2015-06-07T15:23:18Z</time>
      </trkpt>
      <trkpt lat="40.116533" lon="-5.456833">
        <ele>1629.0</ele>
        <time>2015-06-07T15:23:20Z</time>
      </trkpt>
      <trkpt lat="40.116700" lon="-5.456850">
        <ele>1630.0</ele>
        <time>2015-06-07T15:23:22Z</time>
      </trkpt>
      <trkpt lat="40.116867" lon="-5.456767">
        <ele>1632.0</ele>
        <time>2015-06-07T15:23:24Z</time>
      </trkpt>
      <trkpt lat="40.117017" lon="-5.456600">
        <ele>1634.0</ele>
        <time>2015-06-07T15:23:26Z</time>
      </trkpt>
      <trkpt lat="40.117050" lon="-5.456367">
        <ele>1636.0</ele>
        <time>2015-06-07T15:23:28Z</time>
      </trkpt>
      <trkpt lat="40.116967" lon="-5.456183">
        <ele>1640.0</ele>
        <time>2015-06-07T15:23:30Z</time>
      </trkpt>
      <trkpt lat="40.116833" lon="-5.456083">
        <ele>1643.0</ele>
        <time>2015-06-07T15:23:32Z</time>
      </trkpt>
      <trkpt lat="40.116667" lon="-5.456117">
        <ele>1644.0</ele>
        <time>2015-06-07T15:23:34Z</time>
      </trkpt>
      <trkpt lat="40.116517" lon="-5.456300">
        <ele>1646.0</ele>
        <time>2015-06-07T15:23:36Z</time>
      </trkpt>
      <trkpt lat="40.116467" lon="-5.456583">
        <ele>1649.0</ele>
        <time>2015-06-07T15:23:38Z</time>
      </trkpt>
      <trkpt lat="40.116500" lon="-5.456800">
        <ele>1651.0</ele>
        <time>2015-06-07T15:23:40Z</time>
      </trkpt>
      <trkpt lat="40.116583" lon="-5.456983">
        <ele>1652.0</ele>
        <time>2015-06-07T15:23:42Z</time>
      </trkpt>
      <trkpt lat="40.116750" lon="-5.457167">
        <ele>1653.0</ele>
        <time>2015-06-07T15:23:44Z</time>
      </trkpt>
      <trkpt lat="40.116933" lon="-5.457250">
        <ele>1659.0</ele>
        <time>2015-06-07T15:23:46Z</time>
      </trkpt>
      <trkpt lat="40.117083" lon="-5.457183">
        <ele>1663.0</ele>
        <time>2015-06-07T15:23:48Z</time>
      </trkpt>
      <trkpt lat="40.117200" lon="-5.457033">
        <ele>1662.0</ele>
        <time>2015-06-07T15:23:50Z</time>
      </trkpt>
      <trkpt lat="40.117233" lon="-5.456833">
        <ele>1662.0</ele>
        <time>2015-06-07T15:23:52Z</time>
      </trkpt>
      <trkpt lat="40.117150" lon="-5.456683">
        <ele>1662.0</ele>
        <time>2015-06-07T15:23:54Z</time>
      </trkpt>
      <trkpt lat="40.117000" lon="-5.456617">
        <ele>1666.0</ele>
        <time>2015-06-07T15:23:56Z</time>
      </trkpt>
      <trkpt lat="40.116883" lon="-5.456617">
        <ele>1668.0</ele>
        <time>2015-06-07T15:23:58Z</time>
      </trkpt>
      <trkpt lat="40.116750" lon="-5.456700">
        <ele>1665.0</ele>
        <time>2015-06-07T15:24:00Z</time>
      </trkpt>
      <trkpt lat="40.116650" lon="-5.456917">
        <ele>1664.0</ele>
        <time>2015-06-07T15:24:02Z</time>
      </trkpt>
      <trkpt lat="40.116667" lon="-5.457183">
        <ele>1667.0</ele>
        <time>2015-06-07T15:24:04Z</time>
      </trkpt>
      <trkpt lat="40.116700" lon="-5.457433">
        <ele>1673.0</ele>
        <time>2015-06-07T15:24:06Z</time>
      </trkpt>
      <trkpt lat="40.116750" lon="-5.457633">
        <ele>1677.0</ele>
        <time>2015-06-07T15:24:08Z</time>
      </trkpt>
      <trkpt lat="40.116900" lon="-5.457783">
        <ele>1677.0</ele>
        <time>2015-06-07T15:24:10Z</time>
      </trkpt>
      <trkpt lat="40.117083" lon="-5.457817">
        <ele>1681.0</ele>
        <time>2015-06-07T15:24:12Z</time>
      </trkpt>
      <trkpt lat="40.117233" lon="-5.457783">
        <ele>1684.0</ele>
        <time>2015-06-07T15:24:14Z</time>
      </trkpt>
      <trkpt lat="40.117350" lon="-5.457650">
        <ele>1682.0</ele>
        <time>2015-06-07T15:24:16Z</time>
      </trkpt>
      <trkpt lat="40.117417" lon="-5.457450">
        <ele>1683.0</ele>
        <time>2015-06-07T15:24:18Z</time>
      </trkpt>
      <trkpt lat="40.117400" lon="-5.457283">
        <ele>1686.0</ele>
        <time>2015-06-07T15:24:20Z</time>
      </trkpt>
      <trkpt lat="40.117367" lon="-5.457117">
        <ele>1687.0</ele>
        <time>2015-06-07T15:24:22Z</time>
      </trkpt>
      <trkpt lat="40.117233" lon="-5.456967">
        <ele>1687.0</ele>
        <time>2015-06-07T15:24:24Z</time>
      </trkpt>
      <trkpt lat="40.117050" lon="-5.456900">
        <ele>1690.0</ele>
        <time>2015-06-07T15:24:26Z</time>
      </trkpt>
      <trkpt lat="40.116883" lon="-5.456950">
        <ele>1692.0</ele>
        <time>2015-06-07T15:24:28Z</time>
      </trkpt>
      <trkpt lat="40.116750" lon="-5.457083">
        <ele>1691.0</ele>
        <time>2015-06-07T15:24:30Z</time>
      </trkpt>
      <trkpt lat="40.116650" lon="-5.457267">
        <ele>1692.0</ele>
        <time>2015-06-07T15:24:32Z</time>
      </trkpt>
      <trkpt lat="40.116600" lon="-5.457517">
        <ele>1692.0</ele>
        <time>2015-06-07T15:24:34Z</time>
      </trkpt>
      <trkpt lat="40.116650" lon="-5.457733">
        <ele>1693.0</ele>
        <time>2015-06-07T15:24:36Z</time>
      </trkpt>
      <trkpt lat="40.116800" lon="-5.457883">
        <ele>1695.0</ele>
        <time>2015-06-07T15:24:38Z</time>
      </trkpt>
      <trkpt lat="40.116967" lon="-5.457917">
        <ele>1697.0</ele>
        <time>2015-06-07T15:24:40Z</time>
      </trkpt>
      <trkpt lat="40.117117" lon="-5.457833">
        <ele>1699.0</ele>
        <time>2015-06-07T15:24:42Z</time>
      </trkpt>
      <trkpt lat="40.117200" lon="-5.457650">
        <ele>1697.0</ele>
        <time>2015-06-07T15:24:44Z</time>
      </trkpt>
      <trkpt lat="40.117217" lon="-5.457417">
        <ele>1697.0</ele>
        <time>2015-06-07T15:24:46Z</time>
      </trkpt>
      <trkpt lat="40.117133" lon="-5.457217">
        <ele>1697.0</ele>
        <time>2015-06-07T15:24:48Z</time>
      </trkpt>
      <trkpt lat="40.117000" lon="-5.457133">
        <ele>1698.0</ele>
        <time>2015-06-07T15:24:50Z</time>
      </trkpt>
      <trkpt lat="40.116833" lon="-5.457117">
        <ele>1696.0</ele>
        <time>2015-06-07T15:24:52Z</time>
      </trkpt>
      <trkpt lat="40.116667" lon="-5.457233">
        <ele>1695.0</ele>
        <time>2015-06-07T15:24:54Z</time>
      </trkpt>
      <trkpt lat="40.116533" lon="-5.457417">
        <ele>1698.0</ele>
        <time>2015-06-07T15:24:56Z</time>
      </trkpt>
      <trkpt lat="40.116433" lon="-5.457600">
        <ele>1702.0</ele>
        <time>2015-06-07T15:24:58Z</time>
      </trkpt>
      <trkpt lat="40.116350" lon="-5.457783">
        <ele>1701.0</ele>
        <time>2015-06-07T15:25:00Z</time>
      </trkpt>
      <trkpt lat="40.116333" lon="-5.458017">
        <ele>1699.0</ele>
        <time>2015-06-07T15:25:02Z</time>
      </trkpt>
      <trkpt lat="40.116433" lon="-5.458250">
        <ele>1700.0</ele>
        <time>2015-06-07T15:25:04Z</time>
      </trkpt>
      <trkpt lat="40.116583" lon="-5.458333">
        <ele>1701.0</ele>
        <time>2015-06-07T15:25:06Z</time>
      </trkpt>
      <trkpt lat="40.116767" lon="-5.458350">
        <ele>1699.0</ele>
        <time>2015-06-07T15:25:08Z</time>
      </trkpt>
      <trkpt lat="40.116933" lon="-5.458250">
        <ele>1699.0</ele>
        <time>2015-06-07T15:25:10Z</time>
      </trkpt>
      <trkpt lat="40.117000" lon="-5.458033">
        <ele>1703.0</ele>
        <time>2015-06-07T15:25:12Z</time>
      </trkpt>
      <trkpt lat="40.116967" lon="-5.457850">
        <ele>1704.0</ele>
        <time>2015-06-07T15:25:14Z</time>
      </trkpt>
      <trkpt lat="40.116883" lon="-5.457683">
        <ele>1705.0</ele>
        <time>2015-06-07T15:25:16Z</time>
      </trkpt>
      <trkpt lat="40.116717" lon="-5.457633">
        <ele>1703.0</ele>
        <time>2015-06-07T15:25:18Z</time>
      </trkpt>
      <trkpt lat="40.116567" lon="-5.457717">
        <ele>1706.0</ele>
        <time>2015-06-07T15:25:20Z</time>
      </trkpt>
      <trkpt lat="40.116467" lon="-5.457833">
        <ele>1707.0</ele>
        <time>2015-06-07T15:25:22Z</time>
      </trkpt>
      <trkpt lat="40.116417" lon="-5.458033">
        <ele>1705.0</ele>
        <time>2015-06-07T15:25:24Z</time>
      </trkpt>
      <trkpt lat="40.116433" lon="-5.458283">
        <ele>1704.0</ele>
        <time>2015-06-07T15:25:26Z</time>
      </trkpt>
      <trkpt lat="40.116517" lon="-5.458467">
        <ele>1705.0</ele>
        <time>2015-06-07T15:25:28Z</time>
      </trkpt>
      <trkpt lat="40.116667" lon="-5.458633">
        <ele>1704.0</ele>
        <time>2015-06-07T15:25:30Z</time>
      </trkpt>
      <trkpt lat="40.116850" lon="-5.458700">
        <ele>1703.0</ele>
        <time>2015-06-07T15:25:32Z</time>
      </trkpt>
      <trkpt lat="40.117000" lon="-5.458583">
        <ele>1700.0</ele>
        <time>2015-06-07T15:25:34Z</time>
      </trkpt>
      <trkpt lat="40.117050" lon="-5.458350">
        <ele>1697.0</ele>
        <time>2015-06-07T15:25:36Z</time>
      </trkpt>
      <trkpt lat="40.116967" lon="-5.458167">
        <ele>1697.0</ele>
        <time>2015-06-07T15:25:38Z</time>
      </trkpt>
      <trkpt lat="40.116867" lon="-5.458033">
        <ele>1697.0</ele>
        <time>2015-06-07T15:25:40Z</time>
      </trkpt>
      <trkpt lat="40.116733" lon="-5.458000">
        <ele>1694.0</ele>
        <time>2015-06-07T15:25:42Z</time>
      </trkpt>
      <trkpt lat="40.116567" lon="-5.458050">
        <ele>1692.0</ele>
        <time>2015-06-07T15:25:44Z</time>
      </trkpt>
      <trkpt lat="40.116367" lon="-5.458167">
        <ele>1692.0</ele>
        <time>2015-06-07T15:25:46Z</time>
      </trkpt>
      <trkpt lat="40.116200" lon="-5.458283">
        <ele>1693.0</ele>
        <time>2015-06-07T15:25:48Z</time>
      </trkpt>
      <trkpt lat="40.116067" lon="-5.458383">
        <ele>1696.0</ele>
        <time>2015-06-07T15:25:50Z</time>
      </trkpt>
      <trkpt lat="40.115933" lon="-5.458500">
        <ele>1695.0</ele>
        <time>2015-06-07T15:25:52Z</time>
      </trkpt>
      <trkpt lat="40.115817" lon="-5.458750">
        <ele>1694.0</ele>
        <time>2015-06-07T15:25:54Z</time>
      </trkpt>
      <trkpt lat="40.115767" lon="-5.458967">
        <ele>1696.0</ele>
        <time>2015-06-07T15:25:56Z</time>
      </trkpt>
      <trkpt lat="40.115717" lon="-5.459167">
        <ele>1692.0</ele>
        <time>2015-06-07T15:25:58Z</time>
      </trkpt>
      <trkpt lat="40.115667" lon="-5.459450">
        <ele>1686.0</ele>
        <time>2015-06-07T15:26:00Z</time>
      </trkpt>
      <trkpt lat="40.115583" lon="-5.459733">
        <ele>1688.0</ele>
        <time>2015-06-07T15:26:02Z</time>
      </trkpt>
      <trkpt lat="40.115483" lon="-5.459900">
        <ele>1694.0</ele>
        <time>2015-06-07T15:26:04Z</time>
      </trkpt>
      <trkpt lat="40.115383" lon="-5.460067">
        <ele>1698.0</ele>
        <time>2015-06-07T15:26:06Z</time>
      </trkpt>
      <trkpt lat="40.115383" lon="-5.460300">
        <ele>1701.0</ele>
        <time>2015-06-07T15:26:08Z</time>
      </trkpt>
      <trkpt lat="40.115467" lon="-5.460483">
        <ele>1705.0</ele>
        <time>2015-06-07T15:26:10Z</time>
      </trkpt>
      <trkpt lat="40.115617" lon="-5.460600">
        <ele>1709.0</ele>
        <time>2015-06-07T15:26:12Z</time>
      </trkpt>
      <trkpt lat="40.115800" lon="-5.460567">
        <ele>1711.0</ele>
        <time>2015-06-07T15:26:14Z</time>
      </trkpt>
      <trkpt lat="40.115917" lon="-5.460400">
        <ele>1713.0</ele>
        <time>2015-06-07T15:26:16Z</time>
      </trkpt>
      <trkpt lat="40.115933" lon="-5.460200">
        <ele>1713.0</ele>
        <time>2015-06-07T15:26:18Z</time>
      </trkpt>
      <trkpt lat="40.115917" lon="-5.460017">
        <ele>1709.0</ele>
        <time>2015-06-07T15:26:20Z</time>
      </trkpt>
      <trkpt lat="40.115783" lon="-5.459850">
        <ele>1707.0</ele>
        <time>2015-06-07T15:26:22Z</time>
      </trkpt>
      <trkpt lat="40.115617" lon="-5.459783">
        <ele>1708.0</ele>
        <time>2015-06-07T15:26:24Z</time>
      </trkpt>
      <trkpt lat="40.115467" lon="-5.459833">
        <ele>1709.0</ele>
        <time>2015-06-07T15:26:26Z</time>
      </trkpt>
      <trkpt lat="40.115317" lon="-5.459983">
        <ele>1710.0</ele>
        <time>2015-06-07T15:26:28Z</time>
      </trkpt>
      <trkpt lat="40.115233" lon="-5.460200">
        <ele>1714.0</ele>
        <time>2015-06-07T15:26:30Z</time>
      </trkpt>
      <trkpt lat="40.115200" lon="-5.460383">
        <ele>1718.0</ele>
        <time>2015-06-07T15:26:32Z</time>
      </trkpt>
      <trkpt lat="40.115250" lon="-5.460567">
        <ele>1717.0</ele>
        <time>2015-06-07T15:26:34Z</time>
      </trkpt>
      <trkpt lat="40.115383" lon="-5.460783">
        <ele>1719.0</ele>
        <time>2015-06-07T15:26:36Z</time>
      </trkpt>
      <trkpt lat="40.115533" lon="-5.460883">
        <ele>1724.0</ele>
        <time>2015-06-07T15:26:38Z</time>
      </trkpt>
      <trkpt lat="40.115700" lon="-5.460850">
        <ele>1727.0</ele>
        <time>2015-06-07T15:26:40Z</time>
      </trkpt>
      <trkpt lat="40.115850" lon="-5.460733">
        <ele>1729.0</ele>
        <time>2015-06-07T15:26:42Z</time>
      </trkpt>
      <trkpt lat="40.115900" lon="-5.460533">
        <ele>1729.0</ele>
        <time>2015-06-07T15:26:44Z</time>
      </trkpt>
      <trkpt lat="40.115800" lon="-5.460333">
        <ele>1726.0</ele>
        <time>2015-06-07T15:26:46Z</time>
      </trkpt>
      <trkpt lat="40.115617" lon="-5.460283">
        <ele>1725.0</ele>
        <time>2015-06-07T15:26:48Z</time>
      </trkpt>
      <trkpt lat="40.115467" lon="-5.460333">
        <ele>1729.0</ele>
        <time>2015-06-07T15:26:50Z</time>
      </trkpt>
      <trkpt lat="40.115367" lon="-5.460450">
        <ele>1730.0</ele>
        <time>2015-06-07T15:26:52Z</time>
      </trkpt>
      <trkpt lat="40.115250" lon="-5.460617">
        <ele>1730.0</ele>
        <time>2015-06-07T15:26:54Z</time>
      </trkpt>
      <trkpt lat="40.115183" lon="-5.460833">
        <ele>1735.0</ele>
        <time>2015-06-07T15:26:56Z</time>
      </trkpt>
      <trkpt lat="40.115183" lon="-5.461033">
        <ele>1739.0</ele>
        <time>2015-06-07T15:26:58Z</time>
      </trkpt>
      <trkpt lat="40.115233" lon="-5.461233">
        <ele>1740.0</ele>
        <time>2015-06-07T15:27:00Z</time>
      </trkpt>
      <trkpt lat="40.115367" lon="-5.461400">
        <ele>1742.0</ele>
        <time>2015-06-07T15:27:02Z</time>
      </trkpt>
      <trkpt lat="40.115550" lon="-5.461417">
        <ele>1744.0</ele>
        <time>2015-06-07T15:27:04Z</time>
      </trkpt>
      <trkpt lat="40.115700" lon="-5.461333">
        <ele>1747.0</ele>
        <time>2015-06-07T15:27:06Z</time>
      </trkpt>
      <trkpt lat="40.115783" lon="-5.461200">
        <ele>1749.0</ele>
        <time>2015-06-07T15:27:08Z</time>
      </trkpt>
      <trkpt lat="40.115767" lon="-5.460983">
        <ele>1747.0</ele>
        <time>2015-06-07T15:27:10Z</time>
      </trkpt>
      <trkpt lat="40.115633" lon="-5.460833">
        <ele>1747.0</ele>
        <time>2015-06-07T15:27:12Z</time>
      </trkpt>
      <trkpt lat="40.115467" lon="-5.460783">
        <ele>1749.0</ele>
        <time>2015-06-07T15:27:14Z</time>
      </trkpt>
      <trkpt lat="40.115283" lon="-5.460833">
        <ele>1751.0</ele>
        <time>2015-06-07T15:27:16Z</time>
      </trkpt>
      <trkpt lat="40.115133" lon="-5.460967">
        <ele>1756.0</ele>
        <time>2015-06-07T15:27:18Z</time>
      </trkpt>
      <trkpt lat="40.115050" lon="-5.461117">
        <ele>1761.0</ele>
        <time>2015-06-07T15:27:20Z</time>
      </trkpt>
      <trkpt lat="40.115000" lon="-5.461317">
        <ele>1761.0</ele>
        <time>2015-06-07T15:27:22Z</time>
      </trkpt>
      <trkpt lat="40.115033" lon="-5.461550">
        <ele>1764.0</ele>
        <time>2015-06-07T15:27:24Z</time>
      </trkpt>
      <trkpt lat="40.115150" lon="-5.461717">
        <ele>1768.0</ele>
        <time>2015-06-07T15:27:26Z</time>
      </trkpt>
      <trkpt lat="40.115333" lon="-5.461767">
        <ele>1769.0</ele>
        <time>2015-06-07T15:27:28Z</time>
      </trkpt>
      <trkpt lat="40.115500" lon="-5.461683">
        <ele>1771.0</ele>
        <time>2015-06-07T15:27:30Z</time>
      </trkpt>
      <trkpt lat="40.115567" lon="-5.461500">
        <ele>1773.0</ele>
        <time>2015-06-07T15:27:32Z</time>
      </trkpt>
      <trkpt lat="40.115550" lon="-5.461317">
        <ele>1775.0</ele>
        <time>2015-06-07T15:27:34Z</time>
      </trkpt>
      <trkpt lat="40.115433" lon="-5.461183">
        <ele>1775.0</ele>
        <time>2015-06-07T15:27:36Z</time>
      </trkpt>
      <trkpt lat="40.115250" lon="-5.461150">
        <ele>1777.0</ele>
        <time>2015-06-07T15:27:38Z</time>
      </trkpt>
      <trkpt lat="40.115133" lon="-5.461217">
        <ele>1782.0</ele>
        <time>2015-06-07T15:27:40Z</time>
      </trkpt>
      <trkpt lat="40.115050" lon="-5.461367">
        <ele>1784.0</ele>
        <time>2015-06-07T15:27:42Z</time>
      </trkpt>
      <trkpt lat="40.115000" lon="-5.461583">
        <ele>1783.0</ele>
        <time>2015-06-07T15:27:44Z</time>
      </trkpt>
      <trkpt lat="40.115033" lon="-5.461850">
        <ele>1784.0</ele>
        <time>2015-06-07T15:27:46Z</time>
      </trkpt>
      <trkpt lat="40.115150" lon="-5.462033">
        <ele>1788.0</ele>
        <time>2015-06-07T15:27:48Z</time>
      </trkpt>
      <trkpt lat="40.115300" lon="-5.462133">
        <ele>1788.0</ele>
        <time>2015-06-07T15:27:50Z</time>
      </trkpt>
      <trkpt lat="40.115467" lon="-5.462133">
        <ele>1788.0</ele>
        <time>2015-06-07T15:27:52Z</time>
      </trkpt>
      <trkpt lat="40.115583" lon="-5.461983">
        <ele>1787.0</ele>
        <time>2015-06-07T15:27:54Z</time>
      </trkpt>
      <trkpt lat="40.115567" lon="-5.461750">
        <ele>1786.0</ele>
        <time>2015-06-07T15:27:56Z</time>
      </trkpt>
      <trkpt lat="40.115450" lon="-5.461567">
        <ele>1786.0</ele>
        <time>2015-06-07T15:27:58Z</time>
      </trkpt>
      <trkpt lat="40.115283" lon="-5.461483">
        <ele>1787.0</ele>
        <time>2015-06-07T15:28:00Z</time>
      </trkpt>
      <trkpt lat="40.115133" lon="-5.461467">
        <ele>1789.0</ele>
        <time>2015-06-07T15:28:02Z</time>
      </trkpt>
      <trkpt lat="40.114983" lon="-5.461517">
        <ele>1789.0</ele>
        <time>2015-06-07T15:28:04Z</time>
      </trkpt>
      <trkpt lat="40.114833" lon="-5.461633">
        <ele>1790.0</ele>
        <time>2015-06-07T15:28:06Z</time>
      </trkpt>
      <trkpt lat="40.114683" lon="-5.461783">
        <ele>1791.0</ele>
        <time>2015-06-07T15:28:08Z</time>
      </trkpt>
      <trkpt lat="40.114567" lon="-5.461950">
        <ele>1793.0</ele>
        <time>2015-06-07T15:28:10Z</time>
      </trkpt>
      <trkpt lat="40.114450" lon="-5.462133">
        <ele>1796.0</ele>
        <time>2015-06-07T15:28:12Z</time>
      </trkpt>
      <trkpt lat="40.114333" lon="-5.462317">
        <ele>1798.0</ele>
        <time>2015-06-07T15:28:14Z</time>
      </trkpt>
      <trkpt lat="40.114250" lon="-5.462550">
        <ele>1799.0</ele>
        <time>2015-06-07T15:28:16Z</time>
      </trkpt>
      <trkpt lat="40.114133" lon="-5.462800">
        <ele>1799.0</ele>
        <time>2015-06-07T15:28:18Z</time>
      </trkpt>
      <trkpt lat="40.114017" lon="-5.463050">
        <ele>1802.0</ele>
        <time>2015-06-07T15:28:20Z</time>
      </trkpt>
      <trkpt lat="40.113917" lon="-5.463283">
        <ele>1808.0</ele>
        <time>2015-06-07T15:28:22Z</time>
      </trkpt>
      <trkpt lat="40.113817" lon="-5.463467">
        <ele>1811.0</ele>
        <time>2015-06-07T15:28:24Z</time>
      </trkpt>
      <trkpt lat="40.113633" lon="-5.463600">
        <ele>1811.0</ele>
        <time>2015-06-07T15:28:26Z</time>
      </trkpt>
      <trkpt lat="40.113433" lon="-5.463750">
        <ele>1812.0</ele>
        <time>2015-06-07T15:28:28Z</time>
      </trkpt>
      <trkpt lat="40.113350" lon="-5.464000">
        <ele>1814.0</ele>
        <time>2015-06-07T15:28:30Z</time>
      </trkpt>
      <trkpt lat="40.113383" lon="-5.464233">
        <ele>1814.0</ele>
        <time>2015-06-07T15:28:32Z</time>
      </trkpt>
      <trkpt lat="40.113483" lon="-5.464417">
        <ele>1813.0</ele>
        <time>2015-06-07T15:28:34Z</time>
      </trkpt>
      <trkpt lat="40.113667" lon="-5.464467">
        <ele>1812.0</ele>
        <time>2015-06-07T15:28:36Z</time>
      </trkpt>
      <trkpt lat="40.113833" lon="-5.464367">
        <ele>1815.0</ele>
        <time>2015-06-07T15:28:38Z</time>
      </trkpt>
      <trkpt lat="40.113917" lon="-5.464200">
        <ele>1818.0</ele>
        <time>2015-06-07T15:28:40Z</time>
      </trkpt>
      <trkpt lat="40.113933" lon="-5.464000">
        <ele>1819.0</ele>
        <time>2015-06-07T15:28:42Z</time>
      </trkpt>
      <trkpt lat="40.113850" lon="-5.463800">
        <ele>1820.0</ele>
        <time>2015-06-07T15:28:44Z</time>
      </trkpt>
      <trkpt lat="40.113700" lon="-5.463667">
        <ele>1823.0</ele>
        <time>2015-06-07T15:28:46Z</time>
      </trkpt>
      <trkpt lat="40.113517" lon="-5.463633">
        <ele>1826.0</ele>
        <time>2015-06-07T15:28:48Z</time>
      </trkpt>
      <trkpt lat="40.113333" lon="-5.463700">
        <ele>1828.0</ele>
        <time>2015-06-07T15:28:50Z</time>
      </trkpt>
      <trkpt lat="40.113183" lon="-5.463850">
        <ele>1830.0</ele>
        <time>2015-06-07T15:28:52Z</time>
      </trkpt>
      <trkpt lat="40.113067" lon="-5.464083">
        <ele>1832.0</ele>
        <time>2015-06-07T15:28:54Z</time>
      </trkpt>
      <trkpt lat="40.113033" lon="-5.464333">
        <ele>1833.0</ele>
        <time>2015-06-07T15:28:56Z</time>
      </trkpt>
      <trkpt lat="40.113067" lon="-5.464600">
        <ele>1832.0</ele>
        <time>2015-06-07T15:28:58Z</time>
      </trkpt>
      <trkpt lat="40.113200" lon="-5.464767">
        <ele>1832.0</ele>
        <time>2015-06-07T15:29:00Z</time>
      </trkpt>
      <trkpt lat="40.113367" lon="-5.464817">
        <ele>1833.0</ele>
        <time>2015-06-07T15:29:02Z</time>
      </trkpt>
      <trkpt lat="40.113517" lon="-5.464750">
        <ele>1834.0</ele>
        <time>2015-06-07T15:29:04Z</time>
      </trkpt>
      <trkpt lat="40.113600" lon="-5.464600">
        <ele>1837.0</ele>
        <time>2015-06-07T15:29:06Z</time>
      </trkpt>
      <trkpt lat="40.113617" lon="-5.464400">
        <ele>1838.0</ele>
        <time>2015-06-07T15:29:08Z</time>
      </trkpt>
      <trkpt lat="40.113567" lon="-5.464217">
        <ele>1839.0</ele>
        <time>2015-06-07T15:29:10Z</time>
      </trkpt>
      <trkpt lat="40.113433" lon="-5.464067">
        <ele>1840.0</ele>
        <time>2015-06-07T15:29:12Z</time>
      </trkpt>
      <trkpt lat="40.113233" lon="-5.464017">
        <ele>1841.0</ele>
        <time>2015-06-07T15:29:14Z</time>
      </trkpt>
      <trkpt lat="40.113050" lon="-5.464050">
        <ele>1844.0</ele>
        <time>2015-06-07T15:29:16Z</time>
      </trkpt>
      <trkpt lat="40.112883" lon="-5.464183">
        <ele>1846.0</ele>
        <time>2015-06-07T15:29:18Z</time>
      </trkpt>
      <trkpt lat="40.112767" lon="-5.464383">
        <ele>1848.0</ele>
        <time>2015-06-07T15:29:20Z</time>
      </trkpt>
      <trkpt lat="40.112667" lon="-5.464617">
        <ele>1848.0</ele>
        <time>2015-06-07T15:29:22Z</time>
      </trkpt>
      <trkpt lat="40.112583" lon="-5.464900">
        <ele>1848.0</ele>
        <time>2015-06-07T15:29:24Z</time>
      </trkpt>
      <trkpt lat="40.112500" lon="-5.465167">
        <ele>1849.0</ele>
        <time>2015-06-07T15:29:26Z</time>
      </trkpt>
      <trkpt lat="40.112383" lon="-5.465383">
        <ele>1850.0</ele>
        <time>2015-06-07T15:29:28Z</time>
      </trkpt>
      <trkpt lat="40.112283" lon="-5.465633">
        <ele>1850.0</ele>
        <time>2015-06-07T15:29:30Z</time>
      </trkpt>
      <trkpt lat="40.112167" lon="-5.465883">
        <ele>1853.0</ele>
        <time>2015-06-07T15:29:32Z</time>
      </trkpt>
      <trkpt lat="40.112050" lon="-5.466100">
        <ele>1856.0</ele>
        <time>2015-06-07T15:29:34Z</time>
      </trkpt>
      <trkpt lat="40.111967" lon="-5.466333">
        <ele>1857.0</ele>
        <time>2015-06-07T15:29:36Z</time>
      </trkpt>
      <trkpt lat="40.111883" lon="-5.466583">
        <ele>1858.0</ele>
        <time>2015-06-07T15:29:38Z</time>
      </trkpt>
      <trkpt lat="40.111800" lon="-5.466850">
        <ele>1859.0</ele>
        <time>2015-06-07T15:29:40Z</time>
      </trkpt>
      <trkpt lat="40.111717" lon="-5.467117">
        <ele>1862.0</ele>
        <time>2015-06-07T15:29:42Z</time>
      </trkpt>
      <trkpt lat="40.111633" lon="-5.467367">
        <ele>1866.0</ele>
        <time>2015-06-07T15:29:44Z</time>
      </trkpt>
      <trkpt lat="40.111567" lon="-5.467617">
        <ele>1865.0</ele>
        <time>2015-06-07T15:29:46Z</time>
      </trkpt>
      <trkpt lat="40.111500" lon="-5.467900">
        <ele>1862.0</ele>
        <time>2015-06-07T15:29:48Z</time>
      </trkpt>
      <trkpt lat="40.111417" lon="-5.468150">
        <ele>1857.0</ele>
        <time>2015-06-07T15:29:50Z</time>
      </trkpt>
      <trkpt lat="40.111350" lon="-5.468433">
        <ele>1851.0</ele>
        <time>2015-06-07T15:29:52Z</time>
      </trkpt>
      <trkpt lat="40.111283" lon="-5.468733">
        <ele>1848.0</ele>
        <time>2015-06-07T15:29:54Z</time>
      </trkpt>
      <trkpt lat="40.111217" lon="-5.468983">
        <ele>1845.0</ele>
        <time>2015-06-07T15:29:56Z</time>
      </trkpt>
      <trkpt lat="40.111133" lon="-5.469267">
        <ele>1837.0</ele>
        <time>2015-06-07T15:29:58Z</time>
      </trkpt>
      <trkpt lat="40.111000" lon="-5.469583">
        <ele>1832.0</ele>
        <time>2015-06-07T15:30:00Z</time>
      </trkpt>
      <trkpt lat="40.110867" lon="-5.469867">
        <ele>1830.0</ele>
        <time>2015-06-07T15:30:02Z</time>
      </trkpt>
      <trkpt lat="40.110733" lon="-5.470133">
        <ele>1827.0</ele>
        <time>2015-06-07T15:30:04Z</time>
      </trkpt>
      <trkpt lat="40.110583" lon="-5.470417">
        <ele>1823.0</ele>
        <time>2015-06-07T15:30:06Z</time>
      </trkpt>
      <trkpt lat="40.110467" lon="-5.470650">
        <ele>1823.0</ele>
        <time>2015-06-07T15:30:08Z</time>
      </trkpt>
      <trkpt lat="40.110367" lon="-5.470850">
        <ele>1817.0</ele>
        <time>2015-06-07T15:30:10Z</time>
      </trkpt>
      <trkpt lat="40.110250" lon="-5.471117">
        <ele>1808.0</ele>
        <time>2015-06-07T15:30:12Z</time>
      </trkpt>
      <trkpt lat="40.110117" lon="-5.471433">
        <ele>1805.0</ele>
        <time>2015-06-07T15:30:14Z</time>
      </trkpt>
      <trkpt lat="40.110017" lon="-5.471717">
        <ele>1805.0</ele>
        <time>2015-06-07T15:30:16Z</time>
      </trkpt>
      <trkpt lat="40.109933" lon="-5.471950">
        <ele>1804.0</ele>
        <time>2015-06-07T15:30:18Z</time>
      </trkpt>
      <trkpt lat="40.109867" lon="-5.472200">
        <ele>1799.0</ele>
        <time>2015-06-07T15:30:20Z</time>
      </trkpt>
      <trkpt lat="40.109783" lon="-5.472500">
        <ele>1792.0</ele>
        <time>2015-06-07T15:30:22Z</time>
      </trkpt>
      <trkpt lat="40.109683" lon="-5.472800">
        <ele>1789.0</ele>
        <time>2015-06-07T15:30:24Z</time>
      </trkpt>
      <trkpt lat="40.109617" lon="-5.473050">
        <ele>1786.0</ele>
        <time>2015-06-07T15:30:26Z</time>
      </trkpt>
      <trkpt lat="40.109533" lon="-5.473317">
        <ele>1779.0</ele>
        <time>2015-06-07T15:30:28Z</time>
      </trkpt>
      <trkpt lat="40.109433" lon="-5.473633">
        <ele>1774.0</ele>
        <time>2015-06-07T15:30:30Z</time>
      </trkpt>
      <trkpt lat="40.109350" lon="-5.473933">
        <ele>1770.0</ele>
        <time>2015-06-07T15:30:32Z</time>
      </trkpt>
      <trkpt lat="40.109267" lon="-5.474200">
        <ele>1764.0</ele>
        <time>2015-06-07T15:30:34Z</time>
      </trkpt>
      <trkpt lat="40.109150" lon="-5.474450">
        <ele>1756.0</ele>
        <time>2015-06-07T15:30:36Z</time>
      </trkpt>
      <trkpt lat="40.109000" lon="-5.474717">
        <ele>1750.0</ele>
        <time>2015-06-07T15:30:38Z</time>
      </trkpt>
      <trkpt lat="40.108867" lon="-5.474950">
        <ele>1745.0</ele>
        <time>2015-06-07T15:30:40Z</time>
      </trkpt>
      <trkpt lat="40.108767" lon="-5.475167">
        <ele>1740.0</ele>
        <time>2015-06-07T15:30:42Z</time>
      </trkpt>
      <trkpt lat="40.108667" lon="-5.475417">
        <ele>1733.0</ele>
        <time>2015-06-07T15:30:44Z</time>
      </trkpt>
      <trkpt lat="40.108550" lon="-5.475683">
        <ele>1727.0</ele>
        <time>2015-06-07T15:30:46Z</time>
      </trkpt>
      <trkpt lat="40.108467" lon="-5.475950">
        <ele>1723.0</ele>
        <time>2015-06-07T15:30:48Z</time>
      </trkpt>
      <trkpt lat="40.108367" lon="-5.476183">
        <ele>1719.0</ele>
        <time>2015-06-07T15:30:50Z</time>
      </trkpt>
      <trkpt lat="40.108300" lon="-5.476417">
        <ele>1712.0</ele>
        <time>2015-06-07T15:30:52Z</time>
      </trkpt>
      <trkpt lat="40.108217" lon="-5.476683">
        <ele>1707.0</ele>
        <time>2015-06-07T15:30:54Z</time>
      </trkpt>
      <trkpt lat="40.108133" lon="-5.476917">
        <ele>1702.0</ele>
        <time>2015-06-07T15:30:56Z</time>
      </trkpt>
      <trkpt lat="40.108050" lon="-5.477150">
        <ele>1696.0</ele>
        <time>2015-06-07T15:30:58Z</time>
      </trkpt>
      <trkpt lat="40.107967" lon="-5.477417">
        <ele>1691.0</ele>
        <time>2015-06-07T15:31:00Z</time>
      </trkpt>
      <trkpt lat="40.107883" lon="-5.477667">
        <ele>1687.0</ele>
        <time>2015-06-07T15:31:02Z</time>
      </trkpt>
      <trkpt lat="40.107817" lon="-5.477900">
        <ele>1682.0</ele>
        <time>2015-06-07T15:31:04Z</time>
      </trkpt>
      <trkpt lat="40.107733" lon="-5.478167">
        <ele>1676.0</ele>
        <time>2015-06-07T15:31:06Z</time>
      </trkpt>
      <trkpt lat="40.107667" lon="-5.478450">
        <ele>1673.0</ele>
        <time>2015-06-07T15:31:08Z</time>
      </trkpt>
      <trkpt lat="40.107600" lon="-5.478717">
        <ele>1670.0</ele>
        <time>2015-06-07T15:31:10Z</time>
      </trkpt>
      <trkpt lat="40.107533" lon="-5.478967">
        <ele>1663.0</ele>
        <time>2015-06-07T15:31:12Z</time>
      </trkpt>
      <trkpt lat="40.107433" lon="-5.479267">
        <ele>1657.0</ele>
        <time>2015-06-07T15:31:14Z</time>
      </trkpt>
      <trkpt lat="40.107367" lon="-5.479533">
        <ele>1654.0</ele>
        <time>2015-06-07T15:31:16Z</time>
      </trkpt>
      <trkpt lat="40.107283" lon="-5.479800">
        <ele>1648.0</ele>
        <time>2015-06-07T15:31:18Z</time>
      </trkpt>
      <trkpt lat="40.107183" lon="-5.480100">
        <ele>1641.0</ele>
        <time>2015-06-07T15:31:20Z</time>
      </trkpt>
      <trkpt lat="40.107100" lon="-5.480383">
        <ele>1638.0</ele>
        <time>2015-06-07T15:31:22Z</time>
      </trkpt>
      <trkpt lat="40.107017" lon="-5.480633">
        <ele>1634.0</ele>
        <time>2015-06-07T15:31:24Z</time>
      </trkpt>
      <trkpt lat="40.106917" lon="-5.480883">
        <ele>1628.0</ele>
        <time>2015-06-07T15:31:26Z</time>
      </trkpt>
      <trkpt lat="40.106817" lon="-5.481167">
        <ele>1624.0</ele>
        <time>2015-06-07T15:31:28Z</time>
      </trkpt>
      <trkpt lat="40.106733" lon="-5.481400">
        <ele>1621.0</ele>
        <time>2015-06-07T15:31:30Z</time>
      </trkpt>
      <trkpt lat="40.106633" lon="-5.481650">
        <ele>1612.0</ele>
        <time>2015-06-07T15:31:32Z</time>
      </trkpt>
      <trkpt lat="40.106517" lon="-5.481933">
        <ele>1605.0</ele>
        <time>2015-06-07T15:31:34Z</time>
      </trkpt>
      <trkpt lat="40.106400" lon="-5.482183">
        <ele>1600.0</ele>
        <time>2015-06-07T15:31:36Z</time>
      </trkpt>
      <trkpt lat="40.106283" lon="-5.482417">
        <ele>1595.0</ele>
        <time>2015-06-07T15:31:38Z</time>
      </trkpt>
      <trkpt lat="40.106183" lon="-5.482667">
        <ele>1587.0</ele>
        <time>2015-06-07T15:31:40Z</time>
      </trkpt>
      <trkpt lat="40.106083" lon="-5.482950">
        <ele>1579.0</ele>
        <time>2015-06-07T15:31:42Z</time>
      </trkpt>
      <trkpt lat="40.106000" lon="-5.483217">
        <ele>1574.0</ele>
        <time>2015-06-07T15:31:44Z</time>
      </trkpt>
      <trkpt lat="40.105900" lon="-5.483483">
        <ele>1567.0</ele>
        <time>2015-06-07T15:31:46Z</time>
      </trkpt>
      <trkpt lat="40.105800" lon="-5.483767">
        <ele>1561.0</ele>
        <time>2015-06-07T15:31:48Z</time>
      </trkpt>
      <trkpt lat="40.105717" lon="-5.484050">
        <ele>1556.0</ele>
        <time>2015-06-07T15:31:50Z</time>
      </trkpt>
      <trkpt lat="40.105633" lon="-5.484317">
        <ele>1549.0</ele>
        <time>2015-06-07T15:31:52Z</time>
      </trkpt>
      <trkpt lat="40.105533" lon="-5.484600">
        <ele>1543.0</ele>
        <time>2015-06-07T15:31:54Z</time>
      </trkpt>
      <trkpt lat="40.105433" lon="-5.484883">
        <ele>1538.0</ele>
        <time>2015-06-07T15:31:56Z</time>
      </trkpt>
      <trkpt lat="40.105333" lon="-5.485167">
        <ele>1532.0</ele>
        <time>2015-06-07T15:31:58Z</time>
      </trkpt>
      <trkpt lat="40.105217" lon="-5.485433">
        <ele>1526.0</ele>
        <time>2015-06-07T15:32:00Z</time>
      </trkpt>
      <trkpt lat="40.105100" lon="-5.485717">
        <ele>1521.0</ele>
        <time>2015-06-07T15:32:02Z</time>
      </trkpt>
      <trkpt lat="40.105000" lon="-5.485983">
        <ele>1515.0</ele>
        <time>2015-06-07T15:32:04Z</time>
      </trkpt>
      <trkpt lat="40.104883" lon="-5.486267">
        <ele>1509.0</ele>
        <time>2015-06-07T15:32:06Z</time>
      </trkpt>
      <trkpt lat="40.104783" lon="-5.486517">
        <ele>1504.0</ele>
        <time>2015-06-07T15:32:08Z</time>
      </trkpt>
      <trkpt lat="40.104683" lon="-5.486767">
        <ele>1498.0</ele>
        <time>2015-06-07T15:32:10Z</time>
      </trkpt>
      <trkpt lat="40.104600" lon="-5.487050">
        <ele>1491.0</ele>
        <time>2015-06-07T15:32:12Z</time>
      </trkpt>
      <trkpt lat="40.104517" lon="-5.487317">
        <ele>1484.0</ele>
        <time>2015-06-07T15:32:14Z</time>
      </trkpt>
      <trkpt lat="40.104417" lon="-5.487583">
        <ele>1478.0</ele>
        <time>2015-06-07T15:32:16Z</time>
      </trkpt>
      <trkpt lat="40.104317" lon="-5.487850">
        <ele>1471.0</ele>
        <time>2015-06-07T15:32:18Z</time>
      </trkpt>
      <trkpt lat="40.104200" lon="-5.488133">
        <ele>1465.0</ele>
        <time>2015-06-07T15:32:20Z</time>
      </trkpt>
      <trkpt lat="40.104100" lon="-5.488400">
        <ele>1460.0</ele>
        <time>2015-06-07T15:32:22Z</time>
      </trkpt>
      <trkpt lat="40.104017" lon="-5.488650">
        <ele>1453.0</ele>
        <time>2015-06-07T15:32:24Z</time>
      </trkpt>
      <trkpt lat="40.103900" lon="-5.488917">
        <ele>1446.0</ele>
        <time>2015-06-07T15:32:26Z</time>
      </trkpt>
      <trkpt lat="40.103783" lon="-5.489183">
        <ele>1439.0</ele>
        <time>2015-06-07T15:32:28Z</time>
      </trkpt>
      <trkpt lat="40.103667" lon="-5.489450">
        <ele>1432.0</ele>
        <time>2015-06-07T15:32:30Z</time>
      </trkpt>
      <trkpt lat="40.103550" lon="-5.489733">
        <ele>1425.0</ele>
        <time>2015-06-07T15:32:32Z</time>
      </trkpt>
      <trkpt lat="40.103417" lon="-5.490000">
        <ele>1418.0</ele>
        <time>2015-06-07T15:32:34Z</time>
      </trkpt>
      <trkpt lat="40.103300" lon="-5.490267">
        <ele>1411.0</ele>
        <time>2015-06-07T15:32:36Z</time>
      </trkpt>
      <trkpt lat="40.103167" lon="-5.490550">
        <ele>1405.0</ele>
        <time>2015-06-07T15:32:38Z</time>
      </trkpt>
      <trkpt lat="40.103050" lon="-5.490817">
        <ele>1399.0</ele>
        <time>2015-06-07T15:32:40Z</time>
      </trkpt>
      <trkpt lat="40.102917" lon="-5.491067">
        <ele>1392.0</ele>
        <time>2015-06-07T15:32:42Z</time>
      </trkpt>
      <trkpt lat="40.102783" lon="-5.491317">
        <ele>1386.0</ele>
        <time>2015-06-07T15:32:44Z</time>
      </trkpt>
      <trkpt lat="40.102650" lon="-5.491583">
        <ele>1379.0</ele>
        <time>2015-06-07T15:32:46Z</time>
      </trkpt>
      <trkpt lat="40.102500" lon="-5.491850">
        <ele>1374.0</ele>
        <time>2015-06-07T15:32:48Z</time>
      </trkpt>
      <trkpt lat="40.102367" lon="-5.492100">
        <ele>1369.0</ele>
        <time>2015-06-07T15:32:50Z</time>
      </trkpt>
      <trkpt lat="40.102233" lon="-5.492350">
        <ele>1364.0</ele>
        <time>2015-06-07T15:32:52Z</time>
      </trkpt>
      <trkpt lat="40.102100" lon="-5.492600">
        <ele>1359.0</ele>
        <time>2015-06-07T15:32:54Z</time>
      </trkpt>
      <trkpt lat="40.101967" lon="-5.492850">
        <ele>1353.0</ele>
        <time>2015-06-07T15:32:56Z</time>
      </trkpt>
      <trkpt lat="40.101833" lon="-5.493117">
        <ele>1348.0</ele>
        <time>2015-06-07T15:32:58Z</time>
      </trkpt>
      <trkpt lat="40.101700" lon="-5.493383">
        <ele>1344.0</ele>
        <time>2015-06-07T15:33:00Z</time>
      </trkpt>
      <trkpt lat="40.101583" lon="-5.493633">
        <ele>1339.0</ele>
        <time>2015-06-07T15:33:02Z</time>
      </trkpt>
      <trkpt lat="40.101467" lon="-5.493850">
        <ele>1334.0</ele>
        <time>2015-06-07T15:33:04Z</time>
      </trkpt>
      <trkpt lat="40.101333" lon="-5.494083">
        <ele>1327.0</ele>
        <time>2015-06-07T15:33:06Z</time>
      </trkpt>
      <trkpt lat="40.101200" lon="-5.494350">
        <ele>1320.0</ele>
        <time>2015-06-07T15:33:08Z</time>
      </trkpt>
      <trkpt lat="40.101083" lon="-5.494600">
        <ele>1315.0</ele>
        <time>2015-06-07T15:33:10Z</time>
      </trkpt>
      <trkpt lat="40.100967" lon="-5.494850">
        <ele>1309.0</ele>
        <time>2015-06-07T15:33:12Z</time>
      </trkpt>
      <trkpt lat="40.100850" lon="-5.495117">
        <ele>1302.0</ele>
        <time>2015-06-07T15:33:14Z</time>
      </trkpt>
      <trkpt lat="40.100733" lon="-5.495383">
        <ele>1297.0</ele>
        <time>2015-06-07T15:33:16Z</time>
      </trkpt>
      <trkpt lat="40.100617" lon="-5.495633">
        <ele>1292.0</ele>
        <time>2015-06-07T15:33:18Z</time>
      </trkpt>
      <trkpt lat="40.100500" lon="-5.495883">
        <ele>1287.0</ele>
        <time>2015-06-07T15:33:20Z</time>
      </trkpt>
      <trkpt lat="40.100367" lon="-5.496150">
        <ele>1282.0</ele>
        <time>2015-06-07T15:33:22Z</time>
      </trkpt>
      <trkpt lat="40.100250" lon="-5.496417">
        <ele>1278.0</ele>
        <time>2015-06-07T15:33:24Z</time>
      </trkpt>
      <trkpt lat="40.100117" lon="-5.496700">
        <ele>1275.0</ele>
        <time>2015-06-07T15:33:26Z</time>
      </trkpt>
      <trkpt lat="40.099983" lon="-5.496950">
        <ele>1272.0</ele>
        <time>2015-06-07T15:33:28Z</time>
      </trkpt>
      <trkpt lat="40.099867" lon="-5.497217">
        <ele>1270.0</ele>
        <time>2015-06-07T15:33:30Z</time>
      </trkpt>
      <trkpt lat="40.099750" lon="-5.497467">
        <ele>1267.0</ele>
        <time>2015-06-07T15:33:32Z</time>
      </trkpt>
      <trkpt lat="40.099633" lon="-5.497733">
        <ele>1265.0</ele>
        <time>2015-06-07T15:33:34Z</time>
      </trkpt>
      <trkpt lat="40.099517" lon="-5.497983">
        <ele>1261.0</ele>
        <time>2015-06-07T15:33:36Z</time>
      </trkpt>
      <trkpt lat="40.099383" lon="-5.498267">
        <ele>1258.0</ele>
        <time>2015-06-07T15:33:38Z</time>
      </trkpt>
      <trkpt lat="40.099250" lon="-5.498517">
        <ele>1257.0</ele>
        <time>2015-06-07T15:33:40Z</time>
      </trkpt>
      <trkpt lat="40.099150" lon="-5.498767">
        <ele>1256.0</ele>
        <time>2015-06-07T15:33:42Z</time>
      </trkpt>
      <trkpt lat="40.099050" lon="-5.499017">
        <ele>1254.0</ele>
        <time>2015-06-07T15:33:44Z</time>
      </trkpt>
      <trkpt lat="40.098950" lon="-5.499283">
        <ele>1251.0</ele>
        <time>2015-06-07T15:33:46Z</time>
      </trkpt>
      <trkpt lat="40.098867" lon="-5.499550">
        <ele>1249.0</ele>
        <time>2015-06-07T15:33:48Z</time>
      </trkpt>
      <trkpt lat="40.098750" lon="-5.499833">
        <ele>1245.0</ele>
        <time>2015-06-07T15:33:50Z</time>
      </trkpt>
      <trkpt lat="40.098633" lon="-5.500100">
        <ele>1244.0</ele>
        <time>2015-06-07T15:33:52Z</time>
      </trkpt>
      <trkpt lat="40.098483" lon="-5.500350">
        <ele>1242.0</ele>
        <time>2015-06-07T15:33:54Z</time>
      </trkpt>
      <trkpt lat="40.098350" lon="-5.500617">
        <ele>1239.0</ele>
        <time>2015-06-07T15:33:56Z</time>
      </trkpt>
      <trkpt lat="40.098200" lon="-5.500883">
        <ele>1237.0</ele>
        <time>2015-06-07T15:33:58Z</time>
      </trkpt>
      <trkpt lat="40.098050" lon="-5.501133">
        <ele>1235.0</ele>
        <time>2015-06-07T15:34:00Z</time>
      </trkpt>
      <trkpt lat="40.097917" lon="-5.501400">
        <ele>1232.0</ele>
        <time>2015-06-07T15:34:02Z</time>
      </trkpt>
      <trkpt lat="40.097767" lon="-5.501667">
        <ele>1230.0</ele>
        <time>2015-06-07T15:34:04Z</time>
      </trkpt>
      <trkpt lat="40.097633" lon="-5.501917">
        <ele>1228.0</ele>
        <time>2015-06-07T15:34:06Z</time>
      </trkpt>
      <trkpt lat="40.097500" lon="-5.502200">
        <ele>1226.0</ele>
        <time>2015-06-07T15:34:08Z</time>
      </trkpt>
      <trkpt lat="40.097367" lon="-5.502467">
        <ele>1224.0</ele>
        <time>2015-06-07T15:34:10Z</time>
      </trkpt>
      <trkpt lat="40.097217" lon="-5.502717">
        <ele>1223.0</ele>
        <time>2015-06-07T15:34:12Z</time>
      </trkpt>
      <trkpt lat="40.097083" lon="-5.502967">
        <ele>1222.0</ele>
        <time>2015-06-07T15:34:14Z</time>
      </trkpt>
      <trkpt lat="40.096950" lon="-5.503233">
        <ele>1222.0</ele>
        <time>2015-06-07T15:34:16Z</time>
      </trkpt>
      <trkpt lat="40.096817" lon="-5.503467">
        <ele>1221.0</ele>
        <time>2015-06-07T15:34:18Z</time>
      </trkpt>
      <trkpt lat="40.096683" lon="-5.503700">
        <ele>1220.0</ele>
        <time>2015-06-07T15:34:20Z</time>
      </trkpt>
      <trkpt lat="40.096567" lon="-5.503933">
        <ele>1218.0</ele>
        <time>2015-06-07T15:34:22Z</time>
      </trkpt>
      <trkpt lat="40.096450" lon="-5.504183">
        <ele>1213.0</ele>
        <time>2015-06-07T15:34:24Z</time>
      </trkpt>
      <trkpt lat="40.096333" lon="-5.504450">
        <ele>1208.0</ele>
        <time>2015-06-07T15:34:26Z</time>
      </trkpt>
      <trkpt lat="40.096200" lon="-5.504700">
        <ele>1206.0</ele>
        <time>2015-06-07T15:34:28Z</time>
      </trkpt>
      <trkpt lat="40.096100" lon="-5.504950">
        <ele>1203.0</ele>
        <time>2015-06-07T15:34:30Z</time>
      </trkpt>
      <trkpt lat="40.095983" lon="-5.505200">
        <ele>1199.0</ele>
        <time>2015-06-07T15:34:32Z</time>
      </trkpt>
      <trkpt lat="40.095867" lon="-5.505467">
        <ele>1197.0</ele>
        <time>2015-06-07T15:34:34Z</time>
      </trkpt>
      <trkpt lat="40.095750" lon="-5.505733">
        <ele>1194.0</ele>
        <time>2015-06-07T15:34:36Z</time>
      </trkpt>
      <trkpt lat="40.095633" lon="-5.505983">
        <ele>1191.0</ele>
        <time>2015-06-07T15:34:38Z</time>
      </trkpt>
      <trkpt lat="40.095483" lon="-5.506233">
        <ele>1188.0</ele>
        <time>2015-06-07T15:34:40Z</time>
      </trkpt>
      <trkpt lat="40.095333" lon="-5.506483">
        <ele>1185.0</ele>
        <time>2015-06-07T15:34:42Z</time>
      </trkpt>
      <trkpt lat="40.095200" lon="-5.506717">
        <ele>1183.0</ele>
        <time>2015-06-07T15:34:44Z</time>
      </trkpt>
      <trkpt lat="40.095083" lon="-5.506983">
        <ele>1182.0</ele>
        <time>2015-06-07T15:34:46Z</time>
      </trkpt>
      <trkpt lat="40.095000" lon="-5.507267">
        <ele>1179.0</ele>
        <time>2015-06-07T15:34:48Z</time>
      </trkpt>
      <trkpt lat="40.094933" lon="-5.507567">
        <ele>1174.0</ele>
        <time>2015-06-07T15:34:50Z</time>
      </trkpt>
      <trkpt lat="40.094850" lon="-5.507883">
        <ele>1171.0</ele>
        <time>2015-06-07T15:34:52Z</time>
      </trkpt>
      <trkpt lat="40.094783" lon="-5.508183">
        <ele>1168.0</ele>
        <time>2015-06-07T15:34:54Z</time>
      </trkpt>
      <trkpt lat="40.094700" lon="-5.508467">
        <ele>1163.0</ele>
        <time>2015-06-07T15:34:56Z</time>
      </trkpt>
      <trkpt lat="40.094600" lon="-5.508767">
        <ele>1158.0</ele>
        <time>2015-06-07T15:34:58Z</time>
      </trkpt>
      <trkpt lat="40.094517" lon="-5.509067">
        <ele>1153.0</ele>
        <time>2015-06-07T15:35:00Z</time>
      </trkpt>
      <trkpt lat="40.094417" lon="-5.509350">
        <ele>1148.0</ele>
        <time>2015-06-07T15:35:02Z</time>
      </trkpt>
      <trkpt lat="40.094317" lon="-5.509650">
        <ele>1142.0</ele>
        <time>2015-06-07T15:35:04Z</time>
      </trkpt>
      <trkpt lat="40.094200" lon="-5.509933">
        <ele>1136.0</ele>
        <time>2015-06-07T15:35:06Z</time>
      </trkpt>
      <trkpt lat="40.094100" lon="-5.510250">
        <ele>1131.0</ele>
        <time>2015-06-07T15:35:08Z</time>
      </trkpt>
      <trkpt lat="40.093983" lon="-5.510583">
        <ele>1126.0</ele>
        <time>2015-06-07T15:35:10Z</time>
      </trkpt>
      <trkpt lat="40.093883" lon="-5.510883">
        <ele>1121.0</ele>
        <time>2015-06-07T15:35:12Z</time>
      </trkpt>
      <trkpt lat="40.093767" lon="-5.511217">
        <ele>1115.0</ele>
        <time>2015-06-07T15:35:14Z</time>
      </trkpt>
      <trkpt lat="40.093650" lon="-5.511517">
        <ele>1110.0</ele>
        <time>2015-06-07T15:35:16Z</time>
      </trkpt>
      <trkpt lat="40.093533" lon="-5.511833">
        <ele>1104.0</ele>
        <time>2015-06-07T15:35:18Z</time>
      </trkpt>
      <trkpt lat="40.093400" lon="-5.512150">
        <ele>1098.0</ele>
        <time>2015-06-07T15:35:20Z</time>
      </trkpt>
      <trkpt lat="40.093283" lon="-5.512450">
        <ele>1095.0</ele>
        <time>2015-06-07T15:35:22Z</time>
      </trkpt>
      <trkpt lat="40.093150" lon="-5.512750">
        <ele>1093.0</ele>
        <time>2015-06-07T15:35:24Z</time>
      </trkpt>
      <trkpt lat="40.093033" lon="-5.513000">
        <ele>1087.0</ele>
        <time>2015-06-07T15:35:26Z</time>
      </trkpt>
      <trkpt lat="40.092867" lon="-5.513300">
        <ele>1080.0</ele>
        <time>2015-06-07T15:35:28Z</time>
      </trkpt>
      <trkpt lat="40.092717" lon="-5.513600">
        <ele>1079.0</ele>
        <time>2015-06-07T15:35:30Z</time>
      </trkpt>
      <trkpt lat="40.092583" lon="-5.513833">
        <ele>1077.0</ele>
        <time>2015-06-07T15:35:32Z</time>
      </trkpt>
      <trkpt lat="40.092450" lon="-5.514100">
        <ele>1072.0</ele>
        <time>2015-06-07T15:35:34Z</time>
      </trkpt>
      <trkpt lat="40.092300" lon="-5.514383">
        <ele>1070.0</ele>
        <time>2015-06-07T15:35:36Z</time>
      </trkpt>
      <trkpt lat="40.092167" lon="-5.514650">
        <ele>1068.0</ele>
        <time>2015-06-07T15:35:38Z</time>
      </trkpt>
      <trkpt lat="40.092033" lon="-5.514900">
        <ele>1064.0</ele>
        <time>2015-06-07T15:35:40Z</time>
      </trkpt>
      <trkpt lat="40.091900" lon="-5.515183">
        <ele>1060.0</ele>
        <time>2015-06-07T15:35:42Z</time>
      </trkpt>
      <trkpt lat="40.091767" lon="-5.515450">
        <ele>1056.0</ele>
        <time>2015-06-07T15:35:44Z</time>
      </trkpt>
      <trkpt lat="40.091650" lon="-5.515733">
        <ele>1052.0</ele>
        <time>2015-06-07T15:35:46Z</time>
      </trkpt>
      <trkpt lat="40.091517" lon="-5.516033">
        <ele>1049.0</ele>
        <time>2015-06-07T15:35:48Z</time>
      </trkpt>
      <trkpt lat="40.091433" lon="-5.516317">
        <ele>1047.0</ele>
        <time>2015-06-07T15:35:50Z</time>
      </trkpt>
      <trkpt lat="40.091350" lon="-5.516600">
        <ele>1043.0</ele>
        <time>2015-06-07T15:35:52Z</time>
      </trkpt>
      <trkpt lat="40.091233" lon="-5.516933">
        <ele>1040.0</ele>
        <time>2015-06-07T15:35:54Z</time>
      </trkpt>
      <trkpt lat="40.091100" lon="-5.517167">
        <ele>1040.0</ele>
        <time>2015-06-07T15:35:56Z</time>
      </trkpt>
      <trkpt lat="40.090950" lon="-5.517383">
        <ele>1038.0</ele>
        <time>2015-06-07T15:35:58Z</time>
      </trkpt>
      <trkpt lat="40.090767" lon="-5.517600">
        <ele>1033.0</ele>
        <time>2015-06-07T15:36:00Z</time>
      </trkpt>
      <trkpt lat="40.090583" lon="-5.517833">
        <ele>1032.0</ele>
        <time>2015-06-07T15:36:02Z</time>
      </trkpt>
      <trkpt lat="40.090450" lon="-5.518067">
        <ele>1031.0</ele>
        <time>2015-06-07T15:36:04Z</time>
      </trkpt>
      <trkpt lat="40.090317" lon="-5.518333">
        <ele>1027.0</ele>
        <time>2015-06-07T15:36:06Z</time>
      </trkpt>
      <trkpt lat="40.090183" lon="-5.518633">
        <ele>1022.0</ele>
        <time>2015-06-07T15:36:08Z</time>
      </trkpt>
      <trkpt lat="40.090067" lon="-5.518917">
        <ele>1019.0</ele>
        <time>2015-06-07T15:36:10Z</time>
      </trkpt>
      <trkpt lat="40.089933" lon="-5.519183">
        <ele>1016.0</ele>
        <time>2015-06-07T15:36:12Z</time>
      </trkpt>
      <trkpt lat="40.089800" lon="-5.519450">
        <ele>1013.0</ele>
        <time>2015-06-07T15:36:14Z</time>
      </trkpt>
      <trkpt lat="40.089667" lon="-5.519700">
        <ele>1007.0</ele>
        <time>2015-06-07T15:36:16Z</time>
      </trkpt>
      <trkpt lat="40.089517" lon="-5.519983">
        <ele>1002.0</ele>
        <time>2015-06-07T15:36:18Z</time>
      </trkpt>
      <trkpt lat="40.089367" lon="-5.520233">
        <ele>999.0</ele>
        <time>2015-06-07T15:36:20Z</time>
      </trkpt>
      <trkpt lat="40.089217" lon="-5.520500">
        <ele>995.0</ele>
        <time>2015-06-07T15:36:22Z</time>
      </trkpt>
      <trkpt lat="40.089067" lon="-5.520767">
        <ele>992.0</ele>
        <time>2015-06-07T15:36:24Z</time>
      </trkpt>
      <trkpt lat="40.088917" lon="-5.521000">
        <ele>991.0</ele>
        <time>2015-06-07T15:36:26Z</time>
      </trkpt>
      <trkpt lat="40.088783" lon="-5.521233">
        <ele>988.0</ele>
        <time>2015-06-07T15:36:28Z</time>
      </trkpt>
      <trkpt lat="40.088633" lon="-5.521500">
        <ele>983.0</ele>
        <time>2015-06-07T15:36:30Z</time>
      </trkpt>
      <trkpt lat="40.088483" lon="-5.521767">
        <ele>981.0</ele>
        <time>2015-06-07T15:36:32Z</time>
      </trkpt>
      <trkpt lat="40.088367" lon="-5.522000">
        <ele>979.0</ele>
        <time>2015-06-07T15:36:34Z</time>
      </trkpt>
      <trkpt lat="40.088217" lon="-5.522250">
        <ele>974.0</ele>
        <time>2015-06-07T15:36:36Z</time>
      </trkpt>
      <trkpt lat="40.088083" lon="-5.522533">
        <ele>972.0</ele>
        <time>2015-06-07T15:36:38Z</time>
      </trkpt>
      <trkpt lat="40.087950" lon="-5.522800">
        <ele>971.0</ele>
        <time>2015-06-07T15:36:40Z</time>
      </trkpt>
      <trkpt lat="40.087817" lon="-5.523067">
        <ele>970.0</ele>
        <time>2015-06-07T15:36:42Z</time>
      </trkpt>
      <trkpt lat="40.087667" lon="-5.523333">
        <ele>969.0</ele>
        <time>2015-06-07T15:36:44Z</time>
      </trkpt>
      <trkpt lat="40.087517" lon="-5.523567">
        <ele>969.0</ele>
        <time>2015-06-07T15:36:46Z</time>
      </trkpt>
      <trkpt lat="40.087367" lon="-5.523817">
        <ele>968.0</ele>
        <time>2015-06-07T15:36:48Z</time>
      </trkpt>
      <trkpt lat="40.087217" lon="-5.524050">
        <ele>968.0</ele>
        <time>2015-06-07T15:36:50Z</time>
      </trkpt>
      <trkpt lat="40.087067" lon="-5.524283">
        <ele>967.0</ele>
        <time>2015-06-07T15:36:52Z</time>
      </trkpt>
      <trkpt lat="40.086933" lon="-5.524533">
        <ele>966.0</ele>
        <time>2015-06-07T15:36:54Z</time>
      </trkpt>
      <trkpt lat="40.086800" lon="-5.524800">
        <ele>964.0</ele>
        <time>2015-06-07T15:36:56Z</time>
      </trkpt>
      <trkpt lat="40.086667" lon="-5.525033">
        <ele>963.0</ele>
        <time>2015-06-07T15:36:58Z</time>
      </trkpt>
      <trkpt lat="40.086533" lon="-5.525300">
        <ele>961.0</ele>
        <time>2015-06-07T15:37:00Z</time>
      </trkpt>
      <trkpt lat="40.086383" lon="-5.525550">
        <ele>959.0</ele>
        <time>2015-06-07T15:37:02Z</time>
      </trkpt>
      <trkpt lat="40.086250" lon="-5.525800">
        <ele>960.0</ele>
        <time>2015-06-07T15:37:04Z</time>
      </trkpt>
      <trkpt lat="40.086117" lon="-5.526067">
        <ele>962.0</ele>
        <time>2015-06-07T15:37:06Z</time>
      </trkpt>
      <trkpt lat="40.086033" lon="-5.526283">
        <ele>967.0</ele>
        <time>2015-06-07T15:37:08Z</time>
      </trkpt>
      <trkpt lat="40.086017" lon="-5.526533">
        <ele>971.0</ele>
        <time>2015-06-07T15:37:10Z</time>
      </trkpt>
      <trkpt lat="40.086067" lon="-5.526733">
        <ele>976.0</ele>
        <time>2015-06-07T15:37:12Z</time>
      </trkpt>
      <trkpt lat="40.086167" lon="-5.526867">
        <ele>979.0</ele>
        <time>2015-06-07T15:37:14Z</time>
      </trkpt>
      <trkpt lat="40.086283" lon="-5.526900">
        <ele>980.0</ele>
        <time>2015-06-07T15:37:16Z</time>
      </trkpt>
      <trkpt lat="40.086383" lon="-5.526783">
        <ele>982.0</ele>
        <time>2015-06-07T15:37:18Z</time>
      </trkpt>
      <trkpt lat="40.086350" lon="-5.526633">
        <ele>983.0</ele>
        <time>2015-06-07T15:37:20Z</time>
      </trkpt>
      <trkpt lat="40.086217" lon="-5.526567">
        <ele>985.0</ele>
        <time>2015-06-07T15:37:22Z</time>
      </trkpt>
      <trkpt lat="40.086067" lon="-5.526550">
        <ele>987.0</ele>
        <time>2015-06-07T15:37:24Z</time>
      </trkpt>
      <trkpt lat="40.085883" lon="-5.526633">
        <ele>987.0</ele>
        <time>2015-06-07T15:37:26Z</time>
      </trkpt>
      <trkpt lat="40.085683" lon="-5.526783">
        <ele>991.0</ele>
        <time>2015-06-07T15:37:28Z</time>
      </trkpt>
      <trkpt lat="40.085550" lon="-5.526950">
        <ele>1001.0</ele>
        <time>2015-06-07T15:37:30Z</time>
      </trkpt>
      <trkpt lat="40.085467" lon="-5.527117">
        <ele>1006.0</ele>
        <time>2015-06-07T15:37:32Z</time>
      </trkpt>
      <trkpt lat="40.085450" lon="-5.527333">
        <ele>1009.0</ele>
        <time>2015-06-07T15:37:34Z</time>
      </trkpt>
      <trkpt lat="40.085533" lon="-5.527483">
        <ele>1014.0</ele>
        <time>2015-06-07T15:37:36Z</time>
      </trkpt>
      <trkpt lat="40.085633" lon="-5.527533">
        <ele>1019.0</ele>
        <time>2015-06-07T15:37:38Z</time>
      </trkpt>
      <trkpt lat="40.085733" lon="-5.527483">
        <ele>1023.0</ele>
        <time>2015-06-07T15:37:40Z</time>
      </trkpt>
      <trkpt lat="40.085783" lon="-5.527367">
        <ele>1026.0</ele>
        <time>2015-06-07T15:37:42Z</time>
      </trkpt>
      <trkpt lat="40.085733" lon="-5.527217">
        <ele>1028.0</ele>
        <time>2015-06-07T15:37:44Z</time>
      </trkpt>
      <trkpt lat="40.085617" lon="-5.527117">
        <ele>1030.0</ele>
        <time>2015-06-07T15:37:46Z</time>
      </trkpt>
      <trkpt lat="40.085450" lon="-5.527083">
        <ele>1033.0</ele>
        <time>2015-06-07T15:37:48Z</time>
      </trkpt>
      <trkpt lat="40.085267" lon="-5.527100">
        <ele>1037.0</ele>
        <time>2015-06-07T15:37:50Z</time>
      </trkpt>
      <trkpt lat="40.085083" lon="-5.527200">
        <ele>1037.0</ele>
        <time>2015-06-07T15:37:52Z</time>
      </trkpt>
      <trkpt lat="40.084900" lon="-5.527417">
        <ele>1037.0</ele>
        <time>2015-06-07T15:37:54Z</time>
      </trkpt>
      <trkpt lat="40.084783" lon="-5.527700">
        <ele>1043.0</ele>
        <time>2015-06-07T15:37:56Z</time>
      </trkpt>
      <trkpt lat="40.084750" lon="-5.527917">
        <ele>1050.0</ele>
        <time>2015-06-07T15:37:58Z</time>
      </trkpt>
      <trkpt lat="40.084767" lon="-5.528067">
        <ele>1052.0</ele>
        <time>2015-06-07T15:38:00Z</time>
      </trkpt>
      <trkpt lat="40.084867" lon="-5.528150">
        <ele>1053.0</ele>
        <time>2015-06-07T15:38:02Z</time>
      </trkpt>
      <trkpt lat="40.084983" lon="-5.528067">
        <ele>1056.0</ele>
        <time>2015-06-07T15:38:04Z</time>
      </trkpt>
      <trkpt lat="40.085017" lon="-5.527933">
        <ele>1062.0</ele>
        <time>2015-06-07T15:38:06Z</time>
      </trkpt>
      <trkpt lat="40.084983" lon="-5.527733">
        <ele>1068.0</ele>
        <time>2015-06-07T15:38:08Z</time>
      </trkpt>
      <trkpt lat="40.084833" lon="-5.527567">
        <ele>1075.0</ele>
        <time>2015-06-07T15:38:10Z</time>
      </trkpt>
      <trkpt lat="40.084650" lon="-5.527567">
        <ele>1080.0</ele>
        <time>2015-06-07T15:38:12Z</time>
      </trkpt>
      <trkpt lat="40.084483" lon="-5.527600">
        <ele>1080.0</ele>
        <time>2015-06-07T15:38:14Z</time>
      </trkpt>
      <trkpt lat="40.084267" lon="-5.527717">
        <ele>1078.0</ele>
        <time>2015-06-07T15:38:16Z</time>
      </trkpt>
      <trkpt lat="40.084133" lon="-5.527983">
        <ele>1077.0</ele>
        <time>2015-06-07T15:38:18Z</time>
      </trkpt>
      <trkpt lat="40.084083" lon="-5.528300">
        <ele>1079.0</ele>
        <time>2015-06-07T15:38:20Z</time>
      </trkpt>
      <trkpt lat="40.084100" lon="-5.528550">
        <ele>1085.0</ele>
        <time>2015-06-07T15:38:22Z</time>
      </trkpt>
      <trkpt lat="40.084150" lon="-5.528733">
        <ele>1087.0</ele>
        <time>2015-06-07T15:38:24Z</time>
      </trkpt>
      <trkpt lat="40.084233" lon="-5.528817">
        <ele>1088.0</ele>
        <time>2015-06-07T15:38:26Z</time>
      </trkpt>
      <trkpt lat="40.084333" lon="-5.528733">
        <ele>1091.0</ele>
        <time>2015-06-07T15:38:28Z</time>
      </trkpt>
      <trkpt lat="40.084367" lon="-5.528567">
        <ele>1098.0</ele>
        <time>2015-06-07T15:38:30Z</time>
      </trkpt>
      <trkpt lat="40.084300" lon="-5.528400">
        <ele>1103.0</ele>
        <time>2015-06-07T15:38:32Z</time>
      </trkpt>
      <trkpt lat="40.084150" lon="-5.528283">
        <ele>1106.0</ele>
        <time>2015-06-07T15:38:34Z</time>
      </trkpt>
      <trkpt lat="40.083950" lon="-5.528283">
        <ele>1108.0</ele>
        <time>2015-06-07T15:38:36Z</time>
      </trkpt>
      <trkpt lat="40.083767" lon="-5.528350">
        <ele>1107.0</ele>
        <time>2015-06-07T15:38:38Z</time>
      </trkpt>
      <trkpt lat="40.083567" lon="-5.528500">
        <ele>1104.0</ele>
        <time>2015-06-07T15:38:40Z</time>
      </trkpt>
      <trkpt lat="40.083350" lon="-5.528750">
        <ele>1104.0</ele>
        <time>2015-06-07T15:38:42Z</time>
      </trkpt>
      <trkpt lat="40.083167" lon="-5.529000">
        <ele>1110.0</ele>
        <time>2015-06-07T15:38:44Z</time>
      </trkpt>
      <trkpt lat="40.083017" lon="-5.529267">
        <ele>1112.0</ele>
        <time>2015-06-07T15:38:46Z</time>
      </trkpt>
      <trkpt lat="40.082933" lon="-5.529583">
        <ele>1109.0</ele>
        <time>2015-06-07T15:38:48Z</time>
      </trkpt>
      <trkpt lat="40.082933" lon="-5.529950">
        <ele>1111.0</ele>
        <time>2015-06-07T15:38:50Z</time>
      </trkpt>
      <trkpt lat="40.083000" lon="-5.530200">
        <ele>1114.0</ele>
        <time>2015-06-07T15:38:52Z</time>
      </trkpt>
      <trkpt lat="40.083117" lon="-5.530333">
        <ele>1115.0</ele>
        <time>2015-06-07T15:38:54Z</time>
      </trkpt>
      <trkpt lat="40.083233" lon="-5.530300">
        <ele>1116.0</ele>
        <time>2015-06-07T15:38:56Z</time>
      </trkpt>
      <trkpt lat="40.083250" lon="-5.530167">
        <ele>1123.0</ele>
        <time>2015-06-07T15:38:58Z</time>
      </trkpt>
      <trkpt lat="40.083167" lon="-5.530067">
        <ele>1129.0</ele>
        <time>2015-06-07T15:39:00Z</time>
      </trkpt>
      <trkpt lat="40.083033" lon="-5.530000">
        <ele>1130.0</ele>
        <time>2015-06-07T15:39:02Z</time>
      </trkpt>
      <trkpt lat="40.082817" lon="-5.529933">
        <ele>1130.0</ele>
        <time>2015-06-07T15:39:04Z</time>
      </trkpt>
      <trkpt lat="40.082567" lon="-5.530017">
        <ele>1133.0</ele>
        <time>2015-06-07T15:39:06Z</time>
      </trkpt>
      <trkpt lat="40.082367" lon="-5.530217">
        <ele>1138.0</ele>
        <time>2015-06-07T15:39:08Z</time>
      </trkpt>
      <trkpt lat="40.082200" lon="-5.530417">
        <ele>1138.0</ele>
        <time>2015-06-07T15:39:10Z</time>
      </trkpt>
      <trkpt lat="40.082083" lon="-5.530717">
        <ele>1132.0</ele>
        <time>2015-06-07T15:39:12Z</time>
      </trkpt>
      <trkpt lat="40.082017" lon="-5.531083">
        <ele>1128.0</ele>
        <time>2015-06-07T15:39:14Z</time>
      </trkpt>
      <trkpt lat="40.082033" lon="-5.531417">
        <ele>1125.0</ele>
        <time>2015-06-07T15:39:16Z</time>
      </trkpt>
      <trkpt lat="40.082150" lon="-5.531700">
        <ele>1123.0</ele>
        <time>2015-06-07T15:39:18Z</time>
      </trkpt>
      <trkpt lat="40.082283" lon="-5.531850">
        <ele>1124.0</ele>
        <time>2015-06-07T15:39:20Z</time>
      </trkpt>
      <trkpt lat="40.082400" lon="-5.531900">
        <ele>1125.0</ele>
        <time>2015-06-07T15:39:22Z</time>
      </trkpt>
      <trkpt lat="40.082483" lon="-5.531817">
        <ele>1124.0</ele>
        <time>2015-06-07T15:39:24Z</time>
      </trkpt>
      <trkpt lat="40.082500" lon="-5.531700">
        <ele>1126.0</ele>
        <time>2015-06-07T15:39:26Z</time>
      </trkpt>
      <trkpt lat="40.082383" lon="-5.531600">
        <ele>1130.0</ele>
        <time>2015-06-07T15:39:28Z</time>
      </trkpt>
      <trkpt lat="40.082150" lon="-5.531633">
        <ele>1133.0</ele>
        <time>2015-06-07T15:39:30Z</time>
      </trkpt>
      <trkpt lat="40.081983" lon="-5.531783">
        <ele>1140.0</ele>
        <time>2015-06-07T15:39:32Z</time>
      </trkpt>
      <trkpt lat="40.081817" lon="-5.531967">
        <ele>1142.0</ele>
        <time>2015-06-07T15:39:34Z</time>
      </trkpt>
      <trkpt lat="40.081650" lon="-5.532233">
        <ele>1140.0</ele>
        <time>2015-06-07T15:39:36Z</time>
      </trkpt>
      <trkpt lat="40.081567" lon="-5.532617">
        <ele>1138.0</ele>
        <time>2015-06-07T15:39:38Z</time>
      </trkpt>
      <trkpt lat="40.081567" lon="-5.532967">
        <ele>1138.0</ele>
        <time>2015-06-07T15:39:40Z</time>
      </trkpt>
      <trkpt lat="40.081600" lon="-5.533267">
        <ele>1137.0</ele>
        <time>2015-06-07T15:39:42Z</time>
      </trkpt>
      <trkpt lat="40.081683" lon="-5.533500">
        <ele>1134.0</ele>
        <time>2015-06-07T15:39:44Z</time>
      </trkpt>
      <trkpt lat="40.081817" lon="-5.533633">
        <ele>1128.0</ele>
        <time>2015-06-07T15:39:46Z</time>
      </trkpt>
      <trkpt lat="40.081967" lon="-5.533633">
        <ele>1125.0</ele>
        <time>2015-06-07T15:39:48Z</time>
      </trkpt>
      <trkpt lat="40.082033" lon="-5.533533">
        <ele>1123.0</ele>
        <time>2015-06-07T15:39:50Z</time>
      </trkpt>
      <trkpt lat="40.082050" lon="-5.533383">
        <ele>1120.0</ele>
        <time>2015-06-07T15:39:52Z</time>
      </trkpt>
      <trkpt lat="40.081983" lon="-5.533200">
        <ele>1119.0</ele>
        <time>2015-06-07T15:39:54Z</time>
      </trkpt>
      <trkpt lat="40.081817" lon="-5.533133">
        <ele>1122.0</ele>
        <time>2015-06-07T15:39:56Z</time>
      </trkpt>
      <trkpt lat="40.081650" lon="-5.533150">
        <ele>1128.0</ele>
        <time>2015-06-07T15:39:58Z</time>
      </trkpt>
      <trkpt lat="40.081483" lon="-5.533183">
        <ele>1130.0</ele>
        <time>2015-06-07T15:40:00Z</time>
      </trkpt>
      <trkpt lat="40.081267" lon="-5.533300">
        <ele>1131.0</ele>
        <time>2015-06-07T15:40:02Z</time>
      </trkpt>
      <trkpt lat="40.081083" lon="-5.533550">
        <ele>1133.0</ele>
        <time>2015-06-07T15:40:04Z</time>
      </trkpt>
      <trkpt lat="40.080983" lon="-5.533800">
        <ele>1132.0</ele>
        <time>2015-06-07T15:40:06Z</time>
      </trkpt>
      <trkpt lat="40.080900" lon="-5.534067">
        <ele>1126.0</ele>
        <time>2015-06-07T15:40:08Z</time>
      </trkpt>
      <trkpt lat="40.080767" lon="-5.534367">
        <ele>1121.0</ele>
        <time>2015-06-07T15:40:10Z</time>
      </trkpt>
      <trkpt lat="40.080650" lon="-5.534650">
        <ele>1120.0</ele>
        <time>2015-06-07T15:40:12Z</time>
      </trkpt>
      <trkpt lat="40.080533" lon="-5.534883">
        <ele>1117.0</ele>
        <time>2015-06-07T15:40:14Z</time>
      </trkpt>
      <trkpt lat="40.080400" lon="-5.535167">
        <ele>1111.0</ele>
        <time>2015-06-07T15:40:16Z</time>
      </trkpt>
      <trkpt lat="40.080250" lon="-5.535450">
        <ele>1108.0</ele>
        <time>2015-06-07T15:40:18Z</time>
      </trkpt>
      <trkpt lat="40.080133" lon="-5.535700">
        <ele>1105.0</ele>
        <time>2015-06-07T15:40:20Z</time>
      </trkpt>
      <trkpt lat="40.080017" lon="-5.535983">
        <ele>1101.0</ele>
        <time>2015-06-07T15:40:22Z</time>
      </trkpt>
      <trkpt lat="40.079900" lon="-5.536250">
        <ele>1098.0</ele>
        <time>2015-06-07T15:40:24Z</time>
      </trkpt>
      <trkpt lat="40.079783" lon="-5.536517">
        <ele>1096.0</ele>
        <time>2015-06-07T15:40:26Z</time>
      </trkpt>
      <trkpt lat="40.079667" lon="-5.536783">
        <ele>1092.0</ele>
        <time>2015-06-07T15:40:28Z</time>
      </trkpt>
      <trkpt lat="40.079550" lon="-5.537050">
        <ele>1090.0</ele>
        <time>2015-06-07T15:40:30Z</time>
      </trkpt>
      <trkpt lat="40.079433" lon="-5.537317">
        <ele>1088.0</ele>
        <time>2015-06-07T15:40:32Z</time>
      </trkpt>
      <trkpt lat="40.079317" lon="-5.537600">
        <ele>1086.0</ele>
        <time>2015-06-07T15:40:34Z</time>
      </trkpt>
      <trkpt lat="40.079200" lon="-5.537883">
        <ele>1082.0</ele>
        <time>2015-06-07T15:40:36Z</time>
      </trkpt>
      <trkpt lat="40.079083" lon="-5.538167">
        <ele>1080.0</ele>
        <time>2015-06-07T15:40:38Z</time>
      </trkpt>
      <trkpt lat="40.078967" lon="-5.538417">
        <ele>1078.0</ele>
        <time>2015-06-07T15:40:40Z</time>
      </trkpt>
      <trkpt lat="40.078833" lon="-5.538667">
        <ele>1075.0</ele>
        <time>2015-06-07T15:40:42Z</time>
      </trkpt>
      <trkpt lat="40.078683" lon="-5.538933">
        <ele>1073.0</ele>
        <time>2015-06-07T15:40:44Z</time>
      </trkpt>
      <trkpt lat="40.078550" lon="-5.539183">
        <ele>1071.0</ele>
        <time>2015-06-07T15:40:46Z</time>
      </trkpt>
      <trkpt lat="40.078417" lon="-5.539433">
        <ele>1070.0</ele>
        <time>2015-06-07T15:40:48Z</time>
      </trkpt>
      <trkpt lat="40.078267" lon="-5.539683">
        <ele>1068.0</ele>
        <time>2015-06-07T15:40:50Z</time>
      </trkpt>
      <trkpt lat="40.078117" lon="-5.539917">
        <ele>1067.0</ele>
        <time>2015-06-07T15:40:52Z</time>
      </trkpt>
      <trkpt lat="40.077967" lon="-5.540150">
        <ele>1066.0</ele>
        <time>2015-06-07T15:40:54Z</time>
      </trkpt>
      <trkpt lat="40.077833" lon="-5.540383">
        <ele>1064.0</ele>
        <time>2015-06-07T15:40:56Z</time>
      </trkpt>
      <trkpt lat="40.077717" lon="-5.540600">
        <ele>1062.0</ele>
        <time>2015-06-07T15:40:58Z</time>
      </trkpt>
      <trkpt lat="40.077600" lon="-5.540817">
        <ele>1058.0</ele>
        <time>2015-06-07T15:41:00Z</time>
      </trkpt>
      <trkpt lat="40.077467" lon="-5.541033">
        <ele>1053.0</ele>
        <time>2015-06-07T15:41:02Z</time>
      </trkpt>
      <trkpt lat="40.077350" lon="-5.541250">
        <ele>1050.0</ele>
        <time>2015-06-07T15:41:04Z</time>
      </trkpt>
      <trkpt lat="40.077233" lon="-5.541467">
        <ele>1047.0</ele>
        <time>2015-06-07T15:41:06Z</time>
      </trkpt>
      <trkpt lat="40.077117" lon="-5.541683">
        <ele>1043.0</ele>
        <time>2015-06-07T15:41:08Z</time>
      </trkpt>
      <trkpt lat="40.077000" lon="-5.541900">
        <ele>1039.0</ele>
        <time>2015-06-07T15:41:10Z</time>
      </trkpt>
      <trkpt lat="40.076900" lon="-5.542100">
        <ele>1035.0</ele>
        <time>2015-06-07T15:41:12Z</time>
      </trkpt>
      <trkpt lat="40.076817" lon="-5.542333">
        <ele>1030.0</ele>
        <time>2015-06-07T15:41:14Z</time>
      </trkpt>
      <trkpt lat="40.076717" lon="-5.542567">
        <ele>1026.0</ele>
        <time>2015-06-07T15:41:16Z</time>
      </trkpt>
      <trkpt lat="40.076617" lon="-5.542800">
        <ele>1023.0</ele>
        <time>2015-06-07T15:41:18Z</time>
      </trkpt>
      <trkpt lat="40.076483" lon="-5.542983">
        <ele>1019.0</ele>
        <time>2015-06-07T15:41:20Z</time>
      </trkpt>
      <trkpt lat="40.076333" lon="-5.543167">
        <ele>1015.0</ele>
        <time>2015-06-07T15:41:22Z</time>
      </trkpt>
      <trkpt lat="40.076183" lon="-5.543367">
        <ele>1013.0</ele>
        <time>2015-06-07T15:41:24Z</time>
      </trkpt>
      <trkpt lat="40.076050" lon="-5.543567">
        <ele>1012.0</ele>
        <time>2015-06-07T15:41:26Z</time>
      </trkpt>
      <trkpt lat="40.075933" lon="-5.543750">
        <ele>1010.0</ele>
        <time>2015-06-07T15:41:28Z</time>
      </trkpt>
      <trkpt lat="40.075800" lon="-5.543950">
        <ele>1008.0</ele>
        <time>2015-06-07T15:41:30Z</time>
      </trkpt>
      <trkpt lat="40.075667" lon="-5.544133">
        <ele>1005.0</ele>
        <time>2015-06-07T15:41:32Z</time>
      </trkpt>
      <trkpt lat="40.075533" lon="-5.544333">
        <ele>1002.0</ele>
        <time>2015-06-07T15:41:34Z</time>
      </trkpt>
      <trkpt lat="40.075383" lon="-5.544533">
        <ele>998.0</ele>
        <time>2015-06-07T15:41:36Z</time>
      </trkpt>
      <trkpt lat="40.075250" lon="-5.544750">
        <ele>994.0</ele>
        <time>2015-06-07T15:41:38Z</time>
      </trkpt>
      <trkpt lat="40.075117" lon="-5.544983">
        <ele>991.0</ele>
        <time>2015-06-07T15:41:40Z</time>
      </trkpt>
      <trkpt lat="40.074983" lon="-5.545217">
        <ele>989.0</ele>
        <time>2015-06-07T15:41:42Z</time>
      </trkpt>
      <trkpt lat="40.074867" lon="-5.545450">
        <ele>986.0</ele>
        <time>2015-06-07T15:41:44Z</time>
      </trkpt>
      <trkpt lat="40.074750" lon="-5.545683">
        <ele>981.0</ele>
        <time>2015-06-07T15:41:46Z</time>
      </trkpt>
      <trkpt lat="40.074617" lon="-5.545917">
        <ele>975.0</ele>
        <time>2015-06-07T15:41:48Z</time>
      </trkpt>
      <trkpt lat="40.074500" lon="-5.546183">
        <ele>969.0</ele>
        <time>2015-06-07T15:41:50Z</time>
      </trkpt>
      <trkpt lat="40.074367" lon="-5.546417">
        <ele>963.0</ele>
        <time>2015-06-07T15:41:52Z</time>
      </trkpt>
      <trkpt lat="40.074233" lon="-5.546633">
        <ele>957.0</ele>
        <time>2015-06-07T15:41:54Z</time>
      </trkpt>
      <trkpt lat="40.074100" lon="-5.546850">
        <ele>950.0</ele>
        <time>2015-06-07T15:41:56Z</time>
      </trkpt>
      <trkpt lat="40.073967" lon="-5.547050">
        <ele>944.0</ele>
        <time>2015-06-07T15:41:58Z</time>
      </trkpt>
      <trkpt lat="40.073817" lon="-5.547267">
        <ele>937.0</ele>
        <time>2015-06-07T15:42:00Z</time>
      </trkpt>
      <trkpt lat="40.073700" lon="-5.547483">
        <ele>930.0</ele>
        <time>2015-06-07T15:42:02Z</time>
      </trkpt>
      <trkpt lat="40.073567" lon="-5.547700">
        <ele>925.0</ele>
        <time>2015-06-07T15:42:04Z</time>
      </trkpt>
      <trkpt lat="40.073450" lon="-5.547917">
        <ele>919.0</ele>
        <time>2015-06-07T15:42:06Z</time>
      </trkpt>
      <trkpt lat="40.073350" lon="-5.548133">
        <ele>913.0</ele>
        <time>2015-06-07T15:42:08Z</time>
      </trkpt>
      <trkpt lat="40.073233" lon="-5.548350">
        <ele>907.0</ele>
        <time>2015-06-07T15:42:10Z</time>
      </trkpt>
      <trkpt lat="40.073100" lon="-5.548583">
        <ele>902.0</ele>
        <time>2015-06-07T15:42:12Z</time>
      </trkpt>
      <trkpt lat="40.072983" lon="-5.548800">
        <ele>897.0</ele>
        <time>2015-06-07T15:42:14Z</time>
      </trkpt>
      <trkpt lat="40.072867" lon="-5.549033">
        <ele>891.0</ele>
        <time>2015-06-07T15:42:16Z</time>
      </trkpt>
      <trkpt lat="40.072750" lon="-5.549250">
        <ele>886.0</ele>
        <time>2015-06-07T15:42:18Z</time>
      </trkpt>
      <trkpt lat="40.072633" lon="-5.549467">
        <ele>881.0</ele>
        <time>2015-06-07T15:42:20Z</time>
      </trkpt>
      <trkpt lat="40.072500" lon="-5.549700">
        <ele>876.0</ele>
        <time>2015-06-07T15:42:22Z</time>
      </trkpt>
      <trkpt lat="40.072383" lon="-5.549933">
        <ele>871.0</ele>
        <time>2015-06-07T15:42:24Z</time>
      </trkpt>
      <trkpt lat="40.072267" lon="-5.550167">
        <ele>867.0</ele>
        <time>2015-06-07T15:42:26Z</time>
      </trkpt>
      <trkpt lat="40.072150" lon="-5.550400">
        <ele>862.0</ele>
        <time>2015-06-07T15:42:28Z</time>
      </trkpt>
      <trkpt lat="40.072033" lon="-5.550650">
        <ele>858.0</ele>
        <time>2015-06-07T15:42:30Z</time>
      </trkpt>
      <trkpt lat="40.071917" lon="-5.550883">
        <ele>854.0</ele>
        <time>2015-06-07T15:42:32Z</time>
      </trkpt>
      <trkpt lat="40.071800" lon="-5.551117">
        <ele>849.0</ele>
        <time>2015-06-07T15:42:34Z</time>
      </trkpt>
      <trkpt lat="40.071700" lon="-5.551367">
        <ele>845.0</ele>
        <time>2015-06-07T15:42:36Z</time>
      </trkpt>
      <trkpt lat="40.071583" lon="-5.551600">
        <ele>841.0</ele>
        <time>2015-06-07T15:42:38Z</time>
      </trkpt>
      <trkpt lat="40.071450" lon="-5.551817">
        <ele>837.0</ele>
        <time>2015-06-07T15:42:40Z</time>
      </trkpt>
      <trkpt lat="40.071333" lon="-5.552033">
        <ele>833.0</ele>
        <time>2015-06-07T15:42:42Z</time>
      </trkpt>
      <trkpt lat="40.071200" lon="-5.552267">
        <ele>830.0</ele>
        <time>2015-06-07T15:42:44Z</time>
      </trkpt>
      <trkpt lat="40.071067" lon="-5.552483">
        <ele>827.0</ele>
        <time>2015-06-07T15:42:46Z</time>
      </trkpt>
      <trkpt lat="40.070933" lon="-5.552733">
        <ele>825.0</ele>
        <time>2015-06-07T15:42:48Z</time>
      </trkpt>
      <trkpt lat="40.070817" lon="-5.552950">
        <ele>823.0</ele>
        <time>2015-06-07T15:42:50Z</time>
      </trkpt>
      <trkpt lat="40.070717" lon="-5.553183">
        <ele>821.0</ele>
        <time>2015-06-07T15:42:52Z</time>
      </trkpt>
      <trkpt lat="40.070617" lon="-5.553400">
        <ele>819.0</ele>
        <time>2015-06-07T15:42:54Z</time>
      </trkpt>
      <trkpt lat="40.070500" lon="-5.553617">
        <ele>816.0</ele>
        <time>2015-06-07T15:42:56Z</time>
      </trkpt>
      <trkpt lat="40.070367" lon="-5.553850">
        <ele>815.0</ele>
        <time>2015-06-07T15:42:58Z</time>
      </trkpt>
      <trkpt lat="40.070233" lon="-5.554083">
        <ele>814.0</ele>
        <time>2015-06-07T15:43:00Z</time>
      </trkpt>
      <trkpt lat="40.070117" lon="-5.554300">
        <ele>813.0</ele>
        <time>2015-06-07T15:43:02Z</time>
      </trkpt>
      <trkpt lat="40.070000" lon="-5.554517">
        <ele>812.0</ele>
        <time>2015-06-07T15:43:04Z</time>
      </trkpt>
      <trkpt lat="40.069883" lon="-5.554750">
        <ele>811.0</ele>
        <time>2015-06-07T15:43:06Z</time>
      </trkpt>
      <trkpt lat="40.069783" lon="-5.555000">
        <ele>809.0</ele>
        <time>2015-06-07T15:43:08Z</time>
      </trkpt>
      <trkpt lat="40.069667" lon="-5.555233">
        <ele>808.0</ele>
        <time>2015-06-07T15:43:10Z</time>
      </trkpt>
      <trkpt lat="40.069517" lon="-5.555450">
        <ele>808.0</ele>
        <time>2015-06-07T15:43:12Z</time>
      </trkpt>
      <trkpt lat="40.069383" lon="-5.555667">
        <ele>807.0</ele>
        <time>2015-06-07T15:43:14Z</time>
      </trkpt>
      <trkpt lat="40.069267" lon="-5.555867">
        <ele>806.0</ele>
        <time>2015-06-07T15:43:16Z</time>
      </trkpt>
      <trkpt lat="40.069117" lon="-5.556017">
        <ele>802.0</ele>
        <time>2015-06-07T15:43:18Z</time>
      </trkpt>
      <trkpt lat="40.068967" lon="-5.556200">
        <ele>796.0</ele>
        <time>2015-06-07T15:43:20Z</time>
      </trkpt>
      <trkpt lat="40.068833" lon="-5.556400">
        <ele>793.0</ele>
        <time>2015-06-07T15:43:22Z</time>
      </trkpt>
      <trkpt lat="40.068733" lon="-5.556617">
        <ele>788.0</ele>
        <time>2015-06-07T15:43:24Z</time>
      </trkpt>
      <trkpt lat="40.068617" lon="-5.556850">
        <ele>783.0</ele>
        <time>2015-06-07T15:43:26Z</time>
      </trkpt>
      <trkpt lat="40.068517" lon="-5.557100">
        <ele>780.0</ele>
        <time>2015-06-07T15:43:28Z</time>
      </trkpt>
      <trkpt lat="40.068450" lon="-5.557333">
        <ele>776.0</ele>
        <time>2015-06-07T15:43:30Z</time>
      </trkpt>
      <trkpt lat="40.068367" lon="-5.557600">
        <ele>772.0</ele>
        <time>2015-06-07T15:43:32Z</time>
      </trkpt>
      <trkpt lat="40.068300" lon="-5.557850">
        <ele>768.0</ele>
        <time>2015-06-07T15:43:34Z</time>
      </trkpt>
      <trkpt lat="40.068233" lon="-5.558117">
        <ele>764.0</ele>
        <time>2015-06-07T15:43:36Z</time>
      </trkpt>
      <trkpt lat="40.068183" lon="-5.558367">
        <ele>759.0</ele>
        <time>2015-06-07T15:43:38Z</time>
      </trkpt>
      <trkpt lat="40.068117" lon="-5.558617">
        <ele>753.0</ele>
        <time>2015-06-07T15:43:40Z</time>
      </trkpt>
      <trkpt lat="40.068033" lon="-5.558900">
        <ele>747.0</ele>
        <time>2015-06-07T15:43:42Z</time>
      </trkpt>
      <trkpt lat="40.067967" lon="-5.559167">
        <ele>743.0</ele>
        <time>2015-06-07T15:43:44Z</time>
      </trkpt>
      <trkpt lat="40.067867" lon="-5.559433">
        <ele>739.0</ele>
        <time>2015-06-07T15:43:46Z</time>
      </trkpt>
      <trkpt lat="40.067767" lon="-5.559700">
        <ele>735.0</ele>
        <time>2015-06-07T15:43:48Z</time>
      </trkpt>
      <trkpt lat="40.067650" lon="-5.559933">
        <ele>730.0</ele>
        <time>2015-06-07T15:43:50Z</time>
      </trkpt>
      <trkpt lat="40.067550" lon="-5.560200">
        <ele>724.0</ele>
        <time>2015-06-07T15:43:52Z</time>
      </trkpt>
      <trkpt lat="40.067433" lon="-5.560467">
        <ele>718.0</ele>
        <time>2015-06-07T15:43:54Z</time>
      </trkpt>
      <trkpt lat="40.067317" lon="-5.560717">
        <ele>715.0</ele>
        <time>2015-06-07T15:43:56Z</time>
      </trkpt>
      <trkpt lat="40.067233" lon="-5.560967">
        <ele>710.0</ele>
        <time>2015-06-07T15:43:58Z</time>
      </trkpt>
      <trkpt lat="40.067150" lon="-5.561233">
        <ele>705.0</ele>
        <time>2015-06-07T15:44:00Z</time>
      </trkpt>
      <trkpt lat="40.067017" lon="-5.561467">
        <ele>702.0</ele>
        <time>2015-06-07T15:44:02Z</time>
      </trkpt>
      <trkpt lat="40.066867" lon="-5.561650">
        <ele>699.0</ele>
        <time>2015-06-07T15:44:04Z</time>
      </trkpt>
      <trkpt lat="40.066717" lon="-5.561867">
        <ele>696.0</ele>
        <time>2015-06-07T15:44:06Z</time>
      </trkpt>
      <trkpt lat="40.066550" lon="-5.562050">
        <ele>694.0</ele>
        <time>2015-06-07T15:44:08Z</time>
      </trkpt>
      <trkpt lat="40.066400" lon="-5.562233">
        <ele>689.0</ele>
        <time>2015-06-07T15:44:10Z</time>
      </trkpt>
      <trkpt lat="40.066217" lon="-5.562450">
        <ele>685.0</ele>
        <time>2015-06-07T15:44:12Z</time>
      </trkpt>
      <trkpt lat="40.066050" lon="-5.562633">
        <ele>682.0</ele>
        <time>2015-06-07T15:44:14Z</time>
      </trkpt>
      <trkpt lat="40.065867" lon="-5.562817">
        <ele>680.0</ele>
        <time>2015-06-07T15:44:16Z</time>
      </trkpt>
      <trkpt lat="40.065683" lon="-5.563000">
        <ele>678.0</ele>
        <time>2015-06-07T15:44:18Z</time>
      </trkpt>
      <trkpt lat="40.065517" lon="-5.563183">
        <ele>675.0</ele>
        <time>2015-06-07T15:44:20Z</time>
      </trkpt>
      <trkpt lat="40.065367" lon="-5.563400">
        <ele>673.0</ele>
        <time>2015-06-07T15:44:22Z</time>
      </trkpt>
      <trkpt lat="40.065267" lon="-5.563650">
        <ele>670.0</ele>
        <time>2015-06-07T15:44:24Z</time>
      </trkpt>
      <trkpt lat="40.065167" lon="-5.563900">
        <ele>667.0</ele>
        <time>2015-06-07T15:44:26Z</time>
      </trkpt>
      <trkpt lat="40.065050" lon="-5.564183">
        <ele>664.0</ele>
        <time>2015-06-07T15:44:28Z</time>
      </trkpt>
      <trkpt lat="40.064950" lon="-5.564433">
        <ele>665.0</ele>
        <time>2015-06-07T15:44:30Z</time>
      </trkpt>
      <trkpt lat="40.064850" lon="-5.564667">
        <ele>664.0</ele>
        <time>2015-06-07T15:44:32Z</time>
      </trkpt>
      <trkpt lat="40.064750" lon="-5.564933">
        <ele>661.0</ele>
        <time>2015-06-07T15:44:34Z</time>
      </trkpt>
      <trkpt lat="40.064650" lon="-5.565217">
        <ele>662.0</ele>
        <time>2015-06-07T15:44:36Z</time>
      </trkpt>
      <trkpt lat="40.064567" lon="-5.565467">
        <ele>665.0</ele>
        <time>2015-06-07T15:44:38Z</time>
      </trkpt>
      <trkpt lat="40.064533" lon="-5.565683">
        <ele>663.0</ele>
        <time>2015-06-07T15:44:40Z</time>
      </trkpt>
      <trkpt lat="40.064483" lon="-5.566000">
        <ele>660.0</ele>
        <time>2015-06-07T15:44:42Z</time>
      </trkpt>
      <trkpt lat="40.064400" lon="-5.566283">
        <ele>662.0</ele>
        <time>2015-06-07T15:44:44Z</time>
      </trkpt>
      <trkpt lat="40.064333" lon="-5.566500">
        <ele>662.0</ele>
        <time>2015-06-07T15:44:46Z</time>
      </trkpt>
      <trkpt lat="40.064233" lon="-5.566783">
        <ele>659.0</ele>
        <time>2015-06-07T15:44:48Z</time>
      </trkpt>
      <trkpt lat="40.064133" lon="-5.567067">
        <ele>660.0</ele>
        <time>2015-06-07T15:44:50Z</time>
      </trkpt>
      <trkpt lat="40.064033" lon="-5.567283">
        <ele>662.0</ele>
        <time>2015-06-07T15:44:52Z</time>
      </trkpt>
      <trkpt lat="40.063917" lon="-5.567500">
        <ele>661.0</ele>
        <time>2015-06-07T15:44:54Z</time>
      </trkpt>
      <trkpt lat="40.063783" lon="-5.567750">
        <ele>663.0</ele>
        <time>2015-06-07T15:44:56Z</time>
      </trkpt>
      <trkpt lat="40.063717" lon="-5.567950">
        <ele>668.0</ele>
        <time>2015-06-07T15:44:58Z</time>
      </trkpt>
      <trkpt lat="40.063683" lon="-5.568133">
        <ele>668.0</ele>
        <time>2015-06-07T15:45:00Z</time>
      </trkpt>
      <trkpt lat="40.063700" lon="-5.568350">
        <ele>668.0</ele>
        <time>2015-06-07T15:45:02Z</time>
      </trkpt>
      <trkpt lat="40.063817" lon="-5.568483">
        <ele>669.0</ele>
        <time>2015-06-07T15:45:04Z</time>
      </trkpt>
      <trkpt lat="40.063967" lon="-5.568533">
        <ele>671.0</ele>
        <time>2015-06-07T15:45:06Z</time>
      </trkpt>
      <trkpt lat="40.064083" lon="-5.568517">
        <ele>674.0</ele>
        <time>2015-06-07T15:45:08Z</time>
      </trkpt>
      <trkpt lat="40.064167" lon="-5.568400">
        <ele>675.0</ele>
        <time>2015-06-07T15:45:10Z</time>
      </trkpt>
      <trkpt lat="40.064150" lon="-5.568200">
        <ele>676.0</ele>
        <time>2015-06-07T15:45:12Z</time>
      </trkpt>
      <trkpt lat="40.064083" lon="-5.568017">
        <ele>678.0</ele>
        <time>2015-06-07T15:45:14Z</time>
      </trkpt>
      <trkpt lat="40.063933" lon="-5.567883">
        <ele>677.0</ele>
        <time>2015-06-07T15:45:16Z</time>
      </trkpt>
      <trkpt lat="40.063700" lon="-5.567850">
        <ele>677.0</ele>
        <time>2015-06-07T15:45:18Z</time>
      </trkpt>
      <trkpt lat="40.063500" lon="-5.567950">
        <ele>678.0</ele>
        <time>2015-06-07T15:45:20Z</time>
      </trkpt>
      <trkpt lat="40.063333" lon="-5.568083">
        <ele>681.0</ele>
        <time>2015-06-07T15:45:22Z</time>
      </trkpt>
      <trkpt lat="40.063183" lon="-5.568233">
        <ele>680.0</ele>
        <time>2015-06-07T15:45:24Z</time>
      </trkpt>
      <trkpt lat="40.063067" lon="-5.568483">
        <ele>682.0</ele>
        <time>2015-06-07T15:45:26Z</time>
      </trkpt>
      <trkpt lat="40.063017" lon="-5.568683">
        <ele>687.0</ele>
        <time>2015-06-07T15:45:28Z</time>
      </trkpt>
      <trkpt lat="40.063033" lon="-5.568850">
        <ele>689.0</ele>
        <time>2015-06-07T15:45:30Z</time>
      </trkpt>
      <trkpt lat="40.063117" lon="-5.569017">
        <ele>689.0</ele>
        <time>2015-06-07T15:45:32Z</time>
      </trkpt>
      <trkpt lat="40.063267" lon="-5.569067">
        <ele>691.0</ele>
        <time>2015-06-07T15:45:34Z</time>
      </trkpt>
      <trkpt lat="40.063400" lon="-5.569017">
        <ele>694.0</ele>
        <time>2015-06-07T15:45:36Z</time>
      </trkpt>
      <trkpt lat="40.063467" lon="-5.568900">
        <ele>698.0</ele>
        <time>2015-06-07T15:45:38Z</time>
      </trkpt>
      <trkpt lat="40.063467" lon="-5.568750">
        <ele>700.0</ele>
        <time>2015-06-07T15:45:40Z</time>
      </trkpt>
      <trkpt lat="40.063383" lon="-5.568567">
        <ele>700.0</ele>
        <time>2015-06-07T15:45:42Z</time>
      </trkpt>
      <trkpt lat="40.063183" lon="-5.568450">
        <ele>701.0</ele>
        <time>2015-06-07T15:45:44Z</time>
      </trkpt>
      <trkpt lat="40.062983" lon="-5.568483">
        <ele>703.0</ele>
        <time>2015-06-07T15:45:46Z</time>
      </trkpt>
      <trkpt lat="40.062783" lon="-5.568600">
        <ele>706.0</ele>
        <time>2015-06-07T15:45:48Z</time>
      </trkpt>
      <trkpt lat="40.062650" lon="-5.568733">
        <ele>709.0</ele>
        <time>2015-06-07T15:45:50Z</time>
      </trkpt>
      <trkpt lat="40.062533" lon="-5.568967">
        <ele>709.0</ele>
        <time>2015-06-07T15:45:52Z</time>
      </trkpt>
      <trkpt lat="40.062517" lon="-5.569200">
        <ele>714.0</ele>
        <time>2015-06-07T15:45:54Z</time>
      </trkpt>
      <trkpt lat="40.062550" lon="-5.569383">
        <ele>718.0</ele>
        <time>2015-06-07T15:45:56Z</time>
      </trkpt>
      <trkpt lat="40.062617" lon="-5.569517">
        <ele>722.0</ele>
        <time>2015-06-07T15:45:58Z</time>
      </trkpt>
      <trkpt lat="40.062733" lon="-5.569533">
        <ele>725.0</ele>
        <time>2015-06-07T15:46:00Z</time>
      </trkpt>
      <trkpt lat="40.062783" lon="-5.569400">
        <ele>731.0</ele>
        <time>2015-06-07T15:46:02Z</time>
      </trkpt>
      <trkpt lat="40.062767" lon="-5.569233">
        <ele>735.0</ele>
        <time>2015-06-07T15:46:04Z</time>
      </trkpt>
      <trkpt lat="40.062683" lon="-5.569083">
        <ele>736.0</ele>
        <time>2015-06-07T15:46:06Z</time>
      </trkpt>
      <trkpt lat="40.062500" lon="-5.568967">
        <ele>736.0</ele>
        <time>2015-06-07T15:46:08Z</time>
      </trkpt>
      <trkpt lat="40.062283" lon="-5.568933">
        <ele>739.0</ele>
        <time>2015-06-07T15:46:10Z</time>
      </trkpt>
      <trkpt lat="40.062100" lon="-5.569017">
        <ele>742.0</ele>
        <time>2015-06-07T15:46:12Z</time>
      </trkpt>
      <trkpt lat="40.061933" lon="-5.569183">
        <ele>743.0</ele>
        <time>2015-06-07T15:46:14Z</time>
      </trkpt>
      <trkpt lat="40.061833" lon="-5.569433">
        <ele>746.0</ele>
        <time>2015-06-07T15:46:16Z</time>
      </trkpt>
      <trkpt lat="40.061817" lon="-5.569650">
        <ele>751.0</ele>
        <time>2015-06-07T15:46:18Z</time>
      </trkpt>
      <trkpt lat="40.061850" lon="-5.569800">
        <ele>756.0</ele>
        <time>2015-06-07T15:46:20Z</time>
      </trkpt>
      <trkpt lat="40.061933" lon="-5.569883">
        <ele>759.0</ele>
        <time>2015-06-07T15:46:22Z</time>
      </trkpt>
      <trkpt lat="40.062050" lon="-5.569817">
        <ele>762.0</ele>
        <time>2015-06-07T15:46:24Z</time>
      </trkpt>
      <trkpt lat="40.062117" lon="-5.569650">
        <ele>769.0</ele>
        <time>2015-06-07T15:46:26Z</time>
      </trkpt>
      <trkpt lat="40.062100" lon="-5.569517">
        <ele>773.0</ele>
        <time>2015-06-07T15:46:28Z</time>
      </trkpt>
      <trkpt lat="40.062033" lon="-5.569383">
        <ele>774.0</ele>
        <time>2015-06-07T15:46:30Z</time>
      </trkpt>
      <trkpt lat="40.061883" lon="-5.569250">
        <ele>773.0</ele>
        <time>2015-06-07T15:46:32Z</time>
      </trkpt>
      <trkpt lat="40.061650" lon="-5.569233">
        <ele>775.0</ele>
        <time>2015-06-07T15:46:34Z</time>
      </trkpt>
      <trkpt lat="40.061450" lon="-5.569383">
        <ele>777.0</ele>
        <time>2015-06-07T15:46:36Z</time>
      </trkpt>
      <trkpt lat="40.061317" lon="-5.569600">
        <ele>780.0</ele>
        <time>2015-06-07T15:46:38Z</time>
      </trkpt>
      <trkpt lat="40.061233" lon="-5.569800">
        <ele>784.0</ele>
        <time>2015-06-07T15:46:40Z</time>
      </trkpt>
      <trkpt lat="40.061233" lon="-5.570017">
        <ele>786.0</ele>
        <time>2015-06-07T15:46:42Z</time>
      </trkpt>
      <trkpt lat="40.061283" lon="-5.570167">
        <ele>792.0</ele>
        <time>2015-06-07T15:46:44Z</time>
      </trkpt>
      <trkpt lat="40.061350" lon="-5.570233">
        <ele>796.0</ele>
        <time>2015-06-07T15:46:46Z</time>
      </trkpt>
      <trkpt lat="40.061417" lon="-5.570233">
        <ele>799.0</ele>
        <time>2015-06-07T15:46:48Z</time>
      </trkpt>
      <trkpt lat="40.061450" lon="-5.570117">
        <ele>799.0</ele>
        <time>2015-06-07T15:46:50Z</time>
      </trkpt>
      <trkpt lat="40.061400" lon="-5.569967">
        <ele>800.0</ele>
        <time>2015-06-07T15:46:52Z</time>
      </trkpt>
      <trkpt lat="40.061250" lon="-5.569833">
        <ele>802.0</ele>
        <time>2015-06-07T15:46:54Z</time>
      </trkpt>
      <trkpt lat="40.061033" lon="-5.569817">
        <ele>803.0</ele>
        <time>2015-06-07T15:46:56Z</time>
      </trkpt>
      <trkpt lat="40.060817" lon="-5.569933">
        <ele>806.0</ele>
        <time>2015-06-07T15:46:58Z</time>
      </trkpt>
      <trkpt lat="40.060650" lon="-5.570133">
        <ele>809.0</ele>
        <time>2015-06-07T15:47:00Z</time>
      </trkpt>
      <trkpt lat="40.060533" lon="-5.570383">
        <ele>811.0</ele>
        <time>2015-06-07T15:47:02Z</time>
      </trkpt>
      <trkpt lat="40.060500" lon="-5.570650">
        <ele>814.0</ele>
        <time>2015-06-07T15:47:04Z</time>
      </trkpt>
      <trkpt lat="40.060533" lon="-5.570850">
        <ele>820.0</ele>
        <time>2015-06-07T15:47:06Z</time>
      </trkpt>
      <trkpt lat="40.060600" lon="-5.570950">
        <ele>825.0</ele>
        <time>2015-06-07T15:47:08Z</time>
      </trkpt>
      <trkpt lat="40.060667" lon="-5.570967">
        <ele>828.0</ele>
        <time>2015-06-07T15:47:10Z</time>
      </trkpt>
      <trkpt lat="40.060733" lon="-5.570867">
        <ele>830.0</ele>
        <time>2015-06-07T15:47:12Z</time>
      </trkpt>
      <trkpt lat="40.060700" lon="-5.570717">
        <ele>833.0</ele>
        <time>2015-06-07T15:47:14Z</time>
      </trkpt>
      <trkpt lat="40.060600" lon="-5.570600">
        <ele>836.0</ele>
        <time>2015-06-07T15:47:16Z</time>
      </trkpt>
      <trkpt lat="40.060417" lon="-5.570517">
        <ele>837.0</ele>
        <time>2015-06-07T15:47:18Z</time>
      </trkpt>
      <trkpt lat="40.060167" lon="-5.570533">
        <ele>837.0</ele>
        <time>2015-06-07T15:47:20Z</time>
      </trkpt>
      <trkpt lat="40.059917" lon="-5.570717">
        <ele>839.0</ele>
        <time>2015-06-07T15:47:22Z</time>
      </trkpt>
      <trkpt lat="40.059717" lon="-5.570950">
        <ele>850.0</ele>
        <time>2015-06-07T15:47:24Z</time>
      </trkpt>
      <trkpt lat="40.059617" lon="-5.571100">
        <ele>862.0</ele>
        <time>2015-06-07T15:47:26Z</time>
      </trkpt>
      <trkpt lat="40.059533" lon="-5.571283">
        <ele>865.0</ele>
        <time>2015-06-07T15:47:28Z</time>
      </trkpt>
      <trkpt lat="40.059533" lon="-5.571533">
        <ele>870.0</ele>
        <time>2015-06-07T15:47:30Z</time>
      </trkpt>
      <trkpt lat="40.059633" lon="-5.571717">
        <ele>878.0</ele>
        <time>2015-06-07T15:47:32Z</time>
      </trkpt>
      <trkpt lat="40.059750" lon="-5.571767">
        <ele>885.0</ele>
        <time>2015-06-07T15:47:34Z</time>
      </trkpt>
      <trkpt lat="40.059850" lon="-5.571700">
        <ele>889.0</ele>
        <time>2015-06-07T15:47:36Z</time>
      </trkpt>
      <trkpt lat="40.059867" lon="-5.571550">
        <ele>892.0</ele>
        <time>2015-06-07T15:47:38Z</time>
      </trkpt>
      <trkpt lat="40.059767" lon="-5.571383">
        <ele>895.0</ele>
        <time>2015-06-07T15:47:40Z</time>
      </trkpt>
      <trkpt lat="40.059617" lon="-5.571300">
        <ele>899.0</ele>
        <time>2015-06-07T15:47:42Z</time>
      </trkpt>
      <trkpt lat="40.059383" lon="-5.571267">
        <ele>900.0</ele>
        <time>2015-06-07T15:47:44Z</time>
      </trkpt>
      <trkpt lat="40.059117" lon="-5.571400">
        <ele>902.0</ele>
        <time>2015-06-07T15:47:46Z</time>
      </trkpt>
      <trkpt lat="40.058933" lon="-5.571600">
        <ele>911.0</ele>
        <time>2015-06-07T15:47:48Z</time>
      </trkpt>
      <trkpt lat="40.058817" lon="-5.571800">
        <ele>922.0</ele>
        <time>2015-06-07T15:47:50Z</time>
      </trkpt>
      <trkpt lat="40.058800" lon="-5.571983">
        <ele>931.0</ele>
        <time>2015-06-07T15:47:52Z</time>
      </trkpt>
      <trkpt lat="40.058850" lon="-5.572167">
        <ele>937.0</ele>
        <time>2015-06-07T15:47:54Z</time>
      </trkpt>
      <trkpt lat="40.058983" lon="-5.572250">
        <ele>947.0</ele>
        <time>2015-06-07T15:47:56Z</time>
      </trkpt>
      <trkpt lat="40.059067" lon="-5.572267">
        <ele>957.0</ele>
        <time>2015-06-07T15:47:58Z</time>
      </trkpt>
      <trkpt lat="40.059100" lon="-5.572300">
        <ele>962.0</ele>
        <time>2015-06-07T15:48:00Z</time>
      </trkpt>
      <trkpt lat="40.059150" lon="-5.572233">
        <ele>962.0</ele>
        <time>2015-06-07T15:48:02Z</time>
      </trkpt>
      <trkpt lat="40.059133" lon="-5.572083">
        <ele>963.0</ele>
        <time>2015-06-07T15:48:04Z</time>
      </trkpt>
      <trkpt lat="40.058983" lon="-5.571950">
        <ele>966.0</ele>
        <time>2015-06-07T15:48:06Z</time>
      </trkpt>
      <trkpt lat="40.058767" lon="-5.571883">
        <ele>972.0</ele>
        <time>2015-06-07T15:48:08Z</time>
      </trkpt>
      <trkpt lat="40.058567" lon="-5.571917">
        <ele>978.0</ele>
        <time>2015-06-07T15:48:10Z</time>
      </trkpt>
      <trkpt lat="40.058350" lon="-5.572050">
        <ele>979.0</ele>
        <time>2015-06-07T15:48:12Z</time>
      </trkpt>
      <trkpt lat="40.058150" lon="-5.572267">
        <ele>985.0</ele>
        <time>2015-06-07T15:48:14Z</time>
      </trkpt>
      <trkpt lat="40.058000" lon="-5.572467">
        <ele>997.0</ele>
        <time>2015-06-07T15:48:16Z</time>
      </trkpt>
      <trkpt lat="40.057883" lon="-5.572617">
        <ele>1007.0</ele>
        <time>2015-06-07T15:48:18Z</time>
      </trkpt>
      <trkpt lat="40.057833" lon="-5.572817">
        <ele>1012.0</ele>
        <time>2015-06-07T15:48:20Z</time>
      </trkpt>
      <trkpt lat="40.057850" lon="-5.573067">
        <ele>1017.0</ele>
        <time>2015-06-07T15:48:22Z</time>
      </trkpt>
      <trkpt lat="40.057900" lon="-5.573283">
        <ele>1027.0</ele>
        <time>2015-06-07T15:48:24Z</time>
      </trkpt>
      <trkpt lat="40.058000" lon="-5.573367">
        <ele>1036.0</ele>
        <time>2015-06-07T15:48:26Z</time>
      </trkpt>
      <trkpt lat="40.058050" lon="-5.573333">
        <ele>1043.0</ele>
        <time>2015-06-07T15:48:28Z</time>
      </trkpt>
      <trkpt lat="40.058050" lon="-5.573233">
        <ele>1048.0</ele>
        <time>2015-06-07T15:48:30Z</time>
      </trkpt>
      <trkpt lat="40.058000" lon="-5.573050">
        <ele>1054.0</ele>
        <time>2015-06-07T15:48:32Z</time>
      </trkpt>
      <trkpt lat="40.057833" lon="-5.572933">
        <ele>1060.0</ele>
        <time>2015-06-07T15:48:34Z</time>
      </trkpt>
      <trkpt lat="40.057600" lon="-5.572917">
        <ele>1065.0</ele>
        <time>2015-06-07T15:48:36Z</time>
      </trkpt>
      <trkpt lat="40.057383" lon="-5.572983">
        <ele>1071.0</ele>
        <time>2015-06-07T15:48:38Z</time>
      </trkpt>
      <trkpt lat="40.057117" lon="-5.573100">
        <ele>1076.0</ele>
        <time>2015-06-07T15:48:40Z</time>
      </trkpt>
      <trkpt lat="40.056883" lon="-5.573233">
        <ele>1087.0</ele>
        <time>2015-06-07T15:48:42Z</time>
      </trkpt>
      <trkpt lat="40.056733" lon="-5.573417">
        <ele>1095.0</ele>
        <time>2015-06-07T15:48:44Z</time>
      </trkpt>
      <trkpt lat="40.056600" lon="-5.573617">
        <ele>1099.0</ele>
        <time>2015-06-07T15:48:46Z</time>
      </trkpt>
      <trkpt lat="40.056483" lon="-5.573867">
        <ele>1103.0</ele>
        <time>2015-06-07T15:48:48Z</time>
      </trkpt>
      <trkpt lat="40.056467" lon="-5.574133">
        <ele>1109.0</ele>
        <time>2015-06-07T15:48:50Z</time>
      </trkpt>
      <trkpt lat="40.056517" lon="-5.574267">
        <ele>1115.0</ele>
        <time>2015-06-07T15:48:52Z</time>
      </trkpt>
      <trkpt lat="40.056567" lon="-5.574333">
        <ele>1122.0</ele>
        <time>2015-06-07T15:48:54Z</time>
      </trkpt>
      <trkpt lat="40.056617" lon="-5.574333">
        <ele>1126.0</ele>
        <time>2015-06-07T15:48:56Z</time>
      </trkpt>
      <trkpt lat="40.056633" lon="-5.574183">
        <ele>1128.0</ele>
        <time>2015-06-07T15:48:58Z</time>
      </trkpt>
      <trkpt lat="40.056600" lon="-5.573983">
        <ele>1134.0</ele>
        <time>2015-06-07T15:49:00Z</time>
      </trkpt>
      <trkpt lat="40.056450" lon="-5.573833">
        <ele>1143.0</ele>
        <time>2015-06-07T15:49:02Z</time>
      </trkpt>
      <trkpt lat="40.056233" lon="-5.573767">
        <ele>1149.0</ele>
        <time>2015-06-07T15:49:04Z</time>
      </trkpt>
      <trkpt lat="40.056000" lon="-5.573800">
        <ele>1158.0</ele>
        <time>2015-06-07T15:49:06Z</time>
      </trkpt>
      <trkpt lat="40.055783" lon="-5.573950">
        <ele>1163.0</ele>
        <time>2015-06-07T15:49:08Z</time>
      </trkpt>
      <trkpt lat="40.055583" lon="-5.574167">
        <ele>1168.0</ele>
        <time>2015-06-07T15:49:10Z</time>
      </trkpt>
      <trkpt lat="40.055467" lon="-5.574383">
        <ele>1176.0</ele>
        <time>2015-06-07T15:49:12Z</time>
      </trkpt>
      <trkpt lat="40.055383" lon="-5.574583">
        <ele>1179.0</ele>
        <time>2015-06-07T15:49:14Z</time>
      </trkpt>
      <trkpt lat="40.055350" lon="-5.574817">
        <ele>1179.0</ele>
        <time>2015-06-07T15:49:16Z</time>
      </trkpt>
      <trkpt lat="40.055450" lon="-5.574983">
        <ele>1178.0</ele>
        <time>2015-06-07T15:49:18Z</time>
      </trkpt>
      <trkpt lat="40.055567" lon="-5.575017">
        <ele>1187.0</ele>
        <time>2015-06-07T15:49:20Z</time>
      </trkpt>
      <trkpt lat="40.055600" lon="-5.575067">
        <ele>1192.0</ele>
        <time>2015-06-07T15:49:22Z</time>
      </trkpt>
      <trkpt lat="40.055667" lon="-5.575033">
        <ele>1193.0</ele>
        <time>2015-06-07T15:49:24Z</time>
      </trkpt>
      <trkpt lat="40.055783" lon="-5.574950">
        <ele>1194.0</ele>
        <time>2015-06-07T15:49:26Z</time>
      </trkpt>
      <trkpt lat="40.055800" lon="-5.574800">
        <ele>1198.0</ele>
        <time>2015-06-07T15:49:28Z</time>
      </trkpt>
      <trkpt lat="40.055750" lon="-5.574583">
        <ele>1199.0</ele>
        <time>2015-06-07T15:49:30Z</time>
      </trkpt>
      <trkpt lat="40.055633" lon="-5.574350">
        <ele>1204.0</ele>
        <time>2015-06-07T15:49:32Z</time>
      </trkpt>
      <trkpt lat="40.055433" lon="-5.574200">
        <ele>1209.0</ele>
        <time>2015-06-07T15:49:34Z</time>
      </trkpt>
      <trkpt lat="40.055167" lon="-5.574117">
        <ele>1215.0</ele>
        <time>2015-06-07T15:49:36Z</time>
      </trkpt>
      <trkpt lat="40.054917" lon="-5.574083">
        <ele>1221.0</ele>
        <time>2015-06-07T15:49:38Z</time>
      </trkpt>
      <trkpt lat="40.054667" lon="-5.574217">
        <ele>1225.0</ele>
        <time>2015-06-07T15:49:40Z</time>
      </trkpt>
      <trkpt lat="40.054467" lon="-5.574433">
        <ele>1231.0</ele>
        <time>2015-06-07T15:49:42Z</time>
      </trkpt>
      <trkpt lat="40.054350" lon="-5.574650">
        <ele>1237.0</ele>
        <time>2015-06-07T15:49:44Z</time>
      </trkpt>
      <trkpt lat="40.054317" lon="-5.574867">
        <ele>1238.0</ele>
        <time>2015-06-07T15:49:46Z</time>
      </trkpt>
      <trkpt lat="40.054383" lon="-5.575050">
        <ele>1240.0</ele>
        <time>2015-06-07T15:49:48Z</time>
      </trkpt>
      <trkpt lat="40.054483" lon="-5.575100">
        <ele>1245.0</ele>
        <time>2015-06-07T15:49:50Z</time>
      </trkpt>
      <trkpt lat="40.054550" lon="-5.575017">
        <ele>1248.0</ele>
        <time>2015-06-07T15:49:52Z</time>
      </trkpt>
      <trkpt lat="40.054583" lon="-5.574833">
        <ele>1250.0</ele>
        <time>2015-06-07T15:49:54Z</time>
      </trkpt>
      <trkpt lat="40.054517" lon="-5.574617">
        <ele>1255.0</ele>
        <time>2015-06-07T15:49:56Z</time>
      </trkpt>
      <trkpt lat="40.054333" lon="-5.574433">
        <ele>1257.0</ele>
        <time>2015-06-07T15:49:58Z</time>
      </trkpt>
      <trkpt lat="40.054083" lon="-5.574317">
        <ele>1262.0</ele>
        <time>2015-06-07T15:50:00Z</time>
      </trkpt>
      <trkpt lat="40.053850" lon="-5.574333">
        <ele>1269.0</ele>
        <time>2015-06-07T15:50:02Z</time>
      </trkpt>
      <trkpt lat="40.053633" lon="-5.574467">
        <ele>1274.0</ele>
        <time>2015-06-07T15:50:04Z</time>
      </trkpt>
      <trkpt lat="40.053483" lon="-5.574650">
        <ele>1279.0</ele>
        <time>2015-06-07T15:50:06Z</time>
      </trkpt>
      <trkpt lat="40.053450" lon="-5.574867">
        <ele>1282.0</ele>
        <time>2015-06-07T15:50:08Z</time>
      </trkpt>
      <trkpt lat="40.053483" lon="-5.575050">
        <ele>1285.0</ele>
        <time>2015-06-07T15:50:10Z</time>
      </trkpt>
      <trkpt lat="40.053567" lon="-5.575100">
        <ele>1287.0</ele>
        <time>2015-06-07T15:50:12Z</time>
      </trkpt>
      <trkpt lat="40.053650" lon="-5.575033">
        <ele>1290.0</ele>
        <time>2015-06-07T15:50:14Z</time>
      </trkpt>
      <trkpt lat="40.053700" lon="-5.574917">
        <ele>1294.0</ele>
        <time>2015-06-07T15:50:16Z</time>
      </trkpt>
      <trkpt lat="40.053700" lon="-5.574750">
        <ele>1300.0</ele>
        <time>2015-06-07T15:50:18Z</time>
      </trkpt>
      <trkpt lat="40.053633" lon="-5.574550">
        <ele>1307.0</ele>
        <time>2015-06-07T15:50:20Z</time>
      </trkpt>
      <trkpt lat="40.053500" lon="-5.574383">
        <ele>1314.0</ele>
        <time>2015-06-07T15:50:22Z</time>
      </trkpt>
      <trkpt lat="40.053300" lon="-5.574267">
        <ele>1319.0</ele>
        <time>2015-06-07T15:50:24Z</time>
      </trkpt>
      <trkpt lat="40.053050" lon="-5.574200">
        <ele>1321.0</ele>
        <time>2015-06-07T15:50:26Z</time>
      </trkpt>
      <trkpt lat="40.052783" lon="-5.574283">
        <ele>1325.0</ele>
        <time>2015-06-07T15:50:28Z</time>
      </trkpt>
      <trkpt lat="40.052617" lon="-5.574433">
        <ele>1333.0</ele>
        <time>2015-06-07T15:50:30Z</time>
      </trkpt>
      <trkpt lat="40.052483" lon="-5.574583">
        <ele>1338.0</ele>
        <time>2015-06-07T15:50:32Z</time>
      </trkpt>
      <trkpt lat="40.052367" lon="-5.574783">
        <ele>1339.0</ele>
        <time>2015-06-07T15:50:34Z</time>
      </trkpt>
      <trkpt lat="40.052350" lon="-5.575000">
        <ele>1341.0</ele>
        <time>2015-06-07T15:50:36Z</time>
      </trkpt>
      <trkpt lat="40.052433" lon="-5.575100">
        <ele>1344.0</ele>
        <time>2015-06-07T15:50:38Z</time>
      </trkpt>
      <trkpt lat="40.052517" lon="-5.575083">
        <ele>1350.0</ele>
        <time>2015-06-07T15:50:40Z</time>
      </trkpt>
      <trkpt lat="40.052583" lon="-5.574983">
        <ele>1353.0</ele>
        <time>2015-06-07T15:50:42Z</time>
      </trkpt>
      <trkpt lat="40.052633" lon="-5.574850">
        <ele>1359.0</ele>
        <time>2015-06-07T15:50:44Z</time>
      </trkpt>
      <trkpt lat="40.052617" lon="-5.574700">
        <ele>1368.0</ele>
        <time>2015-06-07T15:50:46Z</time>
      </trkpt>
      <trkpt lat="40.052550" lon="-5.574500">
        <ele>1374.0</ele>
        <time>2015-06-07T15:50:48Z</time>
      </trkpt>
      <trkpt lat="40.052467" lon="-5.574267">
        <ele>1379.0</ele>
        <time>2015-06-07T15:50:50Z</time>
      </trkpt>
      <trkpt lat="40.052283" lon="-5.574100">
        <ele>1385.0</ele>
        <time>2015-06-07T15:50:52Z</time>
      </trkpt>
      <trkpt lat="40.052083" lon="-5.574083">
        <ele>1389.0</ele>
        <time>2015-06-07T15:50:54Z</time>
      </trkpt>
      <trkpt lat="40.051900" lon="-5.574200">
        <ele>1394.0</ele>
        <time>2015-06-07T15:50:56Z</time>
      </trkpt>
      <trkpt lat="40.051783" lon="-5.574383">
        <ele>1399.0</ele>
        <time>2015-06-07T15:50:58Z</time>
      </trkpt>
      <trkpt lat="40.051750" lon="-5.574567">
        <ele>1401.0</ele>
        <time>2015-06-07T15:51:00Z</time>
      </trkpt>
      <trkpt lat="40.051800" lon="-5.574733">
        <ele>1403.0</ele>
        <time>2015-06-07T15:51:02Z</time>
      </trkpt>
      <trkpt lat="40.051900" lon="-5.574800">
        <ele>1408.0</ele>
        <time>2015-06-07T15:51:04Z</time>
      </trkpt>
      <trkpt lat="40.051933" lon="-5.574717">
        <ele>1414.0</ele>
        <time>2015-06-07T15:51:06Z</time>
      </trkpt>
      <trkpt lat="40.051917" lon="-5.574567">
        <ele>1417.0</ele>
        <time>2015-06-07T15:51:08Z</time>
      </trkpt>
      <trkpt lat="40.051883" lon="-5.574367">
        <ele>1418.0</ele>
        <time>2015-06-07T15:51:10Z</time>
      </trkpt>
      <trkpt lat="40.051767" lon="-5.574167">
        <ele>1421.0</ele>
        <time>2015-06-07T15:51:12Z</time>
      </trkpt>
      <trkpt lat="40.051600" lon="-5.574083">
        <ele>1426.0</ele>
        <time>2015-06-07T15:51:14Z</time>
      </trkpt>
      <trkpt lat="40.051417" lon="-5.574150">
        <ele>1429.0</ele>
        <time>2015-06-07T15:51:16Z</time>
      </trkpt>
      <trkpt lat="40.051283" lon="-5.574333">
        <ele>1432.0</ele>
        <time>2015-06-07T15:51:18Z</time>
      </trkpt>
      <trkpt lat="40.051233" lon="-5.574567">
        <ele>1436.0</ele>
        <time>2015-06-07T15:51:20Z</time>
      </trkpt>
      <trkpt lat="40.051250" lon="-5.574733">
        <ele>1439.0</ele>
        <time>2015-06-07T15:51:22Z</time>
      </trkpt>
      <trkpt lat="40.051317" lon="-5.574833">
        <ele>1443.0</ele>
        <time>2015-06-07T15:51:24Z</time>
      </trkpt>
      <trkpt lat="40.051400" lon="-5.574833">
        <ele>1447.0</ele>
        <time>2015-06-07T15:51:26Z</time>
      </trkpt>
      <trkpt lat="40.051467" lon="-5.574717">
        <ele>1450.0</ele>
        <time>2015-06-07T15:51:28Z</time>
      </trkpt>
      <trkpt lat="40.051467" lon="-5.574500">
        <ele>1453.0</ele>
        <time>2015-06-07T15:51:30Z</time>
      </trkpt>
      <trkpt lat="40.051383" lon="-5.574317">
        <ele>1457.0</ele>
        <time>2015-06-07T15:51:32Z</time>
      </trkpt>
      <trkpt lat="40.051250" lon="-5.574200">
        <ele>1460.0</ele>
        <time>2015-06-07T15:51:34Z</time>
      </trkpt>
      <trkpt lat="40.051067" lon="-5.574183">
        <ele>1464.0</ele>
        <time>2015-06-07T15:51:36Z</time>
      </trkpt>
      <trkpt lat="40.050883" lon="-5.574267">
        <ele>1466.0</ele>
        <time>2015-06-07T15:51:38Z</time>
      </trkpt>
      <trkpt lat="40.050750" lon="-5.574450">
        <ele>1470.0</ele>
        <time>2015-06-07T15:51:40Z</time>
      </trkpt>
      <trkpt lat="40.050650" lon="-5.574650">
        <ele>1474.0</ele>
        <time>2015-06-07T15:51:42Z</time>
      </trkpt>
      <trkpt lat="40.050567" lon="-5.574833">
        <ele>1475.0</ele>
        <time>2015-06-07T15:51:44Z</time>
      </trkpt>
      <trkpt lat="40.050550" lon="-5.575100">
        <ele>1477.0</ele>
        <time>2015-06-07T15:51:46Z</time>
      </trkpt>
      <trkpt lat="40.050617" lon="-5.575267">
        <ele>1485.0</ele>
        <time>2015-06-07T15:51:48Z</time>
      </trkpt>
      <trkpt lat="40.050683" lon="-5.575300">
        <ele>1490.0</ele>
        <time>2015-06-07T15:51:50Z</time>
      </trkpt>
      <trkpt lat="40.050767" lon="-5.575350">
        <ele>1492.0</ele>
        <time>2015-06-07T15:51:52Z</time>
      </trkpt>
      <trkpt lat="40.050900" lon="-5.575333">
        <ele>1497.0</ele>
        <time>2015-06-07T15:51:54Z</time>
      </trkpt>
      <trkpt lat="40.050967" lon="-5.575167">
        <ele>1503.0</ele>
        <time>2015-06-07T15:51:56Z</time>
      </trkpt>
      <trkpt lat="40.050967" lon="-5.575000">
        <ele>1510.0</ele>
        <time>2015-06-07T15:51:58Z</time>
      </trkpt>
      <trkpt lat="40.050933" lon="-5.574883">
        <ele>1513.0</ele>
        <time>2015-06-07T15:52:00Z</time>
      </trkpt>
      <trkpt lat="40.050817" lon="-5.574767">
        <ele>1513.0</ele>
        <time>2015-06-07T15:52:02Z</time>
      </trkpt>
      <trkpt lat="40.050633" lon="-5.574733">
        <ele>1516.0</ele>
        <time>2015-06-07T15:52:04Z</time>
      </trkpt>
      <trkpt lat="40.050467" lon="-5.574817">
        <ele>1521.0</ele>
        <time>2015-06-07T15:52:06Z</time>
      </trkpt>
      <trkpt lat="40.050333" lon="-5.575033">
        <ele>1526.0</ele>
        <time>2015-06-07T15:52:08Z</time>
      </trkpt>
      <trkpt lat="40.050283" lon="-5.575267">
        <ele>1532.0</ele>
        <time>2015-06-07T15:52:10Z</time>
      </trkpt>
      <trkpt lat="40.050317" lon="-5.575467">
        <ele>1537.0</ele>
        <time>2015-06-07T15:52:12Z</time>
      </trkpt>
      <trkpt lat="40.050383" lon="-5.575617">
        <ele>1541.0</ele>
        <time>2015-06-07T15:52:14Z</time>
      </trkpt>
      <trkpt lat="40.050483" lon="-5.575733">
        <ele>1543.0</ele>
        <time>2015-06-07T15:52:16Z</time>
      </trkpt>
      <trkpt lat="40.050617" lon="-5.575800">
        <ele>1546.0</ele>
        <time>2015-06-07T15:52:18Z</time>
      </trkpt>
      <trkpt lat="40.050717" lon="-5.575783">
        <ele>1551.0</ele>
        <time>2015-06-07T15:52:20Z</time>
      </trkpt>
      <trkpt lat="40.050750" lon="-5.575717">
        <ele>1555.0</ele>
        <time>2015-06-07T15:52:22Z</time>
      </trkpt>
      <trkpt lat="40.050700" lon="-5.575583">
        <ele>1557.0</ele>
        <time>2015-06-07T15:52:24Z</time>
      </trkpt>
      <trkpt lat="40.050550" lon="-5.575467">
        <ele>1560.0</ele>
        <time>2015-06-07T15:52:26Z</time>
      </trkpt>
      <trkpt lat="40.050350" lon="-5.575500">
        <ele>1565.0</ele>
        <time>2015-06-07T15:52:28Z</time>
      </trkpt>
      <trkpt lat="40.050183" lon="-5.575617">
        <ele>1572.0</ele>
        <time>2015-06-07T15:52:30Z</time>
      </trkpt>
      <trkpt lat="40.050067" lon="-5.575767">
        <ele>1577.0</ele>
        <time>2015-06-07T15:52:32Z</time>
      </trkpt>
      <trkpt lat="40.049933" lon="-5.576000">
        <ele>1576.0</ele>
        <time>2015-06-07T15:52:34Z</time>
      </trkpt>
      <trkpt lat="40.049867" lon="-5.576333">
        <ele>1577.0</ele>
        <time>2015-06-07T15:52:36Z</time>
      </trkpt>
      <trkpt lat="40.049867" lon="-5.576650">
        <ele>1586.0</ele>
        <time>2015-06-07T15:52:38Z</time>
      </trkpt>
      <trkpt lat="40.049850" lon="-5.576883">
        <ele>1593.0</ele>
        <time>2015-06-07T15:52:40Z</time>
      </trkpt>
      <trkpt lat="40.049900" lon="-5.577083">
        <ele>1595.0</ele>
        <time>2015-06-07T15:52:42Z</time>
      </trkpt>
      <trkpt lat="40.050017" lon="-5.577167">
        <ele>1600.0</ele>
        <time>2015-06-07T15:52:44Z</time>
      </trkpt>
      <trkpt lat="40.050083" lon="-5.577050">
        <ele>1605.0</ele>
        <time>2015-06-07T15:52:46Z</time>
      </trkpt>
      <trkpt lat="40.050017" lon="-5.576900">
        <ele>1612.0</ele>
        <time>2015-06-07T15:52:48Z</time>
      </trkpt>
      <trkpt lat="40.049850" lon="-5.576800">
        <ele>1617.0</ele>
        <time>2015-06-07T15:52:50Z</time>
      </trkpt>
      <trkpt lat="40.049617" lon="-5.576800">
        <ele>1624.0</ele>
        <time>2015-06-07T15:52:52Z</time>
      </trkpt>
      <trkpt lat="40.049400" lon="-5.576967">
        <ele>1631.0</ele>
        <time>2015-06-07T15:52:54Z</time>
      </trkpt>
      <trkpt lat="40.049233" lon="-5.577183">
        <ele>1639.0</ele>
        <time>2015-06-07T15:52:56Z</time>
      </trkpt>
      <trkpt lat="40.049100" lon="-5.577417">
        <ele>1644.0</ele>
        <time>2015-06-07T15:52:58Z</time>
      </trkpt>
      <trkpt lat="40.049067" lon="-5.577700">
        <ele>1646.0</ele>
        <time>2015-06-07T15:53:00Z</time>
      </trkpt>
      <trkpt lat="40.049117" lon="-5.577933">
        <ele>1651.0</ele>
        <time>2015-06-07T15:53:02Z</time>
      </trkpt>
      <trkpt lat="40.049200" lon="-5.578000">
        <ele>1655.0</ele>
        <time>2015-06-07T15:53:04Z</time>
      </trkpt>
      <trkpt lat="40.049233" lon="-5.577900">
        <ele>1658.0</ele>
        <time>2015-06-07T15:53:06Z</time>
      </trkpt>
      <trkpt lat="40.049183" lon="-5.577750">
        <ele>1663.0</ele>
        <time>2015-06-07T15:53:08Z</time>
      </trkpt>
      <trkpt lat="40.048983" lon="-5.577650">
        <ele>1666.0</ele>
        <time>2015-06-07T15:53:10Z</time>
      </trkpt>
      <trkpt lat="40.048750" lon="-5.577600">
        <ele>1674.0</ele>
        <time>2015-06-07T15:53:12Z</time>
      </trkpt>
      <trkpt lat="40.048533" lon="-5.577617">
        <ele>1682.0</ele>
        <time>2015-06-07T15:53:14Z</time>
      </trkpt>
      <trkpt lat="40.048333" lon="-5.577700">
        <ele>1686.0</ele>
        <time>2015-06-07T15:53:16Z</time>
      </trkpt>
      <trkpt lat="40.048133" lon="-5.577850">
        <ele>1686.0</ele>
        <time>2015-06-07T15:53:18Z</time>
      </trkpt>
      <trkpt lat="40.048000" lon="-5.578133">
        <ele>1688.0</ele>
        <time>2015-06-07T15:53:20Z</time>
      </trkpt>
      <trkpt lat="40.047933" lon="-5.578383">
        <ele>1691.0</ele>
        <time>2015-06-07T15:53:22Z</time>
      </trkpt>
      <trkpt lat="40.047933" lon="-5.578617">
        <ele>1693.0</ele>
        <time>2015-06-07T15:53:24Z</time>
      </trkpt>
      <trkpt lat="40.048000" lon="-5.578800">
        <ele>1695.0</ele>
        <time>2015-06-07T15:53:26Z</time>
      </trkpt>
      <trkpt lat="40.048083" lon="-5.578867">
        <ele>1697.0</ele>
        <time>2015-06-07T15:53:28Z</time>
      </trkpt>
      <trkpt lat="40.048133" lon="-5.578800">
        <ele>1700.0</ele>
        <time>2015-06-07T15:53:30Z</time>
      </trkpt>
      <trkpt lat="40.048133" lon="-5.578683">
        <ele>1702.0</ele>
        <time>2015-06-07T15:53:32Z</time>
      </trkpt>
      <trkpt lat="40.048050" lon="-5.578533">
        <ele>1705.0</ele>
        <time>2015-06-07T15:53:34Z</time>
      </trkpt>
      <trkpt lat="40.047867" lon="-5.578400">
        <ele>1709.0</ele>
        <time>2015-06-07T15:53:36Z</time>
      </trkpt>
      <trkpt lat="40.047617" lon="-5.578367">
        <ele>1715.0</ele>
        <time>2015-06-07T15:53:38Z</time>
      </trkpt>
      <trkpt lat="40.047383" lon="-5.578400">
        <ele>1720.0</ele>
        <time>2015-06-07T15:53:40Z</time>
      </trkpt>
      <trkpt lat="40.047183" lon="-5.578550">
        <ele>1722.0</ele>
        <time>2015-06-07T15:53:42Z</time>
      </trkpt>
      <trkpt lat="40.047017" lon="-5.578767">
        <ele>1724.0</ele>
        <time>2015-06-07T15:53:44Z</time>
      </trkpt>
      <trkpt lat="40.046883" lon="-5.578983">
        <ele>1726.0</ele>
        <time>2015-06-07T15:53:46Z</time>
      </trkpt>
      <trkpt lat="40.046850" lon="-5.579233">
        <ele>1725.0</ele>
        <time>2015-06-07T15:53:48Z</time>
      </trkpt>
      <trkpt lat="40.046867" lon="-5.579533">
        <ele>1724.0</ele>
        <time>2015-06-07T15:53:50Z</time>
      </trkpt>
      <trkpt lat="40.046900" lon="-5.579783">
        <ele>1727.0</ele>
        <time>2015-06-07T15:53:52Z</time>
      </trkpt>
      <trkpt lat="40.046883" lon="-5.580033">
        <ele>1730.0</ele>
        <time>2015-06-07T15:53:54Z</time>
      </trkpt>
      <trkpt lat="40.046850" lon="-5.580317">
        <ele>1730.0</ele>
        <time>2015-06-07T15:53:56Z</time>
      </trkpt>
      <trkpt lat="40.046800" lon="-5.580617">
        <ele>1733.0</ele>
        <time>2015-06-07T15:53:58Z</time>
      </trkpt>
      <trkpt lat="40.046700" lon="-5.580900">
        <ele>1735.0</ele>
        <time>2015-06-07T15:54:00Z</time>
      </trkpt>
      <trkpt lat="40.046567" lon="-5.581200">
        <ele>1739.0</ele>
        <time>2015-06-07T15:54:02Z</time>
      </trkpt>
      <trkpt lat="40.046467" lon="-5.581467">
        <ele>1745.0</ele>
        <time>2015-06-07T15:54:04Z</time>
      </trkpt>
      <trkpt lat="40.046367" lon="-5.581767">
        <ele>1750.0</ele>
        <time>2015-06-07T15:54:06Z</time>
      </trkpt>
      <trkpt lat="40.046317" lon="-5.582067">
        <ele>1759.0</ele>
        <time>2015-06-07T15:54:08Z</time>
      </trkpt>
      <trkpt lat="40.046350" lon="-5.582233">
        <ele>1765.0</ele>
        <time>2015-06-07T15:54:10Z</time>
      </trkpt>
      <trkpt lat="40.046367" lon="-5.582433">
        <ele>1767.0</ele>
        <time>2015-06-07T15:54:12Z</time>
      </trkpt>
      <trkpt lat="40.046317" lon="-5.582700">
        <ele>1769.0</ele>
        <time>2015-06-07T15:54:14Z</time>
      </trkpt>
      <trkpt lat="40.046250" lon="-5.582917">
        <ele>1773.0</ele>
        <time>2015-06-07T15:54:16Z</time>
      </trkpt>
      <trkpt lat="40.046183" lon="-5.583183">
        <ele>1776.0</ele>
        <time>2015-06-07T15:54:18Z</time>
      </trkpt>
      <trkpt lat="40.046117" lon="-5.583450">
        <ele>1783.0</ele>
        <time>2015-06-07T15:54:20Z</time>
      </trkpt>
      <trkpt lat="40.046033" lon="-5.583650">
        <ele>1790.0</ele>
        <time>2015-06-07T15:54:22Z</time>
      </trkpt>
      <trkpt lat="40.045933" lon="-5.583867">
        <ele>1793.0</ele>
        <time>2015-06-07T15:54:24Z</time>
      </trkpt>
      <trkpt lat="40.045833" lon="-5.584150">
        <ele>1796.0</ele>
        <time>2015-06-07T15:54:26Z</time>
      </trkpt>
      <trkpt lat="40.045783" lon="-5.584433">
        <ele>1801.0</ele>
        <time>2015-06-07T15:54:28Z</time>
      </trkpt>
      <trkpt lat="40.045700" lon="-5.584683">
        <ele>1805.0</ele>
        <time>2015-06-07T15:54:30Z</time>
      </trkpt>
      <trkpt lat="40.045600" lon="-5.584917">
        <ele>1807.0</ele>
        <time>2015-06-07T15:54:32Z</time>
      </trkpt>
      <trkpt lat="40.045483" lon="-5.585217">
        <ele>1810.0</ele>
        <time>2015-06-07T15:54:34Z</time>
      </trkpt>
      <trkpt lat="40.045367" lon="-5.585500">
        <ele>1816.0</ele>
        <time>2015-06-07T15:54:36Z</time>
      </trkpt>
      <trkpt lat="40.045250" lon="-5.585750">
        <ele>1823.0</ele>
        <time>2015-06-07T15:54:38Z</time>
      </trkpt>
      <trkpt lat="40.045150" lon="-5.585983">
        <ele>1829.0</ele>
        <time>2015-06-07T15:54:40Z</time>
      </trkpt>
      <trkpt lat="40.045083" lon="-5.586250">
        <ele>1833.0</ele>
        <time>2015-06-07T15:54:42Z</time>
      </trkpt>
      <trkpt lat="40.045000" lon="-5.586517">
        <ele>1836.0</ele>
        <time>2015-06-07T15:54:44Z</time>
      </trkpt>
      <trkpt lat="40.044900" lon="-5.586817">
        <ele>1839.0</ele>
        <time>2015-06-07T15:54:46Z</time>
      </trkpt>
      <trkpt lat="40.044850" lon="-5.587117">
        <ele>1846.0</ele>
        <time>2015-06-07T15:54:48Z</time>
      </trkpt>
      <trkpt lat="40.044817" lon="-5.587350">
        <ele>1848.0</ele>
        <time>2015-06-07T15:54:50Z</time>
      </trkpt>
      <trkpt lat="40.044767" lon="-5.587633">
        <ele>1846.0</ele>
        <time>2015-06-07T15:54:52Z</time>
      </trkpt>
      <trkpt lat="40.044733" lon="-5.587967">
        <ele>1847.0</ele>
        <time>2015-06-07T15:54:54Z</time>
      </trkpt>
      <trkpt lat="40.044700" lon="-5.588233">
        <ele>1852.0</ele>
        <time>2015-06-07T15:54:56Z</time>
      </trkpt>
      <trkpt lat="40.044650" lon="-5.588500">
        <ele>1853.0</ele>
        <time>2015-06-07T15:54:58Z</time>
      </trkpt>
      <trkpt lat="40.044600" lon="-5.588783">
        <ele>1853.0</ele>
        <time>2015-06-07T15:55:00Z</time>
      </trkpt>
      <trkpt lat="40.044567" lon="-5.589050">
        <ele>1854.0</ele>
        <time>2015-06-07T15:55:02Z</time>
      </trkpt>
      <trkpt lat="40.044550" lon="-5.589350">
        <ele>1851.0</ele>
        <time>2015-06-07T15:55:04Z</time>
      </trkpt>
      <trkpt lat="40.044533" lon="-5.589683">
        <ele>1853.0</ele>
        <time>2015-06-07T15:55:06Z</time>
      </trkpt>
      <trkpt lat="40.044483" lon="-5.589967">
        <ele>1855.0</ele>
        <time>2015-06-07T15:55:08Z</time>
      </trkpt>
      <trkpt lat="40.044467" lon="-5.590283">
        <ele>1853.0</ele>
        <time>2015-06-07T15:55:10Z</time>
      </trkpt>
      <trkpt lat="40.044450" lon="-5.590600">
        <ele>1854.0</ele>
        <time>2015-06-07T15:55:12Z</time>
      </trkpt>
      <trkpt lat="40.044417" lon="-5.590900">
        <ele>1857.0</ele>
        <time>2015-06-07T15:55:14Z</time>
      </trkpt>
      <trkpt lat="40.044383" lon="-5.591200">
        <ele>1857.0</ele>
        <time>2015-06-07T15:55:16Z</time>
      </trkpt>
      <trkpt lat="40.044333" lon="-5.591517">
        <ele>1857.0</ele>
        <time>2015-06-07T15:55:18Z</time>
      </trkpt>
      <trkpt lat="40.044300" lon="-5.591817">
        <ele>1858.0</ele>
        <time>2015-06-07T15:55:20Z</time>
      </trkpt>
      <trkpt lat="40.044283" lon="-5.592100">
        <ele>1860.0</ele>
        <time>2015-06-07T15:55:22Z</time>
      </trkpt>
      <trkpt lat="40.044250" lon="-5.592367">
        <ele>1861.0</ele>
        <time>2015-06-07T15:55:24Z</time>
      </trkpt>
      <trkpt lat="40.044250" lon="-5.592633">
        <ele>1861.0</ele>
        <time>2015-06-07T15:55:26Z</time>
      </trkpt>
      <trkpt lat="40.044250" lon="-5.592917">
        <ele>1862.0</ele>
        <time>2015-06-07T15:55:28Z</time>
      </trkpt>
      <trkpt lat="40.044233" lon="-5.593200">
        <ele>1862.0</ele>
        <time>2015-06-07T15:55:30Z</time>
      </trkpt>
      <trkpt lat="40.044200" lon="-5.593500">
        <ele>1862.0</ele>
        <time>2015-06-07T15:55:32Z</time>
      </trkpt>
      <trkpt lat="40.044167" lon="-5.593783">
        <ele>1863.0</ele>
        <time>2015-06-07T15:55:34Z</time>
      </trkpt>
      <trkpt lat="40.044133" lon="-5.594067">
        <ele>1865.0</ele>
        <time>2015-06-07T15:55:36Z</time>
      </trkpt>
      <trkpt lat="40.044117" lon="-5.594367">
        <ele>1866.0</ele>
        <time>2015-06-07T15:55:38Z</time>
      </trkpt>
      <trkpt lat="40.044100" lon="-5.594650">
        <ele>1868.0</ele>
        <time>2015-06-07T15:55:40Z</time>
      </trkpt>
      <trkpt lat="40.044100" lon="-5.594950">
        <ele>1869.0</ele>
        <time>2015-06-07T15:55:42Z</time>
      </trkpt>
      <trkpt lat="40.044100" lon="-5.595283">
        <ele>1871.0</ele>
        <time>2015-06-07T15:55:44Z</time>
      </trkpt>
      <trkpt lat="40.044083" lon="-5.595600">
        <ele>1876.0</ele>
        <time>2015-06-07T15:55:46Z</time>
      </trkpt>
      <trkpt lat="40.044050" lon="-5.595900">
        <ele>1879.0</ele>
        <time>2015-06-07T15:55:48Z</time>
      </trkpt>
      <trkpt lat="40.044033" lon="-5.596217">
        <ele>1880.0</ele>
        <time>2015-06-07T15:55:50Z</time>
      </trkpt>
      <trkpt lat="40.044017" lon="-5.596517">
        <ele>1885.0</ele>
        <time>2015-06-07T15:55:52Z</time>
      </trkpt>
      <trkpt lat="40.044000" lon="-5.596800">
        <ele>1888.0</ele>
        <time>2015-06-07T15:55:54Z</time>
      </trkpt>
      <trkpt lat="40.043983" lon="-5.597117">
        <ele>1890.0</ele>
        <time>2015-06-07T15:55:56Z</time>
      </trkpt>
      <trkpt lat="40.043983" lon="-5.597433">
        <ele>1892.0</ele>
        <time>2015-06-07T15:55:58Z</time>
      </trkpt>
      <trkpt lat="40.043950" lon="-5.597733">
        <ele>1896.0</ele>
        <time>2015-06-07T15:56:00Z</time>
      </trkpt>
      <trkpt lat="40.043917" lon="-5.598033">
        <ele>1899.0</ele>
        <time>2015-06-07T15:56:02Z</time>
      </trkpt>
      <trkpt lat="40.043867" lon="-5.598317">
        <ele>1900.0</ele>
        <time>2015-06-07T15:56:04Z</time>
      </trkpt>
      <trkpt lat="40.043817" lon="-5.598650">
        <ele>1905.0</ele>
        <time>2015-06-07T15:56:06Z</time>
      </trkpt>
      <trkpt lat="40.043750" lon="-5.598883">
        <ele>1912.0</ele>
        <time>2015-06-07T15:56:08Z</time>
      </trkpt>
      <trkpt lat="40.043733" lon="-5.599117">
        <ele>1914.0</ele>
        <time>2015-06-07T15:56:10Z</time>
      </trkpt>
      <trkpt lat="40.043717" lon="-5.599383">
        <ele>1914.0</ele>
        <time>2015-06-07T15:56:12Z</time>
      </trkpt>
      <trkpt lat="40.043700" lon="-5.599650">
        <ele>1920.0</ele>
        <time>2015-06-07T15:56:14Z</time>
      </trkpt>
      <trkpt lat="40.043683" lon="-5.599850">
        <ele>1924.0</ele>
        <time>2015-06-07T15:56:16Z</time>
      </trkpt>
      <trkpt lat="40.043650" lon="-5.600083">
        <ele>1922.0</ele>
        <time>2015-06-07T15:56:18Z</time>
      </trkpt>
      <trkpt lat="40.043617" lon="-5.600367">
        <ele>1922.0</ele>
        <time>2015-06-07T15:56:20Z</time>
      </trkpt>
      <trkpt lat="40.043567" lon="-5.600650">
        <ele>1925.0</ele>
        <time>2015-06-07T15:56:22Z</time>
      </trkpt>
      <trkpt lat="40.043550" lon="-5.600917">
        <ele>1930.0</ele>
        <time>2015-06-07T15:56:24Z</time>
      </trkpt>
      <trkpt lat="40.043517" lon="-5.601183">
        <ele>1933.0</ele>
        <time>2015-06-07T15:56:26Z</time>
      </trkpt>
      <trkpt lat="40.043500" lon="-5.601467">
        <ele>1936.0</ele>
        <time>2015-06-07T15:56:28Z</time>
      </trkpt>
      <trkpt lat="40.043483" lon="-5.601733">
        <ele>1941.0</ele>
        <time>2015-06-07T15:56:30Z</time>
      </trkpt>
      <trkpt lat="40.043483" lon="-5.601983">
        <ele>1945.0</ele>
        <time>2015-06-07T15:56:32Z</time>
      </trkpt>
      <trkpt lat="40.043483" lon="-5.602250">
        <ele>1948.0</ele>
        <time>2015-06-07T15:56:34Z</time>
      </trkpt>
      <trkpt lat="40.043500" lon="-5.602550">
        <ele>1953.0</ele>
        <time>2015-06-07T15:56:36Z</time>
      </trkpt>
      <trkpt lat="40.043483" lon="-5.602783">
        <ele>1960.0</ele>
        <time>2015-06-07T15:56:38Z</time>
      </trkpt>
      <trkpt lat="40.043467" lon="-5.603033">
        <ele>1964.0</ele>
        <time>2015-06-07T15:56:40Z</time>
      </trkpt>
      <trkpt lat="40.043450" lon="-5.603300">
        <ele>1966.0</ele>
        <time>2015-06-07T15:56:42Z</time>
      </trkpt>
      <trkpt lat="40.043417" lon="-5.603583">
        <ele>1968.0</ele>
        <time>2015-06-07T15:56:44Z</time>
      </trkpt>
      <trkpt lat="40.043400" lon="-5.603883">
        <ele>1972.0</ele>
        <time>2015-06-07T15:56:46Z</time>
      </trkpt>
      <trkpt lat="40.043383" lon="-5.604183">
        <ele>1977.0</ele>
        <time>2015-06-07T15:56:48Z</time>
      </trkpt>
      <trkpt lat="40.043367" lon="-5.604483">
        <ele>1984.0</ele>
        <time>2015-06-07T15:56:50Z</time>
      </trkpt>
      <trkpt lat="40.043350" lon="-5.604800">
        <ele>1992.0</ele>
        <time>2015-06-07T15:56:52Z</time>
      </trkpt>
      <trkpt lat="40.043350" lon="-5.605083">
        <ele>1999.0</ele>
        <time>2015-06-07T15:56:54Z</time>
      </trkpt>
      <trkpt lat="40.043367" lon="-5.605400">
        <ele>2005.0</ele>
        <time>2015-06-07T15:56:56Z</time>
      </trkpt>
      <trkpt lat="40.043367" lon="-5.605700">
        <ele>2011.0</ele>
        <time>2015-06-07T15:56:58Z</time>
      </trkpt>
      <trkpt lat="40.043350" lon="-5.606000">
        <ele>2018.0</ele>
        <time>2015-06-07T15:57:00Z</time>
      </trkpt>
      <trkpt lat="40.043367" lon="-5.606300">
        <ele>2022.0</ele>
        <time>2015-06-07T15:57:02Z</time>
      </trkpt>
      <trkpt lat="40.043350" lon="-5.606617">
        <ele>2024.0</ele>
        <time>2015-06-07T15:57:04Z</time>
      </trkpt>
      <trkpt lat="40.043300" lon="-5.606917">
        <ele>2026.0</ele>
        <time>2015-06-07T15:57:06Z</time>
      </trkpt>
      <trkpt lat="40.043267" lon="-5.607217">
        <ele>2027.0</ele>
        <time>2015-06-07T15:57:08Z</time>
      </trkpt>
      <trkpt lat="40.043250" lon="-5.607533">
        <ele>2027.0</ele>
        <time>2015-06-07T15:57:10Z</time>
      </trkpt>
      <trkpt lat="40.043217" lon="-5.607850">
        <ele>2027.0</ele>
        <time>2015-06-07T15:57:12Z</time>
      </trkpt>
      <trkpt lat="40.043200" lon="-5.608167">
        <ele>2027.0</ele>
        <time>2015-06-07T15:57:14Z</time>
      </trkpt>
      <trkpt lat="40.043167" lon="-5.608517">
        <ele>2028.0</ele>
        <time>2015-06-07T15:57:16Z</time>
      </trkpt>
      <trkpt lat="40.043133" lon="-5.608833">
        <ele>2031.0</ele>
        <time>2015-06-07T15:57:18Z</time>
      </trkpt>
      <trkpt lat="40.043100" lon="-5.609150">
        <ele>2031.0</ele>
        <time>2015-06-07T15:57:20Z</time>
      </trkpt>
      <trkpt lat="40.043050" lon="-5.609517">
        <ele>2031.0</ele>
        <time>2015-06-07T15:57:22Z</time>
      </trkpt>
      <trkpt lat="40.043000" lon="-5.609900">
        <ele>2035.0</ele>
        <time>2015-06-07T15:57:24Z</time>
      </trkpt>
      <trkpt lat="40.042967" lon="-5.610250">
        <ele>2040.0</ele>
        <time>2015-06-07T15:57:26Z</time>
      </trkpt>
      <trkpt lat="40.042900" lon="-5.610583">
        <ele>2044.0</ele>
        <time>2015-06-07T15:57:28Z</time>
      </trkpt>
      <trkpt lat="40.042833" lon="-5.610933">
        <ele>2048.0</ele>
        <time>2015-06-07T15:57:30Z</time>
      </trkpt>
      <trkpt lat="40.042750" lon="-5.611233">
        <ele>2055.0</ele>
        <time>2015-06-07T15:57:32Z</time>
      </trkpt>
      <trkpt lat="40.042683" lon="-5.611450">
        <ele>2061.0</ele>
        <time>2015-06-07T15:57:34Z</time>
      </trkpt>
      <trkpt lat="40.042650" lon="-5.611700">
        <ele>2061.0</ele>
        <time>2015-06-07T15:57:36Z</time>
      </trkpt>
      <trkpt lat="40.042617" lon="-5.612017">
        <ele>2060.0</ele>
        <time>2015-06-07T15:57:38Z</time>
      </trkpt>
      <trkpt lat="40.042600" lon="-5.612350">
        <ele>2064.0</ele>
        <time>2015-06-07T15:57:40Z</time>
      </trkpt>
      <trkpt lat="40.042567" lon="-5.612633">
        <ele>2068.0</ele>
        <time>2015-06-07T15:57:42Z</time>
      </trkpt>
      <trkpt lat="40.042550" lon="-5.612950">
        <ele>2070.0</ele>
        <time>2015-06-07T15:57:44Z</time>
      </trkpt>
      <trkpt lat="40.042517" lon="-5.613250">
        <ele>2074.0</ele>
        <time>2015-06-07T15:57:46Z</time>
      </trkpt>
      <trkpt lat="40.042517" lon="-5.613517">
        <ele>2077.0</ele>
        <time>2015-06-07T15:57:48Z</time>
      </trkpt>
      <trkpt lat="40.042533" lon="-5.613817">
        <ele>2077.0</ele>
        <time>2015-06-07T15:57:50Z</time>
      </trkpt>
      <trkpt lat="40.042533" lon="-5.614133">
        <ele>2078.0</ele>
        <time>2015-06-07T15:57:52Z</time>
      </trkpt>
      <trkpt lat="40.042533" lon="-5.614417">
        <ele>2078.0</ele>
        <time>2015-06-07T15:57:54Z</time>
      </trkpt>
      <trkpt lat="40.042533" lon="-5.614733">
        <ele>2078.0</ele>
        <time>2015-06-07T15:57:56Z</time>
      </trkpt>
      <trkpt lat="40.042550" lon="-5.615033">
        <ele>2078.0</ele>
        <time>2015-06-07T15:57:58Z</time>
      </trkpt>
      <trkpt lat="40.042567" lon="-5.615350">
        <ele>2080.0</ele>
        <time>2015-06-07T15:58:00Z</time>
      </trkpt>
      <trkpt lat="40.042567" lon="-5.615633">
        <ele>2082.0</ele>
        <time>2015-06-07T15:58:02Z</time>
      </trkpt>
      <trkpt lat="40.042583" lon="-5.615917">
        <ele>2082.0</ele>
        <time>2015-06-07T15:58:04Z</time>
      </trkpt>
      <trkpt lat="40.042583" lon="-5.616233">
        <ele>2083.0</ele>
        <time>2015-06-07T15:58:06Z</time>
      </trkpt>
      <trkpt lat="40.042583" lon="-5.616483">
        <ele>2086.0</ele>
        <time>2015-06-07T15:58:08Z</time>
      </trkpt>
      <trkpt lat="40.042567" lon="-5.616750">
        <ele>2087.0</ele>
        <time>2015-06-07T15:58:10Z</time>
      </trkpt>
      <trkpt lat="40.042567" lon="-5.617050">
        <ele>2087.0</ele>
        <time>2015-06-07T15:58:12Z</time>
      </trkpt>
      <trkpt lat="40.042550" lon="-5.617333">
        <ele>2088.0</ele>
        <time>2015-06-07T15:58:14Z</time>
      </trkpt>
      <trkpt lat="40.042517" lon="-5.617633">
        <ele>2089.0</ele>
        <time>2015-06-07T15:58:16Z</time>
      </trkpt>
      <trkpt lat="40.042483" lon="-5.617950">
        <ele>2089.0</ele>
        <time>2015-06-07T15:58:18Z</time>
      </trkpt>
      <trkpt lat="40.042433" lon="-5.618250">
        <ele>2090.0</ele>
        <time>2015-06-07T15:58:20Z</time>
      </trkpt>
      <trkpt lat="40.042383" lon="-5.618550">
        <ele>2091.0</ele>
        <time>2015-06-07T15:58:22Z</time>
      </trkpt>
      <trkpt lat="40.042333" lon="-5.618850">
        <ele>2091.0</ele>
        <time>2015-06-07T15:58:24Z</time>
      </trkpt>
      <trkpt lat="40.042267" lon="-5.619150">
        <ele>2092.0</ele>
        <time>2015-06-07T15:58:26Z</time>
      </trkpt>
      <trkpt lat="40.042217" lon="-5.619467">
        <ele>2091.0</ele>
        <time>2015-06-07T15:58:28Z</time>
      </trkpt>
      <trkpt lat="40.042167" lon="-5.619783">
        <ele>2092.0</ele>
        <time>2015-06-07T15:58:30Z</time>
      </trkpt>
      <trkpt lat="40.042100" lon="-5.620083">
        <ele>2094.0</ele>
        <time>2015-06-07T15:58:32Z</time>
      </trkpt>
      <trkpt lat="40.042050" lon="-5.620367">
        <ele>2095.0</ele>
        <time>2015-06-07T15:58:34Z</time>
      </trkpt>
      <trkpt lat="40.041983" lon="-5.620633">
        <ele>2095.0</ele>
        <time>2015-06-07T15:58:36Z</time>
      </trkpt>
      <trkpt lat="40.041917" lon="-5.620917">
        <ele>2094.0</ele>
        <time>2015-06-07T15:58:38Z</time>
      </trkpt>
      <trkpt lat="40.041833" lon="-5.621200">
        <ele>2096.0</ele>
        <time>2015-06-07T15:58:40Z</time>
      </trkpt>
      <trkpt lat="40.041750" lon="-5.621467">
        <ele>2098.0</ele>
        <time>2015-06-07T15:58:42Z</time>
      </trkpt>
      <trkpt lat="40.041667" lon="-5.621733">
        <ele>2098.0</ele>
        <time>2015-06-07T15:58:44Z</time>
      </trkpt>
      <trkpt lat="40.041567" lon="-5.622017">
        <ele>2099.0</ele>
        <time>2015-06-07T15:58:46Z</time>
      </trkpt>
      <trkpt lat="40.041483" lon="-5.622300">
        <ele>2102.0</ele>
        <time>2015-06-07T15:58:48Z</time>
      </trkpt>
      <trkpt lat="40.041417" lon="-5.622550">
        <ele>2103.0</ele>
        <time>2015-06-07T15:58:50Z</time>
      </trkpt>
      <trkpt lat="40.041333" lon="-5.622800">
        <ele>2100.0</ele>
        <time>2015-06-07T15:58:52Z</time>
      </trkpt>
      <trkpt lat="40.041250" lon="-5.623083">
        <ele>2096.0</ele>
        <time>2015-06-07T15:58:54Z</time>
      </trkpt>
      <trkpt lat="40.041150" lon="-5.623400">
        <ele>2096.0</ele>
        <time>2015-06-07T15:58:56Z</time>
      </trkpt>
      <trkpt lat="40.041083" lon="-5.623667">
        <ele>2098.0</ele>
        <time>2015-06-07T15:58:58Z</time>
      </trkpt>
      <trkpt lat="40.041017" lon="-5.623933">
        <ele>2097.0</ele>
        <time>2015-06-07T15:59:00Z</time>
      </trkpt>
      <trkpt lat="40.040983" lon="-5.624233">
        <ele>2096.0</ele>
        <time>2015-06-07T15:59:02Z</time>
      </trkpt>
      <trkpt lat="40.040967" lon="-5.624533">
        <ele>2096.0</ele>
        <time>2015-06-07T15:59:04Z</time>
      </trkpt>
      <trkpt lat="40.040933" lon="-5.624817">
        <ele>2095.0</ele>
        <time>2015-06-07T15:59:06Z</time>
      </trkpt>
      <trkpt lat="40.040917" lon="-5.625133">
        <ele>2093.0</ele>
        <time>2015-06-07T15:59:08Z</time>
      </trkpt>
      <trkpt lat="40.040883" lon="-5.625450">
        <ele>2094.0</ele>
        <time>2015-06-07T15:59:10Z</time>
      </trkpt>
      <trkpt lat="40.040850" lon="-5.625700">
        <ele>2094.0</ele>
        <time>2015-06-07T15:59:12Z</time>
      </trkpt>
      <trkpt lat="40.040800" lon="-5.625983">
        <ele>2088.0</ele>
        <time>2015-06-07T15:59:14Z</time>
      </trkpt>
      <trkpt lat="40.040767" lon="-5.626283">
        <ele>2085.0</ele>
        <time>2015-06-07T15:59:16Z</time>
      </trkpt>
      <trkpt lat="40.040717" lon="-5.626550">
        <ele>2084.0</ele>
        <time>2015-06-07T15:59:18Z</time>
      </trkpt>
      <trkpt lat="40.040650" lon="-5.626817">
        <ele>2080.0</ele>
        <time>2015-06-07T15:59:20Z</time>
      </trkpt>
      <trkpt lat="40.040600" lon="-5.627100">
        <ele>2075.0</ele>
        <time>2015-06-07T15:59:22Z</time>
      </trkpt>
      <trkpt lat="40.040533" lon="-5.627367">
        <ele>2073.0</ele>
        <time>2015-06-07T15:59:24Z</time>
      </trkpt>
      <trkpt lat="40.040483" lon="-5.627600">
        <ele>2070.0</ele>
        <time>2015-06-07T15:59:26Z</time>
      </trkpt>
      <trkpt lat="40.040417" lon="-5.627833">
        <ele>2065.0</ele>
        <time>2015-06-07T15:59:28Z</time>
      </trkpt>
      <trkpt lat="40.040367" lon="-5.628117">
        <ele>2060.0</ele>
        <time>2015-06-07T15:59:30Z</time>
      </trkpt>
      <trkpt lat="40.040300" lon="-5.628367">
        <ele>2058.0</ele>
        <time>2015-06-07T15:59:32Z</time>
      </trkpt>
      <trkpt lat="40.040233" lon="-5.628583">
        <ele>2055.0</ele>
        <time>2015-06-07T15:59:34Z</time>
      </trkpt>
      <trkpt lat="40.040167" lon="-5.628833">
        <ele>2049.0</ele>
        <time>2015-06-07T15:59:36Z</time>
      </trkpt>
      <trkpt lat="40.040100" lon="-5.629100">
        <ele>2043.0</ele>
        <time>2015-06-07T15:59:38Z</time>
      </trkpt>
      <trkpt lat="40.040033" lon="-5.629333">
        <ele>2040.0</ele>
        <time>2015-06-07T15:59:40Z</time>
      </trkpt>
      <trkpt lat="40.039967" lon="-5.629567">
        <ele>2034.0</ele>
        <time>2015-06-07T15:59:42Z</time>
      </trkpt>
      <trkpt lat="40.039917" lon="-5.629817">
        <ele>2029.0</ele>
        <time>2015-06-07T15:59:44Z</time>
      </trkpt>
      <trkpt lat="40.039883" lon="-5.630083">
        <ele>2026.0</ele>
        <time>2015-06-07T15:59:46Z</time>
      </trkpt>
      <trkpt lat="40.039833" lon="-5.630317">
        <ele>2022.0</ele>
        <time>2015-06-07T15:59:48Z</time>
      </trkpt>
      <trkpt lat="40.039783" lon="-5.630567">
        <ele>2017.0</ele>
        <time>2015-06-07T15:59:50Z</time>
      </trkpt>
      <trkpt lat="40.039717" lon="-5.630833">
        <ele>2012.0</ele>
        <time>2015-06-07T15:59:52Z</time>
      </trkpt>
      <trkpt lat="40.039650" lon="-5.631050">
        <ele>2009.0</ele>
        <time>2015-06-07T15:59:54Z</time>
      </trkpt>
      <trkpt lat="40.039600" lon="-5.631283">
        <ele>2002.0</ele>
        <time>2015-06-07T15:59:56Z</time>
      </trkpt>
      <trkpt lat="40.039533" lon="-5.631550">
        <ele>1997.0</ele>
        <time>2015-06-07T15:59:58Z</time>
      </trkpt>
      <trkpt lat="40.039483" lon="-5.631800">
        <ele>1994.0</ele>
        <time>2015-06-07T16:00:00Z</time>
      </trkpt>
      <trkpt lat="40.039433" lon="-5.632033">
        <ele>1989.0</ele>
        <time>2015-06-07T16:00:02Z</time>
      </trkpt>
      <trkpt lat="40.039383" lon="-5.632317">
        <ele>1983.0</ele>
        <time>2015-06-07T16:00:04Z</time>
      </trkpt>
      <trkpt lat="40.039317" lon="-5.632550">
        <ele>1979.0</ele>
        <time>2015-06-07T16:00:06Z</time>
      </trkpt>
      <trkpt lat="40.039267" lon="-5.632800">
        <ele>1973.0</ele>
        <time>2015-06-07T16:00:08Z</time>
      </trkpt>
      <trkpt lat="40.039217" lon="-5.633083">
        <ele>1967.0</ele>
        <time>2015-06-07T16:00:10Z</time>
      </trkpt>
      <trkpt lat="40.039133" lon="-5.633367">
        <ele>1963.0</ele>
        <time>2015-06-07T16:00:12Z</time>
      </trkpt>
      <trkpt lat="40.039067" lon="-5.633633">
        <ele>1960.0</ele>
        <time>2015-06-07T16:00:14Z</time>
      </trkpt>
      <trkpt lat="40.039000" lon="-5.633900">
        <ele>1957.0</ele>
        <time>2015-06-07T16:00:16Z</time>
      </trkpt>
      <trkpt lat="40.038917" lon="-5.634167">
        <ele>1954.0</ele>
        <time>2015-06-07T16:00:18Z</time>
      </trkpt>
      <trkpt lat="40.038850" lon="-5.634433">
        <ele>1948.0</ele>
        <time>2015-06-07T16:00:20Z</time>
      </trkpt>
      <trkpt lat="40.038800" lon="-5.634700">
        <ele>1942.0</ele>
        <time>2015-06-07T16:00:22Z</time>
      </trkpt>
      <trkpt lat="40.038733" lon="-5.634967">
        <ele>1938.0</ele>
        <time>2015-06-07T16:00:24Z</time>
      </trkpt>
      <trkpt lat="40.038667" lon="-5.635233">
        <ele>1932.0</ele>
        <time>2015-06-07T16:00:26Z</time>
      </trkpt>
      <trkpt lat="40.038600" lon="-5.635500">
        <ele>1926.0</ele>
        <time>2015-06-07T16:00:28Z</time>
      </trkpt>
      <trkpt lat="40.038533" lon="-5.635767">
        <ele>1920.0</ele>
        <time>2015-06-07T16:00:30Z</time>
      </trkpt>
      <trkpt lat="40.038450" lon="-5.636017">
        <ele>1915.0</ele>
        <time>2015-06-07T16:00:32Z</time>
      </trkpt>
      <trkpt lat="40.038367" lon="-5.636283">
        <ele>1907.0</ele>
        <time>2015-06-07T16:00:34Z</time>
      </trkpt>
      <trkpt lat="40.038233" lon="-5.636550">
        <ele>1900.0</ele>
        <time>2015-06-07T16:00:36Z</time>
      </trkpt>
      <trkpt lat="40.038117" lon="-5.636850">
        <ele>1896.0</ele>
        <time>2015-06-07T16:00:38Z</time>
      </trkpt>
      <trkpt lat="40.038033" lon="-5.637117">
        <ele>1896.0</ele>
        <time>2015-06-07T16:00:40Z</time>
      </trkpt>
      <trkpt lat="40.037917" lon="-5.637367">
        <ele>1896.0</ele>
        <time>2015-06-07T16:00:42Z</time>
      </trkpt>
      <trkpt lat="40.037817" lon="-5.637633">
        <ele>1895.0</ele>
        <time>2015-06-07T16:00:44Z</time>
      </trkpt>
      <trkpt lat="40.037700" lon="-5.637933">
        <ele>1897.0</ele>
        <time>2015-06-07T16:00:46Z</time>
      </trkpt>
      <trkpt lat="40.037550" lon="-5.638200">
        <ele>1901.0</ele>
        <time>2015-06-07T16:00:48Z</time>
      </trkpt>
      <trkpt lat="40.037400" lon="-5.638467">
        <ele>1905.0</ele>
        <time>2015-06-07T16:00:50Z</time>
      </trkpt>
      <trkpt lat="40.037283" lon="-5.638767">
        <ele>1909.0</ele>
        <time>2015-06-07T16:00:52Z</time>
      </trkpt>
      <trkpt lat="40.037217" lon="-5.639050">
        <ele>1913.0</ele>
        <time>2015-06-07T16:00:54Z</time>
      </trkpt>
      <trkpt lat="40.037267" lon="-5.639283">
        <ele>1916.0</ele>
        <time>2015-06-07T16:00:56Z</time>
      </trkpt>
      <trkpt lat="40.037367" lon="-5.639433">
        <ele>1922.0</ele>
        <time>2015-06-07T16:00:58Z</time>
      </trkpt>
      <trkpt lat="40.037433" lon="-5.639483">
        <ele>1929.0</ele>
        <time>2015-06-07T16:01:00Z</time>
      </trkpt>
      <trkpt lat="40.037467" lon="-5.639450">
        <ele>1931.0</ele>
        <time>2015-06-07T16:01:02Z</time>
      </trkpt>
      <trkpt lat="40.037467" lon="-5.639300">
        <ele>1933.0</ele>
        <time>2015-06-07T16:01:04Z</time>
      </trkpt>
      <trkpt lat="40.037367" lon="-5.639150">
        <ele>1937.0</ele>
        <time>2015-06-07T16:01:06Z</time>
      </trkpt>
      <trkpt lat="40.037167" lon="-5.639100">
        <ele>1941.0</ele>
        <time>2015-06-07T16:01:08Z</time>
      </trkpt>
      <trkpt lat="40.036950" lon="-5.639150">
        <ele>1942.0</ele>
        <time>2015-06-07T16:01:10Z</time>
      </trkpt>
      <trkpt lat="40.036700" lon="-5.639317">
        <ele>1943.0</ele>
        <time>2015-06-07T16:01:12Z</time>
      </trkpt>
      <trkpt lat="40.036500" lon="-5.639567">
        <ele>1947.0</ele>
        <time>2015-06-07T16:01:14Z</time>
      </trkpt>
      <trkpt lat="40.036333" lon="-5.639850">
        <ele>1949.0</ele>
        <time>2015-06-07T16:01:16Z</time>
      </trkpt>
      <trkpt lat="40.036217" lon="-5.640167">
        <ele>1950.0</ele>
        <time>2015-06-07T16:01:18Z</time>
      </trkpt>
      <trkpt lat="40.036150" lon="-5.640483">
        <ele>1953.0</ele>
        <time>2015-06-07T16:01:20Z</time>
      </trkpt>
      <trkpt lat="40.036133" lon="-5.640783">
        <ele>1957.0</ele>
        <time>2015-06-07T16:01:22Z</time>
      </trkpt>
      <trkpt lat="40.036117" lon="-5.641100">
        <ele>1960.0</ele>
        <time>2015-06-07T16:01:24Z</time>
      </trkpt>
      <trkpt lat="40.036033" lon="-5.641400">
        <ele>1968.0</ele>
        <time>2015-06-07T16:01:26Z</time>
      </trkpt>
      <trkpt lat="40.035883" lon="-5.641683">
        <ele>1974.0</ele>
        <time>2015-06-07T16:01:28Z</time>
      </trkpt>
      <trkpt lat="40.035767" lon="-5.641967">
        <ele>1980.0</ele>
        <time>2015-06-07T16:01:30Z</time>
      </trkpt>
      <trkpt lat="40.035700" lon="-5.642233">
        <ele>1984.0</ele>
        <time>2015-06-07T16:01:32Z</time>
      </trkpt>
      <trkpt lat="40.035667" lon="-5.642533">
        <ele>1986.0</ele>
        <time>2015-06-07T16:01:34Z</time>
      </trkpt>
      <trkpt lat="40.035667" lon="-5.642867">
        <ele>1988.0</ele>
        <time>2015-06-07T16:01:36Z</time>
      </trkpt>
      <trkpt lat="40.035583" lon="-5.643200">
        <ele>1994.0</ele>
        <time>2015-06-07T16:01:38Z</time>
      </trkpt>
      <trkpt lat="40.035467" lon="-5.643483">
        <ele>2002.0</ele>
        <time>2015-06-07T16:01:40Z</time>
      </trkpt>
      <trkpt lat="40.035400" lon="-5.643750">
        <ele>2002.0</ele>
        <time>2015-06-07T16:01:42Z</time>
      </trkpt>
      <trkpt lat="40.035317" lon="-5.644050">
        <ele>1998.0</ele>
        <time>2015-06-07T16:01:44Z</time>
      </trkpt>
      <trkpt lat="40.035283" lon="-5.644317">
        <ele>1998.0</ele>
        <time>2015-06-07T16:01:46Z</time>
      </trkpt>
      <trkpt lat="40.035267" lon="-5.644600">
        <ele>1994.0</ele>
        <time>2015-06-07T16:01:48Z</time>
      </trkpt>
      <trkpt lat="40.035233" lon="-5.644933">
        <ele>1991.0</ele>
        <time>2015-06-07T16:01:50Z</time>
      </trkpt>
      <trkpt lat="40.035183" lon="-5.645200">
        <ele>1991.0</ele>
        <time>2015-06-07T16:01:52Z</time>
      </trkpt>
      <trkpt lat="40.035167" lon="-5.645483">
        <ele>1987.0</ele>
        <time>2015-06-07T16:01:54Z</time>
      </trkpt>
      <trkpt lat="40.035117" lon="-5.645817">
        <ele>1982.0</ele>
        <time>2015-06-07T16:01:56Z</time>
      </trkpt>
      <trkpt lat="40.035100" lon="-5.646167">
        <ele>1980.0</ele>
        <time>2015-06-07T16:01:58Z</time>
      </trkpt>
      <trkpt lat="40.035100" lon="-5.646483">
        <ele>1981.0</ele>
        <time>2015-06-07T16:02:00Z</time>
      </trkpt>
      <trkpt lat="40.035067" lon="-5.646750">
        <ele>1981.0</ele>
        <time>2015-06-07T16:02:02Z</time>
      </trkpt>
      <trkpt lat="40.035033" lon="-5.647033">
        <ele>1978.0</ele>
        <time>2015-06-07T16:02:04Z</time>
      </trkpt>
      <trkpt lat="40.035000" lon="-5.647350">
        <ele>1973.0</ele>
        <time>2015-06-07T16:02:06Z</time>
      </trkpt>
      <trkpt lat="40.034967" lon="-5.647650">
        <ele>1972.0</ele>
        <time>2015-06-07T16:02:08Z</time>
      </trkpt>
      <trkpt lat="40.034933" lon="-5.647950">
        <ele>1970.0</ele>
        <time>2015-06-07T16:02:10Z</time>
      </trkpt>
      <trkpt lat="40.034917" lon="-5.648267">
        <ele>1967.0</ele>
        <time>2015-06-07T16:02:12Z</time>
      </trkpt>
      <trkpt lat="40.034900" lon="-5.648583">
        <ele>1966.0</ele>
        <time>2015-06-07T16:02:14Z</time>
      </trkpt>
      <trkpt lat="40.034883" lon="-5.648883">
        <ele>1965.0</ele>
        <time>2015-06-07T16:02:16Z</time>
      </trkpt>
      <trkpt lat="40.034850" lon="-5.649183">
        <ele>1965.0</ele>
        <time>2015-06-07T16:02:18Z</time>
      </trkpt>
      <trkpt lat="40.034817" lon="-5.649483">
        <ele>1966.0</ele>
        <time>2015-06-07T16:02:20Z</time>
      </trkpt>
      <trkpt lat="40.034783" lon="-5.649783">
        <ele>1967.0</ele>
        <time>2015-06-07T16:02:22Z</time>
      </trkpt>
      <trkpt lat="40.034750" lon="-5.650083">
        <ele>1968.0</ele>
        <time>2015-06-07T16:02:24Z</time>
      </trkpt>
      <trkpt lat="40.034733" lon="-5.650400">
        <ele>1969.0</ele>
        <time>2015-06-07T16:02:26Z</time>
      </trkpt>
      <trkpt lat="40.034717" lon="-5.650700">
        <ele>1970.0</ele>
        <time>2015-06-07T16:02:28Z</time>
      </trkpt>
      <trkpt lat="40.034650" lon="-5.651033">
        <ele>1971.0</ele>
        <time>2015-06-07T16:02:30Z</time>
      </trkpt>
      <trkpt lat="40.034617" lon="-5.651333">
        <ele>1973.0</ele>
        <time>2015-06-07T16:02:32Z</time>
      </trkpt>
      <trkpt lat="40.034567" lon="-5.651633">
        <ele>1975.0</ele>
        <time>2015-06-07T16:02:34Z</time>
      </trkpt>
      <trkpt lat="40.034517" lon="-5.651917">
        <ele>1977.0</ele>
        <time>2015-06-07T16:02:36Z</time>
      </trkpt>
      <trkpt lat="40.034483" lon="-5.652167">
        <ele>1977.0</ele>
        <time>2015-06-07T16:02:38Z</time>
      </trkpt>
      <trkpt lat="40.034467" lon="-5.652450">
        <ele>1974.0</ele>
        <time>2015-06-07T16:02:40Z</time>
      </trkpt>
      <trkpt lat="40.034417" lon="-5.652767">
        <ele>1971.0</ele>
        <time>2015-06-07T16:02:42Z</time>
      </trkpt>
      <trkpt lat="40.034383" lon="-5.653067">
        <ele>1971.0</ele>
        <time>2015-06-07T16:02:44Z</time>
      </trkpt>
      <trkpt lat="40.034333" lon="-5.653367">
        <ele>1972.0</ele>
        <time>2015-06-07T16:02:46Z</time>
      </trkpt>
      <trkpt lat="40.034267" lon="-5.653650">
        <ele>1971.0</ele>
        <time>2015-06-07T16:02:48Z</time>
      </trkpt>
      <trkpt lat="40.034200" lon="-5.653967">
        <ele>1972.0</ele>
        <time>2015-06-07T16:02:50Z</time>
      </trkpt>
      <trkpt lat="40.034133" lon="-5.654250">
        <ele>1973.0</ele>
        <time>2015-06-07T16:02:52Z</time>
      </trkpt>
      <trkpt lat="40.034050" lon="-5.654550">
        <ele>1973.0</ele>
        <time>2015-06-07T16:02:54Z</time>
      </trkpt>
      <trkpt lat="40.033967" lon="-5.654867">
        <ele>1973.0</ele>
        <time>2015-06-07T16:02:56Z</time>
      </trkpt>
      <trkpt lat="40.033900" lon="-5.655167">
        <ele>1976.0</ele>
        <time>2015-06-07T16:02:58Z</time>
      </trkpt>
      <trkpt lat="40.033800" lon="-5.655417">
        <ele>1977.0</ele>
        <time>2015-06-07T16:03:00Z</time>
      </trkpt>
      <trkpt lat="40.033717" lon="-5.655733">
        <ele>1978.0</ele>
        <time>2015-06-07T16:03:02Z</time>
      </trkpt>
      <trkpt lat="40.033617" lon="-5.656017">
        <ele>1983.0</ele>
        <time>2015-06-07T16:03:04Z</time>
      </trkpt>
      <trkpt lat="40.033533" lon="-5.656250">
        <ele>1984.0</ele>
        <time>2015-06-07T16:03:06Z</time>
      </trkpt>
      <trkpt lat="40.033433" lon="-5.656533">
        <ele>1980.0</ele>
        <time>2015-06-07T16:03:08Z</time>
      </trkpt>
      <trkpt lat="40.033333" lon="-5.656850">
        <ele>1980.0</ele>
        <time>2015-06-07T16:03:10Z</time>
      </trkpt>
      <trkpt lat="40.033233" lon="-5.657133">
        <ele>1982.0</ele>
        <time>2015-06-07T16:03:12Z</time>
      </trkpt>
      <trkpt lat="40.033150" lon="-5.657417">
        <ele>1981.0</ele>
        <time>2015-06-07T16:03:14Z</time>
      </trkpt>
      <trkpt lat="40.033050" lon="-5.657733">
        <ele>1979.0</ele>
        <time>2015-06-07T16:03:16Z</time>
      </trkpt>
      <trkpt lat="40.032967" lon="-5.658050">
        <ele>1979.0</ele>
        <time>2015-06-07T16:03:18Z</time>
      </trkpt>
      <trkpt lat="40.032883" lon="-5.658367">
        <ele>1978.0</ele>
        <time>2015-06-07T16:03:20Z</time>
      </trkpt>
      <trkpt lat="40.032800" lon="-5.658683">
        <ele>1979.0</ele>
        <time>2015-06-07T16:03:22Z</time>
      </trkpt>
      <trkpt lat="40.032717" lon="-5.658983">
        <ele>1978.0</ele>
        <time>2015-06-07T16:03:24Z</time>
      </trkpt>
      <trkpt lat="40.032617" lon="-5.659283">
        <ele>1977.0</ele>
        <time>2015-06-07T16:03:26Z</time>
      </trkpt>
      <trkpt lat="40.032533" lon="-5.659600">
        <ele>1976.0</ele>
        <time>2015-06-07T16:03:28Z</time>
      </trkpt>
      <trkpt lat="40.032450" lon="-5.659933">
        <ele>1976.0</ele>
        <time>2015-06-07T16:03:30Z</time>
      </trkpt>
      <trkpt lat="40.032367" lon="-5.660250">
        <ele>1974.0</ele>
        <time>2015-06-07T16:03:32Z</time>
      </trkpt>
      <trkpt lat="40.032300" lon="-5.660583">
        <ele>1971.0</ele>
        <time>2015-06-07T16:03:34Z</time>
      </trkpt>
      <trkpt lat="40.032250" lon="-5.660933">
        <ele>1970.0</ele>
        <time>2015-06-07T16:03:36Z</time>
      </trkpt>
      <trkpt lat="40.032183" lon="-5.661267">
        <ele>1968.0</ele>
        <time>2015-06-07T16:03:38Z</time>
      </trkpt>
      <trkpt lat="40.032117" lon="-5.661600">
        <ele>1966.0</ele>
        <time>2015-06-07T16:03:40Z</time>
      </trkpt>
      <trkpt lat="40.032067" lon="-5.661967">
        <ele>1963.0</ele>
        <time>2015-06-07T16:03:42Z</time>
      </trkpt>
      <trkpt lat="40.032017" lon="-5.662300">
        <ele>1961.0</ele>
        <time>2015-06-07T16:03:44Z</time>
      </trkpt>
      <trkpt lat="40.031983" lon="-5.662633">
        <ele>1959.0</ele>
        <time>2015-06-07T16:03:46Z</time>
      </trkpt>
      <trkpt lat="40.031933" lon="-5.662967">
        <ele>1956.0</ele>
        <time>2015-06-07T16:03:48Z</time>
      </trkpt>
      <trkpt lat="40.031867" lon="-5.663300">
        <ele>1952.0</ele>
        <time>2015-06-07T16:03:50Z</time>
      </trkpt>
      <trkpt lat="40.031817" lon="-5.663633">
        <ele>1950.0</ele>
        <time>2015-06-07T16:03:52Z</time>
      </trkpt>
      <trkpt lat="40.031767" lon="-5.663983">
        <ele>1947.0</ele>
        <time>2015-06-07T16:03:54Z</time>
      </trkpt>
      <trkpt lat="40.031717" lon="-5.664350">
        <ele>1945.0</ele>
        <time>2015-06-07T16:03:56Z</time>
      </trkpt>
      <trkpt lat="40.031683" lon="-5.664717">
        <ele>1946.0</ele>
        <time>2015-06-07T16:03:58Z</time>
      </trkpt>
      <trkpt lat="40.031650" lon="-5.665067">
        <ele>1945.0</ele>
        <time>2015-06-07T16:04:00Z</time>
      </trkpt>
      <trkpt lat="40.031633" lon="-5.665400">
        <ele>1944.0</ele>
        <time>2015-06-07T16:04:02Z</time>
      </trkpt>
      <trkpt lat="40.031617" lon="-5.665733">
        <ele>1941.0</ele>
        <time>2015-06-07T16:04:04Z</time>
      </trkpt>
      <trkpt lat="40.031600" lon="-5.666067">
        <ele>1938.0</ele>
        <time>2015-06-07T16:04:06Z</time>
      </trkpt>
      <trkpt lat="40.031567" lon="-5.666400">
        <ele>1936.0</ele>
        <time>2015-06-07T16:04:08Z</time>
      </trkpt>
      <trkpt lat="40.031517" lon="-5.666733">
        <ele>1935.0</ele>
        <time>2015-06-07T16:04:10Z</time>
      </trkpt>
      <trkpt lat="40.031483" lon="-5.667050">
        <ele>1933.0</ele>
        <time>2015-06-07T16:04:12Z</time>
      </trkpt>
      <trkpt lat="40.031433" lon="-5.667350">
        <ele>1931.0</ele>
        <time>2015-06-07T16:04:14Z</time>
      </trkpt>
      <trkpt lat="40.031400" lon="-5.667650">
        <ele>1927.0</ele>
        <time>2015-06-07T16:04:16Z</time>
      </trkpt>
      <trkpt lat="40.031350" lon="-5.668000">
        <ele>1922.0</ele>
        <time>2015-06-07T16:04:18Z</time>
      </trkpt>
      <trkpt lat="40.031283" lon="-5.668350">
        <ele>1919.0</ele>
        <time>2015-06-07T16:04:20Z</time>
      </trkpt>
      <trkpt lat="40.031233" lon="-5.668667">
        <ele>1915.0</ele>
        <time>2015-06-07T16:04:22Z</time>
      </trkpt>
      <trkpt lat="40.031167" lon="-5.669017">
        <ele>1910.0</ele>
        <time>2015-06-07T16:04:24Z</time>
      </trkpt>
      <trkpt lat="40.031083" lon="-5.669367">
        <ele>1907.0</ele>
        <time>2015-06-07T16:04:26Z</time>
      </trkpt>
      <trkpt lat="40.031017" lon="-5.669683">
        <ele>1904.0</ele>
        <time>2015-06-07T16:04:28Z</time>
      </trkpt>
      <trkpt lat="40.030967" lon="-5.670017">
        <ele>1898.0</ele>
        <time>2015-06-07T16:04:30Z</time>
      </trkpt>
      <trkpt lat="40.030917" lon="-5.670383">
        <ele>1894.0</ele>
        <time>2015-06-07T16:04:32Z</time>
      </trkpt>
      <trkpt lat="40.030867" lon="-5.670717">
        <ele>1892.0</ele>
        <time>2015-06-07T16:04:34Z</time>
      </trkpt>
      <trkpt lat="40.030817" lon="-5.671017">
        <ele>1889.0</ele>
        <time>2015-06-07T16:04:36Z</time>
      </trkpt>
      <trkpt lat="40.030750" lon="-5.671350">
        <ele>1884.0</ele>
        <time>2015-06-07T16:04:38Z</time>
      </trkpt>
      <trkpt lat="40.030683" lon="-5.671650">
        <ele>1883.0</ele>
        <time>2015-06-07T16:04:40Z</time>
      </trkpt>
      <trkpt lat="40.030633" lon="-5.671950">
        <ele>1880.0</ele>
        <time>2015-06-07T16:04:42Z</time>
      </trkpt>
      <trkpt lat="40.030600" lon="-5.672283">
        <ele>1876.0</ele>
        <time>2015-06-07T16:04:44Z</time>
      </trkpt>
      <trkpt lat="40.030567" lon="-5.672567">
        <ele>1878.0</ele>
        <time>2015-06-07T16:04:46Z</time>
      </trkpt>
      <trkpt lat="40.030517" lon="-5.672817">
        <ele>1878.0</ele>
        <time>2015-06-07T16:04:48Z</time>
      </trkpt>
      <trkpt lat="40.030450" lon="-5.673083">
        <ele>1874.0</ele>
        <time>2015-06-07T16:04:50Z</time>
      </trkpt>
      <trkpt lat="40.030383" lon="-5.673367">
        <ele>1870.0</ele>
        <time>2015-06-07T16:04:52Z</time>
      </trkpt>
      <trkpt lat="40.030333" lon="-5.673633">
        <ele>1866.0</ele>
        <time>2015-06-07T16:04:54Z</time>
      </trkpt>
      <trkpt lat="40.030283" lon="-5.673900">
        <ele>1861.0</ele>
        <time>2015-06-07T16:04:56Z</time>
      </trkpt>
      <trkpt lat="40.030233" lon="-5.674217">
        <ele>1856.0</ele>
        <time>2015-06-07T16:04:58Z</time>
      </trkpt>
      <trkpt lat="40.030233" lon="-5.674517">
        <ele>1855.0</ele>
        <time>2015-06-07T16:05:00Z</time>
      </trkpt>
      <trkpt lat="40.030217" lon="-5.674783">
        <ele>1851.0</ele>
        <time>2015-06-07T16:05:02Z</time>
      </trkpt>
      <trkpt lat="40.030217" lon="-5.675083">
        <ele>1846.0</ele>
        <time>2015-06-07T16:05:04Z</time>
      </trkpt>
      <trkpt lat="40.030200" lon="-5.675367">
        <ele>1843.0</ele>
        <time>2015-06-07T16:05:06Z</time>
      </trkpt>
      <trkpt lat="40.030200" lon="-5.675650">
        <ele>1840.0</ele>
        <time>2015-06-07T16:05:08Z</time>
      </trkpt>
      <trkpt lat="40.030183" lon="-5.675917">
        <ele>1836.0</ele>
        <time>2015-06-07T16:05:10Z</time>
      </trkpt>
      <trkpt lat="40.030183" lon="-5.676200">
        <ele>1831.0</ele>
        <time>2015-06-07T16:05:12Z</time>
      </trkpt>
      <trkpt lat="40.030183" lon="-5.676483">
        <ele>1827.0</ele>
        <time>2015-06-07T16:05:14Z</time>
      </trkpt>
      <trkpt lat="40.030167" lon="-5.676750">
        <ele>1822.0</ele>
        <time>2015-06-07T16:05:16Z</time>
      </trkpt>
      <trkpt lat="40.030150" lon="-5.677017">
        <ele>1816.0</ele>
        <time>2015-06-07T16:05:18Z</time>
      </trkpt>
      <trkpt lat="40.030150" lon="-5.677300">
        <ele>1809.0</ele>
        <time>2015-06-07T16:05:20Z</time>
      </trkpt>
      <trkpt lat="40.030133" lon="-5.677567">
        <ele>1803.0</ele>
        <time>2015-06-07T16:05:22Z</time>
      </trkpt>
      <trkpt lat="40.030133" lon="-5.677817">
        <ele>1794.0</ele>
        <time>2015-06-07T16:05:24Z</time>
      </trkpt>
      <trkpt lat="40.030133" lon="-5.678067">
        <ele>1783.0</ele>
        <time>2015-06-07T16:05:26Z</time>
      </trkpt>
      <trkpt lat="40.030167" lon="-5.678367">
        <ele>1773.0</ele>
        <time>2015-06-07T16:05:28Z</time>
      </trkpt>
      <trkpt lat="40.030200" lon="-5.678667">
        <ele>1766.0</ele>
        <time>2015-06-07T16:05:30Z</time>
      </trkpt>
      <trkpt lat="40.030217" lon="-5.679000">
        <ele>1759.0</ele>
        <time>2015-06-07T16:05:32Z</time>
      </trkpt>
      <trkpt lat="40.030217" lon="-5.679333">
        <ele>1761.0</ele>
        <time>2015-06-07T16:05:34Z</time>
      </trkpt>
      <trkpt lat="40.030233" lon="-5.679600">
        <ele>1764.0</ele>
        <time>2015-06-07T16:05:36Z</time>
      </trkpt>
      <trkpt lat="40.030267" lon="-5.679850">
        <ele>1762.0</ele>
        <time>2015-06-07T16:05:38Z</time>
      </trkpt>
      <trkpt lat="40.030317" lon="-5.680150">
        <ele>1760.0</ele>
        <time>2015-06-07T16:05:40Z</time>
      </trkpt>
      <trkpt lat="40.030333" lon="-5.680417">
        <ele>1762.0</ele>
        <time>2015-06-07T16:05:42Z</time>
      </trkpt>
      <trkpt lat="40.030367" lon="-5.680667">
        <ele>1762.0</ele>
        <time>2015-06-07T16:05:44Z</time>
      </trkpt>
      <trkpt lat="40.030400" lon="-5.680950">
        <ele>1760.0</ele>
        <time>2015-06-07T16:05:46Z</time>
      </trkpt>
      <trkpt lat="40.030433" lon="-5.681233">
        <ele>1762.0</ele>
        <time>2015-06-07T16:05:48Z</time>
      </trkpt>
      <trkpt lat="40.030450" lon="-5.681517">
        <ele>1761.0</ele>
        <time>2015-06-07T16:05:50Z</time>
      </trkpt>
      <trkpt lat="40.030467" lon="-5.681833">
        <ele>1760.0</ele>
        <time>2015-06-07T16:05:52Z</time>
      </trkpt>
      <trkpt lat="40.030483" lon="-5.682150">
        <ele>1760.0</ele>
        <time>2015-06-07T16:05:54Z</time>
      </trkpt>
      <trkpt lat="40.030483" lon="-5.682450">
        <ele>1759.0</ele>
        <time>2015-06-07T16:05:56Z</time>
      </trkpt>
      <trkpt lat="40.030483" lon="-5.682783">
        <ele>1758.0</ele>
        <time>2015-06-07T16:05:58Z</time>
      </trkpt>
      <trkpt lat="40.030433" lon="-5.683117">
        <ele>1759.0</ele>
        <time>2015-06-07T16:06:00Z</time>
      </trkpt>
      <trkpt lat="40.030417" lon="-5.683433">
        <ele>1761.0</ele>
        <time>2015-06-07T16:06:02Z</time>
      </trkpt>
      <trkpt lat="40.030383" lon="-5.683733">
        <ele>1762.0</ele>
        <time>2015-06-07T16:06:04Z</time>
      </trkpt>
      <trkpt lat="40.030350" lon="-5.684067">
        <ele>1763.0</ele>
        <time>2015-06-07T16:06:06Z</time>
      </trkpt>
      <trkpt lat="40.030317" lon="-5.684383">
        <ele>1765.0</ele>
        <time>2015-06-07T16:06:08Z</time>
      </trkpt>
      <trkpt lat="40.030233" lon="-5.684717">
        <ele>1769.0</ele>
        <time>2015-06-07T16:06:10Z</time>
      </trkpt>
      <trkpt lat="40.030150" lon="-5.685050">
        <ele>1773.0</ele>
        <time>2015-06-07T16:06:12Z</time>
      </trkpt>
      <trkpt lat="40.030067" lon="-5.685383">
        <ele>1778.0</ele>
        <time>2015-06-07T16:06:14Z</time>
      </trkpt>
      <trkpt lat="40.029967" lon="-5.685700">
        <ele>1786.0</ele>
        <time>2015-06-07T16:06:16Z</time>
      </trkpt>
      <trkpt lat="40.029867" lon="-5.685950">
        <ele>1792.0</ele>
        <time>2015-06-07T16:06:18Z</time>
      </trkpt>
      <trkpt lat="40.029767" lon="-5.686233">
        <ele>1795.0</ele>
        <time>2015-06-07T16:06:20Z</time>
      </trkpt>
      <trkpt lat="40.029683" lon="-5.686550">
        <ele>1799.0</ele>
        <time>2015-06-07T16:06:22Z</time>
      </trkpt>
      <trkpt lat="40.029600" lon="-5.686850">
        <ele>1803.0</ele>
        <time>2015-06-07T16:06:24Z</time>
      </trkpt>
      <trkpt lat="40.029533" lon="-5.687150">
        <ele>1806.0</ele>
        <time>2015-06-07T16:06:26Z</time>
      </trkpt>
      <trkpt lat="40.029500" lon="-5.687450">
        <ele>1810.0</ele>
        <time>2015-06-07T16:06:28Z</time>
      </trkpt>
      <trkpt lat="40.029500" lon="-5.687733">
        <ele>1814.0</ele>
        <time>2015-06-07T16:06:30Z</time>
      </trkpt>
      <trkpt lat="40.029500" lon="-5.688050">
        <ele>1817.0</ele>
        <time>2015-06-07T16:06:32Z</time>
      </trkpt>
      <trkpt lat="40.029517" lon="-5.688350">
        <ele>1824.0</ele>
        <time>2015-06-07T16:06:34Z</time>
      </trkpt>
      <trkpt lat="40.029517" lon="-5.688600">
        <ele>1829.0</ele>
        <time>2015-06-07T16:06:36Z</time>
      </trkpt>
      <trkpt lat="40.029517" lon="-5.688917">
        <ele>1832.0</ele>
        <time>2015-06-07T16:06:38Z</time>
      </trkpt>
      <trkpt lat="40.029483" lon="-5.689200">
        <ele>1838.0</ele>
        <time>2015-06-07T16:06:40Z</time>
      </trkpt>
      <trkpt lat="40.029450" lon="-5.689483">
        <ele>1843.0</ele>
        <time>2015-06-07T16:06:42Z</time>
      </trkpt>
      <trkpt lat="40.029417" lon="-5.689767">
        <ele>1846.0</ele>
        <time>2015-06-07T16:06:44Z</time>
      </trkpt>
      <trkpt lat="40.029383" lon="-5.690033">
        <ele>1851.0</ele>
        <time>2015-06-07T16:06:46Z</time>
      </trkpt>
      <trkpt lat="40.029350" lon="-5.690283">
        <ele>1854.0</ele>
        <time>2015-06-07T16:06:48Z</time>
      </trkpt>
      <trkpt lat="40.029317" lon="-5.690600">
        <ele>1852.0</ele>
        <time>2015-06-07T16:06:50Z</time>
      </trkpt>
      <trkpt lat="40.029300" lon="-5.690933">
        <ele>1857.0</ele>
        <time>2015-06-07T16:06:52Z</time>
      </trkpt>
      <trkpt lat="40.029283" lon="-5.691233">
        <ele>1863.0</ele>
        <time>2015-06-07T16:06:54Z</time>
      </trkpt>
      <trkpt lat="40.029233" lon="-5.691550">
        <ele>1865.0</ele>
        <time>2015-06-07T16:06:56Z</time>
      </trkpt>
      <trkpt lat="40.029167" lon="-5.691917">
        <ele>1868.0</ele>
        <time>2015-06-07T16:06:58Z</time>
      </trkpt>
      <trkpt lat="40.029117" lon="-5.692250">
        <ele>1873.0</ele>
        <time>2015-06-07T16:07:00Z</time>
      </trkpt>
      <trkpt lat="40.029067" lon="-5.692583">
        <ele>1877.0</ele>
        <time>2015-06-07T16:07:02Z</time>
      </trkpt>
      <trkpt lat="40.029067" lon="-5.692917">
        <ele>1879.0</ele>
        <time>2015-06-07T16:07:04Z</time>
      </trkpt>
      <trkpt lat="40.029050" lon="-5.693250">
        <ele>1885.0</ele>
        <time>2015-06-07T16:07:06Z</time>
      </trkpt>
      <trkpt lat="40.029017" lon="-5.693533">
        <ele>1890.0</ele>
        <time>2015-06-07T16:07:08Z</time>
      </trkpt>
      <trkpt lat="40.028983" lon="-5.693817">
        <ele>1891.0</ele>
        <time>2015-06-07T16:07:10Z</time>
      </trkpt>
      <trkpt lat="40.028967" lon="-5.694117">
        <ele>1891.0</ele>
        <time>2015-06-07T16:07:12Z</time>
      </trkpt>
      <trkpt lat="40.028967" lon="-5.694400">
        <ele>1892.0</ele>
        <time>2015-06-07T16:07:14Z</time>
      </trkpt>
      <trkpt lat="40.028967" lon="-5.694683">
        <ele>1891.0</ele>
        <time>2015-06-07T16:07:16Z</time>
      </trkpt>
      <trkpt lat="40.028950" lon="-5.694983">
        <ele>1892.0</ele>
        <time>2015-06-07T16:07:18Z</time>
      </trkpt>
      <trkpt lat="40.028933" lon="-5.695267">
        <ele>1892.0</ele>
        <time>2015-06-07T16:07:20Z</time>
      </trkpt>
      <trkpt lat="40.028900" lon="-5.695550">
        <ele>1893.0</ele>
        <time>2015-06-07T16:07:22Z</time>
      </trkpt>
      <trkpt lat="40.028850" lon="-5.695850">
        <ele>1894.0</ele>
        <time>2015-06-07T16:07:24Z</time>
      </trkpt>
      <trkpt lat="40.028800" lon="-5.696133">
        <ele>1893.0</ele>
        <time>2015-06-07T16:07:26Z</time>
      </trkpt>
      <trkpt lat="40.028717" lon="-5.696433">
        <ele>1891.0</ele>
        <time>2015-06-07T16:07:28Z</time>
      </trkpt>
      <trkpt lat="40.028650" lon="-5.696717">
        <ele>1888.0</ele>
        <time>2015-06-07T16:07:30Z</time>
      </trkpt>
      <trkpt lat="40.028583" lon="-5.697017">
        <ele>1886.0</ele>
        <time>2015-06-07T16:07:32Z</time>
      </trkpt>
      <trkpt lat="40.028500" lon="-5.697283">
        <ele>1884.0</ele>
        <time>2015-06-07T16:07:34Z</time>
      </trkpt>
      <trkpt lat="40.028433" lon="-5.697550">
        <ele>1882.0</ele>
        <time>2015-06-07T16:07:36Z</time>
      </trkpt>
      <trkpt lat="40.028350" lon="-5.697833">
        <ele>1880.0</ele>
        <time>2015-06-07T16:07:38Z</time>
      </trkpt>
      <trkpt lat="40.028283" lon="-5.698100">
        <ele>1877.0</ele>
        <time>2015-06-07T16:07:40Z</time>
      </trkpt>
      <trkpt lat="40.028233" lon="-5.698367">
        <ele>1873.0</ele>
        <time>2015-06-07T16:07:42Z</time>
      </trkpt>
      <trkpt lat="40.028183" lon="-5.698650">
        <ele>1870.0</ele>
        <time>2015-06-07T16:07:44Z</time>
      </trkpt>
      <trkpt lat="40.028133" lon="-5.698933">
        <ele>1866.0</ele>
        <time>2015-06-07T16:07:46Z</time>
      </trkpt>
      <trkpt lat="40.028083" lon="-5.699217">
        <ele>1861.0</ele>
        <time>2015-06-07T16:07:48Z</time>
      </trkpt>
      <trkpt lat="40.028050" lon="-5.699517">
        <ele>1858.0</ele>
        <time>2015-06-07T16:07:50Z</time>
      </trkpt>
      <trkpt lat="40.028017" lon="-5.699800">
        <ele>1854.0</ele>
        <time>2015-06-07T16:07:52Z</time>
      </trkpt>
      <trkpt lat="40.028000" lon="-5.700083">
        <ele>1849.0</ele>
        <time>2015-06-07T16:07:54Z</time>
      </trkpt>
      <trkpt lat="40.027950" lon="-5.700400">
        <ele>1844.0</ele>
        <time>2015-06-07T16:07:56Z</time>
      </trkpt>
      <trkpt lat="40.027900" lon="-5.700700">
        <ele>1841.0</ele>
        <time>2015-06-07T16:07:58Z</time>
      </trkpt>
      <trkpt lat="40.027867" lon="-5.700983">
        <ele>1838.0</ele>
        <time>2015-06-07T16:08:00Z</time>
      </trkpt>
      <trkpt lat="40.027817" lon="-5.701283">
        <ele>1832.0</ele>
        <time>2015-06-07T16:08:02Z</time>
      </trkpt>
      <trkpt lat="40.027767" lon="-5.701583">
        <ele>1828.0</ele>
        <time>2015-06-07T16:08:04Z</time>
      </trkpt>
      <trkpt lat="40.027733" lon="-5.701883">
        <ele>1825.0</ele>
        <time>2015-06-07T16:08:06Z</time>
      </trkpt>
      <trkpt lat="40.027700" lon="-5.702183">
        <ele>1821.0</ele>
        <time>2015-06-07T16:08:08Z</time>
      </trkpt>
      <trkpt lat="40.027700" lon="-5.702483">
        <ele>1818.0</ele>
        <time>2015-06-07T16:08:10Z</time>
      </trkpt>
      <trkpt lat="40.027700" lon="-5.702767">
        <ele>1816.0</ele>
        <time>2015-06-07T16:08:12Z</time>
      </trkpt>
      <trkpt lat="40.027717" lon="-5.703017">
        <ele>1813.0</ele>
        <time>2015-06-07T16:08:14Z</time>
      </trkpt>
      <trkpt lat="40.027700" lon="-5.703300">
        <ele>1806.0</ele>
        <time>2015-06-07T16:08:16Z</time>
      </trkpt>
      <trkpt lat="40.027700" lon="-5.703600">
        <ele>1803.0</ele>
        <time>2015-06-07T16:08:18Z</time>
      </trkpt>
      <trkpt lat="40.027700" lon="-5.703850">
        <ele>1799.0</ele>
        <time>2015-06-07T16:08:20Z</time>
      </trkpt>
      <trkpt lat="40.027683" lon="-5.704100">
        <ele>1794.0</ele>
        <time>2015-06-07T16:08:22Z</time>
      </trkpt>
      <trkpt lat="40.027683" lon="-5.704367">
        <ele>1789.0</ele>
        <time>2015-06-07T16:08:24Z</time>
      </trkpt>
      <trkpt lat="40.027683" lon="-5.704617">
        <ele>1787.0</ele>
        <time>2015-06-07T16:08:26Z</time>
      </trkpt>
      <trkpt lat="40.027683" lon="-5.704850">
        <ele>1783.0</ele>
        <time>2015-06-07T16:08:28Z</time>
      </trkpt>
      <trkpt lat="40.027667" lon="-5.705117">
        <ele>1780.0</ele>
        <time>2015-06-07T16:08:30Z</time>
      </trkpt>
      <trkpt lat="40.027600" lon="-5.705417">
        <ele>1778.0</ele>
        <time>2015-06-07T16:08:32Z</time>
      </trkpt>
      <trkpt lat="40.027550" lon="-5.705700">
        <ele>1777.0</ele>
        <time>2015-06-07T16:08:34Z</time>
      </trkpt>
      <trkpt lat="40.027500" lon="-5.705983">
        <ele>1777.0</ele>
        <time>2015-06-07T16:08:36Z</time>
      </trkpt>
      <trkpt lat="40.027467" lon="-5.706250">
        <ele>1777.0</ele>
        <time>2015-06-07T16:08:38Z</time>
      </trkpt>
      <trkpt lat="40.027433" lon="-5.706517">
        <ele>1775.0</ele>
        <time>2015-06-07T16:08:40Z</time>
      </trkpt>
      <trkpt lat="40.027417" lon="-5.706833">
        <ele>1775.0</ele>
        <time>2015-06-07T16:08:42Z</time>
      </trkpt>
      <trkpt lat="40.027383" lon="-5.707117">
        <ele>1779.0</ele>
        <time>2015-06-07T16:08:44Z</time>
      </trkpt>
      <trkpt lat="40.027317" lon="-5.707383">
        <ele>1782.0</ele>
        <time>2015-06-07T16:08:46Z</time>
      </trkpt>
      <trkpt lat="40.027250" lon="-5.707600">
        <ele>1782.0</ele>
        <time>2015-06-07T16:08:48Z</time>
      </trkpt>
      <trkpt lat="40.027217" lon="-5.707850">
        <ele>1777.0</ele>
        <time>2015-06-07T16:08:50Z</time>
      </trkpt>
      <trkpt lat="40.027167" lon="-5.708167">
        <ele>1772.0</ele>
        <time>2015-06-07T16:08:52Z</time>
      </trkpt>
      <trkpt lat="40.027117" lon="-5.708500">
        <ele>1770.0</ele>
        <time>2015-06-07T16:08:54Z</time>
      </trkpt>
      <trkpt lat="40.027050" lon="-5.708800">
        <ele>1769.0</ele>
        <time>2015-06-07T16:08:56Z</time>
      </trkpt>
      <trkpt lat="40.027017" lon="-5.709133">
        <ele>1767.0</ele>
        <time>2015-06-07T16:08:58Z</time>
      </trkpt>
      <trkpt lat="40.026983" lon="-5.709483">
        <ele>1765.0</ele>
        <time>2015-06-07T16:09:00Z</time>
      </trkpt>
      <trkpt lat="40.026950" lon="-5.709817">
        <ele>1763.0</ele>
        <time>2015-06-07T16:09:02Z</time>
      </trkpt>
      <trkpt lat="40.026900" lon="-5.710183">
        <ele>1760.0</ele>
        <time>2015-06-07T16:09:04Z</time>
      </trkpt>
      <trkpt lat="40.026867" lon="-5.710533">
        <ele>1759.0</ele>
        <time>2015-06-07T16:09:06Z</time>
      </trkpt>
      <trkpt lat="40.026850" lon="-5.710883">
        <ele>1758.0</ele>
        <time>2015-06-07T16:09:08Z</time>
      </trkpt>
      <trkpt lat="40.026817" lon="-5.711233">
        <ele>1754.0</ele>
        <time>2015-06-07T16:09:10Z</time>
      </trkpt>
      <trkpt lat="40.026817" lon="-5.711617">
        <ele>1754.0</ele>
        <time>2015-06-07T16:09:12Z</time>
      </trkpt>
      <trkpt lat="40.026783" lon="-5.711967">
        <ele>1758.0</ele>
        <time>2015-06-07T16:09:14Z</time>
      </trkpt>
      <trkpt lat="40.026717" lon="-5.712250">
        <ele>1759.0</ele>
        <time>2015-06-07T16:09:16Z</time>
      </trkpt>
      <trkpt lat="40.026667" lon="-5.712567">
        <ele>1753.0</ele>
        <time>2015-06-07T16:09:18Z</time>
      </trkpt>
      <trkpt lat="40.026633" lon="-5.712967">
        <ele>1747.0</ele>
        <time>2015-06-07T16:09:20Z</time>
      </trkpt>
      <trkpt lat="40.026567" lon="-5.713333">
        <ele>1749.0</ele>
        <time>2015-06-07T16:09:22Z</time>
      </trkpt>
      <trkpt lat="40.026517" lon="-5.713650">
        <ele>1747.0</ele>
        <time>2015-06-07T16:09:24Z</time>
      </trkpt>
      <trkpt lat="40.026467" lon="-5.714033">
        <ele>1744.0</ele>
        <time>2015-06-07T16:09:26Z</time>
      </trkpt>
      <trkpt lat="40.026400" lon="-5.714417">
        <ele>1743.0</ele>
        <time>2015-06-07T16:09:28Z</time>
      </trkpt>
      <trkpt lat="40.026350" lon="-5.714750">
        <ele>1741.0</ele>
        <time>2015-06-07T16:09:30Z</time>
      </trkpt>
      <trkpt lat="40.026333" lon="-5.715100">
        <ele>1735.0</ele>
        <time>2015-06-07T16:09:32Z</time>
      </trkpt>
      <trkpt lat="40.026317" lon="-5.715500">
        <ele>1732.0</ele>
        <time>2015-06-07T16:09:34Z</time>
      </trkpt>
      <trkpt lat="40.026283" lon="-5.715850">
        <ele>1728.0</ele>
        <time>2015-06-07T16:09:36Z</time>
      </trkpt>
      <trkpt lat="40.026267" lon="-5.716233">
        <ele>1724.0</ele>
        <time>2015-06-07T16:09:38Z</time>
      </trkpt>
      <trkpt lat="40.026250" lon="-5.716583">
        <ele>1723.0</ele>
        <time>2015-06-07T16:09:40Z</time>
      </trkpt>
      <trkpt lat="40.026217" lon="-5.716917">
        <ele>1718.0</ele>
        <time>2015-06-07T16:09:42Z</time>
      </trkpt>
      <trkpt lat="40.026217" lon="-5.717317">
        <ele>1710.0</ele>
        <time>2015-06-07T16:09:44Z</time>
      </trkpt>
      <trkpt lat="40.026200" lon="-5.717700">
        <ele>1708.0</ele>
        <time>2015-06-07T16:09:46Z</time>
      </trkpt>
      <trkpt lat="40.026183" lon="-5.718033">
        <ele>1704.0</ele>
        <time>2015-06-07T16:09:48Z</time>
      </trkpt>
      <trkpt lat="40.026183" lon="-5.718383">
        <ele>1698.0</ele>
        <time>2015-06-07T16:09:50Z</time>
      </trkpt>
      <trkpt lat="40.026200" lon="-5.718733">
        <ele>1695.0</ele>
        <time>2015-06-07T16:09:52Z</time>
      </trkpt>
      <trkpt lat="40.026200" lon="-5.719050">
        <ele>1693.0</ele>
        <time>2015-06-07T16:09:54Z</time>
      </trkpt>
      <trkpt lat="40.026200" lon="-5.719367">
        <ele>1689.0</ele>
        <time>2015-06-07T16:09:56Z</time>
      </trkpt>
      <trkpt lat="40.026200" lon="-5.719700">
        <ele>1686.0</ele>
        <time>2015-06-07T16:09:58Z</time>
      </trkpt>
      <trkpt lat="40.026200" lon="-5.720033">
        <ele>1683.0</ele>
        <time>2015-06-07T16:10:00Z</time>
      </trkpt>
      <trkpt lat="40.026200" lon="-5.720350">
        <ele>1680.0</ele>
        <time>2015-06-07T16:10:02Z</time>
      </trkpt>
      <trkpt lat="40.026200" lon="-5.720683">
        <ele>1677.0</ele>
        <time>2015-06-07T16:10:04Z</time>
      </trkpt>
      <trkpt lat="40.026200" lon="-5.721017">
        <ele>1676.0</ele>
        <time>2015-06-07T16:10:06Z</time>
      </trkpt>
      <trkpt lat="40.026183" lon="-5.721367">
        <ele>1676.0</ele>
        <time>2015-06-07T16:10:08Z</time>
      </trkpt>
      <trkpt lat="40.026167" lon="-5.721717">
        <ele>1674.0</ele>
        <time>2015-06-07T16:10:10Z</time>
      </trkpt>
      <trkpt lat="40.026133" lon="-5.722067">
        <ele>1673.0</ele>
        <time>2015-06-07T16:10:12Z</time>
      </trkpt>
      <trkpt lat="40.026133" lon="-5.722417">
        <ele>1673.0</ele>
        <time>2015-06-07T16:10:14Z</time>
      </trkpt>
      <trkpt lat="40.026150" lon="-5.722750">
        <ele>1672.0</ele>
        <time>2015-06-07T16:10:16Z</time>
      </trkpt>
      <trkpt lat="40.026167" lon="-5.723100">
        <ele>1672.0</ele>
        <time>2015-06-07T16:10:18Z</time>
      </trkpt>
      <trkpt lat="40.026167" lon="-5.723417">
        <ele>1672.0</ele>
        <time>2015-06-07T16:10:20Z</time>
      </trkpt>
      <trkpt lat="40.026167" lon="-5.723767">
        <ele>1671.0</ele>
        <time>2015-06-07T16:10:22Z</time>
      </trkpt>
      <trkpt lat="40.026167" lon="-5.724100">
        <ele>1671.0</ele>
        <time>2015-06-07T16:10:24Z</time>
      </trkpt>
      <trkpt lat="40.026167" lon="-5.724417">
        <ele>1668.0</ele>
        <time>2015-06-07T16:10:26Z</time>
      </trkpt>
      <trkpt lat="40.026167" lon="-5.724733">
        <ele>1664.0</ele>
        <time>2015-06-07T16:10:28Z</time>
      </trkpt>
      <trkpt lat="40.026167" lon="-5.725067">
        <ele>1662.0</ele>
        <time>2015-06-07T16:10:30Z</time>
      </trkpt>
      <trkpt lat="40.026167" lon="-5.725383">
        <ele>1659.0</ele>
        <time>2015-06-07T16:10:32Z</time>
      </trkpt>
      <trkpt lat="40.026167" lon="-5.725700">
        <ele>1655.0</ele>
        <time>2015-06-07T16:10:34Z</time>
      </trkpt>
      <trkpt lat="40.026150" lon="-5.726017">
        <ele>1651.0</ele>
        <time>2015-06-07T16:10:36Z</time>
      </trkpt>
      <trkpt lat="40.026133" lon="-5.726350">
        <ele>1647.0</ele>
        <time>2015-06-07T16:10:38Z</time>
      </trkpt>
      <trkpt lat="40.026133" lon="-5.726683">
        <ele>1645.0</ele>
        <time>2015-06-07T16:10:40Z</time>
      </trkpt>
      <trkpt lat="40.026133" lon="-5.727000">
        <ele>1642.0</ele>
        <time>2015-06-07T16:10:42Z</time>
      </trkpt>
      <trkpt lat="40.026150" lon="-5.727317">
        <ele>1639.0</ele>
        <time>2015-06-07T16:10:44Z</time>
      </trkpt>
      <trkpt lat="40.026150" lon="-5.727633">
        <ele>1636.0</ele>
        <time>2015-06-07T16:10:46Z</time>
      </trkpt>
      <trkpt lat="40.026150" lon="-5.728000">
        <ele>1634.0</ele>
        <time>2015-06-07T16:10:48Z</time>
      </trkpt>
      <trkpt lat="40.026117" lon="-5.728350">
        <ele>1632.0</ele>
        <time>2015-06-07T16:10:50Z</time>
      </trkpt>
      <trkpt lat="40.026100" lon="-5.728700">
        <ele>1633.0</ele>
        <time>2015-06-07T16:10:52Z</time>
      </trkpt>
      <trkpt lat="40.026083" lon="-5.729050">
        <ele>1633.0</ele>
        <time>2015-06-07T16:10:54Z</time>
      </trkpt>
      <trkpt lat="40.026067" lon="-5.729383">
        <ele>1632.0</ele>
        <time>2015-06-07T16:10:56Z</time>
      </trkpt>
      <trkpt lat="40.026017" lon="-5.729717">
        <ele>1633.0</ele>
        <time>2015-06-07T16:10:58Z</time>
      </trkpt>
      <trkpt lat="40.025983" lon="-5.730050">
        <ele>1633.0</ele>
        <time>2015-06-07T16:11:00Z</time>
      </trkpt>
      <trkpt lat="40.025950" lon="-5.730383">
        <ele>1632.0</ele>
        <time>2015-06-07T16:11:02Z</time>
      </trkpt>
      <trkpt lat="40.025917" lon="-5.730733">
        <ele>1632.0</ele>
        <time>2015-06-07T16:11:04Z</time>
      </trkpt>
      <trkpt lat="40.025883" lon="-5.731050">
        <ele>1632.0</ele>
        <time>2015-06-07T16:11:06Z</time>
      </trkpt>
      <trkpt lat="40.025883" lon="-5.731367">
        <ele>1632.0</ele>
        <time>2015-06-07T16:11:08Z</time>
      </trkpt>
      <trkpt lat="40.025867" lon="-5.731667">
        <ele>1630.0</ele>
        <time>2015-06-07T16:11:10Z</time>
      </trkpt>
      <trkpt lat="40.025833" lon="-5.731950">
        <ele>1628.0</ele>
        <time>2015-06-07T16:11:12Z</time>
      </trkpt>
      <trkpt lat="40.025833" lon="-5.732283">
        <ele>1625.0</ele>
        <time>2015-06-07T16:11:14Z</time>
      </trkpt>
      <trkpt lat="40.025817" lon="-5.732633">
        <ele>1625.0</ele>
        <time>2015-06-07T16:11:16Z</time>
      </trkpt>
      <trkpt lat="40.025750" lon="-5.732950">
        <ele>1627.0</ele>
        <time>2015-06-07T16:11:18Z</time>
      </trkpt>
      <trkpt lat="40.025683" lon="-5.733233">
        <ele>1625.0</ele>
        <time>2015-06-07T16:11:20Z</time>
      </trkpt>
      <trkpt lat="40.025600" lon="-5.733567">
        <ele>1622.0</ele>
        <time>2015-06-07T16:11:22Z</time>
      </trkpt>
      <trkpt lat="40.025533" lon="-5.733883">
        <ele>1623.0</ele>
        <time>2015-06-07T16:11:24Z</time>
      </trkpt>
      <trkpt lat="40.025483" lon="-5.734150">
        <ele>1624.0</ele>
        <time>2015-06-07T16:11:26Z</time>
      </trkpt>
      <trkpt lat="40.025433" lon="-5.734450">
        <ele>1622.0</ele>
        <time>2015-06-07T16:11:28Z</time>
      </trkpt>
      <trkpt lat="40.025417" lon="-5.734767">
        <ele>1621.0</ele>
        <time>2015-06-07T16:11:30Z</time>
      </trkpt>
      <trkpt lat="40.025400" lon="-5.735067">
        <ele>1623.0</ele>
        <time>2015-06-07T16:11:32Z</time>
      </trkpt>
      <trkpt lat="40.025367" lon="-5.735333">
        <ele>1625.0</ele>
        <time>2015-06-07T16:11:34Z</time>
      </trkpt>
      <trkpt lat="40.025333" lon="-5.735617">
        <ele>1627.0</ele>
        <time>2015-06-07T16:11:36Z</time>
      </trkpt>
      <trkpt lat="40.025300" lon="-5.735883">
        <ele>1632.0</ele>
        <time>2015-06-07T16:11:38Z</time>
      </trkpt>
      <trkpt lat="40.025267" lon="-5.736150">
        <ele>1636.0</ele>
        <time>2015-06-07T16:11:40Z</time>
      </trkpt>
      <trkpt lat="40.025233" lon="-5.736433">
        <ele>1638.0</ele>
        <time>2015-06-07T16:11:42Z</time>
      </trkpt>
      <trkpt lat="40.025217" lon="-5.736733">
        <ele>1641.0</ele>
        <time>2015-06-07T16:11:44Z</time>
      </trkpt>
      <trkpt lat="40.025217" lon="-5.737050">
        <ele>1645.0</ele>
        <time>2015-06-07T16:11:46Z</time>
      </trkpt>
      <trkpt lat="40.025233" lon="-5.737383">
        <ele>1647.0</ele>
        <time>2015-06-07T16:11:48Z</time>
      </trkpt>
      <trkpt lat="40.025217" lon="-5.737700">
        <ele>1651.0</ele>
        <time>2015-06-07T16:11:50Z</time>
      </trkpt>
      <trkpt lat="40.025183" lon="-5.738017">
        <ele>1654.0</ele>
        <time>2015-06-07T16:11:52Z</time>
      </trkpt>
      <trkpt lat="40.025150" lon="-5.738383">
        <ele>1656.0</ele>
        <time>2015-06-07T16:11:54Z</time>
      </trkpt>
      <trkpt lat="40.025117" lon="-5.738733">
        <ele>1663.0</ele>
        <time>2015-06-07T16:11:56Z</time>
      </trkpt>
      <trkpt lat="40.025083" lon="-5.739033">
        <ele>1667.0</ele>
        <time>2015-06-07T16:11:58Z</time>
      </trkpt>
      <trkpt lat="40.025050" lon="-5.739400">
        <ele>1665.0</ele>
        <time>2015-06-07T16:12:00Z</time>
      </trkpt>
      <trkpt lat="40.025050" lon="-5.739783">
        <ele>1670.0</ele>
        <time>2015-06-07T16:12:02Z</time>
      </trkpt>
      <trkpt lat="40.025000" lon="-5.740067">
        <ele>1677.0</ele>
        <time>2015-06-07T16:12:04Z</time>
      </trkpt>
      <trkpt lat="40.024933" lon="-5.740333">
        <ele>1677.0</ele>
        <time>2015-06-07T16:12:06Z</time>
      </trkpt>
      <trkpt lat="40.024917" lon="-5.740650">
        <ele>1674.0</ele>
        <time>2015-06-07T16:12:08Z</time>
      </trkpt>
      <trkpt lat="40.024933" lon="-5.740967">
        <ele>1674.0</ele>
        <time>2015-06-07T16:12:10Z</time>
      </trkpt>
      <trkpt lat="40.024933" lon="-5.741283">
        <ele>1675.0</ele>
        <time>2015-06-07T16:12:12Z</time>
      </trkpt>
      <trkpt lat="40.024933" lon="-5.741567">
        <ele>1677.0</ele>
        <time>2015-06-07T16:12:14Z</time>
      </trkpt>
      <trkpt lat="40.024950" lon="-5.741867">
        <ele>1679.0</ele>
        <time>2015-06-07T16:12:16Z</time>
      </trkpt>
      <trkpt lat="40.024967" lon="-5.742133">
        <ele>1680.0</ele>
        <time>2015-06-07T16:12:18Z</time>
      </trkpt>
      <trkpt lat="40.024967" lon="-5.742450">
        <ele>1679.0</ele>
        <time>2015-06-07T16:12:20Z</time>
      </trkpt>
      <trkpt lat="40.024983" lon="-5.742767">
        <ele>1680.0</ele>
        <time>2015-06-07T16:12:22Z</time>
      </trkpt>
      <trkpt lat="40.025033" lon="-5.743050">
        <ele>1683.0</ele>
        <time>2015-06-07T16:12:24Z</time>
      </trkpt>
      <trkpt lat="40.025050" lon="-5.743350">
        <ele>1685.0</ele>
        <time>2015-06-07T16:12:26Z</time>
      </trkpt>
      <trkpt lat="40.025050" lon="-5.743650">
        <ele>1685.0</ele>
        <time>2015-06-07T16:12:28Z</time>
      </trkpt>
      <trkpt lat="40.025067" lon="-5.743950">
        <ele>1688.0</ele>
        <time>2015-06-07T16:12:30Z</time>
      </trkpt>
      <trkpt lat="40.025067" lon="-5.744250">
        <ele>1690.0</ele>
        <time>2015-06-07T16:12:32Z</time>
      </trkpt>
      <trkpt lat="40.025083" lon="-5.744550">
        <ele>1691.0</ele>
        <time>2015-06-07T16:12:34Z</time>
      </trkpt>
      <trkpt lat="40.025117" lon="-5.744867">
        <ele>1693.0</ele>
        <time>2015-06-07T16:12:36Z</time>
      </trkpt>
      <trkpt lat="40.025133" lon="-5.745167">
        <ele>1695.0</ele>
        <time>2015-06-07T16:12:38Z</time>
      </trkpt>
      <trkpt lat="40.025133" lon="-5.745483">
        <ele>1697.0</ele>
        <time>2015-06-07T16:12:40Z</time>
      </trkpt>
      <trkpt lat="40.025150" lon="-5.745800">
        <ele>1699.0</ele>
        <time>2015-06-07T16:12:42Z</time>
      </trkpt>
      <trkpt lat="40.025150" lon="-5.746117">
        <ele>1701.0</ele>
        <time>2015-06-07T16:12:44Z</time>
      </trkpt>
      <trkpt lat="40.025150" lon="-5.746433">
        <ele>1705.0</ele>
        <time>2015-06-07T16:12:46Z</time>
      </trkpt>
      <trkpt lat="40.025167" lon="-5.746733">
        <ele>1707.0</ele>
        <time>2015-06-07T16:12:48Z</time>
      </trkpt>
      <trkpt lat="40.025167" lon="-5.747067">
        <ele>1710.0</ele>
        <time>2015-06-07T16:12:50Z</time>
      </trkpt>
      <trkpt lat="40.025200" lon="-5.747383">
        <ele>1715.0</ele>
        <time>2015-06-07T16:12:52Z</time>
      </trkpt>
      <trkpt lat="40.025200" lon="-5.747683">
        <ele>1720.0</ele>
        <time>2015-06-07T16:12:54Z</time>
      </trkpt>
      <trkpt lat="40.025183" lon="-5.747983">
        <ele>1724.0</ele>
        <time>2015-06-07T16:12:56Z</time>
      </trkpt>
      <trkpt lat="40.025167" lon="-5.748300">
        <ele>1729.0</ele>
        <time>2015-06-07T16:12:58Z</time>
      </trkpt>
      <trkpt lat="40.025150" lon="-5.748600">
        <ele>1736.0</ele>
        <time>2015-06-07T16:13:00Z</time>
      </trkpt>
      <trkpt lat="40.025150" lon="-5.748900">
        <ele>1741.0</ele>
        <time>2015-06-07T16:13:02Z</time>
      </trkpt>
      <trkpt lat="40.025150" lon="-5.749217">
        <ele>1745.0</ele>
        <time>2015-06-07T16:13:04Z</time>
      </trkpt>
      <trkpt lat="40.025150" lon="-5.749517">
        <ele>1748.0</ele>
        <time>2015-06-07T16:13:06Z</time>
      </trkpt>
      <trkpt lat="40.025200" lon="-5.749833">
        <ele>1751.0</ele>
        <time>2015-06-07T16:13:08Z</time>
      </trkpt>
      <trkpt lat="40.025250" lon="-5.750150">
        <ele>1756.0</ele>
        <time>2015-06-07T16:13:10Z</time>
      </trkpt>
      <trkpt lat="40.025267" lon="-5.750433">
        <ele>1762.0</ele>
        <time>2015-06-07T16:13:12Z</time>
      </trkpt>
      <trkpt lat="40.025267" lon="-5.750733">
        <ele>1765.0</ele>
        <time>2015-06-07T16:13:14Z</time>
      </trkpt>
      <trkpt lat="40.025267" lon="-5.751067">
        <ele>1768.0</ele>
        <time>2015-06-07T16:13:16Z</time>
      </trkpt>
      <trkpt lat="40.025267" lon="-5.751383">
        <ele>1774.0</ele>
        <time>2015-06-07T16:13:18Z</time>
      </trkpt>
      <trkpt lat="40.025250" lon="-5.751633">
        <ele>1776.0</ele>
        <time>2015-06-07T16:13:20Z</time>
      </trkpt>
      <trkpt lat="40.025217" lon="-5.751967">
        <ele>1777.0</ele>
        <time>2015-06-07T16:13:22Z</time>
      </trkpt>
      <trkpt lat="40.025183" lon="-5.752300">
        <ele>1782.0</ele>
        <time>2015-06-07T16:13:24Z</time>
      </trkpt>
      <trkpt lat="40.025133" lon="-5.752617">
        <ele>1787.0</ele>
        <time>2015-06-07T16:13:26Z</time>
      </trkpt>
      <trkpt lat="40.025067" lon="-5.752950">
        <ele>1790.0</ele>
        <time>2015-06-07T16:13:28Z</time>
      </trkpt>
      <trkpt lat="40.025000" lon="-5.753267">
        <ele>1793.0</ele>
        <time>2015-06-07T16:13:30Z</time>
      </trkpt>
      <trkpt lat="40.024933" lon="-5.753567">
        <ele>1796.0</ele>
        <time>2015-06-07T16:13:32Z</time>
      </trkpt>
      <trkpt lat="40.024917" lon="-5.753850">
        <ele>1796.0</ele>
        <time>2015-06-07T16:13:34Z</time>
      </trkpt>
      <trkpt lat="40.024900" lon="-5.754183">
        <ele>1793.0</ele>
        <time>2015-06-07T16:13:36Z</time>
      </trkpt>
      <trkpt lat="40.024883" lon="-5.754517">
        <ele>1790.0</ele>
        <time>2015-06-07T16:13:38Z</time>
      </trkpt>
      <trkpt lat="40.024867" lon="-5.754850">
        <ele>1788.0</ele>
        <time>2015-06-07T16:13:40Z</time>
      </trkpt>
      <trkpt lat="40.024867" lon="-5.755200">
        <ele>1784.0</ele>
        <time>2015-06-07T16:13:42Z</time>
      </trkpt>
      <trkpt lat="40.024833" lon="-5.755550">
        <ele>1778.0</ele>
        <time>2015-06-07T16:13:44Z</time>
      </trkpt>
      <trkpt lat="40.024817" lon="-5.755917">
        <ele>1772.0</ele>
        <time>2015-06-07T16:13:46Z</time>
      </trkpt>
      <trkpt lat="40.024833" lon="-5.756267">
        <ele>1772.0</ele>
        <time>2015-06-07T16:13:48Z</time>
      </trkpt>
      <trkpt lat="40.024850" lon="-5.756583">
        <ele>1770.0</ele>
        <time>2015-06-07T16:13:50Z</time>
      </trkpt>
      <trkpt lat="40.024883" lon="-5.756917">
        <ele>1766.0</ele>
        <time>2015-06-07T16:13:52Z</time>
      </trkpt>
      <trkpt lat="40.024917" lon="-5.757267">
        <ele>1766.0</ele>
        <time>2015-06-07T16:13:54Z</time>
      </trkpt>
      <trkpt lat="40.024933" lon="-5.757567">
        <ele>1767.0</ele>
        <time>2015-06-07T16:13:56Z</time>
      </trkpt>
      <trkpt lat="40.024950" lon="-5.757883">
        <ele>1765.0</ele>
        <time>2015-06-07T16:13:58Z</time>
      </trkpt>
      <trkpt lat="40.024983" lon="-5.758217">
        <ele>1763.0</ele>
        <time>2015-06-07T16:14:00Z</time>
      </trkpt>
      <trkpt lat="40.025017" lon="-5.758533">
        <ele>1763.0</ele>
        <time>2015-06-07T16:14:02Z</time>
      </trkpt>
      <trkpt lat="40.025017" lon="-5.758817">
        <ele>1762.0</ele>
        <time>2015-06-07T16:14:04Z</time>
      </trkpt>
      <trkpt lat="40.025033" lon="-5.759133">
        <ele>1761.0</ele>
        <time>2015-06-07T16:14:06Z</time>
      </trkpt>
      <trkpt lat="40.025050" lon="-5.759433">
        <ele>1760.0</ele>
        <time>2015-06-07T16:14:08Z</time>
      </trkpt>
      <trkpt lat="40.025083" lon="-5.759750">
        <ele>1759.0</ele>
        <time>2015-06-07T16:14:10Z</time>
      </trkpt>
      <trkpt lat="40.025117" lon="-5.760050">
        <ele>1757.0</ele>
        <time>2015-06-07T16:14:12Z</time>
      </trkpt>
      <trkpt lat="40.025150" lon="-5.760350">
        <ele>1754.0</ele>
        <time>2015-06-07T16:14:14Z</time>
      </trkpt>
      <trkpt lat="40.025167" lon="-5.760650">
        <ele>1750.0</ele>
        <time>2015-06-07T16:14:16Z</time>
      </trkpt>
      <trkpt lat="40.025183" lon="-5.760967">
        <ele>1744.0</ele>
        <time>2015-06-07T16:14:18Z</time>
      </trkpt>
      <trkpt lat="40.025217" lon="-5.761300">
        <ele>1740.0</ele>
        <time>2015-06-07T16:14:20Z</time>
      </trkpt>
      <trkpt lat="40.025250" lon="-5.761600">
        <ele>1736.0</ele>
        <time>2015-06-07T16:14:22Z</time>
      </trkpt>
      <trkpt lat="40.025250" lon="-5.761917">
        <ele>1731.0</ele>
        <time>2015-06-07T16:14:24Z</time>
      </trkpt>
      <trkpt lat="40.025267" lon="-5.762217">
        <ele>1727.0</ele>
        <time>2015-06-07T16:14:26Z</time>
      </trkpt>
      <trkpt lat="40.025283" lon="-5.762517">
        <ele>1720.0</ele>
        <time>2015-06-07T16:14:28Z</time>
      </trkpt>
      <trkpt lat="40.025267" lon="-5.762850">
        <ele>1713.0</ele>
        <time>2015-06-07T16:14:30Z</time>
      </trkpt>
      <trkpt lat="40.025283" lon="-5.763200">
        <ele>1707.0</ele>
        <time>2015-06-07T16:14:32Z</time>
      </trkpt>
      <trkpt lat="40.025350" lon="-5.763483">
        <ele>1703.0</ele>
        <time>2015-06-07T16:14:34Z</time>
      </trkpt>
      <trkpt lat="40.025500" lon="-5.763650">
        <ele>1696.0</ele>
        <time>2015-06-07T16:14:36Z</time>
      </trkpt>
      <trkpt lat="40.025683" lon="-5.763650">
        <ele>1688.0</ele>
        <time>2015-06-07T16:14:38Z</time>
      </trkpt>
      <trkpt lat="40.025750" lon="-5.763500">
        <ele>1680.0</ele>
        <time>2015-06-07T16:14:40Z</time>
      </trkpt>
      <trkpt lat="40.025667" lon="-5.763367">
        <ele>1674.0</ele>
        <time>2015-06-07T16:14:42Z</time>
      </trkpt>
      <trkpt lat="40.025517" lon="-5.763417">
        <ele>1670.0</ele>
        <time>2015-06-07T16:14:44Z</time>
      </trkpt>
      <trkpt lat="40.025417" lon="-5.763633">
        <ele>1663.0</ele>
        <time>2015-06-07T16:14:46Z</time>
      </trkpt>
      <trkpt lat="40.025467" lon="-5.763950">
        <ele>1654.0</ele>
        <time>2015-06-07T16:14:48Z</time>
      </trkpt>
      <trkpt lat="40.025683" lon="-5.764100">
        <ele>1645.0</ele>
        <time>2015-06-07T16:14:50Z</time>
      </trkpt>
      <trkpt lat="40.025800" lon="-5.763917">
        <ele>1635.0</ele>
        <time>2015-06-07T16:14:52Z</time>
      </trkpt>
      <trkpt lat="40.025667" lon="-5.763800">
        <ele>1627.0</ele>
        <time>2015-06-07T16:14:54Z</time>
      </trkpt>
      <trkpt lat="40.025517" lon="-5.764000">
        <ele>1618.0</ele>
        <time>2015-06-07T16:14:56Z</time>
      </trkpt>
      <trkpt lat="40.025567" lon="-5.764350">
        <ele>1610.0</ele>
        <time>2015-06-07T16:14:58Z</time>
      </trkpt>
      <trkpt lat="40.025767" lon="-5.764467">
        <ele>1603.0</ele>
        <time>2015-06-07T16:15:00Z</time>
      </trkpt>
      <trkpt lat="40.025900" lon="-5.764367">
        <ele>1595.0</ele>
        <time>2015-06-07T16:15:02Z</time>
      </trkpt>
      <trkpt lat="40.025900" lon="-5.764217">
        <ele>1586.0</ele>
        <time>2015-06-07T16:15:04Z</time>
      </trkpt>
      <trkpt lat="40.025783" lon="-5.764117">
        <ele>1577.0</ele>
        <time>2015-06-07T16:15:06Z</time>
      </trkpt>
      <trkpt lat="40.025617" lon="-5.764233">
        <ele>1569.0</ele>
        <time>2015-06-07T16:15:08Z</time>
      </trkpt>
      <trkpt lat="40.025583" lon="-5.764550">
        <ele>1560.0</ele>
        <time>2015-06-07T16:15:10Z</time>
      </trkpt>
      <trkpt lat="40.025767" lon="-5.764750">
        <ele>1549.0</ele>
        <time>2015-06-07T16:15:12Z</time>
      </trkpt>
      <trkpt lat="40.025933" lon="-5.764633">
        <ele>1539.0</ele>
        <time>2015-06-07T16:15:14Z</time>
      </trkpt>
      <trkpt lat="40.025867" lon="-5.764450">
        <ele>1529.0</ele>
        <time>2015-06-07T16:15:16Z</time>
      </trkpt>
      <trkpt lat="40.025667" lon="-5.764500">
        <ele>1520.0</ele>
        <time>2015-06-07T16:15:18Z</time>
      </trkpt>
      <trkpt lat="40.025583" lon="-5.764783">
        <ele>1511.0</ele>
        <time>2015-06-07T16:15:20Z</time>
      </trkpt>
      <trkpt lat="40.025683" lon="-5.765050">
        <ele>1500.0</ele>
        <time>2015-06-07T16:15:22Z</time>
      </trkpt>
      <trkpt lat="40.025900" lon="-5.765133">
        <ele>1491.0</ele>
        <time>2015-06-07T16:15:24Z</time>
      </trkpt>
      <trkpt lat="40.025983" lon="-5.765000">
        <ele>1481.0</ele>
        <time>2015-06-07T16:15:26Z</time>
      </trkpt>
      <trkpt lat="40.025883" lon="-5.764850">
        <ele>1473.0</ele>
        <time>2015-06-07T16:15:28Z</time>
      </trkpt>
      <trkpt lat="40.025733" lon="-5.764917">
        <ele>1465.0</ele>
        <time>2015-06-07T16:15:30Z</time>
      </trkpt>
      <trkpt lat="40.025683" lon="-5.765233">
        <ele>1453.0</ele>
        <time>2015-06-07T16:15:32Z</time>
      </trkpt>
      <trkpt lat="40.025850" lon="-5.765433">
        <ele>1440.0</ele>
        <time>2015-06-07T16:15:34Z</time>
      </trkpt>
      <trkpt lat="40.026000" lon="-5.765233">
        <ele>1425.0</ele>
        <time>2015-06-07T16:15:36Z</time>
      </trkpt>
      <trkpt lat="40.025800" lon="-5.765133">
        <ele>1413.0</ele>
        <time>2015-06-07T16:15:38Z</time>
      </trkpt>
      <trkpt lat="40.025683" lon="-5.765450">
        <ele>1405.0</ele>
        <time>2015-06-07T16:15:40Z</time>
      </trkpt>
      <trkpt lat="40.025800" lon="-5.765717">
        <ele>1400.0</ele>
        <time>2015-06-07T16:15:42Z</time>
      </trkpt>
      <trkpt lat="40.026000" lon="-5.765817">
        <ele>1392.0</ele>
        <time>2015-06-07T16:15:44Z</time>
      </trkpt>
      <trkpt lat="40.026150" lon="-5.765767">
        <ele>1383.0</ele>
        <time>2015-06-07T16:15:46Z</time>
      </trkpt>
      <trkpt lat="40.026167" lon="-5.765583">
        <ele>1373.0</ele>
        <time>2015-06-07T16:15:48Z</time>
      </trkpt>
      <trkpt lat="40.025983" lon="-5.765550">
        <ele>1363.0</ele>
        <time>2015-06-07T16:15:50Z</time>
      </trkpt>
      <trkpt lat="40.025883" lon="-5.765883">
        <ele>1351.0</ele>
        <time>2015-06-07T16:15:52Z</time>
      </trkpt>
      <trkpt lat="40.026083" lon="-5.766133">
        <ele>1340.0</ele>
        <time>2015-06-07T16:15:54Z</time>
      </trkpt>
      <trkpt lat="40.026233" lon="-5.765950">
        <ele>1329.0</ele>
        <time>2015-06-07T16:15:56Z</time>
      </trkpt>
      <trkpt lat="40.026100" lon="-5.765800">
        <ele>1322.0</ele>
        <time>2015-06-07T16:15:58Z</time>
      </trkpt>
      <trkpt lat="40.025917" lon="-5.765917">
        <ele>1315.0</ele>
        <time>2015-06-07T16:16:00Z</time>
      </trkpt>
      <trkpt lat="40.025850" lon="-5.766183">
        <ele>1309.0</ele>
        <time>2015-06-07T16:16:02Z</time>
      </trkpt>
      <trkpt lat="40.025900" lon="-5.766450">
        <ele>1302.0</ele>
        <time>2015-06-07T16:16:04Z</time>
      </trkpt>
      <trkpt lat="40.026050" lon="-5.766617">
        <ele>1294.0</ele>
        <time>2015-06-07T16:16:06Z</time>
      </trkpt>
      <trkpt lat="40.026217" lon="-5.766600">
        <ele>1286.0</ele>
        <time>2015-06-07T16:16:08Z</time>
      </trkpt>
      <trkpt lat="40.026250" lon="-5.766433">
        <ele>1279.0</ele>
        <time>2015-06-07T16:16:10Z</time>
      </trkpt>
      <trkpt lat="40.026133" lon="-5.766317">
        <ele>1271.0</ele>
        <time>2015-06-07T16:16:12Z</time>
      </trkpt>
      <trkpt lat="40.025967" lon="-5.766283">
        <ele>1264.0</ele>
        <time>2015-06-07T16:16:14Z</time>
      </trkpt>
      <trkpt lat="40.025800" lon="-5.766283">
        <ele>1255.0</ele>
        <time>2015-06-07T16:16:16Z</time>
      </trkpt>
      <trkpt lat="40.025583" lon="-5.766300">
        <ele>1247.0</ele>
        <time>2015-06-07T16:16:18Z</time>
      </trkpt>
      <trkpt lat="40.025367" lon="-5.766333">
        <ele>1242.0</ele>
        <time>2015-06-07T16:16:20Z</time>
      </trkpt>
      <trkpt lat="40.025167" lon="-5.766383">
        <ele>1239.0</ele>
        <time>2015-06-07T16:16:22Z</time>
      </trkpt>
      <trkpt lat="40.024967" lon="-5.766450">
        <ele>1234.0</ele>
        <time>2015-06-07T16:16:24Z</time>
      </trkpt>
      <trkpt lat="40.024783" lon="-5.766467">
        <ele>1229.0</ele>
        <time>2015-06-07T16:16:26Z</time>
      </trkpt>
      <trkpt lat="40.024700" lon="-5.766333">
        <ele>1222.0</ele>
        <time>2015-06-07T16:16:28Z</time>
      </trkpt>
      <trkpt lat="40.024783" lon="-5.766183">
        <ele>1214.0</ele>
        <time>2015-06-07T16:16:30Z</time>
      </trkpt>
      <trkpt lat="40.024950" lon="-5.766300">
        <ele>1208.0</ele>
        <time>2015-06-07T16:16:32Z</time>
      </trkpt>
      <trkpt lat="40.024950" lon="-5.766633">
        <ele>1199.0</ele>
        <time>2015-06-07T16:16:34Z</time>
      </trkpt>
      <trkpt lat="40.024750" lon="-5.766800">
        <ele>1192.0</ele>
        <time>2015-06-07T16:16:36Z</time>
      </trkpt>
      <trkpt lat="40.024600" lon="-5.766667">
        <ele>1185.0</ele>
        <time>2015-06-07T16:16:38Z</time>
      </trkpt>
      <trkpt lat="40.024683" lon="-5.766517">
        <ele>1179.0</ele>
        <time>2015-06-07T16:16:40Z</time>
      </trkpt>
      <trkpt lat="40.024850" lon="-5.766600">
        <ele>1173.0</ele>
        <time>2015-06-07T16:16:42Z</time>
      </trkpt>
      <trkpt lat="40.024933" lon="-5.766833">
        <ele>1167.0</ele>
        <time>2015-06-07T16:16:44Z</time>
      </trkpt>
      <trkpt lat="40.024850" lon="-5.767117">
        <ele>1159.0</ele>
        <time>2015-06-07T16:16:46Z</time>
      </trkpt>
      <trkpt lat="40.024650" lon="-5.767217">
        <ele>1151.0</ele>
        <time>2015-06-07T16:16:48Z</time>
      </trkpt>
      <trkpt lat="40.024550" lon="-5.767050">
        <ele>1142.0</ele>
        <time>2015-06-07T16:16:50Z</time>
      </trkpt>
      <trkpt lat="40.024683" lon="-5.766917">
        <ele>1135.0</ele>
        <time>2015-06-07T16:16:52Z</time>
      </trkpt>
      <trkpt lat="40.024833" lon="-5.767067">
        <ele>1130.0</ele>
        <time>2015-06-07T16:16:54Z</time>
      </trkpt>
      <trkpt lat="40.024850" lon="-5.767333">
        <ele>1123.0</ele>
        <time>2015-06-07T16:16:56Z</time>
      </trkpt>
      <trkpt lat="40.024733" lon="-5.767583">
        <ele>1116.0</ele>
        <time>2015-06-07T16:16:58Z</time>
      </trkpt>
      <trkpt lat="40.024533" lon="-5.767633">
        <ele>1108.0</ele>
        <time>2015-06-07T16:17:00Z</time>
      </trkpt>
      <trkpt lat="40.024433" lon="-5.767467">
        <ele>1100.0</ele>
        <time>2015-06-07T16:17:02Z</time>
      </trkpt>
      <trkpt lat="40.024533" lon="-5.767333">
        <ele>1093.0</ele>
        <time>2015-06-07T16:17:04Z</time>
      </trkpt>
      <trkpt lat="40.024683" lon="-5.767400">
        <ele>1087.0</ele>
        <time>2015-06-07T16:17:06Z</time>
      </trkpt>
      <trkpt lat="40.024767" lon="-5.767633">
        <ele>1080.0</ele>
        <time>2015-06-07T16:17:08Z</time>
      </trkpt>
      <trkpt lat="40.024700" lon="-5.767900">
        <ele>1074.0</ele>
        <time>2015-06-07T16:17:10Z</time>
      </trkpt>
      <trkpt lat="40.024517" lon="-5.768033">
        <ele>1066.0</ele>
        <time>2015-06-07T16:17:12Z</time>
      </trkpt>
      <trkpt lat="40.024350" lon="-5.767950">
        <ele>1057.0</ele>
        <time>2015-06-07T16:17:14Z</time>
      </trkpt>
      <trkpt lat="40.024367" lon="-5.767750">
        <ele>1049.0</ele>
        <time>2015-06-07T16:17:16Z</time>
      </trkpt>
      <trkpt lat="40.024517" lon="-5.767767">
        <ele>1041.0</ele>
        <time>2015-06-07T16:17:18Z</time>
      </trkpt>
      <trkpt lat="40.024550" lon="-5.768050">
        <ele>1034.0</ele>
        <time>2015-06-07T16:17:20Z</time>
      </trkpt>
      <trkpt lat="40.024350" lon="-5.768250">
        <ele>1027.0</ele>
        <time>2015-06-07T16:17:22Z</time>
      </trkpt>
      <trkpt lat="40.024133" lon="-5.768167">
        <ele>1020.0</ele>
        <time>2015-06-07T16:17:24Z</time>
      </trkpt>
      <trkpt lat="40.024083" lon="-5.767983">
        <ele>1016.0</ele>
        <time>2015-06-07T16:17:26Z</time>
      </trkpt>
      <trkpt lat="40.024117" lon="-5.767850">
        <ele>1010.0</ele>
        <time>2015-06-07T16:17:28Z</time>
      </trkpt>
      <trkpt lat="40.024167" lon="-5.767700">
        <ele>1002.0</ele>
        <time>2015-06-07T16:17:30Z</time>
      </trkpt>
      <trkpt lat="40.024150" lon="-5.767483">
        <ele>996.0</ele>
        <time>2015-06-07T16:17:32Z</time>
      </trkpt>
      <trkpt lat="40.023983" lon="-5.767333">
        <ele>990.0</ele>
        <time>2015-06-07T16:17:34Z</time>
      </trkpt>
      <trkpt lat="40.023783" lon="-5.767250">
        <ele>986.0</ele>
        <time>2015-06-07T16:17:36Z</time>
      </trkpt>
      <trkpt lat="40.023650" lon="-5.767100">
        <ele>983.0</ele>
        <time>2015-06-07T16:17:38Z</time>
      </trkpt>
      <trkpt lat="40.023617" lon="-5.766917">
        <ele>979.0</ele>
        <time>2015-06-07T16:17:40Z</time>
      </trkpt>
      <trkpt lat="40.023700" lon="-5.766783">
        <ele>973.0</ele>
        <time>2015-06-07T16:17:42Z</time>
      </trkpt>
      <trkpt lat="40.023833" lon="-5.766917">
        <ele>966.0</ele>
        <time>2015-06-07T16:17:44Z</time>
      </trkpt>
      <trkpt lat="40.023783" lon="-5.767183">
        <ele>960.0</ele>
        <time>2015-06-07T16:17:46Z</time>
      </trkpt>
      <trkpt lat="40.023550" lon="-5.767283">
        <ele>955.0</ele>
        <time>2015-06-07T16:17:48Z</time>
      </trkpt>
      <trkpt lat="40.023367" lon="-5.767150">
        <ele>950.0</ele>
        <time>2015-06-07T16:17:50Z</time>
      </trkpt>
      <trkpt lat="40.023317" lon="-5.766950">
        <ele>947.0</ele>
        <time>2015-06-07T16:17:52Z</time>
      </trkpt>
      <trkpt lat="40.023400" lon="-5.766833">
        <ele>943.0</ele>
        <time>2015-06-07T16:17:54Z</time>
      </trkpt>
      <trkpt lat="40.023517" lon="-5.766817">
        <ele>938.0</ele>
        <time>2015-06-07T16:17:56Z</time>
      </trkpt>
      <trkpt lat="40.023600" lon="-5.766717">
        <ele>934.0</ele>
        <time>2015-06-07T16:17:58Z</time>
      </trkpt>
      <trkpt lat="40.023533" lon="-5.766483">
        <ele>925.0</ele>
        <time>2015-06-07T16:18:00Z</time>
      </trkpt>
      <trkpt lat="40.023300" lon="-5.766333">
        <ele>922.0</ele>
        <time>2015-06-07T16:18:02Z</time>
      </trkpt>
      <trkpt lat="40.023150" lon="-5.766233">
        <ele>922.0</ele>
        <time>2015-06-07T16:18:04Z</time>
      </trkpt>
      <trkpt lat="40.023133" lon="-5.766050">
        <ele>915.0</ele>
        <time>2015-06-07T16:18:06Z</time>
      </trkpt>
      <trkpt lat="40.023267" lon="-5.765950">
        <ele>910.0</ele>
        <time>2015-06-07T16:18:08Z</time>
      </trkpt>
      <trkpt lat="40.023383" lon="-5.765983">
        <ele>909.0</ele>
        <time>2015-06-07T16:18:10Z</time>
      </trkpt>
      <trkpt lat="40.023433" lon="-5.765867">
        <ele>905.0</ele>
        <time>2015-06-07T16:18:12Z</time>
      </trkpt>
      <trkpt lat="40.023333" lon="-5.765617">
        <ele>898.0</ele>
        <time>2015-06-07T16:18:14Z</time>
      </trkpt>
      <trkpt lat="40.023067" lon="-5.765600">
        <ele>894.0</ele>
        <time>2015-06-07T16:18:16Z</time>
      </trkpt>
      <trkpt lat="40.022900" lon="-5.765867">
        <ele>889.0</ele>
        <time>2015-06-07T16:18:18Z</time>
      </trkpt>
      <trkpt lat="40.022917" lon="-5.766117">
        <ele>890.0</ele>
        <time>2015-06-07T16:18:20Z</time>
      </trkpt>
      <trkpt lat="40.023000" lon="-5.766200">
        <ele>887.0</ele>
        <time>2015-06-07T16:18:22Z</time>
      </trkpt>
      <trkpt lat="40.023083" lon="-5.766100">
        <ele>882.0</ele>
        <time>2015-06-07T16:18:24Z</time>
      </trkpt>
      <trkpt lat="40.023017" lon="-5.765900">
        <ele>877.0</ele>
        <time>2015-06-07T16:18:26Z</time>
      </trkpt>
      <trkpt lat="40.022767" lon="-5.765800">
        <ele>872.0</ele>
        <time>2015-06-07T16:18:28Z</time>
      </trkpt>
      <trkpt lat="40.022517" lon="-5.765950">
        <ele>870.0</ele>
        <time>2015-06-07T16:18:30Z</time>
      </trkpt>
      <trkpt lat="40.022383" lon="-5.766183">
        <ele>867.0</ele>
        <time>2015-06-07T16:18:32Z</time>
      </trkpt>
      <trkpt lat="40.022333" lon="-5.766433">
        <ele>863.0</ele>
        <time>2015-06-07T16:18:34Z</time>
      </trkpt>
      <trkpt lat="40.022417" lon="-5.766583">
        <ele>856.0</ele>
        <time>2015-06-07T16:18:36Z</time>
      </trkpt>
      <trkpt lat="40.022517" lon="-5.766467">
        <ele>847.0</ele>
        <time>2015-06-07T16:18:38Z</time>
      </trkpt>
      <trkpt lat="40.022400" lon="-5.766250">
        <ele>845.0</ele>
        <time>2015-06-07T16:18:40Z</time>
      </trkpt>
      <trkpt lat="40.022217" lon="-5.766150">
        <ele>844.0</ele>
        <time>2015-06-07T16:18:42Z</time>
      </trkpt>
      <trkpt lat="40.022100" lon="-5.766000">
        <ele>839.0</ele>
        <time>2015-06-07T16:18:44Z</time>
      </trkpt>
      <trkpt lat="40.022133" lon="-5.765833">
        <ele>834.0</ele>
        <time>2015-06-07T16:18:46Z</time>
      </trkpt>
      <trkpt lat="40.022267" lon="-5.765883">
        <ele>830.0</ele>
        <time>2015-06-07T16:18:48Z</time>
      </trkpt>
      <trkpt lat="40.022400" lon="-5.765983">
        <ele>828.0</ele>
        <time>2015-06-07T16:18:50Z</time>
      </trkpt>
      <trkpt lat="40.022467" lon="-5.765933">
        <ele>825.0</ele>
        <time>2015-06-07T16:18:52Z</time>
      </trkpt>
      <trkpt lat="40.022417" lon="-5.765733">
        <ele>823.0</ele>
        <time>2015-06-07T16:18:54Z</time>
      </trkpt>
      <trkpt lat="40.022283" lon="-5.765600">
        <ele>827.0</ele>
        <time>2015-06-07T16:18:56Z</time>
      </trkpt>
      <trkpt lat="40.022150" lon="-5.765517">
        <ele>825.0</ele>
        <time>2015-06-07T16:18:58Z</time>
      </trkpt>
      <trkpt lat="40.021983" lon="-5.765333">
        <ele>819.0</ele>
        <time>2015-06-07T16:19:00Z</time>
      </trkpt>
      <trkpt lat="40.021783" lon="-5.765217">
        <ele>822.0</ele>
        <time>2015-06-07T16:19:02Z</time>
      </trkpt>
      <trkpt lat="40.021617" lon="-5.765167">
        <ele>821.0</ele>
        <time>2015-06-07T16:19:04Z</time>
      </trkpt>
      <trkpt lat="40.021450" lon="-5.765050">
        <ele>816.0</ele>
        <time>2015-06-07T16:19:06Z</time>
      </trkpt>
      <trkpt lat="40.021300" lon="-5.764900">
        <ele>814.0</ele>
        <time>2015-06-07T16:19:08Z</time>
      </trkpt>
      <trkpt lat="40.021183" lon="-5.764767">
        <ele>813.0</ele>
        <time>2015-06-07T16:19:10Z</time>
      </trkpt>
      <trkpt lat="40.021083" lon="-5.764600">
        <ele>807.0</ele>
        <time>2015-06-07T16:19:12Z</time>
      </trkpt>
      <trkpt lat="40.021017" lon="-5.764400">
        <ele>802.0</ele>
        <time>2015-06-07T16:19:14Z</time>
      </trkpt>
      <trkpt lat="40.020950" lon="-5.764217">
        <ele>799.0</ele>
        <time>2015-06-07T16:19:16Z</time>
      </trkpt>
      <trkpt lat="40.020900" lon="-5.764033">
        <ele>795.0</ele>
        <time>2015-06-07T16:19:18Z</time>
      </trkpt>
      <trkpt lat="40.020883" lon="-5.763850">
        <ele>791.0</ele>
        <time>2015-06-07T16:19:20Z</time>
      </trkpt>
      <trkpt lat="40.020850" lon="-5.763683">
        <ele>792.0</ele>
        <time>2015-06-07T16:19:22Z</time>
      </trkpt>
      <trkpt lat="40.020750" lon="-5.763533">
        <ele>792.0</ele>
        <time>2015-06-07T16:19:24Z</time>
      </trkpt>
      <trkpt lat="40.020617" lon="-5.763383">
        <ele>790.0</ele>
        <time>2015-06-07T16:19:26Z</time>
      </trkpt>
      <trkpt lat="40.020500" lon="-5.763217">
        <ele>789.0</ele>
        <time>2015-06-07T16:19:28Z</time>
      </trkpt>
      <trkpt lat="40.020433" lon="-5.763067">
        <ele>788.0</ele>
        <time>2015-06-07T16:19:30Z</time>
      </trkpt>
      <trkpt lat="40.020450" lon="-5.762933">
        <ele>785.0</ele>
        <time>2015-06-07T16:19:32Z</time>
      </trkpt>
      <trkpt lat="40.020533" lon="-5.762833">
        <ele>784.0</ele>
        <time>2015-06-07T16:19:34Z</time>
      </trkpt>
      <trkpt lat="40.020633" lon="-5.762817">
        <ele>783.0</ele>
        <time>2015-06-07T16:19:36Z</time>
      </trkpt>
      <trkpt lat="40.020750" lon="-5.762817">
        <ele>782.0</ele>
        <time>2015-06-07T16:19:38Z</time>
      </trkpt>
      <trkpt lat="40.020833" lon="-5.762783">
        <ele>782.0</ele>
        <time>2015-06-07T16:19:40Z</time>
      </trkpt>
      <trkpt lat="40.020900" lon="-5.762733">
        <ele>780.0</ele>
        <time>2015-06-07T16:19:42Z</time>
      </trkpt>
      <trkpt lat="40.021017" lon="-5.762717">
        <ele>777.0</ele>
        <time>2015-06-07T16:19:44Z</time>
      </trkpt>
      <trkpt lat="40.021100" lon="-5.762667">
        <ele>775.0</ele>
        <time>2015-06-07T16:19:46Z</time>
      </trkpt>
      <trkpt lat="40.021150" lon="-5.762567">
        <ele>773.0</ele>
        <time>2015-06-07T16:19:48Z</time>
      </trkpt>
      <trkpt lat="40.021183" lon="-5.762450">
        <ele>770.0</ele>
        <time>2015-06-07T16:19:50Z</time>
      </trkpt>
      <trkpt lat="40.021200" lon="-5.762300">
        <ele>767.0</ele>
        <time>2015-06-07T16:19:52Z</time>
      </trkpt>
      <trkpt lat="40.021200" lon="-5.762133">
        <ele>763.0</ele>
        <time>2015-06-07T16:19:54Z</time>
      </trkpt>
      <trkpt lat="40.021183" lon="-5.761933">
        <ele>758.0</ele>
        <time>2015-06-07T16:19:56Z</time>
      </trkpt>
      <trkpt lat="40.021167" lon="-5.761733">
        <ele>755.0</ele>
        <time>2015-06-07T16:19:58Z</time>
      </trkpt>
      <trkpt lat="40.021117" lon="-5.761533">
        <ele>753.0</ele>
        <time>2015-06-07T16:20:00Z</time>
      </trkpt>
      <trkpt lat="40.021000" lon="-5.761350">
        <ele>753.0</ele>
        <time>2015-06-07T16:20:02Z</time>
      </trkpt>
      <trkpt lat="40.020867" lon="-5.761200">
        <ele>752.0</ele>
        <time>2015-06-07T16:20:04Z</time>
      </trkpt>
      <trkpt lat="40.020733" lon="-5.761017">
        <ele>751.0</ele>
        <time>2015-06-07T16:20:06Z</time>
      </trkpt>
      <trkpt lat="40.020567" lon="-5.760867">
        <ele>750.0</ele>
        <time>2015-06-07T16:20:08Z</time>
      </trkpt>
      <trkpt lat="40.020383" lon="-5.760750">
        <ele>749.0</ele>
        <time>2015-06-07T16:20:10Z</time>
      </trkpt>
      <trkpt lat="40.020200" lon="-5.760617">
        <ele>745.0</ele>
        <time>2015-06-07T16:20:12Z</time>
      </trkpt>
      <trkpt lat="40.020033" lon="-5.760483">
        <ele>742.0</ele>
        <time>2015-06-07T16:20:14Z</time>
      </trkpt>
      <trkpt lat="40.019883" lon="-5.760383">
        <ele>738.0</ele>
        <time>2015-06-07T16:20:16Z</time>
      </trkpt>
      <trkpt lat="40.019717" lon="-5.760267">
        <ele>735.0</ele>
        <time>2015-06-07T16:20:18Z</time>
      </trkpt>
      <trkpt lat="40.019550" lon="-5.760150">
        <ele>735.0</ele>
        <time>2015-06-07T16:20:20Z</time>
      </trkpt>
      <trkpt lat="40.019417" lon="-5.760050">
        <ele>735.0</ele>
        <time>2015-06-07T16:20:22Z</time>
      </trkpt>
      <trkpt lat="40.019283" lon="-5.759917">
        <ele>733.0</ele>
        <time>2015-06-07T16:20:24Z</time>
      </trkpt>
      <trkpt lat="40.019183" lon="-5.759800">
        <ele>732.0</ele>
        <time>2015-06-07T16:20:26Z</time>
      </trkpt>
      <trkpt lat="40.019100" lon="-5.759650">
        <ele>732.0</ele>
        <time>2015-06-07T16:20:28Z</time>
      </trkpt>
      <trkpt lat="40.019017" lon="-5.759500">
        <ele>732.0</ele>
        <time>2015-06-07T16:20:30Z</time>
      </trkpt>
      <trkpt lat="40.018933" lon="-5.759383">
        <ele>732.0</ele>
        <time>2015-06-07T16:20:32Z</time>
      </trkpt>
      <trkpt lat="40.018850" lon="-5.759250">
        <ele>732.0</ele>
        <time>2015-06-07T16:20:34Z</time>
      </trkpt>
      <trkpt lat="40.018783" lon="-5.759083">
        <ele>733.0</ele>
        <time>2015-06-07T16:20:36Z</time>
      </trkpt>
      <trkpt lat="40.018783" lon="-5.758983">
        <ele>737.0</ele>
        <time>2015-06-07T16:20:38Z</time>
      </trkpt>
      <trkpt lat="40.018917" lon="-5.759017">
        <ele>735.0</ele>
        <time>2015-06-07T16:20:40Z</time>
      </trkpt>
      <trkpt lat="40.019067" lon="-5.759233">
        <ele>738.0</ele>
        <time>2015-06-07T16:20:42Z</time>
      </trkpt>
      <trkpt lat="40.019117" lon="-5.759417">
        <ele>741.0</ele>
        <time>2015-06-07T16:20:44Z</time>
      </trkpt>
      <trkpt lat="40.019200" lon="-5.759617">
        <ele>737.0</ele>
        <time>2015-06-07T16:20:46Z</time>
      </trkpt>
      <trkpt lat="40.019317" lon="-5.759800">
        <ele>733.0</ele>
        <time>2015-06-07T16:20:48Z</time>
      </trkpt>
      <trkpt lat="40.019433" lon="-5.759917">
        <ele>732.0</ele>
        <time>2015-06-07T16:20:50Z</time>
      </trkpt>
      <trkpt lat="40.019533" lon="-5.760000">
        <ele>729.0</ele>
        <time>2015-06-07T16:20:52Z</time>
      </trkpt>
      <trkpt lat="40.019650" lon="-5.760117">
        <ele>725.0</ele>
        <time>2015-06-07T16:20:54Z</time>
      </trkpt>
      <trkpt lat="40.019750" lon="-5.760183">
        <ele>722.0</ele>
        <time>2015-06-07T16:20:56Z</time>
      </trkpt>
      <trkpt lat="40.019867" lon="-5.760217">
        <ele>719.0</ele>
        <time>2015-06-07T16:20:58Z</time>
      </trkpt>
      <trkpt lat="40.019983" lon="-5.760183">
        <ele>716.0</ele>
        <time>2015-06-07T16:21:00Z</time>
      </trkpt>
      <trkpt lat="40.020100" lon="-5.760183">
        <ele>714.0</ele>
        <time>2015-06-07T16:21:02Z</time>
      </trkpt>
      <trkpt lat="40.020217" lon="-5.760250">
        <ele>711.0</ele>
        <time>2015-06-07T16:21:04Z</time>
      </trkpt>
      <trkpt lat="40.020317" lon="-5.760317">
        <ele>707.0</ele>
        <time>2015-06-07T16:21:06Z</time>
      </trkpt>
      <trkpt lat="40.020450" lon="-5.760350">
        <ele>703.0</ele>
        <time>2015-06-07T16:21:08Z</time>
      </trkpt>
      <trkpt lat="40.020550" lon="-5.760417">
        <ele>701.0</ele>
        <time>2015-06-07T16:21:10Z</time>
      </trkpt>
      <trkpt lat="40.020650" lon="-5.760433">
        <ele>698.0</ele>
        <time>2015-06-07T16:21:12Z</time>
      </trkpt>
      <trkpt lat="40.020750" lon="-5.760400">
        <ele>694.0</ele>
        <time>2015-06-07T16:21:14Z</time>
      </trkpt>
      <trkpt lat="40.020850" lon="-5.760317">
        <ele>693.0</ele>
        <time>2015-06-07T16:21:16Z</time>
      </trkpt>
      <trkpt lat="40.020917" lon="-5.760283">
        <ele>695.0</ele>
        <time>2015-06-07T16:21:18Z</time>
      </trkpt>
      <trkpt lat="40.020983" lon="-5.760333">
        <ele>694.0</ele>
        <time>2015-06-07T16:21:20Z</time>
      </trkpt>
      <trkpt lat="40.021050" lon="-5.760483">
        <ele>692.0</ele>
        <time>2015-06-07T16:21:22Z</time>
      </trkpt>
      <trkpt lat="40.020983" lon="-5.760783">
        <ele>686.0</ele>
        <time>2015-06-07T16:21:24Z</time>
      </trkpt>
      <trkpt lat="40.020767" lon="-5.761067">
        <ele>686.0</ele>
        <time>2015-06-07T16:21:26Z</time>
      </trkpt>
      <trkpt lat="40.020617" lon="-5.761233">
        <ele>689.0</ele>
        <time>2015-06-07T16:21:28Z</time>
      </trkpt>
      <trkpt lat="40.020450" lon="-5.761433">
        <ele>687.0</ele>
        <time>2015-06-07T16:21:30Z</time>
      </trkpt>
      <trkpt lat="40.020217" lon="-5.761617">
        <ele>683.0</ele>
        <time>2015-06-07T16:21:32Z</time>
      </trkpt>
      <trkpt lat="40.019983" lon="-5.761717">
        <ele>683.0</ele>
        <time>2015-06-07T16:21:34Z</time>
      </trkpt>
      <trkpt lat="40.019767" lon="-5.761767">
        <ele>682.0</ele>
        <time>2015-06-07T16:21:36Z</time>
      </trkpt>
      <trkpt lat="40.019550" lon="-5.761800">
        <ele>679.0</ele>
        <time>2015-06-07T16:21:38Z</time>
      </trkpt>
      <trkpt lat="40.019317" lon="-5.761767">
        <ele>676.0</ele>
        <time>2015-06-07T16:21:40Z</time>
      </trkpt>
      <trkpt lat="40.019117" lon="-5.761683">
        <ele>673.0</ele>
        <time>2015-06-07T16:21:42Z</time>
      </trkpt>
      <trkpt lat="40.018933" lon="-5.761600">
        <ele>670.0</ele>
        <time>2015-06-07T16:21:44Z</time>
      </trkpt>
      <trkpt lat="40.018750" lon="-5.761517">
        <ele>666.0</ele>
        <time>2015-06-07T16:21:46Z</time>
      </trkpt>
      <trkpt lat="40.018583" lon="-5.761433">
        <ele>663.0</ele>
        <time>2015-06-07T16:21:48Z</time>
      </trkpt>
      <trkpt lat="40.018417" lon="-5.761350">
        <ele>659.0</ele>
        <time>2015-06-07T16:21:50Z</time>
      </trkpt>
      <trkpt lat="40.018267" lon="-5.761233">
        <ele>656.0</ele>
        <time>2015-06-07T16:21:52Z</time>
      </trkpt>
      <trkpt lat="40.018133" lon="-5.761150">
        <ele>655.0</ele>
        <time>2015-06-07T16:21:54Z</time>
      </trkpt>
      <trkpt lat="40.017967" lon="-5.761067">
        <ele>655.0</ele>
        <time>2015-06-07T16:21:56Z</time>
      </trkpt>
      <trkpt lat="40.017817" lon="-5.760983">
        <ele>655.0</ele>
        <time>2015-06-07T16:21:58Z</time>
      </trkpt>
      <trkpt lat="40.017750" lon="-5.760867">
        <ele>656.0</ele>
        <time>2015-06-07T16:22:00Z</time>
      </trkpt>
      <trkpt lat="40.017733" lon="-5.760733">
        <ele>657.0</ele>
        <time>2015-06-07T16:22:02Z</time>
      </trkpt>
      <trkpt lat="40.017767" lon="-5.760633">
        <ele>656.0</ele>
        <time>2015-06-07T16:22:04Z</time>
      </trkpt>
      <trkpt lat="40.017883" lon="-5.760567">
        <ele>654.0</ele>
        <time>2015-06-07T16:22:06Z</time>
      </trkpt>
      <trkpt lat="40.018050" lon="-5.760600">
        <ele>652.0</ele>
        <time>2015-06-07T16:22:08Z</time>
      </trkpt>
      <trkpt lat="40.018217" lon="-5.760683">
        <ele>652.0</ele>
        <time>2015-06-07T16:22:10Z</time>
      </trkpt>
      <trkpt lat="40.018333" lon="-5.760700">
        <ele>652.0</ele>
        <time>2015-06-07T16:22:12Z</time>
      </trkpt>
      <trkpt lat="40.018450" lon="-5.760717">
        <ele>649.0</ele>
        <time>2015-06-07T16:22:14Z</time>
      </trkpt>
      <trkpt lat="40.018583" lon="-5.760800">
        <ele>644.0</ele>
        <time>2015-06-07T16:22:16Z</time>
      </trkpt>
      <trkpt lat="40.018700" lon="-5.760950">
        <ele>642.0</ele>
        <time>2015-06-07T16:22:18Z</time>
      </trkpt>
      <trkpt lat="40.018800" lon="-5.761083">
        <ele>639.0</ele>
        <time>2015-06-07T16:22:20Z</time>
      </trkpt>
      <trkpt lat="40.018917" lon="-5.761083">
        <ele>635.0</ele>
        <time>2015-06-07T16:22:22Z</time>
      </trkpt>
      <trkpt lat="40.018950" lon="-5.760917">
        <ele>631.0</ele>
        <time>2015-06-07T16:22:24Z</time>
      </trkpt>
      <trkpt lat="40.018867" lon="-5.760767">
        <ele>630.0</ele>
        <time>2015-06-07T16:22:26Z</time>
      </trkpt>
      <trkpt lat="40.018700" lon="-5.760667">
        <ele>626.0</ele>
        <time>2015-06-07T16:22:28Z</time>
      </trkpt>
      <trkpt lat="40.018500" lon="-5.760617">
        <ele>622.0</ele>
        <time>2015-06-07T16:22:30Z</time>
      </trkpt>
      <trkpt lat="40.018283" lon="-5.760617">
        <ele>622.0</ele>
        <time>2015-06-07T16:22:32Z</time>
      </trkpt>
      <trkpt lat="40.018117" lon="-5.760617">
        <ele>620.0</ele>
        <time>2015-06-07T16:22:34Z</time>
      </trkpt>
      <trkpt lat="40.017900" lon="-5.760650">
        <ele>615.0</ele>
        <time>2015-06-07T16:22:36Z</time>
      </trkpt>
      <trkpt lat="40.017683" lon="-5.760683">
        <ele>617.0</ele>
        <time>2015-06-07T16:22:38Z</time>
      </trkpt>
      <trkpt lat="40.017517" lon="-5.760733">
        <ele>621.0</ele>
        <time>2015-06-07T16:22:40Z</time>
      </trkpt>
      <trkpt lat="40.017350" lon="-5.760800">
        <ele>621.0</ele>
        <time>2015-06-07T16:22:42Z</time>
      </trkpt>
      <trkpt lat="40.017167" lon="-5.760850">
        <ele>619.0</ele>
        <time>2015-06-07T16:22:44Z</time>
      </trkpt>
      <trkpt lat="40.017000" lon="-5.760900">
        <ele>621.0</ele>
        <time>2015-06-07T16:22:46Z</time>
      </trkpt>
      <trkpt lat="40.016850" lon="-5.760950">
        <ele>623.0</ele>
        <time>2015-06-07T16:22:48Z</time>
      </trkpt>
      <trkpt lat="40.016683" lon="-5.760983">
        <ele>622.0</ele>
        <time>2015-06-07T16:22:50Z</time>
      </trkpt>
      <trkpt lat="40.016500" lon="-5.761000">
        <ele>623.0</ele>
        <time>2015-06-07T16:22:52Z</time>
      </trkpt>
      <trkpt lat="40.016350" lon="-5.761017">
        <ele>626.0</ele>
        <time>2015-06-07T16:22:54Z</time>
      </trkpt>
      <trkpt lat="40.016217" lon="-5.761017">
        <ele>628.0</ele>
        <time>2015-06-07T16:22:56Z</time>
      </trkpt>
      <trkpt lat="40.016083" lon="-5.761000">
        <ele>629.0</ele>
        <time>2015-06-07T16:22:58Z</time>
      </trkpt>
      <trkpt lat="40.015933" lon="-5.760983">
        <ele>632.0</ele>
        <time>2015-06-07T16:23:00Z</time>
      </trkpt>
      <trkpt lat="40.015833" lon="-5.760917">
        <ele>634.0</ele>
        <time>2015-06-07T16:23:02Z</time>
      </trkpt>
      <trkpt lat="40.015900" lon="-5.760800">
        <ele>633.0</ele>
        <time>2015-06-07T16:23:04Z</time>
      </trkpt>
      <trkpt lat="40.016100" lon="-5.760800">
        <ele>632.0</ele>
        <time>2015-06-07T16:23:06Z</time>
      </trkpt>
      <trkpt lat="40.016283" lon="-5.760900">
        <ele>637.0</ele>
        <time>2015-06-07T16:23:08Z</time>
      </trkpt>
      <trkpt lat="40.016417" lon="-5.760983">
        <ele>641.0</ele>
        <time>2015-06-07T16:23:10Z</time>
      </trkpt>
      <trkpt lat="40.016583" lon="-5.761117">
        <ele>641.0</ele>
        <time>2015-06-07T16:23:12Z</time>
      </trkpt>
      <trkpt lat="40.016750" lon="-5.761283">
        <ele>644.0</ele>
        <time>2015-06-07T16:23:14Z</time>
      </trkpt>
      <trkpt lat="40.016867" lon="-5.761433">
        <ele>647.0</ele>
        <time>2015-06-07T16:23:16Z</time>
      </trkpt>
      <trkpt lat="40.017000" lon="-5.761583">
        <ele>647.0</ele>
        <time>2015-06-07T16:23:18Z</time>
      </trkpt>
      <trkpt lat="40.017150" lon="-5.761700">
        <ele>649.0</ele>
        <time>2015-06-07T16:23:20Z</time>
      </trkpt>
      <trkpt lat="40.017283" lon="-5.761783">
        <ele>650.0</ele>
        <time>2015-06-07T16:23:22Z</time>
      </trkpt>
      <trkpt lat="40.017433" lon="-5.761867">
        <ele>651.0</ele>
        <time>2015-06-07T16:23:24Z</time>
      </trkpt>
      <trkpt lat="40.017583" lon="-5.761967">
        <ele>650.0</ele>
        <time>2015-06-07T16:23:26Z</time>
      </trkpt>
      <trkpt lat="40.017733" lon="-5.762117">
        <ele>648.0</ele>
        <time>2015-06-07T16:23:28Z</time>
      </trkpt>
      <trkpt lat="40.017867" lon="-5.762233">
        <ele>651.0</ele>
        <time>2015-06-07T16:23:30Z</time>
      </trkpt>
      <trkpt lat="40.017983" lon="-5.762300">
        <ele>652.0</ele>
        <time>2015-06-07T16:23:32Z</time>
      </trkpt>
      <trkpt lat="40.018117" lon="-5.762433">
        <ele>650.0</ele>
        <time>2015-06-07T16:23:34Z</time>
      </trkpt>
      <trkpt lat="40.018267" lon="-5.762533">
        <ele>654.0</ele>
        <time>2015-06-07T16:23:36Z</time>
      </trkpt>
      <trkpt lat="40.018383" lon="-5.762600">
        <ele>659.0</ele>
        <time>2015-06-07T16:23:38Z</time>
      </trkpt>
      <trkpt lat="40.018450" lon="-5.762717">
        <ele>660.0</ele>
        <time>2015-06-07T16:23:40Z</time>
      </trkpt>
      <trkpt lat="40.018567" lon="-5.762800">
        <ele>656.0</ele>
        <time>2015-06-07T16:23:42Z</time>
      </trkpt>
      <trkpt lat="40.018700" lon="-5.762883">
        <ele>655.0</ele>
        <time>2015-06-07T16:23:44Z</time>
      </trkpt>
      <trkpt lat="40.018800" lon="-5.762983">
        <ele>657.0</ele>
        <time>2015-06-07T16:23:46Z</time>
      </trkpt>
      <trkpt lat="40.018900" lon="-5.763067">
        <ele>657.0</ele>
        <time>2015-06-07T16:23:48Z</time>
      </trkpt>
      <trkpt lat="40.019017" lon="-5.763100">
        <ele>656.0</ele>
        <time>2015-06-07T16:23:50Z</time>
      </trkpt>
      <trkpt lat="40.019133" lon="-5.763117">
        <ele>655.0</ele>
        <time>2015-06-07T16:23:52Z</time>
      </trkpt>
      <trkpt lat="40.019250" lon="-5.763150">
        <ele>653.0</ele>
        <time>2015-06-07T16:23:54Z</time>
      </trkpt>
      <trkpt lat="40.019350" lon="-5.763200">
        <ele>651.0</ele>
        <time>2015-06-07T16:23:56Z</time>
      </trkpt>
      <trkpt lat="40.019467" lon="-5.763233">
        <ele>647.0</ele>
        <time>2015-06-07T16:23:58Z</time>
      </trkpt>
      <trkpt lat="40.019583" lon="-5.763267">
        <ele>643.0</ele>
        <time>2015-06-07T16:24:00Z</time>
      </trkpt>
      <trkpt lat="40.019700" lon="-5.763317">
        <ele>639.0</ele>
        <time>2015-06-07T16:24:02Z</time>
      </trkpt>
      <trkpt lat="40.019817" lon="-5.763367">
        <ele>634.0</ele>
        <time>2015-06-07T16:24:04Z</time>
      </trkpt>
      <trkpt lat="40.019933" lon="-5.763417">
        <ele>630.0</ele>
        <time>2015-06-07T16:24:06Z</time>
      </trkpt>
      <trkpt lat="40.020050" lon="-5.763500">
        <ele>627.0</ele>
        <time>2015-06-07T16:24:08Z</time>
      </trkpt>
      <trkpt lat="40.020150" lon="-5.763567">
        <ele>623.0</ele>
        <time>2015-06-07T16:24:10Z</time>
      </trkpt>
      <trkpt lat="40.020250" lon="-5.763633">
        <ele>618.0</ele>
        <time>2015-06-07T16:24:12Z</time>
      </trkpt>
      <trkpt lat="40.020367" lon="-5.763667">
        <ele>615.0</ele>
        <time>2015-06-07T16:24:14Z</time>
      </trkpt>
      <trkpt lat="40.020450" lon="-5.763650">
        <ele>612.0</ele>
        <time>2015-06-07T16:24:16Z</time>
      </trkpt>
      <trkpt lat="40.020550" lon="-5.763617">
        <ele>608.0</ele>
        <time>2015-06-07T16:24:18Z</time>
      </trkpt>
      <trkpt lat="40.020633" lon="-5.763567">
        <ele>604.0</ele>
        <time>2015-06-07T16:24:20Z</time>
      </trkpt>
      <trkpt lat="40.020700" lon="-5.763467">
        <ele>600.0</ele>
        <time>2015-06-07T16:24:22Z</time>
      </trkpt>
      <trkpt lat="40.020750" lon="-5.763350">
        <ele>596.0</ele>
        <time>2015-06-07T16:24:24Z</time>
      </trkpt>
      <trkpt lat="40.020767" lon="-5.763217">
        <ele>591.0</ele>
        <time>2015-06-07T16:24:26Z</time>
      </trkpt>
      <trkpt lat="40.020783" lon="-5.763067">
        <ele>587.0</ele>
        <time>2015-06-07T16:24:28Z</time>
      </trkpt>
      <trkpt lat="40.020783" lon="-5.762917">
        <ele>583.0</ele>
        <time>2015-06-07T16:24:30Z</time>
      </trkpt>
      <trkpt lat="40.020817" lon="-5.762800">
        <ele>579.0</ele>
        <time>2015-06-07T16:24:32Z</time>
      </trkpt>
      <trkpt lat="40.020850" lon="-5.762700">
        <ele>575.0</ele>
        <time>2015-06-07T16:24:34Z</time>
      </trkpt>
      <trkpt lat="40.020883" lon="-5.762583">
        <ele>572.0</ele>
        <time>2015-06-07T16:24:36Z</time>
      </trkpt>
      <trkpt lat="40.020883" lon="-5.762450">
        <ele>569.0</ele>
        <time>2015-06-07T16:24:38Z</time>
      </trkpt>
      <trkpt lat="40.020883" lon="-5.762317">
        <ele>564.0</ele>
        <time>2015-06-07T16:24:40Z</time>
      </trkpt>
      <trkpt lat="40.020850" lon="-5.762167">
        <ele>561.0</ele>
        <time>2015-06-07T16:24:42Z</time>
      </trkpt>
      <trkpt lat="40.020800" lon="-5.762000">
        <ele>559.0</ele>
        <time>2015-06-07T16:24:44Z</time>
      </trkpt>
      <trkpt lat="40.020733" lon="-5.761833">
        <ele>558.0</ele>
        <time>2015-06-07T16:24:46Z</time>
      </trkpt>
      <trkpt lat="40.020667" lon="-5.761700">
        <ele>555.0</ele>
        <time>2015-06-07T16:24:48Z</time>
      </trkpt>
      <trkpt lat="40.020617" lon="-5.761567">
        <ele>550.0</ele>
        <time>2015-06-07T16:24:50Z</time>
      </trkpt>
      <trkpt lat="40.020600" lon="-5.761400">
        <ele>546.0</ele>
        <time>2015-06-07T16:24:52Z</time>
      </trkpt>
      <trkpt lat="40.020617" lon="-5.761267">
        <ele>544.0</ele>
        <time>2015-06-07T16:24:54Z</time>
      </trkpt>
      <trkpt lat="40.020667" lon="-5.761183">
        <ele>542.0</ele>
        <time>2015-06-07T16:24:56Z</time>
      </trkpt>
      <trkpt lat="40.020733" lon="-5.761150">
        <ele>543.0</ele>
        <time>2015-06-07T16:24:58Z</time>
      </trkpt>
      <trkpt lat="40.020817" lon="-5.761117">
        <ele>542.0</ele>
        <time>2015-06-07T16:25:00Z</time>
      </trkpt>
      <trkpt lat="40.020917" lon="-5.761100">
        <ele>542.0</ele>
        <time>2015-06-07T16:25:02Z</time>
      </trkpt>
      <trkpt lat="40.020950" lon="-5.761033">
        <ele>541.0</ele>
        <time>2015-06-07T16:25:04Z</time>
      </trkpt>
      <trkpt lat="40.020917" lon="-5.760900">
        <ele>538.0</ele>
        <time>2015-06-07T16:25:06Z</time>
      </trkpt>
      <trkpt lat="40.020800" lon="-5.760733">
        <ele>536.0</ele>
        <time>2015-06-07T16:25:08Z</time>
      </trkpt>
      <trkpt lat="40.020617" lon="-5.760650">
        <ele>536.0</ele>
        <time>2015-06-07T16:25:10Z</time>
      </trkpt>
      <trkpt lat="40.020400" lon="-5.760633">
        <ele>538.0</ele>
        <time>2015-06-07T16:25:12Z</time>
      </trkpt>
      <trkpt lat="40.020183" lon="-5.760600">
        <ele>539.0</ele>
        <time>2015-06-07T16:25:14Z</time>
      </trkpt>
      <trkpt lat="40.019983" lon="-5.760583">
        <ele>545.0</ele>
        <time>2015-06-07T16:25:16Z</time>
      </trkpt>
      <trkpt lat="40.019817" lon="-5.760550">
        <ele>549.0</ele>
        <time>2015-06-07T16:25:18Z</time>
      </trkpt>
      <trkpt lat="40.019750" lon="-5.760483">
        <ele>548.0</ele>
        <time>2015-06-07T16:25:20Z</time>
      </trkpt>
      <trkpt lat="40.019883" lon="-5.760483">
        <ele>543.0</ele>
        <time>2015-06-07T16:25:22Z</time>
      </trkpt>
      <trkpt lat="40.020033" lon="-5.760667">
        <ele>544.0</ele>
        <time>2015-06-07T16:25:24Z</time>
      </trkpt>
      <trkpt lat="40.020100" lon="-5.760833">
        <ele>549.0</ele>
        <time>2015-06-07T16:25:26Z</time>
      </trkpt>
      <trkpt lat="40.020200" lon="-5.760950">
        <ele>549.0</ele>
        <time>2015-06-07T16:25:28Z</time>
      </trkpt>
      <trkpt lat="40.020333" lon="-5.761100">
        <ele>551.0</ele>
        <time>2015-06-07T16:25:30Z</time>
      </trkpt>
      <trkpt lat="40.020400" lon="-5.761217">
        <ele>555.0</ele>
        <time>2015-06-07T16:25:32Z</time>
      </trkpt>
      <trkpt lat="40.020483" lon="-5.761350">
        <ele>553.0</ele>
        <time>2015-06-07T16:25:34Z</time>
      </trkpt>
      <trkpt lat="40.020583" lon="-5.761500">
        <ele>553.0</ele>
        <time>2015-06-07T16:25:36Z</time>
      </trkpt>
      <trkpt lat="40.020667" lon="-5.761617">
        <ele>554.0</ele>
        <time>2015-06-07T16:25:38Z</time>
      </trkpt>
      <trkpt lat="40.020733" lon="-5.761717">
        <ele>552.0</ele>
        <time>2015-06-07T16:25:40Z</time>
      </trkpt>
      <trkpt lat="40.020850" lon="-5.761783">
        <ele>547.0</ele>
        <time>2015-06-07T16:25:42Z</time>
      </trkpt>
      <trkpt lat="40.020967" lon="-5.761850">
        <ele>546.0</ele>
        <time>2015-06-07T16:25:44Z</time>
      </trkpt>
      <trkpt lat="40.021050" lon="-5.761933">
        <ele>544.0</ele>
        <time>2015-06-07T16:25:46Z</time>
      </trkpt>
      <trkpt lat="40.021133" lon="-5.761950">
        <ele>539.0</ele>
        <time>2015-06-07T16:25:48Z</time>
      </trkpt>
      <trkpt lat="40.021233" lon="-5.761933">
        <ele>536.0</ele>
        <time>2015-06-07T16:25:50Z</time>
      </trkpt>
      <trkpt lat="40.021300" lon="-5.761917">
        <ele>534.0</ele>
        <time>2015-06-07T16:25:52Z</time>
      </trkpt>
      <trkpt lat="40.021367" lon="-5.761867">
        <ele>530.0</ele>
        <time>2015-06-07T16:25:54Z</time>
      </trkpt>
      <trkpt lat="40.021450" lon="-5.761783">
        <ele>525.0</ele>
        <time>2015-06-07T16:25:56Z</time>
      </trkpt>
      <trkpt lat="40.021500" lon="-5.761683">
        <ele>522.0</ele>
        <time>2015-06-07T16:25:58Z</time>
      </trkpt>
      <trkpt lat="40.021550" lon="-5.761567">
        <ele>519.0</ele>
        <time>2015-06-07T16:26:00Z</time>
      </trkpt>
      <trkpt lat="40.021600" lon="-5.761467">
        <ele>515.0</ele>
        <time>2015-06-07T16:26:02Z</time>
      </trkpt>
      <trkpt lat="40.021633" lon="-5.761350">
        <ele>512.0</ele>
        <time>2015-06-07T16:26:04Z</time>
      </trkpt>
      <trkpt lat="40.021683" lon="-5.761250">
        <ele>509.0</ele>
        <time>2015-06-07T16:26:06Z</time>
      </trkpt>
      <trkpt lat="40.021750" lon="-5.761183">
        <ele>504.0</ele>
        <time>2015-06-07T16:26:08Z</time>
      </trkpt>
      <trkpt lat="40.021850" lon="-5.761100">
        <ele>501.0</ele>
        <time>2015-06-07T16:26:10Z</time>
      </trkpt>
      <trkpt lat="40.021917" lon="-5.761000">
        <ele>499.0</ele>
        <time>2015-06-07T16:26:12Z</time>
      </trkpt>
      <trkpt lat="40.021983" lon="-5.760900">
        <ele>496.0</ele>
        <time>2015-06-07T16:26:14Z</time>
      </trkpt>
      <trkpt lat="40.022033" lon="-5.760783">
        <ele>494.0</ele>
        <time>2015-06-07T16:26:16Z</time>
      </trkpt>
      <trkpt lat="40.022083" lon="-5.760667">
        <ele>492.0</ele>
        <time>2015-06-07T16:26:18Z</time>
      </trkpt>
      <trkpt lat="40.022133" lon="-5.760567">
        <ele>489.0</ele>
        <time>2015-06-07T16:26:20Z</time>
      </trkpt>
      <trkpt lat="40.022167" lon="-5.760467">
        <ele>485.0</ele>
        <time>2015-06-07T16:26:22Z</time>
      </trkpt>
      <trkpt lat="40.022200" lon="-5.760333">
        <ele>482.0</ele>
        <time>2015-06-07T16:26:24Z</time>
      </trkpt>
      <trkpt lat="40.022233" lon="-5.760250">
        <ele>480.0</ele>
        <time>2015-06-07T16:26:26Z</time>
      </trkpt>
      <trkpt lat="40.022250" lon="-5.760117">
        <ele>476.0</ele>
        <time>2015-06-07T16:26:28Z</time>
      </trkpt>
      <trkpt lat="40.022250" lon="-5.759983">
        <ele>473.0</ele>
        <time>2015-06-07T16:26:30Z</time>
      </trkpt>
      <trkpt lat="40.022250" lon="-5.759850">
        <ele>470.0</ele>
        <time>2015-06-07T16:26:32Z</time>
      </trkpt>
      <trkpt lat="40.022283" lon="-5.759733">
        <ele>466.0</ele>
        <time>2015-06-07T16:26:34Z</time>
      </trkpt>
      <trkpt lat="40.022333" lon="-5.759633">
        <ele>462.0</ele>
        <time>2015-06-07T16:26:36Z</time>
      </trkpt>
      <trkpt lat="40.022367" lon="-5.759517">
        <ele>458.0</ele>
        <time>2015-06-07T16:26:38Z</time>
      </trkpt>
      <trkpt lat="40.022400" lon="-5.759383">
        <ele>453.0</ele>
        <time>2015-06-07T16:26:40Z</time>
      </trkpt>
      <trkpt lat="40.022450" lon="-5.759233">
        <ele>448.0</ele>
        <time>2015-06-07T16:26:42Z</time>
      </trkpt>
      <trkpt lat="40.022483" lon="-5.759117">
        <ele>447.0</ele>
        <time>2015-06-07T16:26:44Z</time>
      </trkpt>
      <trkpt lat="40.022517" lon="-5.759017">
        <ele>444.0</ele>
        <time>2015-06-07T16:26:46Z</time>
      </trkpt>
      <trkpt lat="40.022567" lon="-5.758883">
        <ele>438.0</ele>
        <time>2015-06-07T16:26:48Z</time>
      </trkpt>
      <trkpt lat="40.022617" lon="-5.758733">
        <ele>437.0</ele>
        <time>2015-06-07T16:26:50Z</time>
      </trkpt>
      <trkpt lat="40.022633" lon="-5.758617">
        <ele>435.0</ele>
        <time>2015-06-07T16:26:52Z</time>
      </trkpt>
      <trkpt lat="40.022650" lon="-5.758483">
        <ele>432.0</ele>
        <time>2015-06-07T16:26:54Z</time>
      </trkpt>
      <trkpt lat="40.022733" lon="-5.758350">
        <ele>427.0</ele>
        <time>2015-06-07T16:26:56Z</time>
      </trkpt>
      <trkpt lat="40.022817" lon="-5.758267">
        <ele>426.0</ele>
        <time>2015-06-07T16:26:58Z</time>
      </trkpt>
      <trkpt lat="40.022833" lon="-5.758183">
        <ele>424.0</ele>
        <time>2015-06-07T16:27:00Z</time>
      </trkpt>
      <trkpt lat="40.022833" lon="-5.758167">
        <ele>423.0</ele>
        <time>2015-06-07T16:27:02Z</time>
      </trkpt>
      <trkpt lat="40.022833" lon="-5.758167">
        <ele>423.0</ele>
        <time>2015-06-07T16:27:04Z</time>
      </trkpt>
      <trkpt lat="40.022817" lon="-5.758167">
        <ele>423.0</ele>
        <time>2015-06-07T16:27:06Z</time>
      </trkpt>
      <trkpt lat="40.022817" lon="-5.758167">
        <ele>423.0</ele>
        <time>2015-06-07T16:27:08Z</time>
      </trkpt>
      <trkpt lat="40.022817" lon="-5.758167">
        <ele>423.0</ele>
        <time>2015-06-07T16:27:10Z</time>
      </trkpt>
      <trkpt lat="40.022817" lon="-5.758167">
        <ele>423.0</ele>
        <time>2015-06-07T16:27:12Z</time>
      </trkpt>
      <trkpt lat="40.022817" lon="-5.758167">
        <ele>422.0</ele>
        <time>2015-06-07T16:27:14Z</time>
      </trkpt>
      <trkpt lat="40.022817" lon="-5.758167">
        <ele>423.0</ele>
        <time>2015-06-07T16:27:16Z</time>
      </trkpt>
      <trkpt lat="40.022833" lon="-5.758183">
        <ele>425.0</ele>
        <time>2015-06-07T16:27:18Z</time>
      </trkpt>
      <trkpt lat="40.022817" lon="-5.758183">
        <ele>423.0</ele>
        <time>2015-06-07T16:27:20Z</time>
      </trkpt>
      <trkpt lat="40.022817" lon="-5.758183">
        <ele>423.0</ele>
        <time>2015-06-07T16:27:22Z</time>
      </trkpt>
      <trkpt lat="40.022817" lon="-5.758183">
        <ele>424.0</ele>
        <time>2015-06-07T16:27:24Z</time>
      </trkpt>
      <trkpt lat="40.022817" lon="-5.758183">
        <ele>424.0</ele>
        <time>2015-06-07T16:27:26Z</time>
      </trkpt>
      <trkpt lat="40.022817" lon="-5.758167">
        <ele>423.0</ele>
        <time>2015-06-07T16:27:28Z</time>
      </trkpt>
    </trkseg>
  </trk>
</gpx>
